<?xml version="1.0" encoding="UTF-8" standalone="no" ?>
<gpx xmlns="http://www.topografix.com/GPX/1/1" xmlns:xsi="http://www.w3.org/2001/XMLSchema-instance" xsi:schemaLocation="http://www.topografix.com/GPX/1/1 http://www.topografix.com/GPX/1/1/gpx.xsd" version="1.1" creator="VisuGPX - https://www.visugpx.com">
  <metadata>
    <name>Tour du lac d\'Annecy</name>
    <desc><![CDATA[Basé sur:
http://www.vttour.fr/topos/lac-d-annecy,787.html

Départ de Doussard
Pas de passage par Entrevernnes, trop mal aux jambes.

]]></desc>
  </metadata>
  <trk>
    <name><![CDATA[Tour du lac d\'Annecy_1]]></name>
    <trkseg>
      <trkpt lat="45.76891" lon="6.22367">
        <ele>496</ele>
        <time>2011-08-01T06:15:48Z</time>
      </trkpt>
      <trkpt lat="45.76891" lon="6.22368">
        <ele>496</ele>
        <time>2011-08-01T06:15:49Z</time>
      </trkpt>
      <trkpt lat="45.76899" lon="6.22347">
        <ele>495</ele>
        <time>2011-08-01T06:15:52Z</time>
      </trkpt>
      <trkpt lat="45.76908" lon="6.22343">
        <ele>495</ele>
        <time>2011-08-01T06:15:56Z</time>
      </trkpt>
      <trkpt lat="45.76918" lon="6.2236">
        <ele>493</ele>
        <time>2011-08-01T06:16:01Z</time>
      </trkpt>
      <trkpt lat="45.76937" lon="6.22385">
        <ele>493</ele>
        <time>2011-08-01T06:16:06Z</time>
      </trkpt>
      <trkpt lat="45.76947" lon="6.22394">
        <ele>493</ele>
        <time>2011-08-01T06:16:08Z</time>
      </trkpt>
      <trkpt lat="45.76971" lon="6.22409">
        <ele>492</ele>
        <time>2011-08-01T06:16:13Z</time>
      </trkpt>
      <trkpt lat="45.76986" lon="6.22419">
        <ele>492</ele>
        <time>2011-08-01T06:16:16Z</time>
      </trkpt>
      <trkpt lat="45.77005" lon="6.22435">
        <ele>491</ele>
        <time>2011-08-01T06:16:20Z</time>
      </trkpt>
      <trkpt lat="45.77024" lon="6.2247">
        <ele>491</ele>
        <time>2011-08-01T06:16:26Z</time>
      </trkpt>
      <trkpt lat="45.77032" lon="6.22489">
        <ele>491</ele>
        <time>2011-08-01T06:16:29Z</time>
      </trkpt>
      <trkpt lat="45.77053" lon="6.22551">
        <ele>489</ele>
        <time>2011-08-01T06:16:37Z</time>
      </trkpt>
      <trkpt lat="45.77077" lon="6.22616">
        <ele>489</ele>
        <time>2011-08-01T06:16:45Z</time>
      </trkpt>
      <trkpt lat="45.77096" lon="6.22643">
        <ele>488</ele>
        <time>2011-08-01T06:16:49Z</time>
      </trkpt>
      <trkpt lat="45.77125" lon="6.22663">
        <ele>487</ele>
        <time>2011-08-01T06:16:54Z</time>
      </trkpt>
      <trkpt lat="45.77163" lon="6.22679">
        <ele>487</ele>
        <time>2011-08-01T06:17:00Z</time>
      </trkpt>
      <trkpt lat="45.77201" lon="6.227">
        <ele>485</ele>
        <time>2011-08-01T06:17:06Z</time>
      </trkpt>
      <trkpt lat="45.77243" lon="6.22732">
        <ele>484</ele>
        <time>2011-08-01T06:17:13Z</time>
      </trkpt>
      <trkpt lat="45.7728" lon="6.22766">
        <ele>483</ele>
        <time>2011-08-01T06:17:20Z</time>
      </trkpt>
      <trkpt lat="45.77316" lon="6.22796">
        <ele>482</ele>
        <time>2011-08-01T06:17:26Z</time>
      </trkpt>
      <trkpt lat="45.77351" lon="6.2284">
        <ele>481</ele>
        <time>2011-08-01T06:17:33Z</time>
      </trkpt>
      <trkpt lat="45.77377" lon="6.22863">
        <ele>480</ele>
        <time>2011-08-01T06:17:38Z</time>
      </trkpt>
      <trkpt lat="45.77423" lon="6.22894">
        <ele>479</ele>
        <time>2011-08-01T06:17:46Z</time>
      </trkpt>
      <trkpt lat="45.7745" lon="6.22921">
        <ele>480</ele>
        <time>2011-08-01T06:17:51Z</time>
      </trkpt>
      <trkpt lat="45.77468" lon="6.22957">
        <ele>481</ele>
        <time>2011-08-01T06:17:56Z</time>
      </trkpt>
      <trkpt lat="45.77488" lon="6.23">
        <ele>481</ele>
        <time>2011-08-01T06:18:02Z</time>
      </trkpt>
      <trkpt lat="45.7752" lon="6.23028">
        <ele>482</ele>
        <time>2011-08-01T06:18:08Z</time>
      </trkpt>
      <trkpt lat="45.77565" lon="6.23051">
        <ele>481</ele>
        <time>2011-08-01T06:18:16Z</time>
      </trkpt>
      <trkpt lat="45.77603" lon="6.2307">
        <ele>477</ele>
        <time>2011-08-01T06:18:23Z</time>
      </trkpt>
      <trkpt lat="45.77636" lon="6.23084">
        <ele>476</ele>
        <time>2011-08-01T06:18:29Z</time>
      </trkpt>
      <trkpt lat="45.77656" lon="6.23112">
        <ele>476</ele>
        <time>2011-08-01T06:18:34Z</time>
      </trkpt>
      <trkpt lat="45.77688" lon="6.23163">
        <ele>472</ele>
        <time>2011-08-01T06:18:42Z</time>
      </trkpt>
      <trkpt lat="45.77728" lon="6.23221">
        <ele>470</ele>
        <time>2011-08-01T06:18:51Z</time>
      </trkpt>
      <trkpt lat="45.77768" lon="6.23278">
        <ele>468</ele>
        <time>2011-08-01T06:19:00Z</time>
      </trkpt>
      <trkpt lat="45.77781" lon="6.23302">
        <ele>469</ele>
        <time>2011-08-01T06:19:05Z</time>
      </trkpt>
      <trkpt lat="45.77784" lon="6.23306">
        <ele>469</ele>
        <time>2011-08-01T06:19:07Z</time>
      </trkpt>
      <trkpt lat="45.77784" lon="6.23309">
        <ele>469</ele>
        <time>2011-08-01T06:19:13Z</time>
      </trkpt>
      <trkpt lat="45.77785" lon="6.23311">
        <ele>469</ele>
        <time>2011-08-01T06:19:14Z</time>
      </trkpt>
      <trkpt lat="45.778" lon="6.23326">
        <ele>469</ele>
        <time>2011-08-01T06:19:19Z</time>
      </trkpt>
      <trkpt lat="45.77807" lon="6.23336">
        <ele>469</ele>
        <time>2011-08-01T06:19:21Z</time>
      </trkpt>
      <trkpt lat="45.77839" lon="6.23385">
        <ele>469</ele>
        <time>2011-08-01T06:19:29Z</time>
      </trkpt>
      <trkpt lat="45.77879" lon="6.23445">
        <ele>468</ele>
        <time>2011-08-01T06:19:38Z</time>
      </trkpt>
      <trkpt lat="45.77908" lon="6.23495">
        <ele>468</ele>
        <time>2011-08-01T06:19:45Z</time>
      </trkpt>
      <trkpt lat="45.77929" lon="6.2356">
        <ele>467</ele>
        <time>2011-08-01T06:19:53Z</time>
      </trkpt>
      <trkpt lat="45.7795" lon="6.23624">
        <ele>466</ele>
        <time>2011-08-01T06:20:01Z</time>
      </trkpt>
      <trkpt lat="45.77973" lon="6.23677">
        <ele>465</ele>
        <time>2011-08-01T06:20:08Z</time>
      </trkpt>
      <trkpt lat="45.77997" lon="6.23709">
        <ele>465</ele>
        <time>2011-08-01T06:20:13Z</time>
      </trkpt>
      <trkpt lat="45.78028" lon="6.2374">
        <ele>464</ele>
        <time>2011-08-01T06:20:19Z</time>
      </trkpt>
      <trkpt lat="45.78042" lon="6.23757">
        <ele>464</ele>
        <time>2011-08-01T06:20:22Z</time>
      </trkpt>
      <trkpt lat="45.78067" lon="6.23813">
        <ele>463</ele>
        <time>2011-08-01T06:20:30Z</time>
      </trkpt>
      <trkpt lat="45.78086" lon="6.23862">
        <ele>462</ele>
        <time>2011-08-01T06:20:37Z</time>
      </trkpt>
      <trkpt lat="45.781" lon="6.23886">
        <ele>462</ele>
        <time>2011-08-01T06:20:41Z</time>
      </trkpt>
      <trkpt lat="45.78113" lon="6.239">
        <ele>462</ele>
        <time>2011-08-01T06:20:44Z</time>
      </trkpt>
      <trkpt lat="45.78135" lon="6.23926">
        <ele>462</ele>
        <time>2011-08-01T06:20:49Z</time>
      </trkpt>
      <trkpt lat="45.7815" lon="6.23979">
        <ele>462</ele>
        <time>2011-08-01T06:20:56Z</time>
      </trkpt>
      <trkpt lat="45.78149" lon="6.24011">
        <ele>463</ele>
        <time>2011-08-01T06:21:00Z</time>
      </trkpt>
      <trkpt lat="45.78146" lon="6.24027">
        <ele>464</ele>
        <time>2011-08-01T06:21:02Z</time>
      </trkpt>
      <trkpt lat="45.78144" lon="6.24043">
        <ele>464</ele>
        <time>2011-08-01T06:21:04Z</time>
      </trkpt>
      <trkpt lat="45.78142" lon="6.24065">
        <ele>465</ele>
        <time>2011-08-01T06:21:07Z</time>
      </trkpt>
      <trkpt lat="45.78146" lon="6.24095">
        <ele>472</ele>
        <time>2011-08-01T06:21:11Z</time>
      </trkpt>
      <trkpt lat="45.78149" lon="6.24109">
        <ele>474</ele>
        <time>2011-08-01T06:21:13Z</time>
      </trkpt>
      <trkpt lat="45.78141" lon="6.24141">
        <ele>478</ele>
        <time>2011-08-01T06:21:18Z</time>
      </trkpt>
      <trkpt lat="45.78127" lon="6.2415">
        <ele>477</ele>
        <time>2011-08-01T06:21:21Z</time>
      </trkpt>
      <trkpt lat="45.78106" lon="6.24155">
        <ele>475</ele>
        <time>2011-08-01T06:21:26Z</time>
      </trkpt>
      <trkpt lat="45.78102" lon="6.24156">
        <ele>475</ele>
        <time>2011-08-01T06:21:27Z</time>
      </trkpt>
      <trkpt lat="45.78093" lon="6.24156">
        <ele>474</ele>
        <time>2011-08-01T06:21:29Z</time>
      </trkpt>
      <trkpt lat="45.78067" lon="6.24156">
        <ele>470</ele>
        <time>2011-08-01T06:21:35Z</time>
      </trkpt>
      <trkpt lat="45.78046" lon="6.24164">
        <ele>468</ele>
        <time>2011-08-01T06:21:39Z</time>
      </trkpt>
      <trkpt lat="45.78024" lon="6.24171">
        <ele>475</ele>
        <time>2011-08-01T06:21:44Z</time>
      </trkpt>
      <trkpt lat="45.7802" lon="6.24175">
        <ele>474</ele>
        <time>2011-08-01T06:21:45Z</time>
      </trkpt>
      <trkpt lat="45.78012" lon="6.24184">
        <ele>475</ele>
        <time>2011-08-01T06:21:47Z</time>
      </trkpt>
      <trkpt lat="45.77999" lon="6.24202">
        <ele>471</ele>
        <time>2011-08-01T06:21:51Z</time>
      </trkpt>
      <trkpt lat="45.77986" lon="6.24224">
        <ele>473</ele>
        <time>2011-08-01T06:21:55Z</time>
      </trkpt>
      <trkpt lat="45.77972" lon="6.2425">
        <ele>474</ele>
        <time>2011-08-01T06:22:00Z</time>
      </trkpt>
      <trkpt lat="45.77957" lon="6.24282">
        <ele>483</ele>
        <time>2011-08-01T06:22:06Z</time>
      </trkpt>
      <trkpt lat="45.77948" lon="6.24301">
        <ele>483</ele>
        <time>2011-08-01T06:22:10Z</time>
      </trkpt>
      <trkpt lat="45.77936" lon="6.24315">
        <ele>483</ele>
        <time>2011-08-01T06:22:15Z</time>
      </trkpt>
      <trkpt lat="45.7793" lon="6.24319">
        <ele>483</ele>
        <time>2011-08-01T06:22:17Z</time>
      </trkpt>
      <trkpt lat="45.77905" lon="6.24321">
        <ele>476</ele>
        <time>2011-08-01T06:22:25Z</time>
      </trkpt>
      <trkpt lat="45.77887" lon="6.2433">
        <ele>474</ele>
        <time>2011-08-01T06:22:29Z</time>
      </trkpt>
      <trkpt lat="45.7787" lon="6.24347">
        <ele>485</ele>
        <time>2011-08-01T06:22:32Z</time>
      </trkpt>
      <trkpt lat="45.77844" lon="6.24374">
        <ele>488</ele>
        <time>2011-08-01T06:22:37Z</time>
      </trkpt>
      <trkpt lat="45.77833" lon="6.24378">
        <ele>488</ele>
        <time>2011-08-01T06:22:39Z</time>
      </trkpt>
      <trkpt lat="45.77821" lon="6.2438">
        <ele>489</ele>
        <time>2011-08-01T06:22:41Z</time>
      </trkpt>
      <trkpt lat="45.77808" lon="6.24372">
        <ele>488</ele>
        <time>2011-08-01T06:22:44Z</time>
      </trkpt>
      <trkpt lat="45.77785" lon="6.24364">
        <ele>487</ele>
        <time>2011-08-01T06:22:48Z</time>
      </trkpt>
      <trkpt lat="45.77753" lon="6.24352">
        <ele>482</ele>
        <time>2011-08-01T06:22:54Z</time>
      </trkpt>
      <trkpt lat="45.77739" lon="6.24344">
        <ele>484</ele>
        <time>2011-08-01T06:22:57Z</time>
      </trkpt>
      <trkpt lat="45.77726" lon="6.24339">
        <ele>488</ele>
        <time>2011-08-01T06:23:00Z</time>
      </trkpt>
      <trkpt lat="45.77699" lon="6.24327">
        <ele>474</ele>
        <time>2011-08-01T06:23:06Z</time>
      </trkpt>
      <trkpt lat="45.77693" lon="6.24325">
        <ele>474</ele>
        <time>2011-08-01T06:23:07Z</time>
      </trkpt>
      <trkpt lat="45.77683" lon="6.24324">
        <ele>476</ele>
        <time>2011-08-01T06:23:09Z</time>
      </trkpt>
      <trkpt lat="45.77661" lon="6.24319">
        <ele>480</ele>
        <time>2011-08-01T06:23:14Z</time>
      </trkpt>
      <trkpt lat="45.77647" lon="6.24312">
        <ele>479</ele>
        <time>2011-08-01T06:23:17Z</time>
      </trkpt>
      <trkpt lat="45.77623" lon="6.243">
        <ele>479</ele>
        <time>2011-08-01T06:23:22Z</time>
      </trkpt>
      <trkpt lat="45.77609" lon="6.24294">
        <ele>479</ele>
        <time>2011-08-01T06:23:25Z</time>
      </trkpt>
      <trkpt lat="45.77602" lon="6.24291">
        <ele>479</ele>
        <time>2011-08-01T06:23:27Z</time>
      </trkpt>
      <trkpt lat="45.77588" lon="6.24287">
        <ele>478</ele>
        <time>2011-08-01T06:23:30Z</time>
      </trkpt>
      <trkpt lat="45.7757" lon="6.24282">
        <ele>481</ele>
        <time>2011-08-01T06:23:36Z</time>
      </trkpt>
      <trkpt lat="45.77551" lon="6.2428">
        <ele>482</ele>
        <time>2011-08-01T06:23:41Z</time>
      </trkpt>
      <trkpt lat="45.77531" lon="6.24278">
        <ele>483</ele>
        <time>2011-08-01T06:23:46Z</time>
      </trkpt>
      <trkpt lat="45.77506" lon="6.24273">
        <ele>481</ele>
        <time>2011-08-01T06:23:51Z</time>
      </trkpt>
      <trkpt lat="45.7749" lon="6.24271">
        <ele>482</ele>
        <time>2011-08-01T06:23:54Z</time>
      </trkpt>
      <trkpt lat="45.77462" lon="6.2427">
        <ele>483</ele>
        <time>2011-08-01T06:23:59Z</time>
      </trkpt>
      <trkpt lat="45.77439" lon="6.24275">
        <ele>483</ele>
        <time>2011-08-01T06:24:03Z</time>
      </trkpt>
      <trkpt lat="45.77414" lon="6.24284">
        <ele>482</ele>
        <time>2011-08-01T06:24:08Z</time>
      </trkpt>
      <trkpt lat="45.77387" lon="6.24289">
        <ele>483</ele>
        <time>2011-08-01T06:24:13Z</time>
      </trkpt>
      <trkpt lat="45.77378" lon="6.24293">
        <ele>483</ele>
        <time>2011-08-01T06:24:15Z</time>
      </trkpt>
      <trkpt lat="45.7737" lon="6.24295">
        <ele>483</ele>
        <time>2011-08-01T06:24:17Z</time>
      </trkpt>
      <trkpt lat="45.77357" lon="6.24301">
        <ele>483</ele>
        <time>2011-08-01T06:24:21Z</time>
      </trkpt>
      <trkpt lat="45.77329" lon="6.2431">
        <ele>483</ele>
        <time>2011-08-01T06:24:27Z</time>
      </trkpt>
      <trkpt lat="45.7732" lon="6.24315">
        <ele>483</ele>
        <time>2011-08-01T06:24:29Z</time>
      </trkpt>
      <trkpt lat="45.77296" lon="6.24318">
        <ele>482</ele>
        <time>2011-08-01T06:24:35Z</time>
      </trkpt>
      <trkpt lat="45.77277" lon="6.24328">
        <ele>482</ele>
        <time>2011-08-01T06:24:39Z</time>
      </trkpt>
      <trkpt lat="45.77269" lon="6.24332">
        <ele>482</ele>
        <time>2011-08-01T06:24:41Z</time>
      </trkpt>
      <trkpt lat="45.77246" lon="6.24341">
        <ele>488</ele>
        <time>2011-08-01T06:24:46Z</time>
      </trkpt>
      <trkpt lat="45.77237" lon="6.24345">
        <ele>490</ele>
        <time>2011-08-01T06:24:48Z</time>
      </trkpt>
      <trkpt lat="45.77214" lon="6.24352">
        <ele>493</ele>
        <time>2011-08-01T06:24:53Z</time>
      </trkpt>
      <trkpt lat="45.77209" lon="6.24354">
        <ele>493</ele>
        <time>2011-08-01T06:24:54Z</time>
      </trkpt>
      <trkpt lat="45.77185" lon="6.24368">
        <ele>493</ele>
        <time>2011-08-01T06:25:00Z</time>
      </trkpt>
      <trkpt lat="45.7717" lon="6.24373">
        <ele>493</ele>
        <time>2011-08-01T06:25:04Z</time>
      </trkpt>
      <trkpt lat="45.77143" lon="6.2439">
        <ele>486</ele>
        <time>2011-08-01T06:25:11Z</time>
      </trkpt>
      <trkpt lat="45.77135" lon="6.24396">
        <ele>486</ele>
        <time>2011-08-01T06:25:13Z</time>
      </trkpt>
      <trkpt lat="45.77129" lon="6.24403">
        <ele>486</ele>
        <time>2011-08-01T06:25:15Z</time>
      </trkpt>
      <trkpt lat="45.77119" lon="6.24418">
        <ele>502</ele>
        <time>2011-08-01T06:25:18Z</time>
      </trkpt>
      <trkpt lat="45.77106" lon="6.24432">
        <ele>500</ele>
        <time>2011-08-01T06:25:22Z</time>
      </trkpt>
      <trkpt lat="45.771" lon="6.2444">
        <ele>501</ele>
        <time>2011-08-01T06:25:24Z</time>
      </trkpt>
      <trkpt lat="45.77088" lon="6.24452">
        <ele>504</ele>
        <time>2011-08-01T06:25:29Z</time>
      </trkpt>
      <trkpt lat="45.77085" lon="6.24453">
        <ele>504</ele>
        <time>2011-08-01T06:25:30Z</time>
      </trkpt>
      <trkpt lat="45.77075" lon="6.24456">
        <ele>491</ele>
        <time>2011-08-01T06:25:33Z</time>
      </trkpt>
      <trkpt lat="45.77054" lon="6.24462">
        <ele>491</ele>
        <time>2011-08-01T06:25:38Z</time>
      </trkpt>
      <trkpt lat="45.7705" lon="6.24467">
        <ele>491</ele>
        <time>2011-08-01T06:25:39Z</time>
      </trkpt>
      <trkpt lat="45.77029" lon="6.24482">
        <ele>490</ele>
        <time>2011-08-01T06:25:44Z</time>
      </trkpt>
      <trkpt lat="45.7702" lon="6.24489">
        <ele>489</ele>
        <time>2011-08-01T06:25:46Z</time>
      </trkpt>
      <trkpt lat="45.77006" lon="6.24506">
        <ele>498</ele>
        <time>2011-08-01T06:25:50Z</time>
      </trkpt>
      <trkpt lat="45.76999" lon="6.24512">
        <ele>492</ele>
        <time>2011-08-01T06:25:52Z</time>
      </trkpt>
      <trkpt lat="45.7699" lon="6.24516">
        <ele>494</ele>
        <time>2011-08-01T06:25:54Z</time>
      </trkpt>
      <trkpt lat="45.76974" lon="6.24528">
        <ele>497</ele>
        <time>2011-08-01T06:25:58Z</time>
      </trkpt>
      <trkpt lat="45.7695" lon="6.24543">
        <ele>498</ele>
        <time>2011-08-01T06:26:04Z</time>
      </trkpt>
      <trkpt lat="45.76946" lon="6.24545">
        <ele>498</ele>
        <time>2011-08-01T06:26:05Z</time>
      </trkpt>
      <trkpt lat="45.76929" lon="6.24556">
        <ele>498</ele>
        <time>2011-08-01T06:26:09Z</time>
      </trkpt>
      <trkpt lat="45.76908" lon="6.24567">
        <ele>491</ele>
        <time>2011-08-01T06:26:14Z</time>
      </trkpt>
      <trkpt lat="45.76886" lon="6.24582">
        <ele>488</ele>
        <time>2011-08-01T06:26:19Z</time>
      </trkpt>
      <trkpt lat="45.76873" lon="6.24593">
        <ele>500</ele>
        <time>2011-08-01T06:26:22Z</time>
      </trkpt>
      <trkpt lat="45.76852" lon="6.24613">
        <ele>499</ele>
        <time>2011-08-01T06:26:27Z</time>
      </trkpt>
      <trkpt lat="45.76843" lon="6.24622">
        <ele>499</ele>
        <time>2011-08-01T06:26:29Z</time>
      </trkpt>
      <trkpt lat="45.76819" lon="6.24651">
        <ele>489</ele>
        <time>2011-08-01T06:26:35Z</time>
      </trkpt>
      <trkpt lat="45.76796" lon="6.24678">
        <ele>493</ele>
        <time>2011-08-01T06:26:41Z</time>
      </trkpt>
      <trkpt lat="45.76775" lon="6.24707">
        <ele>491</ele>
        <time>2011-08-01T06:26:47Z</time>
      </trkpt>
      <trkpt lat="45.76759" lon="6.24724">
        <ele>489</ele>
        <time>2011-08-01T06:26:51Z</time>
      </trkpt>
      <trkpt lat="45.76744" lon="6.24747">
        <ele>480</ele>
        <time>2011-08-01T06:26:56Z</time>
      </trkpt>
      <trkpt lat="45.76744" lon="6.24754">
        <ele>481</ele>
        <time>2011-08-01T06:26:57Z</time>
      </trkpt>
      <trkpt lat="45.76737" lon="6.24792">
        <ele>483</ele>
        <time>2011-08-01T06:27:03Z</time>
      </trkpt>
      <trkpt lat="45.76726" lon="6.24831">
        <ele>485</ele>
        <time>2011-08-01T06:27:09Z</time>
      </trkpt>
      <trkpt lat="45.76723" lon="6.24844">
        <ele>488</ele>
        <time>2011-08-01T06:27:11Z</time>
      </trkpt>
      <trkpt lat="45.76717" lon="6.24869">
        <ele>488</ele>
        <time>2011-08-01T06:27:15Z</time>
      </trkpt>
      <trkpt lat="45.76708" lon="6.24902">
        <ele>488</ele>
        <time>2011-08-01T06:27:21Z</time>
      </trkpt>
      <trkpt lat="45.7671" lon="6.24921">
        <ele>489</ele>
        <time>2011-08-01T06:27:25Z</time>
      </trkpt>
      <trkpt lat="45.7672" lon="6.24956">
        <ele>490</ele>
        <time>2011-08-01T06:27:32Z</time>
      </trkpt>
      <trkpt lat="45.76719" lon="6.24982">
        <ele>490</ele>
        <time>2011-08-01T06:27:37Z</time>
      </trkpt>
      <trkpt lat="45.76722" lon="6.25023">
        <ele>488</ele>
        <time>2011-08-01T06:27:44Z</time>
      </trkpt>
      <trkpt lat="45.76728" lon="6.25031">
        <ele>488</ele>
        <time>2011-08-01T06:27:47Z</time>
      </trkpt>
      <trkpt lat="45.76743" lon="6.25042">
        <ele>488</ele>
        <time>2011-08-01T06:27:51Z</time>
      </trkpt>
      <trkpt lat="45.76754" lon="6.25068">
        <ele>495</ele>
        <time>2011-08-01T06:27:56Z</time>
      </trkpt>
      <trkpt lat="45.7676" lon="6.25078">
        <ele>494</ele>
        <time>2011-08-01T06:27:58Z</time>
      </trkpt>
      <trkpt lat="45.76779" lon="6.25094">
        <ele>491</ele>
        <time>2011-08-01T06:28:03Z</time>
      </trkpt>
      <trkpt lat="45.76811" lon="6.25122">
        <ele>492</ele>
        <time>2011-08-01T06:28:11Z</time>
      </trkpt>
      <trkpt lat="45.76819" lon="6.25128">
        <ele>492</ele>
        <time>2011-08-01T06:28:13Z</time>
      </trkpt>
      <trkpt lat="45.76852" lon="6.25162">
        <ele>497</ele>
        <time>2011-08-01T06:28:22Z</time>
      </trkpt>
      <trkpt lat="45.76872" lon="6.25173">
        <ele>494</ele>
        <time>2011-08-01T06:28:27Z</time>
      </trkpt>
      <trkpt lat="45.76881" lon="6.25183">
        <ele>495</ele>
        <time>2011-08-01T06:28:30Z</time>
      </trkpt>
      <trkpt lat="45.76906" lon="6.25229">
        <ele>496</ele>
        <time>2011-08-01T06:28:39Z</time>
      </trkpt>
      <trkpt lat="45.76921" lon="6.25269">
        <ele>501</ele>
        <time>2011-08-01T06:28:46Z</time>
      </trkpt>
      <trkpt lat="45.76923" lon="6.25275">
        <ele>502</ele>
        <time>2011-08-01T06:28:47Z</time>
      </trkpt>
      <trkpt lat="45.76925" lon="6.25287">
        <ele>502</ele>
        <time>2011-08-01T06:28:49Z</time>
      </trkpt>
      <trkpt lat="45.76927" lon="6.25304">
        <ele>502</ele>
        <time>2011-08-01T06:28:52Z</time>
      </trkpt>
      <trkpt lat="45.76934" lon="6.25325">
        <ele>501</ele>
        <time>2011-08-01T06:28:56Z</time>
      </trkpt>
      <trkpt lat="45.76951" lon="6.25345">
        <ele>502</ele>
        <time>2011-08-01T06:29:02Z</time>
      </trkpt>
      <trkpt lat="45.76964" lon="6.25357">
        <ele>503</ele>
        <time>2011-08-01T06:29:07Z</time>
      </trkpt>
      <trkpt lat="45.76972" lon="6.25381">
        <ele>503</ele>
        <time>2011-08-01T06:29:12Z</time>
      </trkpt>
      <trkpt lat="45.76973" lon="6.25407">
        <ele>503</ele>
        <time>2011-08-01T06:29:16Z</time>
      </trkpt>
      <trkpt lat="45.76965" lon="6.25459">
        <ele>502</ele>
        <time>2011-08-01T06:29:23Z</time>
      </trkpt>
      <trkpt lat="45.76958" lon="6.25495">
        <ele>502</ele>
        <time>2011-08-01T06:29:28Z</time>
      </trkpt>
      <trkpt lat="45.76959" lon="6.25552">
        <ele>503</ele>
        <time>2011-08-01T06:29:36Z</time>
      </trkpt>
      <trkpt lat="45.76957" lon="6.25601">
        <ele>504</ele>
        <time>2011-08-01T06:29:43Z</time>
      </trkpt>
      <trkpt lat="45.76951" lon="6.25648">
        <ele>505</ele>
        <time>2011-08-01T06:29:50Z</time>
      </trkpt>
      <trkpt lat="45.76951" lon="6.25674">
        <ele>508</ele>
        <time>2011-08-01T06:29:54Z</time>
      </trkpt>
      <trkpt lat="45.76944" lon="6.25721">
        <ele>509</ele>
        <time>2011-08-01T06:30:01Z</time>
      </trkpt>
      <trkpt lat="45.7694" lon="6.25733">
        <ele>508</ele>
        <time>2011-08-01T06:30:03Z</time>
      </trkpt>
      <trkpt lat="45.76923" lon="6.25795">
        <ele>513</ele>
        <time>2011-08-01T06:30:13Z</time>
      </trkpt>
      <trkpt lat="45.76918" lon="6.25813">
        <ele>512</ele>
        <time>2011-08-01T06:30:16Z</time>
      </trkpt>
      <trkpt lat="45.76907" lon="6.25841">
        <ele>505</ele>
        <time>2011-08-01T06:30:21Z</time>
      </trkpt>
      <trkpt lat="45.76904" lon="6.25854">
        <ele>505</ele>
        <time>2011-08-01T06:30:23Z</time>
      </trkpt>
      <trkpt lat="45.76897" lon="6.25888">
        <ele>505</ele>
        <time>2011-08-01T06:30:29Z</time>
      </trkpt>
      <trkpt lat="45.76896" lon="6.25893">
        <ele>505</ele>
        <time>2011-08-01T06:30:30Z</time>
      </trkpt>
      <trkpt lat="45.76891" lon="6.25903">
        <ele>505</ele>
        <time>2011-08-01T06:30:32Z</time>
      </trkpt>
      <trkpt lat="45.76889" lon="6.25919">
        <ele>507</ele>
        <time>2011-08-01T06:30:36Z</time>
      </trkpt>
      <trkpt lat="45.76888" lon="6.25919">
        <ele>507</ele>
        <time>2011-08-01T06:30:37Z</time>
      </trkpt>
      <trkpt lat="45.76878" lon="6.25915">
        <ele>505</ele>
        <time>2011-08-01T06:30:41Z</time>
      </trkpt>
      <trkpt lat="45.76875" lon="6.25916">
        <ele>505</ele>
        <time>2011-08-01T06:30:42Z</time>
      </trkpt>
      <trkpt lat="45.76849" lon="6.25932">
        <ele>504</ele>
        <time>2011-08-01T06:30:48Z</time>
      </trkpt>
      <trkpt lat="45.76846" lon="6.25936">
        <ele>504</ele>
        <time>2011-08-01T06:30:49Z</time>
      </trkpt>
      <trkpt lat="45.76851" lon="6.25953">
        <ele>505</ele>
        <time>2011-08-01T06:30:53Z</time>
      </trkpt>
      <trkpt lat="45.76867" lon="6.25958">
        <ele>506</ele>
        <time>2011-08-01T06:30:57Z</time>
      </trkpt>
      <trkpt lat="45.76872" lon="6.25957">
        <ele>506</ele>
        <time>2011-08-01T06:30:58Z</time>
      </trkpt>
      <trkpt lat="45.76914" lon="6.25953">
        <ele>507</ele>
        <time>2011-08-01T06:31:07Z</time>
      </trkpt>
      <trkpt lat="45.76918" lon="6.25953">
        <ele>517</ele>
        <time>2011-08-01T06:31:08Z</time>
      </trkpt>
      <trkpt lat="45.76933" lon="6.25962">
        <ele>518</ele>
        <time>2011-08-01T06:31:13Z</time>
      </trkpt>
      <trkpt lat="45.76932" lon="6.25966">
        <ele>518</ele>
        <time>2011-08-01T06:31:14Z</time>
      </trkpt>
      <trkpt lat="45.76922" lon="6.25992">
        <ele>514</ele>
        <time>2011-08-01T06:31:20Z</time>
      </trkpt>
      <trkpt lat="45.76922" lon="6.26001">
        <ele>513</ele>
        <time>2011-08-01T06:31:22Z</time>
      </trkpt>
      <trkpt lat="45.76924" lon="6.26004">
        <ele>515</ele>
        <time>2011-08-01T06:31:26Z</time>
      </trkpt>
      <trkpt lat="45.76925" lon="6.26001">
        <ele>514</ele>
        <time>2011-08-01T06:31:28Z</time>
      </trkpt>
      <trkpt lat="45.76915" lon="6.2599">
        <ele>509</ele>
        <time>2011-08-01T06:31:33Z</time>
      </trkpt>
      <trkpt lat="45.76898" lon="6.25996">
        <ele>508</ele>
        <time>2011-08-01T06:31:37Z</time>
      </trkpt>
      <trkpt lat="45.76869" lon="6.26015">
        <ele>509</ele>
        <time>2011-08-01T06:31:44Z</time>
      </trkpt>
      <trkpt lat="45.76861" lon="6.2602">
        <ele>508</ele>
        <time>2011-08-01T06:31:46Z</time>
      </trkpt>
      <trkpt lat="45.76859" lon="6.26031">
        <ele>509</ele>
        <time>2011-08-01T06:31:50Z</time>
      </trkpt>
      <trkpt lat="45.76866" lon="6.26033">
        <ele>509</ele>
        <time>2011-08-01T06:31:54Z</time>
      </trkpt>
      <trkpt lat="45.76887" lon="6.26046">
        <ele>511</ele>
        <time>2011-08-01T06:32:05Z</time>
      </trkpt>
      <trkpt lat="45.76902" lon="6.26057">
        <ele>513</ele>
        <time>2011-08-01T06:32:14Z</time>
      </trkpt>
      <trkpt lat="45.76913" lon="6.26069">
        <ele>515</ele>
        <time>2011-08-01T06:32:21Z</time>
      </trkpt>
      <trkpt lat="45.76924" lon="6.26088">
        <ele>527</ele>
        <time>2011-08-01T06:32:30Z</time>
      </trkpt>
      <trkpt lat="45.76933" lon="6.261">
        <ele>537</ele>
        <time>2011-08-01T06:32:37Z</time>
      </trkpt>
      <trkpt lat="45.76943" lon="6.26105">
        <ele>541</ele>
        <time>2011-08-01T06:32:43Z</time>
      </trkpt>
      <trkpt lat="45.76955" lon="6.26104">
        <ele>544</ele>
        <time>2011-08-01T06:32:50Z</time>
      </trkpt>
      <trkpt lat="45.76967" lon="6.26101">
        <ele>545</ele>
        <time>2011-08-01T06:32:58Z</time>
      </trkpt>
      <trkpt lat="45.76978" lon="6.26099">
        <ele>545</ele>
        <time>2011-08-01T06:33:05Z</time>
      </trkpt>
      <trkpt lat="45.76979" lon="6.26099">
        <ele>545</ele>
        <time>2011-08-01T06:33:06Z</time>
      </trkpt>
      <trkpt lat="45.7699" lon="6.26106">
        <ele>547</ele>
        <time>2011-08-01T06:33:14Z</time>
      </trkpt>
      <trkpt lat="45.76992" lon="6.26109">
        <ele>548</ele>
        <time>2011-08-01T06:33:18Z</time>
      </trkpt>
      <trkpt lat="45.77002" lon="6.26112">
        <ele>562</ele>
        <time>2011-08-01T06:33:25Z</time>
      </trkpt>
      <trkpt lat="45.77014" lon="6.26102">
        <ele>559</ele>
        <time>2011-08-01T06:33:34Z</time>
      </trkpt>
      <trkpt lat="45.77024" lon="6.26104">
        <ele>563</ele>
        <time>2011-08-01T06:33:40Z</time>
      </trkpt>
      <trkpt lat="45.7703" lon="6.26108">
        <ele>565</ele>
        <time>2011-08-01T06:33:45Z</time>
      </trkpt>
      <trkpt lat="45.77033" lon="6.26109">
        <ele>566</ele>
        <time>2011-08-01T06:33:47Z</time>
      </trkpt>
      <trkpt lat="45.77039" lon="6.26107">
        <ele>566</ele>
        <time>2011-08-01T06:33:51Z</time>
      </trkpt>
      <trkpt lat="45.77045" lon="6.26105">
        <ele>567</ele>
        <time>2011-08-01T06:33:57Z</time>
      </trkpt>
      <trkpt lat="45.7705" lon="6.26105">
        <ele>567</ele>
        <time>2011-08-01T06:34:03Z</time>
      </trkpt>
      <trkpt lat="45.77055" lon="6.26105">
        <ele>567</ele>
        <time>2011-08-01T06:34:08Z</time>
      </trkpt>
      <trkpt lat="45.77066" lon="6.26105">
        <ele>567</ele>
        <time>2011-08-01T06:34:20Z</time>
      </trkpt>
      <trkpt lat="45.77074" lon="6.26101">
        <ele>566</ele>
        <time>2011-08-01T06:34:29Z</time>
      </trkpt>
      <trkpt lat="45.77081" lon="6.26095">
        <ele>563</ele>
        <time>2011-08-01T06:34:37Z</time>
      </trkpt>
      <trkpt lat="45.77084" lon="6.26091">
        <ele>567</ele>
        <time>2011-08-01T06:34:42Z</time>
      </trkpt>
      <trkpt lat="45.77087" lon="6.26081">
        <ele>557</ele>
        <time>2011-08-01T06:34:50Z</time>
      </trkpt>
      <trkpt lat="45.77088" lon="6.26078">
        <ele>558</ele>
        <time>2011-08-01T06:34:52Z</time>
      </trkpt>
      <trkpt lat="45.77091" lon="6.26077">
        <ele>559</ele>
        <time>2011-08-01T06:34:55Z</time>
      </trkpt>
      <trkpt lat="45.77097" lon="6.26082">
        <ele>560</ele>
        <time>2011-08-01T06:35:02Z</time>
      </trkpt>
      <trkpt lat="45.77097" lon="6.26083">
        <ele>560</ele>
        <time>2011-08-01T06:35:03Z</time>
      </trkpt>
      <trkpt lat="45.77095" lon="6.26088">
        <ele>573</ele>
        <time>2011-08-01T06:35:10Z</time>
      </trkpt>
      <trkpt lat="45.77094" lon="6.2609">
        <ele>572</ele>
        <time>2011-08-01T06:35:15Z</time>
      </trkpt>
      <trkpt lat="45.77085" lon="6.26106">
        <ele>581</ele>
        <time>2011-08-01T06:35:24Z</time>
      </trkpt>
      <trkpt lat="45.77078" lon="6.26116">
        <ele>572</ele>
        <time>2011-08-01T06:35:31Z</time>
      </trkpt>
      <trkpt lat="45.7707" lon="6.26124">
        <ele>575</ele>
        <time>2011-08-01T06:35:38Z</time>
      </trkpt>
      <trkpt lat="45.77061" lon="6.26126">
        <ele>574</ele>
        <time>2011-08-01T06:35:44Z</time>
      </trkpt>
      <trkpt lat="45.77053" lon="6.26128">
        <ele>574</ele>
        <time>2011-08-01T06:35:50Z</time>
      </trkpt>
      <trkpt lat="45.77041" lon="6.26131">
        <ele>574</ele>
        <time>2011-08-01T06:35:57Z</time>
      </trkpt>
      <trkpt lat="45.77032" lon="6.26133">
        <ele>573</ele>
        <time>2011-08-01T06:36:03Z</time>
      </trkpt>
      <trkpt lat="45.77025" lon="6.26136">
        <ele>573</ele>
        <time>2011-08-01T06:36:09Z</time>
      </trkpt>
      <trkpt lat="45.77014" lon="6.26142">
        <ele>574</ele>
        <time>2011-08-01T06:36:17Z</time>
      </trkpt>
      <trkpt lat="45.77013" lon="6.26143">
        <ele>575</ele>
        <time>2011-08-01T06:36:18Z</time>
      </trkpt>
      <trkpt lat="45.77008" lon="6.26157">
        <ele>579</ele>
        <time>2011-08-01T06:36:25Z</time>
      </trkpt>
      <trkpt lat="45.77006" lon="6.26158">
        <ele>580</ele>
        <time>2011-08-01T06:36:30Z</time>
      </trkpt>
      <trkpt lat="45.77002" lon="6.26162">
        <ele>582</ele>
        <time>2011-08-01T06:36:37Z</time>
      </trkpt>
      <trkpt lat="45.76993" lon="6.26167">
        <ele>585</ele>
        <time>2011-08-01T06:36:43Z</time>
      </trkpt>
      <trkpt lat="45.76984" lon="6.26173">
        <ele>586</ele>
        <time>2011-08-01T06:36:49Z</time>
      </trkpt>
      <trkpt lat="45.76974" lon="6.26182">
        <ele>587</ele>
        <time>2011-08-01T06:36:56Z</time>
      </trkpt>
      <trkpt lat="45.76965" lon="6.26188">
        <ele>587</ele>
        <time>2011-08-01T06:37:03Z</time>
      </trkpt>
      <trkpt lat="45.76955" lon="6.26196">
        <ele>587</ele>
        <time>2011-08-01T06:37:10Z</time>
      </trkpt>
      <trkpt lat="45.76948" lon="6.26203">
        <ele>587</ele>
        <time>2011-08-01T06:37:16Z</time>
      </trkpt>
      <trkpt lat="45.7694" lon="6.26214">
        <ele>589</ele>
        <time>2011-08-01T06:37:23Z</time>
      </trkpt>
      <trkpt lat="45.76931" lon="6.26221">
        <ele>591</ele>
        <time>2011-08-01T06:37:30Z</time>
      </trkpt>
      <trkpt lat="45.7692" lon="6.26227">
        <ele>592</ele>
        <time>2011-08-01T06:37:37Z</time>
      </trkpt>
      <trkpt lat="45.76918" lon="6.26228">
        <ele>592</ele>
        <time>2011-08-01T06:37:39Z</time>
      </trkpt>
      <trkpt lat="45.76918" lon="6.26241">
        <ele>596</ele>
        <time>2011-08-01T06:37:46Z</time>
      </trkpt>
      <trkpt lat="45.76926" lon="6.26246">
        <ele>596</ele>
        <time>2011-08-01T06:37:54Z</time>
      </trkpt>
      <trkpt lat="45.76929" lon="6.26245">
        <ele>596</ele>
        <time>2011-08-01T06:37:56Z</time>
      </trkpt>
      <trkpt lat="45.76938" lon="6.26239">
        <ele>595</ele>
        <time>2011-08-01T06:38:04Z</time>
      </trkpt>
      <trkpt lat="45.76945" lon="6.26238">
        <ele>595</ele>
        <time>2011-08-01T06:38:10Z</time>
      </trkpt>
      <trkpt lat="45.76946" lon="6.26237">
        <ele>595</ele>
        <time>2011-08-01T06:38:11Z</time>
      </trkpt>
      <trkpt lat="45.76953" lon="6.26231">
        <ele>595</ele>
        <time>2011-08-01T06:38:17Z</time>
      </trkpt>
      <trkpt lat="45.76955" lon="6.26231">
        <ele>596</ele>
        <time>2011-08-01T06:38:23Z</time>
      </trkpt>
      <trkpt lat="45.76952" lon="6.2622">
        <ele>593</ele>
        <time>2011-08-01T06:38:36Z</time>
      </trkpt>
      <trkpt lat="45.76958" lon="6.26218">
        <ele>593</ele>
        <time>2011-08-01T06:38:44Z</time>
      </trkpt>
      <trkpt lat="45.76971" lon="6.26222">
        <ele>597</ele>
        <time>2011-08-01T06:38:51Z</time>
      </trkpt>
      <trkpt lat="45.76981" lon="6.26223">
        <ele>599</ele>
        <time>2011-08-01T06:38:57Z</time>
      </trkpt>
      <trkpt lat="45.76992" lon="6.26224">
        <ele>602</ele>
        <time>2011-08-01T06:39:04Z</time>
      </trkpt>
      <trkpt lat="45.76997" lon="6.26222">
        <ele>602</ele>
        <time>2011-08-01T06:39:09Z</time>
      </trkpt>
      <trkpt lat="45.76998" lon="6.26222">
        <ele>602</ele>
        <time>2011-08-01T06:39:17Z</time>
      </trkpt>
      <trkpt lat="45.77007" lon="6.2622">
        <ele>619</ele>
        <time>2011-08-01T06:39:24Z</time>
      </trkpt>
      <trkpt lat="45.77011" lon="6.2622">
        <ele>619</ele>
        <time>2011-08-01T06:39:27Z</time>
      </trkpt>
      <trkpt lat="45.77015" lon="6.26222">
        <ele>620</ele>
        <time>2011-08-01T06:39:30Z</time>
      </trkpt>
      <trkpt lat="45.77024" lon="6.26224">
        <ele>621</ele>
        <time>2011-08-01T06:39:37Z</time>
      </trkpt>
      <trkpt lat="45.77026" lon="6.26224">
        <ele>621</ele>
        <time>2011-08-01T06:39:38Z</time>
      </trkpt>
      <trkpt lat="45.77037" lon="6.2622">
        <ele>622</ele>
        <time>2011-08-01T06:39:47Z</time>
      </trkpt>
      <trkpt lat="45.77045" lon="6.26216">
        <ele>623</ele>
        <time>2011-08-01T06:39:53Z</time>
      </trkpt>
      <trkpt lat="45.77052" lon="6.26212">
        <ele>623</ele>
        <time>2011-08-01T06:39:58Z</time>
      </trkpt>
      <trkpt lat="45.77059" lon="6.26211">
        <ele>624</ele>
        <time>2011-08-01T06:40:03Z</time>
      </trkpt>
      <trkpt lat="45.77068" lon="6.26207">
        <ele>623</ele>
        <time>2011-08-01T06:40:09Z</time>
      </trkpt>
      <trkpt lat="45.77072" lon="6.26206">
        <ele>623</ele>
        <time>2011-08-01T06:40:13Z</time>
      </trkpt>
      <trkpt lat="45.77077" lon="6.26204">
        <ele>623</ele>
        <time>2011-08-01T06:40:17Z</time>
      </trkpt>
      <trkpt lat="45.77088" lon="6.26203">
        <ele>641</ele>
        <time>2011-08-01T06:40:25Z</time>
      </trkpt>
      <trkpt lat="45.77091" lon="6.26201">
        <ele>641</ele>
        <time>2011-08-01T06:40:28Z</time>
      </trkpt>
      <trkpt lat="45.77098" lon="6.262">
        <ele>641</ele>
        <time>2011-08-01T06:40:33Z</time>
      </trkpt>
      <trkpt lat="45.77107" lon="6.262">
        <ele>643</ele>
        <time>2011-08-01T06:40:39Z</time>
      </trkpt>
      <trkpt lat="45.77116" lon="6.26198">
        <ele>644</ele>
        <time>2011-08-01T06:40:45Z</time>
      </trkpt>
      <trkpt lat="45.77119" lon="6.26197">
        <ele>644</ele>
        <time>2011-08-01T06:40:47Z</time>
      </trkpt>
      <trkpt lat="45.77124" lon="6.26191">
        <ele>644</ele>
        <time>2011-08-01T06:40:51Z</time>
      </trkpt>
      <trkpt lat="45.77127" lon="6.2619">
        <ele>644</ele>
        <time>2011-08-01T06:40:53Z</time>
      </trkpt>
      <trkpt lat="45.77136" lon="6.26185">
        <ele>644</ele>
        <time>2011-08-01T06:41:00Z</time>
      </trkpt>
      <trkpt lat="45.77147" lon="6.26183">
        <ele>644</ele>
        <time>2011-08-01T06:41:08Z</time>
      </trkpt>
      <trkpt lat="45.77156" lon="6.26178">
        <ele>643</ele>
        <time>2011-08-01T06:41:16Z</time>
      </trkpt>
      <trkpt lat="45.77157" lon="6.26178">
        <ele>643</ele>
        <time>2011-08-01T06:41:17Z</time>
      </trkpt>
      <trkpt lat="45.77165" lon="6.26174">
        <ele>640</ele>
        <time>2011-08-01T06:41:24Z</time>
      </trkpt>
      <trkpt lat="45.77168" lon="6.26174">
        <ele>646</ele>
        <time>2011-08-01T06:41:26Z</time>
      </trkpt>
      <trkpt lat="45.77179" lon="6.26173">
        <ele>653</ele>
        <time>2011-08-01T06:41:34Z</time>
      </trkpt>
      <trkpt lat="45.77184" lon="6.26174">
        <ele>656</ele>
        <time>2011-08-01T06:41:38Z</time>
      </trkpt>
      <trkpt lat="45.77192" lon="6.26174">
        <ele>660</ele>
        <time>2011-08-01T06:41:45Z</time>
      </trkpt>
      <trkpt lat="45.772" lon="6.2617">
        <ele>663</ele>
        <time>2011-08-01T06:41:54Z</time>
      </trkpt>
      <trkpt lat="45.77206" lon="6.26168">
        <ele>664</ele>
        <time>2011-08-01T06:42:03Z</time>
      </trkpt>
      <trkpt lat="45.77216" lon="6.26167">
        <ele>666</ele>
        <time>2011-08-01T06:42:10Z</time>
      </trkpt>
      <trkpt lat="45.77226" lon="6.26167">
        <ele>640</ele>
        <time>2011-08-01T06:42:17Z</time>
      </trkpt>
      <trkpt lat="45.77235" lon="6.26166">
        <ele>645</ele>
        <time>2011-08-01T06:42:25Z</time>
      </trkpt>
      <trkpt lat="45.77243" lon="6.26165">
        <ele>651</ele>
        <time>2011-08-01T06:42:30Z</time>
      </trkpt>
      <trkpt lat="45.77248" lon="6.26165">
        <ele>657</ele>
        <time>2011-08-01T06:42:35Z</time>
      </trkpt>
      <trkpt lat="45.77257" lon="6.26166">
        <ele>657</ele>
        <time>2011-08-01T06:42:41Z</time>
      </trkpt>
      <trkpt lat="45.77267" lon="6.26167">
        <ele>654</ele>
        <time>2011-08-01T06:42:48Z</time>
      </trkpt>
      <trkpt lat="45.77274" lon="6.26166">
        <ele>653</ele>
        <time>2011-08-01T06:42:54Z</time>
      </trkpt>
      <trkpt lat="45.77277" lon="6.26164">
        <ele>653</ele>
        <time>2011-08-01T06:42:59Z</time>
      </trkpt>
      <trkpt lat="45.77275" lon="6.26158">
        <ele>652</ele>
        <time>2011-08-01T06:43:04Z</time>
      </trkpt>
      <trkpt lat="45.7728" lon="6.26161">
        <ele>653</ele>
        <time>2011-08-01T06:43:10Z</time>
      </trkpt>
      <trkpt lat="45.77289" lon="6.26162">
        <ele>654</ele>
        <time>2011-08-01T06:43:17Z</time>
      </trkpt>
      <trkpt lat="45.773" lon="6.26162">
        <ele>656</ele>
        <time>2011-08-01T06:43:24Z</time>
      </trkpt>
      <trkpt lat="45.77314" lon="6.26165">
        <ele>662</ele>
        <time>2011-08-01T06:43:33Z</time>
      </trkpt>
      <trkpt lat="45.7733" lon="6.26168">
        <ele>681</ele>
        <time>2011-08-01T06:43:43Z</time>
      </trkpt>
      <trkpt lat="45.7734" lon="6.26167">
        <ele>686</ele>
        <time>2011-08-01T06:43:50Z</time>
      </trkpt>
      <trkpt lat="45.77353" lon="6.26166">
        <ele>665</ele>
        <time>2011-08-01T06:43:59Z</time>
      </trkpt>
      <trkpt lat="45.77364" lon="6.26167">
        <ele>695</ele>
        <time>2011-08-01T06:44:07Z</time>
      </trkpt>
      <trkpt lat="45.77372" lon="6.26168">
        <ele>696</ele>
        <time>2011-08-01T06:44:13Z</time>
      </trkpt>
      <trkpt lat="45.7738" lon="6.26171">
        <ele>696</ele>
        <time>2011-08-01T06:44:19Z</time>
      </trkpt>
      <trkpt lat="45.7739" lon="6.26176">
        <ele>695</ele>
        <time>2011-08-01T06:44:27Z</time>
      </trkpt>
      <trkpt lat="45.77401" lon="6.26177">
        <ele>691</ele>
        <time>2011-08-01T06:44:34Z</time>
      </trkpt>
      <trkpt lat="45.77406" lon="6.2618">
        <ele>690</ele>
        <time>2011-08-01T06:44:38Z</time>
      </trkpt>
      <trkpt lat="45.77411" lon="6.26181">
        <ele>689</ele>
        <time>2011-08-01T06:44:43Z</time>
      </trkpt>
      <trkpt lat="45.77419" lon="6.26183">
        <ele>684</ele>
        <time>2011-08-01T06:44:49Z</time>
      </trkpt>
      <trkpt lat="45.77422" lon="6.26185">
        <ele>686</ele>
        <time>2011-08-01T06:44:52Z</time>
      </trkpt>
      <trkpt lat="45.77429" lon="6.2619">
        <ele>689</ele>
        <time>2011-08-01T06:44:58Z</time>
      </trkpt>
      <trkpt lat="45.77439" lon="6.26195">
        <ele>691</ele>
        <time>2011-08-01T06:45:06Z</time>
      </trkpt>
      <trkpt lat="45.77448" lon="6.26202">
        <ele>694</ele>
        <time>2011-08-01T06:45:15Z</time>
      </trkpt>
      <trkpt lat="45.77454" lon="6.26205">
        <ele>694</ele>
        <time>2011-08-01T06:45:20Z</time>
      </trkpt>
      <trkpt lat="45.77463" lon="6.26207">
        <ele>694</ele>
        <time>2011-08-01T06:45:28Z</time>
      </trkpt>
      <trkpt lat="45.77472" lon="6.26215">
        <ele>695</ele>
        <time>2011-08-01T06:45:36Z</time>
      </trkpt>
      <trkpt lat="45.77516" lon="6.26247">
        <ele>693</ele>
        <time>2011-08-01T06:46:11Z</time>
      </trkpt>
      <trkpt lat="45.77524" lon="6.26254">
        <ele>714</ele>
        <time>2011-08-01T06:46:17Z</time>
      </trkpt>
      <trkpt lat="45.77533" lon="6.26262">
        <ele>714</ele>
        <time>2011-08-01T06:46:24Z</time>
      </trkpt>
      <trkpt lat="45.77546" lon="6.26267">
        <ele>712</ele>
        <time>2011-08-01T06:46:33Z</time>
      </trkpt>
      <trkpt lat="45.77557" lon="6.26272">
        <ele>711</ele>
        <time>2011-08-01T06:46:40Z</time>
      </trkpt>
      <trkpt lat="45.77564" lon="6.26281">
        <ele>712</ele>
        <time>2011-08-01T06:46:47Z</time>
      </trkpt>
      <trkpt lat="45.77568" lon="6.26296">
        <ele>715</ele>
        <time>2011-08-01T06:46:55Z</time>
      </trkpt>
      <trkpt lat="45.7757" lon="6.26315">
        <ele>718</ele>
        <time>2011-08-01T06:47:03Z</time>
      </trkpt>
      <trkpt lat="45.77574" lon="6.26326">
        <ele>717</ele>
        <time>2011-08-01T06:47:09Z</time>
      </trkpt>
      <trkpt lat="45.77576" lon="6.26329">
        <ele>717</ele>
        <time>2011-08-01T06:47:11Z</time>
      </trkpt>
      <trkpt lat="45.77577" lon="6.26335">
        <ele>727</ele>
        <time>2011-08-01T06:47:14Z</time>
      </trkpt>
      <trkpt lat="45.77583" lon="6.26349">
        <ele>738</ele>
        <time>2011-08-01T06:47:21Z</time>
      </trkpt>
      <trkpt lat="45.77588" lon="6.26359">
        <ele>729</ele>
        <time>2011-08-01T06:47:26Z</time>
      </trkpt>
      <trkpt lat="45.77594" lon="6.26371">
        <ele>734</ele>
        <time>2011-08-01T06:47:33Z</time>
      </trkpt>
      <trkpt lat="45.77647" lon="6.26427">
        <ele>751</ele>
        <time>2011-08-01T06:48:30Z</time>
      </trkpt>
      <trkpt lat="45.77655" lon="6.26437">
        <ele>752</ele>
        <time>2011-08-01T06:48:37Z</time>
      </trkpt>
      <trkpt lat="45.77661" lon="6.26448">
        <ele>756</ele>
        <time>2011-08-01T06:48:44Z</time>
      </trkpt>
      <trkpt lat="45.77672" lon="6.26457">
        <ele>753</ele>
        <time>2011-08-01T06:48:52Z</time>
      </trkpt>
      <trkpt lat="45.77692" lon="6.26479">
        <ele>757</ele>
        <time>2011-08-01T06:49:05Z</time>
      </trkpt>
      <trkpt lat="45.777" lon="6.26486">
        <ele>758</ele>
        <time>2011-08-01T06:49:10Z</time>
      </trkpt>
      <trkpt lat="45.77709" lon="6.26496">
        <ele>759</ele>
        <time>2011-08-01T06:49:15Z</time>
      </trkpt>
      <trkpt lat="45.77715" lon="6.26509">
        <ele>771</ele>
        <time>2011-08-01T06:49:21Z</time>
      </trkpt>
      <trkpt lat="45.77729" lon="6.26512">
        <ele>770</ele>
        <time>2011-08-01T06:49:28Z</time>
      </trkpt>
      <trkpt lat="45.77734" lon="6.26517">
        <ele>770</ele>
        <time>2011-08-01T06:49:32Z</time>
      </trkpt>
      <trkpt lat="45.77733" lon="6.26528">
        <ele>772</ele>
        <time>2011-08-01T06:49:38Z</time>
      </trkpt>
      <trkpt lat="45.77733" lon="6.26534">
        <ele>772</ele>
        <time>2011-08-01T06:49:44Z</time>
      </trkpt>
      <trkpt lat="45.77737" lon="6.26535">
        <ele>772</ele>
        <time>2011-08-01T06:49:51Z</time>
      </trkpt>
      <trkpt lat="45.7774" lon="6.26535">
        <ele>772</ele>
        <time>2011-08-01T06:49:54Z</time>
      </trkpt>
      <trkpt lat="45.77738" lon="6.26523">
        <ele>771</ele>
        <time>2011-08-01T06:50:01Z</time>
      </trkpt>
      <trkpt lat="45.77734" lon="6.26522">
        <ele>771</ele>
        <time>2011-08-01T06:50:04Z</time>
      </trkpt>
      <trkpt lat="45.77729" lon="6.2651">
        <ele>770</ele>
        <time>2011-08-01T06:50:11Z</time>
      </trkpt>
      <trkpt lat="45.77724" lon="6.26502">
        <ele>770</ele>
        <time>2011-08-01T06:50:17Z</time>
      </trkpt>
      <trkpt lat="45.77723" lon="6.26499">
        <ele>760</ele>
        <time>2011-08-01T06:50:20Z</time>
      </trkpt>
      <trkpt lat="45.77721" lon="6.26486">
        <ele>760</ele>
        <time>2011-08-01T06:50:26Z</time>
      </trkpt>
      <trkpt lat="45.77722" lon="6.26477">
        <ele>759</ele>
        <time>2011-08-01T06:50:31Z</time>
      </trkpt>
      <trkpt lat="45.77721" lon="6.26468">
        <ele>759</ele>
        <time>2011-08-01T06:51:04Z</time>
      </trkpt>
      <trkpt lat="45.77724" lon="6.26458">
        <ele>759</ele>
        <time>2011-08-01T06:51:10Z</time>
      </trkpt>
      <trkpt lat="45.77724" lon="6.26447">
        <ele>759</ele>
        <time>2011-08-01T06:51:15Z</time>
      </trkpt>
      <trkpt lat="45.77726" lon="6.2644">
        <ele>759</ele>
        <time>2011-08-01T06:51:20Z</time>
      </trkpt>
      <trkpt lat="45.77724" lon="6.2643">
        <ele>759</ele>
        <time>2011-08-01T06:51:28Z</time>
      </trkpt>
      <trkpt lat="45.77727" lon="6.26418">
        <ele>760</ele>
        <time>2011-08-01T06:51:36Z</time>
      </trkpt>
      <trkpt lat="45.77725" lon="6.26406">
        <ele>756</ele>
        <time>2011-08-01T06:51:42Z</time>
      </trkpt>
      <trkpt lat="45.77724" lon="6.26394">
        <ele>755</ele>
        <time>2011-08-01T06:51:49Z</time>
      </trkpt>
      <trkpt lat="45.77724" lon="6.26387">
        <ele>755</ele>
        <time>2011-08-01T06:51:53Z</time>
      </trkpt>
      <trkpt lat="45.77721" lon="6.26373">
        <ele>754</ele>
        <time>2011-08-01T06:52:00Z</time>
      </trkpt>
      <trkpt lat="45.77721" lon="6.26371">
        <ele>754</ele>
        <time>2011-08-01T06:52:01Z</time>
      </trkpt>
      <trkpt lat="45.77723" lon="6.26367">
        <ele>755</ele>
        <time>2011-08-01T06:52:04Z</time>
      </trkpt>
      <trkpt lat="45.77726" lon="6.26366">
        <ele>756</ele>
        <time>2011-08-01T06:52:07Z</time>
      </trkpt>
      <trkpt lat="45.7773" lon="6.26376">
        <ele>756</ele>
        <time>2011-08-01T06:52:14Z</time>
      </trkpt>
      <trkpt lat="45.77731" lon="6.26378">
        <ele>756</ele>
        <time>2011-08-01T06:52:15Z</time>
      </trkpt>
      <trkpt lat="45.77734" lon="6.26386">
        <ele>757</ele>
        <time>2011-08-01T06:52:22Z</time>
      </trkpt>
      <trkpt lat="45.77737" lon="6.26398">
        <ele>759</ele>
        <time>2011-08-01T06:52:29Z</time>
      </trkpt>
      <trkpt lat="45.77741" lon="6.26408">
        <ele>762</ele>
        <time>2011-08-01T06:52:35Z</time>
      </trkpt>
      <trkpt lat="45.77742" lon="6.26412">
        <ele>764</ele>
        <time>2011-08-01T06:52:38Z</time>
      </trkpt>
      <trkpt lat="45.77745" lon="6.26424">
        <ele>766</ele>
        <time>2011-08-01T06:52:45Z</time>
      </trkpt>
      <trkpt lat="45.77746" lon="6.26434">
        <ele>763</ele>
        <time>2011-08-01T06:52:52Z</time>
      </trkpt>
      <trkpt lat="45.77746" lon="6.26438">
        <ele>762</ele>
        <time>2011-08-01T06:52:59Z</time>
      </trkpt>
      <trkpt lat="45.77747" lon="6.26442">
        <ele>762</ele>
        <time>2011-08-01T06:53:05Z</time>
      </trkpt>
      <trkpt lat="45.77749" lon="6.26451">
        <ele>761</ele>
        <time>2011-08-01T06:53:11Z</time>
      </trkpt>
      <trkpt lat="45.7775" lon="6.26455">
        <ele>761</ele>
        <time>2011-08-01T06:53:13Z</time>
      </trkpt>
      <trkpt lat="45.77753" lon="6.26461">
        <ele>783</ele>
        <time>2011-08-01T06:53:17Z</time>
      </trkpt>
      <trkpt lat="45.77757" lon="6.26473">
        <ele>782</ele>
        <time>2011-08-01T06:53:25Z</time>
      </trkpt>
      <trkpt lat="45.77761" lon="6.26484">
        <ele>780</ele>
        <time>2011-08-01T06:53:31Z</time>
      </trkpt>
      <trkpt lat="45.77762" lon="6.26488">
        <ele>779</ele>
        <time>2011-08-01T06:53:37Z</time>
      </trkpt>
      <trkpt lat="45.77764" lon="6.26494">
        <ele>778</ele>
        <time>2011-08-01T06:53:49Z</time>
      </trkpt>
      <trkpt lat="45.77767" lon="6.26507">
        <ele>780</ele>
        <time>2011-08-01T06:53:57Z</time>
      </trkpt>
      <trkpt lat="45.77771" lon="6.26521">
        <ele>784</ele>
        <time>2011-08-01T06:54:04Z</time>
      </trkpt>
      <trkpt lat="45.77774" lon="6.2653">
        <ele>786</ele>
        <time>2011-08-01T06:54:09Z</time>
      </trkpt>
      <trkpt lat="45.77776" lon="6.26533">
        <ele>787</ele>
        <time>2011-08-01T06:54:11Z</time>
      </trkpt>
      <trkpt lat="45.77779" lon="6.26537">
        <ele>788</ele>
        <time>2011-08-01T06:54:14Z</time>
      </trkpt>
      <trkpt lat="45.77783" lon="6.26541">
        <ele>789</ele>
        <time>2011-08-01T06:54:21Z</time>
      </trkpt>
      <trkpt lat="45.77785" lon="6.26544">
        <ele>790</ele>
        <time>2011-08-01T06:54:32Z</time>
      </trkpt>
      <trkpt lat="45.77785" lon="6.26547">
        <ele>790</ele>
        <time>2011-08-01T06:54:34Z</time>
      </trkpt>
      <trkpt lat="45.7779" lon="6.26559">
        <ele>792</ele>
        <time>2011-08-01T06:54:41Z</time>
      </trkpt>
      <trkpt lat="45.77792" lon="6.26566">
        <ele>792</ele>
        <time>2011-08-01T06:54:46Z</time>
      </trkpt>
      <trkpt lat="45.77798" lon="6.26575">
        <ele>794</ele>
        <time>2011-08-01T06:54:51Z</time>
      </trkpt>
      <trkpt lat="45.77803" lon="6.26591">
        <ele>798</ele>
        <time>2011-08-01T06:54:59Z</time>
      </trkpt>
      <trkpt lat="45.77803" lon="6.26593">
        <ele>799</ele>
        <time>2011-08-01T06:55:00Z</time>
      </trkpt>
      <trkpt lat="45.77804" lon="6.26597">
        <ele>799</ele>
        <time>2011-08-01T06:55:02Z</time>
      </trkpt>
      <trkpt lat="45.77805" lon="6.26601">
        <ele>799</ele>
        <time>2011-08-01T06:55:04Z</time>
      </trkpt>
      <trkpt lat="45.77808" lon="6.26607">
        <ele>799</ele>
        <time>2011-08-01T06:55:08Z</time>
      </trkpt>
      <trkpt lat="45.77814" lon="6.26621">
        <ele>800</ele>
        <time>2011-08-01T06:55:15Z</time>
      </trkpt>
      <trkpt lat="45.77818" lon="6.26632">
        <ele>800</ele>
        <time>2011-08-01T06:55:20Z</time>
      </trkpt>
      <trkpt lat="45.77823" lon="6.2664">
        <ele>801</ele>
        <time>2011-08-01T06:55:24Z</time>
      </trkpt>
      <trkpt lat="45.77824" lon="6.26644">
        <ele>801</ele>
        <time>2011-08-01T06:55:26Z</time>
      </trkpt>
      <trkpt lat="45.77831" lon="6.26655">
        <ele>803</ele>
        <time>2011-08-01T06:55:33Z</time>
      </trkpt>
      <trkpt lat="45.77839" lon="6.2666">
        <ele>813</ele>
        <time>2011-08-01T06:55:40Z</time>
      </trkpt>
      <trkpt lat="45.77848" lon="6.26667">
        <ele>816</ele>
        <time>2011-08-01T06:55:48Z</time>
      </trkpt>
      <trkpt lat="45.77856" lon="6.26672">
        <ele>820</ele>
        <time>2011-08-01T06:55:54Z</time>
      </trkpt>
      <trkpt lat="45.77868" lon="6.26676">
        <ele>825</ele>
        <time>2011-08-01T06:56:02Z</time>
      </trkpt>
      <trkpt lat="45.77878" lon="6.26683">
        <ele>828</ele>
        <time>2011-08-01T06:56:09Z</time>
      </trkpt>
      <trkpt lat="45.77886" lon="6.26692">
        <ele>830</ele>
        <time>2011-08-01T06:56:15Z</time>
      </trkpt>
      <trkpt lat="45.77888" lon="6.26692">
        <ele>830</ele>
        <time>2011-08-01T06:56:16Z</time>
      </trkpt>
      <trkpt lat="45.77891" lon="6.26691">
        <ele>831</ele>
        <time>2011-08-01T06:56:18Z</time>
      </trkpt>
      <trkpt lat="45.77895" lon="6.26683">
        <ele>832</ele>
        <time>2011-08-01T06:56:24Z</time>
      </trkpt>
      <trkpt lat="45.77893" lon="6.26681">
        <ele>832</ele>
        <time>2011-08-01T06:56:27Z</time>
      </trkpt>
      <trkpt lat="45.77885" lon="6.26675">
        <ele>830</ele>
        <time>2011-08-01T06:56:34Z</time>
      </trkpt>
      <trkpt lat="45.77874" lon="6.2667">
        <ele>827</ele>
        <time>2011-08-01T06:56:41Z</time>
      </trkpt>
      <trkpt lat="45.77866" lon="6.26663">
        <ele>826</ele>
        <time>2011-08-01T06:56:47Z</time>
      </trkpt>
      <trkpt lat="45.7786" lon="6.26651">
        <ele>825</ele>
        <time>2011-08-01T06:56:53Z</time>
      </trkpt>
      <trkpt lat="45.77856" lon="6.26644">
        <ele>824</ele>
        <time>2011-08-01T06:56:57Z</time>
      </trkpt>
      <trkpt lat="45.77852" lon="6.26629">
        <ele>825</ele>
        <time>2011-08-01T06:57:03Z</time>
      </trkpt>
      <trkpt lat="45.7785" lon="6.26619">
        <ele>826</ele>
        <time>2011-08-01T06:57:08Z</time>
      </trkpt>
      <trkpt lat="45.77849" lon="6.2661">
        <ele>825</ele>
        <time>2011-08-01T06:57:13Z</time>
      </trkpt>
      <trkpt lat="45.77848" lon="6.26597">
        <ele>823</ele>
        <time>2011-08-01T06:57:18Z</time>
      </trkpt>
      <trkpt lat="45.77847" lon="6.2659">
        <ele>822</ele>
        <time>2011-08-01T06:57:21Z</time>
      </trkpt>
      <trkpt lat="45.77846" lon="6.26585">
        <ele>820</ele>
        <time>2011-08-01T06:57:24Z</time>
      </trkpt>
      <trkpt lat="45.77847" lon="6.26578">
        <ele>825</ele>
        <time>2011-08-01T06:57:28Z</time>
      </trkpt>
      <trkpt lat="45.77843" lon="6.26557">
        <ele>830</ele>
        <time>2011-08-01T06:57:36Z</time>
      </trkpt>
      <trkpt lat="45.77842" lon="6.26545">
        <ele>831</ele>
        <time>2011-08-01T06:57:41Z</time>
      </trkpt>
      <trkpt lat="45.77838" lon="6.2653">
        <ele>830</ele>
        <time>2011-08-01T06:57:47Z</time>
      </trkpt>
      <trkpt lat="45.77838" lon="6.26511">
        <ele>825</ele>
        <time>2011-08-01T06:57:56Z</time>
      </trkpt>
      <trkpt lat="45.77841" lon="6.26492">
        <ele>825</ele>
        <time>2011-08-01T06:58:04Z</time>
      </trkpt>
      <trkpt lat="45.77842" lon="6.26475">
        <ele>832</ele>
        <time>2011-08-01T06:58:11Z</time>
      </trkpt>
      <trkpt lat="45.77843" lon="6.26456">
        <ele>834</ele>
        <time>2011-08-01T06:58:18Z</time>
      </trkpt>
      <trkpt lat="45.77846" lon="6.26437">
        <ele>833</ele>
        <time>2011-08-01T06:58:27Z</time>
      </trkpt>
      <trkpt lat="45.7785" lon="6.26425">
        <ele>832</ele>
        <time>2011-08-01T06:58:34Z</time>
      </trkpt>
      <trkpt lat="45.77855" lon="6.26412">
        <ele>832</ele>
        <time>2011-08-01T06:58:41Z</time>
      </trkpt>
      <trkpt lat="45.77856" lon="6.26401">
        <ele>833</ele>
        <time>2011-08-01T06:58:47Z</time>
      </trkpt>
      <trkpt lat="45.77858" lon="6.26392">
        <ele>835</ele>
        <time>2011-08-01T06:58:53Z</time>
      </trkpt>
      <trkpt lat="45.7786" lon="6.2638">
        <ele>836</ele>
        <time>2011-08-01T06:59:00Z</time>
      </trkpt>
      <trkpt lat="45.77861" lon="6.2637">
        <ele>836</ele>
        <time>2011-08-01T06:59:05Z</time>
      </trkpt>
      <trkpt lat="45.77863" lon="6.26359">
        <ele>835</ele>
        <time>2011-08-01T06:59:11Z</time>
      </trkpt>
      <trkpt lat="45.77867" lon="6.26348">
        <ele>836</ele>
        <time>2011-08-01T06:59:18Z</time>
      </trkpt>
      <trkpt lat="45.77872" lon="6.26341">
        <ele>837</ele>
        <time>2011-08-01T06:59:23Z</time>
      </trkpt>
      <trkpt lat="45.77882" lon="6.2633">
        <ele>832</ele>
        <time>2011-08-01T06:59:31Z</time>
      </trkpt>
      <trkpt lat="45.77889" lon="6.26322">
        <ele>834</ele>
        <time>2011-08-01T06:59:37Z</time>
      </trkpt>
      <trkpt lat="45.77898" lon="6.26315">
        <ele>835</ele>
        <time>2011-08-01T06:59:43Z</time>
      </trkpt>
      <trkpt lat="45.77902" lon="6.26312">
        <ele>835</ele>
        <time>2011-08-01T06:59:45Z</time>
      </trkpt>
      <trkpt lat="45.77914" lon="6.26308">
        <ele>836</ele>
        <time>2011-08-01T06:59:52Z</time>
      </trkpt>
      <trkpt lat="45.77921" lon="6.26307">
        <ele>850</ele>
        <time>2011-08-01T06:59:57Z</time>
      </trkpt>
      <trkpt lat="45.77935" lon="6.26304">
        <ele>850</ele>
        <time>2011-08-01T07:00:05Z</time>
      </trkpt>
      <trkpt lat="45.77946" lon="6.26302">
        <ele>850</ele>
        <time>2011-08-01T07:00:12Z</time>
      </trkpt>
      <trkpt lat="45.7795" lon="6.26301">
        <ele>851</ele>
        <time>2011-08-01T07:00:14Z</time>
      </trkpt>
      <trkpt lat="45.77958" lon="6.26302">
        <ele>852</ele>
        <time>2011-08-01T07:00:20Z</time>
      </trkpt>
      <trkpt lat="45.77963" lon="6.26307">
        <ele>853</ele>
        <time>2011-08-01T07:00:25Z</time>
      </trkpt>
      <trkpt lat="45.77959" lon="6.26313">
        <ele>853</ele>
        <time>2011-08-01T07:00:30Z</time>
      </trkpt>
      <trkpt lat="45.7795" lon="6.26318">
        <ele>853</ele>
        <time>2011-08-01T07:00:38Z</time>
      </trkpt>
      <trkpt lat="45.77939" lon="6.26322">
        <ele>852</ele>
        <time>2011-08-01T07:00:47Z</time>
      </trkpt>
      <trkpt lat="45.77932" lon="6.26324">
        <ele>852</ele>
        <time>2011-08-01T07:00:53Z</time>
      </trkpt>
      <trkpt lat="45.77931" lon="6.26325">
        <ele>852</ele>
        <time>2011-08-01T07:00:54Z</time>
      </trkpt>
      <trkpt lat="45.77929" lon="6.26327">
        <ele>853</ele>
        <time>2011-08-01T07:00:57Z</time>
      </trkpt>
      <trkpt lat="45.77924" lon="6.26337">
        <ele>858</ele>
        <time>2011-08-01T07:01:05Z</time>
      </trkpt>
      <trkpt lat="45.7792" lon="6.2635">
        <ele>862</ele>
        <time>2011-08-01T07:01:13Z</time>
      </trkpt>
      <trkpt lat="45.77916" lon="6.26362">
        <ele>846</ele>
        <time>2011-08-01T07:01:20Z</time>
      </trkpt>
      <trkpt lat="45.77914" lon="6.26378">
        <ele>847</ele>
        <time>2011-08-01T07:01:29Z</time>
      </trkpt>
      <trkpt lat="45.77912" lon="6.26393">
        <ele>849</ele>
        <time>2011-08-01T07:01:37Z</time>
      </trkpt>
      <trkpt lat="45.77911" lon="6.26396">
        <ele>850</ele>
        <time>2011-08-01T07:01:39Z</time>
      </trkpt>
      <trkpt lat="45.77913" lon="6.26408">
        <ele>856</ele>
        <time>2011-08-01T07:01:46Z</time>
      </trkpt>
      <trkpt lat="45.77914" lon="6.26415">
        <ele>861</ele>
        <time>2011-08-01T07:01:51Z</time>
      </trkpt>
      <trkpt lat="45.77914" lon="6.26425">
        <ele>858</ele>
        <time>2011-08-01T07:01:57Z</time>
      </trkpt>
      <trkpt lat="45.77916" lon="6.26436">
        <ele>854</ele>
        <time>2011-08-01T07:02:03Z</time>
      </trkpt>
      <trkpt lat="45.77919" lon="6.26449">
        <ele>877</ele>
        <time>2011-08-01T07:02:11Z</time>
      </trkpt>
      <trkpt lat="45.77921" lon="6.26453">
        <ele>878</ele>
        <time>2011-08-01T07:02:14Z</time>
      </trkpt>
      <trkpt lat="45.77922" lon="6.26464">
        <ele>878</ele>
        <time>2011-08-01T07:02:20Z</time>
      </trkpt>
      <trkpt lat="45.77919" lon="6.26466">
        <ele>878</ele>
        <time>2011-08-01T07:02:26Z</time>
      </trkpt>
      <trkpt lat="45.77921" lon="6.26473">
        <ele>878</ele>
        <time>2011-08-01T07:02:33Z</time>
      </trkpt>
      <trkpt lat="45.77923" lon="6.26478">
        <ele>878</ele>
        <time>2011-08-01T07:02:36Z</time>
      </trkpt>
      <trkpt lat="45.77924" lon="6.26488">
        <ele>876</ele>
        <time>2011-08-01T07:02:46Z</time>
      </trkpt>
      <trkpt lat="45.77925" lon="6.26492">
        <ele>876</ele>
        <time>2011-08-01T07:02:55Z</time>
      </trkpt>
      <trkpt lat="45.7793" lon="6.26504">
        <ele>878</ele>
        <time>2011-08-01T07:03:02Z</time>
      </trkpt>
      <trkpt lat="45.77933" lon="6.26517">
        <ele>882</ele>
        <time>2011-08-01T07:03:09Z</time>
      </trkpt>
      <trkpt lat="45.77935" lon="6.26531">
        <ele>884</ele>
        <time>2011-08-01T07:03:16Z</time>
      </trkpt>
      <trkpt lat="45.77937" lon="6.26543">
        <ele>884</ele>
        <time>2011-08-01T07:03:23Z</time>
      </trkpt>
      <trkpt lat="45.7794" lon="6.26555">
        <ele>884</ele>
        <time>2011-08-01T07:03:30Z</time>
      </trkpt>
      <trkpt lat="45.77944" lon="6.26566">
        <ele>884</ele>
        <time>2011-08-01T07:03:37Z</time>
      </trkpt>
      <trkpt lat="45.7795" lon="6.26574">
        <ele>886</ele>
        <time>2011-08-01T07:03:44Z</time>
      </trkpt>
      <trkpt lat="45.77956" lon="6.2658">
        <ele>888</ele>
        <time>2011-08-01T07:03:50Z</time>
      </trkpt>
      <trkpt lat="45.77963" lon="6.26587">
        <ele>883</ele>
        <time>2011-08-01T07:03:57Z</time>
      </trkpt>
      <trkpt lat="45.77971" lon="6.26597">
        <ele>886</ele>
        <time>2011-08-01T07:04:06Z</time>
      </trkpt>
      <trkpt lat="45.77978" lon="6.26607">
        <ele>886</ele>
        <time>2011-08-01T07:04:13Z</time>
      </trkpt>
      <trkpt lat="45.77985" lon="6.26617">
        <ele>886</ele>
        <time>2011-08-01T07:04:21Z</time>
      </trkpt>
      <trkpt lat="45.7799" lon="6.26629">
        <ele>884</ele>
        <time>2011-08-01T07:04:28Z</time>
      </trkpt>
      <trkpt lat="45.77991" lon="6.2663">
        <ele>884</ele>
        <time>2011-08-01T07:04:29Z</time>
      </trkpt>
      <trkpt lat="45.77994" lon="6.26635">
        <ele>884</ele>
        <time>2011-08-01T07:04:37Z</time>
      </trkpt>
      <trkpt lat="45.77999" lon="6.26632">
        <ele>885</ele>
        <time>2011-08-01T07:05:10Z</time>
      </trkpt>
      <trkpt lat="45.78003" lon="6.26639">
        <ele>905</ele>
        <time>2011-08-01T07:05:19Z</time>
      </trkpt>
      <trkpt lat="45.78008" lon="6.26651">
        <ele>902</ele>
        <time>2011-08-01T07:05:27Z</time>
      </trkpt>
      <trkpt lat="45.78015" lon="6.26657">
        <ele>902</ele>
        <time>2011-08-01T07:05:34Z</time>
      </trkpt>
      <trkpt lat="45.78024" lon="6.26661">
        <ele>904</ele>
        <time>2011-08-01T07:05:41Z</time>
      </trkpt>
      <trkpt lat="45.78033" lon="6.26662">
        <ele>907</ele>
        <time>2011-08-01T07:05:48Z</time>
      </trkpt>
      <trkpt lat="45.7804" lon="6.26663">
        <ele>909</ele>
        <time>2011-08-01T07:05:54Z</time>
      </trkpt>
      <trkpt lat="45.78045" lon="6.26664">
        <ele>910</ele>
        <time>2011-08-01T07:05:57Z</time>
      </trkpt>
      <trkpt lat="45.78056" lon="6.26666">
        <ele>912</ele>
        <time>2011-08-01T07:06:05Z</time>
      </trkpt>
      <trkpt lat="45.78067" lon="6.26669">
        <ele>904</ele>
        <time>2011-08-01T07:06:12Z</time>
      </trkpt>
      <trkpt lat="45.78082" lon="6.26671">
        <ele>911</ele>
        <time>2011-08-01T07:06:20Z</time>
      </trkpt>
      <trkpt lat="45.78091" lon="6.26675">
        <ele>914</ele>
        <time>2011-08-01T07:06:27Z</time>
      </trkpt>
      <trkpt lat="45.78098" lon="6.26677">
        <ele>915</ele>
        <time>2011-08-01T07:06:32Z</time>
      </trkpt>
      <trkpt lat="45.7811" lon="6.2668">
        <ele>916</ele>
        <time>2011-08-01T07:06:39Z</time>
      </trkpt>
      <trkpt lat="45.78115" lon="6.26681">
        <ele>916</ele>
        <time>2011-08-01T07:06:42Z</time>
      </trkpt>
      <trkpt lat="45.78125" lon="6.26684">
        <ele>917</ele>
        <time>2011-08-01T07:06:50Z</time>
      </trkpt>
      <trkpt lat="45.78138" lon="6.26686">
        <ele>919</ele>
        <time>2011-08-01T07:06:58Z</time>
      </trkpt>
      <trkpt lat="45.78145" lon="6.26688">
        <ele>920</ele>
        <time>2011-08-01T07:07:04Z</time>
      </trkpt>
      <trkpt lat="45.78153" lon="6.26691">
        <ele>920</ele>
        <time>2011-08-01T07:07:10Z</time>
      </trkpt>
      <trkpt lat="45.78157" lon="6.26693">
        <ele>920</ele>
        <time>2011-08-01T07:07:13Z</time>
      </trkpt>
      <trkpt lat="45.78168" lon="6.26693">
        <ele>931</ele>
        <time>2011-08-01T07:07:21Z</time>
      </trkpt>
      <trkpt lat="45.78181" lon="6.26695">
        <ele>932</ele>
        <time>2011-08-01T07:07:30Z</time>
      </trkpt>
      <trkpt lat="45.78191" lon="6.26698">
        <ele>933</ele>
        <time>2011-08-01T07:07:38Z</time>
      </trkpt>
      <trkpt lat="45.782" lon="6.26703">
        <ele>934</ele>
        <time>2011-08-01T07:07:46Z</time>
      </trkpt>
      <trkpt lat="45.78208" lon="6.26703">
        <ele>935</ele>
        <time>2011-08-01T07:07:51Z</time>
      </trkpt>
      <trkpt lat="45.78216" lon="6.26701">
        <ele>936</ele>
        <time>2011-08-01T07:07:57Z</time>
      </trkpt>
      <trkpt lat="45.78223" lon="6.26699">
        <ele>937</ele>
        <time>2011-08-01T07:08:03Z</time>
      </trkpt>
      <trkpt lat="45.78231" lon="6.26694">
        <ele>938</ele>
        <time>2011-08-01T07:08:10Z</time>
      </trkpt>
      <trkpt lat="45.78236" lon="6.26693">
        <ele>938</ele>
        <time>2011-08-01T07:08:15Z</time>
      </trkpt>
      <trkpt lat="45.78242" lon="6.26689">
        <ele>939</ele>
        <time>2011-08-01T07:08:22Z</time>
      </trkpt>
      <trkpt lat="45.78248" lon="6.26688">
        <ele>940</ele>
        <time>2011-08-01T07:08:27Z</time>
      </trkpt>
      <trkpt lat="45.78256" lon="6.26691">
        <ele>950</ele>
        <time>2011-08-01T07:08:34Z</time>
      </trkpt>
      <trkpt lat="45.7826" lon="6.26694">
        <ele>950</ele>
        <time>2011-08-01T07:08:38Z</time>
      </trkpt>
      <trkpt lat="45.78264" lon="6.26697">
        <ele>950</ele>
        <time>2011-08-01T07:08:42Z</time>
      </trkpt>
      <trkpt lat="45.78268" lon="6.26698">
        <ele>951</ele>
        <time>2011-08-01T07:08:45Z</time>
      </trkpt>
      <trkpt lat="45.78272" lon="6.26698">
        <ele>951</ele>
        <time>2011-08-01T07:08:49Z</time>
      </trkpt>
      <trkpt lat="45.78281" lon="6.26694">
        <ele>952</ele>
        <time>2011-08-01T07:08:57Z</time>
      </trkpt>
      <trkpt lat="45.78289" lon="6.26689">
        <ele>953</ele>
        <time>2011-08-01T07:09:04Z</time>
      </trkpt>
      <trkpt lat="45.78296" lon="6.26684">
        <ele>953</ele>
        <time>2011-08-01T07:09:12Z</time>
      </trkpt>
      <trkpt lat="45.78297" lon="6.26683">
        <ele>954</ele>
        <time>2011-08-01T07:09:18Z</time>
      </trkpt>
      <trkpt lat="45.78309" lon="6.26676">
        <ele>955</ele>
        <time>2011-08-01T07:09:28Z</time>
      </trkpt>
      <trkpt lat="45.78317" lon="6.26671">
        <ele>956</ele>
        <time>2011-08-01T07:09:35Z</time>
      </trkpt>
      <trkpt lat="45.78324" lon="6.26668">
        <ele>957</ele>
        <time>2011-08-01T07:09:41Z</time>
      </trkpt>
      <trkpt lat="45.78332" lon="6.26664">
        <ele>959</ele>
        <time>2011-08-01T07:09:48Z</time>
      </trkpt>
      <trkpt lat="45.78341" lon="6.26656">
        <ele>963</ele>
        <time>2011-08-01T07:09:57Z</time>
      </trkpt>
      <trkpt lat="45.78349" lon="6.26651">
        <ele>964</ele>
        <time>2011-08-01T07:10:04Z</time>
      </trkpt>
      <trkpt lat="45.78358" lon="6.26644">
        <ele>966</ele>
        <time>2011-08-01T07:10:12Z</time>
      </trkpt>
      <trkpt lat="45.78371" lon="6.26635">
        <ele>967</ele>
        <time>2011-08-01T07:10:20Z</time>
      </trkpt>
      <trkpt lat="45.78383" lon="6.26621">
        <ele>968</ele>
        <time>2011-08-01T07:10:29Z</time>
      </trkpt>
      <trkpt lat="45.78391" lon="6.26611">
        <ele>969</ele>
        <time>2011-08-01T07:10:36Z</time>
      </trkpt>
      <trkpt lat="45.78397" lon="6.26598">
        <ele>970</ele>
        <time>2011-08-01T07:10:42Z</time>
      </trkpt>
      <trkpt lat="45.78406" lon="6.26579">
        <ele>971</ele>
        <time>2011-08-01T07:10:50Z</time>
      </trkpt>
      <trkpt lat="45.78418" lon="6.26574">
        <ele>973</ele>
        <time>2011-08-01T07:10:56Z</time>
      </trkpt>
      <trkpt lat="45.7843" lon="6.26579">
        <ele>974</ele>
        <time>2011-08-01T07:11:03Z</time>
      </trkpt>
      <trkpt lat="45.78431" lon="6.2658">
        <ele>974</ele>
        <time>2011-08-01T07:11:07Z</time>
      </trkpt>
      <trkpt lat="45.78433" lon="6.26582">
        <ele>974</ele>
        <time>2011-08-01T07:11:11Z</time>
      </trkpt>
      <trkpt lat="45.78433" lon="6.26582">
        <ele>974</ele>
        <time>2011-08-01T07:11:21Z</time>
      </trkpt>
      <trkpt lat="45.78434" lon="6.26586">
        <ele>976</ele>
        <time>2011-08-01T07:11:33Z</time>
      </trkpt>
      <trkpt lat="45.78435" lon="6.26585">
        <ele>976</ele>
        <time>2011-08-01T07:11:43Z</time>
      </trkpt>
      <trkpt lat="45.78436" lon="6.26585">
        <ele>976</ele>
        <time>2011-08-01T07:11:54Z</time>
      </trkpt>
      <trkpt lat="45.78435" lon="6.26582">
        <ele>974</ele>
        <time>2011-08-01T07:12:02Z</time>
      </trkpt>
      <trkpt lat="45.78433" lon="6.2658">
        <ele>974</ele>
        <time>2011-08-01T07:12:09Z</time>
      </trkpt>
      <trkpt lat="45.78432" lon="6.2658">
        <ele>974</ele>
        <time>2011-08-01T07:12:16Z</time>
      </trkpt>
      <trkpt lat="45.78434" lon="6.26577">
        <ele>974</ele>
        <time>2011-08-01T07:12:26Z</time>
      </trkpt>
      <trkpt lat="45.78439" lon="6.26578">
        <ele>974</ele>
        <time>2011-08-01T07:12:30Z</time>
      </trkpt>
      <trkpt lat="45.78448" lon="6.26584">
        <ele>978</ele>
        <time>2011-08-01T07:12:35Z</time>
      </trkpt>
      <trkpt lat="45.78463" lon="6.26588">
        <ele>979</ele>
        <time>2011-08-01T07:12:42Z</time>
      </trkpt>
      <trkpt lat="45.78481" lon="6.26593">
        <ele>981</ele>
        <time>2011-08-01T07:12:49Z</time>
      </trkpt>
      <trkpt lat="45.78496" lon="6.266">
        <ele>982</ele>
        <time>2011-08-01T07:12:57Z</time>
      </trkpt>
      <trkpt lat="45.78508" lon="6.26598">
        <ele>988</ele>
        <time>2011-08-01T07:13:03Z</time>
      </trkpt>
      <trkpt lat="45.78526" lon="6.26592">
        <ele>990</ele>
        <time>2011-08-01T07:13:12Z</time>
      </trkpt>
      <trkpt lat="45.7854" lon="6.26586">
        <ele>992</ele>
        <time>2011-08-01T07:13:20Z</time>
      </trkpt>
      <trkpt lat="45.78551" lon="6.2658">
        <ele>989</ele>
        <time>2011-08-01T07:13:27Z</time>
      </trkpt>
      <trkpt lat="45.78562" lon="6.26573">
        <ele>991</ele>
        <time>2011-08-01T07:13:35Z</time>
      </trkpt>
      <trkpt lat="45.78569" lon="6.26568">
        <ele>991</ele>
        <time>2011-08-01T07:13:41Z</time>
      </trkpt>
      <trkpt lat="45.78576" lon="6.26562">
        <ele>991</ele>
        <time>2011-08-01T07:13:48Z</time>
      </trkpt>
      <trkpt lat="45.78577" lon="6.26562">
        <ele>991</ele>
        <time>2011-08-01T07:13:49Z</time>
      </trkpt>
      <trkpt lat="45.7859" lon="6.26555">
        <ele>998</ele>
        <time>2011-08-01T07:13:57Z</time>
      </trkpt>
      <trkpt lat="45.78603" lon="6.26552">
        <ele>998</ele>
        <time>2011-08-01T07:14:04Z</time>
      </trkpt>
      <trkpt lat="45.78621" lon="6.26545">
        <ele>999</ele>
        <time>2011-08-01T07:14:13Z</time>
      </trkpt>
      <trkpt lat="45.78638" lon="6.26541">
        <ele>1000</ele>
        <time>2011-08-01T07:14:21Z</time>
      </trkpt>
      <trkpt lat="45.78652" lon="6.26539">
        <ele>1001</ele>
        <time>2011-08-01T07:14:28Z</time>
      </trkpt>
      <trkpt lat="45.78665" lon="6.26537">
        <ele>1001</ele>
        <time>2011-08-01T07:14:36Z</time>
      </trkpt>
      <trkpt lat="45.78675" lon="6.26531">
        <ele>1010</ele>
        <time>2011-08-01T07:14:42Z</time>
      </trkpt>
      <trkpt lat="45.78688" lon="6.26525">
        <ele>1011</ele>
        <time>2011-08-01T07:14:50Z</time>
      </trkpt>
      <trkpt lat="45.78704" lon="6.2652">
        <ele>1012</ele>
        <time>2011-08-01T07:15:00Z</time>
      </trkpt>
      <trkpt lat="45.78716" lon="6.2652">
        <ele>1013</ele>
        <time>2011-08-01T07:15:07Z</time>
      </trkpt>
      <trkpt lat="45.78728" lon="6.26518">
        <ele>1015</ele>
        <time>2011-08-01T07:15:15Z</time>
      </trkpt>
      <trkpt lat="45.78742" lon="6.26518">
        <ele>1016</ele>
        <time>2011-08-01T07:15:22Z</time>
      </trkpt>
      <trkpt lat="45.7876" lon="6.26516">
        <ele>1023</ele>
        <time>2011-08-01T07:15:29Z</time>
      </trkpt>
      <trkpt lat="45.78781" lon="6.26511">
        <ele>1025</ele>
        <time>2011-08-01T07:15:37Z</time>
      </trkpt>
      <trkpt lat="45.78799" lon="6.26515">
        <ele>1026</ele>
        <time>2011-08-01T07:15:44Z</time>
      </trkpt>
      <trkpt lat="45.78822" lon="6.26517">
        <ele>1028</ele>
        <time>2011-08-01T07:15:53Z</time>
      </trkpt>
      <trkpt lat="45.78846" lon="6.26515">
        <ele>1032</ele>
        <time>2011-08-01T07:16:02Z</time>
      </trkpt>
      <trkpt lat="45.78874" lon="6.26516">
        <ele>1034</ele>
        <time>2011-08-01T07:16:13Z</time>
      </trkpt>
      <trkpt lat="45.78895" lon="6.2652">
        <ele>1035</ele>
        <time>2011-08-01T07:16:21Z</time>
      </trkpt>
      <trkpt lat="45.78916" lon="6.26526">
        <ele>1035</ele>
        <time>2011-08-01T07:16:29Z</time>
      </trkpt>
      <trkpt lat="45.78936" lon="6.26532">
        <ele>1039</ele>
        <time>2011-08-01T07:16:37Z</time>
      </trkpt>
      <trkpt lat="45.78952" lon="6.26534">
        <ele>1039</ele>
        <time>2011-08-01T07:16:44Z</time>
      </trkpt>
      <trkpt lat="45.78973" lon="6.26539">
        <ele>1040</ele>
        <time>2011-08-01T07:16:50Z</time>
      </trkpt>
      <trkpt lat="45.79002" lon="6.26548">
        <ele>1040</ele>
        <time>2011-08-01T07:16:58Z</time>
      </trkpt>
      <trkpt lat="45.79025" lon="6.26549">
        <ele>1040</ele>
        <time>2011-08-01T07:17:04Z</time>
      </trkpt>
      <trkpt lat="45.79035" lon="6.26549">
        <ele>1039</ele>
        <time>2011-08-01T07:17:06Z</time>
      </trkpt>
      <trkpt lat="45.79068" lon="6.26565">
        <ele>1039</ele>
        <time>2011-08-01T07:17:12Z</time>
      </trkpt>
      <trkpt lat="45.79102" lon="6.2658">
        <ele>1035</ele>
        <time>2011-08-01T07:17:18Z</time>
      </trkpt>
      <trkpt lat="45.79139" lon="6.26594">
        <ele>1039</ele>
        <time>2011-08-01T07:17:24Z</time>
      </trkpt>
      <trkpt lat="45.79157" lon="6.26604">
        <ele>1038</ele>
        <time>2011-08-01T07:17:27Z</time>
      </trkpt>
      <trkpt lat="45.79172" lon="6.26621">
        <ele>1029</ele>
        <time>2011-08-01T07:17:31Z</time>
      </trkpt>
      <trkpt lat="45.79171" lon="6.26617">
        <ele>1029</ele>
        <time>2011-08-01T07:17:35Z</time>
      </trkpt>
      <trkpt lat="45.79158" lon="6.26603">
        <ele>1037</ele>
        <time>2011-08-01T07:17:40Z</time>
      </trkpt>
      <trkpt lat="45.79158" lon="6.26607">
        <ele>1038</ele>
        <time>2011-08-01T07:17:43Z</time>
      </trkpt>
      <trkpt lat="45.79173" lon="6.26626">
        <ele>1029</ele>
        <time>2011-08-01T07:17:49Z</time>
      </trkpt>
      <trkpt lat="45.7919" lon="6.26649">
        <ele>1030</ele>
        <time>2011-08-01T07:17:55Z</time>
      </trkpt>
      <trkpt lat="45.79199" lon="6.26663">
        <ele>1029</ele>
        <time>2011-08-01T07:17:58Z</time>
      </trkpt>
      <trkpt lat="45.79215" lon="6.26682">
        <ele>1037</ele>
        <time>2011-08-01T07:18:02Z</time>
      </trkpt>
      <trkpt lat="45.79223" lon="6.26688">
        <ele>1037</ele>
        <time>2011-08-01T07:18:04Z</time>
      </trkpt>
      <trkpt lat="45.79243" lon="6.26708">
        <ele>1039</ele>
        <time>2011-08-01T07:18:10Z</time>
      </trkpt>
      <trkpt lat="45.79247" lon="6.26715">
        <ele>1040</ele>
        <time>2011-08-01T07:18:12Z</time>
      </trkpt>
      <trkpt lat="45.79253" lon="6.26732">
        <ele>1042</ele>
        <time>2011-08-01T07:18:18Z</time>
      </trkpt>
      <trkpt lat="45.79263" lon="6.26744">
        <ele>1044</ele>
        <time>2011-08-01T07:18:24Z</time>
      </trkpt>
      <trkpt lat="45.79267" lon="6.2675">
        <ele>1055</ele>
        <time>2011-08-01T07:18:28Z</time>
      </trkpt>
      <trkpt lat="45.79276" lon="6.26752">
        <ele>1058</ele>
        <time>2011-08-01T07:18:36Z</time>
      </trkpt>
      <trkpt lat="45.79284" lon="6.26747">
        <ele>1044</ele>
        <time>2011-08-01T07:18:42Z</time>
      </trkpt>
      <trkpt lat="45.79293" lon="6.26748">
        <ele>1045</ele>
        <time>2011-08-01T07:18:47Z</time>
      </trkpt>
      <trkpt lat="45.79305" lon="6.26749">
        <ele>1047</ele>
        <time>2011-08-01T07:18:54Z</time>
      </trkpt>
      <trkpt lat="45.79316" lon="6.26752">
        <ele>1061</ele>
        <time>2011-08-01T07:19:01Z</time>
      </trkpt>
      <trkpt lat="45.79325" lon="6.26748">
        <ele>1053</ele>
        <time>2011-08-01T07:19:07Z</time>
      </trkpt>
      <trkpt lat="45.79328" lon="6.26748">
        <ele>1055</ele>
        <time>2011-08-01T07:19:12Z</time>
      </trkpt>
      <trkpt lat="45.7933" lon="6.26743">
        <ele>1053</ele>
        <time>2011-08-01T07:19:18Z</time>
      </trkpt>
      <trkpt lat="45.79333" lon="6.26737">
        <ele>1051</ele>
        <time>2011-08-01T07:19:25Z</time>
      </trkpt>
      <trkpt lat="45.79337" lon="6.2673">
        <ele>1056</ele>
        <time>2011-08-01T07:19:32Z</time>
      </trkpt>
      <trkpt lat="45.7934" lon="6.26727">
        <ele>1056</ele>
        <time>2011-08-01T07:19:35Z</time>
      </trkpt>
      <trkpt lat="45.79346" lon="6.26726">
        <ele>1056</ele>
        <time>2011-08-01T07:19:43Z</time>
      </trkpt>
      <trkpt lat="45.7935" lon="6.26731">
        <ele>1056</ele>
        <time>2011-08-01T07:19:50Z</time>
      </trkpt>
      <trkpt lat="45.79353" lon="6.26737">
        <ele>1057</ele>
        <time>2011-08-01T07:19:56Z</time>
      </trkpt>
      <trkpt lat="45.79353" lon="6.2674">
        <ele>1057</ele>
        <time>2011-08-01T07:20:01Z</time>
      </trkpt>
      <trkpt lat="45.79353" lon="6.26742">
        <ele>1057</ele>
        <time>2011-08-01T07:20:02Z</time>
      </trkpt>
      <trkpt lat="45.79355" lon="6.26755">
        <ele>1070</ele>
        <time>2011-08-01T07:20:08Z</time>
      </trkpt>
      <trkpt lat="45.79359" lon="6.26763">
        <ele>1072</ele>
        <time>2011-08-01T07:20:13Z</time>
      </trkpt>
      <trkpt lat="45.79362" lon="6.2677">
        <ele>1074</ele>
        <time>2011-08-01T07:20:19Z</time>
      </trkpt>
      <trkpt lat="45.79366" lon="6.26777">
        <ele>1075</ele>
        <time>2011-08-01T07:20:26Z</time>
      </trkpt>
      <trkpt lat="45.79367" lon="6.26785">
        <ele>1077</ele>
        <time>2011-08-01T07:20:32Z</time>
      </trkpt>
      <trkpt lat="45.79367" lon="6.26791">
        <ele>1078</ele>
        <time>2011-08-01T07:20:36Z</time>
      </trkpt>
      <trkpt lat="45.79366" lon="6.26801">
        <ele>1079</ele>
        <time>2011-08-01T07:20:43Z</time>
      </trkpt>
      <trkpt lat="45.79367" lon="6.26805">
        <ele>1079</ele>
        <time>2011-08-01T07:20:45Z</time>
      </trkpt>
      <trkpt lat="45.79365" lon="6.26806">
        <ele>1079</ele>
        <time>2011-08-01T07:20:47Z</time>
      </trkpt>
      <trkpt lat="45.79359" lon="6.26817">
        <ele>1080</ele>
        <time>2011-08-01T07:20:55Z</time>
      </trkpt>
      <trkpt lat="45.79359" lon="6.26834">
        <ele>1094</ele>
        <time>2011-08-01T07:21:03Z</time>
      </trkpt>
      <trkpt lat="45.7936" lon="6.26842">
        <ele>1095</ele>
        <time>2011-08-01T07:21:08Z</time>
      </trkpt>
      <trkpt lat="45.79361" lon="6.26843">
        <ele>1095</ele>
        <time>2011-08-01T07:21:09Z</time>
      </trkpt>
      <trkpt lat="45.79368" lon="6.26847">
        <ele>1097</ele>
        <time>2011-08-01T07:21:16Z</time>
      </trkpt>
      <trkpt lat="45.79375" lon="6.26834">
        <ele>1097</ele>
        <time>2011-08-01T07:21:25Z</time>
      </trkpt>
      <trkpt lat="45.7938" lon="6.2682">
        <ele>1083</ele>
        <time>2011-08-01T07:21:33Z</time>
      </trkpt>
      <trkpt lat="45.79388" lon="6.26806">
        <ele>1082</ele>
        <time>2011-08-01T07:21:42Z</time>
      </trkpt>
      <trkpt lat="45.79393" lon="6.26799">
        <ele>1081</ele>
        <time>2011-08-01T07:21:48Z</time>
      </trkpt>
      <trkpt lat="45.79407" lon="6.26792">
        <ele>1081</ele>
        <time>2011-08-01T07:21:54Z</time>
      </trkpt>
      <trkpt lat="45.79432" lon="6.26783">
        <ele>1086</ele>
        <time>2011-08-01T07:22:00Z</time>
      </trkpt>
      <trkpt lat="45.79445" lon="6.26781">
        <ele>1086</ele>
        <time>2011-08-01T07:22:03Z</time>
      </trkpt>
      <trkpt lat="45.79478" lon="6.26786">
        <ele>1087</ele>
        <time>2011-08-01T07:22:10Z</time>
      </trkpt>
      <trkpt lat="45.79495" lon="6.26799">
        <ele>1089</ele>
        <time>2011-08-01T07:22:14Z</time>
      </trkpt>
      <trkpt lat="45.79501" lon="6.26808">
        <ele>1089</ele>
        <time>2011-08-01T07:22:16Z</time>
      </trkpt>
      <trkpt lat="45.7952" lon="6.26827">
        <ele>1090</ele>
        <time>2011-08-01T07:22:22Z</time>
      </trkpt>
      <trkpt lat="45.79531" lon="6.26822">
        <ele>1088</ele>
        <time>2011-08-01T07:22:27Z</time>
      </trkpt>
      <trkpt lat="45.79541" lon="6.26811">
        <ele>1086</ele>
        <time>2011-08-01T07:22:30Z</time>
      </trkpt>
      <trkpt lat="45.79572" lon="6.26808">
        <ele>1084</ele>
        <time>2011-08-01T07:22:36Z</time>
      </trkpt>
      <trkpt lat="45.79592" lon="6.26824">
        <ele>1082</ele>
        <time>2011-08-01T07:22:40Z</time>
      </trkpt>
      <trkpt lat="45.79599" lon="6.26849">
        <ele>1093</ele>
        <time>2011-08-01T07:22:43Z</time>
      </trkpt>
      <trkpt lat="45.79602" lon="6.26857">
        <ele>1094</ele>
        <time>2011-08-01T07:22:44Z</time>
      </trkpt>
      <trkpt lat="45.79612" lon="6.26883">
        <ele>1098</ele>
        <time>2011-08-01T07:22:48Z</time>
      </trkpt>
      <trkpt lat="45.79622" lon="6.26892">
        <ele>1099</ele>
        <time>2011-08-01T07:22:52Z</time>
      </trkpt>
      <trkpt lat="45.7963" lon="6.26896">
        <ele>1099</ele>
        <time>2011-08-01T07:22:57Z</time>
      </trkpt>
      <trkpt lat="45.79634" lon="6.26886">
        <ele>1097</ele>
        <time>2011-08-01T07:23:00Z</time>
      </trkpt>
      <trkpt lat="45.79647" lon="6.26859">
        <ele>1090</ele>
        <time>2011-08-01T07:23:05Z</time>
      </trkpt>
      <trkpt lat="45.7965" lon="6.26851">
        <ele>1087</ele>
        <time>2011-08-01T07:23:06Z</time>
      </trkpt>
      <trkpt lat="45.79657" lon="6.26819">
        <ele>1072</ele>
        <time>2011-08-01T07:23:09Z</time>
      </trkpt>
      <trkpt lat="45.79662" lon="6.26773">
        <ele>1063</ele>
        <time>2011-08-01T07:23:14Z</time>
      </trkpt>
      <trkpt lat="45.79676" lon="6.26767">
        <ele>1056</ele>
        <time>2011-08-01T07:23:18Z</time>
      </trkpt>
      <trkpt lat="45.79693" lon="6.26777">
        <ele>1058</ele>
        <time>2011-08-01T07:23:21Z</time>
      </trkpt>
      <trkpt lat="45.79704" lon="6.26785">
        <ele>1058</ele>
        <time>2011-08-01T07:23:23Z</time>
      </trkpt>
      <trkpt lat="45.79728" lon="6.26781">
        <ele>1056</ele>
        <time>2011-08-01T07:23:27Z</time>
      </trkpt>
      <trkpt lat="45.79758" lon="6.26778">
        <ele>1056</ele>
        <time>2011-08-01T07:23:33Z</time>
      </trkpt>
      <trkpt lat="45.79789" lon="6.26771">
        <ele>1058</ele>
        <time>2011-08-01T07:23:39Z</time>
      </trkpt>
      <trkpt lat="45.79813" lon="6.2676">
        <ele>1058</ele>
        <time>2011-08-01T07:23:44Z</time>
      </trkpt>
      <trkpt lat="45.79832" lon="6.26744">
        <ele>1050</ele>
        <time>2011-08-01T07:23:49Z</time>
      </trkpt>
      <trkpt lat="45.7984" lon="6.2674">
        <ele>1048</ele>
        <time>2011-08-01T07:23:51Z</time>
      </trkpt>
      <trkpt lat="45.79857" lon="6.26739">
        <ele>1044</ele>
        <time>2011-08-01T07:23:55Z</time>
      </trkpt>
      <trkpt lat="45.79874" lon="6.26749">
        <ele>1042</ele>
        <time>2011-08-01T07:24:00Z</time>
      </trkpt>
      <trkpt lat="45.79881" lon="6.26757">
        <ele>1056</ele>
        <time>2011-08-01T07:24:02Z</time>
      </trkpt>
      <trkpt lat="45.79903" lon="6.26775">
        <ele>1055</ele>
        <time>2011-08-01T07:24:06Z</time>
      </trkpt>
      <trkpt lat="45.7994" lon="6.26798">
        <ele>1061</ele>
        <time>2011-08-01T07:24:12Z</time>
      </trkpt>
      <trkpt lat="45.79947" lon="6.268">
        <ele>1061</ele>
        <time>2011-08-01T07:24:14Z</time>
      </trkpt>
      <trkpt lat="45.79958" lon="6.26792">
        <ele>1061</ele>
        <time>2011-08-01T07:24:19Z</time>
      </trkpt>
      <trkpt lat="45.79958" lon="6.26786">
        <ele>1061</ele>
        <time>2011-08-01T07:24:20Z</time>
      </trkpt>
      <trkpt lat="45.79959" lon="6.26737">
        <ele>1052</ele>
        <time>2011-08-01T07:24:28Z</time>
      </trkpt>
      <trkpt lat="45.79959" lon="6.26714">
        <ele>1051</ele>
        <time>2011-08-01T07:24:32Z</time>
      </trkpt>
      <trkpt lat="45.79954" lon="6.26674">
        <ele>1049</ele>
        <time>2011-08-01T07:24:39Z</time>
      </trkpt>
      <trkpt lat="45.79936" lon="6.26633">
        <ele>1042</ele>
        <time>2011-08-01T07:24:47Z</time>
      </trkpt>
      <trkpt lat="45.79932" lon="6.26613">
        <ele>1040</ele>
        <time>2011-08-01T07:24:52Z</time>
      </trkpt>
      <trkpt lat="45.79932" lon="6.26609">
        <ele>1040</ele>
        <time>2011-08-01T07:24:53Z</time>
      </trkpt>
      <trkpt lat="45.79934" lon="6.26604">
        <ele>1040</ele>
        <time>2011-08-01T07:24:57Z</time>
      </trkpt>
      <trkpt lat="45.79935" lon="6.26602">
        <ele>1040</ele>
        <time>2011-08-01T07:24:58Z</time>
      </trkpt>
      <trkpt lat="45.79941" lon="6.26591">
        <ele>1040</ele>
        <time>2011-08-01T07:25:04Z</time>
      </trkpt>
      <trkpt lat="45.79954" lon="6.26587">
        <ele>1042</ele>
        <time>2011-08-01T07:25:08Z</time>
      </trkpt>
      <trkpt lat="45.79977" lon="6.2658">
        <ele>1039</ele>
        <time>2011-08-01T07:25:14Z</time>
      </trkpt>
      <trkpt lat="45.8001" lon="6.26554">
        <ele>1047</ele>
        <time>2011-08-01T07:25:22Z</time>
      </trkpt>
      <trkpt lat="45.80039" lon="6.26533">
        <ele>1048</ele>
        <time>2011-08-01T07:25:29Z</time>
      </trkpt>
      <trkpt lat="45.80051" lon="6.26514">
        <ele>1048</ele>
        <time>2011-08-01T07:25:33Z</time>
      </trkpt>
      <trkpt lat="45.80061" lon="6.26494">
        <ele>1041</ele>
        <time>2011-08-01T07:25:37Z</time>
      </trkpt>
      <trkpt lat="45.80078" lon="6.26475">
        <ele>1040</ele>
        <time>2011-08-01T07:25:42Z</time>
      </trkpt>
      <trkpt lat="45.8009" lon="6.26467">
        <ele>1044</ele>
        <time>2011-08-01T07:25:45Z</time>
      </trkpt>
      <trkpt lat="45.80104" lon="6.26464">
        <ele>1044</ele>
        <time>2011-08-01T07:25:48Z</time>
      </trkpt>
      <trkpt lat="45.80112" lon="6.26465">
        <ele>1044</ele>
        <time>2011-08-01T07:25:50Z</time>
      </trkpt>
      <trkpt lat="45.80135" lon="6.26466">
        <ele>1044</ele>
        <time>2011-08-01T07:25:55Z</time>
      </trkpt>
      <trkpt lat="45.80164" lon="6.26472">
        <ele>1045</ele>
        <time>2011-08-01T07:26:00Z</time>
      </trkpt>
      <trkpt lat="45.8017" lon="6.26475">
        <ele>1045</ele>
        <time>2011-08-01T07:26:01Z</time>
      </trkpt>
      <trkpt lat="45.8019" lon="6.2649">
        <ele>1046</ele>
        <time>2011-08-01T07:26:06Z</time>
      </trkpt>
      <trkpt lat="45.80208" lon="6.26495">
        <ele>1046</ele>
        <time>2011-08-01T07:26:09Z</time>
      </trkpt>
      <trkpt lat="45.80227" lon="6.26484">
        <ele>1046</ele>
        <time>2011-08-01T07:26:12Z</time>
      </trkpt>
      <trkpt lat="45.80244" lon="6.26465">
        <ele>1045</ele>
        <time>2011-08-01T07:26:16Z</time>
      </trkpt>
      <trkpt lat="45.80265" lon="6.2645">
        <ele>1048</ele>
        <time>2011-08-01T07:26:20Z</time>
      </trkpt>
      <trkpt lat="45.80276" lon="6.26453">
        <ele>1049</ele>
        <time>2011-08-01T07:26:25Z</time>
      </trkpt>
      <trkpt lat="45.80278" lon="6.26454">
        <ele>1049</ele>
        <time>2011-08-01T07:26:26Z</time>
      </trkpt>
      <trkpt lat="45.80299" lon="6.26465">
        <ele>1051</ele>
        <time>2011-08-01T07:26:36Z</time>
      </trkpt>
      <trkpt lat="45.80317" lon="6.2647">
        <ele>1052</ele>
        <time>2011-08-01T07:26:44Z</time>
      </trkpt>
      <trkpt lat="45.80328" lon="6.26474">
        <ele>1054</ele>
        <time>2011-08-01T07:26:49Z</time>
      </trkpt>
      <trkpt lat="45.80341" lon="6.26482">
        <ele>1056</ele>
        <time>2011-08-01T07:26:56Z</time>
      </trkpt>
      <trkpt lat="45.80342" lon="6.26494">
        <ele>1058</ele>
        <time>2011-08-01T07:27:01Z</time>
      </trkpt>
      <trkpt lat="45.80342" lon="6.26515">
        <ele>1063</ele>
        <time>2011-08-01T07:27:10Z</time>
      </trkpt>
      <trkpt lat="45.80348" lon="6.26532">
        <ele>1065</ele>
        <time>2011-08-01T07:27:18Z</time>
      </trkpt>
      <trkpt lat="45.80349" lon="6.26546">
        <ele>1066</ele>
        <time>2011-08-01T07:27:24Z</time>
      </trkpt>
      <trkpt lat="45.80353" lon="6.26563">
        <ele>1068</ele>
        <time>2011-08-01T07:27:31Z</time>
      </trkpt>
      <trkpt lat="45.80358" lon="6.26579">
        <ele>1069</ele>
        <time>2011-08-01T07:27:39Z</time>
      </trkpt>
      <trkpt lat="45.80364" lon="6.26592">
        <ele>1078</ele>
        <time>2011-08-01T07:27:46Z</time>
      </trkpt>
      <trkpt lat="45.80373" lon="6.26601">
        <ele>1079</ele>
        <time>2011-08-01T07:27:54Z</time>
      </trkpt>
      <trkpt lat="45.80378" lon="6.26614">
        <ele>1080</ele>
        <time>2011-08-01T07:28:01Z</time>
      </trkpt>
      <trkpt lat="45.80383" lon="6.26627">
        <ele>1081</ele>
        <time>2011-08-01T07:28:08Z</time>
      </trkpt>
      <trkpt lat="45.80388" lon="6.26638">
        <ele>1083</ele>
        <time>2011-08-01T07:28:14Z</time>
      </trkpt>
      <trkpt lat="45.80392" lon="6.26643">
        <ele>1083</ele>
        <time>2011-08-01T07:28:18Z</time>
      </trkpt>
      <trkpt lat="45.80397" lon="6.26647">
        <ele>1084</ele>
        <time>2011-08-01T07:28:22Z</time>
      </trkpt>
      <trkpt lat="45.80404" lon="6.26652">
        <ele>1085</ele>
        <time>2011-08-01T07:28:28Z</time>
      </trkpt>
      <trkpt lat="45.80409" lon="6.26656">
        <ele>1086</ele>
        <time>2011-08-01T07:28:32Z</time>
      </trkpt>
      <trkpt lat="45.80415" lon="6.26663">
        <ele>1089</ele>
        <time>2011-08-01T07:28:37Z</time>
      </trkpt>
      <trkpt lat="45.80419" lon="6.26668">
        <ele>1091</ele>
        <time>2011-08-01T07:28:41Z</time>
      </trkpt>
      <trkpt lat="45.80424" lon="6.26675">
        <ele>1094</ele>
        <time>2011-08-01T07:28:46Z</time>
      </trkpt>
      <trkpt lat="45.8043" lon="6.26683">
        <ele>1097</ele>
        <time>2011-08-01T07:28:52Z</time>
      </trkpt>
      <trkpt lat="45.80437" lon="6.26694">
        <ele>1099</ele>
        <time>2011-08-01T07:29:00Z</time>
      </trkpt>
      <trkpt lat="45.80441" lon="6.267">
        <ele>1100</ele>
        <time>2011-08-01T07:29:05Z</time>
      </trkpt>
      <trkpt lat="45.80444" lon="6.26709">
        <ele>1101</ele>
        <time>2011-08-01T07:29:14Z</time>
      </trkpt>
      <trkpt lat="45.80448" lon="6.26716">
        <ele>1102</ele>
        <time>2011-08-01T07:29:20Z</time>
      </trkpt>
      <trkpt lat="45.80454" lon="6.26723">
        <ele>1103</ele>
        <time>2011-08-01T07:29:25Z</time>
      </trkpt>
      <trkpt lat="45.80458" lon="6.26733">
        <ele>1104</ele>
        <time>2011-08-01T07:29:32Z</time>
      </trkpt>
      <trkpt lat="45.80461" lon="6.26737">
        <ele>1105</ele>
        <time>2011-08-01T07:29:35Z</time>
      </trkpt>
      <trkpt lat="45.80466" lon="6.26745">
        <ele>1106</ele>
        <time>2011-08-01T07:29:43Z</time>
      </trkpt>
      <trkpt lat="45.80468" lon="6.26746">
        <ele>1106</ele>
        <time>2011-08-01T07:29:49Z</time>
      </trkpt>
      <trkpt lat="45.8047" lon="6.2675">
        <ele>1107</ele>
        <time>2011-08-01T07:29:58Z</time>
      </trkpt>
      <trkpt lat="45.80476" lon="6.26755">
        <ele>1119</ele>
        <time>2011-08-01T07:30:04Z</time>
      </trkpt>
      <trkpt lat="45.80484" lon="6.26761">
        <ele>1119</ele>
        <time>2011-08-01T07:30:11Z</time>
      </trkpt>
      <trkpt lat="45.80489" lon="6.26764">
        <ele>1119</ele>
        <time>2011-08-01T07:30:17Z</time>
      </trkpt>
      <trkpt lat="45.80496" lon="6.26767">
        <ele>1120</ele>
        <time>2011-08-01T07:30:24Z</time>
      </trkpt>
      <trkpt lat="45.80504" lon="6.26769">
        <ele>1122</ele>
        <time>2011-08-01T07:30:30Z</time>
      </trkpt>
      <trkpt lat="45.80514" lon="6.26771">
        <ele>1123</ele>
        <time>2011-08-01T07:30:38Z</time>
      </trkpt>
      <trkpt lat="45.80524" lon="6.26773">
        <ele>1125</ele>
        <time>2011-08-01T07:30:45Z</time>
      </trkpt>
      <trkpt lat="45.80537" lon="6.26778">
        <ele>1126</ele>
        <time>2011-08-01T07:30:53Z</time>
      </trkpt>
      <trkpt lat="45.80543" lon="6.26783">
        <ele>1127</ele>
        <time>2011-08-01T07:30:58Z</time>
      </trkpt>
      <trkpt lat="45.80553" lon="6.26793">
        <ele>1128</ele>
        <time>2011-08-01T07:31:05Z</time>
      </trkpt>
      <trkpt lat="45.80562" lon="6.268">
        <ele>1130</ele>
        <time>2011-08-01T07:31:12Z</time>
      </trkpt>
      <trkpt lat="45.80569" lon="6.26803">
        <ele>1131</ele>
        <time>2011-08-01T07:31:17Z</time>
      </trkpt>
      <trkpt lat="45.80586" lon="6.26808">
        <ele>1131</ele>
        <time>2011-08-01T07:31:28Z</time>
      </trkpt>
      <trkpt lat="45.80598" lon="6.26811">
        <ele>1130</ele>
        <time>2011-08-01T07:31:36Z</time>
      </trkpt>
      <trkpt lat="45.80612" lon="6.2682">
        <ele>1130</ele>
        <time>2011-08-01T07:31:43Z</time>
      </trkpt>
      <trkpt lat="45.80624" lon="6.26835">
        <ele>1142</ele>
        <time>2011-08-01T07:31:51Z</time>
      </trkpt>
      <trkpt lat="45.8063" lon="6.26855">
        <ele>1143</ele>
        <time>2011-08-01T07:31:58Z</time>
      </trkpt>
      <trkpt lat="45.8063" lon="6.26871">
        <ele>1145</ele>
        <time>2011-08-01T07:32:03Z</time>
      </trkpt>
      <trkpt lat="45.8063" lon="6.26896">
        <ele>1148</ele>
        <time>2011-08-01T07:32:11Z</time>
      </trkpt>
      <trkpt lat="45.8063" lon="6.26924">
        <ele>1166</ele>
        <time>2011-08-01T07:32:20Z</time>
      </trkpt>
      <trkpt lat="45.80639" lon="6.2694">
        <ele>1167</ele>
        <time>2011-08-01T07:32:27Z</time>
      </trkpt>
      <trkpt lat="45.80649" lon="6.26947">
        <ele>1167</ele>
        <time>2011-08-01T07:32:33Z</time>
      </trkpt>
      <trkpt lat="45.80665" lon="6.2695">
        <ele>1166</ele>
        <time>2011-08-01T07:32:40Z</time>
      </trkpt>
      <trkpt lat="45.80687" lon="6.26954">
        <ele>1159</ele>
        <time>2011-08-01T07:32:50Z</time>
      </trkpt>
      <trkpt lat="45.8069" lon="6.26954">
        <ele>1159</ele>
        <time>2011-08-01T07:32:56Z</time>
      </trkpt>
      <trkpt lat="45.80694" lon="6.26954">
        <ele>1159</ele>
        <time>2011-08-01T07:33:05Z</time>
      </trkpt>
      <trkpt lat="45.80705" lon="6.26954">
        <ele>1159</ele>
        <time>2011-08-01T07:33:11Z</time>
      </trkpt>
      <trkpt lat="45.80722" lon="6.26952">
        <ele>1158</ele>
        <time>2011-08-01T07:33:18Z</time>
      </trkpt>
      <trkpt lat="45.80733" lon="6.26947">
        <ele>1156</ele>
        <time>2011-08-01T07:33:23Z</time>
      </trkpt>
      <trkpt lat="45.80749" lon="6.26945">
        <ele>1155</ele>
        <time>2011-08-01T07:33:30Z</time>
      </trkpt>
      <trkpt lat="45.80762" lon="6.26957">
        <ele>1155</ele>
        <time>2011-08-01T07:33:36Z</time>
      </trkpt>
      <trkpt lat="45.80773" lon="6.26967">
        <ele>1156</ele>
        <time>2011-08-01T07:33:40Z</time>
      </trkpt>
      <trkpt lat="45.80798" lon="6.26984">
        <ele>1157</ele>
        <time>2011-08-01T07:33:47Z</time>
      </trkpt>
      <trkpt lat="45.80811" lon="6.26997">
        <ele>1157</ele>
        <time>2011-08-01T07:33:51Z</time>
      </trkpt>
      <trkpt lat="45.80824" lon="6.27002">
        <ele>1165</ele>
        <time>2011-08-01T07:33:54Z</time>
      </trkpt>
      <trkpt lat="45.80829" lon="6.27004">
        <ele>1163</ele>
        <time>2011-08-01T07:33:55Z</time>
      </trkpt>
      <trkpt lat="45.80856" lon="6.27029">
        <ele>1173</ele>
        <time>2011-08-01T07:34:01Z</time>
      </trkpt>
      <trkpt lat="45.80862" lon="6.27037">
        <ele>1175</ele>
        <time>2011-08-01T07:34:03Z</time>
      </trkpt>
      <trkpt lat="45.80873" lon="6.27057">
        <ele>1178</ele>
        <time>2011-08-01T07:34:09Z</time>
      </trkpt>
      <trkpt lat="45.80881" lon="6.27063">
        <ele>1179</ele>
        <time>2011-08-01T07:34:13Z</time>
      </trkpt>
      <trkpt lat="45.80883" lon="6.27062">
        <ele>1179</ele>
        <time>2011-08-01T07:34:14Z</time>
      </trkpt>
      <trkpt lat="45.80891" lon="6.27039">
        <ele>1177</ele>
        <time>2011-08-01T07:34:20Z</time>
      </trkpt>
      <trkpt lat="45.80889" lon="6.27009">
        <ele>1175</ele>
        <time>2011-08-01T07:34:25Z</time>
      </trkpt>
      <trkpt lat="45.80891" lon="6.26994">
        <ele>1169</ele>
        <time>2011-08-01T07:34:29Z</time>
      </trkpt>
      <trkpt lat="45.80895" lon="6.26979">
        <ele>1168</ele>
        <time>2011-08-01T07:34:34Z</time>
      </trkpt>
      <trkpt lat="45.80898" lon="6.2697">
        <ele>1168</ele>
        <time>2011-08-01T07:34:39Z</time>
      </trkpt>
      <trkpt lat="45.809" lon="6.26963">
        <ele>1168</ele>
        <time>2011-08-01T07:34:44Z</time>
      </trkpt>
      <trkpt lat="45.80904" lon="6.26953">
        <ele>1168</ele>
        <time>2011-08-01T07:34:50Z</time>
      </trkpt>
      <trkpt lat="45.80906" lon="6.26947">
        <ele>1168</ele>
        <time>2011-08-01T07:34:53Z</time>
      </trkpt>
      <trkpt lat="45.80911" lon="6.26942">
        <ele>1169</ele>
        <time>2011-08-01T07:34:57Z</time>
      </trkpt>
      <trkpt lat="45.80911" lon="6.26931">
        <ele>1170</ele>
        <time>2011-08-01T07:35:03Z</time>
      </trkpt>
      <trkpt lat="45.80917" lon="6.2692">
        <ele>1173</ele>
        <time>2011-08-01T07:35:11Z</time>
      </trkpt>
      <trkpt lat="45.80923" lon="6.26911">
        <ele>1179</ele>
        <time>2011-08-01T07:35:18Z</time>
      </trkpt>
      <trkpt lat="45.80926" lon="6.26909">
        <ele>1180</ele>
        <time>2011-08-01T07:35:24Z</time>
      </trkpt>
      <trkpt lat="45.80925" lon="6.2691">
        <ele>1180</ele>
        <time>2011-08-01T07:35:34Z</time>
      </trkpt>
      <trkpt lat="45.80925" lon="6.26906">
        <ele>1181</ele>
        <time>2011-08-01T07:35:38Z</time>
      </trkpt>
      <trkpt lat="45.80927" lon="6.26902">
        <ele>1182</ele>
        <time>2011-08-01T07:35:43Z</time>
      </trkpt>
      <trkpt lat="45.80928" lon="6.26893">
        <ele>1184</ele>
        <time>2011-08-01T07:35:48Z</time>
      </trkpt>
      <trkpt lat="45.80927" lon="6.26877">
        <ele>1185</ele>
        <time>2011-08-01T07:35:55Z</time>
      </trkpt>
      <trkpt lat="45.80921" lon="6.2686">
        <ele>1184</ele>
        <time>2011-08-01T07:36:03Z</time>
      </trkpt>
      <trkpt lat="45.80917" lon="6.26846">
        <ele>1169</ele>
        <time>2011-08-01T07:36:10Z</time>
      </trkpt>
      <trkpt lat="45.80921" lon="6.26833">
        <ele>1177</ele>
        <time>2011-08-01T07:36:16Z</time>
      </trkpt>
      <trkpt lat="45.80927" lon="6.26825">
        <ele>1179</ele>
        <time>2011-08-01T07:36:22Z</time>
      </trkpt>
      <trkpt lat="45.80935" lon="6.26821">
        <ele>1181</ele>
        <time>2011-08-01T07:36:29Z</time>
      </trkpt>
      <trkpt lat="45.80939" lon="6.2683">
        <ele>1181</ele>
        <time>2011-08-01T07:36:36Z</time>
      </trkpt>
      <trkpt lat="45.80943" lon="6.26837">
        <ele>1185</ele>
        <time>2011-08-01T07:36:42Z</time>
      </trkpt>
      <trkpt lat="45.80949" lon="6.2684">
        <ele>1187</ele>
        <time>2011-08-01T07:36:47Z</time>
      </trkpt>
      <trkpt lat="45.80958" lon="6.26839">
        <ele>1189</ele>
        <time>2011-08-01T07:36:55Z</time>
      </trkpt>
      <trkpt lat="45.80959" lon="6.26839">
        <ele>1189</ele>
        <time>2011-08-01T07:37:00Z</time>
      </trkpt>
      <trkpt lat="45.80963" lon="6.26838">
        <ele>1190</ele>
        <time>2011-08-01T07:37:06Z</time>
      </trkpt>
      <trkpt lat="45.80967" lon="6.26841">
        <ele>1191</ele>
        <time>2011-08-01T07:37:12Z</time>
      </trkpt>
      <trkpt lat="45.80973" lon="6.26846">
        <ele>1193</ele>
        <time>2011-08-01T07:37:21Z</time>
      </trkpt>
      <trkpt lat="45.80977" lon="6.2685">
        <ele>1193</ele>
        <time>2011-08-01T07:37:29Z</time>
      </trkpt>
      <trkpt lat="45.80983" lon="6.26851">
        <ele>1194</ele>
        <time>2011-08-01T07:37:36Z</time>
      </trkpt>
      <trkpt lat="45.80988" lon="6.2685">
        <ele>1195</ele>
        <time>2011-08-01T07:37:44Z</time>
      </trkpt>
      <trkpt lat="45.80988" lon="6.26849">
        <ele>1195</ele>
        <time>2011-08-01T07:37:50Z</time>
      </trkpt>
      <trkpt lat="45.8099" lon="6.26848">
        <ele>1196</ele>
        <time>2011-08-01T07:37:52Z</time>
      </trkpt>
      <trkpt lat="45.81004" lon="6.26838">
        <ele>1205</ele>
        <time>2011-08-01T07:37:59Z</time>
      </trkpt>
      <trkpt lat="45.81015" lon="6.26838">
        <ele>1210</ele>
        <time>2011-08-01T07:38:05Z</time>
      </trkpt>
      <trkpt lat="45.81022" lon="6.26835">
        <ele>1213</ele>
        <time>2011-08-01T07:38:11Z</time>
      </trkpt>
      <trkpt lat="45.81024" lon="6.26816">
        <ele>1208</ele>
        <time>2011-08-01T07:38:17Z</time>
      </trkpt>
      <trkpt lat="45.81018" lon="6.26794">
        <ele>1207</ele>
        <time>2011-08-01T07:38:22Z</time>
      </trkpt>
      <trkpt lat="45.81014" lon="6.2678">
        <ele>1205</ele>
        <time>2011-08-01T07:38:25Z</time>
      </trkpt>
      <trkpt lat="45.81017" lon="6.26752">
        <ele>1201</ele>
        <time>2011-08-01T07:38:31Z</time>
      </trkpt>
      <trkpt lat="45.81023" lon="6.26715">
        <ele>1194</ele>
        <time>2011-08-01T07:38:37Z</time>
      </trkpt>
      <trkpt lat="45.81025" lon="6.26709">
        <ele>1194</ele>
        <time>2011-08-01T07:38:38Z</time>
      </trkpt>
      <trkpt lat="45.81029" lon="6.26699">
        <ele>1193</ele>
        <time>2011-08-01T07:38:40Z</time>
      </trkpt>
      <trkpt lat="45.81034" lon="6.26689">
        <ele>1193</ele>
        <time>2011-08-01T07:38:44Z</time>
      </trkpt>
      <trkpt lat="45.81034" lon="6.26687">
        <ele>1193</ele>
        <time>2011-08-01T07:38:50Z</time>
      </trkpt>
      <trkpt lat="45.81036" lon="6.26686">
        <ele>1193</ele>
        <time>2011-08-01T07:38:55Z</time>
      </trkpt>
      <trkpt lat="45.81037" lon="6.26687">
        <ele>1193</ele>
        <time>2011-08-01T07:38:57Z</time>
      </trkpt>
      <trkpt lat="45.81047" lon="6.26688">
        <ele>1194</ele>
        <time>2011-08-01T07:39:03Z</time>
      </trkpt>
      <trkpt lat="45.81055" lon="6.26693">
        <ele>1196</ele>
        <time>2011-08-01T07:39:08Z</time>
      </trkpt>
      <trkpt lat="45.81066" lon="6.267">
        <ele>1197</ele>
        <time>2011-08-01T07:39:16Z</time>
      </trkpt>
      <trkpt lat="45.8107" lon="6.267">
        <ele>1198</ele>
        <time>2011-08-01T07:39:19Z</time>
      </trkpt>
      <trkpt lat="45.81076" lon="6.26702">
        <ele>1198</ele>
        <time>2011-08-01T07:39:25Z</time>
      </trkpt>
      <trkpt lat="45.81084" lon="6.26709">
        <ele>1210</ele>
        <time>2011-08-01T07:39:33Z</time>
      </trkpt>
      <trkpt lat="45.81091" lon="6.26711">
        <ele>1211</ele>
        <time>2011-08-01T07:39:38Z</time>
      </trkpt>
      <trkpt lat="45.81101" lon="6.26713">
        <ele>1211</ele>
        <time>2011-08-01T07:39:45Z</time>
      </trkpt>
      <trkpt lat="45.81104" lon="6.26715">
        <ele>1212</ele>
        <time>2011-08-01T07:39:48Z</time>
      </trkpt>
      <trkpt lat="45.81111" lon="6.26717">
        <ele>1213</ele>
        <time>2011-08-01T07:39:56Z</time>
      </trkpt>
      <trkpt lat="45.81115" lon="6.26719">
        <ele>1213</ele>
        <time>2011-08-01T07:40:01Z</time>
      </trkpt>
      <trkpt lat="45.8112" lon="6.26721">
        <ele>1214</ele>
        <time>2011-08-01T07:40:07Z</time>
      </trkpt>
      <trkpt lat="45.81121" lon="6.26722">
        <ele>1214</ele>
        <time>2011-08-01T07:40:09Z</time>
      </trkpt>
      <trkpt lat="45.81129" lon="6.26727">
        <ele>1215</ele>
        <time>2011-08-01T07:40:18Z</time>
      </trkpt>
      <trkpt lat="45.81133" lon="6.26728">
        <ele>1216</ele>
        <time>2011-08-01T07:40:25Z</time>
      </trkpt>
      <trkpt lat="45.81137" lon="6.26728">
        <ele>1217</ele>
        <time>2011-08-01T07:40:29Z</time>
      </trkpt>
      <trkpt lat="45.81147" lon="6.26732">
        <ele>1219</ele>
        <time>2011-08-01T07:40:35Z</time>
      </trkpt>
      <trkpt lat="45.81148" lon="6.26733">
        <ele>1219</ele>
        <time>2011-08-01T07:40:36Z</time>
      </trkpt>
      <trkpt lat="45.8116" lon="6.26739">
        <ele>1224</ele>
        <time>2011-08-01T07:40:41Z</time>
      </trkpt>
      <trkpt lat="45.81171" lon="6.26742">
        <ele>1230</ele>
        <time>2011-08-01T07:40:45Z</time>
      </trkpt>
      <trkpt lat="45.81185" lon="6.26748">
        <ele>1229</ele>
        <time>2011-08-01T07:40:50Z</time>
      </trkpt>
      <trkpt lat="45.81193" lon="6.26745">
        <ele>1228</ele>
        <time>2011-08-01T07:40:56Z</time>
      </trkpt>
      <trkpt lat="45.81198" lon="6.26748">
        <ele>1228</ele>
        <time>2011-08-01T07:41:03Z</time>
      </trkpt>
      <trkpt lat="45.81202" lon="6.26747">
        <ele>1228</ele>
        <time>2011-08-01T07:41:09Z</time>
      </trkpt>
      <trkpt lat="45.81208" lon="6.26747">
        <ele>1228</ele>
        <time>2011-08-01T07:41:15Z</time>
      </trkpt>
      <trkpt lat="45.81222" lon="6.26737">
        <ele>1229</ele>
        <time>2011-08-01T07:41:22Z</time>
      </trkpt>
      <trkpt lat="45.81231" lon="6.26728">
        <ele>1229</ele>
        <time>2011-08-01T07:41:27Z</time>
      </trkpt>
      <trkpt lat="45.81237" lon="6.26717">
        <ele>1227</ele>
        <time>2011-08-01T07:41:31Z</time>
      </trkpt>
      <trkpt lat="45.81242" lon="6.26713">
        <ele>1226</ele>
        <time>2011-08-01T07:41:34Z</time>
      </trkpt>
      <trkpt lat="45.81253" lon="6.26714">
        <ele>1234</ele>
        <time>2011-08-01T07:41:39Z</time>
      </trkpt>
      <trkpt lat="45.81261" lon="6.26705">
        <ele>1232</ele>
        <time>2011-08-01T07:41:44Z</time>
      </trkpt>
      <trkpt lat="45.81263" lon="6.26704">
        <ele>1232</ele>
        <time>2011-08-01T07:41:45Z</time>
      </trkpt>
      <trkpt lat="45.8127" lon="6.26693">
        <ele>1230</ele>
        <time>2011-08-01T07:41:51Z</time>
      </trkpt>
      <trkpt lat="45.81273" lon="6.26687">
        <ele>1229</ele>
        <time>2011-08-01T07:41:53Z</time>
      </trkpt>
      <trkpt lat="45.81286" lon="6.26676">
        <ele>1229</ele>
        <time>2011-08-01T07:41:57Z</time>
      </trkpt>
      <trkpt lat="45.813" lon="6.26671">
        <ele>1230</ele>
        <time>2011-08-01T07:42:02Z</time>
      </trkpt>
      <trkpt lat="45.8132" lon="6.26671">
        <ele>1230</ele>
        <time>2011-08-01T07:42:07Z</time>
      </trkpt>
      <trkpt lat="45.8133" lon="6.26672">
        <ele>1228</ele>
        <time>2011-08-01T07:42:09Z</time>
      </trkpt>
      <trkpt lat="45.81348" lon="6.26684">
        <ele>1243</ele>
        <time>2011-08-01T07:42:14Z</time>
      </trkpt>
      <trkpt lat="45.81347" lon="6.26686">
        <ele>1244</ele>
        <time>2011-08-01T07:42:17Z</time>
      </trkpt>
      <trkpt lat="45.8135" lon="6.26689">
        <ele>1245</ele>
        <time>2011-08-01T07:42:20Z</time>
      </trkpt>
      <trkpt lat="45.81357" lon="6.26685">
        <ele>1246</ele>
        <time>2011-08-01T07:42:27Z</time>
      </trkpt>
      <trkpt lat="45.81359" lon="6.26682">
        <ele>1246</ele>
        <time>2011-08-01T07:42:32Z</time>
      </trkpt>
      <trkpt lat="45.81359" lon="6.26672">
        <ele>1244</ele>
        <time>2011-08-01T07:42:38Z</time>
      </trkpt>
      <trkpt lat="45.81367" lon="6.26662">
        <ele>1228</ele>
        <time>2011-08-01T07:42:44Z</time>
      </trkpt>
      <trkpt lat="45.81376" lon="6.26657">
        <ele>1229</ele>
        <time>2011-08-01T07:42:47Z</time>
      </trkpt>
      <trkpt lat="45.81383" lon="6.26651">
        <ele>1230</ele>
        <time>2011-08-01T07:42:53Z</time>
      </trkpt>
      <trkpt lat="45.81388" lon="6.26626">
        <ele>1226</ele>
        <time>2011-08-01T07:43:00Z</time>
      </trkpt>
      <trkpt lat="45.81396" lon="6.26611">
        <ele>1224</ele>
        <time>2011-08-01T07:43:04Z</time>
      </trkpt>
      <trkpt lat="45.81396" lon="6.26595">
        <ele>1222</ele>
        <time>2011-08-01T07:43:09Z</time>
      </trkpt>
      <trkpt lat="45.81403" lon="6.2658">
        <ele>1210</ele>
        <time>2011-08-01T07:43:13Z</time>
      </trkpt>
      <trkpt lat="45.81414" lon="6.26564">
        <ele>1207</ele>
        <time>2011-08-01T07:43:17Z</time>
      </trkpt>
      <trkpt lat="45.81429" lon="6.26552">
        <ele>1216</ele>
        <time>2011-08-01T07:43:22Z</time>
      </trkpt>
      <trkpt lat="45.8145" lon="6.26541">
        <ele>1215</ele>
        <time>2011-08-01T07:43:27Z</time>
      </trkpt>
      <trkpt lat="45.81454" lon="6.26539">
        <ele>1215</ele>
        <time>2011-08-01T07:43:28Z</time>
      </trkpt>
      <trkpt lat="45.81468" lon="6.26535">
        <ele>1216</ele>
        <time>2011-08-01T07:43:32Z</time>
      </trkpt>
      <trkpt lat="45.81485" lon="6.26528">
        <ele>1216</ele>
        <time>2011-08-01T07:43:40Z</time>
      </trkpt>
      <trkpt lat="45.81492" lon="6.26525">
        <ele>1215</ele>
        <time>2011-08-01T07:43:44Z</time>
      </trkpt>
      <trkpt lat="45.81504" lon="6.26522">
        <ele>1222</ele>
        <time>2011-08-01T07:43:51Z</time>
      </trkpt>
      <trkpt lat="45.8151" lon="6.2652">
        <ele>1222</ele>
        <time>2011-08-01T07:43:56Z</time>
      </trkpt>
      <trkpt lat="45.81517" lon="6.26519">
        <ele>1223</ele>
        <time>2011-08-01T07:44:01Z</time>
      </trkpt>
      <trkpt lat="45.81522" lon="6.26519">
        <ele>1224</ele>
        <time>2011-08-01T07:44:04Z</time>
      </trkpt>
      <trkpt lat="45.81533" lon="6.26526">
        <ele>1227</ele>
        <time>2011-08-01T07:44:11Z</time>
      </trkpt>
      <trkpt lat="45.81538" lon="6.26527">
        <ele>1228</ele>
        <time>2011-08-01T07:44:14Z</time>
      </trkpt>
      <trkpt lat="45.81551" lon="6.26524">
        <ele>1228</ele>
        <time>2011-08-01T07:44:22Z</time>
      </trkpt>
      <trkpt lat="45.81565" lon="6.26523">
        <ele>1228</ele>
        <time>2011-08-01T07:44:29Z</time>
      </trkpt>
      <trkpt lat="45.81579" lon="6.26523">
        <ele>1228</ele>
        <time>2011-08-01T07:44:36Z</time>
      </trkpt>
      <trkpt lat="45.8159" lon="6.26518">
        <ele>1232</ele>
        <time>2011-08-01T07:44:41Z</time>
      </trkpt>
      <trkpt lat="45.81603" lon="6.26515">
        <ele>1233</ele>
        <time>2011-08-01T07:44:46Z</time>
      </trkpt>
      <trkpt lat="45.81618" lon="6.26516">
        <ele>1236</ele>
        <time>2011-08-01T07:44:52Z</time>
      </trkpt>
      <trkpt lat="45.81635" lon="6.2652">
        <ele>1238</ele>
        <time>2011-08-01T07:44:58Z</time>
      </trkpt>
      <trkpt lat="45.81648" lon="6.26521">
        <ele>1238</ele>
        <time>2011-08-01T07:45:02Z</time>
      </trkpt>
      <trkpt lat="45.81658" lon="6.2652">
        <ele>1237</ele>
        <time>2011-08-01T07:45:06Z</time>
      </trkpt>
      <trkpt lat="45.81661" lon="6.26519">
        <ele>1237</ele>
        <time>2011-08-01T07:45:11Z</time>
      </trkpt>
      <trkpt lat="45.81665" lon="6.26519">
        <ele>1237</ele>
        <time>2011-08-01T07:45:17Z</time>
      </trkpt>
      <trkpt lat="45.81674" lon="6.26516">
        <ele>1242</ele>
        <time>2011-08-01T07:45:24Z</time>
      </trkpt>
      <trkpt lat="45.8168" lon="6.26512">
        <ele>1242</ele>
        <time>2011-08-01T07:45:30Z</time>
      </trkpt>
      <trkpt lat="45.81687" lon="6.26499">
        <ele>1227</ele>
        <time>2011-08-01T07:45:39Z</time>
      </trkpt>
      <trkpt lat="45.81689" lon="6.265">
        <ele>1227</ele>
        <time>2011-08-01T07:45:44Z</time>
      </trkpt>
      <trkpt lat="45.81694" lon="6.26492">
        <ele>1226</ele>
        <time>2011-08-01T07:45:53Z</time>
      </trkpt>
      <trkpt lat="45.81696" lon="6.26489">
        <ele>1225</ele>
        <time>2011-08-01T07:46:01Z</time>
      </trkpt>
      <trkpt lat="45.81701" lon="6.26486">
        <ele>1225</ele>
        <time>2011-08-01T07:46:05Z</time>
      </trkpt>
      <trkpt lat="45.81713" lon="6.26484">
        <ele>1226</ele>
        <time>2011-08-01T07:46:11Z</time>
      </trkpt>
      <trkpt lat="45.81724" lon="6.26486">
        <ele>1228</ele>
        <time>2011-08-01T07:46:15Z</time>
      </trkpt>
      <trkpt lat="45.81728" lon="6.26488">
        <ele>1229</ele>
        <time>2011-08-01T07:46:16Z</time>
      </trkpt>
      <trkpt lat="45.81742" lon="6.26486">
        <ele>1232</ele>
        <time>2011-08-01T07:46:22Z</time>
      </trkpt>
      <trkpt lat="45.81752" lon="6.2648">
        <ele>1236</ele>
        <time>2011-08-01T07:46:29Z</time>
      </trkpt>
      <trkpt lat="45.81764" lon="6.26477">
        <ele>1235</ele>
        <time>2011-08-01T07:46:36Z</time>
      </trkpt>
      <trkpt lat="45.81773" lon="6.26477">
        <ele>1235</ele>
        <time>2011-08-01T07:46:43Z</time>
      </trkpt>
      <trkpt lat="45.81783" lon="6.26477">
        <ele>1235</ele>
        <time>2011-08-01T07:46:50Z</time>
      </trkpt>
      <trkpt lat="45.81798" lon="6.26475">
        <ele>1236</ele>
        <time>2011-08-01T07:46:58Z</time>
      </trkpt>
      <trkpt lat="45.81809" lon="6.2647">
        <ele>1236</ele>
        <time>2011-08-01T07:47:03Z</time>
      </trkpt>
      <trkpt lat="45.8182" lon="6.26467">
        <ele>1236</ele>
        <time>2011-08-01T07:47:08Z</time>
      </trkpt>
      <trkpt lat="45.81839" lon="6.26464">
        <ele>1243</ele>
        <time>2011-08-01T07:47:15Z</time>
      </trkpt>
      <trkpt lat="45.81853" lon="6.26462">
        <ele>1243</ele>
        <time>2011-08-01T07:47:19Z</time>
      </trkpt>
      <trkpt lat="45.8187" lon="6.26454">
        <ele>1242</ele>
        <time>2011-08-01T07:47:24Z</time>
      </trkpt>
      <trkpt lat="45.81878" lon="6.26456">
        <ele>1243</ele>
        <time>2011-08-01T07:47:27Z</time>
      </trkpt>
      <trkpt lat="45.81887" lon="6.26449">
        <ele>1243</ele>
        <time>2011-08-01T07:47:32Z</time>
      </trkpt>
      <trkpt lat="45.81896" lon="6.26441">
        <ele>1242</ele>
        <time>2011-08-01T07:47:37Z</time>
      </trkpt>
      <trkpt lat="45.81905" lon="6.26439">
        <ele>1241</ele>
        <time>2011-08-01T07:47:42Z</time>
      </trkpt>
      <trkpt lat="45.81908" lon="6.26431">
        <ele>1240</ele>
        <time>2011-08-01T07:47:49Z</time>
      </trkpt>
      <trkpt lat="45.81917" lon="6.2641">
        <ele>1234</ele>
        <time>2011-08-01T07:47:55Z</time>
      </trkpt>
      <trkpt lat="45.81923" lon="6.26398">
        <ele>1232</ele>
        <time>2011-08-01T07:48:00Z</time>
      </trkpt>
      <trkpt lat="45.81925" lon="6.26395">
        <ele>1231</ele>
        <time>2011-08-01T07:48:08Z</time>
      </trkpt>
      <trkpt lat="45.81927" lon="6.26389">
        <ele>1230</ele>
        <time>2011-08-01T07:48:12Z</time>
      </trkpt>
      <trkpt lat="45.81942" lon="6.26382">
        <ele>1229</ele>
        <time>2011-08-01T07:48:17Z</time>
      </trkpt>
      <trkpt lat="45.81958" lon="6.26375">
        <ele>1229</ele>
        <time>2011-08-01T07:48:22Z</time>
      </trkpt>
      <trkpt lat="45.81969" lon="6.26365">
        <ele>1228</ele>
        <time>2011-08-01T07:48:27Z</time>
      </trkpt>
      <trkpt lat="45.81978" lon="6.26354">
        <ele>1226</ele>
        <time>2011-08-01T07:48:31Z</time>
      </trkpt>
      <trkpt lat="45.81983" lon="6.26353">
        <ele>1226</ele>
        <time>2011-08-01T07:48:35Z</time>
      </trkpt>
      <trkpt lat="45.81985" lon="6.26355">
        <ele>1226</ele>
        <time>2011-08-01T07:48:39Z</time>
      </trkpt>
      <trkpt lat="45.81987" lon="6.26356">
        <ele>1226</ele>
        <time>2011-08-01T07:48:40Z</time>
      </trkpt>
      <trkpt lat="45.81996" lon="6.26366">
        <ele>1228</ele>
        <time>2011-08-01T07:48:46Z</time>
      </trkpt>
      <trkpt lat="45.82008" lon="6.26355">
        <ele>1228</ele>
        <time>2011-08-01T07:48:53Z</time>
      </trkpt>
      <trkpt lat="45.82013" lon="6.26353">
        <ele>1228</ele>
        <time>2011-08-01T07:48:57Z</time>
      </trkpt>
      <trkpt lat="45.82031" lon="6.26344">
        <ele>1228</ele>
        <time>2011-08-01T07:49:04Z</time>
      </trkpt>
      <trkpt lat="45.82042" lon="6.26329">
        <ele>1213</ele>
        <time>2011-08-01T07:49:09Z</time>
      </trkpt>
      <trkpt lat="45.82048" lon="6.26323">
        <ele>1213</ele>
        <time>2011-08-01T07:49:11Z</time>
      </trkpt>
      <trkpt lat="45.8207" lon="6.26328">
        <ele>1216</ele>
        <time>2011-08-01T07:49:16Z</time>
      </trkpt>
      <trkpt lat="45.821" lon="6.26334">
        <ele>1226</ele>
        <time>2011-08-01T07:49:22Z</time>
      </trkpt>
      <trkpt lat="45.82114" lon="6.26332">
        <ele>1215</ele>
        <time>2011-08-01T07:49:26Z</time>
      </trkpt>
      <trkpt lat="45.82136" lon="6.26331">
        <ele>1214</ele>
        <time>2011-08-01T07:49:34Z</time>
      </trkpt>
      <trkpt lat="45.82158" lon="6.26331">
        <ele>1218</ele>
        <time>2011-08-01T07:49:41Z</time>
      </trkpt>
      <trkpt lat="45.82178" lon="6.26328">
        <ele>1217</ele>
        <time>2011-08-01T07:49:47Z</time>
      </trkpt>
      <trkpt lat="45.82197" lon="6.26328">
        <ele>1214</ele>
        <time>2011-08-01T07:49:52Z</time>
      </trkpt>
      <trkpt lat="45.82213" lon="6.26326">
        <ele>1213</ele>
        <time>2011-08-01T07:49:57Z</time>
      </trkpt>
      <trkpt lat="45.82228" lon="6.26326">
        <ele>1213</ele>
        <time>2011-08-01T07:50:02Z</time>
      </trkpt>
      <trkpt lat="45.82243" lon="6.26315">
        <ele>1213</ele>
        <time>2011-08-01T07:50:07Z</time>
      </trkpt>
      <trkpt lat="45.82246" lon="6.26312">
        <ele>1213</ele>
        <time>2011-08-01T07:50:11Z</time>
      </trkpt>
      <trkpt lat="45.8225" lon="6.2631">
        <ele>1215</ele>
        <time>2011-08-01T07:50:17Z</time>
      </trkpt>
      <trkpt lat="45.82254" lon="6.26306">
        <ele>1215</ele>
        <time>2011-08-01T07:50:21Z</time>
      </trkpt>
      <trkpt lat="45.82257" lon="6.26308">
        <ele>1215</ele>
        <time>2011-08-01T07:50:24Z</time>
      </trkpt>
      <trkpt lat="45.8227" lon="6.26316">
        <ele>1215</ele>
        <time>2011-08-01T07:50:30Z</time>
      </trkpt>
      <trkpt lat="45.82282" lon="6.26331">
        <ele>1216</ele>
        <time>2011-08-01T07:50:36Z</time>
      </trkpt>
      <trkpt lat="45.82301" lon="6.26343">
        <ele>1223</ele>
        <time>2011-08-01T07:50:43Z</time>
      </trkpt>
      <trkpt lat="45.82323" lon="6.26351">
        <ele>1223</ele>
        <time>2011-08-01T07:50:51Z</time>
      </trkpt>
      <trkpt lat="45.82343" lon="6.26355">
        <ele>1227</ele>
        <time>2011-08-01T07:50:59Z</time>
      </trkpt>
      <trkpt lat="45.82365" lon="6.2635">
        <ele>1229</ele>
        <time>2011-08-01T07:51:08Z</time>
      </trkpt>
      <trkpt lat="45.82374" lon="6.26341">
        <ele>1230</ele>
        <time>2011-08-01T07:51:14Z</time>
      </trkpt>
      <trkpt lat="45.82381" lon="6.26333">
        <ele>1229</ele>
        <time>2011-08-01T07:51:19Z</time>
      </trkpt>
      <trkpt lat="45.8239" lon="6.26306">
        <ele>1230</ele>
        <time>2011-08-01T07:51:29Z</time>
      </trkpt>
      <trkpt lat="45.82395" lon="6.26283">
        <ele>1231</ele>
        <time>2011-08-01T07:51:37Z</time>
      </trkpt>
      <trkpt lat="45.82396" lon="6.26253">
        <ele>1235</ele>
        <time>2011-08-01T07:51:47Z</time>
      </trkpt>
      <trkpt lat="45.82398" lon="6.26226">
        <ele>1238</ele>
        <time>2011-08-01T07:51:56Z</time>
      </trkpt>
      <trkpt lat="45.82398" lon="6.26206">
        <ele>1239</ele>
        <time>2011-08-01T07:52:03Z</time>
      </trkpt>
      <trkpt lat="45.82397" lon="6.26187">
        <ele>1240</ele>
        <time>2011-08-01T07:52:10Z</time>
      </trkpt>
      <trkpt lat="45.82396" lon="6.26167">
        <ele>1242</ele>
        <time>2011-08-01T07:52:17Z</time>
      </trkpt>
      <trkpt lat="45.82394" lon="6.26145">
        <ele>1252</ele>
        <time>2011-08-01T07:52:25Z</time>
      </trkpt>
      <trkpt lat="45.82393" lon="6.26122">
        <ele>1255</ele>
        <time>2011-08-01T07:52:33Z</time>
      </trkpt>
      <trkpt lat="45.82386" lon="6.26112">
        <ele>1256</ele>
        <time>2011-08-01T07:52:38Z</time>
      </trkpt>
      <trkpt lat="45.82379" lon="6.261">
        <ele>1256</ele>
        <time>2011-08-01T07:52:44Z</time>
      </trkpt>
      <trkpt lat="45.82372" lon="6.26086">
        <ele>1256</ele>
        <time>2011-08-01T07:52:51Z</time>
      </trkpt>
      <trkpt lat="45.82374" lon="6.26079">
        <ele>1273</ele>
        <time>2011-08-01T07:52:56Z</time>
      </trkpt>
      <trkpt lat="45.82381" lon="6.26084">
        <ele>1258</ele>
        <time>2011-08-01T07:53:01Z</time>
      </trkpt>
      <trkpt lat="45.82389" lon="6.26099">
        <ele>1259</ele>
        <time>2011-08-01T07:53:09Z</time>
      </trkpt>
      <trkpt lat="45.82402" lon="6.26105">
        <ele>1262</ele>
        <time>2011-08-01T07:53:17Z</time>
      </trkpt>
      <trkpt lat="45.82408" lon="6.2611">
        <ele>1261</ele>
        <time>2011-08-01T07:53:21Z</time>
      </trkpt>
      <trkpt lat="45.82416" lon="6.26118">
        <ele>1259</ele>
        <time>2011-08-01T07:53:27Z</time>
      </trkpt>
      <trkpt lat="45.82423" lon="6.2612">
        <ele>1275</ele>
        <time>2011-08-01T07:53:32Z</time>
      </trkpt>
      <trkpt lat="45.82432" lon="6.26124">
        <ele>1275</ele>
        <time>2011-08-01T07:53:37Z</time>
      </trkpt>
      <trkpt lat="45.82441" lon="6.26128">
        <ele>1275</ele>
        <time>2011-08-01T07:53:43Z</time>
      </trkpt>
      <trkpt lat="45.82443" lon="6.26129">
        <ele>1275</ele>
        <time>2011-08-01T07:53:45Z</time>
      </trkpt>
      <trkpt lat="45.82453" lon="6.26131">
        <ele>1276</ele>
        <time>2011-08-01T07:53:53Z</time>
      </trkpt>
      <trkpt lat="45.82462" lon="6.26141">
        <ele>1276</ele>
        <time>2011-08-01T07:54:00Z</time>
      </trkpt>
      <trkpt lat="45.82468" lon="6.26152">
        <ele>1276</ele>
        <time>2011-08-01T07:54:05Z</time>
      </trkpt>
      <trkpt lat="45.82478" lon="6.26166">
        <ele>1276</ele>
        <time>2011-08-01T07:54:13Z</time>
      </trkpt>
      <trkpt lat="45.82485" lon="6.26171">
        <ele>1269</ele>
        <time>2011-08-01T07:54:18Z</time>
      </trkpt>
      <trkpt lat="45.82487" lon="6.26172">
        <ele>1270</ele>
        <time>2011-08-01T07:54:20Z</time>
      </trkpt>
      <trkpt lat="45.82493" lon="6.26174">
        <ele>1272</ele>
        <time>2011-08-01T07:54:24Z</time>
      </trkpt>
      <trkpt lat="45.82501" lon="6.26175">
        <ele>1281</ele>
        <time>2011-08-01T07:54:31Z</time>
      </trkpt>
      <trkpt lat="45.82507" lon="6.26185">
        <ele>1283</ele>
        <time>2011-08-01T07:54:36Z</time>
      </trkpt>
      <trkpt lat="45.82508" lon="6.26208">
        <ele>1283</ele>
        <time>2011-08-01T07:54:44Z</time>
      </trkpt>
      <trkpt lat="45.82512" lon="6.26222">
        <ele>1282</ele>
        <time>2011-08-01T07:54:50Z</time>
      </trkpt>
      <trkpt lat="45.82518" lon="6.26234">
        <ele>1280</ele>
        <time>2011-08-01T07:54:56Z</time>
      </trkpt>
      <trkpt lat="45.82525" lon="6.2624">
        <ele>1282</ele>
        <time>2011-08-01T07:55:01Z</time>
      </trkpt>
      <trkpt lat="45.82536" lon="6.2625">
        <ele>1285</ele>
        <time>2011-08-01T07:55:08Z</time>
      </trkpt>
      <trkpt lat="45.82542" lon="6.26262">
        <ele>1282</ele>
        <time>2011-08-01T07:55:15Z</time>
      </trkpt>
      <trkpt lat="45.82551" lon="6.26275">
        <ele>1284</ele>
        <time>2011-08-01T07:55:24Z</time>
      </trkpt>
      <trkpt lat="45.82561" lon="6.26285">
        <ele>1285</ele>
        <time>2011-08-01T07:55:32Z</time>
      </trkpt>
      <trkpt lat="45.82568" lon="6.263">
        <ele>1286</ele>
        <time>2011-08-01T07:55:39Z</time>
      </trkpt>
      <trkpt lat="45.82573" lon="6.26317">
        <ele>1288</ele>
        <time>2011-08-01T07:55:47Z</time>
      </trkpt>
      <trkpt lat="45.82573" lon="6.26328">
        <ele>1290</ele>
        <time>2011-08-01T07:55:52Z</time>
      </trkpt>
      <trkpt lat="45.82578" lon="6.26344">
        <ele>1289</ele>
        <time>2011-08-01T07:55:59Z</time>
      </trkpt>
      <trkpt lat="45.82584" lon="6.26359">
        <ele>1305</ele>
        <time>2011-08-01T07:56:05Z</time>
      </trkpt>
      <trkpt lat="45.82591" lon="6.26382">
        <ele>1306</ele>
        <time>2011-08-01T07:56:15Z</time>
      </trkpt>
      <trkpt lat="45.8259" lon="6.26397">
        <ele>1303</ele>
        <time>2011-08-01T07:56:21Z</time>
      </trkpt>
      <trkpt lat="45.82592" lon="6.26415">
        <ele>1299</ele>
        <time>2011-08-01T07:56:29Z</time>
      </trkpt>
      <trkpt lat="45.82595" lon="6.26432">
        <ele>1303</ele>
        <time>2011-08-01T07:56:36Z</time>
      </trkpt>
      <trkpt lat="45.82597" lon="6.26448">
        <ele>1306</ele>
        <time>2011-08-01T07:56:43Z</time>
      </trkpt>
      <trkpt lat="45.82599" lon="6.2646">
        <ele>1307</ele>
        <time>2011-08-01T07:56:48Z</time>
      </trkpt>
      <trkpt lat="45.826" lon="6.26468">
        <ele>1307</ele>
        <time>2011-08-01T07:56:52Z</time>
      </trkpt>
      <trkpt lat="45.82606" lon="6.26487">
        <ele>1307</ele>
        <time>2011-08-01T07:57:00Z</time>
      </trkpt>
      <trkpt lat="45.8261" lon="6.26506">
        <ele>1310</ele>
        <time>2011-08-01T07:57:08Z</time>
      </trkpt>
      <trkpt lat="45.82618" lon="6.26524">
        <ele>1313</ele>
        <time>2011-08-01T07:57:16Z</time>
      </trkpt>
      <trkpt lat="45.82619" lon="6.26538">
        <ele>1314</ele>
        <time>2011-08-01T07:57:24Z</time>
      </trkpt>
      <trkpt lat="45.82618" lon="6.26549">
        <ele>1315</ele>
        <time>2011-08-01T07:57:31Z</time>
      </trkpt>
      <trkpt lat="45.82617" lon="6.2656">
        <ele>1314</ele>
        <time>2011-08-01T07:57:37Z</time>
      </trkpt>
      <trkpt lat="45.82615" lon="6.26574">
        <ele>1314</ele>
        <time>2011-08-01T07:57:44Z</time>
      </trkpt>
      <trkpt lat="45.82618" lon="6.26588">
        <ele>1317</ele>
        <time>2011-08-01T07:57:50Z</time>
      </trkpt>
      <trkpt lat="45.82619" lon="6.26604">
        <ele>1318</ele>
        <time>2011-08-01T07:57:57Z</time>
      </trkpt>
      <trkpt lat="45.82621" lon="6.26632">
        <ele>1319</ele>
        <time>2011-08-01T07:58:09Z</time>
      </trkpt>
      <trkpt lat="45.82623" lon="6.26646">
        <ele>1319</ele>
        <time>2011-08-01T07:58:15Z</time>
      </trkpt>
      <trkpt lat="45.82627" lon="6.26671">
        <ele>1321</ele>
        <time>2011-08-01T07:58:25Z</time>
      </trkpt>
      <trkpt lat="45.8263" lon="6.26691">
        <ele>1322</ele>
        <time>2011-08-01T07:58:33Z</time>
      </trkpt>
      <trkpt lat="45.82631" lon="6.26711">
        <ele>1322</ele>
        <time>2011-08-01T07:58:41Z</time>
      </trkpt>
      <trkpt lat="45.82632" lon="6.2673">
        <ele>1323</ele>
        <time>2011-08-01T07:58:49Z</time>
      </trkpt>
      <trkpt lat="45.82633" lon="6.26745">
        <ele>1323</ele>
        <time>2011-08-01T07:58:56Z</time>
      </trkpt>
      <trkpt lat="45.82634" lon="6.26762">
        <ele>1329</ele>
        <time>2011-08-01T07:59:04Z</time>
      </trkpt>
      <trkpt lat="45.82636" lon="6.26765">
        <ele>1329</ele>
        <time>2011-08-01T07:59:06Z</time>
      </trkpt>
      <trkpt lat="45.82645" lon="6.26761">
        <ele>1330</ele>
        <time>2011-08-01T07:59:13Z</time>
      </trkpt>
      <trkpt lat="45.82646" lon="6.2676">
        <ele>1330</ele>
        <time>2011-08-01T07:59:14Z</time>
      </trkpt>
      <trkpt lat="45.82656" lon="6.26749">
        <ele>1328</ele>
        <time>2011-08-01T07:59:22Z</time>
      </trkpt>
      <trkpt lat="45.82668" lon="6.26735">
        <ele>1339</ele>
        <time>2011-08-01T07:59:32Z</time>
      </trkpt>
      <trkpt lat="45.82676" lon="6.26719">
        <ele>1343</ele>
        <time>2011-08-01T07:59:40Z</time>
      </trkpt>
      <trkpt lat="45.82678" lon="6.26714">
        <ele>1344</ele>
        <time>2011-08-01T07:59:42Z</time>
      </trkpt>
      <trkpt lat="45.82683" lon="6.26703">
        <ele>1345</ele>
        <time>2011-08-01T07:59:48Z</time>
      </trkpt>
      <trkpt lat="45.82689" lon="6.26688">
        <ele>1345</ele>
        <time>2011-08-01T07:59:55Z</time>
      </trkpt>
      <trkpt lat="45.8269" lon="6.26684">
        <ele>1345</ele>
        <time>2011-08-01T07:59:57Z</time>
      </trkpt>
      <trkpt lat="45.82697" lon="6.26668">
        <ele>1346</ele>
        <time>2011-08-01T08:00:04Z</time>
      </trkpt>
      <trkpt lat="45.82702" lon="6.26652">
        <ele>1346</ele>
        <time>2011-08-01T08:00:11Z</time>
      </trkpt>
      <trkpt lat="45.8271" lon="6.26635">
        <ele>1347</ele>
        <time>2011-08-01T08:00:19Z</time>
      </trkpt>
      <trkpt lat="45.82714" lon="6.26622">
        <ele>1348</ele>
        <time>2011-08-01T08:00:25Z</time>
      </trkpt>
      <trkpt lat="45.82716" lon="6.26609">
        <ele>1348</ele>
        <time>2011-08-01T08:00:30Z</time>
      </trkpt>
      <trkpt lat="45.82719" lon="6.26586">
        <ele>1349</ele>
        <time>2011-08-01T08:00:39Z</time>
      </trkpt>
      <trkpt lat="45.82722" lon="6.26578">
        <ele>1348</ele>
        <time>2011-08-01T08:00:43Z</time>
      </trkpt>
      <trkpt lat="45.82729" lon="6.26584">
        <ele>1351</ele>
        <time>2011-08-01T08:00:50Z</time>
      </trkpt>
      <trkpt lat="45.8273" lon="6.26586">
        <ele>1351</ele>
        <time>2011-08-01T08:00:51Z</time>
      </trkpt>
      <trkpt lat="45.82731" lon="6.26603">
        <ele>1351</ele>
        <time>2011-08-01T08:00:58Z</time>
      </trkpt>
      <trkpt lat="45.82732" lon="6.26621">
        <ele>1350</ele>
        <time>2011-08-01T08:01:05Z</time>
      </trkpt>
      <trkpt lat="45.82735" lon="6.26639">
        <ele>1352</ele>
        <time>2011-08-01T08:01:12Z</time>
      </trkpt>
      <trkpt lat="45.8274" lon="6.26662">
        <ele>1356</ele>
        <time>2011-08-01T08:01:21Z</time>
      </trkpt>
      <trkpt lat="45.82745" lon="6.2668">
        <ele>1357</ele>
        <time>2011-08-01T08:01:29Z</time>
      </trkpt>
      <trkpt lat="45.82749" lon="6.26693">
        <ele>1355</ele>
        <time>2011-08-01T08:01:35Z</time>
      </trkpt>
      <trkpt lat="45.82754" lon="6.2671">
        <ele>1374</ele>
        <time>2011-08-01T08:01:42Z</time>
      </trkpt>
      <trkpt lat="45.82758" lon="6.26726">
        <ele>1374</ele>
        <time>2011-08-01T08:01:49Z</time>
      </trkpt>
      <trkpt lat="45.82759" lon="6.26741">
        <ele>1371</ele>
        <time>2011-08-01T08:01:55Z</time>
      </trkpt>
      <trkpt lat="45.8276" lon="6.26763">
        <ele>1376</ele>
        <time>2011-08-01T08:02:04Z</time>
      </trkpt>
      <trkpt lat="45.82761" lon="6.26783">
        <ele>1380</ele>
        <time>2011-08-01T08:02:12Z</time>
      </trkpt>
      <trkpt lat="45.82761" lon="6.26796">
        <ele>1382</ele>
        <time>2011-08-01T08:02:18Z</time>
      </trkpt>
      <trkpt lat="45.82761" lon="6.26812">
        <ele>1382</ele>
        <time>2011-08-01T08:02:25Z</time>
      </trkpt>
      <trkpt lat="45.8276" lon="6.26823">
        <ele>1381</ele>
        <time>2011-08-01T08:02:30Z</time>
      </trkpt>
      <trkpt lat="45.82762" lon="6.26841">
        <ele>1383</ele>
        <time>2011-08-01T08:02:38Z</time>
      </trkpt>
      <trkpt lat="45.82761" lon="6.26853">
        <ele>1385</ele>
        <time>2011-08-01T08:02:44Z</time>
      </trkpt>
      <trkpt lat="45.82759" lon="6.26867">
        <ele>1387</ele>
        <time>2011-08-01T08:02:51Z</time>
      </trkpt>
      <trkpt lat="45.82756" lon="6.26882">
        <ele>1387</ele>
        <time>2011-08-01T08:02:58Z</time>
      </trkpt>
      <trkpt lat="45.82749" lon="6.26896">
        <ele>1373</ele>
        <time>2011-08-01T08:03:06Z</time>
      </trkpt>
      <trkpt lat="45.82745" lon="6.26911">
        <ele>1376</ele>
        <time>2011-08-01T08:03:13Z</time>
      </trkpt>
      <trkpt lat="45.82745" lon="6.26913">
        <ele>1377</ele>
        <time>2011-08-01T08:03:14Z</time>
      </trkpt>
      <trkpt lat="45.82753" lon="6.26918">
        <ele>1383</ele>
        <time>2011-08-01T08:03:20Z</time>
      </trkpt>
      <trkpt lat="45.82754" lon="6.26917">
        <ele>1384</ele>
        <time>2011-08-01T08:03:21Z</time>
      </trkpt>
      <trkpt lat="45.82766" lon="6.26902">
        <ele>1387</ele>
        <time>2011-08-01T08:03:30Z</time>
      </trkpt>
      <trkpt lat="45.82776" lon="6.26894">
        <ele>1390</ele>
        <time>2011-08-01T08:03:36Z</time>
      </trkpt>
      <trkpt lat="45.82786" lon="6.26883">
        <ele>1391</ele>
        <time>2011-08-01T08:03:43Z</time>
      </trkpt>
      <trkpt lat="45.82793" lon="6.26868">
        <ele>1392</ele>
        <time>2011-08-01T08:03:50Z</time>
      </trkpt>
      <trkpt lat="45.828" lon="6.26853">
        <ele>1393</ele>
        <time>2011-08-01T08:03:58Z</time>
      </trkpt>
      <trkpt lat="45.82807" lon="6.2684">
        <ele>1394</ele>
        <time>2011-08-01T08:04:05Z</time>
      </trkpt>
      <trkpt lat="45.82816" lon="6.26829">
        <ele>1394</ele>
        <time>2011-08-01T08:04:12Z</time>
      </trkpt>
      <trkpt lat="45.82825" lon="6.26815">
        <ele>1394</ele>
        <time>2011-08-01T08:04:20Z</time>
      </trkpt>
      <trkpt lat="45.82831" lon="6.26803">
        <ele>1392</ele>
        <time>2011-08-01T08:04:26Z</time>
      </trkpt>
      <trkpt lat="45.82837" lon="6.26786">
        <ele>1411</ele>
        <time>2011-08-01T08:04:34Z</time>
      </trkpt>
      <trkpt lat="45.82845" lon="6.26768">
        <ele>1409</ele>
        <time>2011-08-01T08:04:43Z</time>
      </trkpt>
      <trkpt lat="45.82854" lon="6.26752">
        <ele>1410</ele>
        <time>2011-08-01T08:04:51Z</time>
      </trkpt>
      <trkpt lat="45.82862" lon="6.26737">
        <ele>1409</ele>
        <time>2011-08-01T08:04:59Z</time>
      </trkpt>
      <trkpt lat="45.82867" lon="6.26725">
        <ele>1410</ele>
        <time>2011-08-01T08:05:05Z</time>
      </trkpt>
      <trkpt lat="45.82872" lon="6.26712">
        <ele>1411</ele>
        <time>2011-08-01T08:05:12Z</time>
      </trkpt>
      <trkpt lat="45.82874" lon="6.26708">
        <ele>1411</ele>
        <time>2011-08-01T08:05:14Z</time>
      </trkpt>
      <trkpt lat="45.82879" lon="6.26694">
        <ele>1412</ele>
        <time>2011-08-01T08:05:21Z</time>
      </trkpt>
      <trkpt lat="45.82885" lon="6.2668">
        <ele>1413</ele>
        <time>2011-08-01T08:05:28Z</time>
      </trkpt>
      <trkpt lat="45.82891" lon="6.26666">
        <ele>1413</ele>
        <time>2011-08-01T08:05:35Z</time>
      </trkpt>
      <trkpt lat="45.82898" lon="6.26647">
        <ele>1413</ele>
        <time>2011-08-01T08:05:44Z</time>
      </trkpt>
      <trkpt lat="45.82902" lon="6.26628">
        <ele>1412</ele>
        <time>2011-08-01T08:05:52Z</time>
      </trkpt>
      <trkpt lat="45.82907" lon="6.26608">
        <ele>1413</ele>
        <time>2011-08-01T08:06:01Z</time>
      </trkpt>
      <trkpt lat="45.82915" lon="6.2659">
        <ele>1418</ele>
        <time>2011-08-01T08:06:10Z</time>
      </trkpt>
      <trkpt lat="45.82921" lon="6.26574">
        <ele>1425</ele>
        <time>2011-08-01T08:06:17Z</time>
      </trkpt>
      <trkpt lat="45.82926" lon="6.26555">
        <ele>1429</ele>
        <time>2011-08-01T08:06:26Z</time>
      </trkpt>
      <trkpt lat="45.82928" lon="6.26544">
        <ele>1429</ele>
        <time>2011-08-01T08:06:31Z</time>
      </trkpt>
      <trkpt lat="45.8293" lon="6.26526">
        <ele>1428</ele>
        <time>2011-08-01T08:06:39Z</time>
      </trkpt>
      <trkpt lat="45.82933" lon="6.26508">
        <ele>1426</ele>
        <time>2011-08-01T08:06:47Z</time>
      </trkpt>
      <trkpt lat="45.82938" lon="6.26491">
        <ele>1421</ele>
        <time>2011-08-01T08:06:55Z</time>
      </trkpt>
      <trkpt lat="45.82943" lon="6.26477">
        <ele>1421</ele>
        <time>2011-08-01T08:07:02Z</time>
      </trkpt>
      <trkpt lat="45.82951" lon="6.26462">
        <ele>1421</ele>
        <time>2011-08-01T08:07:09Z</time>
      </trkpt>
      <trkpt lat="45.82965" lon="6.26454">
        <ele>1422</ele>
        <time>2011-08-01T08:07:17Z</time>
      </trkpt>
      <trkpt lat="45.82986" lon="6.26453">
        <ele>1422</ele>
        <time>2011-08-01T08:07:23Z</time>
      </trkpt>
      <trkpt lat="45.83009" lon="6.26459">
        <ele>1430</ele>
        <time>2011-08-01T08:07:27Z</time>
      </trkpt>
      <trkpt lat="45.83035" lon="6.26455">
        <ele>1430</ele>
        <time>2011-08-01T08:07:31Z</time>
      </trkpt>
      <trkpt lat="45.83057" lon="6.26442">
        <ele>1429</ele>
        <time>2011-08-01T08:07:36Z</time>
      </trkpt>
      <trkpt lat="45.83072" lon="6.26424">
        <ele>1427</ele>
        <time>2011-08-01T08:07:40Z</time>
      </trkpt>
      <trkpt lat="45.831" lon="6.26396">
        <ele>1423</ele>
        <time>2011-08-01T08:07:47Z</time>
      </trkpt>
      <trkpt lat="45.83116" lon="6.26383">
        <ele>1423</ele>
        <time>2011-08-01T08:07:51Z</time>
      </trkpt>
      <trkpt lat="45.83138" lon="6.26389">
        <ele>1425</ele>
        <time>2011-08-01T08:07:55Z</time>
      </trkpt>
      <trkpt lat="45.8316" lon="6.26399">
        <ele>1429</ele>
        <time>2011-08-01T08:07:59Z</time>
      </trkpt>
      <trkpt lat="45.83166" lon="6.26391">
        <ele>1428</ele>
        <time>2011-08-01T08:08:01Z</time>
      </trkpt>
      <trkpt lat="45.83174" lon="6.26378">
        <ele>1430</ele>
        <time>2011-08-01T08:08:05Z</time>
      </trkpt>
      <trkpt lat="45.83191" lon="6.26356">
        <ele>1428</ele>
        <time>2011-08-01T08:08:12Z</time>
      </trkpt>
      <trkpt lat="45.83202" lon="6.26337">
        <ele>1427</ele>
        <time>2011-08-01T08:08:18Z</time>
      </trkpt>
      <trkpt lat="45.83213" lon="6.26318">
        <ele>1420</ele>
        <time>2011-08-01T08:08:23Z</time>
      </trkpt>
      <trkpt lat="45.83227" lon="6.26298">
        <ele>1418</ele>
        <time>2011-08-01T08:08:28Z</time>
      </trkpt>
      <trkpt lat="45.83229" lon="6.26294">
        <ele>1418</ele>
        <time>2011-08-01T08:08:29Z</time>
      </trkpt>
      <trkpt lat="45.83228" lon="6.2627">
        <ele>1416</ele>
        <time>2011-08-01T08:08:35Z</time>
      </trkpt>
      <trkpt lat="45.83226" lon="6.26258">
        <ele>1416</ele>
        <time>2011-08-01T08:08:40Z</time>
      </trkpt>
      <trkpt lat="45.83226" lon="6.26254">
        <ele>1415</ele>
        <time>2011-08-01T08:08:42Z</time>
      </trkpt>
      <trkpt lat="45.83225" lon="6.26252">
        <ele>1415</ele>
        <time>2011-08-01T08:08:49Z</time>
      </trkpt>
      <trkpt lat="45.83222" lon="6.26248">
        <ele>1412</ele>
        <time>2011-08-01T08:08:55Z</time>
      </trkpt>
      <trkpt lat="45.83219" lon="6.26241">
        <ele>1412</ele>
        <time>2011-08-01T08:08:59Z</time>
      </trkpt>
      <trkpt lat="45.83216" lon="6.26241">
        <ele>1412</ele>
        <time>2011-08-01T08:09:03Z</time>
      </trkpt>
      <trkpt lat="45.83216" lon="6.26248">
        <ele>1412</ele>
        <time>2011-08-01T08:09:09Z</time>
      </trkpt>
      <trkpt lat="45.8322" lon="6.26245">
        <ele>1412</ele>
        <time>2011-08-01T08:09:16Z</time>
      </trkpt>
      <trkpt lat="45.83224" lon="6.26244">
        <ele>1412</ele>
        <time>2011-08-01T08:09:22Z</time>
      </trkpt>
      <trkpt lat="45.83224" lon="6.26242">
        <ele>1412</ele>
        <time>2011-08-01T08:09:28Z</time>
      </trkpt>
      <trkpt lat="45.83218" lon="6.26247">
        <ele>1412</ele>
        <time>2011-08-01T08:09:35Z</time>
      </trkpt>
      <trkpt lat="45.83216" lon="6.26248">
        <ele>1412</ele>
        <time>2011-08-01T08:09:43Z</time>
      </trkpt>
      <trkpt lat="45.83216" lon="6.26247">
        <ele>1412</ele>
        <time>2011-08-01T08:09:48Z</time>
      </trkpt>
      <trkpt lat="45.83216" lon="6.26246">
        <ele>1412</ele>
        <time>2011-08-01T08:10:14Z</time>
      </trkpt>
      <trkpt lat="45.83216" lon="6.26245">
        <ele>1412</ele>
        <time>2011-08-01T08:10:20Z</time>
      </trkpt>
      <trkpt lat="45.83216" lon="6.26245">
        <ele>1412</ele>
        <time>2011-08-01T08:10:21Z</time>
      </trkpt>
      <trkpt lat="45.83215" lon="6.26243">
        <ele>1412</ele>
        <time>2011-08-01T08:15:18Z</time>
      </trkpt>
      <trkpt lat="45.83215" lon="6.26243">
        <ele>1412</ele>
        <time>2011-08-01T08:15:18Z</time>
      </trkpt>
      <trkpt lat="45.83215" lon="6.26243">
        <ele>1412</ele>
        <time>2011-08-01T08:15:21Z</time>
      </trkpt>
      <trkpt lat="45.83212" lon="6.2623">
        <ele>1412</ele>
        <time>2011-08-01T08:15:26Z</time>
      </trkpt>
      <trkpt lat="45.832" lon="6.26202">
        <ele>1412</ele>
        <time>2011-08-01T08:15:33Z</time>
      </trkpt>
      <trkpt lat="45.83189" lon="6.26176">
        <ele>1411</ele>
        <time>2011-08-01T08:15:39Z</time>
      </trkpt>
      <trkpt lat="45.83187" lon="6.26156">
        <ele>1407</ele>
        <time>2011-08-01T08:15:44Z</time>
      </trkpt>
      <trkpt lat="45.8319" lon="6.26139">
        <ele>1405</ele>
        <time>2011-08-01T08:15:49Z</time>
      </trkpt>
      <trkpt lat="45.83195" lon="6.26119">
        <ele>1404</ele>
        <time>2011-08-01T08:15:54Z</time>
      </trkpt>
      <trkpt lat="45.83199" lon="6.261">
        <ele>1403</ele>
        <time>2011-08-01T08:15:59Z</time>
      </trkpt>
      <trkpt lat="45.83205" lon="6.26077">
        <ele>1394</ele>
        <time>2011-08-01T08:16:04Z</time>
      </trkpt>
      <trkpt lat="45.8321" lon="6.26061">
        <ele>1393</ele>
        <time>2011-08-01T08:16:08Z</time>
      </trkpt>
      <trkpt lat="45.83211" lon="6.26044">
        <ele>1391</ele>
        <time>2011-08-01T08:16:12Z</time>
      </trkpt>
      <trkpt lat="45.83207" lon="6.26017">
        <ele>1389</ele>
        <time>2011-08-01T08:16:18Z</time>
      </trkpt>
      <trkpt lat="45.83205" lon="6.26003">
        <ele>1388</ele>
        <time>2011-08-01T08:16:23Z</time>
      </trkpt>
      <trkpt lat="45.83209" lon="6.25996">
        <ele>1374</ele>
        <time>2011-08-01T08:16:28Z</time>
      </trkpt>
      <trkpt lat="45.83212" lon="6.25998">
        <ele>1374</ele>
        <time>2011-08-01T08:16:34Z</time>
      </trkpt>
      <trkpt lat="45.83209" lon="6.25993">
        <ele>1374</ele>
        <time>2011-08-01T08:16:42Z</time>
      </trkpt>
      <trkpt lat="45.83207" lon="6.2599">
        <ele>1374</ele>
        <time>2011-08-01T08:16:44Z</time>
      </trkpt>
      <trkpt lat="45.832" lon="6.25981">
        <ele>1373</ele>
        <time>2011-08-01T08:16:52Z</time>
      </trkpt>
      <trkpt lat="45.83199" lon="6.25981">
        <ele>1373</ele>
        <time>2011-08-01T08:16:53Z</time>
      </trkpt>
      <trkpt lat="45.83194" lon="6.2598">
        <ele>1374</ele>
        <time>2011-08-01T08:16:59Z</time>
      </trkpt>
      <trkpt lat="45.83192" lon="6.2597">
        <ele>1372</ele>
        <time>2011-08-01T08:17:03Z</time>
      </trkpt>
      <trkpt lat="45.83205" lon="6.25959">
        <ele>1370</ele>
        <time>2011-08-01T08:17:07Z</time>
      </trkpt>
      <trkpt lat="45.83216" lon="6.25961">
        <ele>1370</ele>
        <time>2011-08-01T08:17:11Z</time>
      </trkpt>
      <trkpt lat="45.83222" lon="6.25965">
        <ele>1370</ele>
        <time>2011-08-01T08:17:19Z</time>
      </trkpt>
      <trkpt lat="45.83223" lon="6.25967">
        <ele>1371</ele>
        <time>2011-08-01T08:17:20Z</time>
      </trkpt>
      <trkpt lat="45.83235" lon="6.25982">
        <ele>1374</ele>
        <time>2011-08-01T08:17:25Z</time>
      </trkpt>
      <trkpt lat="45.83245" lon="6.26005">
        <ele>1384</ele>
        <time>2011-08-01T08:17:30Z</time>
      </trkpt>
      <trkpt lat="45.83255" lon="6.26016">
        <ele>1375</ele>
        <time>2011-08-01T08:17:35Z</time>
      </trkpt>
      <trkpt lat="45.83268" lon="6.26029">
        <ele>1372</ele>
        <time>2011-08-01T08:17:40Z</time>
      </trkpt>
      <trkpt lat="45.83279" lon="6.26043">
        <ele>1371</ele>
        <time>2011-08-01T08:17:44Z</time>
      </trkpt>
      <trkpt lat="45.8329" lon="6.26069">
        <ele>1370</ele>
        <time>2011-08-01T08:17:49Z</time>
      </trkpt>
      <trkpt lat="45.83292" lon="6.26075">
        <ele>1370</ele>
        <time>2011-08-01T08:17:52Z</time>
      </trkpt>
      <trkpt lat="45.83299" lon="6.26075">
        <ele>1367</ele>
        <time>2011-08-01T08:18:07Z</time>
      </trkpt>
      <trkpt lat="45.83298" lon="6.26077">
        <ele>1368</ele>
        <time>2011-08-01T08:18:13Z</time>
      </trkpt>
      <trkpt lat="45.83305" lon="6.2606">
        <ele>1365</ele>
        <time>2011-08-01T08:18:18Z</time>
      </trkpt>
      <trkpt lat="45.83307" lon="6.26057">
        <ele>1364</ele>
        <time>2011-08-01T08:18:19Z</time>
      </trkpt>
      <trkpt lat="45.83316" lon="6.26051">
        <ele>1361</ele>
        <time>2011-08-01T08:18:24Z</time>
      </trkpt>
      <trkpt lat="45.83312" lon="6.26036">
        <ele>1360</ele>
        <time>2011-08-01T08:18:29Z</time>
      </trkpt>
      <trkpt lat="45.83311" lon="6.26033">
        <ele>1360</ele>
        <time>2011-08-01T08:18:30Z</time>
      </trkpt>
      <trkpt lat="45.83306" lon="6.26016">
        <ele>1358</ele>
        <time>2011-08-01T08:18:36Z</time>
      </trkpt>
      <trkpt lat="45.83297" lon="6.26">
        <ele>1345</ele>
        <time>2011-08-01T08:18:40Z</time>
      </trkpt>
      <trkpt lat="45.83288" lon="6.25977">
        <ele>1346</ele>
        <time>2011-08-01T08:18:45Z</time>
      </trkpt>
      <trkpt lat="45.83286" lon="6.25961">
        <ele>1344</ele>
        <time>2011-08-01T08:18:50Z</time>
      </trkpt>
      <trkpt lat="45.83289" lon="6.25956">
        <ele>1342</ele>
        <time>2011-08-01T08:19:03Z</time>
      </trkpt>
      <trkpt lat="45.83288" lon="6.25957">
        <ele>1342</ele>
        <time>2011-08-01T08:19:05Z</time>
      </trkpt>
      <trkpt lat="45.833" lon="6.25964">
        <ele>1340</ele>
        <time>2011-08-01T08:19:10Z</time>
      </trkpt>
      <trkpt lat="45.83311" lon="6.25976">
        <ele>1339</ele>
        <time>2011-08-01T08:19:15Z</time>
      </trkpt>
      <trkpt lat="45.83324" lon="6.2599">
        <ele>1336</ele>
        <time>2011-08-01T08:19:21Z</time>
      </trkpt>
      <trkpt lat="45.83327" lon="6.25992">
        <ele>1335</ele>
        <time>2011-08-01T08:19:22Z</time>
      </trkpt>
      <trkpt lat="45.83337" lon="6.26003">
        <ele>1328</ele>
        <time>2011-08-01T08:19:28Z</time>
      </trkpt>
      <trkpt lat="45.8334" lon="6.26013">
        <ele>1324</ele>
        <time>2011-08-01T08:19:32Z</time>
      </trkpt>
      <trkpt lat="45.83345" lon="6.26012">
        <ele>1323</ele>
        <time>2011-08-01T08:19:44Z</time>
      </trkpt>
      <trkpt lat="45.83341" lon="6.25996">
        <ele>1318</ele>
        <time>2011-08-01T08:19:49Z</time>
      </trkpt>
      <trkpt lat="45.83338" lon="6.25989">
        <ele>1313</ele>
        <time>2011-08-01T08:19:52Z</time>
      </trkpt>
      <trkpt lat="45.83331" lon="6.25972">
        <ele>1335</ele>
        <time>2011-08-01T08:19:58Z</time>
      </trkpt>
      <trkpt lat="45.83326" lon="6.25956">
        <ele>1332</ele>
        <time>2011-08-01T08:20:03Z</time>
      </trkpt>
      <trkpt lat="45.8332" lon="6.25935">
        <ele>1325</ele>
        <time>2011-08-01T08:20:08Z</time>
      </trkpt>
      <trkpt lat="45.83314" lon="6.25917">
        <ele>1323</ele>
        <time>2011-08-01T08:20:12Z</time>
      </trkpt>
      <trkpt lat="45.83305" lon="6.25899">
        <ele>1309</ele>
        <time>2011-08-01T08:20:16Z</time>
      </trkpt>
      <trkpt lat="45.83299" lon="6.25883">
        <ele>1308</ele>
        <time>2011-08-01T08:20:20Z</time>
      </trkpt>
      <trkpt lat="45.83293" lon="6.25864">
        <ele>1305</ele>
        <time>2011-08-01T08:20:25Z</time>
      </trkpt>
      <trkpt lat="45.83286" lon="6.2585">
        <ele>1305</ele>
        <time>2011-08-01T08:20:29Z</time>
      </trkpt>
      <trkpt lat="45.83278" lon="6.25832">
        <ele>1283</ele>
        <time>2011-08-01T08:20:33Z</time>
      </trkpt>
      <trkpt lat="45.83274" lon="6.25821">
        <ele>1283</ele>
        <time>2011-08-01T08:20:37Z</time>
      </trkpt>
      <trkpt lat="45.83273" lon="6.25818">
        <ele>1282</ele>
        <time>2011-08-01T08:20:38Z</time>
      </trkpt>
      <trkpt lat="45.83264" lon="6.25806">
        <ele>1281</ele>
        <time>2011-08-01T08:20:44Z</time>
      </trkpt>
      <trkpt lat="45.83259" lon="6.258">
        <ele>1279</ele>
        <time>2011-08-01T08:20:46Z</time>
      </trkpt>
      <trkpt lat="45.83249" lon="6.25782">
        <ele>1292</ele>
        <time>2011-08-01T08:20:52Z</time>
      </trkpt>
      <trkpt lat="45.83239" lon="6.25765">
        <ele>1286</ele>
        <time>2011-08-01T08:20:57Z</time>
      </trkpt>
      <trkpt lat="45.83234" lon="6.25758">
        <ele>1285</ele>
        <time>2011-08-01T08:21:01Z</time>
      </trkpt>
      <trkpt lat="45.83229" lon="6.2575">
        <ele>1286</ele>
        <time>2011-08-01T08:21:09Z</time>
      </trkpt>
      <trkpt lat="45.83225" lon="6.25749">
        <ele>1263</ele>
        <time>2011-08-01T08:21:14Z</time>
      </trkpt>
      <trkpt lat="45.83223" lon="6.25743">
        <ele>1262</ele>
        <time>2011-08-01T08:21:20Z</time>
      </trkpt>
      <trkpt lat="45.83225" lon="6.25745">
        <ele>1263</ele>
        <time>2011-08-01T08:21:46Z</time>
      </trkpt>
      <trkpt lat="45.8323" lon="6.25749">
        <ele>1264</ele>
        <time>2011-08-01T08:21:53Z</time>
      </trkpt>
      <trkpt lat="45.83236" lon="6.25758">
        <ele>1284</ele>
        <time>2011-08-01T08:22:04Z</time>
      </trkpt>
      <trkpt lat="45.83241" lon="6.25761">
        <ele>1283</ele>
        <time>2011-08-01T08:22:08Z</time>
      </trkpt>
      <trkpt lat="45.83245" lon="6.25762">
        <ele>1283</ele>
        <time>2011-08-01T08:22:15Z</time>
      </trkpt>
      <trkpt lat="45.83247" lon="6.25757">
        <ele>1279</ele>
        <time>2011-08-01T08:22:26Z</time>
      </trkpt>
      <trkpt lat="45.8325" lon="6.25764">
        <ele>1272</ele>
        <time>2011-08-01T08:22:32Z</time>
      </trkpt>
      <trkpt lat="45.83251" lon="6.25761">
        <ele>1272</ele>
        <time>2011-08-01T08:22:41Z</time>
      </trkpt>
      <trkpt lat="45.8325" lon="6.25759">
        <ele>1272</ele>
        <time>2011-08-01T08:22:43Z</time>
      </trkpt>
      <trkpt lat="45.83247" lon="6.25752">
        <ele>1276</ele>
        <time>2011-08-01T08:22:47Z</time>
      </trkpt>
      <trkpt lat="45.83239" lon="6.2574">
        <ele>1265</ele>
        <time>2011-08-01T08:22:54Z</time>
      </trkpt>
      <trkpt lat="45.83232" lon="6.25731">
        <ele>1261</ele>
        <time>2011-08-01T08:22:58Z</time>
      </trkpt>
      <trkpt lat="45.83226" lon="6.25725">
        <ele>1259</ele>
        <time>2011-08-01T08:23:04Z</time>
      </trkpt>
      <trkpt lat="45.83223" lon="6.25721">
        <ele>1257</ele>
        <time>2011-08-01T08:23:07Z</time>
      </trkpt>
      <trkpt lat="45.83214" lon="6.25717">
        <ele>1256</ele>
        <time>2011-08-01T08:23:13Z</time>
      </trkpt>
      <trkpt lat="45.83213" lon="6.25715">
        <ele>1256</ele>
        <time>2011-08-01T08:23:17Z</time>
      </trkpt>
      <trkpt lat="45.83211" lon="6.25713">
        <ele>1255</ele>
        <time>2011-08-01T08:23:22Z</time>
      </trkpt>
      <trkpt lat="45.83212" lon="6.25716">
        <ele>1256</ele>
        <time>2011-08-01T08:23:25Z</time>
      </trkpt>
      <trkpt lat="45.83217" lon="6.25713">
        <ele>1255</ele>
        <time>2011-08-01T08:23:31Z</time>
      </trkpt>
      <trkpt lat="45.83228" lon="6.25715">
        <ele>1256</ele>
        <time>2011-08-01T08:23:40Z</time>
      </trkpt>
      <trkpt lat="45.8324" lon="6.2572">
        <ele>1258</ele>
        <time>2011-08-01T08:23:45Z</time>
      </trkpt>
      <trkpt lat="45.83252" lon="6.25727">
        <ele>1247</ele>
        <time>2011-08-01T08:23:51Z</time>
      </trkpt>
      <trkpt lat="45.83258" lon="6.25724">
        <ele>1245</ele>
        <time>2011-08-01T08:24:00Z</time>
      </trkpt>
      <trkpt lat="45.83253" lon="6.25708">
        <ele>1238</ele>
        <time>2011-08-01T08:24:05Z</time>
      </trkpt>
      <trkpt lat="45.83249" lon="6.25696">
        <ele>1248</ele>
        <time>2011-08-01T08:24:09Z</time>
      </trkpt>
      <trkpt lat="45.83244" lon="6.25689">
        <ele>1246</ele>
        <time>2011-08-01T08:24:11Z</time>
      </trkpt>
      <trkpt lat="45.83241" lon="6.25685">
        <ele>1245</ele>
        <time>2011-08-01T08:24:13Z</time>
      </trkpt>
      <trkpt lat="45.8323" lon="6.25678">
        <ele>1244</ele>
        <time>2011-08-01T08:24:19Z</time>
      </trkpt>
      <trkpt lat="45.83224" lon="6.25676">
        <ele>1245</ele>
        <time>2011-08-01T08:24:24Z</time>
      </trkpt>
      <trkpt lat="45.83214" lon="6.25667">
        <ele>1245</ele>
        <time>2011-08-01T08:24:30Z</time>
      </trkpt>
      <trkpt lat="45.83213" lon="6.25665">
        <ele>1217</ele>
        <time>2011-08-01T08:24:38Z</time>
      </trkpt>
      <trkpt lat="45.83214" lon="6.25666">
        <ele>1217</ele>
        <time>2011-08-01T08:24:43Z</time>
      </trkpt>
      <trkpt lat="45.83215" lon="6.25666">
        <ele>1217</ele>
        <time>2011-08-01T08:24:44Z</time>
      </trkpt>
      <trkpt lat="45.83232" lon="6.25659">
        <ele>1220</ele>
        <time>2011-08-01T08:24:50Z</time>
      </trkpt>
      <trkpt lat="45.83244" lon="6.2565">
        <ele>1220</ele>
        <time>2011-08-01T08:24:54Z</time>
      </trkpt>
      <trkpt lat="45.83261" lon="6.25643">
        <ele>1209</ele>
        <time>2011-08-01T08:24:59Z</time>
      </trkpt>
      <trkpt lat="45.83277" lon="6.25636">
        <ele>1203</ele>
        <time>2011-08-01T08:25:05Z</time>
      </trkpt>
      <trkpt lat="45.83279" lon="6.25634">
        <ele>1202</ele>
        <time>2011-08-01T08:25:07Z</time>
      </trkpt>
      <trkpt lat="45.83274" lon="6.2563">
        <ele>1202</ele>
        <time>2011-08-01T08:25:11Z</time>
      </trkpt>
      <trkpt lat="45.83257" lon="6.25626">
        <ele>1202</ele>
        <time>2011-08-01T08:25:18Z</time>
      </trkpt>
      <trkpt lat="45.83243" lon="6.25613">
        <ele>1204</ele>
        <time>2011-08-01T08:25:23Z</time>
      </trkpt>
      <trkpt lat="45.83243" lon="6.2561">
        <ele>1203</ele>
        <time>2011-08-01T08:25:27Z</time>
      </trkpt>
      <trkpt lat="45.83236" lon="6.25612">
        <ele>1204</ele>
        <time>2011-08-01T08:25:34Z</time>
      </trkpt>
      <trkpt lat="45.83237" lon="6.25605">
        <ele>1201</ele>
        <time>2011-08-01T08:25:43Z</time>
      </trkpt>
      <trkpt lat="45.83237" lon="6.25603">
        <ele>1200</ele>
        <time>2011-08-01T08:25:46Z</time>
      </trkpt>
      <trkpt lat="45.83237" lon="6.25599">
        <ele>1199</ele>
        <time>2011-08-01T08:25:48Z</time>
      </trkpt>
      <trkpt lat="45.83247" lon="6.25589">
        <ele>1192</ele>
        <time>2011-08-01T08:25:54Z</time>
      </trkpt>
      <trkpt lat="45.83265" lon="6.25589">
        <ele>1192</ele>
        <time>2011-08-01T08:25:59Z</time>
      </trkpt>
      <trkpt lat="45.83276" lon="6.25583">
        <ele>1172</ele>
        <time>2011-08-01T08:26:03Z</time>
      </trkpt>
      <trkpt lat="45.8329" lon="6.25572">
        <ele>1168</ele>
        <time>2011-08-01T08:26:09Z</time>
      </trkpt>
      <trkpt lat="45.83292" lon="6.25572">
        <ele>1168</ele>
        <time>2011-08-01T08:26:10Z</time>
      </trkpt>
      <trkpt lat="45.83296" lon="6.25568">
        <ele>1167</ele>
        <time>2011-08-01T08:26:13Z</time>
      </trkpt>
      <trkpt lat="45.83291" lon="6.25563">
        <ele>1167</ele>
        <time>2011-08-01T08:26:18Z</time>
      </trkpt>
      <trkpt lat="45.83292" lon="6.25558">
        <ele>1166</ele>
        <time>2011-08-01T08:26:26Z</time>
      </trkpt>
      <trkpt lat="45.83294" lon="6.25561">
        <ele>1166</ele>
        <time>2011-08-01T08:26:46Z</time>
      </trkpt>
      <trkpt lat="45.83297" lon="6.25562">
        <ele>1166</ele>
        <time>2011-08-01T08:26:51Z</time>
      </trkpt>
      <trkpt lat="45.83301" lon="6.25556">
        <ele>1165</ele>
        <time>2011-08-01T08:26:55Z</time>
      </trkpt>
      <trkpt lat="45.83312" lon="6.25547">
        <ele>1163</ele>
        <time>2011-08-01T08:27:00Z</time>
      </trkpt>
      <trkpt lat="45.83316" lon="6.25547">
        <ele>1162</ele>
        <time>2011-08-01T08:27:02Z</time>
      </trkpt>
      <trkpt lat="45.83316" lon="6.25538">
        <ele>1160</ele>
        <time>2011-08-01T08:27:06Z</time>
      </trkpt>
      <trkpt lat="45.83302" lon="6.25529">
        <ele>1159</ele>
        <time>2011-08-01T08:27:14Z</time>
      </trkpt>
      <trkpt lat="45.833" lon="6.25524">
        <ele>1158</ele>
        <time>2011-08-01T08:27:21Z</time>
      </trkpt>
      <trkpt lat="45.83303" lon="6.2552">
        <ele>1157</ele>
        <time>2011-08-01T08:27:25Z</time>
      </trkpt>
      <trkpt lat="45.83318" lon="6.2551">
        <ele>1153</ele>
        <time>2011-08-01T08:27:30Z</time>
      </trkpt>
      <trkpt lat="45.83334" lon="6.25498">
        <ele>1140</ele>
        <time>2011-08-01T08:27:35Z</time>
      </trkpt>
      <trkpt lat="45.83339" lon="6.25498">
        <ele>1132</ele>
        <time>2011-08-01T08:27:39Z</time>
      </trkpt>
      <trkpt lat="45.83339" lon="6.25488">
        <ele>1122</ele>
        <time>2011-08-01T08:27:44Z</time>
      </trkpt>
      <trkpt lat="45.83323" lon="6.25483">
        <ele>1131</ele>
        <time>2011-08-01T08:27:49Z</time>
      </trkpt>
      <trkpt lat="45.83308" lon="6.25479">
        <ele>1127</ele>
        <time>2011-08-01T08:27:53Z</time>
      </trkpt>
      <trkpt lat="45.83293" lon="6.25476">
        <ele>1125</ele>
        <time>2011-08-01T08:27:57Z</time>
      </trkpt>
      <trkpt lat="45.83282" lon="6.25478">
        <ele>1126</ele>
        <time>2011-08-01T08:28:01Z</time>
      </trkpt>
      <trkpt lat="45.83277" lon="6.25478">
        <ele>1126</ele>
        <time>2011-08-01T08:28:03Z</time>
      </trkpt>
      <trkpt lat="45.83268" lon="6.25477">
        <ele>1127</ele>
        <time>2011-08-01T08:28:08Z</time>
      </trkpt>
      <trkpt lat="45.83249" lon="6.2548">
        <ele>1129</ele>
        <time>2011-08-01T08:28:12Z</time>
      </trkpt>
      <trkpt lat="45.83233" lon="6.2548">
        <ele>1127</ele>
        <time>2011-08-01T08:28:16Z</time>
      </trkpt>
      <trkpt lat="45.83221" lon="6.25481">
        <ele>1126</ele>
        <time>2011-08-01T08:28:19Z</time>
      </trkpt>
      <trkpt lat="45.832" lon="6.25478">
        <ele>1124</ele>
        <time>2011-08-01T08:28:22Z</time>
      </trkpt>
      <trkpt lat="45.83198" lon="6.25478">
        <ele>1124</ele>
        <time>2011-08-01T08:28:26Z</time>
      </trkpt>
      <trkpt lat="45.83194" lon="6.25478">
        <ele>1124</ele>
        <time>2011-08-01T08:28:28Z</time>
      </trkpt>
      <trkpt lat="45.83184" lon="6.25482">
        <ele>1126</ele>
        <time>2011-08-01T08:28:33Z</time>
      </trkpt>
      <trkpt lat="45.83171" lon="6.25483">
        <ele>1128</ele>
        <time>2011-08-01T08:28:36Z</time>
      </trkpt>
      <trkpt lat="45.83149" lon="6.25479">
        <ele>1133</ele>
        <time>2011-08-01T08:28:42Z</time>
      </trkpt>
      <trkpt lat="45.83143" lon="6.2548">
        <ele>1133</ele>
        <time>2011-08-01T08:28:47Z</time>
      </trkpt>
      <trkpt lat="45.83136" lon="6.25481">
        <ele>1134</ele>
        <time>2011-08-01T08:28:53Z</time>
      </trkpt>
      <trkpt lat="45.83117" lon="6.25477">
        <ele>1136</ele>
        <time>2011-08-01T08:29:18Z</time>
      </trkpt>
      <trkpt lat="45.83118" lon="6.25467">
        <ele>1134</ele>
        <time>2011-08-01T08:29:30Z</time>
      </trkpt>
      <trkpt lat="45.83115" lon="6.2545">
        <ele>1131</ele>
        <time>2011-08-01T08:29:36Z</time>
      </trkpt>
      <trkpt lat="45.8311" lon="6.25425">
        <ele>1129</ele>
        <time>2011-08-01T08:29:40Z</time>
      </trkpt>
      <trkpt lat="45.83108" lon="6.25414">
        <ele>1113</ele>
        <time>2011-08-01T08:29:44Z</time>
      </trkpt>
      <trkpt lat="45.83108" lon="6.25395">
        <ele>1110</ele>
        <time>2011-08-01T08:29:49Z</time>
      </trkpt>
      <trkpt lat="45.83106" lon="6.25378">
        <ele>1106</ele>
        <time>2011-08-01T08:29:53Z</time>
      </trkpt>
      <trkpt lat="45.83102" lon="6.25354">
        <ele>1104</ele>
        <time>2011-08-01T08:29:58Z</time>
      </trkpt>
      <trkpt lat="45.83093" lon="6.25334">
        <ele>1107</ele>
        <time>2011-08-01T08:30:02Z</time>
      </trkpt>
      <trkpt lat="45.83086" lon="6.25309">
        <ele>1090</ele>
        <time>2011-08-01T08:30:06Z</time>
      </trkpt>
      <trkpt lat="45.83078" lon="6.25282">
        <ele>1114</ele>
        <time>2011-08-01T08:30:10Z</time>
      </trkpt>
      <trkpt lat="45.83075" lon="6.25267">
        <ele>1106</ele>
        <time>2011-08-01T08:30:13Z</time>
      </trkpt>
      <trkpt lat="45.83076" lon="6.25248">
        <ele>1087</ele>
        <time>2011-08-01T08:30:18Z</time>
      </trkpt>
      <trkpt lat="45.83075" lon="6.2524">
        <ele>1088</ele>
        <time>2011-08-01T08:30:20Z</time>
      </trkpt>
      <trkpt lat="45.83069" lon="6.25219">
        <ele>1088</ele>
        <time>2011-08-01T08:30:26Z</time>
      </trkpt>
      <trkpt lat="45.83057" lon="6.25206">
        <ele>1088</ele>
        <time>2011-08-01T08:30:31Z</time>
      </trkpt>
      <trkpt lat="45.83048" lon="6.25197">
        <ele>1088</ele>
        <time>2011-08-01T08:30:35Z</time>
      </trkpt>
      <trkpt lat="45.83045" lon="6.25193">
        <ele>1088</ele>
        <time>2011-08-01T08:30:36Z</time>
      </trkpt>
      <trkpt lat="45.83031" lon="6.25169">
        <ele>1089</ele>
        <time>2011-08-01T08:30:41Z</time>
      </trkpt>
      <trkpt lat="45.83023" lon="6.25156">
        <ele>1070</ele>
        <time>2011-08-01T08:30:45Z</time>
      </trkpt>
      <trkpt lat="45.83013" lon="6.25144">
        <ele>1069</ele>
        <time>2011-08-01T08:30:49Z</time>
      </trkpt>
      <trkpt lat="45.83003" lon="6.25129">
        <ele>1065</ele>
        <time>2011-08-01T08:30:53Z</time>
      </trkpt>
      <trkpt lat="45.82994" lon="6.25117">
        <ele>1084</ele>
        <time>2011-08-01T08:30:57Z</time>
      </trkpt>
      <trkpt lat="45.82983" lon="6.25097">
        <ele>1078</ele>
        <time>2011-08-01T08:31:03Z</time>
      </trkpt>
      <trkpt lat="45.82972" lon="6.25078">
        <ele>1061</ele>
        <time>2011-08-01T08:31:08Z</time>
      </trkpt>
      <trkpt lat="45.82961" lon="6.25054">
        <ele>1060</ele>
        <time>2011-08-01T08:31:12Z</time>
      </trkpt>
      <trkpt lat="45.82954" lon="6.25041">
        <ele>1059</ele>
        <time>2011-08-01T08:31:15Z</time>
      </trkpt>
      <trkpt lat="45.82948" lon="6.25024">
        <ele>1057</ele>
        <time>2011-08-01T08:31:20Z</time>
      </trkpt>
      <trkpt lat="45.8294" lon="6.25008">
        <ele>1057</ele>
        <time>2011-08-01T08:31:24Z</time>
      </trkpt>
      <trkpt lat="45.8293" lon="6.24994">
        <ele>1045</ele>
        <time>2011-08-01T08:31:28Z</time>
      </trkpt>
      <trkpt lat="45.82918" lon="6.24971">
        <ele>1038</ele>
        <time>2011-08-01T08:31:32Z</time>
      </trkpt>
      <trkpt lat="45.82912" lon="6.24958">
        <ele>1052</ele>
        <time>2011-08-01T08:31:34Z</time>
      </trkpt>
      <trkpt lat="45.82902" lon="6.24941">
        <ele>1048</ele>
        <time>2011-08-01T08:31:37Z</time>
      </trkpt>
      <trkpt lat="45.8289" lon="6.24923">
        <ele>1047</ele>
        <time>2011-08-01T08:31:41Z</time>
      </trkpt>
      <trkpt lat="45.82886" lon="6.24909">
        <ele>1032</ele>
        <time>2011-08-01T08:31:46Z</time>
      </trkpt>
      <trkpt lat="45.82898" lon="6.24914">
        <ele>1030</ele>
        <time>2011-08-01T08:31:52Z</time>
      </trkpt>
      <trkpt lat="45.82911" lon="6.2492">
        <ele>1035</ele>
        <time>2011-08-01T08:31:56Z</time>
      </trkpt>
      <trkpt lat="45.82925" lon="6.24935">
        <ele>1029</ele>
        <time>2011-08-01T08:32:02Z</time>
      </trkpt>
      <trkpt lat="45.82943" lon="6.24945">
        <ele>1029</ele>
        <time>2011-08-01T08:32:06Z</time>
      </trkpt>
      <trkpt lat="45.82949" lon="6.24947">
        <ele>1028</ele>
        <time>2011-08-01T08:32:08Z</time>
      </trkpt>
      <trkpt lat="45.82946" lon="6.24934">
        <ele>1027</ele>
        <time>2011-08-01T08:32:13Z</time>
      </trkpt>
      <trkpt lat="45.82938" lon="6.24917">
        <ele>1027</ele>
        <time>2011-08-01T08:32:17Z</time>
      </trkpt>
      <trkpt lat="45.82929" lon="6.24897">
        <ele>1014</ele>
        <time>2011-08-01T08:32:22Z</time>
      </trkpt>
      <trkpt lat="45.82919" lon="6.24874">
        <ele>1009</ele>
        <time>2011-08-01T08:32:28Z</time>
      </trkpt>
      <trkpt lat="45.82914" lon="6.24861">
        <ele>1022</ele>
        <time>2011-08-01T08:32:33Z</time>
      </trkpt>
      <trkpt lat="45.8291" lon="6.24843">
        <ele>1016</ele>
        <time>2011-08-01T08:32:39Z</time>
      </trkpt>
      <trkpt lat="45.82905" lon="6.24833">
        <ele>1008</ele>
        <time>2011-08-01T08:32:43Z</time>
      </trkpt>
      <trkpt lat="45.82903" lon="6.24826">
        <ele>1008</ele>
        <time>2011-08-01T08:32:45Z</time>
      </trkpt>
      <trkpt lat="45.82903" lon="6.24822">
        <ele>1007</ele>
        <time>2011-08-01T08:32:48Z</time>
      </trkpt>
      <trkpt lat="45.82909" lon="6.24829">
        <ele>1008</ele>
        <time>2011-08-01T08:32:53Z</time>
      </trkpt>
      <trkpt lat="45.82928" lon="6.24834">
        <ele>1006</ele>
        <time>2011-08-01T08:32:59Z</time>
      </trkpt>
      <trkpt lat="45.82942" lon="6.24839">
        <ele>1003</ele>
        <time>2011-08-01T08:33:04Z</time>
      </trkpt>
      <trkpt lat="45.82944" lon="6.24839">
        <ele>1003</ele>
        <time>2011-08-01T08:33:05Z</time>
      </trkpt>
      <trkpt lat="45.82957" lon="6.24846">
        <ele>1001</ele>
        <time>2011-08-01T08:33:10Z</time>
      </trkpt>
      <trkpt lat="45.8297" lon="6.2485">
        <ele>998</ele>
        <time>2011-08-01T08:33:14Z</time>
      </trkpt>
      <trkpt lat="45.82986" lon="6.24855">
        <ele>994</ele>
        <time>2011-08-01T08:33:19Z</time>
      </trkpt>
      <trkpt lat="45.83002" lon="6.24864">
        <ele>979</ele>
        <time>2011-08-01T08:33:24Z</time>
      </trkpt>
      <trkpt lat="45.83005" lon="6.24868">
        <ele>979</ele>
        <time>2011-08-01T08:33:28Z</time>
      </trkpt>
      <trkpt lat="45.8301" lon="6.24871">
        <ele>979</ele>
        <time>2011-08-01T08:33:32Z</time>
      </trkpt>
      <trkpt lat="45.83012" lon="6.24871">
        <ele>979</ele>
        <time>2011-08-01T08:33:33Z</time>
      </trkpt>
      <trkpt lat="45.83027" lon="6.24874">
        <ele>978</ele>
        <time>2011-08-01T08:33:38Z</time>
      </trkpt>
      <trkpt lat="45.83034" lon="6.24875">
        <ele>977</ele>
        <time>2011-08-01T08:33:40Z</time>
      </trkpt>
      <trkpt lat="45.83047" lon="6.24879">
        <ele>976</ele>
        <time>2011-08-01T08:33:45Z</time>
      </trkpt>
      <trkpt lat="45.83049" lon="6.24876">
        <ele>975</ele>
        <time>2011-08-01T08:33:48Z</time>
      </trkpt>
      <trkpt lat="45.83044" lon="6.24861">
        <ele>974</ele>
        <time>2011-08-01T08:33:53Z</time>
      </trkpt>
      <trkpt lat="45.83039" lon="6.24849">
        <ele>973</ele>
        <time>2011-08-01T08:33:56Z</time>
      </trkpt>
      <trkpt lat="45.8304" lon="6.24837">
        <ele>972</ele>
        <time>2011-08-01T08:34:01Z</time>
      </trkpt>
      <trkpt lat="45.83039" lon="6.24827">
        <ele>958</ele>
        <time>2011-08-01T08:34:11Z</time>
      </trkpt>
      <trkpt lat="45.83036" lon="6.24822">
        <ele>958</ele>
        <time>2011-08-01T08:34:13Z</time>
      </trkpt>
      <trkpt lat="45.83031" lon="6.24798">
        <ele>955</ele>
        <time>2011-08-01T08:34:19Z</time>
      </trkpt>
      <trkpt lat="45.83025" lon="6.24786">
        <ele>954</ele>
        <time>2011-08-01T08:34:22Z</time>
      </trkpt>
      <trkpt lat="45.83014" lon="6.24759">
        <ele>953</ele>
        <time>2011-08-01T08:34:29Z</time>
      </trkpt>
      <trkpt lat="45.8301" lon="6.24738">
        <ele>942</ele>
        <time>2011-08-01T08:34:34Z</time>
      </trkpt>
      <trkpt lat="45.83006" lon="6.24728">
        <ele>938</ele>
        <time>2011-08-01T08:34:37Z</time>
      </trkpt>
      <trkpt lat="45.82996" lon="6.24705">
        <ele>951</ele>
        <time>2011-08-01T08:34:43Z</time>
      </trkpt>
      <trkpt lat="45.82987" lon="6.24688">
        <ele>947</ele>
        <time>2011-08-01T08:34:47Z</time>
      </trkpt>
      <trkpt lat="45.82979" lon="6.24668">
        <ele>945</ele>
        <time>2011-08-01T08:34:52Z</time>
      </trkpt>
      <trkpt lat="45.82978" lon="6.24656">
        <ele>933</ele>
        <time>2011-08-01T08:34:56Z</time>
      </trkpt>
      <trkpt lat="45.82979" lon="6.24651">
        <ele>932</ele>
        <time>2011-08-01T08:35:02Z</time>
      </trkpt>
      <trkpt lat="45.82979" lon="6.24651">
        <ele>932</ele>
        <time>2011-08-01T08:35:03Z</time>
      </trkpt>
      <trkpt lat="45.82981" lon="6.24632">
        <ele>930</ele>
        <time>2011-08-01T08:35:09Z</time>
      </trkpt>
      <trkpt lat="45.82979" lon="6.24615">
        <ele>928</ele>
        <time>2011-08-01T08:35:14Z</time>
      </trkpt>
      <trkpt lat="45.82974" lon="6.24598">
        <ele>925</ele>
        <time>2011-08-01T08:35:18Z</time>
      </trkpt>
      <trkpt lat="45.82973" lon="6.24587">
        <ele>924</ele>
        <time>2011-08-01T08:35:21Z</time>
      </trkpt>
      <trkpt lat="45.82976" lon="6.2458">
        <ele>911</ele>
        <time>2011-08-01T08:35:26Z</time>
      </trkpt>
      <trkpt lat="45.82981" lon="6.24583">
        <ele>910</ele>
        <time>2011-08-01T08:35:29Z</time>
      </trkpt>
      <trkpt lat="45.82998" lon="6.24588">
        <ele>912</ele>
        <time>2011-08-01T08:35:37Z</time>
      </trkpt>
      <trkpt lat="45.82999" lon="6.24588">
        <ele>912</ele>
        <time>2011-08-01T08:35:38Z</time>
      </trkpt>
      <trkpt lat="45.83" lon="6.24588">
        <ele>912</ele>
        <time>2011-08-01T08:35:41Z</time>
      </trkpt>
      <trkpt lat="45.83001" lon="6.24588">
        <ele>907</ele>
        <time>2011-08-01T08:35:42Z</time>
      </trkpt>
      <trkpt lat="45.83009" lon="6.24597">
        <ele>907</ele>
        <time>2011-08-01T08:35:47Z</time>
      </trkpt>
      <trkpt lat="45.83019" lon="6.24612">
        <ele>907</ele>
        <time>2011-08-01T08:35:52Z</time>
      </trkpt>
      <trkpt lat="45.83031" lon="6.24625">
        <ele>907</ele>
        <time>2011-08-01T08:35:57Z</time>
      </trkpt>
      <trkpt lat="45.83046" lon="6.2463">
        <ele>905</ele>
        <time>2011-08-01T08:36:01Z</time>
      </trkpt>
      <trkpt lat="45.83061" lon="6.24623">
        <ele>902</ele>
        <time>2011-08-01T08:36:05Z</time>
      </trkpt>
      <trkpt lat="45.83069" lon="6.24617">
        <ele>901</ele>
        <time>2011-08-01T08:36:09Z</time>
      </trkpt>
      <trkpt lat="45.83072" lon="6.24617">
        <ele>900</ele>
        <time>2011-08-01T08:36:12Z</time>
      </trkpt>
      <trkpt lat="45.83081" lon="6.24623">
        <ele>901</ele>
        <time>2011-08-01T08:36:16Z</time>
      </trkpt>
      <trkpt lat="45.83102" lon="6.24629">
        <ele>890</ele>
        <time>2011-08-01T08:36:21Z</time>
      </trkpt>
      <trkpt lat="45.83125" lon="6.24634">
        <ele>889</ele>
        <time>2011-08-01T08:36:25Z</time>
      </trkpt>
      <trkpt lat="45.83162" lon="6.24643">
        <ele>889</ele>
        <time>2011-08-01T08:36:31Z</time>
      </trkpt>
      <trkpt lat="45.8319" lon="6.24646">
        <ele>885</ele>
        <time>2011-08-01T08:36:36Z</time>
      </trkpt>
      <trkpt lat="45.832" lon="6.24648">
        <ele>885</ele>
        <time>2011-08-01T08:36:38Z</time>
      </trkpt>
      <trkpt lat="45.83233" lon="6.24653">
        <ele>885</ele>
        <time>2011-08-01T08:36:44Z</time>
      </trkpt>
      <trkpt lat="45.83249" lon="6.24655">
        <ele>886</ele>
        <time>2011-08-01T08:36:47Z</time>
      </trkpt>
      <trkpt lat="45.83273" lon="6.24671">
        <ele>890</ele>
        <time>2011-08-01T08:36:52Z</time>
      </trkpt>
      <trkpt lat="45.83277" lon="6.24676">
        <ele>890</ele>
        <time>2011-08-01T08:36:53Z</time>
      </trkpt>
      <trkpt lat="45.83289" lon="6.2469">
        <ele>890</ele>
        <time>2011-08-01T08:36:56Z</time>
      </trkpt>
      <trkpt lat="45.83311" lon="6.24723">
        <ele>892</ele>
        <time>2011-08-01T08:37:03Z</time>
      </trkpt>
      <trkpt lat="45.83323" lon="6.24748">
        <ele>893</ele>
        <time>2011-08-01T08:37:08Z</time>
      </trkpt>
      <trkpt lat="45.83326" lon="6.24765">
        <ele>901</ele>
        <time>2011-08-01T08:37:11Z</time>
      </trkpt>
      <trkpt lat="45.83342" lon="6.24804">
        <ele>899</ele>
        <time>2011-08-01T08:37:19Z</time>
      </trkpt>
      <trkpt lat="45.83356" lon="6.24839">
        <ele>909</ele>
        <time>2011-08-01T08:37:27Z</time>
      </trkpt>
      <trkpt lat="45.83365" lon="6.24867">
        <ele>909</ele>
        <time>2011-08-01T08:37:34Z</time>
      </trkpt>
      <trkpt lat="45.83377" lon="6.24901">
        <ele>910</ele>
        <time>2011-08-01T08:37:42Z</time>
      </trkpt>
      <trkpt lat="45.8339" lon="6.24938">
        <ele>916</ele>
        <time>2011-08-01T08:37:51Z</time>
      </trkpt>
      <trkpt lat="45.83405" lon="6.24975">
        <ele>917</ele>
        <time>2011-08-01T08:38:00Z</time>
      </trkpt>
      <trkpt lat="45.83416" lon="6.25004">
        <ele>914</ele>
        <time>2011-08-01T08:38:07Z</time>
      </trkpt>
      <trkpt lat="45.83424" lon="6.25023">
        <ele>913</ele>
        <time>2011-08-01T08:38:12Z</time>
      </trkpt>
      <trkpt lat="45.83435" lon="6.2504">
        <ele>914</ele>
        <time>2011-08-01T08:38:17Z</time>
      </trkpt>
      <trkpt lat="45.83443" lon="6.25056">
        <ele>915</ele>
        <time>2011-08-01T08:38:22Z</time>
      </trkpt>
      <trkpt lat="45.83448" lon="6.2508">
        <ele>916</ele>
        <time>2011-08-01T08:38:27Z</time>
      </trkpt>
      <trkpt lat="45.83464" lon="6.25106">
        <ele>925</ele>
        <time>2011-08-01T08:38:33Z</time>
      </trkpt>
      <trkpt lat="45.83481" lon="6.25117">
        <ele>925</ele>
        <time>2011-08-01T08:38:38Z</time>
      </trkpt>
      <trkpt lat="45.83497" lon="6.25114">
        <ele>924</ele>
        <time>2011-08-01T08:38:43Z</time>
      </trkpt>
      <trkpt lat="45.83514" lon="6.25099">
        <ele>931</ele>
        <time>2011-08-01T08:38:48Z</time>
      </trkpt>
      <trkpt lat="45.8353" lon="6.25085">
        <ele>935</ele>
        <time>2011-08-01T08:38:52Z</time>
      </trkpt>
      <trkpt lat="45.83538" lon="6.25066">
        <ele>928</ele>
        <time>2011-08-01T08:38:56Z</time>
      </trkpt>
      <trkpt lat="45.83549" lon="6.2505">
        <ele>930</ele>
        <time>2011-08-01T08:39:00Z</time>
      </trkpt>
      <trkpt lat="45.83562" lon="6.2502">
        <ele>930</ele>
        <time>2011-08-01T08:39:06Z</time>
      </trkpt>
      <trkpt lat="45.83569" lon="6.24986">
        <ele>924</ele>
        <time>2011-08-01T08:39:12Z</time>
      </trkpt>
      <trkpt lat="45.83578" lon="6.24954">
        <ele>920</ele>
        <time>2011-08-01T08:39:18Z</time>
      </trkpt>
      <trkpt lat="45.83583" lon="6.24937">
        <ele>920</ele>
        <time>2011-08-01T08:39:22Z</time>
      </trkpt>
      <trkpt lat="45.83582" lon="6.24915">
        <ele>922</ele>
        <time>2011-08-01T08:39:27Z</time>
      </trkpt>
      <trkpt lat="45.83581" lon="6.24886">
        <ele>912</ele>
        <time>2011-08-01T08:39:33Z</time>
      </trkpt>
      <trkpt lat="45.83591" lon="6.24866">
        <ele>929</ele>
        <time>2011-08-01T08:39:39Z</time>
      </trkpt>
      <trkpt lat="45.83601" lon="6.24841">
        <ele>926</ele>
        <time>2011-08-01T08:39:46Z</time>
      </trkpt>
      <trkpt lat="45.83611" lon="6.24816">
        <ele>923</ele>
        <time>2011-08-01T08:39:53Z</time>
      </trkpt>
      <trkpt lat="45.83624" lon="6.24801">
        <ele>924</ele>
        <time>2011-08-01T08:39:59Z</time>
      </trkpt>
      <trkpt lat="45.83638" lon="6.24795">
        <ele>926</ele>
        <time>2011-08-01T08:40:04Z</time>
      </trkpt>
      <trkpt lat="45.8365" lon="6.24782">
        <ele>927</ele>
        <time>2011-08-01T08:40:09Z</time>
      </trkpt>
      <trkpt lat="45.83663" lon="6.24762">
        <ele>929</ele>
        <time>2011-08-01T08:40:15Z</time>
      </trkpt>
      <trkpt lat="45.83675" lon="6.24745">
        <ele>934</ele>
        <time>2011-08-01T08:40:21Z</time>
      </trkpt>
      <trkpt lat="45.83688" lon="6.24724">
        <ele>937</ele>
        <time>2011-08-01T08:40:27Z</time>
      </trkpt>
      <trkpt lat="45.83707" lon="6.24698">
        <ele>939</ele>
        <time>2011-08-01T08:40:34Z</time>
      </trkpt>
      <trkpt lat="45.83723" lon="6.24667">
        <ele>940</ele>
        <time>2011-08-01T08:40:41Z</time>
      </trkpt>
      <trkpt lat="45.8374" lon="6.24643">
        <ele>934</ele>
        <time>2011-08-01T08:40:47Z</time>
      </trkpt>
      <trkpt lat="45.83756" lon="6.24616">
        <ele>950</ele>
        <time>2011-08-01T08:40:53Z</time>
      </trkpt>
      <trkpt lat="45.83765" lon="6.24605">
        <ele>949</ele>
        <time>2011-08-01T08:40:56Z</time>
      </trkpt>
      <trkpt lat="45.83776" lon="6.24573">
        <ele>943</ele>
        <time>2011-08-01T08:41:02Z</time>
      </trkpt>
      <trkpt lat="45.83774" lon="6.24536">
        <ele>942</ele>
        <time>2011-08-01T08:41:08Z</time>
      </trkpt>
      <trkpt lat="45.83772" lon="6.24522">
        <ele>939</ele>
        <time>2011-08-01T08:41:10Z</time>
      </trkpt>
      <trkpt lat="45.83775" lon="6.24494">
        <ele>928</ele>
        <time>2011-08-01T08:41:15Z</time>
      </trkpt>
      <trkpt lat="45.83788" lon="6.24471">
        <ele>929</ele>
        <time>2011-08-01T08:41:20Z</time>
      </trkpt>
      <trkpt lat="45.83802" lon="6.24468">
        <ele>931</ele>
        <time>2011-08-01T08:41:23Z</time>
      </trkpt>
      <trkpt lat="45.83811" lon="6.24469">
        <ele>933</ele>
        <time>2011-08-01T08:41:25Z</time>
      </trkpt>
      <trkpt lat="45.83829" lon="6.24461">
        <ele>934</ele>
        <time>2011-08-01T08:41:29Z</time>
      </trkpt>
      <trkpt lat="45.83841" lon="6.24452">
        <ele>947</ele>
        <time>2011-08-01T08:41:31Z</time>
      </trkpt>
      <trkpt lat="45.83861" lon="6.2443">
        <ele>947</ele>
        <time>2011-08-01T08:41:35Z</time>
      </trkpt>
      <trkpt lat="45.83875" lon="6.24422">
        <ele>950</ele>
        <time>2011-08-01T08:41:37Z</time>
      </trkpt>
      <trkpt lat="45.8389" lon="6.24391">
        <ele>951</ele>
        <time>2011-08-01T08:41:41Z</time>
      </trkpt>
      <trkpt lat="45.83881" lon="6.24375">
        <ele>950</ele>
        <time>2011-08-01T08:41:43Z</time>
      </trkpt>
      <trkpt lat="45.83868" lon="6.24363">
        <ele>947</ele>
        <time>2011-08-01T08:41:45Z</time>
      </trkpt>
      <trkpt lat="45.83854" lon="6.24352">
        <ele>942</ele>
        <time>2011-08-01T08:41:47Z</time>
      </trkpt>
      <trkpt lat="45.8384" lon="6.24334">
        <ele>932</ele>
        <time>2011-08-01T08:41:50Z</time>
      </trkpt>
      <trkpt lat="45.83832" lon="6.24296">
        <ele>915</ele>
        <time>2011-08-01T08:41:54Z</time>
      </trkpt>
      <trkpt lat="45.83835" lon="6.24271">
        <ele>938</ele>
        <time>2011-08-01T08:41:56Z</time>
      </trkpt>
      <trkpt lat="45.83841" lon="6.24252">
        <ele>932</ele>
        <time>2011-08-01T08:41:58Z</time>
      </trkpt>
      <trkpt lat="45.83843" lon="6.24205">
        <ele>938</ele>
        <time>2011-08-01T08:42:03Z</time>
      </trkpt>
      <trkpt lat="45.83837" lon="6.24175">
        <ele>929</ele>
        <time>2011-08-01T08:42:07Z</time>
      </trkpt>
      <trkpt lat="45.83836" lon="6.24149">
        <ele>928</ele>
        <time>2011-08-01T08:42:10Z</time>
      </trkpt>
      <trkpt lat="45.83847" lon="6.24101">
        <ele>925</ele>
        <time>2011-08-01T08:42:16Z</time>
      </trkpt>
      <trkpt lat="45.83851" lon="6.24077">
        <ele>916</ele>
        <time>2011-08-01T08:42:19Z</time>
      </trkpt>
      <trkpt lat="45.83862" lon="6.24047">
        <ele>917</ele>
        <time>2011-08-01T08:42:24Z</time>
      </trkpt>
      <trkpt lat="45.8387" lon="6.24032">
        <ele>917</ele>
        <time>2011-08-01T08:42:27Z</time>
      </trkpt>
      <trkpt lat="45.83891" lon="6.24013">
        <ele>919</ele>
        <time>2011-08-01T08:42:32Z</time>
      </trkpt>
      <trkpt lat="45.83923" lon="6.24009">
        <ele>927</ele>
        <time>2011-08-01T08:42:38Z</time>
      </trkpt>
      <trkpt lat="45.83949" lon="6.24012">
        <ele>930</ele>
        <time>2011-08-01T08:42:43Z</time>
      </trkpt>
      <trkpt lat="45.83966" lon="6.24016">
        <ele>930</ele>
        <time>2011-08-01T08:42:46Z</time>
      </trkpt>
      <trkpt lat="45.84001" lon="6.24016">
        <ele>925</ele>
        <time>2011-08-01T08:42:52Z</time>
      </trkpt>
      <trkpt lat="45.84013" lon="6.24015">
        <ele>925</ele>
        <time>2011-08-01T08:42:54Z</time>
      </trkpt>
      <trkpt lat="45.84025" lon="6.24018">
        <ele>925</ele>
        <time>2011-08-01T08:42:56Z</time>
      </trkpt>
      <trkpt lat="45.84049" lon="6.24032">
        <ele>925</ele>
        <time>2011-08-01T08:43:00Z</time>
      </trkpt>
      <trkpt lat="45.84072" lon="6.2405">
        <ele>926</ele>
        <time>2011-08-01T08:43:05Z</time>
      </trkpt>
      <trkpt lat="45.84092" lon="6.24051">
        <ele>925</ele>
        <time>2011-08-01T08:43:09Z</time>
      </trkpt>
      <trkpt lat="45.84102" lon="6.24045">
        <ele>924</ele>
        <time>2011-08-01T08:43:11Z</time>
      </trkpt>
      <trkpt lat="45.8412" lon="6.24034">
        <ele>923</ele>
        <time>2011-08-01T08:43:14Z</time>
      </trkpt>
      <trkpt lat="45.84134" lon="6.24025">
        <ele>923</ele>
        <time>2011-08-01T08:43:17Z</time>
      </trkpt>
      <trkpt lat="45.84161" lon="6.24028">
        <ele>923</ele>
        <time>2011-08-01T08:43:22Z</time>
      </trkpt>
      <trkpt lat="45.84167" lon="6.24031">
        <ele>932</ele>
        <time>2011-08-01T08:43:23Z</time>
      </trkpt>
      <trkpt lat="45.84197" lon="6.24048">
        <ele>938</ele>
        <time>2011-08-01T08:43:29Z</time>
      </trkpt>
      <trkpt lat="45.84207" lon="6.24026">
        <ele>937</ele>
        <time>2011-08-01T08:43:32Z</time>
      </trkpt>
      <trkpt lat="45.84201" lon="6.24006">
        <ele>934</ele>
        <time>2011-08-01T08:43:35Z</time>
      </trkpt>
      <trkpt lat="45.84188" lon="6.23999">
        <ele>924</ele>
        <time>2011-08-01T08:43:38Z</time>
      </trkpt>
      <trkpt lat="45.84178" lon="6.23999">
        <ele>921</ele>
        <time>2011-08-01T08:43:42Z</time>
      </trkpt>
      <trkpt lat="45.8418" lon="6.23989">
        <ele>923</ele>
        <time>2011-08-01T08:43:46Z</time>
      </trkpt>
      <trkpt lat="45.8418" lon="6.23973">
        <ele>923</ele>
        <time>2011-08-01T08:43:49Z</time>
      </trkpt>
      <trkpt lat="45.84177" lon="6.2393">
        <ele>917</ele>
        <time>2011-08-01T08:43:56Z</time>
      </trkpt>
      <trkpt lat="45.84178" lon="6.23896">
        <ele>914</ele>
        <time>2011-08-01T08:44:00Z</time>
      </trkpt>
      <trkpt lat="45.84191" lon="6.23851">
        <ele>913</ele>
        <time>2011-08-01T08:44:06Z</time>
      </trkpt>
      <trkpt lat="45.84199" lon="6.2383">
        <ele>910</ele>
        <time>2011-08-01T08:44:09Z</time>
      </trkpt>
      <trkpt lat="45.84217" lon="6.2378">
        <ele>913</ele>
        <time>2011-08-01T08:44:16Z</time>
      </trkpt>
      <trkpt lat="45.8422" lon="6.23758">
        <ele>914</ele>
        <time>2011-08-01T08:44:19Z</time>
      </trkpt>
      <trkpt lat="45.84223" lon="6.23734">
        <ele>909</ele>
        <time>2011-08-01T08:44:22Z</time>
      </trkpt>
      <trkpt lat="45.84227" lon="6.23712">
        <ele>907</ele>
        <time>2011-08-01T08:44:25Z</time>
      </trkpt>
      <trkpt lat="45.84233" lon="6.23652">
        <ele>903</ele>
        <time>2011-08-01T08:44:32Z</time>
      </trkpt>
      <trkpt lat="45.8424" lon="6.23611">
        <ele>898</ele>
        <time>2011-08-01T08:44:36Z</time>
      </trkpt>
      <trkpt lat="45.84246" lon="6.23591">
        <ele>900</ele>
        <time>2011-08-01T08:44:38Z</time>
      </trkpt>
      <trkpt lat="45.8426" lon="6.23562">
        <ele>901</ele>
        <time>2011-08-01T08:44:41Z</time>
      </trkpt>
      <trkpt lat="45.84283" lon="6.23536">
        <ele>899</ele>
        <time>2011-08-01T08:44:45Z</time>
      </trkpt>
      <trkpt lat="45.8429" lon="6.23532">
        <ele>899</ele>
        <time>2011-08-01T08:44:46Z</time>
      </trkpt>
      <trkpt lat="45.84304" lon="6.23526">
        <ele>899</ele>
        <time>2011-08-01T08:44:48Z</time>
      </trkpt>
      <trkpt lat="45.84353" lon="6.23514">
        <ele>904</ele>
        <time>2011-08-01T08:44:55Z</time>
      </trkpt>
      <trkpt lat="45.84385" lon="6.235">
        <ele>886</ele>
        <time>2011-08-01T08:45:00Z</time>
      </trkpt>
      <trkpt lat="45.84411" lon="6.23492">
        <ele>890</ele>
        <time>2011-08-01T08:45:04Z</time>
      </trkpt>
      <trkpt lat="45.8446" lon="6.2348">
        <ele>888</ele>
        <time>2011-08-01T08:45:11Z</time>
      </trkpt>
      <trkpt lat="45.84495" lon="6.23466">
        <ele>888</ele>
        <time>2011-08-01T08:45:16Z</time>
      </trkpt>
      <trkpt lat="45.84501" lon="6.23464">
        <ele>883</ele>
        <time>2011-08-01T08:45:17Z</time>
      </trkpt>
      <trkpt lat="45.84542" lon="6.23473">
        <ele>879</ele>
        <time>2011-08-01T08:45:22Z</time>
      </trkpt>
      <trkpt lat="45.84563" lon="6.23494">
        <ele>878</ele>
        <time>2011-08-01T08:45:25Z</time>
      </trkpt>
      <trkpt lat="45.846" lon="6.23556">
        <ele>891</ele>
        <time>2011-08-01T08:45:33Z</time>
      </trkpt>
      <trkpt lat="45.84622" lon="6.23601">
        <ele>908</ele>
        <time>2011-08-01T08:45:39Z</time>
      </trkpt>
      <trkpt lat="45.84642" lon="6.23617">
        <ele>908</ele>
        <time>2011-08-01T08:45:43Z</time>
      </trkpt>
      <trkpt lat="45.84658" lon="6.23608">
        <ele>905</ele>
        <time>2011-08-01T08:45:46Z</time>
      </trkpt>
      <trkpt lat="45.84665" lon="6.23583">
        <ele>895</ele>
        <time>2011-08-01T08:45:49Z</time>
      </trkpt>
      <trkpt lat="45.84665" lon="6.23574">
        <ele>893</ele>
        <time>2011-08-01T08:45:50Z</time>
      </trkpt>
      <trkpt lat="45.84671" lon="6.23503">
        <ele>889</ele>
        <time>2011-08-01T08:45:57Z</time>
      </trkpt>
      <trkpt lat="45.84673" lon="6.23491">
        <ele>891</ele>
        <time>2011-08-01T08:45:58Z</time>
      </trkpt>
      <trkpt lat="45.84666" lon="6.23426">
        <ele>877</ele>
        <time>2011-08-01T08:46:04Z</time>
      </trkpt>
      <trkpt lat="45.84666" lon="6.23386">
        <ele>872</ele>
        <time>2011-08-01T08:46:09Z</time>
      </trkpt>
      <trkpt lat="45.84666" lon="6.23356">
        <ele>874</ele>
        <time>2011-08-01T08:46:13Z</time>
      </trkpt>
      <trkpt lat="45.84662" lon="6.23293">
        <ele>874</ele>
        <time>2011-08-01T08:46:21Z</time>
      </trkpt>
      <trkpt lat="45.84662" lon="6.23277">
        <ele>876</ele>
        <time>2011-08-01T08:46:23Z</time>
      </trkpt>
      <trkpt lat="45.84652" lon="6.23243">
        <ele>880</ele>
        <time>2011-08-01T08:46:28Z</time>
      </trkpt>
      <trkpt lat="45.84647" lon="6.23229">
        <ele>877</ele>
        <time>2011-08-01T08:46:30Z</time>
      </trkpt>
      <trkpt lat="45.8463" lon="6.23175">
        <ele>876</ele>
        <time>2011-08-01T08:46:37Z</time>
      </trkpt>
      <trkpt lat="45.84627" lon="6.23143">
        <ele>875</ele>
        <time>2011-08-01T08:46:41Z</time>
      </trkpt>
      <trkpt lat="45.8463" lon="6.23109">
        <ele>875</ele>
        <time>2011-08-01T08:46:45Z</time>
      </trkpt>
      <trkpt lat="45.84648" lon="6.23064">
        <ele>872</ele>
        <time>2011-08-01T08:46:51Z</time>
      </trkpt>
      <trkpt lat="45.84654" lon="6.23059">
        <ele>872</ele>
        <time>2011-08-01T08:46:52Z</time>
      </trkpt>
      <trkpt lat="45.84668" lon="6.23042">
        <ele>886</ele>
        <time>2011-08-01T08:46:55Z</time>
      </trkpt>
      <trkpt lat="45.84686" lon="6.23019">
        <ele>884</ele>
        <time>2011-08-01T08:46:59Z</time>
      </trkpt>
      <trkpt lat="45.84702" lon="6.23005">
        <ele>886</ele>
        <time>2011-08-01T08:47:02Z</time>
      </trkpt>
      <trkpt lat="45.84731" lon="6.22975">
        <ele>876</ele>
        <time>2011-08-01T08:47:08Z</time>
      </trkpt>
      <trkpt lat="45.84739" lon="6.22965">
        <ele>875</ele>
        <time>2011-08-01T08:47:10Z</time>
      </trkpt>
      <trkpt lat="45.84761" lon="6.22953">
        <ele>891</ele>
        <time>2011-08-01T08:47:14Z</time>
      </trkpt>
      <trkpt lat="45.84773" lon="6.22932">
        <ele>888</ele>
        <time>2011-08-01T08:47:18Z</time>
      </trkpt>
      <trkpt lat="45.84774" lon="6.22918">
        <ele>887</ele>
        <time>2011-08-01T08:47:20Z</time>
      </trkpt>
      <trkpt lat="45.84768" lon="6.22882">
        <ele>880</ele>
        <time>2011-08-01T08:47:25Z</time>
      </trkpt>
      <trkpt lat="45.84766" lon="6.22868">
        <ele>879</ele>
        <time>2011-08-01T08:47:27Z</time>
      </trkpt>
      <trkpt lat="45.84765" lon="6.22846">
        <ele>875</ele>
        <time>2011-08-01T08:47:31Z</time>
      </trkpt>
      <trkpt lat="45.84765" lon="6.22837">
        <ele>874</ele>
        <time>2011-08-01T08:47:33Z</time>
      </trkpt>
      <trkpt lat="45.84766" lon="6.22833">
        <ele>870</ele>
        <time>2011-08-01T08:47:38Z</time>
      </trkpt>
      <trkpt lat="45.84766" lon="6.22833">
        <ele>870</ele>
        <time>2011-08-01T08:47:45Z</time>
      </trkpt>
      <trkpt lat="45.84765" lon="6.22834">
        <ele>874</ele>
        <time>2011-08-01T08:47:58Z</time>
      </trkpt>
      <trkpt lat="45.84764" lon="6.22832">
        <ele>869</ele>
        <time>2011-08-01T08:48:09Z</time>
      </trkpt>
      <trkpt lat="45.84766" lon="6.22832">
        <ele>870</ele>
        <time>2011-08-01T08:48:27Z</time>
      </trkpt>
      <trkpt lat="45.84766" lon="6.22831">
        <ele>870</ele>
        <time>2011-08-01T08:48:28Z</time>
      </trkpt>
      <trkpt lat="45.84776" lon="6.22814">
        <ele>872</ele>
        <time>2011-08-01T08:48:34Z</time>
      </trkpt>
      <trkpt lat="45.84795" lon="6.22791">
        <ele>874</ele>
        <time>2011-08-01T08:48:41Z</time>
      </trkpt>
      <trkpt lat="45.84809" lon="6.22771">
        <ele>876</ele>
        <time>2011-08-01T08:48:47Z</time>
      </trkpt>
      <trkpt lat="45.84821" lon="6.2277">
        <ele>878</ele>
        <time>2011-08-01T08:48:51Z</time>
      </trkpt>
      <trkpt lat="45.84824" lon="6.22783">
        <ele>878</ele>
        <time>2011-08-01T08:48:55Z</time>
      </trkpt>
      <trkpt lat="45.84815" lon="6.22804">
        <ele>879</ele>
        <time>2011-08-01T08:49:00Z</time>
      </trkpt>
      <trkpt lat="45.84798" lon="6.22819">
        <ele>877</ele>
        <time>2011-08-01T08:49:06Z</time>
      </trkpt>
      <trkpt lat="45.84787" lon="6.22834">
        <ele>881</ele>
        <time>2011-08-01T08:49:11Z</time>
      </trkpt>
      <trkpt lat="45.84784" lon="6.22851">
        <ele>881</ele>
        <time>2011-08-01T08:49:15Z</time>
      </trkpt>
      <trkpt lat="45.84789" lon="6.22866">
        <ele>883</ele>
        <time>2011-08-01T08:49:19Z</time>
      </trkpt>
      <trkpt lat="45.848" lon="6.22868">
        <ele>885</ele>
        <time>2011-08-01T08:49:23Z</time>
      </trkpt>
      <trkpt lat="45.8481" lon="6.22857">
        <ele>887</ele>
        <time>2011-08-01T08:49:28Z</time>
      </trkpt>
      <trkpt lat="45.84821" lon="6.22831">
        <ele>886</ele>
        <time>2011-08-01T08:49:35Z</time>
      </trkpt>
      <trkpt lat="45.84834" lon="6.22818">
        <ele>897</ele>
        <time>2011-08-01T08:49:41Z</time>
      </trkpt>
      <trkpt lat="45.84852" lon="6.22801">
        <ele>899</ele>
        <time>2011-08-01T08:49:49Z</time>
      </trkpt>
      <trkpt lat="45.84869" lon="6.22785">
        <ele>900</ele>
        <time>2011-08-01T08:49:56Z</time>
      </trkpt>
      <trkpt lat="45.84889" lon="6.22766">
        <ele>903</ele>
        <time>2011-08-01T08:50:04Z</time>
      </trkpt>
      <trkpt lat="45.84903" lon="6.22755">
        <ele>905</ele>
        <time>2011-08-01T08:50:10Z</time>
      </trkpt>
      <trkpt lat="45.84917" lon="6.22743">
        <ele>907</ele>
        <time>2011-08-01T08:50:17Z</time>
      </trkpt>
      <trkpt lat="45.84931" lon="6.22734">
        <ele>906</ele>
        <time>2011-08-01T08:50:23Z</time>
      </trkpt>
      <trkpt lat="45.84946" lon="6.22727">
        <ele>907</ele>
        <time>2011-08-01T08:50:29Z</time>
      </trkpt>
      <trkpt lat="45.84958" lon="6.22723">
        <ele>907</ele>
        <time>2011-08-01T08:50:34Z</time>
      </trkpt>
      <trkpt lat="45.84977" lon="6.22715">
        <ele>908</ele>
        <time>2011-08-01T08:50:41Z</time>
      </trkpt>
      <trkpt lat="45.84996" lon="6.22704">
        <ele>908</ele>
        <time>2011-08-01T08:50:48Z</time>
      </trkpt>
      <trkpt lat="45.85011" lon="6.2271">
        <ele>918</ele>
        <time>2011-08-01T08:50:53Z</time>
      </trkpt>
      <trkpt lat="45.85016" lon="6.22711">
        <ele>918</ele>
        <time>2011-08-01T08:50:57Z</time>
      </trkpt>
      <trkpt lat="45.85013" lon="6.22706">
        <ele>917</ele>
        <time>2011-08-01T08:51:03Z</time>
      </trkpt>
      <trkpt lat="45.85012" lon="6.22716">
        <ele>919</ele>
        <time>2011-08-01T08:51:06Z</time>
      </trkpt>
      <trkpt lat="45.85009" lon="6.22731">
        <ele>920</ele>
        <time>2011-08-01T08:51:10Z</time>
      </trkpt>
      <trkpt lat="45.84998" lon="6.22741">
        <ele>917</ele>
        <time>2011-08-01T08:51:15Z</time>
      </trkpt>
      <trkpt lat="45.84983" lon="6.22749">
        <ele>914</ele>
        <time>2011-08-01T08:51:22Z</time>
      </trkpt>
      <trkpt lat="45.84976" lon="6.2275">
        <ele>922</ele>
        <time>2011-08-01T08:51:27Z</time>
      </trkpt>
      <trkpt lat="45.84979" lon="6.22751">
        <ele>922</ele>
        <time>2011-08-01T08:51:32Z</time>
      </trkpt>
      <trkpt lat="45.84989" lon="6.22746">
        <ele>916</ele>
        <time>2011-08-01T08:51:35Z</time>
      </trkpt>
      <trkpt lat="45.85011" lon="6.22731">
        <ele>920</ele>
        <time>2011-08-01T08:51:41Z</time>
      </trkpt>
      <trkpt lat="45.85013" lon="6.22714">
        <ele>919</ele>
        <time>2011-08-01T08:51:44Z</time>
      </trkpt>
      <trkpt lat="45.85003" lon="6.22702">
        <ele>916</ele>
        <time>2011-08-01T08:51:48Z</time>
      </trkpt>
      <trkpt lat="45.84988" lon="6.22706">
        <ele>908</ele>
        <time>2011-08-01T08:51:52Z</time>
      </trkpt>
      <trkpt lat="45.84972" lon="6.22718">
        <ele>908</ele>
        <time>2011-08-01T08:51:57Z</time>
      </trkpt>
      <trkpt lat="45.84959" lon="6.22722">
        <ele>907</ele>
        <time>2011-08-01T08:52:02Z</time>
      </trkpt>
      <trkpt lat="45.84958" lon="6.2272">
        <ele>907</ele>
        <time>2011-08-01T08:52:04Z</time>
      </trkpt>
      <trkpt lat="45.84959" lon="6.22712">
        <ele>906</ele>
        <time>2011-08-01T08:52:08Z</time>
      </trkpt>
      <trkpt lat="45.84958" lon="6.22709">
        <ele>906</ele>
        <time>2011-08-01T08:52:11Z</time>
      </trkpt>
      <trkpt lat="45.84947" lon="6.227">
        <ele>904</ele>
        <time>2011-08-01T08:52:16Z</time>
      </trkpt>
      <trkpt lat="45.8494" lon="6.2268">
        <ele>901</ele>
        <time>2011-08-01T08:52:20Z</time>
      </trkpt>
      <trkpt lat="45.84941" lon="6.22671">
        <ele>900</ele>
        <time>2011-08-01T08:52:22Z</time>
      </trkpt>
      <trkpt lat="45.8494" lon="6.22667">
        <ele>893</ele>
        <time>2011-08-01T08:52:27Z</time>
      </trkpt>
      <trkpt lat="45.84938" lon="6.22663">
        <ele>893</ele>
        <time>2011-08-01T08:52:31Z</time>
      </trkpt>
      <trkpt lat="45.84933" lon="6.2265">
        <ele>893</ele>
        <time>2011-08-01T08:52:36Z</time>
      </trkpt>
      <trkpt lat="45.8493" lon="6.22638">
        <ele>892</ele>
        <time>2011-08-01T08:52:41Z</time>
      </trkpt>
      <trkpt lat="45.84924" lon="6.22632">
        <ele>892</ele>
        <time>2011-08-01T08:52:45Z</time>
      </trkpt>
      <trkpt lat="45.84921" lon="6.22623">
        <ele>891</ele>
        <time>2011-08-01T08:52:51Z</time>
      </trkpt>
      <trkpt lat="45.84924" lon="6.22624">
        <ele>891</ele>
        <time>2011-08-01T08:52:56Z</time>
      </trkpt>
      <trkpt lat="45.84925" lon="6.22625">
        <ele>892</ele>
        <time>2011-08-01T08:52:57Z</time>
      </trkpt>
      <trkpt lat="45.84937" lon="6.2264">
        <ele>893</ele>
        <time>2011-08-01T08:53:04Z</time>
      </trkpt>
      <trkpt lat="45.84951" lon="6.2265">
        <ele>894</ele>
        <time>2011-08-01T08:53:09Z</time>
      </trkpt>
      <trkpt lat="45.84957" lon="6.22647">
        <ele>895</ele>
        <time>2011-08-01T08:53:12Z</time>
      </trkpt>
      <trkpt lat="45.84969" lon="6.2265">
        <ele>896</ele>
        <time>2011-08-01T08:53:18Z</time>
      </trkpt>
      <trkpt lat="45.84971" lon="6.2265">
        <ele>896</ele>
        <time>2011-08-01T08:53:21Z</time>
      </trkpt>
      <trkpt lat="45.84976" lon="6.22648">
        <ele>897</ele>
        <time>2011-08-01T08:53:25Z</time>
      </trkpt>
      <trkpt lat="45.84989" lon="6.22653">
        <ele>899</ele>
        <time>2011-08-01T08:53:34Z</time>
      </trkpt>
      <trkpt lat="45.84994" lon="6.22656">
        <ele>900</ele>
        <time>2011-08-01T08:53:39Z</time>
      </trkpt>
      <trkpt lat="45.85002" lon="6.22666">
        <ele>904</ele>
        <time>2011-08-01T08:53:46Z</time>
      </trkpt>
      <trkpt lat="45.85009" lon="6.22669">
        <ele>909</ele>
        <time>2011-08-01T08:53:53Z</time>
      </trkpt>
      <trkpt lat="45.85019" lon="6.2267">
        <ele>912</ele>
        <time>2011-08-01T08:54:06Z</time>
      </trkpt>
      <trkpt lat="45.8502" lon="6.22669">
        <ele>913</ele>
        <time>2011-08-01T08:54:12Z</time>
      </trkpt>
      <trkpt lat="45.85025" lon="6.22676">
        <ele>915</ele>
        <time>2011-08-01T08:54:19Z</time>
      </trkpt>
      <trkpt lat="45.85034" lon="6.2268">
        <ele>917</ele>
        <time>2011-08-01T08:54:26Z</time>
      </trkpt>
      <trkpt lat="45.85035" lon="6.22683">
        <ele>917</ele>
        <time>2011-08-01T08:54:28Z</time>
      </trkpt>
      <trkpt lat="45.8504" lon="6.22682">
        <ele>918</ele>
        <time>2011-08-01T08:54:33Z</time>
      </trkpt>
      <trkpt lat="45.85046" lon="6.22681">
        <ele>918</ele>
        <time>2011-08-01T08:54:41Z</time>
      </trkpt>
      <trkpt lat="45.8505" lon="6.22679">
        <ele>919</ele>
        <time>2011-08-01T08:54:47Z</time>
      </trkpt>
      <trkpt lat="45.85052" lon="6.22672">
        <ele>919</ele>
        <time>2011-08-01T08:54:52Z</time>
      </trkpt>
      <trkpt lat="45.85054" lon="6.22663">
        <ele>913</ele>
        <time>2011-08-01T08:54:57Z</time>
      </trkpt>
      <trkpt lat="45.85054" lon="6.22657">
        <ele>912</ele>
        <time>2011-08-01T08:55:00Z</time>
      </trkpt>
      <trkpt lat="45.85054" lon="6.2265">
        <ele>912</ele>
        <time>2011-08-01T08:55:04Z</time>
      </trkpt>
      <trkpt lat="45.85055" lon="6.22636">
        <ele>911</ele>
        <time>2011-08-01T08:55:13Z</time>
      </trkpt>
      <trkpt lat="45.85054" lon="6.22629">
        <ele>911</ele>
        <time>2011-08-01T08:55:20Z</time>
      </trkpt>
      <trkpt lat="45.85056" lon="6.22628">
        <ele>911</ele>
        <time>2011-08-01T08:55:22Z</time>
      </trkpt>
      <trkpt lat="45.85064" lon="6.22627">
        <ele>912</ele>
        <time>2011-08-01T08:55:28Z</time>
      </trkpt>
      <trkpt lat="45.85071" lon="6.2262">
        <ele>912</ele>
        <time>2011-08-01T08:55:35Z</time>
      </trkpt>
      <trkpt lat="45.85071" lon="6.22617">
        <ele>912</ele>
        <time>2011-08-01T08:55:37Z</time>
      </trkpt>
      <trkpt lat="45.85074" lon="6.22616">
        <ele>912</ele>
        <time>2011-08-01T08:55:41Z</time>
      </trkpt>
      <trkpt lat="45.85081" lon="6.22615">
        <ele>912</ele>
        <time>2011-08-01T08:55:48Z</time>
      </trkpt>
      <trkpt lat="45.85086" lon="6.22613">
        <ele>924</ele>
        <time>2011-08-01T08:55:55Z</time>
      </trkpt>
      <trkpt lat="45.85091" lon="6.2261">
        <ele>924</ele>
        <time>2011-08-01T08:56:01Z</time>
      </trkpt>
      <trkpt lat="45.85095" lon="6.22609">
        <ele>924</ele>
        <time>2011-08-01T08:56:07Z</time>
      </trkpt>
      <trkpt lat="45.85099" lon="6.22607">
        <ele>925</ele>
        <time>2011-08-01T08:56:13Z</time>
      </trkpt>
      <trkpt lat="45.85102" lon="6.22608">
        <ele>925</ele>
        <time>2011-08-01T08:56:18Z</time>
      </trkpt>
      <trkpt lat="45.8511" lon="6.22611">
        <ele>927</ele>
        <time>2011-08-01T08:56:24Z</time>
      </trkpt>
      <trkpt lat="45.85119" lon="6.22608">
        <ele>928</ele>
        <time>2011-08-01T08:56:34Z</time>
      </trkpt>
      <trkpt lat="45.85124" lon="6.22608">
        <ele>929</ele>
        <time>2011-08-01T08:56:40Z</time>
      </trkpt>
      <trkpt lat="45.8513" lon="6.22606">
        <ele>930</ele>
        <time>2011-08-01T08:56:46Z</time>
      </trkpt>
      <trkpt lat="45.85134" lon="6.22601">
        <ele>931</ele>
        <time>2011-08-01T08:56:52Z</time>
      </trkpt>
      <trkpt lat="45.85139" lon="6.22598">
        <ele>932</ele>
        <time>2011-08-01T08:57:00Z</time>
      </trkpt>
      <trkpt lat="45.85143" lon="6.22589">
        <ele>933</ele>
        <time>2011-08-01T08:57:09Z</time>
      </trkpt>
      <trkpt lat="45.85149" lon="6.22589">
        <ele>934</ele>
        <time>2011-08-01T08:57:15Z</time>
      </trkpt>
      <trkpt lat="45.8515" lon="6.22587">
        <ele>935</ele>
        <time>2011-08-01T08:57:16Z</time>
      </trkpt>
      <trkpt lat="45.85157" lon="6.22581">
        <ele>937</ele>
        <time>2011-08-01T08:57:24Z</time>
      </trkpt>
      <trkpt lat="45.8516" lon="6.22579">
        <ele>938</ele>
        <time>2011-08-01T08:57:30Z</time>
      </trkpt>
      <trkpt lat="45.85162" lon="6.22579">
        <ele>939</ele>
        <time>2011-08-01T08:57:32Z</time>
      </trkpt>
      <trkpt lat="45.85168" lon="6.22579">
        <ele>943</ele>
        <time>2011-08-01T08:57:36Z</time>
      </trkpt>
      <trkpt lat="45.85173" lon="6.22575">
        <ele>945</ele>
        <time>2011-08-01T08:57:44Z</time>
      </trkpt>
      <trkpt lat="45.85178" lon="6.22572">
        <ele>947</ele>
        <time>2011-08-01T08:57:50Z</time>
      </trkpt>
      <trkpt lat="45.85184" lon="6.22571">
        <ele>948</ele>
        <time>2011-08-01T08:57:55Z</time>
      </trkpt>
      <trkpt lat="45.85185" lon="6.22569">
        <ele>949</ele>
        <time>2011-08-01T08:57:57Z</time>
      </trkpt>
      <trkpt lat="45.85188" lon="6.22565">
        <ele>949</ele>
        <time>2011-08-01T08:58:01Z</time>
      </trkpt>
      <trkpt lat="45.85192" lon="6.22564">
        <ele>950</ele>
        <time>2011-08-01T08:58:08Z</time>
      </trkpt>
      <trkpt lat="45.85198" lon="6.22562">
        <ele>951</ele>
        <time>2011-08-01T08:58:14Z</time>
      </trkpt>
      <trkpt lat="45.85203" lon="6.22562">
        <ele>952</ele>
        <time>2011-08-01T08:58:20Z</time>
      </trkpt>
      <trkpt lat="45.85209" lon="6.22559">
        <ele>953</ele>
        <time>2011-08-01T08:58:27Z</time>
      </trkpt>
      <trkpt lat="45.85216" lon="6.22555">
        <ele>954</ele>
        <time>2011-08-01T08:58:34Z</time>
      </trkpt>
      <trkpt lat="45.85222" lon="6.22551">
        <ele>955</ele>
        <time>2011-08-01T08:58:40Z</time>
      </trkpt>
      <trkpt lat="45.85228" lon="6.22545">
        <ele>955</ele>
        <time>2011-08-01T08:58:47Z</time>
      </trkpt>
      <trkpt lat="45.85233" lon="6.22539">
        <ele>956</ele>
        <time>2011-08-01T08:58:55Z</time>
      </trkpt>
      <trkpt lat="45.85241" lon="6.22536">
        <ele>957</ele>
        <time>2011-08-01T08:59:02Z</time>
      </trkpt>
      <trkpt lat="45.85242" lon="6.22535">
        <ele>957</ele>
        <time>2011-08-01T08:59:03Z</time>
      </trkpt>
      <trkpt lat="45.85244" lon="6.22535">
        <ele>958</ele>
        <time>2011-08-01T08:59:05Z</time>
      </trkpt>
      <trkpt lat="45.85249" lon="6.22535">
        <ele>958</ele>
        <time>2011-08-01T08:59:10Z</time>
      </trkpt>
      <trkpt lat="45.85258" lon="6.2253">
        <ele>970</ele>
        <time>2011-08-01T08:59:19Z</time>
      </trkpt>
      <trkpt lat="45.85263" lon="6.22529">
        <ele>971</ele>
        <time>2011-08-01T08:59:24Z</time>
      </trkpt>
      <trkpt lat="45.85268" lon="6.22531">
        <ele>971</ele>
        <time>2011-08-01T08:59:31Z</time>
      </trkpt>
      <trkpt lat="45.85283" lon="6.22533">
        <ele>973</ele>
        <time>2011-08-01T08:59:38Z</time>
      </trkpt>
      <trkpt lat="45.85283" lon="6.22531">
        <ele>973</ele>
        <time>2011-08-01T08:59:41Z</time>
      </trkpt>
      <trkpt lat="45.85281" lon="6.22515">
        <ele>972</ele>
        <time>2011-08-01T08:59:47Z</time>
      </trkpt>
      <trkpt lat="45.85281" lon="6.22503">
        <ele>972</ele>
        <time>2011-08-01T08:59:51Z</time>
      </trkpt>
      <trkpt lat="45.85279" lon="6.22499">
        <ele>973</ele>
        <time>2011-08-01T08:59:52Z</time>
      </trkpt>
      <trkpt lat="45.8527" lon="6.22467">
        <ele>973</ele>
        <time>2011-08-01T08:59:59Z</time>
      </trkpt>
      <trkpt lat="45.85267" lon="6.22446">
        <ele>973</ele>
        <time>2011-08-01T09:00:03Z</time>
      </trkpt>
      <trkpt lat="45.85265" lon="6.22416">
        <ele>970</ele>
        <time>2011-08-01T09:00:08Z</time>
      </trkpt>
      <trkpt lat="45.85265" lon="6.2241">
        <ele>970</ele>
        <time>2011-08-01T09:00:09Z</time>
      </trkpt>
      <trkpt lat="45.85268" lon="6.22383">
        <ele>970</ele>
        <time>2011-08-01T09:00:13Z</time>
      </trkpt>
      <trkpt lat="45.85283" lon="6.2236">
        <ele>970</ele>
        <time>2011-08-01T09:00:18Z</time>
      </trkpt>
      <trkpt lat="45.85285" lon="6.22357">
        <ele>970</ele>
        <time>2011-08-01T09:00:19Z</time>
      </trkpt>
      <trkpt lat="45.85304" lon="6.22339">
        <ele>970</ele>
        <time>2011-08-01T09:00:24Z</time>
      </trkpt>
      <trkpt lat="45.85327" lon="6.22321">
        <ele>960</ele>
        <time>2011-08-01T09:00:30Z</time>
      </trkpt>
      <trkpt lat="45.85344" lon="6.2231">
        <ele>964</ele>
        <time>2011-08-01T09:00:36Z</time>
      </trkpt>
      <trkpt lat="45.85351" lon="6.2231">
        <ele>965</ele>
        <time>2011-08-01T09:00:39Z</time>
      </trkpt>
      <trkpt lat="45.85358" lon="6.22304">
        <ele>964</ele>
        <time>2011-08-01T09:00:45Z</time>
      </trkpt>
      <trkpt lat="45.85367" lon="6.22298">
        <ele>964</ele>
        <time>2011-08-01T09:00:50Z</time>
      </trkpt>
      <trkpt lat="45.85375" lon="6.22287">
        <ele>963</ele>
        <time>2011-08-01T09:00:55Z</time>
      </trkpt>
      <trkpt lat="45.85388" lon="6.22277">
        <ele>964</ele>
        <time>2011-08-01T09:01:01Z</time>
      </trkpt>
      <trkpt lat="45.85404" lon="6.22273">
        <ele>965</ele>
        <time>2011-08-01T09:01:07Z</time>
      </trkpt>
      <trkpt lat="45.85415" lon="6.22266">
        <ele>965</ele>
        <time>2011-08-01T09:01:12Z</time>
      </trkpt>
      <trkpt lat="45.85431" lon="6.22261">
        <ele>974</ele>
        <time>2011-08-01T09:01:18Z</time>
      </trkpt>
      <trkpt lat="45.85443" lon="6.22255">
        <ele>976</ele>
        <time>2011-08-01T09:01:24Z</time>
      </trkpt>
      <trkpt lat="45.85456" lon="6.22249">
        <ele>959</ele>
        <time>2011-08-01T09:01:31Z</time>
      </trkpt>
      <trkpt lat="45.85465" lon="6.22243">
        <ele>960</ele>
        <time>2011-08-01T09:01:38Z</time>
      </trkpt>
      <trkpt lat="45.85472" lon="6.2224">
        <ele>961</ele>
        <time>2011-08-01T09:01:44Z</time>
      </trkpt>
      <trkpt lat="45.8548" lon="6.22237">
        <ele>963</ele>
        <time>2011-08-01T09:01:50Z</time>
      </trkpt>
      <trkpt lat="45.85484" lon="6.22234">
        <ele>963</ele>
        <time>2011-08-01T09:01:54Z</time>
      </trkpt>
      <trkpt lat="45.85491" lon="6.22229">
        <ele>963</ele>
        <time>2011-08-01T09:01:59Z</time>
      </trkpt>
      <trkpt lat="45.85498" lon="6.22223">
        <ele>961</ele>
        <time>2011-08-01T09:02:05Z</time>
      </trkpt>
      <trkpt lat="45.85501" lon="6.22222">
        <ele>968</ele>
        <time>2011-08-01T09:02:07Z</time>
      </trkpt>
      <trkpt lat="45.85517" lon="6.22221">
        <ele>968</ele>
        <time>2011-08-01T09:02:15Z</time>
      </trkpt>
      <trkpt lat="45.8553" lon="6.22217">
        <ele>967</ele>
        <time>2011-08-01T09:02:21Z</time>
      </trkpt>
      <trkpt lat="45.85542" lon="6.22223">
        <ele>967</ele>
        <time>2011-08-01T09:02:25Z</time>
      </trkpt>
      <trkpt lat="45.85563" lon="6.22232">
        <ele>970</ele>
        <time>2011-08-01T09:02:29Z</time>
      </trkpt>
      <trkpt lat="45.85589" lon="6.22251">
        <ele>977</ele>
        <time>2011-08-01T09:02:35Z</time>
      </trkpt>
      <trkpt lat="45.85597" lon="6.22255">
        <ele>977</ele>
        <time>2011-08-01T09:02:37Z</time>
      </trkpt>
      <trkpt lat="45.85614" lon="6.22257">
        <ele>975</ele>
        <time>2011-08-01T09:02:42Z</time>
      </trkpt>
      <trkpt lat="45.85624" lon="6.22258">
        <ele>974</ele>
        <time>2011-08-01T09:02:45Z</time>
      </trkpt>
      <trkpt lat="45.85646" lon="6.22258">
        <ele>970</ele>
        <time>2011-08-01T09:02:51Z</time>
      </trkpt>
      <trkpt lat="45.85649" lon="6.22258">
        <ele>970</ele>
        <time>2011-08-01T09:02:52Z</time>
      </trkpt>
      <trkpt lat="45.85655" lon="6.22247">
        <ele>962</ele>
        <time>2011-08-01T09:02:57Z</time>
      </trkpt>
      <trkpt lat="45.8565" lon="6.22239">
        <ele>961</ele>
        <time>2011-08-01T09:02:59Z</time>
      </trkpt>
      <trkpt lat="45.85633" lon="6.22218">
        <ele>961</ele>
        <time>2011-08-01T09:03:04Z</time>
      </trkpt>
      <trkpt lat="45.85629" lon="6.22211">
        <ele>960</ele>
        <time>2011-08-01T09:03:07Z</time>
      </trkpt>
      <trkpt lat="45.8562" lon="6.222">
        <ele>960</ele>
        <time>2011-08-01T09:03:12Z</time>
      </trkpt>
      <trkpt lat="45.85617" lon="6.22195">
        <ele>959</ele>
        <time>2011-08-01T09:03:13Z</time>
      </trkpt>
      <trkpt lat="45.85614" lon="6.22182">
        <ele>958</ele>
        <time>2011-08-01T09:03:16Z</time>
      </trkpt>
      <trkpt lat="45.85623" lon="6.2218">
        <ele>957</ele>
        <time>2011-08-01T09:03:20Z</time>
      </trkpt>
      <trkpt lat="45.85649" lon="6.22195">
        <ele>956</ele>
        <time>2011-08-01T09:03:26Z</time>
      </trkpt>
      <trkpt lat="45.85668" lon="6.2221">
        <ele>944</ele>
        <time>2011-08-01T09:03:30Z</time>
      </trkpt>
      <trkpt lat="45.85685" lon="6.22227">
        <ele>946</ele>
        <time>2011-08-01T09:03:35Z</time>
      </trkpt>
      <trkpt lat="45.85701" lon="6.22248">
        <ele>944</ele>
        <time>2011-08-01T09:03:40Z</time>
      </trkpt>
      <trkpt lat="45.85716" lon="6.2227">
        <ele>954</ele>
        <time>2011-08-01T09:03:46Z</time>
      </trkpt>
      <trkpt lat="45.85717" lon="6.22273">
        <ele>954</ele>
        <time>2011-08-01T09:03:47Z</time>
      </trkpt>
      <trkpt lat="45.85729" lon="6.22286">
        <ele>954</ele>
        <time>2011-08-01T09:03:52Z</time>
      </trkpt>
      <trkpt lat="45.85732" lon="6.22293">
        <ele>954</ele>
        <time>2011-08-01T09:03:54Z</time>
      </trkpt>
      <trkpt lat="45.85736" lon="6.22307">
        <ele>956</ele>
        <time>2011-08-01T09:03:58Z</time>
      </trkpt>
      <trkpt lat="45.85733" lon="6.22334">
        <ele>962</ele>
        <time>2011-08-01T09:04:05Z</time>
      </trkpt>
      <trkpt lat="45.85732" lon="6.22337">
        <ele>962</ele>
        <time>2011-08-01T09:04:09Z</time>
      </trkpt>
      <trkpt lat="45.85729" lon="6.22344">
        <ele>963</ele>
        <time>2011-08-01T09:04:17Z</time>
      </trkpt>
      <trkpt lat="45.85726" lon="6.22362">
        <ele>965</ele>
        <time>2011-08-01T09:04:22Z</time>
      </trkpt>
      <trkpt lat="45.8572" lon="6.22384">
        <ele>966</ele>
        <time>2011-08-01T09:04:28Z</time>
      </trkpt>
      <trkpt lat="45.85719" lon="6.22386">
        <ele>967</ele>
        <time>2011-08-01T09:04:32Z</time>
      </trkpt>
      <trkpt lat="45.85721" lon="6.22383">
        <ele>966</ele>
        <time>2011-08-01T09:04:39Z</time>
      </trkpt>
      <trkpt lat="45.85727" lon="6.22365">
        <ele>965</ele>
        <time>2011-08-01T09:04:45Z</time>
      </trkpt>
      <trkpt lat="45.85727" lon="6.22357">
        <ele>965</ele>
        <time>2011-08-01T09:04:47Z</time>
      </trkpt>
      <trkpt lat="45.85729" lon="6.22359">
        <ele>964</ele>
        <time>2011-08-01T09:04:54Z</time>
      </trkpt>
      <trkpt lat="45.85732" lon="6.22365">
        <ele>965</ele>
        <time>2011-08-01T09:04:59Z</time>
      </trkpt>
      <trkpt lat="45.85732" lon="6.22369">
        <ele>965</ele>
        <time>2011-08-01T09:05:01Z</time>
      </trkpt>
      <trkpt lat="45.85736" lon="6.22386">
        <ele>965</ele>
        <time>2011-08-01T09:05:07Z</time>
      </trkpt>
      <trkpt lat="45.85737" lon="6.2239">
        <ele>965</ele>
        <time>2011-08-01T09:05:08Z</time>
      </trkpt>
      <trkpt lat="45.85737" lon="6.22407">
        <ele>964</ele>
        <time>2011-08-01T09:05:14Z</time>
      </trkpt>
      <trkpt lat="45.85741" lon="6.22418">
        <ele>962</ele>
        <time>2011-08-01T09:05:18Z</time>
      </trkpt>
      <trkpt lat="45.85744" lon="6.22429">
        <ele>963</ele>
        <time>2011-08-01T09:05:23Z</time>
      </trkpt>
      <trkpt lat="45.85746" lon="6.22434">
        <ele>963</ele>
        <time>2011-08-01T09:05:29Z</time>
      </trkpt>
      <trkpt lat="45.8575" lon="6.22444">
        <ele>963</ele>
        <time>2011-08-01T09:05:35Z</time>
      </trkpt>
      <trkpt lat="45.85754" lon="6.22455">
        <ele>945</ele>
        <time>2011-08-01T09:05:41Z</time>
      </trkpt>
      <trkpt lat="45.85757" lon="6.22464">
        <ele>944</ele>
        <time>2011-08-01T09:05:45Z</time>
      </trkpt>
      <trkpt lat="45.85759" lon="6.2248">
        <ele>944</ele>
        <time>2011-08-01T09:05:50Z</time>
      </trkpt>
      <trkpt lat="45.8576" lon="6.22488">
        <ele>945</ele>
        <time>2011-08-01T09:05:54Z</time>
      </trkpt>
      <trkpt lat="45.85757" lon="6.2249">
        <ele>946</ele>
        <time>2011-08-01T09:05:56Z</time>
      </trkpt>
      <trkpt lat="45.85757" lon="6.22493">
        <ele>947</ele>
        <time>2011-08-01T09:06:03Z</time>
      </trkpt>
      <trkpt lat="45.85761" lon="6.22495">
        <ele>946</ele>
        <time>2011-08-01T09:06:08Z</time>
      </trkpt>
      <trkpt lat="45.85769" lon="6.22491">
        <ele>943</ele>
        <time>2011-08-01T09:06:13Z</time>
      </trkpt>
      <trkpt lat="45.8578" lon="6.22486">
        <ele>940</ele>
        <time>2011-08-01T09:06:18Z</time>
      </trkpt>
      <trkpt lat="45.85787" lon="6.22484">
        <ele>938</ele>
        <time>2011-08-01T09:06:22Z</time>
      </trkpt>
      <trkpt lat="45.85788" lon="6.22487">
        <ele>938</ele>
        <time>2011-08-01T09:06:26Z</time>
      </trkpt>
      <trkpt lat="45.85781" lon="6.22501">
        <ele>935</ele>
        <time>2011-08-01T09:06:31Z</time>
      </trkpt>
      <trkpt lat="45.85772" lon="6.22516">
        <ele>937</ele>
        <time>2011-08-01T09:06:36Z</time>
      </trkpt>
      <trkpt lat="45.85767" lon="6.22519">
        <ele>937</ele>
        <time>2011-08-01T09:06:41Z</time>
      </trkpt>
      <trkpt lat="45.85769" lon="6.22515">
        <ele>938</ele>
        <time>2011-08-01T09:06:47Z</time>
      </trkpt>
      <trkpt lat="45.85781" lon="6.22505">
        <ele>935</ele>
        <time>2011-08-01T09:06:54Z</time>
      </trkpt>
      <trkpt lat="45.8578" lon="6.225">
        <ele>936</ele>
        <time>2011-08-01T09:06:57Z</time>
      </trkpt>
      <trkpt lat="45.8579" lon="6.22496">
        <ele>937</ele>
        <time>2011-08-01T09:07:04Z</time>
      </trkpt>
      <trkpt lat="45.85795" lon="6.22494">
        <ele>936</ele>
        <time>2011-08-01T09:07:10Z</time>
      </trkpt>
      <trkpt lat="45.85795" lon="6.22497">
        <ele>936</ele>
        <time>2011-08-01T09:07:16Z</time>
      </trkpt>
      <trkpt lat="45.85792" lon="6.22502">
        <ele>932</ele>
        <time>2011-08-01T09:07:20Z</time>
      </trkpt>
      <trkpt lat="45.8579" lon="6.22503">
        <ele>932</ele>
        <time>2011-08-01T09:07:21Z</time>
      </trkpt>
      <trkpt lat="45.85795" lon="6.22514">
        <ele>931</ele>
        <time>2011-08-01T09:07:25Z</time>
      </trkpt>
      <trkpt lat="45.85802" lon="6.22527">
        <ele>929</ele>
        <time>2011-08-01T09:07:30Z</time>
      </trkpt>
      <trkpt lat="45.85809" lon="6.22533">
        <ele>928</ele>
        <time>2011-08-01T09:07:36Z</time>
      </trkpt>
      <trkpt lat="45.8581" lon="6.22522">
        <ele>927</ele>
        <time>2011-08-01T09:07:42Z</time>
      </trkpt>
      <trkpt lat="45.85812" lon="6.22513">
        <ele>927</ele>
        <time>2011-08-01T09:07:49Z</time>
      </trkpt>
      <trkpt lat="45.85813" lon="6.22515">
        <ele>927</ele>
        <time>2011-08-01T09:07:58Z</time>
      </trkpt>
      <trkpt lat="45.85825" lon="6.22529">
        <ele>926</ele>
        <time>2011-08-01T09:08:04Z</time>
      </trkpt>
      <trkpt lat="45.85824" lon="6.22531">
        <ele>926</ele>
        <time>2011-08-01T09:08:08Z</time>
      </trkpt>
      <trkpt lat="45.85822" lon="6.22537">
        <ele>926</ele>
        <time>2011-08-01T09:08:14Z</time>
      </trkpt>
      <trkpt lat="45.85828" lon="6.22536">
        <ele>925</ele>
        <time>2011-08-01T09:08:21Z</time>
      </trkpt>
      <trkpt lat="45.8583" lon="6.22527">
        <ele>925</ele>
        <time>2011-08-01T09:08:26Z</time>
      </trkpt>
      <trkpt lat="45.85827" lon="6.22518">
        <ele>924</ele>
        <time>2011-08-01T09:08:30Z</time>
      </trkpt>
      <trkpt lat="45.85822" lon="6.22508">
        <ele>924</ele>
        <time>2011-08-01T09:08:35Z</time>
      </trkpt>
      <trkpt lat="45.85836" lon="6.22511">
        <ele>911</ele>
        <time>2011-08-01T09:08:44Z</time>
      </trkpt>
      <trkpt lat="45.85835" lon="6.22512">
        <ele>910</ele>
        <time>2011-08-01T09:08:45Z</time>
      </trkpt>
      <trkpt lat="45.85843" lon="6.22524">
        <ele>905</ele>
        <time>2011-08-01T09:08:51Z</time>
      </trkpt>
      <trkpt lat="45.85846" lon="6.22532">
        <ele>903</ele>
        <time>2011-08-01T09:08:56Z</time>
      </trkpt>
      <trkpt lat="45.85851" lon="6.22538">
        <ele>902</ele>
        <time>2011-08-01T09:09:07Z</time>
      </trkpt>
      <trkpt lat="45.85853" lon="6.22537">
        <ele>901</ele>
        <time>2011-08-01T09:09:13Z</time>
      </trkpt>
      <trkpt lat="45.85854" lon="6.22537">
        <ele>901</ele>
        <time>2011-08-01T09:09:14Z</time>
      </trkpt>
      <trkpt lat="45.85859" lon="6.22535">
        <ele>900</ele>
        <time>2011-08-01T09:09:20Z</time>
      </trkpt>
      <trkpt lat="45.85857" lon="6.22527">
        <ele>901</ele>
        <time>2011-08-01T09:09:25Z</time>
      </trkpt>
      <trkpt lat="45.85852" lon="6.22519">
        <ele>904</ele>
        <time>2011-08-01T09:09:28Z</time>
      </trkpt>
      <trkpt lat="45.85851" lon="6.22517">
        <ele>904</ele>
        <time>2011-08-01T09:09:30Z</time>
      </trkpt>
      <trkpt lat="45.85852" lon="6.22506">
        <ele>906</ele>
        <time>2011-08-01T09:09:38Z</time>
      </trkpt>
      <trkpt lat="45.85853" lon="6.22509">
        <ele>905</ele>
        <time>2011-08-01T09:09:49Z</time>
      </trkpt>
      <trkpt lat="45.85853" lon="6.22508">
        <ele>905</ele>
        <time>2011-08-01T09:09:52Z</time>
      </trkpt>
      <trkpt lat="45.8587" lon="6.22518">
        <ele>898</ele>
        <time>2011-08-01T09:09:59Z</time>
      </trkpt>
      <trkpt lat="45.85883" lon="6.22526">
        <ele>894</ele>
        <time>2011-08-01T09:10:04Z</time>
      </trkpt>
      <trkpt lat="45.85886" lon="6.22527">
        <ele>893</ele>
        <time>2011-08-01T09:10:08Z</time>
      </trkpt>
      <trkpt lat="45.85888" lon="6.22527">
        <ele>893</ele>
        <time>2011-08-01T09:10:19Z</time>
      </trkpt>
      <trkpt lat="45.85883" lon="6.22525">
        <ele>894</ele>
        <time>2011-08-01T09:10:41Z</time>
      </trkpt>
      <trkpt lat="45.85886" lon="6.22523">
        <ele>893</ele>
        <time>2011-08-01T09:10:52Z</time>
      </trkpt>
      <trkpt lat="45.85888" lon="6.22522">
        <ele>893</ele>
        <time>2011-08-01T09:10:55Z</time>
      </trkpt>
      <trkpt lat="45.85885" lon="6.2252">
        <ele>893</ele>
        <time>2011-08-01T09:11:04Z</time>
      </trkpt>
      <trkpt lat="45.85883" lon="6.2252">
        <ele>894</ele>
        <time>2011-08-01T09:11:11Z</time>
      </trkpt>
      <trkpt lat="45.85878" lon="6.22512">
        <ele>895</ele>
        <time>2011-08-01T09:11:18Z</time>
      </trkpt>
      <trkpt lat="45.85869" lon="6.22508">
        <ele>899</ele>
        <time>2011-08-01T09:11:26Z</time>
      </trkpt>
      <trkpt lat="45.85872" lon="6.22508">
        <ele>898</ele>
        <time>2011-08-01T09:11:28Z</time>
      </trkpt>
      <trkpt lat="45.85881" lon="6.22512">
        <ele>894</ele>
        <time>2011-08-01T09:11:35Z</time>
      </trkpt>
      <trkpt lat="45.85882" lon="6.22512">
        <ele>894</ele>
        <time>2011-08-01T09:11:36Z</time>
      </trkpt>
      <trkpt lat="45.85889" lon="6.22506">
        <ele>891</ele>
        <time>2011-08-01T09:11:41Z</time>
      </trkpt>
      <trkpt lat="45.85891" lon="6.22497">
        <ele>889</ele>
        <time>2011-08-01T09:11:46Z</time>
      </trkpt>
      <trkpt lat="45.85894" lon="6.22488">
        <ele>888</ele>
        <time>2011-08-01T09:11:50Z</time>
      </trkpt>
      <trkpt lat="45.85899" lon="6.22477">
        <ele>888</ele>
        <time>2011-08-01T09:11:55Z</time>
      </trkpt>
      <trkpt lat="45.85902" lon="6.22468">
        <ele>888</ele>
        <time>2011-08-01T09:12:01Z</time>
      </trkpt>
      <trkpt lat="45.85903" lon="6.22465">
        <ele>888</ele>
        <time>2011-08-01T09:12:02Z</time>
      </trkpt>
      <trkpt lat="45.85907" lon="6.22446">
        <ele>885</ele>
        <time>2011-08-01T09:12:09Z</time>
      </trkpt>
      <trkpt lat="45.85905" lon="6.22438">
        <ele>883</ele>
        <time>2011-08-01T09:12:14Z</time>
      </trkpt>
      <trkpt lat="45.85906" lon="6.22436">
        <ele>883</ele>
        <time>2011-08-01T09:12:15Z</time>
      </trkpt>
      <trkpt lat="45.85903" lon="6.2243">
        <ele>882</ele>
        <time>2011-08-01T09:12:24Z</time>
      </trkpt>
      <trkpt lat="45.85902" lon="6.22427">
        <ele>881</ele>
        <time>2011-08-01T09:12:26Z</time>
      </trkpt>
      <trkpt lat="45.859" lon="6.22424">
        <ele>882</ele>
        <time>2011-08-01T09:12:33Z</time>
      </trkpt>
      <trkpt lat="45.85899" lon="6.22417">
        <ele>881</ele>
        <time>2011-08-01T09:12:39Z</time>
      </trkpt>
      <trkpt lat="45.85904" lon="6.22411">
        <ele>874</ele>
        <time>2011-08-01T09:12:48Z</time>
      </trkpt>
      <trkpt lat="45.859" lon="6.22408">
        <ele>877</ele>
        <time>2011-08-01T09:12:56Z</time>
      </trkpt>
      <trkpt lat="45.85896" lon="6.22397">
        <ele>879</ele>
        <time>2011-08-01T09:13:02Z</time>
      </trkpt>
      <trkpt lat="45.85896" lon="6.22393">
        <ele>879</ele>
        <time>2011-08-01T09:13:07Z</time>
      </trkpt>
      <trkpt lat="45.85896" lon="6.22387">
        <ele>879</ele>
        <time>2011-08-01T09:13:11Z</time>
      </trkpt>
      <trkpt lat="45.85893" lon="6.22387">
        <ele>880</ele>
        <time>2011-08-01T09:13:16Z</time>
      </trkpt>
      <trkpt lat="45.85895" lon="6.22384">
        <ele>880</ele>
        <time>2011-08-01T09:13:39Z</time>
      </trkpt>
      <trkpt lat="45.85891" lon="6.22387">
        <ele>881</ele>
        <time>2011-08-01T09:13:43Z</time>
      </trkpt>
      <trkpt lat="45.85886" lon="6.2239">
        <ele>883</ele>
        <time>2011-08-01T09:13:49Z</time>
      </trkpt>
      <trkpt lat="45.85885" lon="6.2239">
        <ele>883</ele>
        <time>2011-08-01T09:13:54Z</time>
      </trkpt>
      <trkpt lat="45.8589" lon="6.22387">
        <ele>881</ele>
        <time>2011-08-01T09:14:01Z</time>
      </trkpt>
      <trkpt lat="45.85893" lon="6.22382">
        <ele>880</ele>
        <time>2011-08-01T09:14:05Z</time>
      </trkpt>
      <trkpt lat="45.85895" lon="6.22378">
        <ele>879</ele>
        <time>2011-08-01T09:14:08Z</time>
      </trkpt>
      <trkpt lat="45.85895" lon="6.22377">
        <ele>879</ele>
        <time>2011-08-01T09:14:11Z</time>
      </trkpt>
      <trkpt lat="45.85896" lon="6.22375">
        <ele>879</ele>
        <time>2011-08-01T09:14:12Z</time>
      </trkpt>
      <trkpt lat="45.85891" lon="6.22369">
        <ele>879</ele>
        <time>2011-08-01T09:14:18Z</time>
      </trkpt>
      <trkpt lat="45.85891" lon="6.22368">
        <ele>879</ele>
        <time>2011-08-01T09:14:19Z</time>
      </trkpt>
      <trkpt lat="45.85884" lon="6.22354">
        <ele>879</ele>
        <time>2011-08-01T09:14:26Z</time>
      </trkpt>
      <trkpt lat="45.85884" lon="6.22346">
        <ele>879</ele>
        <time>2011-08-01T09:14:31Z</time>
      </trkpt>
      <trkpt lat="45.85887" lon="6.22341">
        <ele>876</ele>
        <time>2011-08-01T09:14:39Z</time>
      </trkpt>
      <trkpt lat="45.85888" lon="6.22341">
        <ele>876</ele>
        <time>2011-08-01T09:14:40Z</time>
      </trkpt>
      <trkpt lat="45.85888" lon="6.22332">
        <ele>866</ele>
        <time>2011-08-01T09:14:46Z</time>
      </trkpt>
      <trkpt lat="45.85886" lon="6.22323">
        <ele>867</ele>
        <time>2011-08-01T09:14:50Z</time>
      </trkpt>
      <trkpt lat="45.85888" lon="6.22323">
        <ele>866</ele>
        <time>2011-08-01T09:14:55Z</time>
      </trkpt>
      <trkpt lat="45.85891" lon="6.22328">
        <ele>865</ele>
        <time>2011-08-01T09:15:01Z</time>
      </trkpt>
      <trkpt lat="45.85891" lon="6.22324">
        <ele>865</ele>
        <time>2011-08-01T09:15:07Z</time>
      </trkpt>
      <trkpt lat="45.85891" lon="6.22317">
        <ele>865</ele>
        <time>2011-08-01T09:15:13Z</time>
      </trkpt>
      <trkpt lat="45.8589" lon="6.22313">
        <ele>866</ele>
        <time>2011-08-01T09:15:15Z</time>
      </trkpt>
      <trkpt lat="45.8589" lon="6.22299">
        <ele>865</ele>
        <time>2011-08-01T09:15:21Z</time>
      </trkpt>
      <trkpt lat="45.85891" lon="6.22294">
        <ele>865</ele>
        <time>2011-08-01T09:15:23Z</time>
      </trkpt>
      <trkpt lat="45.85892" lon="6.22284">
        <ele>863</ele>
        <time>2011-08-01T09:15:30Z</time>
      </trkpt>
      <trkpt lat="45.85892" lon="6.22282">
        <ele>863</ele>
        <time>2011-08-01T09:15:34Z</time>
      </trkpt>
      <trkpt lat="45.85889" lon="6.22277">
        <ele>863</ele>
        <time>2011-08-01T09:15:40Z</time>
      </trkpt>
      <trkpt lat="45.85889" lon="6.22269">
        <ele>862</ele>
        <time>2011-08-01T09:15:44Z</time>
      </trkpt>
      <trkpt lat="45.85889" lon="6.22265">
        <ele>861</ele>
        <time>2011-08-01T09:15:50Z</time>
      </trkpt>
      <trkpt lat="45.85887" lon="6.2226">
        <ele>862</ele>
        <time>2011-08-01T09:15:57Z</time>
      </trkpt>
      <trkpt lat="45.85886" lon="6.2225">
        <ele>861</ele>
        <time>2011-08-01T09:16:03Z</time>
      </trkpt>
      <trkpt lat="45.85883" lon="6.22244">
        <ele>852</ele>
        <time>2011-08-01T09:16:07Z</time>
      </trkpt>
      <trkpt lat="45.85882" lon="6.22231">
        <ele>852</ele>
        <time>2011-08-01T09:16:11Z</time>
      </trkpt>
      <trkpt lat="45.85882" lon="6.22224">
        <ele>851</ele>
        <time>2011-08-01T09:16:13Z</time>
      </trkpt>
      <trkpt lat="45.85883" lon="6.2222">
        <ele>850</ele>
        <time>2011-08-01T09:16:17Z</time>
      </trkpt>
      <trkpt lat="45.85883" lon="6.22193">
        <ele>847</ele>
        <time>2011-08-01T09:16:23Z</time>
      </trkpt>
      <trkpt lat="45.85882" lon="6.2219">
        <ele>846</ele>
        <time>2011-08-01T09:16:24Z</time>
      </trkpt>
      <trkpt lat="45.85879" lon="6.22178">
        <ele>846</ele>
        <time>2011-08-01T09:16:29Z</time>
      </trkpt>
      <trkpt lat="45.85881" lon="6.22175">
        <ele>845</ele>
        <time>2011-08-01T09:16:32Z</time>
      </trkpt>
      <trkpt lat="45.85883" lon="6.22175">
        <ele>844</ele>
        <time>2011-08-01T09:16:36Z</time>
      </trkpt>
      <trkpt lat="45.8588" lon="6.22182">
        <ele>846</ele>
        <time>2011-08-01T09:16:43Z</time>
      </trkpt>
      <trkpt lat="45.85883" lon="6.22195">
        <ele>847</ele>
        <time>2011-08-01T09:16:50Z</time>
      </trkpt>
      <trkpt lat="45.85881" lon="6.22205">
        <ele>849</ele>
        <time>2011-08-01T09:16:57Z</time>
      </trkpt>
      <trkpt lat="45.85881" lon="6.22212">
        <ele>850</ele>
        <time>2011-08-01T09:17:04Z</time>
      </trkpt>
      <trkpt lat="45.85882" lon="6.22226">
        <ele>851</ele>
        <time>2011-08-01T09:17:12Z</time>
      </trkpt>
      <trkpt lat="45.85882" lon="6.22238">
        <ele>852</ele>
        <time>2011-08-01T09:17:20Z</time>
      </trkpt>
      <trkpt lat="45.85886" lon="6.22244">
        <ele>850</ele>
        <time>2011-08-01T09:17:25Z</time>
      </trkpt>
      <trkpt lat="45.85889" lon="6.22255">
        <ele>860</ele>
        <time>2011-08-01T09:17:32Z</time>
      </trkpt>
      <trkpt lat="45.85889" lon="6.22265">
        <ele>861</ele>
        <time>2011-08-01T09:17:39Z</time>
      </trkpt>
      <trkpt lat="45.85887" lon="6.22272">
        <ele>863</ele>
        <time>2011-08-01T09:17:46Z</time>
      </trkpt>
      <trkpt lat="45.85887" lon="6.22284">
        <ele>865</ele>
        <time>2011-08-01T09:17:55Z</time>
      </trkpt>
      <trkpt lat="45.85886" lon="6.22292">
        <ele>866</ele>
        <time>2011-08-01T09:18:01Z</time>
      </trkpt>
      <trkpt lat="45.85886" lon="6.22302">
        <ele>867</ele>
        <time>2011-08-01T09:18:09Z</time>
      </trkpt>
      <trkpt lat="45.85886" lon="6.22307">
        <ele>867</ele>
        <time>2011-08-01T09:18:16Z</time>
      </trkpt>
      <trkpt lat="45.85887" lon="6.22316">
        <ele>867</ele>
        <time>2011-08-01T09:18:22Z</time>
      </trkpt>
      <trkpt lat="45.85887" lon="6.22325">
        <ele>867</ele>
        <time>2011-08-01T09:18:28Z</time>
      </trkpt>
      <trkpt lat="45.85885" lon="6.22322">
        <ele>867</ele>
        <time>2011-08-01T09:18:31Z</time>
      </trkpt>
      <trkpt lat="45.85884" lon="6.22323">
        <ele>868</ele>
        <time>2011-08-01T09:18:36Z</time>
      </trkpt>
      <trkpt lat="45.85886" lon="6.22333">
        <ele>867</ele>
        <time>2011-08-01T09:18:43Z</time>
      </trkpt>
      <trkpt lat="45.85886" lon="6.22337">
        <ele>876</ele>
        <time>2011-08-01T09:18:46Z</time>
      </trkpt>
      <trkpt lat="45.85886" lon="6.22342">
        <ele>877</ele>
        <time>2011-08-01T09:18:52Z</time>
      </trkpt>
      <trkpt lat="45.85889" lon="6.22348">
        <ele>876</ele>
        <time>2011-08-01T09:18:56Z</time>
      </trkpt>
      <trkpt lat="45.85894" lon="6.2236">
        <ele>876</ele>
        <time>2011-08-01T09:19:02Z</time>
      </trkpt>
      <trkpt lat="45.85898" lon="6.2237">
        <ele>878</ele>
        <time>2011-08-01T09:19:08Z</time>
      </trkpt>
      <trkpt lat="45.85899" lon="6.22372">
        <ele>878</ele>
        <time>2011-08-01T09:19:09Z</time>
      </trkpt>
      <trkpt lat="45.85907" lon="6.22391">
        <ele>877</ele>
        <time>2011-08-01T09:19:17Z</time>
      </trkpt>
      <trkpt lat="45.85915" lon="6.22402">
        <ele>873</ele>
        <time>2011-08-01T09:19:23Z</time>
      </trkpt>
      <trkpt lat="45.85919" lon="6.22411">
        <ele>860</ele>
        <time>2011-08-01T09:19:27Z</time>
      </trkpt>
      <trkpt lat="45.85928" lon="6.22427">
        <ele>861</ele>
        <time>2011-08-01T09:19:33Z</time>
      </trkpt>
      <trkpt lat="45.85938" lon="6.22437">
        <ele>858</ele>
        <time>2011-08-01T09:19:38Z</time>
      </trkpt>
      <trkpt lat="45.85941" lon="6.22437">
        <ele>857</ele>
        <time>2011-08-01T09:19:40Z</time>
      </trkpt>
      <trkpt lat="45.8594" lon="6.22427">
        <ele>858</ele>
        <time>2011-08-01T09:19:45Z</time>
      </trkpt>
      <trkpt lat="45.8594" lon="6.22401">
        <ele>848</ele>
        <time>2011-08-01T09:19:50Z</time>
      </trkpt>
      <trkpt lat="45.85942" lon="6.22375">
        <ele>843</ele>
        <time>2011-08-01T09:19:55Z</time>
      </trkpt>
      <trkpt lat="45.85944" lon="6.22364">
        <ele>842</ele>
        <time>2011-08-01T09:19:59Z</time>
      </trkpt>
      <trkpt lat="45.85944" lon="6.22362">
        <ele>842</ele>
        <time>2011-08-01T09:20:00Z</time>
      </trkpt>
      <trkpt lat="45.85947" lon="6.22355">
        <ele>841</ele>
        <time>2011-08-01T09:20:05Z</time>
      </trkpt>
      <trkpt lat="45.85949" lon="6.22349">
        <ele>840</ele>
        <time>2011-08-01T09:20:07Z</time>
      </trkpt>
      <trkpt lat="45.85956" lon="6.22326">
        <ele>828</ele>
        <time>2011-08-01T09:20:15Z</time>
      </trkpt>
      <trkpt lat="45.85963" lon="6.22314">
        <ele>826</ele>
        <time>2011-08-01T09:20:19Z</time>
      </trkpt>
      <trkpt lat="45.85966" lon="6.22303">
        <ele>824</ele>
        <time>2011-08-01T09:20:23Z</time>
      </trkpt>
      <trkpt lat="45.8597" lon="6.22278">
        <ele>821</ele>
        <time>2011-08-01T09:20:28Z</time>
      </trkpt>
      <trkpt lat="45.85974" lon="6.22252">
        <ele>817</ele>
        <time>2011-08-01T09:20:33Z</time>
      </trkpt>
      <trkpt lat="45.85976" lon="6.22237">
        <ele>808</ele>
        <time>2011-08-01T09:20:37Z</time>
      </trkpt>
      <trkpt lat="45.85977" lon="6.22231">
        <ele>807</ele>
        <time>2011-08-01T09:20:39Z</time>
      </trkpt>
      <trkpt lat="45.85973" lon="6.2222">
        <ele>808</ele>
        <time>2011-08-01T09:20:45Z</time>
      </trkpt>
      <trkpt lat="45.85968" lon="6.2222">
        <ele>809</ele>
        <time>2011-08-01T09:20:59Z</time>
      </trkpt>
      <trkpt lat="45.85977" lon="6.22231">
        <ele>808</ele>
        <time>2011-08-01T09:21:04Z</time>
      </trkpt>
      <trkpt lat="45.85983" lon="6.22249">
        <ele>806</ele>
        <time>2011-08-01T09:21:08Z</time>
      </trkpt>
      <trkpt lat="45.85984" lon="6.22285">
        <ele>819</ele>
        <time>2011-08-01T09:21:13Z</time>
      </trkpt>
      <trkpt lat="45.85984" lon="6.22299">
        <ele>821</ele>
        <time>2011-08-01T09:21:15Z</time>
      </trkpt>
      <trkpt lat="45.85989" lon="6.22322">
        <ele>819</ele>
        <time>2011-08-01T09:21:19Z</time>
      </trkpt>
      <trkpt lat="45.85994" lon="6.22336">
        <ele>820</ele>
        <time>2011-08-01T09:21:22Z</time>
      </trkpt>
      <trkpt lat="45.86" lon="6.22348">
        <ele>819</ele>
        <time>2011-08-01T09:21:27Z</time>
      </trkpt>
      <trkpt lat="45.86" lon="6.22348">
        <ele>819</ele>
        <time>2011-08-01T09:21:28Z</time>
      </trkpt>
      <trkpt lat="45.86003" lon="6.22348">
        <ele>819</ele>
        <time>2011-08-01T09:21:30Z</time>
      </trkpt>
      <trkpt lat="45.86012" lon="6.22338">
        <ele>818</ele>
        <time>2011-08-01T09:21:35Z</time>
      </trkpt>
      <trkpt lat="45.86034" lon="6.22324">
        <ele>812</ele>
        <time>2011-08-01T09:21:40Z</time>
      </trkpt>
      <trkpt lat="45.86044" lon="6.22312">
        <ele>811</ele>
        <time>2011-08-01T09:21:44Z</time>
      </trkpt>
      <trkpt lat="45.8605" lon="6.22303">
        <ele>811</ele>
        <time>2011-08-01T09:21:48Z</time>
      </trkpt>
      <trkpt lat="45.86056" lon="6.22286">
        <ele>810</ele>
        <time>2011-08-01T09:21:52Z</time>
      </trkpt>
      <trkpt lat="45.86052" lon="6.2226">
        <ele>809</ele>
        <time>2011-08-01T09:21:56Z</time>
      </trkpt>
      <trkpt lat="45.86057" lon="6.22252">
        <ele>809</ele>
        <time>2011-08-01T09:22:00Z</time>
      </trkpt>
      <trkpt lat="45.86053" lon="6.22248">
        <ele>800</ele>
        <time>2011-08-01T09:22:05Z</time>
      </trkpt>
      <trkpt lat="45.86066" lon="6.22233">
        <ele>800</ele>
        <time>2011-08-01T09:22:10Z</time>
      </trkpt>
      <trkpt lat="45.86082" lon="6.22214">
        <ele>797</ele>
        <time>2011-08-01T09:22:15Z</time>
      </trkpt>
      <trkpt lat="45.86087" lon="6.22197">
        <ele>806</ele>
        <time>2011-08-01T09:22:19Z</time>
      </trkpt>
      <trkpt lat="45.86095" lon="6.22163">
        <ele>789</ele>
        <time>2011-08-01T09:22:24Z</time>
      </trkpt>
      <trkpt lat="45.86093" lon="6.22136">
        <ele>790</ele>
        <time>2011-08-01T09:22:28Z</time>
      </trkpt>
      <trkpt lat="45.8609" lon="6.2211">
        <ele>786</ele>
        <time>2011-08-01T09:22:32Z</time>
      </trkpt>
      <trkpt lat="45.86095" lon="6.22077">
        <ele>773</ele>
        <time>2011-08-01T09:22:36Z</time>
      </trkpt>
      <trkpt lat="45.86103" lon="6.22049">
        <ele>774</ele>
        <time>2011-08-01T09:22:39Z</time>
      </trkpt>
      <trkpt lat="45.8611" lon="6.22022">
        <ele>771</ele>
        <time>2011-08-01T09:22:42Z</time>
      </trkpt>
      <trkpt lat="45.86113" lon="6.22004">
        <ele>770</ele>
        <time>2011-08-01T09:22:44Z</time>
      </trkpt>
      <trkpt lat="45.86112" lon="6.21968">
        <ele>757</ele>
        <time>2011-08-01T09:22:48Z</time>
      </trkpt>
      <trkpt lat="45.8612" lon="6.21936">
        <ele>755</ele>
        <time>2011-08-01T09:22:52Z</time>
      </trkpt>
      <trkpt lat="45.86134" lon="6.21929">
        <ele>755</ele>
        <time>2011-08-01T09:22:55Z</time>
      </trkpt>
      <trkpt lat="45.86149" lon="6.21934">
        <ele>756</ele>
        <time>2011-08-01T09:22:58Z</time>
      </trkpt>
      <trkpt lat="45.86154" lon="6.21937">
        <ele>757</ele>
        <time>2011-08-01T09:22:59Z</time>
      </trkpt>
      <trkpt lat="45.86176" lon="6.21941">
        <ele>761</ele>
        <time>2011-08-01T09:23:03Z</time>
      </trkpt>
      <trkpt lat="45.862" lon="6.21929">
        <ele>760</ele>
        <time>2011-08-01T09:23:09Z</time>
      </trkpt>
      <trkpt lat="45.8621" lon="6.21925">
        <ele>759</ele>
        <time>2011-08-01T09:23:11Z</time>
      </trkpt>
      <trkpt lat="45.86235" lon="6.21931">
        <ele>757</ele>
        <time>2011-08-01T09:23:15Z</time>
      </trkpt>
      <trkpt lat="45.86242" lon="6.21935">
        <ele>757</ele>
        <time>2011-08-01T09:23:16Z</time>
      </trkpt>
      <trkpt lat="45.8628" lon="6.21937">
        <ele>751</ele>
        <time>2011-08-01T09:23:22Z</time>
      </trkpt>
      <trkpt lat="45.86289" lon="6.21933">
        <ele>750</ele>
        <time>2011-08-01T09:23:24Z</time>
      </trkpt>
      <trkpt lat="45.86305" lon="6.21931">
        <ele>747</ele>
        <time>2011-08-01T09:23:27Z</time>
      </trkpt>
      <trkpt lat="45.86316" lon="6.2193">
        <ele>744</ele>
        <time>2011-08-01T09:23:29Z</time>
      </trkpt>
      <trkpt lat="45.86346" lon="6.21934">
        <ele>736</ele>
        <time>2011-08-01T09:23:34Z</time>
      </trkpt>
      <trkpt lat="45.86378" lon="6.21937">
        <ele>734</ele>
        <time>2011-08-01T09:23:39Z</time>
      </trkpt>
      <trkpt lat="45.86393" lon="6.21926">
        <ele>731</ele>
        <time>2011-08-01T09:23:44Z</time>
      </trkpt>
      <trkpt lat="45.86396" lon="6.21926">
        <ele>730</ele>
        <time>2011-08-01T09:23:45Z</time>
      </trkpt>
      <trkpt lat="45.8642" lon="6.21928">
        <ele>722</ele>
        <time>2011-08-01T09:23:52Z</time>
      </trkpt>
      <trkpt lat="45.86442" lon="6.21933">
        <ele>723</ele>
        <time>2011-08-01T09:23:57Z</time>
      </trkpt>
      <trkpt lat="45.86449" lon="6.21931">
        <ele>723</ele>
        <time>2011-08-01T09:23:59Z</time>
      </trkpt>
      <trkpt lat="45.86444" lon="6.21913">
        <ele>710</ele>
        <time>2011-08-01T09:24:03Z</time>
      </trkpt>
      <trkpt lat="45.86452" lon="6.21904">
        <ele>708</ele>
        <time>2011-08-01T09:24:06Z</time>
      </trkpt>
      <trkpt lat="45.86456" lon="6.219">
        <ele>707</ele>
        <time>2011-08-01T09:24:09Z</time>
      </trkpt>
      <trkpt lat="45.86475" lon="6.21887">
        <ele>705</ele>
        <time>2011-08-01T09:24:14Z</time>
      </trkpt>
      <trkpt lat="45.86502" lon="6.21882">
        <ele>698</ele>
        <time>2011-08-01T09:24:18Z</time>
      </trkpt>
      <trkpt lat="45.86515" lon="6.21879">
        <ele>697</ele>
        <time>2011-08-01T09:24:20Z</time>
      </trkpt>
      <trkpt lat="45.86539" lon="6.2188">
        <ele>696</ele>
        <time>2011-08-01T09:24:24Z</time>
      </trkpt>
      <trkpt lat="45.86555" lon="6.2187">
        <ele>694</ele>
        <time>2011-08-01T09:24:28Z</time>
      </trkpt>
      <trkpt lat="45.86581" lon="6.21853">
        <ele>689</ele>
        <time>2011-08-01T09:24:34Z</time>
      </trkpt>
      <trkpt lat="45.86585" lon="6.21851">
        <ele>686</ele>
        <time>2011-08-01T09:24:35Z</time>
      </trkpt>
      <trkpt lat="45.86608" lon="6.21842">
        <ele>687</ele>
        <time>2011-08-01T09:24:40Z</time>
      </trkpt>
      <trkpt lat="45.86654" lon="6.2185">
        <ele>686</ele>
        <time>2011-08-01T09:24:47Z</time>
      </trkpt>
      <trkpt lat="45.86695" lon="6.21859">
        <ele>686</ele>
        <time>2011-08-01T09:24:53Z</time>
      </trkpt>
      <trkpt lat="45.86738" lon="6.21865">
        <ele>685</ele>
        <time>2011-08-01T09:25:00Z</time>
      </trkpt>
      <trkpt lat="45.86768" lon="6.21872">
        <ele>686</ele>
        <time>2011-08-01T09:25:05Z</time>
      </trkpt>
      <trkpt lat="45.8679" lon="6.21867">
        <ele>686</ele>
        <time>2011-08-01T09:25:09Z</time>
      </trkpt>
      <trkpt lat="45.86806" lon="6.2186">
        <ele>686</ele>
        <time>2011-08-01T09:25:12Z</time>
      </trkpt>
      <trkpt lat="45.86824" lon="6.21856">
        <ele>684</ele>
        <time>2011-08-01T09:25:15Z</time>
      </trkpt>
      <trkpt lat="45.86851" lon="6.21853">
        <ele>685</ele>
        <time>2011-08-01T09:25:19Z</time>
      </trkpt>
      <trkpt lat="45.86898" lon="6.21834">
        <ele>682</ele>
        <time>2011-08-01T09:25:25Z</time>
      </trkpt>
      <trkpt lat="45.86929" lon="6.21823">
        <ele>673</ele>
        <time>2011-08-01T09:25:30Z</time>
      </trkpt>
      <trkpt lat="45.86959" lon="6.21821">
        <ele>671</ele>
        <time>2011-08-01T09:25:34Z</time>
      </trkpt>
      <trkpt lat="45.86995" lon="6.21818">
        <ele>672</ele>
        <time>2011-08-01T09:25:39Z</time>
      </trkpt>
      <trkpt lat="45.87035" lon="6.21807">
        <ele>670</ele>
        <time>2011-08-01T09:25:44Z</time>
      </trkpt>
      <trkpt lat="45.87049" lon="6.218">
        <ele>669</ele>
        <time>2011-08-01T09:25:46Z</time>
      </trkpt>
      <trkpt lat="45.87097" lon="6.21784">
        <ele>666</ele>
        <time>2011-08-01T09:25:52Z</time>
      </trkpt>
      <trkpt lat="45.87149" lon="6.2177">
        <ele>664</ele>
        <time>2011-08-01T09:25:58Z</time>
      </trkpt>
      <trkpt lat="45.87204" lon="6.21763">
        <ele>664</ele>
        <time>2011-08-01T09:26:04Z</time>
      </trkpt>
      <trkpt lat="45.87254" lon="6.21755">
        <ele>660</ele>
        <time>2011-08-01T09:26:10Z</time>
      </trkpt>
      <trkpt lat="45.87311" lon="6.21738">
        <ele>656</ele>
        <time>2011-08-01T09:26:17Z</time>
      </trkpt>
      <trkpt lat="45.87367" lon="6.21715">
        <ele>657</ele>
        <time>2011-08-01T09:26:24Z</time>
      </trkpt>
      <trkpt lat="45.87419" lon="6.21696">
        <ele>655</ele>
        <time>2011-08-01T09:26:31Z</time>
      </trkpt>
      <trkpt lat="45.87438" lon="6.21686">
        <ele>655</ele>
        <time>2011-08-01T09:26:34Z</time>
      </trkpt>
      <trkpt lat="45.87465" lon="6.21656">
        <ele>650</ele>
        <time>2011-08-01T09:26:39Z</time>
      </trkpt>
      <trkpt lat="45.87474" lon="6.21621">
        <ele>649</ele>
        <time>2011-08-01T09:26:43Z</time>
      </trkpt>
      <trkpt lat="45.87475" lon="6.21605">
        <ele>648</ele>
        <time>2011-08-01T09:26:45Z</time>
      </trkpt>
      <trkpt lat="45.87477" lon="6.21552">
        <ele>647</ele>
        <time>2011-08-01T09:26:52Z</time>
      </trkpt>
      <trkpt lat="45.87478" lon="6.21514">
        <ele>647</ele>
        <time>2011-08-01T09:26:56Z</time>
      </trkpt>
      <trkpt lat="45.8747" lon="6.21479">
        <ele>646</ele>
        <time>2011-08-01T09:27:00Z</time>
      </trkpt>
      <trkpt lat="45.8746" lon="6.21456">
        <ele>646</ele>
        <time>2011-08-01T09:27:03Z</time>
      </trkpt>
      <trkpt lat="45.87453" lon="6.21417">
        <ele>643</ele>
        <time>2011-08-01T09:27:07Z</time>
      </trkpt>
      <trkpt lat="45.87457" lon="6.21395">
        <ele>642</ele>
        <time>2011-08-01T09:27:11Z</time>
      </trkpt>
      <trkpt lat="45.87453" lon="6.21378">
        <ele>642</ele>
        <time>2011-08-01T09:27:15Z</time>
      </trkpt>
      <trkpt lat="45.87443" lon="6.21366">
        <ele>642</ele>
        <time>2011-08-01T09:27:18Z</time>
      </trkpt>
      <trkpt lat="45.87416" lon="6.21344">
        <ele>642</ele>
        <time>2011-08-01T09:27:25Z</time>
      </trkpt>
      <trkpt lat="45.87395" lon="6.21323">
        <ele>639</ele>
        <time>2011-08-01T09:27:30Z</time>
      </trkpt>
      <trkpt lat="45.87368" lon="6.21285">
        <ele>638</ele>
        <time>2011-08-01T09:27:37Z</time>
      </trkpt>
      <trkpt lat="45.87336" lon="6.21225">
        <ele>633</ele>
        <time>2011-08-01T09:27:47Z</time>
      </trkpt>
      <trkpt lat="45.8731" lon="6.21177">
        <ele>632</ele>
        <time>2011-08-01T09:27:55Z</time>
      </trkpt>
      <trkpt lat="45.87287" lon="6.21141">
        <ele>632</ele>
        <time>2011-08-01T09:28:01Z</time>
      </trkpt>
      <trkpt lat="45.87263" lon="6.21103">
        <ele>632</ele>
        <time>2011-08-01T09:28:08Z</time>
      </trkpt>
      <trkpt lat="45.8726" lon="6.21098">
        <ele>632</ele>
        <time>2011-08-01T09:28:09Z</time>
      </trkpt>
      <trkpt lat="45.87261" lon="6.21086">
        <ele>631</ele>
        <time>2011-08-01T09:28:13Z</time>
      </trkpt>
      <trkpt lat="45.87267" lon="6.21085">
        <ele>632</ele>
        <time>2011-08-01T09:28:15Z</time>
      </trkpt>
      <trkpt lat="45.87278" lon="6.21081">
        <ele>634</ele>
        <time>2011-08-01T09:28:20Z</time>
      </trkpt>
      <trkpt lat="45.87293" lon="6.21069">
        <ele>635</ele>
        <time>2011-08-01T09:28:25Z</time>
      </trkpt>
      <trkpt lat="45.87313" lon="6.21046">
        <ele>636</ele>
        <time>2011-08-01T09:28:32Z</time>
      </trkpt>
      <trkpt lat="45.8733" lon="6.21021">
        <ele>639</ele>
        <time>2011-08-01T09:28:39Z</time>
      </trkpt>
      <trkpt lat="45.87336" lon="6.21">
        <ele>642</ele>
        <time>2011-08-01T09:28:44Z</time>
      </trkpt>
      <trkpt lat="45.87329" lon="6.2098">
        <ele>643</ele>
        <time>2011-08-01T09:28:49Z</time>
      </trkpt>
      <trkpt lat="45.87317" lon="6.20954">
        <ele>644</ele>
        <time>2011-08-01T09:28:56Z</time>
      </trkpt>
      <trkpt lat="45.87315" lon="6.2095">
        <ele>644</ele>
        <time>2011-08-01T09:29:00Z</time>
      </trkpt>
      <trkpt lat="45.87316" lon="6.2095">
        <ele>644</ele>
        <time>2011-08-01T09:29:10Z</time>
      </trkpt>
      <trkpt lat="45.87316" lon="6.2095">
        <ele>644</ele>
        <time>2011-08-01T09:29:18Z</time>
      </trkpt>
      <trkpt lat="45.87317" lon="6.20951">
        <ele>644</ele>
        <time>2011-08-01T09:29:35Z</time>
      </trkpt>
      <trkpt lat="45.8732" lon="6.2095">
        <ele>644</ele>
        <time>2011-08-01T09:29:45Z</time>
      </trkpt>
      <trkpt lat="45.87317" lon="6.20951">
        <ele>644</ele>
        <time>2011-08-01T09:29:50Z</time>
      </trkpt>
      <trkpt lat="45.87315" lon="6.20949">
        <ele>644</ele>
        <time>2011-08-01T09:29:55Z</time>
      </trkpt>
      <trkpt lat="45.87307" lon="6.20935">
        <ele>645</ele>
        <time>2011-08-01T09:30:00Z</time>
      </trkpt>
      <trkpt lat="45.87294" lon="6.20914">
        <ele>651</ele>
        <time>2011-08-01T09:30:06Z</time>
      </trkpt>
      <trkpt lat="45.87273" lon="6.20882">
        <ele>651</ele>
        <time>2011-08-01T09:30:14Z</time>
      </trkpt>
      <trkpt lat="45.87257" lon="6.20853">
        <ele>653</ele>
        <time>2011-08-01T09:30:21Z</time>
      </trkpt>
      <trkpt lat="45.87241" lon="6.20827">
        <ele>653</ele>
        <time>2011-08-01T09:30:28Z</time>
      </trkpt>
      <trkpt lat="45.87233" lon="6.20812">
        <ele>654</ele>
        <time>2011-08-01T09:30:33Z</time>
      </trkpt>
      <trkpt lat="45.87221" lon="6.20789">
        <ele>655</ele>
        <time>2011-08-01T09:30:40Z</time>
      </trkpt>
      <trkpt lat="45.87211" lon="6.20767">
        <ele>656</ele>
        <time>2011-08-01T09:30:47Z</time>
      </trkpt>
      <trkpt lat="45.87203" lon="6.20749">
        <ele>662</ele>
        <time>2011-08-01T09:30:53Z</time>
      </trkpt>
      <trkpt lat="45.87189" lon="6.20718">
        <ele>662</ele>
        <time>2011-08-01T09:31:03Z</time>
      </trkpt>
      <trkpt lat="45.87189" lon="6.20712">
        <ele>663</ele>
        <time>2011-08-01T09:31:05Z</time>
      </trkpt>
      <trkpt lat="45.87201" lon="6.20706">
        <ele>664</ele>
        <time>2011-08-01T09:31:11Z</time>
      </trkpt>
      <trkpt lat="45.87207" lon="6.20709">
        <ele>665</ele>
        <time>2011-08-01T09:31:14Z</time>
      </trkpt>
      <trkpt lat="45.87224" lon="6.2072">
        <ele>665</ele>
        <time>2011-08-01T09:31:23Z</time>
      </trkpt>
      <trkpt lat="45.87235" lon="6.20718">
        <ele>666</ele>
        <time>2011-08-01T09:31:29Z</time>
      </trkpt>
      <trkpt lat="45.87251" lon="6.20714">
        <ele>676</ele>
        <time>2011-08-01T09:31:36Z</time>
      </trkpt>
      <trkpt lat="45.87265" lon="6.20713">
        <ele>677</ele>
        <time>2011-08-01T09:31:43Z</time>
      </trkpt>
      <trkpt lat="45.8728" lon="6.20712">
        <ele>678</ele>
        <time>2011-08-01T09:31:50Z</time>
      </trkpt>
      <trkpt lat="45.87292" lon="6.2071">
        <ele>679</ele>
        <time>2011-08-01T09:31:57Z</time>
      </trkpt>
      <trkpt lat="45.87304" lon="6.20706">
        <ele>680</ele>
        <time>2011-08-01T09:32:03Z</time>
      </trkpt>
      <trkpt lat="45.87313" lon="6.20704">
        <ele>681</ele>
        <time>2011-08-01T09:32:09Z</time>
      </trkpt>
      <trkpt lat="45.87324" lon="6.20705">
        <ele>682</ele>
        <time>2011-08-01T09:32:15Z</time>
      </trkpt>
      <trkpt lat="45.87337" lon="6.20707">
        <ele>691</ele>
        <time>2011-08-01T09:32:23Z</time>
      </trkpt>
      <trkpt lat="45.87347" lon="6.20701">
        <ele>692</ele>
        <time>2011-08-01T09:32:29Z</time>
      </trkpt>
      <trkpt lat="45.87347" lon="6.20689">
        <ele>693</ele>
        <time>2011-08-01T09:32:35Z</time>
      </trkpt>
      <trkpt lat="45.87346" lon="6.20687">
        <ele>693</ele>
        <time>2011-08-01T09:32:36Z</time>
      </trkpt>
      <trkpt lat="45.87337" lon="6.20666">
        <ele>697</ele>
        <time>2011-08-01T09:32:45Z</time>
      </trkpt>
      <trkpt lat="45.87328" lon="6.20658">
        <ele>695</ele>
        <time>2011-08-01T09:32:50Z</time>
      </trkpt>
      <trkpt lat="45.87316" lon="6.20651">
        <ele>695</ele>
        <time>2011-08-01T09:32:55Z</time>
      </trkpt>
      <trkpt lat="45.87299" lon="6.20635">
        <ele>696</ele>
        <time>2011-08-01T09:33:01Z</time>
      </trkpt>
      <trkpt lat="45.87286" lon="6.20623">
        <ele>696</ele>
        <time>2011-08-01T09:33:06Z</time>
      </trkpt>
      <trkpt lat="45.87273" lon="6.20613">
        <ele>695</ele>
        <time>2011-08-01T09:33:12Z</time>
      </trkpt>
      <trkpt lat="45.87254" lon="6.20598">
        <ele>696</ele>
        <time>2011-08-01T09:33:19Z</time>
      </trkpt>
      <trkpt lat="45.87231" lon="6.20582">
        <ele>697</ele>
        <time>2011-08-01T09:33:25Z</time>
      </trkpt>
      <trkpt lat="45.87215" lon="6.20568">
        <ele>697</ele>
        <time>2011-08-01T09:33:30Z</time>
      </trkpt>
      <trkpt lat="45.87197" lon="6.20549">
        <ele>697</ele>
        <time>2011-08-01T09:33:36Z</time>
      </trkpt>
      <trkpt lat="45.87185" lon="6.20533">
        <ele>699</ele>
        <time>2011-08-01T09:33:41Z</time>
      </trkpt>
      <trkpt lat="45.87173" lon="6.2052">
        <ele>700</ele>
        <time>2011-08-01T09:33:46Z</time>
      </trkpt>
      <trkpt lat="45.87159" lon="6.20508">
        <ele>694</ele>
        <time>2011-08-01T09:33:50Z</time>
      </trkpt>
      <trkpt lat="45.8715" lon="6.205">
        <ele>704</ele>
        <time>2011-08-01T09:33:53Z</time>
      </trkpt>
      <trkpt lat="45.87137" lon="6.20484">
        <ele>706</ele>
        <time>2011-08-01T09:33:58Z</time>
      </trkpt>
      <trkpt lat="45.87121" lon="6.20463">
        <ele>708</ele>
        <time>2011-08-01T09:34:05Z</time>
      </trkpt>
      <trkpt lat="45.87113" lon="6.20458">
        <ele>708</ele>
        <time>2011-08-01T09:34:09Z</time>
      </trkpt>
      <trkpt lat="45.87111" lon="6.20449">
        <ele>709</ele>
        <time>2011-08-01T09:34:14Z</time>
      </trkpt>
      <trkpt lat="45.87115" lon="6.20447">
        <ele>710</ele>
        <time>2011-08-01T09:34:18Z</time>
      </trkpt>
      <trkpt lat="45.87125" lon="6.20446">
        <ele>712</ele>
        <time>2011-08-01T09:34:26Z</time>
      </trkpt>
      <trkpt lat="45.87128" lon="6.20449">
        <ele>712</ele>
        <time>2011-08-01T09:34:31Z</time>
      </trkpt>
      <trkpt lat="45.8713" lon="6.20448">
        <ele>713</ele>
        <time>2011-08-01T09:34:37Z</time>
      </trkpt>
      <trkpt lat="45.87133" lon="6.20447">
        <ele>714</ele>
        <time>2011-08-01T09:34:46Z</time>
      </trkpt>
      <trkpt lat="45.87138" lon="6.2045">
        <ele>714</ele>
        <time>2011-08-01T09:34:52Z</time>
      </trkpt>
      <trkpt lat="45.87145" lon="6.20445">
        <ele>717</ele>
        <time>2011-08-01T09:35:00Z</time>
      </trkpt>
      <trkpt lat="45.87149" lon="6.20445">
        <ele>718</ele>
        <time>2011-08-01T09:35:06Z</time>
      </trkpt>
      <trkpt lat="45.87157" lon="6.20448">
        <ele>718</ele>
        <time>2011-08-01T09:35:13Z</time>
      </trkpt>
      <trkpt lat="45.87162" lon="6.20448">
        <ele>719</ele>
        <time>2011-08-01T09:35:20Z</time>
      </trkpt>
      <trkpt lat="45.87166" lon="6.20449">
        <ele>719</ele>
        <time>2011-08-01T09:35:27Z</time>
      </trkpt>
      <trkpt lat="45.87175" lon="6.20449">
        <ele>735</ele>
        <time>2011-08-01T09:35:36Z</time>
      </trkpt>
      <trkpt lat="45.87182" lon="6.2045">
        <ele>735</ele>
        <time>2011-08-01T09:35:44Z</time>
      </trkpt>
      <trkpt lat="45.87189" lon="6.20451">
        <ele>736</ele>
        <time>2011-08-01T09:35:50Z</time>
      </trkpt>
      <trkpt lat="45.87194" lon="6.20449">
        <ele>737</ele>
        <time>2011-08-01T09:35:56Z</time>
      </trkpt>
      <trkpt lat="45.87198" lon="6.20451">
        <ele>737</ele>
        <time>2011-08-01T09:36:03Z</time>
      </trkpt>
      <trkpt lat="45.87202" lon="6.20455">
        <ele>736</ele>
        <time>2011-08-01T09:36:09Z</time>
      </trkpt>
      <trkpt lat="45.87207" lon="6.20457">
        <ele>736</ele>
        <time>2011-08-01T09:36:15Z</time>
      </trkpt>
      <trkpt lat="45.87214" lon="6.20455">
        <ele>738</ele>
        <time>2011-08-01T09:36:23Z</time>
      </trkpt>
      <trkpt lat="45.87222" lon="6.20456">
        <ele>739</ele>
        <time>2011-08-01T09:36:31Z</time>
      </trkpt>
      <trkpt lat="45.87229" lon="6.20452">
        <ele>742</ele>
        <time>2011-08-01T09:36:39Z</time>
      </trkpt>
      <trkpt lat="45.87231" lon="6.20451">
        <ele>742</ele>
        <time>2011-08-01T09:36:45Z</time>
      </trkpt>
      <trkpt lat="45.87236" lon="6.20448">
        <ele>744</ele>
        <time>2011-08-01T09:36:51Z</time>
      </trkpt>
      <trkpt lat="45.8724" lon="6.20448">
        <ele>745</ele>
        <time>2011-08-01T09:36:57Z</time>
      </trkpt>
      <trkpt lat="45.87243" lon="6.20448">
        <ele>745</ele>
        <time>2011-08-01T09:37:02Z</time>
      </trkpt>
      <trkpt lat="45.8725" lon="6.20446">
        <ele>747</ele>
        <time>2011-08-01T09:37:09Z</time>
      </trkpt>
      <trkpt lat="45.87255" lon="6.20443">
        <ele>761</ele>
        <time>2011-08-01T09:37:16Z</time>
      </trkpt>
      <trkpt lat="45.87261" lon="6.20439">
        <ele>762</ele>
        <time>2011-08-01T09:37:23Z</time>
      </trkpt>
      <trkpt lat="45.87265" lon="6.20439">
        <ele>762</ele>
        <time>2011-08-01T09:37:28Z</time>
      </trkpt>
      <trkpt lat="45.8727" lon="6.20436">
        <ele>763</ele>
        <time>2011-08-01T09:37:33Z</time>
      </trkpt>
      <trkpt lat="45.87275" lon="6.20438">
        <ele>762</ele>
        <time>2011-08-01T09:37:40Z</time>
      </trkpt>
      <trkpt lat="45.87282" lon="6.20439">
        <ele>762</ele>
        <time>2011-08-01T09:37:46Z</time>
      </trkpt>
      <trkpt lat="45.87283" lon="6.20442">
        <ele>761</ele>
        <time>2011-08-01T09:37:51Z</time>
      </trkpt>
      <trkpt lat="45.87289" lon="6.20444">
        <ele>761</ele>
        <time>2011-08-01T09:37:58Z</time>
      </trkpt>
      <trkpt lat="45.87295" lon="6.20443">
        <ele>762</ele>
        <time>2011-08-01T09:38:04Z</time>
      </trkpt>
      <trkpt lat="45.87302" lon="6.2044">
        <ele>763</ele>
        <time>2011-08-01T09:38:11Z</time>
      </trkpt>
      <trkpt lat="45.87308" lon="6.20442">
        <ele>764</ele>
        <time>2011-08-01T09:38:20Z</time>
      </trkpt>
      <trkpt lat="45.87314" lon="6.20439">
        <ele>766</ele>
        <time>2011-08-01T09:38:27Z</time>
      </trkpt>
      <trkpt lat="45.8732" lon="6.2044">
        <ele>767</ele>
        <time>2011-08-01T09:38:34Z</time>
      </trkpt>
      <trkpt lat="45.87322" lon="6.20441">
        <ele>767</ele>
        <time>2011-08-01T09:38:36Z</time>
      </trkpt>
      <trkpt lat="45.87324" lon="6.20439">
        <ele>768</ele>
        <time>2011-08-01T09:38:38Z</time>
      </trkpt>
      <trkpt lat="45.87329" lon="6.20439">
        <ele>768</ele>
        <time>2011-08-01T09:38:42Z</time>
      </trkpt>
      <trkpt lat="45.87337" lon="6.20438">
        <ele>777</ele>
        <time>2011-08-01T09:38:49Z</time>
      </trkpt>
      <trkpt lat="45.87351" lon="6.2044">
        <ele>776</ele>
        <time>2011-08-01T09:38:59Z</time>
      </trkpt>
      <trkpt lat="45.8736" lon="6.20445">
        <ele>775</ele>
        <time>2011-08-01T09:39:07Z</time>
      </trkpt>
      <trkpt lat="45.87369" lon="6.20447">
        <ele>775</ele>
        <time>2011-08-01T09:39:15Z</time>
      </trkpt>
      <trkpt lat="45.87376" lon="6.20447">
        <ele>776</ele>
        <time>2011-08-01T09:39:22Z</time>
      </trkpt>
      <trkpt lat="45.87384" lon="6.2045">
        <ele>776</ele>
        <time>2011-08-01T09:39:26Z</time>
      </trkpt>
      <trkpt lat="45.87394" lon="6.20451">
        <ele>778</ele>
        <time>2011-08-01T09:39:30Z</time>
      </trkpt>
      <trkpt lat="45.87405" lon="6.2045">
        <ele>779</ele>
        <time>2011-08-01T09:39:36Z</time>
      </trkpt>
      <trkpt lat="45.87414" lon="6.20451">
        <ele>779</ele>
        <time>2011-08-01T09:39:41Z</time>
      </trkpt>
      <trkpt lat="45.87425" lon="6.20449">
        <ele>788</ele>
        <time>2011-08-01T09:39:47Z</time>
      </trkpt>
      <trkpt lat="45.87429" lon="6.20448">
        <ele>789</ele>
        <time>2011-08-01T09:39:49Z</time>
      </trkpt>
      <trkpt lat="45.87445" lon="6.20446">
        <ele>789</ele>
        <time>2011-08-01T09:39:57Z</time>
      </trkpt>
      <trkpt lat="45.87446" lon="6.20446">
        <ele>789</ele>
        <time>2011-08-01T09:39:58Z</time>
      </trkpt>
      <trkpt lat="45.87459" lon="6.20443">
        <ele>791</ele>
        <time>2011-08-01T09:40:06Z</time>
      </trkpt>
      <trkpt lat="45.87466" lon="6.20441">
        <ele>792</ele>
        <time>2011-08-01T09:40:11Z</time>
      </trkpt>
      <trkpt lat="45.87478" lon="6.20434">
        <ele>795</ele>
        <time>2011-08-01T09:40:19Z</time>
      </trkpt>
      <trkpt lat="45.87485" lon="6.2043">
        <ele>798</ele>
        <time>2011-08-01T09:40:26Z</time>
      </trkpt>
      <trkpt lat="45.87489" lon="6.20433">
        <ele>798</ele>
        <time>2011-08-01T09:40:32Z</time>
      </trkpt>
      <trkpt lat="45.87495" lon="6.20438">
        <ele>797</ele>
        <time>2011-08-01T09:40:36Z</time>
      </trkpt>
      <trkpt lat="45.87502" lon="6.20445">
        <ele>801</ele>
        <time>2011-08-01T09:40:41Z</time>
      </trkpt>
      <trkpt lat="45.87506" lon="6.20448">
        <ele>800</ele>
        <time>2011-08-01T09:40:46Z</time>
      </trkpt>
      <trkpt lat="45.8751" lon="6.20445">
        <ele>801</ele>
        <time>2011-08-01T09:40:51Z</time>
      </trkpt>
      <trkpt lat="45.87518" lon="6.20443">
        <ele>802</ele>
        <time>2011-08-01T09:40:57Z</time>
      </trkpt>
      <trkpt lat="45.87519" lon="6.20443">
        <ele>802</ele>
        <time>2011-08-01T09:41:02Z</time>
      </trkpt>
      <trkpt lat="45.87523" lon="6.2044">
        <ele>803</ele>
        <time>2011-08-01T09:41:08Z</time>
      </trkpt>
      <trkpt lat="45.87526" lon="6.2044">
        <ele>802</ele>
        <time>2011-08-01T09:41:14Z</time>
      </trkpt>
      <trkpt lat="45.87533" lon="6.20436">
        <ele>803</ele>
        <time>2011-08-01T09:41:19Z</time>
      </trkpt>
      <trkpt lat="45.87539" lon="6.20438">
        <ele>803</ele>
        <time>2011-08-01T09:41:25Z</time>
      </trkpt>
      <trkpt lat="45.87549" lon="6.2044">
        <ele>804</ele>
        <time>2011-08-01T09:41:33Z</time>
      </trkpt>
      <trkpt lat="45.87555" lon="6.20441">
        <ele>804</ele>
        <time>2011-08-01T09:41:38Z</time>
      </trkpt>
      <trkpt lat="45.87562" lon="6.20438">
        <ele>806</ele>
        <time>2011-08-01T09:41:47Z</time>
      </trkpt>
      <trkpt lat="45.87571" lon="6.20438">
        <ele>808</ele>
        <time>2011-08-01T09:41:54Z</time>
      </trkpt>
      <trkpt lat="45.87576" lon="6.20434">
        <ele>811</ele>
        <time>2011-08-01T09:42:00Z</time>
      </trkpt>
      <trkpt lat="45.87583" lon="6.20428">
        <ele>815</ele>
        <time>2011-08-01T09:42:09Z</time>
      </trkpt>
      <trkpt lat="45.87602" lon="6.20433">
        <ele>814</ele>
        <time>2011-08-01T09:42:28Z</time>
      </trkpt>
      <trkpt lat="45.87609" lon="6.20429">
        <ele>814</ele>
        <time>2011-08-01T09:42:33Z</time>
      </trkpt>
      <trkpt lat="45.87614" lon="6.20422">
        <ele>815</ele>
        <time>2011-08-01T09:42:37Z</time>
      </trkpt>
      <trkpt lat="45.87624" lon="6.20417">
        <ele>841</ele>
        <time>2011-08-01T09:42:44Z</time>
      </trkpt>
      <trkpt lat="45.87634" lon="6.20421">
        <ele>816</ele>
        <time>2011-08-01T09:42:51Z</time>
      </trkpt>
      <trkpt lat="45.87646" lon="6.20418">
        <ele>819</ele>
        <time>2011-08-01T09:42:58Z</time>
      </trkpt>
      <trkpt lat="45.87651" lon="6.20419">
        <ele>820</ele>
        <time>2011-08-01T09:43:03Z</time>
      </trkpt>
      <trkpt lat="45.87656" lon="6.20427">
        <ele>821</ele>
        <time>2011-08-01T09:43:09Z</time>
      </trkpt>
      <trkpt lat="45.87662" lon="6.20428">
        <ele>822</ele>
        <time>2011-08-01T09:43:14Z</time>
      </trkpt>
      <trkpt lat="45.87666" lon="6.20427">
        <ele>822</ele>
        <time>2011-08-01T09:43:20Z</time>
      </trkpt>
      <trkpt lat="45.87674" lon="6.20419">
        <ele>825</ele>
        <time>2011-08-01T09:43:25Z</time>
      </trkpt>
      <trkpt lat="45.87677" lon="6.20417">
        <ele>838</ele>
        <time>2011-08-01T09:43:29Z</time>
      </trkpt>
      <trkpt lat="45.87682" lon="6.2041">
        <ele>841</ele>
        <time>2011-08-01T09:43:37Z</time>
      </trkpt>
      <trkpt lat="45.87684" lon="6.20406">
        <ele>843</ele>
        <time>2011-08-01T09:43:41Z</time>
      </trkpt>
      <trkpt lat="45.87687" lon="6.20405">
        <ele>844</ele>
        <time>2011-08-01T09:43:46Z</time>
      </trkpt>
      <trkpt lat="45.8769" lon="6.20404">
        <ele>845</ele>
        <time>2011-08-01T09:43:51Z</time>
      </trkpt>
      <trkpt lat="45.87695" lon="6.20402">
        <ele>846</ele>
        <time>2011-08-01T09:43:56Z</time>
      </trkpt>
      <trkpt lat="45.87701" lon="6.20402">
        <ele>847</ele>
        <time>2011-08-01T09:44:03Z</time>
      </trkpt>
      <trkpt lat="45.87706" lon="6.20397">
        <ele>848</ele>
        <time>2011-08-01T09:44:11Z</time>
      </trkpt>
      <trkpt lat="45.87714" lon="6.20392">
        <ele>849</ele>
        <time>2011-08-01T09:44:20Z</time>
      </trkpt>
      <trkpt lat="45.87717" lon="6.2039">
        <ele>849</ele>
        <time>2011-08-01T09:44:23Z</time>
      </trkpt>
      <trkpt lat="45.87726" lon="6.20388">
        <ele>849</ele>
        <time>2011-08-01T09:44:29Z</time>
      </trkpt>
      <trkpt lat="45.8773" lon="6.2039">
        <ele>848</ele>
        <time>2011-08-01T09:44:34Z</time>
      </trkpt>
      <trkpt lat="45.87738" lon="6.20389">
        <ele>848</ele>
        <time>2011-08-01T09:44:39Z</time>
      </trkpt>
      <trkpt lat="45.87744" lon="6.2039">
        <ele>847</ele>
        <time>2011-08-01T09:44:44Z</time>
      </trkpt>
      <trkpt lat="45.87748" lon="6.20387">
        <ele>848</ele>
        <time>2011-08-01T09:44:48Z</time>
      </trkpt>
      <trkpt lat="45.87753" lon="6.20385">
        <ele>842</ele>
        <time>2011-08-01T09:44:52Z</time>
      </trkpt>
      <trkpt lat="45.87758" lon="6.20381">
        <ele>843</ele>
        <time>2011-08-01T09:44:57Z</time>
      </trkpt>
      <trkpt lat="45.87766" lon="6.20377">
        <ele>844</ele>
        <time>2011-08-01T09:45:04Z</time>
      </trkpt>
      <trkpt lat="45.87773" lon="6.20369">
        <ele>846</ele>
        <time>2011-08-01T09:45:16Z</time>
      </trkpt>
      <trkpt lat="45.87777" lon="6.20357">
        <ele>850</ele>
        <time>2011-08-01T09:45:23Z</time>
      </trkpt>
      <trkpt lat="45.8778" lon="6.20345">
        <ele>852</ele>
        <time>2011-08-01T09:45:29Z</time>
      </trkpt>
      <trkpt lat="45.87783" lon="6.20336">
        <ele>853</ele>
        <time>2011-08-01T09:45:34Z</time>
      </trkpt>
      <trkpt lat="45.87788" lon="6.20325">
        <ele>874</ele>
        <time>2011-08-01T09:45:41Z</time>
      </trkpt>
      <trkpt lat="45.87791" lon="6.20319">
        <ele>874</ele>
        <time>2011-08-01T09:45:46Z</time>
      </trkpt>
      <trkpt lat="45.87794" lon="6.20313">
        <ele>874</ele>
        <time>2011-08-01T09:45:51Z</time>
      </trkpt>
      <trkpt lat="45.87796" lon="6.20309">
        <ele>874</ele>
        <time>2011-08-01T09:45:56Z</time>
      </trkpt>
      <trkpt lat="45.87799" lon="6.20302">
        <ele>875</ele>
        <time>2011-08-01T09:46:02Z</time>
      </trkpt>
      <trkpt lat="45.878" lon="6.20295">
        <ele>876</ele>
        <time>2011-08-01T09:46:07Z</time>
      </trkpt>
      <trkpt lat="45.87804" lon="6.20287">
        <ele>876</ele>
        <time>2011-08-01T09:46:14Z</time>
      </trkpt>
      <trkpt lat="45.87805" lon="6.20273">
        <ele>878</ele>
        <time>2011-08-01T09:46:22Z</time>
      </trkpt>
      <trkpt lat="45.87806" lon="6.20272">
        <ele>878</ele>
        <time>2011-08-01T09:46:23Z</time>
      </trkpt>
      <trkpt lat="45.87806" lon="6.20264">
        <ele>879</ele>
        <time>2011-08-01T09:46:28Z</time>
      </trkpt>
      <trkpt lat="45.87815" lon="6.20256">
        <ele>879</ele>
        <time>2011-08-01T09:46:36Z</time>
      </trkpt>
      <trkpt lat="45.8782" lon="6.20251">
        <ele>879</ele>
        <time>2011-08-01T09:46:43Z</time>
      </trkpt>
      <trkpt lat="45.87822" lon="6.20249">
        <ele>889</ele>
        <time>2011-08-01T09:46:53Z</time>
      </trkpt>
      <trkpt lat="45.87823" lon="6.2025">
        <ele>889</ele>
        <time>2011-08-01T09:46:57Z</time>
      </trkpt>
      <trkpt lat="45.8783" lon="6.20252">
        <ele>879</ele>
        <time>2011-08-01T09:47:06Z</time>
      </trkpt>
      <trkpt lat="45.87834" lon="6.20253">
        <ele>877</ele>
        <time>2011-08-01T09:47:13Z</time>
      </trkpt>
      <trkpt lat="45.8784" lon="6.20255">
        <ele>875</ele>
        <time>2011-08-01T09:47:22Z</time>
      </trkpt>
      <trkpt lat="45.87848" lon="6.20256">
        <ele>872</ele>
        <time>2011-08-01T09:47:29Z</time>
      </trkpt>
      <trkpt lat="45.87853" lon="6.20255">
        <ele>871</ele>
        <time>2011-08-01T09:47:34Z</time>
      </trkpt>
      <trkpt lat="45.87854" lon="6.20254">
        <ele>871</ele>
        <time>2011-08-01T09:47:35Z</time>
      </trkpt>
      <trkpt lat="45.87864" lon="6.20252">
        <ele>870</ele>
        <time>2011-08-01T09:47:42Z</time>
      </trkpt>
      <trkpt lat="45.87868" lon="6.20249">
        <ele>890</ele>
        <time>2011-08-01T09:47:46Z</time>
      </trkpt>
      <trkpt lat="45.87877" lon="6.2025">
        <ele>869</ele>
        <time>2011-08-01T09:47:50Z</time>
      </trkpt>
      <trkpt lat="45.87891" lon="6.20259">
        <ele>868</ele>
        <time>2011-08-01T09:47:56Z</time>
      </trkpt>
      <trkpt lat="45.87906" lon="6.20256">
        <ele>871</ele>
        <time>2011-08-01T09:48:01Z</time>
      </trkpt>
      <trkpt lat="45.87911" lon="6.20251">
        <ele>873</ele>
        <time>2011-08-01T09:48:05Z</time>
      </trkpt>
      <trkpt lat="45.87914" lon="6.20249">
        <ele>877</ele>
        <time>2011-08-01T09:48:10Z</time>
      </trkpt>
      <trkpt lat="45.87922" lon="6.20241">
        <ele>881</ele>
        <time>2011-08-01T09:48:16Z</time>
      </trkpt>
      <trkpt lat="45.8793" lon="6.20235">
        <ele>884</ele>
        <time>2011-08-01T09:48:22Z</time>
      </trkpt>
      <trkpt lat="45.87937" lon="6.20228">
        <ele>887</ele>
        <time>2011-08-01T09:48:27Z</time>
      </trkpt>
      <trkpt lat="45.87948" lon="6.20218">
        <ele>890</ele>
        <time>2011-08-01T09:48:35Z</time>
      </trkpt>
      <trkpt lat="45.87962" lon="6.20214">
        <ele>891</ele>
        <time>2011-08-01T09:48:43Z</time>
      </trkpt>
      <trkpt lat="45.8797" lon="6.20213">
        <ele>890</ele>
        <time>2011-08-01T09:48:48Z</time>
      </trkpt>
      <trkpt lat="45.87977" lon="6.20214">
        <ele>890</ele>
        <time>2011-08-01T09:48:53Z</time>
      </trkpt>
      <trkpt lat="45.87982" lon="6.2021">
        <ele>891</ele>
        <time>2011-08-01T09:49:00Z</time>
      </trkpt>
      <trkpt lat="45.87979" lon="6.20206">
        <ele>892</ele>
        <time>2011-08-01T09:49:10Z</time>
      </trkpt>
      <trkpt lat="45.87992" lon="6.20207">
        <ele>891</ele>
        <time>2011-08-01T09:49:27Z</time>
      </trkpt>
      <trkpt lat="45.87997" lon="6.20203">
        <ele>893</ele>
        <time>2011-08-01T09:49:31Z</time>
      </trkpt>
      <trkpt lat="45.88007" lon="6.20202">
        <ele>888</ele>
        <time>2011-08-01T09:49:36Z</time>
      </trkpt>
      <trkpt lat="45.88021" lon="6.20193">
        <ele>889</ele>
        <time>2011-08-01T09:49:42Z</time>
      </trkpt>
      <trkpt lat="45.88025" lon="6.20188">
        <ele>890</ele>
        <time>2011-08-01T09:49:44Z</time>
      </trkpt>
      <trkpt lat="45.88029" lon="6.20185">
        <ele>890</ele>
        <time>2011-08-01T09:49:47Z</time>
      </trkpt>
      <trkpt lat="45.88032" lon="6.20182">
        <ele>890</ele>
        <time>2011-08-01T09:49:49Z</time>
      </trkpt>
      <trkpt lat="45.8804" lon="6.20171">
        <ele>891</ele>
        <time>2011-08-01T09:49:55Z</time>
      </trkpt>
      <trkpt lat="45.88042" lon="6.20169">
        <ele>891</ele>
        <time>2011-08-01T09:49:57Z</time>
      </trkpt>
      <trkpt lat="45.8805" lon="6.20166">
        <ele>911</ele>
        <time>2011-08-01T09:50:03Z</time>
      </trkpt>
      <trkpt lat="45.88054" lon="6.20163">
        <ele>910</ele>
        <time>2011-08-01T09:50:07Z</time>
      </trkpt>
      <trkpt lat="45.88056" lon="6.20157">
        <ele>910</ele>
        <time>2011-08-01T09:50:14Z</time>
      </trkpt>
      <trkpt lat="45.88059" lon="6.20151">
        <ele>911</ele>
        <time>2011-08-01T09:50:19Z</time>
      </trkpt>
      <trkpt lat="45.88061" lon="6.20145">
        <ele>912</ele>
        <time>2011-08-01T09:50:23Z</time>
      </trkpt>
      <trkpt lat="45.88065" lon="6.20139">
        <ele>913</ele>
        <time>2011-08-01T09:50:29Z</time>
      </trkpt>
      <trkpt lat="45.88069" lon="6.20138">
        <ele>913</ele>
        <time>2011-08-01T09:50:42Z</time>
      </trkpt>
      <trkpt lat="45.88073" lon="6.20137">
        <ele>912</ele>
        <time>2011-08-01T09:50:47Z</time>
      </trkpt>
      <trkpt lat="45.88076" lon="6.20135">
        <ele>913</ele>
        <time>2011-08-01T09:50:53Z</time>
      </trkpt>
      <trkpt lat="45.88083" lon="6.20125">
        <ele>915</ele>
        <time>2011-08-01T09:51:01Z</time>
      </trkpt>
      <trkpt lat="45.88091" lon="6.20121">
        <ele>909</ele>
        <time>2011-08-01T09:51:08Z</time>
      </trkpt>
      <trkpt lat="45.88093" lon="6.20116">
        <ele>910</ele>
        <time>2011-08-01T09:51:12Z</time>
      </trkpt>
      <trkpt lat="45.88097" lon="6.20112">
        <ele>910</ele>
        <time>2011-08-01T09:51:16Z</time>
      </trkpt>
      <trkpt lat="45.88102" lon="6.20105">
        <ele>911</ele>
        <time>2011-08-01T09:51:21Z</time>
      </trkpt>
      <trkpt lat="45.88104" lon="6.20099">
        <ele>913</ele>
        <time>2011-08-01T09:51:25Z</time>
      </trkpt>
      <trkpt lat="45.88109" lon="6.20084">
        <ele>913</ele>
        <time>2011-08-01T09:51:29Z</time>
      </trkpt>
      <trkpt lat="45.88108" lon="6.20077">
        <ele>931</ele>
        <time>2011-08-01T09:51:32Z</time>
      </trkpt>
      <trkpt lat="45.88107" lon="6.20068">
        <ele>933</ele>
        <time>2011-08-01T09:51:37Z</time>
      </trkpt>
      <trkpt lat="45.88108" lon="6.20062">
        <ele>934</ele>
        <time>2011-08-01T09:51:41Z</time>
      </trkpt>
      <trkpt lat="45.88112" lon="6.20056">
        <ele>935</ele>
        <time>2011-08-01T09:51:48Z</time>
      </trkpt>
      <trkpt lat="45.88114" lon="6.20047">
        <ele>937</ele>
        <time>2011-08-01T09:51:53Z</time>
      </trkpt>
      <trkpt lat="45.88118" lon="6.2005">
        <ele>936</ele>
        <time>2011-08-01T09:51:59Z</time>
      </trkpt>
      <trkpt lat="45.88132" lon="6.2005">
        <ele>936</ele>
        <time>2011-08-01T09:52:17Z</time>
      </trkpt>
      <trkpt lat="45.8814" lon="6.20054">
        <ele>934</ele>
        <time>2011-08-01T09:52:24Z</time>
      </trkpt>
      <trkpt lat="45.88145" lon="6.20046">
        <ele>936</ele>
        <time>2011-08-01T09:52:36Z</time>
      </trkpt>
      <trkpt lat="45.88147" lon="6.20039">
        <ele>938</ele>
        <time>2011-08-01T09:52:42Z</time>
      </trkpt>
      <trkpt lat="45.88148" lon="6.20034">
        <ele>939</ele>
        <time>2011-08-01T09:52:46Z</time>
      </trkpt>
      <trkpt lat="45.88149" lon="6.20029">
        <ele>940</ele>
        <time>2011-08-01T09:52:51Z</time>
      </trkpt>
      <trkpt lat="45.88158" lon="6.20024">
        <ele>942</ele>
        <time>2011-08-01T09:53:08Z</time>
      </trkpt>
      <trkpt lat="45.88165" lon="6.20019">
        <ele>944</ele>
        <time>2011-08-01T09:53:15Z</time>
      </trkpt>
      <trkpt lat="45.88171" lon="6.20018">
        <ele>950</ele>
        <time>2011-08-01T09:53:19Z</time>
      </trkpt>
      <trkpt lat="45.88178" lon="6.20014">
        <ele>950</ele>
        <time>2011-08-01T09:53:25Z</time>
      </trkpt>
      <trkpt lat="45.88182" lon="6.20006">
        <ele>951</ele>
        <time>2011-08-01T09:53:32Z</time>
      </trkpt>
      <trkpt lat="45.88187" lon="6.20002">
        <ele>952</ele>
        <time>2011-08-01T09:53:36Z</time>
      </trkpt>
      <trkpt lat="45.88194" lon="6.19996">
        <ele>972</ele>
        <time>2011-08-01T09:53:43Z</time>
      </trkpt>
      <trkpt lat="45.88196" lon="6.19996">
        <ele>973</ele>
        <time>2011-08-01T09:53:47Z</time>
      </trkpt>
      <trkpt lat="45.88197" lon="6.2">
        <ele>973</ele>
        <time>2011-08-01T09:53:56Z</time>
      </trkpt>
      <trkpt lat="45.88203" lon="6.19992">
        <ele>975</ele>
        <time>2011-08-01T09:54:01Z</time>
      </trkpt>
      <trkpt lat="45.88211" lon="6.19988">
        <ele>978</ele>
        <time>2011-08-01T09:54:08Z</time>
      </trkpt>
      <trkpt lat="45.88214" lon="6.19989">
        <ele>978</ele>
        <time>2011-08-01T09:54:14Z</time>
      </trkpt>
      <trkpt lat="45.88213" lon="6.19999">
        <ele>977</ele>
        <time>2011-08-01T09:54:29Z</time>
      </trkpt>
      <trkpt lat="45.88216" lon="6.20006">
        <ele>957</ele>
        <time>2011-08-01T09:54:34Z</time>
      </trkpt>
      <trkpt lat="45.88219" lon="6.2001">
        <ele>958</ele>
        <time>2011-08-01T09:54:40Z</time>
      </trkpt>
      <trkpt lat="45.88219" lon="6.20015">
        <ele>957</ele>
        <time>2011-08-01T09:54:46Z</time>
      </trkpt>
      <trkpt lat="45.88221" lon="6.2002">
        <ele>957</ele>
        <time>2011-08-01T09:54:53Z</time>
      </trkpt>
      <trkpt lat="45.88224" lon="6.20024">
        <ele>956</ele>
        <time>2011-08-01T09:54:58Z</time>
      </trkpt>
      <trkpt lat="45.88227" lon="6.20035">
        <ele>954</ele>
        <time>2011-08-01T09:55:06Z</time>
      </trkpt>
      <trkpt lat="45.88229" lon="6.20038">
        <ele>954</ele>
        <time>2011-08-01T09:55:07Z</time>
      </trkpt>
      <trkpt lat="45.88231" lon="6.20044">
        <ele>953</ele>
        <time>2011-08-01T09:55:12Z</time>
      </trkpt>
      <trkpt lat="45.88234" lon="6.2005">
        <ele>951</ele>
        <time>2011-08-01T09:55:15Z</time>
      </trkpt>
      <trkpt lat="45.88237" lon="6.20062">
        <ele>950</ele>
        <time>2011-08-01T09:55:24Z</time>
      </trkpt>
      <trkpt lat="45.88237" lon="6.20062">
        <ele>950</ele>
        <time>2011-08-01T09:55:25Z</time>
      </trkpt>
      <trkpt lat="45.88243" lon="6.20069">
        <ele>949</ele>
        <time>2011-08-01T09:55:32Z</time>
      </trkpt>
      <trkpt lat="45.88245" lon="6.20072">
        <ele>949</ele>
        <time>2011-08-01T09:55:36Z</time>
      </trkpt>
      <trkpt lat="45.88252" lon="6.20082">
        <ele>951</ele>
        <time>2011-08-01T09:55:43Z</time>
      </trkpt>
      <trkpt lat="45.88258" lon="6.20083">
        <ele>956</ele>
        <time>2011-08-01T09:55:49Z</time>
      </trkpt>
      <trkpt lat="45.88262" lon="6.20086">
        <ele>947</ele>
        <time>2011-08-01T09:55:54Z</time>
      </trkpt>
      <trkpt lat="45.88267" lon="6.20091">
        <ele>946</ele>
        <time>2011-08-01T09:56:00Z</time>
      </trkpt>
      <trkpt lat="45.8827" lon="6.20095">
        <ele>946</ele>
        <time>2011-08-01T09:56:05Z</time>
      </trkpt>
      <trkpt lat="45.88275" lon="6.20097">
        <ele>946</ele>
        <time>2011-08-01T09:56:11Z</time>
      </trkpt>
      <trkpt lat="45.8828" lon="6.20101">
        <ele>946</ele>
        <time>2011-08-01T09:56:18Z</time>
      </trkpt>
      <trkpt lat="45.88284" lon="6.20104">
        <ele>946</ele>
        <time>2011-08-01T09:56:26Z</time>
      </trkpt>
      <trkpt lat="45.8829" lon="6.20109">
        <ele>946</ele>
        <time>2011-08-01T09:56:33Z</time>
      </trkpt>
      <trkpt lat="45.88297" lon="6.20109">
        <ele>948</ele>
        <time>2011-08-01T09:56:39Z</time>
      </trkpt>
      <trkpt lat="45.883" lon="6.2011">
        <ele>948</ele>
        <time>2011-08-01T09:56:43Z</time>
      </trkpt>
      <trkpt lat="45.88306" lon="6.20111">
        <ele>949</ele>
        <time>2011-08-01T09:56:48Z</time>
      </trkpt>
      <trkpt lat="45.88313" lon="6.20113">
        <ele>950</ele>
        <time>2011-08-01T09:56:54Z</time>
      </trkpt>
      <trkpt lat="45.88323" lon="6.20114">
        <ele>952</ele>
        <time>2011-08-01T09:57:02Z</time>
      </trkpt>
      <trkpt lat="45.88324" lon="6.20113">
        <ele>952</ele>
        <time>2011-08-01T09:57:03Z</time>
      </trkpt>
      <trkpt lat="45.88336" lon="6.20116">
        <ele>963</ele>
        <time>2011-08-01T09:57:10Z</time>
      </trkpt>
      <trkpt lat="45.88339" lon="6.20108">
        <ele>966</ele>
        <time>2011-08-01T09:57:15Z</time>
      </trkpt>
      <trkpt lat="45.88344" lon="6.20102">
        <ele>967</ele>
        <time>2011-08-01T09:57:28Z</time>
      </trkpt>
      <trkpt lat="45.88343" lon="6.20103">
        <ele>967</ele>
        <time>2011-08-01T09:57:37Z</time>
      </trkpt>
      <trkpt lat="45.88356" lon="6.2011">
        <ele>965</ele>
        <time>2011-08-01T09:57:44Z</time>
      </trkpt>
      <trkpt lat="45.88368" lon="6.20116">
        <ele>964</ele>
        <time>2011-08-01T09:57:48Z</time>
      </trkpt>
      <trkpt lat="45.88383" lon="6.20125">
        <ele>963</ele>
        <time>2011-08-01T09:57:53Z</time>
      </trkpt>
      <trkpt lat="45.88392" lon="6.20128">
        <ele>963</ele>
        <time>2011-08-01T09:57:58Z</time>
      </trkpt>
      <trkpt lat="45.88398" lon="6.20129">
        <ele>963</ele>
        <time>2011-08-01T09:58:01Z</time>
      </trkpt>
      <trkpt lat="45.88404" lon="6.20138">
        <ele>960</ele>
        <time>2011-08-01T09:58:08Z</time>
      </trkpt>
      <trkpt lat="45.88408" lon="6.2014">
        <ele>959</ele>
        <time>2011-08-01T09:58:13Z</time>
      </trkpt>
      <trkpt lat="45.88409" lon="6.20142">
        <ele>958</ele>
        <time>2011-08-01T09:58:14Z</time>
      </trkpt>
      <trkpt lat="45.88418" lon="6.20141">
        <ele>962</ele>
        <time>2011-08-01T09:58:18Z</time>
      </trkpt>
      <trkpt lat="45.88438" lon="6.20141">
        <ele>964</ele>
        <time>2011-08-01T09:58:24Z</time>
      </trkpt>
      <trkpt lat="45.88444" lon="6.20143">
        <ele>964</ele>
        <time>2011-08-01T09:58:26Z</time>
      </trkpt>
      <trkpt lat="45.88441" lon="6.20134">
        <ele>967</ele>
        <time>2011-08-01T09:58:31Z</time>
      </trkpt>
      <trkpt lat="45.88443" lon="6.20123">
        <ele>970</ele>
        <time>2011-08-01T09:58:38Z</time>
      </trkpt>
      <trkpt lat="45.88446" lon="6.20127">
        <ele>969</ele>
        <time>2011-08-01T09:58:40Z</time>
      </trkpt>
      <trkpt lat="45.88457" lon="6.20137">
        <ele>967</ele>
        <time>2011-08-01T09:58:46Z</time>
      </trkpt>
      <trkpt lat="45.88464" lon="6.20138">
        <ele>966</ele>
        <time>2011-08-01T09:58:49Z</time>
      </trkpt>
      <trkpt lat="45.88475" lon="6.20141">
        <ele>965</ele>
        <time>2011-08-01T09:58:56Z</time>
      </trkpt>
      <trkpt lat="45.8849" lon="6.20142">
        <ele>964</ele>
        <time>2011-08-01T09:59:01Z</time>
      </trkpt>
      <trkpt lat="45.88493" lon="6.20141">
        <ele>964</ele>
        <time>2011-08-01T09:59:05Z</time>
      </trkpt>
      <trkpt lat="45.88497" lon="6.20137">
        <ele>965</ele>
        <time>2011-08-01T09:59:09Z</time>
      </trkpt>
      <trkpt lat="45.88499" lon="6.20134">
        <ele>967</ele>
        <time>2011-08-01T09:59:12Z</time>
      </trkpt>
      <trkpt lat="45.88501" lon="6.20128">
        <ele>972</ele>
        <time>2011-08-01T09:59:16Z</time>
      </trkpt>
      <trkpt lat="45.88503" lon="6.20115">
        <ele>978</ele>
        <time>2011-08-01T09:59:23Z</time>
      </trkpt>
      <trkpt lat="45.8851" lon="6.20114">
        <ele>978</ele>
        <time>2011-08-01T09:59:29Z</time>
      </trkpt>
      <trkpt lat="45.88526" lon="6.2012">
        <ele>976</ele>
        <time>2011-08-01T09:59:54Z</time>
      </trkpt>
      <trkpt lat="45.8852" lon="6.2013">
        <ele>972</ele>
        <time>2011-08-01T09:59:59Z</time>
      </trkpt>
      <trkpt lat="45.8852" lon="6.20134">
        <ele>971</ele>
        <time>2011-08-01T10:00:02Z</time>
      </trkpt>
      <trkpt lat="45.8852" lon="6.20143">
        <ele>968</ele>
        <time>2011-08-01T10:00:08Z</time>
      </trkpt>
      <trkpt lat="45.88527" lon="6.20148">
        <ele>967</ele>
        <time>2011-08-01T10:00:14Z</time>
      </trkpt>
      <trkpt lat="45.88532" lon="6.20147">
        <ele>968</ele>
        <time>2011-08-01T10:00:18Z</time>
      </trkpt>
      <trkpt lat="45.88536" lon="6.2015">
        <ele>968</ele>
        <time>2011-08-01T10:00:25Z</time>
      </trkpt>
      <trkpt lat="45.88544" lon="6.20152">
        <ele>968</ele>
        <time>2011-08-01T10:00:32Z</time>
      </trkpt>
      <trkpt lat="45.88553" lon="6.2016">
        <ele>967</ele>
        <time>2011-08-01T10:00:37Z</time>
      </trkpt>
      <trkpt lat="45.88558" lon="6.20164">
        <ele>966</ele>
        <time>2011-08-01T10:00:42Z</time>
      </trkpt>
      <trkpt lat="45.88561" lon="6.2017">
        <ele>942</ele>
        <time>2011-08-01T10:00:51Z</time>
      </trkpt>
      <trkpt lat="45.88564" lon="6.20176">
        <ele>942</ele>
        <time>2011-08-01T10:00:56Z</time>
      </trkpt>
      <trkpt lat="45.8857" lon="6.2018">
        <ele>943</ele>
        <time>2011-08-01T10:01:00Z</time>
      </trkpt>
      <trkpt lat="45.88588" lon="6.20191">
        <ele>945</ele>
        <time>2011-08-01T10:01:06Z</time>
      </trkpt>
      <trkpt lat="45.88604" lon="6.20198">
        <ele>942</ele>
        <time>2011-08-01T10:01:10Z</time>
      </trkpt>
      <trkpt lat="45.8862" lon="6.20204">
        <ele>941</ele>
        <time>2011-08-01T10:01:15Z</time>
      </trkpt>
      <trkpt lat="45.88626" lon="6.20206">
        <ele>941</ele>
        <time>2011-08-01T10:01:21Z</time>
      </trkpt>
      <trkpt lat="45.88632" lon="6.20205">
        <ele>942</ele>
        <time>2011-08-01T10:01:26Z</time>
      </trkpt>
      <trkpt lat="45.88635" lon="6.20207">
        <ele>941</ele>
        <time>2011-08-01T10:01:30Z</time>
      </trkpt>
      <trkpt lat="45.88643" lon="6.2021">
        <ele>941</ele>
        <time>2011-08-01T10:01:37Z</time>
      </trkpt>
      <trkpt lat="45.88651" lon="6.2021">
        <ele>941</ele>
        <time>2011-08-01T10:01:44Z</time>
      </trkpt>
      <trkpt lat="45.88652" lon="6.20211">
        <ele>941</ele>
        <time>2011-08-01T10:01:45Z</time>
      </trkpt>
      <trkpt lat="45.88655" lon="6.2021">
        <ele>941</ele>
        <time>2011-08-01T10:01:47Z</time>
      </trkpt>
      <trkpt lat="45.88658" lon="6.20207">
        <ele>942</ele>
        <time>2011-08-01T10:01:51Z</time>
      </trkpt>
      <trkpt lat="45.88665" lon="6.20202">
        <ele>944</ele>
        <time>2011-08-01T10:01:58Z</time>
      </trkpt>
      <trkpt lat="45.8867" lon="6.20201">
        <ele>950</ele>
        <time>2011-08-01T10:02:03Z</time>
      </trkpt>
      <trkpt lat="45.88678" lon="6.20203">
        <ele>950</ele>
        <time>2011-08-01T10:02:12Z</time>
      </trkpt>
      <trkpt lat="45.88684" lon="6.20202">
        <ele>950</ele>
        <time>2011-08-01T10:02:18Z</time>
      </trkpt>
      <trkpt lat="45.8869" lon="6.20204">
        <ele>950</ele>
        <time>2011-08-01T10:02:22Z</time>
      </trkpt>
      <trkpt lat="45.88698" lon="6.20203">
        <ele>950</ele>
        <time>2011-08-01T10:02:29Z</time>
      </trkpt>
      <trkpt lat="45.88702" lon="6.20202">
        <ele>951</ele>
        <time>2011-08-01T10:02:34Z</time>
      </trkpt>
      <trkpt lat="45.88707" lon="6.202">
        <ele>951</ele>
        <time>2011-08-01T10:02:40Z</time>
      </trkpt>
      <trkpt lat="45.88715" lon="6.20198">
        <ele>952</ele>
        <time>2011-08-01T10:02:49Z</time>
      </trkpt>
      <trkpt lat="45.8872" lon="6.20198">
        <ele>952</ele>
        <time>2011-08-01T10:02:55Z</time>
      </trkpt>
      <trkpt lat="45.88725" lon="6.20193">
        <ele>954</ele>
        <time>2011-08-01T10:03:02Z</time>
      </trkpt>
      <trkpt lat="45.88727" lon="6.20191">
        <ele>954</ele>
        <time>2011-08-01T10:03:08Z</time>
      </trkpt>
      <trkpt lat="45.88736" lon="6.20185">
        <ele>958</ele>
        <time>2011-08-01T10:03:15Z</time>
      </trkpt>
      <trkpt lat="45.88745" lon="6.20181">
        <ele>960</ele>
        <time>2011-08-01T10:03:20Z</time>
      </trkpt>
      <trkpt lat="45.8875" lon="6.2018">
        <ele>962</ele>
        <time>2011-08-01T10:03:26Z</time>
      </trkpt>
      <trkpt lat="45.88754" lon="6.20176">
        <ele>966</ele>
        <time>2011-08-01T10:03:31Z</time>
      </trkpt>
      <trkpt lat="45.88758" lon="6.20174">
        <ele>966</ele>
        <time>2011-08-01T10:03:35Z</time>
      </trkpt>
      <trkpt lat="45.88763" lon="6.20171">
        <ele>965</ele>
        <time>2011-08-01T10:03:43Z</time>
      </trkpt>
      <trkpt lat="45.88769" lon="6.20168">
        <ele>964</ele>
        <time>2011-08-01T10:04:02Z</time>
      </trkpt>
      <trkpt lat="45.88774" lon="6.20172">
        <ele>963</ele>
        <time>2011-08-01T10:04:08Z</time>
      </trkpt>
      <trkpt lat="45.88781" lon="6.20176">
        <ele>962</ele>
        <time>2011-08-01T10:04:15Z</time>
      </trkpt>
      <trkpt lat="45.88783" lon="6.20177">
        <ele>962</ele>
        <time>2011-08-01T10:04:18Z</time>
      </trkpt>
      <trkpt lat="45.88791" lon="6.20177">
        <ele>963</ele>
        <time>2011-08-01T10:04:23Z</time>
      </trkpt>
      <trkpt lat="45.88795" lon="6.20178">
        <ele>963</ele>
        <time>2011-08-01T10:04:27Z</time>
      </trkpt>
      <trkpt lat="45.88802" lon="6.20175">
        <ele>964</ele>
        <time>2011-08-01T10:04:33Z</time>
      </trkpt>
      <trkpt lat="45.88807" lon="6.20177">
        <ele>965</ele>
        <time>2011-08-01T10:04:37Z</time>
      </trkpt>
      <trkpt lat="45.88812" lon="6.20181">
        <ele>965</ele>
        <time>2011-08-01T10:04:45Z</time>
      </trkpt>
      <trkpt lat="45.88813" lon="6.20186">
        <ele>964</ele>
        <time>2011-08-01T10:04:56Z</time>
      </trkpt>
      <trkpt lat="45.8881" lon="6.20197">
        <ele>960</ele>
        <time>2011-08-01T10:05:10Z</time>
      </trkpt>
      <trkpt lat="45.8881" lon="6.20198">
        <ele>960</ele>
        <time>2011-08-01T10:05:22Z</time>
      </trkpt>
      <trkpt lat="45.88811" lon="6.20194">
        <ele>961</ele>
        <time>2011-08-01T10:05:30Z</time>
      </trkpt>
      <trkpt lat="45.88813" lon="6.20192">
        <ele>962</ele>
        <time>2011-08-01T10:05:37Z</time>
      </trkpt>
      <trkpt lat="45.88816" lon="6.20192">
        <ele>963</ele>
        <time>2011-08-01T10:05:43Z</time>
      </trkpt>
      <trkpt lat="45.88829" lon="6.20196">
        <ele>962</ele>
        <time>2011-08-01T10:05:49Z</time>
      </trkpt>
      <trkpt lat="45.88837" lon="6.20197">
        <ele>968</ele>
        <time>2011-08-01T10:05:53Z</time>
      </trkpt>
      <trkpt lat="45.88839" lon="6.20194">
        <ele>968</ele>
        <time>2011-08-01T10:05:59Z</time>
      </trkpt>
      <trkpt lat="45.88844" lon="6.20191">
        <ele>970</ele>
        <time>2011-08-01T10:06:04Z</time>
      </trkpt>
      <trkpt lat="45.88855" lon="6.20185">
        <ele>971</ele>
        <time>2011-08-01T10:06:11Z</time>
      </trkpt>
      <trkpt lat="45.88861" lon="6.20181">
        <ele>971</ele>
        <time>2011-08-01T10:06:14Z</time>
      </trkpt>
      <trkpt lat="45.8887" lon="6.20172">
        <ele>973</ele>
        <time>2011-08-01T10:06:19Z</time>
      </trkpt>
      <trkpt lat="45.88873" lon="6.20169">
        <ele>974</ele>
        <time>2011-08-01T10:06:21Z</time>
      </trkpt>
      <trkpt lat="45.88876" lon="6.20171">
        <ele>974</ele>
        <time>2011-08-01T10:06:26Z</time>
      </trkpt>
      <trkpt lat="45.88881" lon="6.20176">
        <ele>974</ele>
        <time>2011-08-01T10:06:34Z</time>
      </trkpt>
      <trkpt lat="45.88889" lon="6.20182">
        <ele>974</ele>
        <time>2011-08-01T10:06:38Z</time>
      </trkpt>
      <trkpt lat="45.88899" lon="6.20183">
        <ele>977</ele>
        <time>2011-08-01T10:06:44Z</time>
      </trkpt>
      <trkpt lat="45.88909" lon="6.20185">
        <ele>979</ele>
        <time>2011-08-01T10:06:50Z</time>
      </trkpt>
      <trkpt lat="45.88913" lon="6.20188">
        <ele>978</ele>
        <time>2011-08-01T10:06:53Z</time>
      </trkpt>
      <trkpt lat="45.88924" lon="6.20192">
        <ele>983</ele>
        <time>2011-08-01T10:07:00Z</time>
      </trkpt>
      <trkpt lat="45.88928" lon="6.20198">
        <ele>981</ele>
        <time>2011-08-01T10:07:06Z</time>
      </trkpt>
      <trkpt lat="45.88931" lon="6.20202">
        <ele>980</ele>
        <time>2011-08-01T10:07:12Z</time>
      </trkpt>
      <trkpt lat="45.88941" lon="6.20203">
        <ele>980</ele>
        <time>2011-08-01T10:07:18Z</time>
      </trkpt>
      <trkpt lat="45.88947" lon="6.20204">
        <ele>980</ele>
        <time>2011-08-01T10:07:24Z</time>
      </trkpt>
      <trkpt lat="45.8895" lon="6.20205">
        <ele>980</ele>
        <time>2011-08-01T10:07:47Z</time>
      </trkpt>
      <trkpt lat="45.88951" lon="6.20205">
        <ele>980</ele>
        <time>2011-08-01T10:07:54Z</time>
      </trkpt>
      <trkpt lat="45.88956" lon="6.20208">
        <ele>980</ele>
        <time>2011-08-01T10:08:00Z</time>
      </trkpt>
      <trkpt lat="45.88961" lon="6.20207">
        <ele>981</ele>
        <time>2011-08-01T10:08:07Z</time>
      </trkpt>
      <trkpt lat="45.8897" lon="6.20206">
        <ele>982</ele>
        <time>2011-08-01T10:08:15Z</time>
      </trkpt>
      <trkpt lat="45.88984" lon="6.20203">
        <ele>984</ele>
        <time>2011-08-01T10:08:23Z</time>
      </trkpt>
      <trkpt lat="45.88993" lon="6.20203">
        <ele>985</ele>
        <time>2011-08-01T10:08:29Z</time>
      </trkpt>
      <trkpt lat="45.89003" lon="6.20201">
        <ele>994</ele>
        <time>2011-08-01T10:08:35Z</time>
      </trkpt>
      <trkpt lat="45.89008" lon="6.20204">
        <ele>994</ele>
        <time>2011-08-01T10:08:42Z</time>
      </trkpt>
      <trkpt lat="45.89013" lon="6.20204">
        <ele>993</ele>
        <time>2011-08-01T10:08:50Z</time>
      </trkpt>
      <trkpt lat="45.8902" lon="6.20204">
        <ele>994</ele>
        <time>2011-08-01T10:08:58Z</time>
      </trkpt>
      <trkpt lat="45.89028" lon="6.20202">
        <ele>995</ele>
        <time>2011-08-01T10:09:07Z</time>
      </trkpt>
      <trkpt lat="45.89036" lon="6.202">
        <ele>995</ele>
        <time>2011-08-01T10:09:14Z</time>
      </trkpt>
      <trkpt lat="45.89041" lon="6.20201">
        <ele>995</ele>
        <time>2011-08-01T10:09:24Z</time>
      </trkpt>
      <trkpt lat="45.8905" lon="6.20197">
        <ele>997</ele>
        <time>2011-08-01T10:09:29Z</time>
      </trkpt>
      <trkpt lat="45.89064" lon="6.20194">
        <ele>1000</ele>
        <time>2011-08-01T10:09:37Z</time>
      </trkpt>
      <trkpt lat="45.89074" lon="6.20192">
        <ele>1002</ele>
        <time>2011-08-01T10:09:43Z</time>
      </trkpt>
      <trkpt lat="45.89083" lon="6.2019">
        <ele>1003</ele>
        <time>2011-08-01T10:09:49Z</time>
      </trkpt>
      <trkpt lat="45.89084" lon="6.2019">
        <ele>1011</ele>
        <time>2011-08-01T10:09:50Z</time>
      </trkpt>
      <trkpt lat="45.89087" lon="6.202">
        <ele>1007</ele>
        <time>2011-08-01T10:09:58Z</time>
      </trkpt>
      <trkpt lat="45.89087" lon="6.20202">
        <ele>1007</ele>
        <time>2011-08-01T10:10:03Z</time>
      </trkpt>
      <trkpt lat="45.89095" lon="6.20199">
        <ele>1008</ele>
        <time>2011-08-01T10:10:10Z</time>
      </trkpt>
      <trkpt lat="45.89105" lon="6.20196">
        <ele>1009</ele>
        <time>2011-08-01T10:10:16Z</time>
      </trkpt>
      <trkpt lat="45.8911" lon="6.20194">
        <ele>1010</ele>
        <time>2011-08-01T10:10:18Z</time>
      </trkpt>
      <trkpt lat="45.89114" lon="6.20194">
        <ele>1010</ele>
        <time>2011-08-01T10:10:22Z</time>
      </trkpt>
      <trkpt lat="45.89121" lon="6.20195">
        <ele>1010</ele>
        <time>2011-08-01T10:10:32Z</time>
      </trkpt>
      <trkpt lat="45.89117" lon="6.20201">
        <ele>1009</ele>
        <time>2011-08-01T10:10:38Z</time>
      </trkpt>
      <trkpt lat="45.89121" lon="6.20197">
        <ele>1010</ele>
        <time>2011-08-01T10:10:44Z</time>
      </trkpt>
      <trkpt lat="45.89129" lon="6.20198">
        <ele>1011</ele>
        <time>2011-08-01T10:10:50Z</time>
      </trkpt>
      <trkpt lat="45.89135" lon="6.20197">
        <ele>1012</ele>
        <time>2011-08-01T10:10:56Z</time>
      </trkpt>
      <trkpt lat="45.89138" lon="6.20197">
        <ele>1012</ele>
        <time>2011-08-01T10:10:59Z</time>
      </trkpt>
      <trkpt lat="45.89148" lon="6.20182">
        <ele>1018</ele>
        <time>2011-08-01T10:11:06Z</time>
      </trkpt>
      <trkpt lat="45.89154" lon="6.2018">
        <ele>1020</ele>
        <time>2011-08-01T10:11:13Z</time>
      </trkpt>
      <trkpt lat="45.89156" lon="6.2018">
        <ele>1021</ele>
        <time>2011-08-01T10:11:17Z</time>
      </trkpt>
      <trkpt lat="45.89163" lon="6.20183">
        <ele>1021</ele>
        <time>2011-08-01T10:11:23Z</time>
      </trkpt>
      <trkpt lat="45.89166" lon="6.20185">
        <ele>1020</ele>
        <time>2011-08-01T10:11:27Z</time>
      </trkpt>
      <trkpt lat="45.89172" lon="6.20185">
        <ele>1029</ele>
        <time>2011-08-01T10:11:35Z</time>
      </trkpt>
      <trkpt lat="45.89176" lon="6.20186">
        <ele>1029</ele>
        <time>2011-08-01T10:11:39Z</time>
      </trkpt>
      <trkpt lat="45.89182" lon="6.20184">
        <ele>1029</ele>
        <time>2011-08-01T10:11:43Z</time>
      </trkpt>
      <trkpt lat="45.89187" lon="6.20184">
        <ele>1029</ele>
        <time>2011-08-01T10:11:49Z</time>
      </trkpt>
      <trkpt lat="45.89191" lon="6.20183">
        <ele>1030</ele>
        <time>2011-08-01T10:11:54Z</time>
      </trkpt>
      <trkpt lat="45.89195" lon="6.20185">
        <ele>1030</ele>
        <time>2011-08-01T10:11:59Z</time>
      </trkpt>
      <trkpt lat="45.89199" lon="6.20186">
        <ele>1030</ele>
        <time>2011-08-01T10:12:03Z</time>
      </trkpt>
      <trkpt lat="45.89201" lon="6.20186">
        <ele>1030</ele>
        <time>2011-08-01T10:12:08Z</time>
      </trkpt>
      <trkpt lat="45.89207" lon="6.20188">
        <ele>1031</ele>
        <time>2011-08-01T10:12:15Z</time>
      </trkpt>
      <trkpt lat="45.89211" lon="6.20188">
        <ele>1031</ele>
        <time>2011-08-01T10:12:19Z</time>
      </trkpt>
      <trkpt lat="45.89215" lon="6.20187">
        <ele>1032</ele>
        <time>2011-08-01T10:12:24Z</time>
      </trkpt>
      <trkpt lat="45.89219" lon="6.20185">
        <ele>1033</ele>
        <time>2011-08-01T10:12:30Z</time>
      </trkpt>
      <trkpt lat="45.89225" lon="6.20189">
        <ele>1034</ele>
        <time>2011-08-01T10:12:42Z</time>
      </trkpt>
      <trkpt lat="45.89226" lon="6.2019">
        <ele>1034</ele>
        <time>2011-08-01T10:12:43Z</time>
      </trkpt>
      <trkpt lat="45.8923" lon="6.20192">
        <ele>1034</ele>
        <time>2011-08-01T10:12:47Z</time>
      </trkpt>
      <trkpt lat="45.89234" lon="6.20191">
        <ele>1035</ele>
        <time>2011-08-01T10:12:51Z</time>
      </trkpt>
      <trkpt lat="45.8924" lon="6.20189">
        <ele>1037</ele>
        <time>2011-08-01T10:12:58Z</time>
      </trkpt>
      <trkpt lat="45.89243" lon="6.20188">
        <ele>1038</ele>
        <time>2011-08-01T10:13:03Z</time>
      </trkpt>
      <trkpt lat="45.89247" lon="6.2019">
        <ele>1037</ele>
        <time>2011-08-01T10:13:12Z</time>
      </trkpt>
      <trkpt lat="45.89254" lon="6.20189">
        <ele>1046</ele>
        <time>2011-08-01T10:13:18Z</time>
      </trkpt>
      <trkpt lat="45.89259" lon="6.20188">
        <ele>1046</ele>
        <time>2011-08-01T10:13:22Z</time>
      </trkpt>
      <trkpt lat="45.89267" lon="6.20186">
        <ele>1046</ele>
        <time>2011-08-01T10:13:31Z</time>
      </trkpt>
      <trkpt lat="45.89272" lon="6.20187">
        <ele>1046</ele>
        <time>2011-08-01T10:13:36Z</time>
      </trkpt>
      <trkpt lat="45.89275" lon="6.2019">
        <ele>1046</ele>
        <time>2011-08-01T10:13:43Z</time>
      </trkpt>
      <trkpt lat="45.89278" lon="6.20193">
        <ele>1045</ele>
        <time>2011-08-01T10:13:47Z</time>
      </trkpt>
      <trkpt lat="45.89284" lon="6.20197">
        <ele>1045</ele>
        <time>2011-08-01T10:13:51Z</time>
      </trkpt>
      <trkpt lat="45.89294" lon="6.20199">
        <ele>1045</ele>
        <time>2011-08-01T10:13:58Z</time>
      </trkpt>
      <trkpt lat="45.89302" lon="6.20209">
        <ele>1043</ele>
        <time>2011-08-01T10:14:05Z</time>
      </trkpt>
      <trkpt lat="45.89306" lon="6.20211">
        <ele>1043</ele>
        <time>2011-08-01T10:14:08Z</time>
      </trkpt>
      <trkpt lat="45.89312" lon="6.2021">
        <ele>1044</ele>
        <time>2011-08-01T10:14:15Z</time>
      </trkpt>
      <trkpt lat="45.89323" lon="6.20211">
        <ele>1044</ele>
        <time>2011-08-01T10:14:24Z</time>
      </trkpt>
      <trkpt lat="45.89329" lon="6.20212">
        <ele>1043</ele>
        <time>2011-08-01T10:14:31Z</time>
      </trkpt>
      <trkpt lat="45.89334" lon="6.20212">
        <ele>1047</ele>
        <time>2011-08-01T10:14:36Z</time>
      </trkpt>
      <trkpt lat="45.89342" lon="6.20213">
        <ele>1047</ele>
        <time>2011-08-01T10:14:42Z</time>
      </trkpt>
      <trkpt lat="45.89345" lon="6.20213">
        <ele>1047</ele>
        <time>2011-08-01T10:14:46Z</time>
      </trkpt>
      <trkpt lat="45.89354" lon="6.2021">
        <ele>1048</ele>
        <time>2011-08-01T10:14:53Z</time>
      </trkpt>
      <trkpt lat="45.89362" lon="6.20205">
        <ele>1050</ele>
        <time>2011-08-01T10:14:59Z</time>
      </trkpt>
      <trkpt lat="45.89371" lon="6.20203">
        <ele>1050</ele>
        <time>2011-08-01T10:15:07Z</time>
      </trkpt>
      <trkpt lat="45.89375" lon="6.20205">
        <ele>1050</ele>
        <time>2011-08-01T10:15:15Z</time>
      </trkpt>
      <trkpt lat="45.89379" lon="6.20199">
        <ele>1051</ele>
        <time>2011-08-01T10:15:21Z</time>
      </trkpt>
      <trkpt lat="45.89384" lon="6.20195">
        <ele>1053</ele>
        <time>2011-08-01T10:15:28Z</time>
      </trkpt>
      <trkpt lat="45.89389" lon="6.20191">
        <ele>1054</ele>
        <time>2011-08-01T10:15:33Z</time>
      </trkpt>
      <trkpt lat="45.89392" lon="6.2019">
        <ele>1055</ele>
        <time>2011-08-01T10:15:38Z</time>
      </trkpt>
      <trkpt lat="45.894" lon="6.20185">
        <ele>1057</ele>
        <time>2011-08-01T10:15:46Z</time>
      </trkpt>
      <trkpt lat="45.89401" lon="6.20184">
        <ele>1058</ele>
        <time>2011-08-01T10:15:47Z</time>
      </trkpt>
      <trkpt lat="45.89406" lon="6.20183">
        <ele>1059</ele>
        <time>2011-08-01T10:15:52Z</time>
      </trkpt>
      <trkpt lat="45.8941" lon="6.20183">
        <ele>1060</ele>
        <time>2011-08-01T10:15:57Z</time>
      </trkpt>
      <trkpt lat="45.89416" lon="6.20182">
        <ele>1061</ele>
        <time>2011-08-01T10:16:04Z</time>
      </trkpt>
      <trkpt lat="45.89417" lon="6.20181">
        <ele>1062</ele>
        <time>2011-08-01T10:16:05Z</time>
      </trkpt>
      <trkpt lat="45.8942" lon="6.20181">
        <ele>1061</ele>
        <time>2011-08-01T10:16:11Z</time>
      </trkpt>
      <trkpt lat="45.89427" lon="6.20178">
        <ele>1061</ele>
        <time>2011-08-01T10:16:18Z</time>
      </trkpt>
      <trkpt lat="45.89434" lon="6.20176">
        <ele>1059</ele>
        <time>2011-08-01T10:16:25Z</time>
      </trkpt>
      <trkpt lat="45.89441" lon="6.20174">
        <ele>1058</ele>
        <time>2011-08-01T10:16:30Z</time>
      </trkpt>
      <trkpt lat="45.8945" lon="6.20173">
        <ele>1057</ele>
        <time>2011-08-01T10:16:37Z</time>
      </trkpt>
      <trkpt lat="45.89454" lon="6.20173">
        <ele>1056</ele>
        <time>2011-08-01T10:16:42Z</time>
      </trkpt>
      <trkpt lat="45.89458" lon="6.2017">
        <ele>1057</ele>
        <time>2011-08-01T10:16:50Z</time>
      </trkpt>
      <trkpt lat="45.89464" lon="6.20172">
        <ele>1057</ele>
        <time>2011-08-01T10:17:04Z</time>
      </trkpt>
      <trkpt lat="45.89467" lon="6.20172">
        <ele>1057</ele>
        <time>2011-08-01T10:17:10Z</time>
      </trkpt>
      <trkpt lat="45.8947" lon="6.20172">
        <ele>1057</ele>
        <time>2011-08-01T10:17:15Z</time>
      </trkpt>
      <trkpt lat="45.89473" lon="6.20172">
        <ele>1058</ele>
        <time>2011-08-01T10:17:19Z</time>
      </trkpt>
      <trkpt lat="45.8948" lon="6.2017">
        <ele>1060</ele>
        <time>2011-08-01T10:17:25Z</time>
      </trkpt>
      <trkpt lat="45.89484" lon="6.20169">
        <ele>1061</ele>
        <time>2011-08-01T10:17:32Z</time>
      </trkpt>
      <trkpt lat="45.89488" lon="6.20165">
        <ele>1078</ele>
        <time>2011-08-01T10:17:38Z</time>
      </trkpt>
      <trkpt lat="45.89494" lon="6.20163">
        <ele>1076</ele>
        <time>2011-08-01T10:17:46Z</time>
      </trkpt>
      <trkpt lat="45.89498" lon="6.20157">
        <ele>1078</ele>
        <time>2011-08-01T10:17:55Z</time>
      </trkpt>
      <trkpt lat="45.89493" lon="6.20157">
        <ele>1079</ele>
        <time>2011-08-01T10:18:02Z</time>
      </trkpt>
      <trkpt lat="45.89491" lon="6.20153">
        <ele>1081</ele>
        <time>2011-08-01T10:18:08Z</time>
      </trkpt>
      <trkpt lat="45.89492" lon="6.20149">
        <ele>1082</ele>
        <time>2011-08-01T10:18:14Z</time>
      </trkpt>
      <trkpt lat="45.89494" lon="6.20145">
        <ele>1083</ele>
        <time>2011-08-01T10:18:21Z</time>
      </trkpt>
      <trkpt lat="45.89497" lon="6.20141">
        <ele>1084</ele>
        <time>2011-08-01T10:18:28Z</time>
      </trkpt>
      <trkpt lat="45.89501" lon="6.20134">
        <ele>1078</ele>
        <time>2011-08-01T10:18:35Z</time>
      </trkpt>
      <trkpt lat="45.89503" lon="6.20128">
        <ele>1078</ele>
        <time>2011-08-01T10:18:41Z</time>
      </trkpt>
      <trkpt lat="45.89504" lon="6.20117">
        <ele>1081</ele>
        <time>2011-08-01T10:18:48Z</time>
      </trkpt>
      <trkpt lat="45.89503" lon="6.20115">
        <ele>1082</ele>
        <time>2011-08-01T10:18:49Z</time>
      </trkpt>
      <trkpt lat="45.89506" lon="6.20106">
        <ele>1084</ele>
        <time>2011-08-01T10:18:53Z</time>
      </trkpt>
      <trkpt lat="45.8951" lon="6.20088">
        <ele>1090</ele>
        <time>2011-08-01T10:19:01Z</time>
      </trkpt>
      <trkpt lat="45.89513" lon="6.20075">
        <ele>1086</ele>
        <time>2011-08-01T10:19:07Z</time>
      </trkpt>
      <trkpt lat="45.89517" lon="6.20074">
        <ele>1084</ele>
        <time>2011-08-01T10:19:12Z</time>
      </trkpt>
      <trkpt lat="45.89526" lon="6.20074">
        <ele>1081</ele>
        <time>2011-08-01T10:19:18Z</time>
      </trkpt>
      <trkpt lat="45.89534" lon="6.20073">
        <ele>1078</ele>
        <time>2011-08-01T10:19:22Z</time>
      </trkpt>
      <trkpt lat="45.8954" lon="6.20073">
        <ele>1076</ele>
        <time>2011-08-01T10:19:30Z</time>
      </trkpt>
      <trkpt lat="45.89542" lon="6.20066">
        <ele>1075</ele>
        <time>2011-08-01T10:19:36Z</time>
      </trkpt>
      <trkpt lat="45.89546" lon="6.20064">
        <ele>1074</ele>
        <time>2011-08-01T10:19:42Z</time>
      </trkpt>
      <trkpt lat="45.89548" lon="6.20063">
        <ele>1073</ele>
        <time>2011-08-01T10:19:49Z</time>
      </trkpt>
      <trkpt lat="45.89548" lon="6.20058">
        <ele>1073</ele>
        <time>2011-08-01T10:19:55Z</time>
      </trkpt>
      <trkpt lat="45.89548" lon="6.2005">
        <ele>1072</ele>
        <time>2011-08-01T10:19:59Z</time>
      </trkpt>
      <trkpt lat="45.89543" lon="6.20031">
        <ele>1071</ele>
        <time>2011-08-01T10:20:06Z</time>
      </trkpt>
      <trkpt lat="45.89541" lon="6.20024">
        <ele>1071</ele>
        <time>2011-08-01T10:20:09Z</time>
      </trkpt>
      <trkpt lat="45.89537" lon="6.20008">
        <ele>1071</ele>
        <time>2011-08-01T10:20:15Z</time>
      </trkpt>
      <trkpt lat="45.89535" lon="6.20003">
        <ele>1071</ele>
        <time>2011-08-01T10:20:18Z</time>
      </trkpt>
      <trkpt lat="45.89535" lon="6.19999">
        <ele>1054</ele>
        <time>2011-08-01T10:20:21Z</time>
      </trkpt>
      <trkpt lat="45.89533" lon="6.19995">
        <ele>1054</ele>
        <time>2011-08-01T10:20:27Z</time>
      </trkpt>
      <trkpt lat="45.89528" lon="6.19987">
        <ele>1055</ele>
        <time>2011-08-01T10:20:33Z</time>
      </trkpt>
      <trkpt lat="45.89523" lon="6.19981">
        <ele>1055</ele>
        <time>2011-08-01T10:20:38Z</time>
      </trkpt>
      <trkpt lat="45.8952" lon="6.19973">
        <ele>1054</ele>
        <time>2011-08-01T10:20:42Z</time>
      </trkpt>
      <trkpt lat="45.89517" lon="6.19968">
        <ele>1052</ele>
        <time>2011-08-01T10:20:48Z</time>
      </trkpt>
      <trkpt lat="45.89516" lon="6.19964">
        <ele>1051</ele>
        <time>2011-08-01T10:20:49Z</time>
      </trkpt>
      <trkpt lat="45.89514" lon="6.19959">
        <ele>1050</ele>
        <time>2011-08-01T10:20:55Z</time>
      </trkpt>
      <trkpt lat="45.89511" lon="6.19958">
        <ele>1050</ele>
        <time>2011-08-01T10:21:00Z</time>
      </trkpt>
      <trkpt lat="45.8951" lon="6.19957">
        <ele>1050</ele>
        <time>2011-08-01T10:21:02Z</time>
      </trkpt>
      <trkpt lat="45.89506" lon="6.19954">
        <ele>1050</ele>
        <time>2011-08-01T10:21:05Z</time>
      </trkpt>
      <trkpt lat="45.89501" lon="6.19951">
        <ele>1049</ele>
        <time>2011-08-01T10:21:09Z</time>
      </trkpt>
      <trkpt lat="45.895" lon="6.1995">
        <ele>1070</ele>
        <time>2011-08-01T10:21:11Z</time>
      </trkpt>
      <trkpt lat="45.89498" lon="6.19948">
        <ele>1069</ele>
        <time>2011-08-01T10:21:14Z</time>
      </trkpt>
      <trkpt lat="45.89497" lon="6.19946">
        <ele>1069</ele>
        <time>2011-08-01T10:21:17Z</time>
      </trkpt>
      <trkpt lat="45.89489" lon="6.19936">
        <ele>1065</ele>
        <time>2011-08-01T10:21:23Z</time>
      </trkpt>
      <trkpt lat="45.89487" lon="6.19932">
        <ele>1064</ele>
        <time>2011-08-01T10:21:25Z</time>
      </trkpt>
      <trkpt lat="45.89475" lon="6.19912">
        <ele>1044</ele>
        <time>2011-08-01T10:21:33Z</time>
      </trkpt>
      <trkpt lat="45.89472" lon="6.19909">
        <ele>1044</ele>
        <time>2011-08-01T10:21:42Z</time>
      </trkpt>
      <trkpt lat="45.89469" lon="6.19905">
        <ele>1044</ele>
        <time>2011-08-01T10:21:47Z</time>
      </trkpt>
      <trkpt lat="45.89466" lon="6.19902">
        <ele>1044</ele>
        <time>2011-08-01T10:21:52Z</time>
      </trkpt>
      <trkpt lat="45.89462" lon="6.199">
        <ele>1045</ele>
        <time>2011-08-01T10:21:57Z</time>
      </trkpt>
      <trkpt lat="45.89459" lon="6.19896">
        <ele>1045</ele>
        <time>2011-08-01T10:22:02Z</time>
      </trkpt>
      <trkpt lat="45.89452" lon="6.19893">
        <ele>1045</ele>
        <time>2011-08-01T10:22:08Z</time>
      </trkpt>
      <trkpt lat="45.89442" lon="6.19887">
        <ele>1046</ele>
        <time>2011-08-01T10:22:13Z</time>
      </trkpt>
      <trkpt lat="45.8944" lon="6.19885">
        <ele>1046</ele>
        <time>2011-08-01T10:22:14Z</time>
      </trkpt>
      <trkpt lat="45.89438" lon="6.19882">
        <ele>1045</ele>
        <time>2011-08-01T10:22:16Z</time>
      </trkpt>
      <trkpt lat="45.89437" lon="6.19881">
        <ele>1045</ele>
        <time>2011-08-01T10:22:19Z</time>
      </trkpt>
      <trkpt lat="45.89431" lon="6.19876">
        <ele>1045</ele>
        <time>2011-08-01T10:22:25Z</time>
      </trkpt>
      <trkpt lat="45.89422" lon="6.19868">
        <ele>1043</ele>
        <time>2011-08-01T10:22:31Z</time>
      </trkpt>
      <trkpt lat="45.89407" lon="6.19853">
        <ele>1051</ele>
        <time>2011-08-01T10:22:37Z</time>
      </trkpt>
      <trkpt lat="45.89392" lon="6.19843">
        <ele>1052</ele>
        <time>2011-08-01T10:22:41Z</time>
      </trkpt>
      <trkpt lat="45.89384" lon="6.19838">
        <ele>1053</ele>
        <time>2011-08-01T10:22:45Z</time>
      </trkpt>
      <trkpt lat="45.89383" lon="6.19838">
        <ele>1054</ele>
        <time>2011-08-01T10:22:47Z</time>
      </trkpt>
      <trkpt lat="45.89371" lon="6.19827">
        <ele>1036</ele>
        <time>2011-08-01T10:22:54Z</time>
      </trkpt>
      <trkpt lat="45.89365" lon="6.19822">
        <ele>1037</ele>
        <time>2011-08-01T10:22:58Z</time>
      </trkpt>
      <trkpt lat="45.89352" lon="6.19814">
        <ele>1038</ele>
        <time>2011-08-01T10:23:03Z</time>
      </trkpt>
      <trkpt lat="45.89331" lon="6.19791">
        <ele>1051</ele>
        <time>2011-08-01T10:23:11Z</time>
      </trkpt>
      <trkpt lat="45.89329" lon="6.19787">
        <ele>1050</ele>
        <time>2011-08-01T10:23:12Z</time>
      </trkpt>
      <trkpt lat="45.89319" lon="6.1977">
        <ele>1046</ele>
        <time>2011-08-01T10:23:18Z</time>
      </trkpt>
      <trkpt lat="45.89316" lon="6.1977">
        <ele>1047</ele>
        <time>2011-08-01T10:23:22Z</time>
      </trkpt>
      <trkpt lat="45.8931" lon="6.19762">
        <ele>1047</ele>
        <time>2011-08-01T10:23:28Z</time>
      </trkpt>
      <trkpt lat="45.89305" lon="6.19753">
        <ele>1047</ele>
        <time>2011-08-01T10:23:34Z</time>
      </trkpt>
      <trkpt lat="45.893" lon="6.19747">
        <ele>1033</ele>
        <time>2011-08-01T10:23:37Z</time>
      </trkpt>
      <trkpt lat="45.893" lon="6.19743">
        <ele>1033</ele>
        <time>2011-08-01T10:23:42Z</time>
      </trkpt>
      <trkpt lat="45.89297" lon="6.19744">
        <ele>1033</ele>
        <time>2011-08-01T10:23:47Z</time>
      </trkpt>
      <trkpt lat="45.89285" lon="6.19732">
        <ele>1036</ele>
        <time>2011-08-01T10:23:54Z</time>
      </trkpt>
      <trkpt lat="45.89269" lon="6.19713">
        <ele>1036</ele>
        <time>2011-08-01T10:24:01Z</time>
      </trkpt>
      <trkpt lat="45.89256" lon="6.19698">
        <ele>1034</ele>
        <time>2011-08-01T10:24:07Z</time>
      </trkpt>
      <trkpt lat="45.89246" lon="6.19678">
        <ele>1044</ele>
        <time>2011-08-01T10:24:14Z</time>
      </trkpt>
      <trkpt lat="45.89234" lon="6.19654">
        <ele>1036</ele>
        <time>2011-08-01T10:24:21Z</time>
      </trkpt>
      <trkpt lat="45.89226" lon="6.19648">
        <ele>1038</ele>
        <time>2011-08-01T10:24:25Z</time>
      </trkpt>
      <trkpt lat="45.8921" lon="6.19637">
        <ele>1041</ele>
        <time>2011-08-01T10:24:32Z</time>
      </trkpt>
      <trkpt lat="45.89198" lon="6.19624">
        <ele>1041</ele>
        <time>2011-08-01T10:24:38Z</time>
      </trkpt>
      <trkpt lat="45.89189" lon="6.19613">
        <ele>1042</ele>
        <time>2011-08-01T10:24:44Z</time>
      </trkpt>
      <trkpt lat="45.89176" lon="6.19605">
        <ele>1043</ele>
        <time>2011-08-01T10:24:50Z</time>
      </trkpt>
      <trkpt lat="45.89162" lon="6.19592">
        <ele>1054</ele>
        <time>2011-08-01T10:24:56Z</time>
      </trkpt>
      <trkpt lat="45.89145" lon="6.19577">
        <ele>1051</ele>
        <time>2011-08-01T10:25:02Z</time>
      </trkpt>
      <trkpt lat="45.8913" lon="6.19551">
        <ele>1054</ele>
        <time>2011-08-01T10:25:09Z</time>
      </trkpt>
      <trkpt lat="45.89122" lon="6.19542">
        <ele>1055</ele>
        <time>2011-08-01T10:25:14Z</time>
      </trkpt>
      <trkpt lat="45.89113" lon="6.19531">
        <ele>1055</ele>
        <time>2011-08-01T10:25:21Z</time>
      </trkpt>
      <trkpt lat="45.89111" lon="6.19528">
        <ele>1055</ele>
        <time>2011-08-01T10:25:22Z</time>
      </trkpt>
      <trkpt lat="45.89105" lon="6.19519">
        <ele>1056</ele>
        <time>2011-08-01T10:25:26Z</time>
      </trkpt>
      <trkpt lat="45.89101" lon="6.19516">
        <ele>1056</ele>
        <time>2011-08-01T10:25:28Z</time>
      </trkpt>
      <trkpt lat="45.89094" lon="6.19502">
        <ele>1058</ele>
        <time>2011-08-01T10:25:34Z</time>
      </trkpt>
      <trkpt lat="45.89092" lon="6.19497">
        <ele>1056</ele>
        <time>2011-08-01T10:25:36Z</time>
      </trkpt>
      <trkpt lat="45.89085" lon="6.19482">
        <ele>1053</ele>
        <time>2011-08-01T10:25:41Z</time>
      </trkpt>
      <trkpt lat="45.89083" lon="6.1947">
        <ele>1064</ele>
        <time>2011-08-01T10:25:46Z</time>
      </trkpt>
      <trkpt lat="45.89076" lon="6.19448">
        <ele>1062</ele>
        <time>2011-08-01T10:25:53Z</time>
      </trkpt>
      <trkpt lat="45.89069" lon="6.19433">
        <ele>1061</ele>
        <time>2011-08-01T10:25:59Z</time>
      </trkpt>
      <trkpt lat="45.89059" lon="6.1942">
        <ele>1062</ele>
        <time>2011-08-01T10:26:04Z</time>
      </trkpt>
      <trkpt lat="45.89049" lon="6.19406">
        <ele>1064</ele>
        <time>2011-08-01T10:26:09Z</time>
      </trkpt>
      <trkpt lat="45.89038" lon="6.19385">
        <ele>1066</ele>
        <time>2011-08-01T10:26:16Z</time>
      </trkpt>
      <trkpt lat="45.89025" lon="6.19369">
        <ele>1067</ele>
        <time>2011-08-01T10:26:22Z</time>
      </trkpt>
      <trkpt lat="45.89003" lon="6.19349">
        <ele>1069</ele>
        <time>2011-08-01T10:26:31Z</time>
      </trkpt>
      <trkpt lat="45.88988" lon="6.19346">
        <ele>1068</ele>
        <time>2011-08-01T10:26:37Z</time>
      </trkpt>
      <trkpt lat="45.8898" lon="6.19341">
        <ele>1068</ele>
        <time>2011-08-01T10:26:41Z</time>
      </trkpt>
      <trkpt lat="45.88976" lon="6.19342">
        <ele>1068</ele>
        <time>2011-08-01T10:26:46Z</time>
      </trkpt>
      <trkpt lat="45.88974" lon="6.19344">
        <ele>1067</ele>
        <time>2011-08-01T10:26:52Z</time>
      </trkpt>
      <trkpt lat="45.88966" lon="6.19338">
        <ele>1067</ele>
        <time>2011-08-01T10:26:58Z</time>
      </trkpt>
      <trkpt lat="45.88957" lon="6.19332">
        <ele>1065</ele>
        <time>2011-08-01T10:27:02Z</time>
      </trkpt>
      <trkpt lat="45.88942" lon="6.1933">
        <ele>1063</ele>
        <time>2011-08-01T10:27:07Z</time>
      </trkpt>
      <trkpt lat="45.8893" lon="6.19317">
        <ele>1062</ele>
        <time>2011-08-01T10:27:11Z</time>
      </trkpt>
      <trkpt lat="45.88916" lon="6.19303">
        <ele>1054</ele>
        <time>2011-08-01T10:27:16Z</time>
      </trkpt>
      <trkpt lat="45.88902" lon="6.19287">
        <ele>1054</ele>
        <time>2011-08-01T10:27:20Z</time>
      </trkpt>
      <trkpt lat="45.88891" lon="6.19277">
        <ele>1053</ele>
        <time>2011-08-01T10:27:24Z</time>
      </trkpt>
      <trkpt lat="45.88876" lon="6.19263">
        <ele>1051</ele>
        <time>2011-08-01T10:27:28Z</time>
      </trkpt>
      <trkpt lat="45.88866" lon="6.19252">
        <ele>1049</ele>
        <time>2011-08-01T10:27:33Z</time>
      </trkpt>
      <trkpt lat="45.88859" lon="6.19242">
        <ele>1045</ele>
        <time>2011-08-01T10:27:38Z</time>
      </trkpt>
      <trkpt lat="45.88853" lon="6.1923">
        <ele>1044</ele>
        <time>2011-08-01T10:27:45Z</time>
      </trkpt>
      <trkpt lat="45.88845" lon="6.19228">
        <ele>1044</ele>
        <time>2011-08-01T10:27:50Z</time>
      </trkpt>
      <trkpt lat="45.8884" lon="6.1922">
        <ele>1044</ele>
        <time>2011-08-01T10:27:54Z</time>
      </trkpt>
      <trkpt lat="45.88838" lon="6.19219">
        <ele>1043</ele>
        <time>2011-08-01T10:27:59Z</time>
      </trkpt>
      <trkpt lat="45.88839" lon="6.19219">
        <ele>1043</ele>
        <time>2011-08-01T10:28:06Z</time>
      </trkpt>
      <trkpt lat="45.8884" lon="6.19224">
        <ele>1043</ele>
        <time>2011-08-01T10:28:10Z</time>
      </trkpt>
      <trkpt lat="45.88842" lon="6.19226">
        <ele>1043</ele>
        <time>2011-08-01T10:28:11Z</time>
      </trkpt>
      <trkpt lat="45.88844" lon="6.19228">
        <ele>1043</ele>
        <time>2011-08-01T10:28:13Z</time>
      </trkpt>
      <trkpt lat="45.88848" lon="6.1923">
        <ele>1044</ele>
        <time>2011-08-01T10:28:19Z</time>
      </trkpt>
      <trkpt lat="45.88853" lon="6.19232">
        <ele>1044</ele>
        <time>2011-08-01T10:28:26Z</time>
      </trkpt>
      <trkpt lat="45.88856" lon="6.19234">
        <ele>1045</ele>
        <time>2011-08-01T10:28:31Z</time>
      </trkpt>
      <trkpt lat="45.88855" lon="6.19238">
        <ele>1044</ele>
        <time>2011-08-01T10:28:33Z</time>
      </trkpt>
      <trkpt lat="45.88852" lon="6.19241">
        <ele>1044</ele>
        <time>2011-08-01T10:28:38Z</time>
      </trkpt>
      <trkpt lat="45.88846" lon="6.19242">
        <ele>1042</ele>
        <time>2011-08-01T10:28:45Z</time>
      </trkpt>
      <trkpt lat="45.88841" lon="6.1924">
        <ele>1042</ele>
        <time>2011-08-01T10:28:48Z</time>
      </trkpt>
      <trkpt lat="45.88826" lon="6.1924">
        <ele>1033</ele>
        <time>2011-08-01T10:28:54Z</time>
      </trkpt>
      <trkpt lat="45.88815" lon="6.19243">
        <ele>1031</ele>
        <time>2011-08-01T10:28:59Z</time>
      </trkpt>
      <trkpt lat="45.88799" lon="6.19249">
        <ele>1028</ele>
        <time>2011-08-01T10:29:07Z</time>
      </trkpt>
      <trkpt lat="45.88791" lon="6.19255">
        <ele>1042</ele>
        <time>2011-08-01T10:29:13Z</time>
      </trkpt>
      <trkpt lat="45.88789" lon="6.19255">
        <ele>1042</ele>
        <time>2011-08-01T10:29:14Z</time>
      </trkpt>
      <trkpt lat="45.88787" lon="6.1926">
        <ele>1042</ele>
        <time>2011-08-01T10:29:22Z</time>
      </trkpt>
      <trkpt lat="45.8879" lon="6.1926">
        <ele>1043</ele>
        <time>2011-08-01T10:29:28Z</time>
      </trkpt>
      <trkpt lat="45.88791" lon="6.1926">
        <ele>1043</ele>
        <time>2011-08-01T10:29:29Z</time>
      </trkpt>
      <trkpt lat="45.88797" lon="6.19259">
        <ele>1043</ele>
        <time>2011-08-01T10:29:33Z</time>
      </trkpt>
      <trkpt lat="45.88814" lon="6.19254">
        <ele>1042</ele>
        <time>2011-08-01T10:29:40Z</time>
      </trkpt>
      <trkpt lat="45.88823" lon="6.19253">
        <ele>1041</ele>
        <time>2011-08-01T10:29:45Z</time>
      </trkpt>
      <trkpt lat="45.88832" lon="6.19251">
        <ele>1039</ele>
        <time>2011-08-01T10:29:52Z</time>
      </trkpt>
      <trkpt lat="45.88842" lon="6.19246">
        <ele>1041</ele>
        <time>2011-08-01T10:29:58Z</time>
      </trkpt>
      <trkpt lat="45.8885" lon="6.19244">
        <ele>1043</ele>
        <time>2011-08-01T10:30:04Z</time>
      </trkpt>
      <trkpt lat="45.88851" lon="6.19235">
        <ele>1044</ele>
        <time>2011-08-01T10:30:10Z</time>
      </trkpt>
      <trkpt lat="45.88852" lon="6.19228">
        <ele>1045</ele>
        <time>2011-08-01T10:30:19Z</time>
      </trkpt>
      <trkpt lat="45.88852" lon="6.19222">
        <ele>1045</ele>
        <time>2011-08-01T10:30:24Z</time>
      </trkpt>
      <trkpt lat="45.88853" lon="6.19219">
        <ele>1045</ele>
        <time>2011-08-01T10:30:29Z</time>
      </trkpt>
      <trkpt lat="45.88855" lon="6.19209">
        <ele>1045</ele>
        <time>2011-08-01T10:30:35Z</time>
      </trkpt>
      <trkpt lat="45.88852" lon="6.19197">
        <ele>1044</ele>
        <time>2011-08-01T10:30:39Z</time>
      </trkpt>
      <trkpt lat="45.88849" lon="6.19168">
        <ele>1039</ele>
        <time>2011-08-01T10:30:45Z</time>
      </trkpt>
      <trkpt lat="45.88847" lon="6.19163">
        <ele>1043</ele>
        <time>2011-08-01T10:30:49Z</time>
      </trkpt>
      <trkpt lat="45.88847" lon="6.19164">
        <ele>1043</ele>
        <time>2011-08-01T10:30:50Z</time>
      </trkpt>
      <trkpt lat="45.88848" lon="6.19166">
        <ele>1044</ele>
        <time>2011-08-01T10:30:52Z</time>
      </trkpt>
      <trkpt lat="45.88852" lon="6.19172">
        <ele>1041</ele>
        <time>2011-08-01T10:30:58Z</time>
      </trkpt>
      <trkpt lat="45.88853" lon="6.19179">
        <ele>1042</ele>
        <time>2011-08-01T10:31:03Z</time>
      </trkpt>
      <trkpt lat="45.88855" lon="6.19193">
        <ele>1044</ele>
        <time>2011-08-01T10:31:09Z</time>
      </trkpt>
      <trkpt lat="45.88855" lon="6.19198">
        <ele>1045</ele>
        <time>2011-08-01T10:31:11Z</time>
      </trkpt>
      <trkpt lat="45.88856" lon="6.19212">
        <ele>1045</ele>
        <time>2011-08-01T10:31:18Z</time>
      </trkpt>
      <trkpt lat="45.88856" lon="6.19213">
        <ele>1045</ele>
        <time>2011-08-01T10:31:19Z</time>
      </trkpt>
      <trkpt lat="45.88855" lon="6.19221">
        <ele>1045</ele>
        <time>2011-08-01T10:31:25Z</time>
      </trkpt>
      <trkpt lat="45.88855" lon="6.19227">
        <ele>1045</ele>
        <time>2011-08-01T10:31:28Z</time>
      </trkpt>
      <trkpt lat="45.88855" lon="6.19233">
        <ele>1045</ele>
        <time>2011-08-01T10:31:34Z</time>
      </trkpt>
      <trkpt lat="45.88851" lon="6.1923">
        <ele>1044</ele>
        <time>2011-08-01T10:31:41Z</time>
      </trkpt>
      <trkpt lat="45.88849" lon="6.19229">
        <ele>1044</ele>
        <time>2011-08-01T10:31:42Z</time>
      </trkpt>
      <trkpt lat="45.88839" lon="6.19217">
        <ele>1044</ele>
        <time>2011-08-01T10:31:50Z</time>
      </trkpt>
      <trkpt lat="45.88832" lon="6.19208">
        <ele>1028</ele>
        <time>2011-08-01T10:31:55Z</time>
      </trkpt>
      <trkpt lat="45.88821" lon="6.19196">
        <ele>1026</ele>
        <time>2011-08-01T10:32:01Z</time>
      </trkpt>
      <trkpt lat="45.88813" lon="6.19187">
        <ele>1025</ele>
        <time>2011-08-01T10:32:07Z</time>
      </trkpt>
      <trkpt lat="45.88811" lon="6.19182">
        <ele>1025</ele>
        <time>2011-08-01T10:32:12Z</time>
      </trkpt>
      <trkpt lat="45.88807" lon="6.19185">
        <ele>1024</ele>
        <time>2011-08-01T10:32:18Z</time>
      </trkpt>
      <trkpt lat="45.88805" lon="6.19185">
        <ele>1024</ele>
        <time>2011-08-01T10:32:20Z</time>
      </trkpt>
      <trkpt lat="45.888" lon="6.19183">
        <ele>1023</ele>
        <time>2011-08-01T10:32:26Z</time>
      </trkpt>
      <trkpt lat="45.88799" lon="6.19183">
        <ele>1023</ele>
        <time>2011-08-01T10:32:29Z</time>
      </trkpt>
      <trkpt lat="45.88794" lon="6.19182">
        <ele>1022</ele>
        <time>2011-08-01T10:32:32Z</time>
      </trkpt>
      <trkpt lat="45.88791" lon="6.1918">
        <ele>1021</ele>
        <time>2011-08-01T10:32:40Z</time>
      </trkpt>
      <trkpt lat="45.88789" lon="6.19179">
        <ele>1021</ele>
        <time>2011-08-01T10:32:46Z</time>
      </trkpt>
      <trkpt lat="45.88786" lon="6.19173">
        <ele>1019</ele>
        <time>2011-08-01T10:32:52Z</time>
      </trkpt>
      <trkpt lat="45.88784" lon="6.19172">
        <ele>1019</ele>
        <time>2011-08-01T10:32:56Z</time>
      </trkpt>
      <trkpt lat="45.88773" lon="6.19166">
        <ele>1012</ele>
        <time>2011-08-01T10:33:03Z</time>
      </trkpt>
      <trkpt lat="45.88764" lon="6.19159">
        <ele>1009</ele>
        <time>2011-08-01T10:33:07Z</time>
      </trkpt>
      <trkpt lat="45.88759" lon="6.19159">
        <ele>1007</ele>
        <time>2011-08-01T10:33:10Z</time>
      </trkpt>
      <trkpt lat="45.88754" lon="6.19167">
        <ele>1003</ele>
        <time>2011-08-01T10:33:17Z</time>
      </trkpt>
      <trkpt lat="45.88751" lon="6.19166">
        <ele>1001</ele>
        <time>2011-08-01T10:33:23Z</time>
      </trkpt>
      <trkpt lat="45.88747" lon="6.19168">
        <ele>1000</ele>
        <time>2011-08-01T10:33:28Z</time>
      </trkpt>
      <trkpt lat="45.88747" lon="6.19167">
        <ele>1000</ele>
        <time>2011-08-01T10:33:29Z</time>
      </trkpt>
      <trkpt lat="45.88742" lon="6.19162">
        <ele>994</ele>
        <time>2011-08-01T10:33:33Z</time>
      </trkpt>
      <trkpt lat="45.88731" lon="6.19164">
        <ele>990</ele>
        <time>2011-08-01T10:33:40Z</time>
      </trkpt>
      <trkpt lat="45.88729" lon="6.19168">
        <ele>998</ele>
        <time>2011-08-01T10:33:45Z</time>
      </trkpt>
      <trkpt lat="45.88724" lon="6.19168">
        <ele>997</ele>
        <time>2011-08-01T10:33:51Z</time>
      </trkpt>
      <trkpt lat="45.88723" lon="6.19167">
        <ele>997</ele>
        <time>2011-08-01T10:33:52Z</time>
      </trkpt>
      <trkpt lat="45.88721" lon="6.19166">
        <ele>986</ele>
        <time>2011-08-01T10:33:54Z</time>
      </trkpt>
      <trkpt lat="45.88717" lon="6.1917">
        <ele>996</ele>
        <time>2011-08-01T10:33:57Z</time>
      </trkpt>
      <trkpt lat="45.88707" lon="6.19174">
        <ele>994</ele>
        <time>2011-08-01T10:34:03Z</time>
      </trkpt>
      <trkpt lat="45.88703" lon="6.19175">
        <ele>992</ele>
        <time>2011-08-01T10:34:06Z</time>
      </trkpt>
      <trkpt lat="45.88694" lon="6.19176">
        <ele>989</ele>
        <time>2011-08-01T10:34:11Z</time>
      </trkpt>
      <trkpt lat="45.88684" lon="6.19183">
        <ele>987</ele>
        <time>2011-08-01T10:34:17Z</time>
      </trkpt>
      <trkpt lat="45.88681" lon="6.19183">
        <ele>986</ele>
        <time>2011-08-01T10:34:19Z</time>
      </trkpt>
      <trkpt lat="45.88672" lon="6.19183">
        <ele>983</ele>
        <time>2011-08-01T10:34:24Z</time>
      </trkpt>
      <trkpt lat="45.8867" lon="6.19183">
        <ele>982</ele>
        <time>2011-08-01T10:34:25Z</time>
      </trkpt>
      <trkpt lat="45.88662" lon="6.19183">
        <ele>969</ele>
        <time>2011-08-01T10:34:30Z</time>
      </trkpt>
      <trkpt lat="45.88653" lon="6.19186">
        <ele>969</ele>
        <time>2011-08-01T10:34:35Z</time>
      </trkpt>
      <trkpt lat="45.88652" lon="6.19188">
        <ele>969</ele>
        <time>2011-08-01T10:34:37Z</time>
      </trkpt>
      <trkpt lat="45.88648" lon="6.1919">
        <ele>970</ele>
        <time>2011-08-01T10:34:49Z</time>
      </trkpt>
      <trkpt lat="45.88654" lon="6.19185">
        <ele>969</ele>
        <time>2011-08-01T10:34:57Z</time>
      </trkpt>
      <trkpt lat="45.88665" lon="6.1918">
        <ele>968</ele>
        <time>2011-08-01T10:35:03Z</time>
      </trkpt>
      <trkpt lat="45.8867" lon="6.19169">
        <ele>971</ele>
        <time>2011-08-01T10:35:08Z</time>
      </trkpt>
      <trkpt lat="45.88671" lon="6.19168">
        <ele>971</ele>
        <time>2011-08-01T10:35:09Z</time>
      </trkpt>
      <trkpt lat="45.88671" lon="6.1916">
        <ele>970</ele>
        <time>2011-08-01T10:35:16Z</time>
      </trkpt>
      <trkpt lat="45.8867" lon="6.19161">
        <ele>969</ele>
        <time>2011-08-01T10:35:17Z</time>
      </trkpt>
      <trkpt lat="45.88665" lon="6.19165">
        <ele>964</ele>
        <time>2011-08-01T10:35:24Z</time>
      </trkpt>
      <trkpt lat="45.88667" lon="6.19177">
        <ele>968</ele>
        <time>2011-08-01T10:35:30Z</time>
      </trkpt>
      <trkpt lat="45.88666" lon="6.19181">
        <ele>969</ele>
        <time>2011-08-01T10:35:34Z</time>
      </trkpt>
      <trkpt lat="45.88664" lon="6.1919">
        <ele>971</ele>
        <time>2011-08-01T10:35:40Z</time>
      </trkpt>
      <trkpt lat="45.8866" lon="6.19192">
        <ele>971</ele>
        <time>2011-08-01T10:35:46Z</time>
      </trkpt>
      <trkpt lat="45.88657" lon="6.19196">
        <ele>972</ele>
        <time>2011-08-01T10:35:51Z</time>
      </trkpt>
      <trkpt lat="45.88652" lon="6.19199">
        <ele>972</ele>
        <time>2011-08-01T10:35:58Z</time>
      </trkpt>
      <trkpt lat="45.88647" lon="6.19202">
        <ele>972</ele>
        <time>2011-08-01T10:36:03Z</time>
      </trkpt>
      <trkpt lat="45.88636" lon="6.19203">
        <ele>971</ele>
        <time>2011-08-01T10:36:09Z</time>
      </trkpt>
      <trkpt lat="45.88628" lon="6.19202">
        <ele>970</ele>
        <time>2011-08-01T10:36:14Z</time>
      </trkpt>
      <trkpt lat="45.8862" lon="6.19205">
        <ele>969</ele>
        <time>2011-08-01T10:36:19Z</time>
      </trkpt>
      <trkpt lat="45.88614" lon="6.1921">
        <ele>969</ele>
        <time>2011-08-01T10:36:23Z</time>
      </trkpt>
      <trkpt lat="45.88609" lon="6.19214">
        <ele>970</ele>
        <time>2011-08-01T10:36:29Z</time>
      </trkpt>
      <trkpt lat="45.88602" lon="6.19218">
        <ele>971</ele>
        <time>2011-08-01T10:36:41Z</time>
      </trkpt>
      <trkpt lat="45.88597" lon="6.19219">
        <ele>970</ele>
        <time>2011-08-01T10:36:48Z</time>
      </trkpt>
      <trkpt lat="45.88591" lon="6.19219">
        <ele>970</ele>
        <time>2011-08-01T10:36:55Z</time>
      </trkpt>
      <trkpt lat="45.88584" lon="6.19218">
        <ele>970</ele>
        <time>2011-08-01T10:37:03Z</time>
      </trkpt>
      <trkpt lat="45.88579" lon="6.19218">
        <ele>956</ele>
        <time>2011-08-01T10:37:08Z</time>
      </trkpt>
      <trkpt lat="45.88577" lon="6.19218">
        <ele>956</ele>
        <time>2011-08-01T10:37:26Z</time>
      </trkpt>
      <trkpt lat="45.88573" lon="6.19219">
        <ele>956</ele>
        <time>2011-08-01T10:37:31Z</time>
      </trkpt>
      <trkpt lat="45.88565" lon="6.19212">
        <ele>952</ele>
        <time>2011-08-01T10:38:01Z</time>
      </trkpt>
      <trkpt lat="45.8857" lon="6.19211">
        <ele>952</ele>
        <time>2011-08-01T10:38:09Z</time>
      </trkpt>
      <trkpt lat="45.88575" lon="6.19213">
        <ele>953</ele>
        <time>2011-08-01T10:38:15Z</time>
      </trkpt>
      <trkpt lat="45.88581" lon="6.19216">
        <ele>955</ele>
        <time>2011-08-01T10:38:21Z</time>
      </trkpt>
      <trkpt lat="45.88582" lon="6.19216">
        <ele>955</ele>
        <time>2011-08-01T10:38:22Z</time>
      </trkpt>
      <trkpt lat="45.88587" lon="6.19221">
        <ele>971</ele>
        <time>2011-08-01T10:38:27Z</time>
      </trkpt>
      <trkpt lat="45.8859" lon="6.19222">
        <ele>971</ele>
        <time>2011-08-01T10:38:30Z</time>
      </trkpt>
      <trkpt lat="45.88594" lon="6.19227">
        <ele>973</ele>
        <time>2011-08-01T10:38:41Z</time>
      </trkpt>
      <trkpt lat="45.88591" lon="6.19222">
        <ele>972</ele>
        <time>2011-08-01T10:38:44Z</time>
      </trkpt>
      <trkpt lat="45.88594" lon="6.19216">
        <ele>969</ele>
        <time>2011-08-01T10:38:51Z</time>
      </trkpt>
      <trkpt lat="45.88597" lon="6.19217">
        <ele>970</ele>
        <time>2011-08-01T10:38:54Z</time>
      </trkpt>
      <trkpt lat="45.88603" lon="6.19216">
        <ele>970</ele>
        <time>2011-08-01T10:39:02Z</time>
      </trkpt>
      <trkpt lat="45.88609" lon="6.19214">
        <ele>970</ele>
        <time>2011-08-01T10:39:15Z</time>
      </trkpt>
      <trkpt lat="45.88612" lon="6.19212">
        <ele>970</ele>
        <time>2011-08-01T10:39:20Z</time>
      </trkpt>
      <trkpt lat="45.88615" lon="6.1921">
        <ele>970</ele>
        <time>2011-08-01T10:39:24Z</time>
      </trkpt>
      <trkpt lat="45.88621" lon="6.19207">
        <ele>970</ele>
        <time>2011-08-01T10:39:30Z</time>
      </trkpt>
      <trkpt lat="45.88633" lon="6.19203">
        <ele>971</ele>
        <time>2011-08-01T10:39:48Z</time>
      </trkpt>
      <trkpt lat="45.88636" lon="6.19202">
        <ele>971</ele>
        <time>2011-08-01T10:39:54Z</time>
      </trkpt>
      <trkpt lat="45.88641" lon="6.19197">
        <ele>971</ele>
        <time>2011-08-01T10:40:00Z</time>
      </trkpt>
      <trkpt lat="45.88647" lon="6.19196">
        <ele>971</ele>
        <time>2011-08-01T10:40:08Z</time>
      </trkpt>
      <trkpt lat="45.88651" lon="6.19196">
        <ele>971</ele>
        <time>2011-08-01T10:40:17Z</time>
      </trkpt>
      <trkpt lat="45.88654" lon="6.19199">
        <ele>972</ele>
        <time>2011-08-01T10:40:26Z</time>
      </trkpt>
      <trkpt lat="45.88662" lon="6.19191">
        <ele>971</ele>
        <time>2011-08-01T10:40:31Z</time>
      </trkpt>
      <trkpt lat="45.88663" lon="6.19187">
        <ele>970</ele>
        <time>2011-08-01T10:40:33Z</time>
      </trkpt>
      <trkpt lat="45.88665" lon="6.19183">
        <ele>969</ele>
        <time>2011-08-01T10:40:35Z</time>
      </trkpt>
      <trkpt lat="45.88674" lon="6.19167">
        <ele>975</ele>
        <time>2011-08-01T10:40:40Z</time>
      </trkpt>
      <trkpt lat="45.88671" lon="6.19155">
        <ele>972</ele>
        <time>2011-08-01T10:40:45Z</time>
      </trkpt>
      <trkpt lat="45.8867" lon="6.19149">
        <ele>973</ele>
        <time>2011-08-01T10:40:51Z</time>
      </trkpt>
      <trkpt lat="45.8867" lon="6.19147">
        <ele>973</ele>
        <time>2011-08-01T10:40:52Z</time>
      </trkpt>
      <trkpt lat="45.88671" lon="6.19144">
        <ele>974</ele>
        <time>2011-08-01T10:40:57Z</time>
      </trkpt>
      <trkpt lat="45.88678" lon="6.19141">
        <ele>975</ele>
        <time>2011-08-01T10:41:02Z</time>
      </trkpt>
      <trkpt lat="45.8868" lon="6.19128">
        <ele>976</ele>
        <time>2011-08-01T10:41:07Z</time>
      </trkpt>
      <trkpt lat="45.88682" lon="6.19111">
        <ele>975</ele>
        <time>2011-08-01T10:41:12Z</time>
      </trkpt>
      <trkpt lat="45.88681" lon="6.19107">
        <ele>974</ele>
        <time>2011-08-01T10:41:13Z</time>
      </trkpt>
      <trkpt lat="45.88671" lon="6.19085">
        <ele>963</ele>
        <time>2011-08-01T10:41:18Z</time>
      </trkpt>
      <trkpt lat="45.88668" lon="6.19074">
        <ele>970</ele>
        <time>2011-08-01T10:41:22Z</time>
      </trkpt>
      <trkpt lat="45.88662" lon="6.19061">
        <ele>953</ele>
        <time>2011-08-01T10:41:27Z</time>
      </trkpt>
      <trkpt lat="45.88654" lon="6.19047">
        <ele>953</ele>
        <time>2011-08-01T10:41:32Z</time>
      </trkpt>
      <trkpt lat="45.8864" lon="6.19044">
        <ele>950</ele>
        <time>2011-08-01T10:41:38Z</time>
      </trkpt>
      <trkpt lat="45.88631" lon="6.19042">
        <ele>947</ele>
        <time>2011-08-01T10:41:44Z</time>
      </trkpt>
      <trkpt lat="45.88631" lon="6.19042">
        <ele>947</ele>
        <time>2011-08-01T10:41:45Z</time>
      </trkpt>
      <trkpt lat="45.88638" lon="6.19037">
        <ele>950</ele>
        <time>2011-08-01T10:41:50Z</time>
      </trkpt>
      <trkpt lat="45.8864" lon="6.19036">
        <ele>951</ele>
        <time>2011-08-01T10:41:52Z</time>
      </trkpt>
      <trkpt lat="45.88646" lon="6.19042">
        <ele>952</ele>
        <time>2011-08-01T10:41:58Z</time>
      </trkpt>
      <trkpt lat="45.88648" lon="6.19043">
        <ele>952</ele>
        <time>2011-08-01T10:41:59Z</time>
      </trkpt>
      <trkpt lat="45.88654" lon="6.19054">
        <ele>952</ele>
        <time>2011-08-01T10:42:03Z</time>
      </trkpt>
      <trkpt lat="45.8865" lon="6.19068">
        <ele>951</ele>
        <time>2011-08-01T10:42:08Z</time>
      </trkpt>
      <trkpt lat="45.88648" lon="6.19079">
        <ele>951</ele>
        <time>2011-08-01T10:42:14Z</time>
      </trkpt>
      <trkpt lat="45.88648" lon="6.1908">
        <ele>951</ele>
        <time>2011-08-01T10:42:20Z</time>
      </trkpt>
      <trkpt lat="45.88647" lon="6.19082">
        <ele>950</ele>
        <time>2011-08-01T10:42:22Z</time>
      </trkpt>
      <trkpt lat="45.88646" lon="6.19092">
        <ele>948</ele>
        <time>2011-08-01T10:42:27Z</time>
      </trkpt>
      <trkpt lat="45.88641" lon="6.19099">
        <ele>946</ele>
        <time>2011-08-01T10:42:30Z</time>
      </trkpt>
      <trkpt lat="45.88636" lon="6.19103">
        <ele>944</ele>
        <time>2011-08-01T10:42:34Z</time>
      </trkpt>
      <trkpt lat="45.88626" lon="6.19113">
        <ele>942</ele>
        <time>2011-08-01T10:42:40Z</time>
      </trkpt>
      <trkpt lat="45.88615" lon="6.19119">
        <ele>939</ele>
        <time>2011-08-01T10:42:46Z</time>
      </trkpt>
      <trkpt lat="45.88613" lon="6.19125">
        <ele>939</ele>
        <time>2011-08-01T10:42:50Z</time>
      </trkpt>
      <trkpt lat="45.8861" lon="6.19129">
        <ele>939</ele>
        <time>2011-08-01T10:42:55Z</time>
      </trkpt>
      <trkpt lat="45.88608" lon="6.19137">
        <ele>939</ele>
        <time>2011-08-01T10:43:06Z</time>
      </trkpt>
      <trkpt lat="45.88603" lon="6.19145">
        <ele>938</ele>
        <time>2011-08-01T10:43:12Z</time>
      </trkpt>
      <trkpt lat="45.886" lon="6.19145">
        <ele>938</ele>
        <time>2011-08-01T10:43:16Z</time>
      </trkpt>
      <trkpt lat="45.88593" lon="6.19147">
        <ele>936</ele>
        <time>2011-08-01T10:43:25Z</time>
      </trkpt>
      <trkpt lat="45.88598" lon="6.19135">
        <ele>937</ele>
        <time>2011-08-01T10:43:39Z</time>
      </trkpt>
      <trkpt lat="45.88599" lon="6.19133">
        <ele>937</ele>
        <time>2011-08-01T10:43:40Z</time>
      </trkpt>
      <trkpt lat="45.88609" lon="6.19125">
        <ele>938</ele>
        <time>2011-08-01T10:43:46Z</time>
      </trkpt>
      <trkpt lat="45.88607" lon="6.19124">
        <ele>938</ele>
        <time>2011-08-01T10:43:52Z</time>
      </trkpt>
      <trkpt lat="45.886" lon="6.19123">
        <ele>937</ele>
        <time>2011-08-01T10:43:57Z</time>
      </trkpt>
      <trkpt lat="45.88601" lon="6.1911">
        <ele>934</ele>
        <time>2011-08-01T10:44:20Z</time>
      </trkpt>
      <trkpt lat="45.88597" lon="6.19111">
        <ele>934</ele>
        <time>2011-08-01T10:44:25Z</time>
      </trkpt>
      <trkpt lat="45.88588" lon="6.19121">
        <ele>934</ele>
        <time>2011-08-01T10:44:31Z</time>
      </trkpt>
      <trkpt lat="45.88587" lon="6.19123">
        <ele>935</ele>
        <time>2011-08-01T10:44:33Z</time>
      </trkpt>
      <trkpt lat="45.88575" lon="6.19131">
        <ele>914</ele>
        <time>2011-08-01T10:44:40Z</time>
      </trkpt>
      <trkpt lat="45.88566" lon="6.19136">
        <ele>914</ele>
        <time>2011-08-01T10:44:47Z</time>
      </trkpt>
      <trkpt lat="45.88558" lon="6.19135">
        <ele>913</ele>
        <time>2011-08-01T10:44:52Z</time>
      </trkpt>
      <trkpt lat="45.88548" lon="6.19143">
        <ele>912</ele>
        <time>2011-08-01T10:44:57Z</time>
      </trkpt>
      <trkpt lat="45.88535" lon="6.19147">
        <ele>910</ele>
        <time>2011-08-01T10:45:03Z</time>
      </trkpt>
      <trkpt lat="45.88538" lon="6.19143">
        <ele>910</ele>
        <time>2011-08-01T10:45:09Z</time>
      </trkpt>
      <trkpt lat="45.88541" lon="6.19132">
        <ele>909</ele>
        <time>2011-08-01T10:45:15Z</time>
      </trkpt>
      <trkpt lat="45.88534" lon="6.19131">
        <ele>908</ele>
        <time>2011-08-01T10:45:24Z</time>
      </trkpt>
      <trkpt lat="45.8852" lon="6.19134">
        <ele>907</ele>
        <time>2011-08-01T10:45:29Z</time>
      </trkpt>
      <trkpt lat="45.88509" lon="6.19137">
        <ele>907</ele>
        <time>2011-08-01T10:45:33Z</time>
      </trkpt>
      <trkpt lat="45.88491" lon="6.19136">
        <ele>898</ele>
        <time>2011-08-01T10:45:40Z</time>
      </trkpt>
      <trkpt lat="45.88483" lon="6.19137">
        <ele>898</ele>
        <time>2011-08-01T10:45:44Z</time>
      </trkpt>
      <trkpt lat="45.88485" lon="6.19129">
        <ele>896</ele>
        <time>2011-08-01T10:45:48Z</time>
      </trkpt>
      <trkpt lat="45.88496" lon="6.19115">
        <ele>892</ele>
        <time>2011-08-01T10:45:54Z</time>
      </trkpt>
      <trkpt lat="45.88494" lon="6.19108">
        <ele>890</ele>
        <time>2011-08-01T10:45:58Z</time>
      </trkpt>
      <trkpt lat="45.88496" lon="6.19109">
        <ele>890</ele>
        <time>2011-08-01T10:46:04Z</time>
      </trkpt>
      <trkpt lat="45.88493" lon="6.19104">
        <ele>889</ele>
        <time>2011-08-01T10:46:11Z</time>
      </trkpt>
      <trkpt lat="45.88494" lon="6.19101">
        <ele>888</ele>
        <time>2011-08-01T10:46:15Z</time>
      </trkpt>
      <trkpt lat="45.88495" lon="6.19098">
        <ele>887</ele>
        <time>2011-08-01T10:46:17Z</time>
      </trkpt>
      <trkpt lat="45.88483" lon="6.1909">
        <ele>887</ele>
        <time>2011-08-01T10:46:23Z</time>
      </trkpt>
      <trkpt lat="45.88469" lon="6.19081">
        <ele>872</ele>
        <time>2011-08-01T10:46:29Z</time>
      </trkpt>
      <trkpt lat="45.88454" lon="6.19079">
        <ele>872</ele>
        <time>2011-08-01T10:46:33Z</time>
      </trkpt>
      <trkpt lat="45.88446" lon="6.19081">
        <ele>872</ele>
        <time>2011-08-01T10:46:37Z</time>
      </trkpt>
      <trkpt lat="45.88437" lon="6.19078">
        <ele>872</ele>
        <time>2011-08-01T10:46:41Z</time>
      </trkpt>
      <trkpt lat="45.88432" lon="6.19075">
        <ele>872</ele>
        <time>2011-08-01T10:46:43Z</time>
      </trkpt>
      <trkpt lat="45.88421" lon="6.19064">
        <ele>871</ele>
        <time>2011-08-01T10:46:50Z</time>
      </trkpt>
      <trkpt lat="45.88417" lon="6.19056">
        <ele>870</ele>
        <time>2011-08-01T10:46:54Z</time>
      </trkpt>
      <trkpt lat="45.88414" lon="6.19034">
        <ele>869</ele>
        <time>2011-08-01T10:47:07Z</time>
      </trkpt>
      <trkpt lat="45.88408" lon="6.19022">
        <ele>866</ele>
        <time>2011-08-01T10:47:12Z</time>
      </trkpt>
      <trkpt lat="45.88409" lon="6.19023">
        <ele>866</ele>
        <time>2011-08-01T10:47:15Z</time>
      </trkpt>
      <trkpt lat="45.88413" lon="6.19027">
        <ele>867</ele>
        <time>2011-08-01T10:47:18Z</time>
      </trkpt>
      <trkpt lat="45.8842" lon="6.19038">
        <ele>866</ele>
        <time>2011-08-01T10:47:22Z</time>
      </trkpt>
      <trkpt lat="45.88424" lon="6.19038">
        <ele>866</ele>
        <time>2011-08-01T10:47:24Z</time>
      </trkpt>
      <trkpt lat="45.88437" lon="6.19029">
        <ele>865</ele>
        <time>2011-08-01T10:47:29Z</time>
      </trkpt>
      <trkpt lat="45.88444" lon="6.19021">
        <ele>865</ele>
        <time>2011-08-01T10:47:32Z</time>
      </trkpt>
      <trkpt lat="45.88446" lon="6.19011">
        <ele>864</ele>
        <time>2011-08-01T10:47:34Z</time>
      </trkpt>
      <trkpt lat="45.88441" lon="6.18999">
        <ele>850</ele>
        <time>2011-08-01T10:47:40Z</time>
      </trkpt>
      <trkpt lat="45.88448" lon="6.18996">
        <ele>850</ele>
        <time>2011-08-01T10:47:48Z</time>
      </trkpt>
      <trkpt lat="45.88449" lon="6.18995">
        <ele>850</ele>
        <time>2011-08-01T10:47:49Z</time>
      </trkpt>
      <trkpt lat="45.88456" lon="6.18981">
        <ele>848</ele>
        <time>2011-08-01T10:47:56Z</time>
      </trkpt>
      <trkpt lat="45.88452" lon="6.18978">
        <ele>848</ele>
        <time>2011-08-01T10:48:02Z</time>
      </trkpt>
      <trkpt lat="45.88449" lon="6.18971">
        <ele>847</ele>
        <time>2011-08-01T10:48:13Z</time>
      </trkpt>
      <trkpt lat="45.88441" lon="6.18975">
        <ele>847</ele>
        <time>2011-08-01T10:48:24Z</time>
      </trkpt>
      <trkpt lat="45.88435" lon="6.18973">
        <ele>847</ele>
        <time>2011-08-01T10:48:32Z</time>
      </trkpt>
      <trkpt lat="45.88433" lon="6.18969">
        <ele>846</ele>
        <time>2011-08-01T10:48:36Z</time>
      </trkpt>
      <trkpt lat="45.88429" lon="6.18964">
        <ele>845</ele>
        <time>2011-08-01T10:48:40Z</time>
      </trkpt>
      <trkpt lat="45.88434" lon="6.18953">
        <ele>843</ele>
        <time>2011-08-01T10:48:59Z</time>
      </trkpt>
      <trkpt lat="45.88437" lon="6.18945">
        <ele>842</ele>
        <time>2011-08-01T10:49:01Z</time>
      </trkpt>
      <trkpt lat="45.88446" lon="6.18922">
        <ele>840</ele>
        <time>2011-08-01T10:49:07Z</time>
      </trkpt>
      <trkpt lat="45.88453" lon="6.18892">
        <ele>821</ele>
        <time>2011-08-01T10:49:12Z</time>
      </trkpt>
      <trkpt lat="45.88455" lon="6.18885">
        <ele>820</ele>
        <time>2011-08-01T10:49:13Z</time>
      </trkpt>
      <trkpt lat="45.88462" lon="6.18868">
        <ele>818</ele>
        <time>2011-08-01T10:49:16Z</time>
      </trkpt>
      <trkpt lat="45.88477" lon="6.18838">
        <ele>817</ele>
        <time>2011-08-01T10:49:20Z</time>
      </trkpt>
      <trkpt lat="45.88483" lon="6.18812">
        <ele>799</ele>
        <time>2011-08-01T10:49:23Z</time>
      </trkpt>
      <trkpt lat="45.88489" lon="6.18792">
        <ele>795</ele>
        <time>2011-08-01T10:49:26Z</time>
      </trkpt>
      <trkpt lat="45.88504" lon="6.18753">
        <ele>799</ele>
        <time>2011-08-01T10:49:32Z</time>
      </trkpt>
      <trkpt lat="45.88512" lon="6.18738">
        <ele>794</ele>
        <time>2011-08-01T10:49:35Z</time>
      </trkpt>
      <trkpt lat="45.88516" lon="6.18728">
        <ele>794</ele>
        <time>2011-08-01T10:49:37Z</time>
      </trkpt>
      <trkpt lat="45.88533" lon="6.18699">
        <ele>791</ele>
        <time>2011-08-01T10:49:41Z</time>
      </trkpt>
      <trkpt lat="45.8854" lon="6.18685">
        <ele>790</ele>
        <time>2011-08-01T10:49:43Z</time>
      </trkpt>
      <trkpt lat="45.88559" lon="6.18668">
        <ele>794</ele>
        <time>2011-08-01T10:49:47Z</time>
      </trkpt>
      <trkpt lat="45.88571" lon="6.1866">
        <ele>782</ele>
        <time>2011-08-01T10:49:50Z</time>
      </trkpt>
      <trkpt lat="45.88589" lon="6.18646">
        <ele>793</ele>
        <time>2011-08-01T10:49:55Z</time>
      </trkpt>
      <trkpt lat="45.88593" lon="6.18642">
        <ele>792</ele>
        <time>2011-08-01T10:49:57Z</time>
      </trkpt>
      <trkpt lat="45.88596" lon="6.18638">
        <ele>791</ele>
        <time>2011-08-01T10:50:02Z</time>
      </trkpt>
      <trkpt lat="45.88604" lon="6.18632">
        <ele>791</ele>
        <time>2011-08-01T10:50:08Z</time>
      </trkpt>
      <trkpt lat="45.88618" lon="6.18617">
        <ele>789</ele>
        <time>2011-08-01T10:50:13Z</time>
      </trkpt>
      <trkpt lat="45.8863" lon="6.18607">
        <ele>789</ele>
        <time>2011-08-01T10:50:17Z</time>
      </trkpt>
      <trkpt lat="45.88644" lon="6.18595">
        <ele>789</ele>
        <time>2011-08-01T10:50:21Z</time>
      </trkpt>
      <trkpt lat="45.88659" lon="6.18581">
        <ele>777</ele>
        <time>2011-08-01T10:50:25Z</time>
      </trkpt>
      <trkpt lat="45.88681" lon="6.18565">
        <ele>778</ele>
        <time>2011-08-01T10:50:30Z</time>
      </trkpt>
      <trkpt lat="45.88697" lon="6.18551">
        <ele>774</ele>
        <time>2011-08-01T10:50:34Z</time>
      </trkpt>
      <trkpt lat="45.8871" lon="6.18543">
        <ele>773</ele>
        <time>2011-08-01T10:50:39Z</time>
      </trkpt>
      <trkpt lat="45.88717" lon="6.18527">
        <ele>770</ele>
        <time>2011-08-01T10:50:45Z</time>
      </trkpt>
      <trkpt lat="45.88719" lon="6.18524">
        <ele>769</ele>
        <time>2011-08-01T10:50:47Z</time>
      </trkpt>
      <trkpt lat="45.88728" lon="6.18511">
        <ele>767</ele>
        <time>2011-08-01T10:50:53Z</time>
      </trkpt>
      <trkpt lat="45.88733" lon="6.18498">
        <ele>748</ele>
        <time>2011-08-01T10:50:58Z</time>
      </trkpt>
      <trkpt lat="45.88741" lon="6.18478">
        <ele>744</ele>
        <time>2011-08-01T10:51:03Z</time>
      </trkpt>
      <trkpt lat="45.88745" lon="6.18451">
        <ele>735</ele>
        <time>2011-08-01T10:51:08Z</time>
      </trkpt>
      <trkpt lat="45.88746" lon="6.18432">
        <ele>731</ele>
        <time>2011-08-01T10:51:12Z</time>
      </trkpt>
      <trkpt lat="45.88748" lon="6.18419">
        <ele>729</ele>
        <time>2011-08-01T10:51:16Z</time>
      </trkpt>
      <trkpt lat="45.8875" lon="6.18416">
        <ele>728</ele>
        <time>2011-08-01T10:51:17Z</time>
      </trkpt>
      <trkpt lat="45.88757" lon="6.184">
        <ele>724</ele>
        <time>2011-08-01T10:51:22Z</time>
      </trkpt>
      <trkpt lat="45.88761" lon="6.18392">
        <ele>722</ele>
        <time>2011-08-01T10:51:26Z</time>
      </trkpt>
      <trkpt lat="45.88775" lon="6.18376">
        <ele>718</ele>
        <time>2011-08-01T10:51:31Z</time>
      </trkpt>
      <trkpt lat="45.88791" lon="6.18354">
        <ele>715</ele>
        <time>2011-08-01T10:51:36Z</time>
      </trkpt>
      <trkpt lat="45.88795" lon="6.1835">
        <ele>715</ele>
        <time>2011-08-01T10:51:37Z</time>
      </trkpt>
      <trkpt lat="45.88808" lon="6.18343">
        <ele>715</ele>
        <time>2011-08-01T10:51:41Z</time>
      </trkpt>
      <trkpt lat="45.88821" lon="6.18344">
        <ele>714</ele>
        <time>2011-08-01T10:51:46Z</time>
      </trkpt>
      <trkpt lat="45.88828" lon="6.18341">
        <ele>713</ele>
        <time>2011-08-01T10:51:48Z</time>
      </trkpt>
      <trkpt lat="45.88837" lon="6.18326">
        <ele>708</ele>
        <time>2011-08-01T10:51:52Z</time>
      </trkpt>
      <trkpt lat="45.88842" lon="6.18305">
        <ele>705</ele>
        <time>2011-08-01T10:51:56Z</time>
      </trkpt>
      <trkpt lat="45.88847" lon="6.18288">
        <ele>701</ele>
        <time>2011-08-01T10:52:00Z</time>
      </trkpt>
      <trkpt lat="45.88855" lon="6.18278">
        <ele>700</ele>
        <time>2011-08-01T10:52:05Z</time>
      </trkpt>
      <trkpt lat="45.88857" lon="6.18263">
        <ele>696</ele>
        <time>2011-08-01T10:52:11Z</time>
      </trkpt>
      <trkpt lat="45.88861" lon="6.18237">
        <ele>678</ele>
        <time>2011-08-01T10:52:16Z</time>
      </trkpt>
      <trkpt lat="45.88868" lon="6.18207">
        <ele>675</ele>
        <time>2011-08-01T10:52:21Z</time>
      </trkpt>
      <trkpt lat="45.8887" lon="6.18194">
        <ele>673</ele>
        <time>2011-08-01T10:52:23Z</time>
      </trkpt>
      <trkpt lat="45.88873" lon="6.18185">
        <ele>673</ele>
        <time>2011-08-01T10:52:25Z</time>
      </trkpt>
      <trkpt lat="45.88877" lon="6.18158">
        <ele>654</ele>
        <time>2011-08-01T10:52:31Z</time>
      </trkpt>
      <trkpt lat="45.88881" lon="6.18138">
        <ele>652</ele>
        <time>2011-08-01T10:52:35Z</time>
      </trkpt>
      <trkpt lat="45.88883" lon="6.18115">
        <ele>649</ele>
        <time>2011-08-01T10:52:39Z</time>
      </trkpt>
      <trkpt lat="45.88883" lon="6.18101">
        <ele>647</ele>
        <time>2011-08-01T10:52:42Z</time>
      </trkpt>
      <trkpt lat="45.88881" lon="6.1809">
        <ele>645</ele>
        <time>2011-08-01T10:52:47Z</time>
      </trkpt>
      <trkpt lat="45.88881" lon="6.18088">
        <ele>645</ele>
        <time>2011-08-01T10:52:48Z</time>
      </trkpt>
      <trkpt lat="45.88883" lon="6.18076">
        <ele>629</ele>
        <time>2011-08-01T10:52:53Z</time>
      </trkpt>
      <trkpt lat="45.88884" lon="6.18066">
        <ele>628</ele>
        <time>2011-08-01T10:52:57Z</time>
      </trkpt>
      <trkpt lat="45.88886" lon="6.18056">
        <ele>627</ele>
        <time>2011-08-01T10:53:03Z</time>
      </trkpt>
      <trkpt lat="45.88887" lon="6.18056">
        <ele>627</ele>
        <time>2011-08-01T10:53:04Z</time>
      </trkpt>
      <trkpt lat="45.88894" lon="6.18047">
        <ele>627</ele>
        <time>2011-08-01T10:53:11Z</time>
      </trkpt>
      <trkpt lat="45.88901" lon="6.18042">
        <ele>627</ele>
        <time>2011-08-01T10:53:16Z</time>
      </trkpt>
      <trkpt lat="45.88905" lon="6.18027">
        <ele>625</ele>
        <time>2011-08-01T10:53:22Z</time>
      </trkpt>
      <trkpt lat="45.88906" lon="6.18025">
        <ele>625</ele>
        <time>2011-08-01T10:53:23Z</time>
      </trkpt>
      <trkpt lat="45.88906" lon="6.18013">
        <ele>624</ele>
        <time>2011-08-01T10:53:27Z</time>
      </trkpt>
      <trkpt lat="45.88904" lon="6.17998">
        <ele>616</ele>
        <time>2011-08-01T10:53:32Z</time>
      </trkpt>
      <trkpt lat="45.88902" lon="6.17984">
        <ele>611</ele>
        <time>2011-08-01T10:53:37Z</time>
      </trkpt>
      <trkpt lat="45.88895" lon="6.17966">
        <ele>606</ele>
        <time>2011-08-01T10:53:42Z</time>
      </trkpt>
      <trkpt lat="45.88894" lon="6.17964">
        <ele>605</ele>
        <time>2011-08-01T10:53:43Z</time>
      </trkpt>
      <trkpt lat="45.8889" lon="6.1796">
        <ele>604</ele>
        <time>2011-08-01T10:53:45Z</time>
      </trkpt>
      <trkpt lat="45.88881" lon="6.17957">
        <ele>602</ele>
        <time>2011-08-01T10:53:49Z</time>
      </trkpt>
      <trkpt lat="45.88878" lon="6.17951">
        <ele>601</ele>
        <time>2011-08-01T10:53:54Z</time>
      </trkpt>
      <trkpt lat="45.88877" lon="6.1795">
        <ele>601</ele>
        <time>2011-08-01T10:53:59Z</time>
      </trkpt>
      <trkpt lat="45.88875" lon="6.17949">
        <ele>601</ele>
        <time>2011-08-01T10:54:04Z</time>
      </trkpt>
      <trkpt lat="45.88877" lon="6.17942">
        <ele>600</ele>
        <time>2011-08-01T10:54:09Z</time>
      </trkpt>
      <trkpt lat="45.88878" lon="6.17936">
        <ele>600</ele>
        <time>2011-08-01T10:54:14Z</time>
      </trkpt>
      <trkpt lat="45.8888" lon="6.1793">
        <ele>600</ele>
        <time>2011-08-01T10:54:37Z</time>
      </trkpt>
      <trkpt lat="45.88886" lon="6.17926">
        <ele>601</ele>
        <time>2011-08-01T10:54:42Z</time>
      </trkpt>
      <trkpt lat="45.88891" lon="6.17925">
        <ele>602</ele>
        <time>2011-08-01T10:54:49Z</time>
      </trkpt>
      <trkpt lat="45.88897" lon="6.17923">
        <ele>602</ele>
        <time>2011-08-01T10:54:58Z</time>
      </trkpt>
      <trkpt lat="45.88898" lon="6.17919">
        <ele>603</ele>
        <time>2011-08-01T10:55:04Z</time>
      </trkpt>
      <trkpt lat="45.88902" lon="6.17918">
        <ele>603</ele>
        <time>2011-08-01T10:55:08Z</time>
      </trkpt>
      <trkpt lat="45.88905" lon="6.17916">
        <ele>597</ele>
        <time>2011-08-01T10:55:15Z</time>
      </trkpt>
      <trkpt lat="45.88909" lon="6.17915">
        <ele>599</ele>
        <time>2011-08-01T10:55:19Z</time>
      </trkpt>
      <trkpt lat="45.88911" lon="6.17916">
        <ele>601</ele>
        <time>2011-08-01T10:55:26Z</time>
      </trkpt>
      <trkpt lat="45.88913" lon="6.17919">
        <ele>604</ele>
        <time>2011-08-01T10:55:41Z</time>
      </trkpt>
      <trkpt lat="45.88916" lon="6.17918">
        <ele>605</ele>
        <time>2011-08-01T10:55:47Z</time>
      </trkpt>
      <trkpt lat="45.88918" lon="6.17919">
        <ele>607</ele>
        <time>2011-08-01T10:55:52Z</time>
      </trkpt>
      <trkpt lat="45.88921" lon="6.17919">
        <ele>609</ele>
        <time>2011-08-01T10:55:58Z</time>
      </trkpt>
      <trkpt lat="45.88926" lon="6.17919">
        <ele>613</ele>
        <time>2011-08-01T10:56:06Z</time>
      </trkpt>
      <trkpt lat="45.88929" lon="6.17918">
        <ele>615</ele>
        <time>2011-08-01T10:56:11Z</time>
      </trkpt>
      <trkpt lat="45.88932" lon="6.17917">
        <ele>616</ele>
        <time>2011-08-01T10:56:17Z</time>
      </trkpt>
      <trkpt lat="45.88939" lon="6.17913">
        <ele>609</ele>
        <time>2011-08-01T10:56:26Z</time>
      </trkpt>
      <trkpt lat="45.88944" lon="6.17907">
        <ele>610</ele>
        <time>2011-08-01T10:56:33Z</time>
      </trkpt>
      <trkpt lat="45.88948" lon="6.17904">
        <ele>610</ele>
        <time>2011-08-01T10:56:38Z</time>
      </trkpt>
      <trkpt lat="45.88958" lon="6.17897">
        <ele>612</ele>
        <time>2011-08-01T10:56:44Z</time>
      </trkpt>
      <trkpt lat="45.88968" lon="6.17888">
        <ele>613</ele>
        <time>2011-08-01T10:56:50Z</time>
      </trkpt>
      <trkpt lat="45.8898" lon="6.1788">
        <ele>614</ele>
        <time>2011-08-01T10:56:57Z</time>
      </trkpt>
      <trkpt lat="45.8899" lon="6.17875">
        <ele>614</ele>
        <time>2011-08-01T10:57:04Z</time>
      </trkpt>
      <trkpt lat="45.88994" lon="6.1787">
        <ele>614</ele>
        <time>2011-08-01T10:57:10Z</time>
      </trkpt>
      <trkpt lat="45.89005" lon="6.17857">
        <ele>629</ele>
        <time>2011-08-01T10:57:27Z</time>
      </trkpt>
      <trkpt lat="45.89017" lon="6.17852">
        <ele>630</ele>
        <time>2011-08-01T10:57:35Z</time>
      </trkpt>
      <trkpt lat="45.89023" lon="6.1785">
        <ele>631</ele>
        <time>2011-08-01T10:57:40Z</time>
      </trkpt>
      <trkpt lat="45.89028" lon="6.17848">
        <ele>632</ele>
        <time>2011-08-01T10:57:44Z</time>
      </trkpt>
      <trkpt lat="45.89037" lon="6.17846">
        <ele>634</ele>
        <time>2011-08-01T10:57:51Z</time>
      </trkpt>
      <trkpt lat="45.89045" lon="6.17843">
        <ele>636</ele>
        <time>2011-08-01T10:57:58Z</time>
      </trkpt>
      <trkpt lat="45.89047" lon="6.17843">
        <ele>637</ele>
        <time>2011-08-01T10:58:00Z</time>
      </trkpt>
      <trkpt lat="45.89057" lon="6.17841">
        <ele>638</ele>
        <time>2011-08-01T10:58:08Z</time>
      </trkpt>
      <trkpt lat="45.89064" lon="6.17839">
        <ele>639</ele>
        <time>2011-08-01T10:58:14Z</time>
      </trkpt>
      <trkpt lat="45.89066" lon="6.17839">
        <ele>640</ele>
        <time>2011-08-01T10:58:16Z</time>
      </trkpt>
      <trkpt lat="45.8907" lon="6.17836">
        <ele>640</ele>
        <time>2011-08-01T10:58:20Z</time>
      </trkpt>
      <trkpt lat="45.89077" lon="6.1783">
        <ele>636</ele>
        <time>2011-08-01T10:58:29Z</time>
      </trkpt>
      <trkpt lat="45.89083" lon="6.17825">
        <ele>635</ele>
        <time>2011-08-01T10:58:35Z</time>
      </trkpt>
      <trkpt lat="45.89086" lon="6.17821">
        <ele>643</ele>
        <time>2011-08-01T10:58:39Z</time>
      </trkpt>
      <trkpt lat="45.89095" lon="6.17819">
        <ele>643</ele>
        <time>2011-08-01T10:58:46Z</time>
      </trkpt>
      <trkpt lat="45.891" lon="6.17818">
        <ele>643</ele>
        <time>2011-08-01T10:58:50Z</time>
      </trkpt>
      <trkpt lat="45.89109" lon="6.17817">
        <ele>644</ele>
        <time>2011-08-01T10:58:57Z</time>
      </trkpt>
      <trkpt lat="45.89115" lon="6.17815">
        <ele>645</ele>
        <time>2011-08-01T10:59:03Z</time>
      </trkpt>
      <trkpt lat="45.8912" lon="6.17813">
        <ele>646</ele>
        <time>2011-08-01T10:59:09Z</time>
      </trkpt>
      <trkpt lat="45.89127" lon="6.17809">
        <ele>647</ele>
        <time>2011-08-01T10:59:14Z</time>
      </trkpt>
      <trkpt lat="45.89135" lon="6.17806">
        <ele>647</ele>
        <time>2011-08-01T10:59:19Z</time>
      </trkpt>
      <trkpt lat="45.89143" lon="6.17801">
        <ele>648</ele>
        <time>2011-08-01T10:59:25Z</time>
      </trkpt>
      <trkpt lat="45.89147" lon="6.17798">
        <ele>648</ele>
        <time>2011-08-01T10:59:28Z</time>
      </trkpt>
      <trkpt lat="45.89157" lon="6.1779">
        <ele>647</ele>
        <time>2011-08-01T10:59:33Z</time>
      </trkpt>
      <trkpt lat="45.89169" lon="6.17785">
        <ele>662</ele>
        <time>2011-08-01T10:59:39Z</time>
      </trkpt>
      <trkpt lat="45.89182" lon="6.17774">
        <ele>660</ele>
        <time>2011-08-01T10:59:45Z</time>
      </trkpt>
      <trkpt lat="45.8919" lon="6.17771">
        <ele>661</ele>
        <time>2011-08-01T10:59:49Z</time>
      </trkpt>
      <trkpt lat="45.89204" lon="6.17764">
        <ele>664</ele>
        <time>2011-08-01T10:59:56Z</time>
      </trkpt>
      <trkpt lat="45.89216" lon="6.17758">
        <ele>665</ele>
        <time>2011-08-01T11:00:01Z</time>
      </trkpt>
      <trkpt lat="45.89227" lon="6.17753">
        <ele>666</ele>
        <time>2011-08-01T11:00:07Z</time>
      </trkpt>
      <trkpt lat="45.89229" lon="6.17749">
        <ele>655</ele>
        <time>2011-08-01T11:00:10Z</time>
      </trkpt>
      <trkpt lat="45.89236" lon="6.17741">
        <ele>656</ele>
        <time>2011-08-01T11:00:14Z</time>
      </trkpt>
      <trkpt lat="45.89249" lon="6.17729">
        <ele>655</ele>
        <time>2011-08-01T11:00:20Z</time>
      </trkpt>
      <trkpt lat="45.89256" lon="6.17723">
        <ele>665</ele>
        <time>2011-08-01T11:00:23Z</time>
      </trkpt>
      <trkpt lat="45.89267" lon="6.17713">
        <ele>664</ele>
        <time>2011-08-01T11:00:28Z</time>
      </trkpt>
      <trkpt lat="45.89271" lon="6.17705">
        <ele>663</ele>
        <time>2011-08-01T11:00:32Z</time>
      </trkpt>
      <trkpt lat="45.89272" lon="6.17701">
        <ele>663</ele>
        <time>2011-08-01T11:00:34Z</time>
      </trkpt>
      <trkpt lat="45.89283" lon="6.17689">
        <ele>662</ele>
        <time>2011-08-01T11:00:41Z</time>
      </trkpt>
      <trkpt lat="45.89293" lon="6.17678">
        <ele>662</ele>
        <time>2011-08-01T11:00:47Z</time>
      </trkpt>
      <trkpt lat="45.89295" lon="6.17677">
        <ele>663</ele>
        <time>2011-08-01T11:00:48Z</time>
      </trkpt>
      <trkpt lat="45.8931" lon="6.17668">
        <ele>663</ele>
        <time>2011-08-01T11:00:55Z</time>
      </trkpt>
      <trkpt lat="45.89312" lon="6.17667">
        <ele>663</ele>
        <time>2011-08-01T11:00:56Z</time>
      </trkpt>
      <trkpt lat="45.89322" lon="6.17673">
        <ele>664</ele>
        <time>2011-08-01T11:01:01Z</time>
      </trkpt>
      <trkpt lat="45.89328" lon="6.17679">
        <ele>664</ele>
        <time>2011-08-01T11:01:04Z</time>
      </trkpt>
      <trkpt lat="45.89338" lon="6.17676">
        <ele>667</ele>
        <time>2011-08-01T11:01:08Z</time>
      </trkpt>
      <trkpt lat="45.89358" lon="6.1769">
        <ele>673</ele>
        <time>2011-08-01T11:01:15Z</time>
      </trkpt>
      <trkpt lat="45.89367" lon="6.17701">
        <ele>676</ele>
        <time>2011-08-01T11:01:20Z</time>
      </trkpt>
      <trkpt lat="45.89378" lon="6.17712">
        <ele>679</ele>
        <time>2011-08-01T11:01:26Z</time>
      </trkpt>
      <trkpt lat="45.89394" lon="6.17717">
        <ele>681</ele>
        <time>2011-08-01T11:01:34Z</time>
      </trkpt>
      <trkpt lat="45.89396" lon="6.17719">
        <ele>681</ele>
        <time>2011-08-01T11:01:35Z</time>
      </trkpt>
      <trkpt lat="45.89403" lon="6.17719">
        <ele>682</ele>
        <time>2011-08-01T11:01:39Z</time>
      </trkpt>
      <trkpt lat="45.89413" lon="6.17718">
        <ele>682</ele>
        <time>2011-08-01T11:01:45Z</time>
      </trkpt>
      <trkpt lat="45.89418" lon="6.17719">
        <ele>690</ele>
        <time>2011-08-01T11:01:49Z</time>
      </trkpt>
      <trkpt lat="45.89428" lon="6.17724">
        <ele>692</ele>
        <time>2011-08-01T11:01:57Z</time>
      </trkpt>
      <trkpt lat="45.89431" lon="6.17731">
        <ele>694</ele>
        <time>2011-08-01T11:02:03Z</time>
      </trkpt>
      <trkpt lat="45.89436" lon="6.17734">
        <ele>694</ele>
        <time>2011-08-01T11:02:10Z</time>
      </trkpt>
      <trkpt lat="45.89438" lon="6.17732">
        <ele>694</ele>
        <time>2011-08-01T11:02:12Z</time>
      </trkpt>
      <trkpt lat="45.89451" lon="6.17735">
        <ele>694</ele>
        <time>2011-08-01T11:02:20Z</time>
      </trkpt>
      <trkpt lat="45.89467" lon="6.17737">
        <ele>696</ele>
        <time>2011-08-01T11:02:26Z</time>
      </trkpt>
      <trkpt lat="45.89473" lon="6.17735">
        <ele>697</ele>
        <time>2011-08-01T11:02:31Z</time>
      </trkpt>
      <trkpt lat="45.89476" lon="6.17741">
        <ele>698</ele>
        <time>2011-08-01T11:02:35Z</time>
      </trkpt>
      <trkpt lat="45.8948" lon="6.17744">
        <ele>699</ele>
        <time>2011-08-01T11:02:40Z</time>
      </trkpt>
      <trkpt lat="45.89481" lon="6.17744">
        <ele>700</ele>
        <time>2011-08-01T11:02:41Z</time>
      </trkpt>
      <trkpt lat="45.89488" lon="6.17745">
        <ele>702</ele>
        <time>2011-08-01T11:02:47Z</time>
      </trkpt>
      <trkpt lat="45.895" lon="6.17743">
        <ele>712</ele>
        <time>2011-08-01T11:02:57Z</time>
      </trkpt>
      <trkpt lat="45.89495" lon="6.17736">
        <ele>701</ele>
        <time>2011-08-01T11:03:03Z</time>
      </trkpt>
      <trkpt lat="45.89495" lon="6.1773">
        <ele>699</ele>
        <time>2011-08-01T11:03:15Z</time>
      </trkpt>
      <trkpt lat="45.895" lon="6.17715">
        <ele>716</ele>
        <time>2011-08-01T11:03:21Z</time>
      </trkpt>
      <trkpt lat="45.89497" lon="6.1769">
        <ele>694</ele>
        <time>2011-08-01T11:03:26Z</time>
      </trkpt>
      <trkpt lat="45.89496" lon="6.17683">
        <ele>695</ele>
        <time>2011-08-01T11:03:28Z</time>
      </trkpt>
      <trkpt lat="45.89495" lon="6.17668">
        <ele>696</ele>
        <time>2011-08-01T11:03:34Z</time>
      </trkpt>
      <trkpt lat="45.89492" lon="6.1766">
        <ele>688</ele>
        <time>2011-08-01T11:03:38Z</time>
      </trkpt>
      <trkpt lat="45.8949" lon="6.17636">
        <ele>678</ele>
        <time>2011-08-01T11:03:45Z</time>
      </trkpt>
      <trkpt lat="45.89487" lon="6.17618">
        <ele>674</ele>
        <time>2011-08-01T11:03:51Z</time>
      </trkpt>
      <trkpt lat="45.89487" lon="6.17601">
        <ele>674</ele>
        <time>2011-08-01T11:03:58Z</time>
      </trkpt>
      <trkpt lat="45.89487" lon="6.17601">
        <ele>674</ele>
        <time>2011-08-01T11:03:59Z</time>
      </trkpt>
      <trkpt lat="45.89487" lon="6.17591">
        <ele>675</ele>
        <time>2011-08-01T11:04:06Z</time>
      </trkpt>
      <trkpt lat="45.89489" lon="6.17584">
        <ele>676</ele>
        <time>2011-08-01T11:04:12Z</time>
      </trkpt>
      <trkpt lat="45.89492" lon="6.17577">
        <ele>672</ele>
        <time>2011-08-01T11:04:17Z</time>
      </trkpt>
      <trkpt lat="45.89495" lon="6.17572">
        <ele>670</ele>
        <time>2011-08-01T11:04:23Z</time>
      </trkpt>
      <trkpt lat="45.89497" lon="6.17571">
        <ele>670</ele>
        <time>2011-08-01T11:04:26Z</time>
      </trkpt>
      <trkpt lat="45.89508" lon="6.17568">
        <ele>686</ele>
        <time>2011-08-01T11:04:32Z</time>
      </trkpt>
      <trkpt lat="45.8952" lon="6.17564">
        <ele>688</ele>
        <time>2011-08-01T11:04:38Z</time>
      </trkpt>
      <trkpt lat="45.89525" lon="6.17563">
        <ele>689</ele>
        <time>2011-08-01T11:04:41Z</time>
      </trkpt>
      <trkpt lat="45.8953" lon="6.17563">
        <ele>690</ele>
        <time>2011-08-01T11:04:47Z</time>
      </trkpt>
      <trkpt lat="45.89535" lon="6.17565">
        <ele>691</ele>
        <time>2011-08-01T11:04:52Z</time>
      </trkpt>
      <trkpt lat="45.8954" lon="6.17565">
        <ele>692</ele>
        <time>2011-08-01T11:04:57Z</time>
      </trkpt>
      <trkpt lat="45.89546" lon="6.17564">
        <ele>694</ele>
        <time>2011-08-01T11:05:02Z</time>
      </trkpt>
      <trkpt lat="45.89551" lon="6.17564">
        <ele>695</ele>
        <time>2011-08-01T11:05:07Z</time>
      </trkpt>
      <trkpt lat="45.89557" lon="6.17566">
        <ele>697</ele>
        <time>2011-08-01T11:05:12Z</time>
      </trkpt>
      <trkpt lat="45.89556" lon="6.17566">
        <ele>697</ele>
        <time>2011-08-01T11:05:18Z</time>
      </trkpt>
      <trkpt lat="45.89564" lon="6.17567">
        <ele>700</ele>
        <time>2011-08-01T11:05:23Z</time>
      </trkpt>
      <trkpt lat="45.89573" lon="6.17565">
        <ele>702</ele>
        <time>2011-08-01T11:05:29Z</time>
      </trkpt>
      <trkpt lat="45.89581" lon="6.17564">
        <ele>703</ele>
        <time>2011-08-01T11:05:34Z</time>
      </trkpt>
      <trkpt lat="45.89585" lon="6.17565">
        <ele>721</ele>
        <time>2011-08-01T11:05:38Z</time>
      </trkpt>
      <trkpt lat="45.89592" lon="6.17556">
        <ele>722</ele>
        <time>2011-08-01T11:05:45Z</time>
      </trkpt>
      <trkpt lat="45.89595" lon="6.17553">
        <ele>723</ele>
        <time>2011-08-01T11:05:49Z</time>
      </trkpt>
      <trkpt lat="45.896" lon="6.17548">
        <ele>724</ele>
        <time>2011-08-01T11:05:55Z</time>
      </trkpt>
      <trkpt lat="45.89616" lon="6.17541">
        <ele>727</ele>
        <time>2011-08-01T11:06:13Z</time>
      </trkpt>
      <trkpt lat="45.89619" lon="6.1754">
        <ele>727</ele>
        <time>2011-08-01T11:06:18Z</time>
      </trkpt>
      <trkpt lat="45.89621" lon="6.17539">
        <ele>728</ele>
        <time>2011-08-01T11:06:26Z</time>
      </trkpt>
      <trkpt lat="45.89622" lon="6.17538">
        <ele>728</ele>
        <time>2011-08-01T11:06:27Z</time>
      </trkpt>
      <trkpt lat="45.89624" lon="6.17528">
        <ele>728</ele>
        <time>2011-08-01T11:06:33Z</time>
      </trkpt>
      <trkpt lat="45.89627" lon="6.17523">
        <ele>729</ele>
        <time>2011-08-01T11:06:37Z</time>
      </trkpt>
      <trkpt lat="45.89626" lon="6.17521">
        <ele>729</ele>
        <time>2011-08-01T11:06:38Z</time>
      </trkpt>
      <trkpt lat="45.89622" lon="6.17513">
        <ele>727</ele>
        <time>2011-08-01T11:06:41Z</time>
      </trkpt>
      <trkpt lat="45.89611" lon="6.17498">
        <ele>727</ele>
        <time>2011-08-01T11:06:49Z</time>
      </trkpt>
      <trkpt lat="45.89602" lon="6.17484">
        <ele>724</ele>
        <time>2011-08-01T11:06:56Z</time>
      </trkpt>
      <trkpt lat="45.89598" lon="6.17478">
        <ele>724</ele>
        <time>2011-08-01T11:06:59Z</time>
      </trkpt>
      <trkpt lat="45.8958" lon="6.17476">
        <ele>694</ele>
        <time>2011-08-01T11:07:04Z</time>
      </trkpt>
      <trkpt lat="45.89571" lon="6.17476">
        <ele>692</ele>
        <time>2011-08-01T11:07:09Z</time>
      </trkpt>
      <trkpt lat="45.89569" lon="6.17476">
        <ele>692</ele>
        <time>2011-08-01T11:07:10Z</time>
      </trkpt>
      <trkpt lat="45.89571" lon="6.17466">
        <ele>692</ele>
        <time>2011-08-01T11:07:14Z</time>
      </trkpt>
      <trkpt lat="45.89573" lon="6.1746">
        <ele>692</ele>
        <time>2011-08-01T11:07:16Z</time>
      </trkpt>
      <trkpt lat="45.89579" lon="6.17446">
        <ele>696</ele>
        <time>2011-08-01T11:07:22Z</time>
      </trkpt>
      <trkpt lat="45.89579" lon="6.17433">
        <ele>700</ele>
        <time>2011-08-01T11:07:27Z</time>
      </trkpt>
      <trkpt lat="45.89582" lon="6.17408">
        <ele>708</ele>
        <time>2011-08-01T11:07:33Z</time>
      </trkpt>
      <trkpt lat="45.8958" lon="6.17389">
        <ele>700</ele>
        <time>2011-08-01T11:07:37Z</time>
      </trkpt>
      <trkpt lat="45.89573" lon="6.17369">
        <ele>699</ele>
        <time>2011-08-01T11:07:41Z</time>
      </trkpt>
      <trkpt lat="45.89569" lon="6.17352">
        <ele>702</ele>
        <time>2011-08-01T11:07:44Z</time>
      </trkpt>
      <trkpt lat="45.89568" lon="6.17331">
        <ele>706</ele>
        <time>2011-08-01T11:07:50Z</time>
      </trkpt>
      <trkpt lat="45.89568" lon="6.17325">
        <ele>704</ele>
        <time>2011-08-01T11:07:52Z</time>
      </trkpt>
      <trkpt lat="45.89568" lon="6.17309">
        <ele>698</ele>
        <time>2011-08-01T11:07:58Z</time>
      </trkpt>
      <trkpt lat="45.89568" lon="6.17298">
        <ele>695</ele>
        <time>2011-08-01T11:08:02Z</time>
      </trkpt>
      <trkpt lat="45.89569" lon="6.1728">
        <ele>694</ele>
        <time>2011-08-01T11:08:09Z</time>
      </trkpt>
      <trkpt lat="45.8957" lon="6.1726">
        <ele>698</ele>
        <time>2011-08-01T11:08:17Z</time>
      </trkpt>
      <trkpt lat="45.89572" lon="6.1725">
        <ele>694</ele>
        <time>2011-08-01T11:08:23Z</time>
      </trkpt>
      <trkpt lat="45.89573" lon="6.17245">
        <ele>695</ele>
        <time>2011-08-01T11:08:25Z</time>
      </trkpt>
      <trkpt lat="45.89579" lon="6.17228">
        <ele>685</ele>
        <time>2011-08-01T11:08:31Z</time>
      </trkpt>
      <trkpt lat="45.89588" lon="6.17208">
        <ele>717</ele>
        <time>2011-08-01T11:08:37Z</time>
      </trkpt>
      <trkpt lat="45.89594" lon="6.17196">
        <ele>714</ele>
        <time>2011-08-01T11:08:41Z</time>
      </trkpt>
      <trkpt lat="45.89607" lon="6.17187">
        <ele>716</ele>
        <time>2011-08-01T11:08:46Z</time>
      </trkpt>
      <trkpt lat="45.89611" lon="6.17185">
        <ele>717</ele>
        <time>2011-08-01T11:08:50Z</time>
      </trkpt>
      <trkpt lat="45.89619" lon="6.17179">
        <ele>720</ele>
        <time>2011-08-01T11:08:59Z</time>
      </trkpt>
      <trkpt lat="45.89624" lon="6.17176">
        <ele>723</ele>
        <time>2011-08-01T11:09:03Z</time>
      </trkpt>
      <trkpt lat="45.89628" lon="6.17164">
        <ele>704</ele>
        <time>2011-08-01T11:09:08Z</time>
      </trkpt>
      <trkpt lat="45.89629" lon="6.17161">
        <ele>704</ele>
        <time>2011-08-01T11:09:09Z</time>
      </trkpt>
      <trkpt lat="45.89639" lon="6.1715">
        <ele>707</ele>
        <time>2011-08-01T11:09:14Z</time>
      </trkpt>
      <trkpt lat="45.89649" lon="6.17136">
        <ele>707</ele>
        <time>2011-08-01T11:09:21Z</time>
      </trkpt>
      <trkpt lat="45.89662" lon="6.17121">
        <ele>704</ele>
        <time>2011-08-01T11:09:27Z</time>
      </trkpt>
      <trkpt lat="45.89677" lon="6.1711">
        <ele>730</ele>
        <time>2011-08-01T11:09:33Z</time>
      </trkpt>
      <trkpt lat="45.8969" lon="6.171">
        <ele>730</ele>
        <time>2011-08-01T11:09:38Z</time>
      </trkpt>
      <trkpt lat="45.89694" lon="6.17093">
        <ele>730</ele>
        <time>2011-08-01T11:09:40Z</time>
      </trkpt>
      <trkpt lat="45.89709" lon="6.17075">
        <ele>709</ele>
        <time>2011-08-01T11:09:45Z</time>
      </trkpt>
      <trkpt lat="45.89723" lon="6.17069">
        <ele>712</ele>
        <time>2011-08-01T11:09:49Z</time>
      </trkpt>
      <trkpt lat="45.8973" lon="6.17065">
        <ele>714</ele>
        <time>2011-08-01T11:09:52Z</time>
      </trkpt>
      <trkpt lat="45.89742" lon="6.17057">
        <ele>714</ele>
        <time>2011-08-01T11:09:57Z</time>
      </trkpt>
      <trkpt lat="45.89751" lon="6.17049">
        <ele>727</ele>
        <time>2011-08-01T11:10:01Z</time>
      </trkpt>
      <trkpt lat="45.89773" lon="6.17036">
        <ele>725</ele>
        <time>2011-08-01T11:10:07Z</time>
      </trkpt>
      <trkpt lat="45.89784" lon="6.17031">
        <ele>725</ele>
        <time>2011-08-01T11:10:10Z</time>
      </trkpt>
      <trkpt lat="45.89798" lon="6.17036">
        <ele>728</ele>
        <time>2011-08-01T11:10:15Z</time>
      </trkpt>
      <trkpt lat="45.89801" lon="6.17034">
        <ele>728</ele>
        <time>2011-08-01T11:10:16Z</time>
      </trkpt>
      <trkpt lat="45.89809" lon="6.17034">
        <ele>728</ele>
        <time>2011-08-01T11:10:21Z</time>
      </trkpt>
      <trkpt lat="45.89808" lon="6.17035">
        <ele>728</ele>
        <time>2011-08-01T11:10:53Z</time>
      </trkpt>
      <trkpt lat="45.89802" lon="6.17035">
        <ele>728</ele>
        <time>2011-08-01T11:11:01Z</time>
      </trkpt>
      <trkpt lat="45.89807" lon="6.17032">
        <ele>728</ele>
        <time>2011-08-01T11:12:06Z</time>
      </trkpt>
      <trkpt lat="45.89807" lon="6.1703">
        <ele>727</ele>
        <time>2011-08-01T11:12:40Z</time>
      </trkpt>
      <trkpt lat="45.89812" lon="6.17016">
        <ele>725</ele>
        <time>2011-08-01T11:12:46Z</time>
      </trkpt>
      <trkpt lat="45.89815" lon="6.16999">
        <ele>706</ele>
        <time>2011-08-01T11:12:51Z</time>
      </trkpt>
      <trkpt lat="45.89816" lon="6.16992">
        <ele>705</ele>
        <time>2011-08-01T11:12:53Z</time>
      </trkpt>
      <trkpt lat="45.89821" lon="6.16988">
        <ele>706</ele>
        <time>2011-08-01T11:12:55Z</time>
      </trkpt>
      <trkpt lat="45.89824" lon="6.16983">
        <ele>705</ele>
        <time>2011-08-01T11:12:58Z</time>
      </trkpt>
      <trkpt lat="45.89833" lon="6.16968">
        <ele>718</ele>
        <time>2011-08-01T11:13:02Z</time>
      </trkpt>
      <trkpt lat="45.89828" lon="6.16936">
        <ele>695</ele>
        <time>2011-08-01T11:13:07Z</time>
      </trkpt>
      <trkpt lat="45.89814" lon="6.16912">
        <ele>678</ele>
        <time>2011-08-01T11:13:11Z</time>
      </trkpt>
      <trkpt lat="45.8981" lon="6.16898">
        <ele>673</ele>
        <time>2011-08-01T11:13:13Z</time>
      </trkpt>
      <trkpt lat="45.89818" lon="6.16861">
        <ele>668</ele>
        <time>2011-08-01T11:13:19Z</time>
      </trkpt>
      <trkpt lat="45.8982" lon="6.16847">
        <ele>668</ele>
        <time>2011-08-01T11:13:22Z</time>
      </trkpt>
      <trkpt lat="45.89826" lon="6.16826">
        <ele>660</ele>
        <time>2011-08-01T11:13:28Z</time>
      </trkpt>
      <trkpt lat="45.89839" lon="6.16815">
        <ele>675</ele>
        <time>2011-08-01T11:13:33Z</time>
      </trkpt>
      <trkpt lat="45.89855" lon="6.16804">
        <ele>676</ele>
        <time>2011-08-01T11:13:39Z</time>
      </trkpt>
      <trkpt lat="45.89875" lon="6.16791">
        <ele>679</ele>
        <time>2011-08-01T11:13:43Z</time>
      </trkpt>
      <trkpt lat="45.89892" lon="6.16768">
        <ele>679</ele>
        <time>2011-08-01T11:13:47Z</time>
      </trkpt>
      <trkpt lat="45.89898" lon="6.16751">
        <ele>679</ele>
        <time>2011-08-01T11:13:50Z</time>
      </trkpt>
      <trkpt lat="45.89913" lon="6.16727">
        <ele>661</ele>
        <time>2011-08-01T11:13:54Z</time>
      </trkpt>
      <trkpt lat="45.89926" lon="6.16699">
        <ele>677</ele>
        <time>2011-08-01T11:13:59Z</time>
      </trkpt>
      <trkpt lat="45.89935" lon="6.1668">
        <ele>672</ele>
        <time>2011-08-01T11:14:03Z</time>
      </trkpt>
      <trkpt lat="45.89938" lon="6.16675">
        <ele>672</ele>
        <time>2011-08-01T11:14:05Z</time>
      </trkpt>
      <trkpt lat="45.8994" lon="6.16658">
        <ele>662</ele>
        <time>2011-08-01T11:14:11Z</time>
      </trkpt>
      <trkpt lat="45.89942" lon="6.1663">
        <ele>662</ele>
        <time>2011-08-01T11:14:16Z</time>
      </trkpt>
      <trkpt lat="45.89944" lon="6.16616">
        <ele>661</ele>
        <time>2011-08-01T11:14:20Z</time>
      </trkpt>
      <trkpt lat="45.89945" lon="6.16612">
        <ele>661</ele>
        <time>2011-08-01T11:14:21Z</time>
      </trkpt>
      <trkpt lat="45.89949" lon="6.16603">
        <ele>661</ele>
        <time>2011-08-01T11:14:25Z</time>
      </trkpt>
      <trkpt lat="45.89949" lon="6.16589">
        <ele>660</ele>
        <time>2011-08-01T11:14:30Z</time>
      </trkpt>
      <trkpt lat="45.89952" lon="6.1658">
        <ele>654</ele>
        <time>2011-08-01T11:14:34Z</time>
      </trkpt>
      <trkpt lat="45.89951" lon="6.16572">
        <ele>654</ele>
        <time>2011-08-01T11:14:41Z</time>
      </trkpt>
      <trkpt lat="45.89949" lon="6.16568">
        <ele>653</ele>
        <time>2011-08-01T11:14:46Z</time>
      </trkpt>
      <trkpt lat="45.89942" lon="6.16554">
        <ele>652</ele>
        <time>2011-08-01T11:15:06Z</time>
      </trkpt>
      <trkpt lat="45.89937" lon="6.16549">
        <ele>651</ele>
        <time>2011-08-01T11:15:11Z</time>
      </trkpt>
      <trkpt lat="45.89936" lon="6.16548">
        <ele>651</ele>
        <time>2011-08-01T11:15:12Z</time>
      </trkpt>
      <trkpt lat="45.89933" lon="6.16533">
        <ele>650</ele>
        <time>2011-08-01T11:15:21Z</time>
      </trkpt>
      <trkpt lat="45.89935" lon="6.16523">
        <ele>649</ele>
        <time>2011-08-01T11:15:30Z</time>
      </trkpt>
      <trkpt lat="45.89934" lon="6.1652">
        <ele>649</ele>
        <time>2011-08-01T11:15:38Z</time>
      </trkpt>
      <trkpt lat="45.89931" lon="6.16517">
        <ele>648</ele>
        <time>2011-08-01T11:15:45Z</time>
      </trkpt>
      <trkpt lat="45.89932" lon="6.16516">
        <ele>648</ele>
        <time>2011-08-01T11:15:51Z</time>
      </trkpt>
      <trkpt lat="45.89933" lon="6.16515">
        <ele>648</ele>
        <time>2011-08-01T11:16:08Z</time>
      </trkpt>
      <trkpt lat="45.89931" lon="6.16516">
        <ele>647</ele>
        <time>2011-08-01T11:16:31Z</time>
      </trkpt>
      <trkpt lat="45.89938" lon="6.16529">
        <ele>651</ele>
        <time>2011-08-01T11:16:41Z</time>
      </trkpt>
      <trkpt lat="45.8994" lon="6.16546">
        <ele>652</ele>
        <time>2011-08-01T11:16:47Z</time>
      </trkpt>
      <trkpt lat="45.89941" lon="6.1655">
        <ele>652</ele>
        <time>2011-08-01T11:16:48Z</time>
      </trkpt>
      <trkpt lat="45.89943" lon="6.16553">
        <ele>652</ele>
        <time>2011-08-01T11:16:51Z</time>
      </trkpt>
      <trkpt lat="45.89949" lon="6.16557">
        <ele>654</ele>
        <time>2011-08-01T11:16:56Z</time>
      </trkpt>
      <trkpt lat="45.89949" lon="6.16565">
        <ele>654</ele>
        <time>2011-08-01T11:17:03Z</time>
      </trkpt>
      <trkpt lat="45.89937" lon="6.1659">
        <ele>655</ele>
        <time>2011-08-01T11:17:27Z</time>
      </trkpt>
      <trkpt lat="45.89932" lon="6.16608">
        <ele>657</ele>
        <time>2011-08-01T11:17:33Z</time>
      </trkpt>
      <trkpt lat="45.89923" lon="6.16622">
        <ele>658</ele>
        <time>2011-08-01T11:17:37Z</time>
      </trkpt>
      <trkpt lat="45.89913" lon="6.16636">
        <ele>630</ele>
        <time>2011-08-01T11:17:42Z</time>
      </trkpt>
      <trkpt lat="45.8991" lon="6.16642">
        <ele>631</ele>
        <time>2011-08-01T11:17:47Z</time>
      </trkpt>
      <trkpt lat="45.89909" lon="6.16643">
        <ele>632</ele>
        <time>2011-08-01T11:17:50Z</time>
      </trkpt>
      <trkpt lat="45.89903" lon="6.16654">
        <ele>634</ele>
        <time>2011-08-01T11:17:56Z</time>
      </trkpt>
      <trkpt lat="45.89904" lon="6.16653">
        <ele>634</ele>
        <time>2011-08-01T11:18:02Z</time>
      </trkpt>
      <trkpt lat="45.89906" lon="6.16656">
        <ele>637</ele>
        <time>2011-08-01T11:18:10Z</time>
      </trkpt>
      <trkpt lat="45.89901" lon="6.16659">
        <ele>635</ele>
        <time>2011-08-01T11:18:16Z</time>
      </trkpt>
      <trkpt lat="45.89901" lon="6.16659">
        <ele>634</ele>
        <time>2011-08-01T11:18:19Z</time>
      </trkpt>
      <trkpt lat="45.899" lon="6.16657">
        <ele>634</ele>
        <time>2011-08-01T11:18:27Z</time>
      </trkpt>
      <trkpt lat="45.89898" lon="6.16658">
        <ele>632</ele>
        <time>2011-08-01T11:18:29Z</time>
      </trkpt>
      <trkpt lat="45.89891" lon="6.16658">
        <ele>628</ele>
        <time>2011-08-01T11:18:37Z</time>
      </trkpt>
      <trkpt lat="45.89896" lon="6.16652">
        <ele>630</ele>
        <time>2011-08-01T11:18:46Z</time>
      </trkpt>
      <trkpt lat="45.89894" lon="6.16645">
        <ele>627</ele>
        <time>2011-08-01T11:18:53Z</time>
      </trkpt>
      <trkpt lat="45.89892" lon="6.16637">
        <ele>625</ele>
        <time>2011-08-01T11:18:59Z</time>
      </trkpt>
      <trkpt lat="45.89891" lon="6.16636">
        <ele>624</ele>
        <time>2011-08-01T11:19:00Z</time>
      </trkpt>
      <trkpt lat="45.89887" lon="6.16628">
        <ele>622</ele>
        <time>2011-08-01T11:19:06Z</time>
      </trkpt>
      <trkpt lat="45.89888" lon="6.16616">
        <ele>621</ele>
        <time>2011-08-01T11:19:16Z</time>
      </trkpt>
      <trkpt lat="45.89883" lon="6.16613">
        <ele>620</ele>
        <time>2011-08-01T11:19:23Z</time>
      </trkpt>
      <trkpt lat="45.89877" lon="6.16604">
        <ele>617</ele>
        <time>2011-08-01T11:19:40Z</time>
      </trkpt>
      <trkpt lat="45.89874" lon="6.16605">
        <ele>615</ele>
        <time>2011-08-01T11:19:45Z</time>
      </trkpt>
      <trkpt lat="45.89876" lon="6.16608">
        <ele>617</ele>
        <time>2011-08-01T11:19:50Z</time>
      </trkpt>
      <trkpt lat="45.89874" lon="6.16608">
        <ele>616</ele>
        <time>2011-08-01T11:19:52Z</time>
      </trkpt>
      <trkpt lat="45.89867" lon="6.16612">
        <ele>613</ele>
        <time>2011-08-01T11:19:56Z</time>
      </trkpt>
      <trkpt lat="45.89858" lon="6.16617">
        <ele>611</ele>
        <time>2011-08-01T11:20:01Z</time>
      </trkpt>
      <trkpt lat="45.89851" lon="6.16622">
        <ele>610</ele>
        <time>2011-08-01T11:20:05Z</time>
      </trkpt>
      <trkpt lat="45.8984" lon="6.16629">
        <ele>608</ele>
        <time>2011-08-01T11:20:10Z</time>
      </trkpt>
      <trkpt lat="45.89833" lon="6.16641">
        <ele>575</ele>
        <time>2011-08-01T11:20:14Z</time>
      </trkpt>
      <trkpt lat="45.89818" lon="6.16652">
        <ele>576</ele>
        <time>2011-08-01T11:20:19Z</time>
      </trkpt>
      <trkpt lat="45.89812" lon="6.16656">
        <ele>574</ele>
        <time>2011-08-01T11:20:23Z</time>
      </trkpt>
      <trkpt lat="45.89811" lon="6.16656">
        <ele>573</ele>
        <time>2011-08-01T11:20:30Z</time>
      </trkpt>
      <trkpt lat="45.89809" lon="6.16656">
        <ele>571</ele>
        <time>2011-08-01T11:20:37Z</time>
      </trkpt>
      <trkpt lat="45.89802" lon="6.1666">
        <ele>568</ele>
        <time>2011-08-01T11:20:41Z</time>
      </trkpt>
      <trkpt lat="45.89803" lon="6.16655">
        <ele>568</ele>
        <time>2011-08-01T11:20:48Z</time>
      </trkpt>
      <trkpt lat="45.89802" lon="6.16648">
        <ele>566</ele>
        <time>2011-08-01T11:20:58Z</time>
      </trkpt>
      <trkpt lat="45.89797" lon="6.16648">
        <ele>564</ele>
        <time>2011-08-01T11:21:03Z</time>
      </trkpt>
      <trkpt lat="45.89789" lon="6.16661">
        <ele>561</ele>
        <time>2011-08-01T11:21:08Z</time>
      </trkpt>
      <trkpt lat="45.89784" lon="6.16666">
        <ele>558</ele>
        <time>2011-08-01T11:21:11Z</time>
      </trkpt>
      <trkpt lat="45.89769" lon="6.16673">
        <ele>569</ele>
        <time>2011-08-01T11:21:17Z</time>
      </trkpt>
      <trkpt lat="45.89758" lon="6.16674">
        <ele>558</ele>
        <time>2011-08-01T11:21:22Z</time>
      </trkpt>
      <trkpt lat="45.89747" lon="6.16677">
        <ele>539</ele>
        <time>2011-08-01T11:21:27Z</time>
      </trkpt>
      <trkpt lat="45.8974" lon="6.16679">
        <ele>539</ele>
        <time>2011-08-01T11:21:30Z</time>
      </trkpt>
      <trkpt lat="45.8974" lon="6.16682">
        <ele>539</ele>
        <time>2011-08-01T11:21:36Z</time>
      </trkpt>
      <trkpt lat="45.89737" lon="6.16683">
        <ele>539</ele>
        <time>2011-08-01T11:21:41Z</time>
      </trkpt>
      <trkpt lat="45.89733" lon="6.16685">
        <ele>539</ele>
        <time>2011-08-01T11:21:47Z</time>
      </trkpt>
      <trkpt lat="45.8973" lon="6.16687">
        <ele>538</ele>
        <time>2011-08-01T11:21:51Z</time>
      </trkpt>
      <trkpt lat="45.89727" lon="6.16688">
        <ele>538</ele>
        <time>2011-08-01T11:21:57Z</time>
      </trkpt>
      <trkpt lat="45.89724" lon="6.16689">
        <ele>537</ele>
        <time>2011-08-01T11:22:02Z</time>
      </trkpt>
      <trkpt lat="45.89721" lon="6.16692">
        <ele>537</ele>
        <time>2011-08-01T11:22:09Z</time>
      </trkpt>
      <trkpt lat="45.89717" lon="6.16695">
        <ele>537</ele>
        <time>2011-08-01T11:22:18Z</time>
      </trkpt>
      <trkpt lat="45.89713" lon="6.16698">
        <ele>536</ele>
        <time>2011-08-01T11:22:23Z</time>
      </trkpt>
      <trkpt lat="45.89703" lon="6.16707">
        <ele>535</ele>
        <time>2011-08-01T11:22:30Z</time>
      </trkpt>
      <trkpt lat="45.89692" lon="6.16719">
        <ele>534</ele>
        <time>2011-08-01T11:22:35Z</time>
      </trkpt>
      <trkpt lat="45.89685" lon="6.1672">
        <ele>532</ele>
        <time>2011-08-01T11:22:39Z</time>
      </trkpt>
      <trkpt lat="45.89677" lon="6.16725">
        <ele>531</ele>
        <time>2011-08-01T11:22:44Z</time>
      </trkpt>
      <trkpt lat="45.89665" lon="6.1673">
        <ele>508</ele>
        <time>2011-08-01T11:22:49Z</time>
      </trkpt>
      <trkpt lat="45.8965" lon="6.16739">
        <ele>508</ele>
        <time>2011-08-01T11:22:54Z</time>
      </trkpt>
      <trkpt lat="45.89635" lon="6.16747">
        <ele>502</ele>
        <time>2011-08-01T11:23:00Z</time>
      </trkpt>
      <trkpt lat="45.89631" lon="6.16748">
        <ele>501</ele>
        <time>2011-08-01T11:23:02Z</time>
      </trkpt>
      <trkpt lat="45.89621" lon="6.16748">
        <ele>497</ele>
        <time>2011-08-01T11:23:06Z</time>
      </trkpt>
      <trkpt lat="45.89606" lon="6.16746">
        <ele>493</ele>
        <time>2011-08-01T11:23:14Z</time>
      </trkpt>
      <trkpt lat="45.89598" lon="6.16743">
        <ele>490</ele>
        <time>2011-08-01T11:23:18Z</time>
      </trkpt>
      <trkpt lat="45.89581" lon="6.16734">
        <ele>479</ele>
        <time>2011-08-01T11:23:25Z</time>
      </trkpt>
      <trkpt lat="45.8958" lon="6.16733">
        <ele>479</ele>
        <time>2011-08-01T11:23:29Z</time>
      </trkpt>
      <trkpt lat="45.89583" lon="6.16735">
        <ele>479</ele>
        <time>2011-08-01T11:23:36Z</time>
      </trkpt>
      <trkpt lat="45.89586" lon="6.16739">
        <ele>489</ele>
        <time>2011-08-01T11:23:41Z</time>
      </trkpt>
      <trkpt lat="45.89591" lon="6.16744">
        <ele>488</ele>
        <time>2011-08-01T11:23:48Z</time>
      </trkpt>
      <trkpt lat="45.89587" lon="6.16749">
        <ele>486</ele>
        <time>2011-08-01T11:23:55Z</time>
      </trkpt>
      <trkpt lat="45.89576" lon="6.16742">
        <ele>480</ele>
        <time>2011-08-01T11:23:59Z</time>
      </trkpt>
      <trkpt lat="45.89573" lon="6.16739">
        <ele>479</ele>
        <time>2011-08-01T11:24:00Z</time>
      </trkpt>
      <trkpt lat="45.89573" lon="6.16726">
        <ele>477</ele>
        <time>2011-08-01T11:24:04Z</time>
      </trkpt>
      <trkpt lat="45.89564" lon="6.16714">
        <ele>474</ele>
        <time>2011-08-01T11:24:09Z</time>
      </trkpt>
      <trkpt lat="45.89557" lon="6.16696">
        <ele>473</ele>
        <time>2011-08-01T11:24:13Z</time>
      </trkpt>
      <trkpt lat="45.8956" lon="6.16656">
        <ele>467</ele>
        <time>2011-08-01T11:24:19Z</time>
      </trkpt>
      <trkpt lat="45.89561" lon="6.16647">
        <ele>466</ele>
        <time>2011-08-01T11:24:21Z</time>
      </trkpt>
      <trkpt lat="45.89575" lon="6.16629">
        <ele>466</ele>
        <time>2011-08-01T11:24:26Z</time>
      </trkpt>
      <trkpt lat="45.89593" lon="6.16603">
        <ele>472</ele>
        <time>2011-08-01T11:24:31Z</time>
      </trkpt>
      <trkpt lat="45.89615" lon="6.16573">
        <ele>467</ele>
        <time>2011-08-01T11:24:36Z</time>
      </trkpt>
      <trkpt lat="45.8963" lon="6.16548">
        <ele>467</ele>
        <time>2011-08-01T11:24:40Z</time>
      </trkpt>
      <trkpt lat="45.89664" lon="6.16502">
        <ele>466</ele>
        <time>2011-08-01T11:24:48Z</time>
      </trkpt>
      <trkpt lat="45.89678" lon="6.16489">
        <ele>469</ele>
        <time>2011-08-01T11:24:51Z</time>
      </trkpt>
      <trkpt lat="45.89679" lon="6.16488">
        <ele>469</ele>
        <time>2011-08-01T11:24:56Z</time>
      </trkpt>
      <trkpt lat="45.8968" lon="6.16484">
        <ele>469</ele>
        <time>2011-08-01T11:25:00Z</time>
      </trkpt>
      <trkpt lat="45.89692" lon="6.16468">
        <ele>470</ele>
        <time>2011-08-01T11:25:06Z</time>
      </trkpt>
      <trkpt lat="45.8971" lon="6.16444">
        <ele>471</ele>
        <time>2011-08-01T11:25:11Z</time>
      </trkpt>
      <trkpt lat="45.89735" lon="6.16411">
        <ele>465</ele>
        <time>2011-08-01T11:25:17Z</time>
      </trkpt>
      <trkpt lat="45.89752" lon="6.1639">
        <ele>474</ele>
        <time>2011-08-01T11:25:21Z</time>
      </trkpt>
      <trkpt lat="45.89783" lon="6.16354">
        <ele>473</ele>
        <time>2011-08-01T11:25:28Z</time>
      </trkpt>
      <trkpt lat="45.89803" lon="6.16329">
        <ele>463</ele>
        <time>2011-08-01T11:25:33Z</time>
      </trkpt>
      <trkpt lat="45.89837" lon="6.1629">
        <ele>474</ele>
        <time>2011-08-01T11:25:41Z</time>
      </trkpt>
      <trkpt lat="45.89872" lon="6.16252">
        <ele>475</ele>
        <time>2011-08-01T11:25:49Z</time>
      </trkpt>
      <trkpt lat="45.89909" lon="6.16217">
        <ele>462</ele>
        <time>2011-08-01T11:25:57Z</time>
      </trkpt>
      <trkpt lat="45.89923" lon="6.16205">
        <ele>467</ele>
        <time>2011-08-01T11:26:00Z</time>
      </trkpt>
      <trkpt lat="45.89961" lon="6.16182">
        <ele>467</ele>
        <time>2011-08-01T11:26:07Z</time>
      </trkpt>
      <trkpt lat="45.8999" lon="6.1617">
        <ele>464</ele>
        <time>2011-08-01T11:26:13Z</time>
      </trkpt>
      <trkpt lat="45.90022" lon="6.16157">
        <ele>456</ele>
        <time>2011-08-01T11:26:20Z</time>
      </trkpt>
      <trkpt lat="45.90053" lon="6.16149">
        <ele>455</ele>
        <time>2011-08-01T11:26:26Z</time>
      </trkpt>
      <trkpt lat="45.901" lon="6.16133">
        <ele>455</ele>
        <time>2011-08-01T11:26:35Z</time>
      </trkpt>
      <trkpt lat="45.90133" lon="6.16116">
        <ele>454</ele>
        <time>2011-08-01T11:26:41Z</time>
      </trkpt>
      <trkpt lat="45.90167" lon="6.16091">
        <ele>450</ele>
        <time>2011-08-01T11:26:48Z</time>
      </trkpt>
      <trkpt lat="45.90204" lon="6.16068">
        <ele>450</ele>
        <time>2011-08-01T11:26:55Z</time>
      </trkpt>
      <trkpt lat="45.90249" lon="6.16048">
        <ele>451</ele>
        <time>2011-08-01T11:27:03Z</time>
      </trkpt>
      <trkpt lat="45.90273" lon="6.16037">
        <ele>454</ele>
        <time>2011-08-01T11:27:08Z</time>
      </trkpt>
      <trkpt lat="45.9031" lon="6.16021">
        <ele>454</ele>
        <time>2011-08-01T11:27:15Z</time>
      </trkpt>
      <trkpt lat="45.90368" lon="6.15998">
        <ele>451</ele>
        <time>2011-08-01T11:27:26Z</time>
      </trkpt>
      <trkpt lat="45.90407" lon="6.15983">
        <ele>451</ele>
        <time>2011-08-01T11:27:34Z</time>
      </trkpt>
      <trkpt lat="45.90436" lon="6.15967">
        <ele>452</ele>
        <time>2011-08-01T11:27:41Z</time>
      </trkpt>
      <trkpt lat="45.90469" lon="6.15941">
        <ele>451</ele>
        <time>2011-08-01T11:27:48Z</time>
      </trkpt>
      <trkpt lat="45.90508" lon="6.15905">
        <ele>451</ele>
        <time>2011-08-01T11:27:56Z</time>
      </trkpt>
      <trkpt lat="45.90536" lon="6.15869">
        <ele>451</ele>
        <time>2011-08-01T11:28:03Z</time>
      </trkpt>
      <trkpt lat="45.90556" lon="6.15858">
        <ele>451</ele>
        <time>2011-08-01T11:28:08Z</time>
      </trkpt>
      <trkpt lat="45.90567" lon="6.15849">
        <ele>451</ele>
        <time>2011-08-01T11:28:12Z</time>
      </trkpt>
      <trkpt lat="45.9057" lon="6.15833">
        <ele>450</ele>
        <time>2011-08-01T11:28:15Z</time>
      </trkpt>
      <trkpt lat="45.90569" lon="6.15811">
        <ele>450</ele>
        <time>2011-08-01T11:28:19Z</time>
      </trkpt>
      <trkpt lat="45.90566" lon="6.15803">
        <ele>449</ele>
        <time>2011-08-01T11:28:22Z</time>
      </trkpt>
      <trkpt lat="45.90559" lon="6.15792">
        <ele>449</ele>
        <time>2011-08-01T11:28:27Z</time>
      </trkpt>
      <trkpt lat="45.90564" lon="6.15777">
        <ele>449</ele>
        <time>2011-08-01T11:28:30Z</time>
      </trkpt>
      <trkpt lat="45.90566" lon="6.15771">
        <ele>449</ele>
        <time>2011-08-01T11:28:31Z</time>
      </trkpt>
      <trkpt lat="45.90581" lon="6.15725">
        <ele>448</ele>
        <time>2011-08-01T11:28:38Z</time>
      </trkpt>
      <trkpt lat="45.9059" lon="6.15679">
        <ele>449</ele>
        <time>2011-08-01T11:28:45Z</time>
      </trkpt>
      <trkpt lat="45.90596" lon="6.15629">
        <ele>450</ele>
        <time>2011-08-01T11:28:52Z</time>
      </trkpt>
      <trkpt lat="45.90594" lon="6.15604">
        <ele>449</ele>
        <time>2011-08-01T11:28:56Z</time>
      </trkpt>
      <trkpt lat="45.90592" lon="6.15561">
        <ele>450</ele>
        <time>2011-08-01T11:29:03Z</time>
      </trkpt>
      <trkpt lat="45.90587" lon="6.15511">
        <ele>450</ele>
        <time>2011-08-01T11:29:10Z</time>
      </trkpt>
      <trkpt lat="45.90586" lon="6.15505">
        <ele>450</ele>
        <time>2011-08-01T11:29:11Z</time>
      </trkpt>
      <trkpt lat="45.90581" lon="6.15477">
        <ele>449</ele>
        <time>2011-08-01T11:29:16Z</time>
      </trkpt>
      <trkpt lat="45.90578" lon="6.15452">
        <ele>449</ele>
        <time>2011-08-01T11:29:21Z</time>
      </trkpt>
      <trkpt lat="45.90577" lon="6.1544">
        <ele>449</ele>
        <time>2011-08-01T11:29:23Z</time>
      </trkpt>
      <trkpt lat="45.90565" lon="6.1537">
        <ele>450</ele>
        <time>2011-08-01T11:29:33Z</time>
      </trkpt>
      <trkpt lat="45.90558" lon="6.15329">
        <ele>450</ele>
        <time>2011-08-01T11:29:39Z</time>
      </trkpt>
      <trkpt lat="45.90554" lon="6.153">
        <ele>449</ele>
        <time>2011-08-01T11:29:44Z</time>
      </trkpt>
      <trkpt lat="45.90553" lon="6.15283">
        <ele>449</ele>
        <time>2011-08-01T11:29:47Z</time>
      </trkpt>
      <trkpt lat="45.90543" lon="6.15227">
        <ele>449</ele>
        <time>2011-08-01T11:29:55Z</time>
      </trkpt>
      <trkpt lat="45.90533" lon="6.1516">
        <ele>449</ele>
        <time>2011-08-01T11:30:04Z</time>
      </trkpt>
      <trkpt lat="45.90527" lon="6.15129">
        <ele>449</ele>
        <time>2011-08-01T11:30:09Z</time>
      </trkpt>
      <trkpt lat="45.90522" lon="6.15092">
        <ele>449</ele>
        <time>2011-08-01T11:30:15Z</time>
      </trkpt>
      <trkpt lat="45.90519" lon="6.15061">
        <ele>449</ele>
        <time>2011-08-01T11:30:20Z</time>
      </trkpt>
      <trkpt lat="45.90516" lon="6.15051">
        <ele>449</ele>
        <time>2011-08-01T11:30:22Z</time>
      </trkpt>
      <trkpt lat="45.90513" lon="6.15024">
        <ele>449</ele>
        <time>2011-08-01T11:30:27Z</time>
      </trkpt>
      <trkpt lat="45.90505" lon="6.14971">
        <ele>450</ele>
        <time>2011-08-01T11:30:35Z</time>
      </trkpt>
      <trkpt lat="45.90496" lon="6.14905">
        <ele>451</ele>
        <time>2011-08-01T11:30:44Z</time>
      </trkpt>
      <trkpt lat="45.90484" lon="6.14831">
        <ele>451</ele>
        <time>2011-08-01T11:30:54Z</time>
      </trkpt>
      <trkpt lat="45.90475" lon="6.14774">
        <ele>452</ele>
        <time>2011-08-01T11:31:02Z</time>
      </trkpt>
      <trkpt lat="45.90472" lon="6.14755">
        <ele>452</ele>
        <time>2011-08-01T11:31:05Z</time>
      </trkpt>
      <trkpt lat="45.90466" lon="6.14733">
        <ele>454</ele>
        <time>2011-08-01T11:31:11Z</time>
      </trkpt>
      <trkpt lat="45.90462" lon="6.14724">
        <ele>454</ele>
        <time>2011-08-01T11:31:16Z</time>
      </trkpt>
      <trkpt lat="45.90454" lon="6.14728">
        <ele>454</ele>
        <time>2011-08-01T11:31:21Z</time>
      </trkpt>
      <trkpt lat="45.90439" lon="6.14735">
        <ele>453</ele>
        <time>2011-08-01T11:31:27Z</time>
      </trkpt>
      <trkpt lat="45.90437" lon="6.14738">
        <ele>453</ele>
        <time>2011-08-01T11:31:33Z</time>
      </trkpt>
      <trkpt lat="45.90436" lon="6.14738">
        <ele>453</ele>
        <time>2011-08-01T11:31:34Z</time>
      </trkpt>
      <trkpt lat="45.90432" lon="6.14739">
        <ele>453</ele>
        <time>2011-08-01T11:31:46Z</time>
      </trkpt>
      <trkpt lat="45.90435" lon="6.14741">
        <ele>453</ele>
        <time>2011-08-01T11:31:52Z</time>
      </trkpt>
      <trkpt lat="45.90433" lon="6.14738">
        <ele>453</ele>
        <time>2011-08-01T11:31:58Z</time>
      </trkpt>
      <trkpt lat="45.90436" lon="6.14741">
        <ele>453</ele>
        <time>2011-08-01T11:32:06Z</time>
      </trkpt>
      <trkpt lat="45.90433" lon="6.1474">
        <ele>453</ele>
        <time>2011-08-01T11:32:19Z</time>
      </trkpt>
      <trkpt lat="45.90434" lon="6.14746">
        <ele>453</ele>
        <time>2011-08-01T11:32:23Z</time>
      </trkpt>
      <trkpt lat="45.90438" lon="6.14747">
        <ele>453</ele>
        <time>2011-08-01T11:32:29Z</time>
      </trkpt>
      <trkpt lat="45.90436" lon="6.14747">
        <ele>453</ele>
        <time>2011-08-01T11:32:37Z</time>
      </trkpt>
      <trkpt lat="45.90432" lon="6.14745">
        <ele>453</ele>
        <time>2011-08-01T11:32:41Z</time>
      </trkpt>
      <trkpt lat="45.9043" lon="6.14739">
        <ele>453</ele>
        <time>2011-08-01T11:32:45Z</time>
      </trkpt>
      <trkpt lat="45.90432" lon="6.14735">
        <ele>453</ele>
        <time>2011-08-01T11:32:49Z</time>
      </trkpt>
      <trkpt lat="45.90434" lon="6.14735">
        <ele>453</ele>
        <time>2011-08-01T11:32:57Z</time>
      </trkpt>
      <trkpt lat="45.90437" lon="6.14736">
        <ele>453</ele>
        <time>2011-08-01T11:33:04Z</time>
      </trkpt>
      <trkpt lat="45.90438" lon="6.14737">
        <ele>453</ele>
        <time>2011-08-01T11:33:13Z</time>
      </trkpt>
      <trkpt lat="45.90439" lon="6.14734">
        <ele>453</ele>
        <time>2011-08-01T11:33:23Z</time>
      </trkpt>
      <trkpt lat="45.90441" lon="6.14735">
        <ele>453</ele>
        <time>2011-08-01T11:33:31Z</time>
      </trkpt>
      <trkpt lat="45.90442" lon="6.14747">
        <ele>453</ele>
        <time>2011-08-01T11:33:38Z</time>
      </trkpt>
      <trkpt lat="45.90442" lon="6.14748">
        <ele>453</ele>
        <time>2011-08-01T11:33:45Z</time>
      </trkpt>
      <trkpt lat="45.90442" lon="6.14748">
        <ele>453</ele>
        <time>2011-08-01T11:33:53Z</time>
      </trkpt>
      <trkpt lat="45.90438" lon="6.14749">
        <ele>453</ele>
        <time>2011-08-01T11:33:57Z</time>
      </trkpt>
      <trkpt lat="45.90434" lon="6.14746">
        <ele>453</ele>
        <time>2011-08-01T11:34:02Z</time>
      </trkpt>
      <trkpt lat="45.90434" lon="6.14737">
        <ele>453</ele>
        <time>2011-08-01T11:34:08Z</time>
      </trkpt>
      <trkpt lat="45.90435" lon="6.14739">
        <ele>453</ele>
        <time>2011-08-01T11:34:19Z</time>
      </trkpt>
      <trkpt lat="45.90437" lon="6.14738">
        <ele>453</ele>
        <time>2011-08-01T11:34:33Z</time>
      </trkpt>
      <trkpt lat="45.90436" lon="6.14733">
        <ele>453</ele>
        <time>2011-08-01T11:34:39Z</time>
      </trkpt>
      <trkpt lat="45.90435" lon="6.14733">
        <ele>453</ele>
        <time>2011-08-01T11:34:46Z</time>
      </trkpt>
      <trkpt lat="45.90437" lon="6.14733">
        <ele>453</ele>
        <time>2011-08-01T11:34:52Z</time>
      </trkpt>
      <trkpt lat="45.90448" lon="6.14728">
        <ele>453</ele>
        <time>2011-08-01T11:34:56Z</time>
      </trkpt>
      <trkpt lat="45.90463" lon="6.14718">
        <ele>454</ele>
        <time>2011-08-01T11:35:02Z</time>
      </trkpt>
      <trkpt lat="45.90465" lon="6.14703">
        <ele>454</ele>
        <time>2011-08-01T11:35:05Z</time>
      </trkpt>
      <trkpt lat="45.90462" lon="6.14661">
        <ele>455</ele>
        <time>2011-08-01T11:35:11Z</time>
      </trkpt>
      <trkpt lat="45.9046" lon="6.14623">
        <ele>455</ele>
        <time>2011-08-01T11:35:16Z</time>
      </trkpt>
      <trkpt lat="45.90466" lon="6.14577">
        <ele>455</ele>
        <time>2011-08-01T11:35:24Z</time>
      </trkpt>
      <trkpt lat="45.90467" lon="6.14553">
        <ele>455</ele>
        <time>2011-08-01T11:35:28Z</time>
      </trkpt>
      <trkpt lat="45.90477" lon="6.14483">
        <ele>454</ele>
        <time>2011-08-01T11:35:38Z</time>
      </trkpt>
      <trkpt lat="45.90483" lon="6.14458">
        <ele>454</ele>
        <time>2011-08-01T11:35:42Z</time>
      </trkpt>
      <trkpt lat="45.90491" lon="6.1443">
        <ele>453</ele>
        <time>2011-08-01T11:35:46Z</time>
      </trkpt>
      <trkpt lat="45.90506" lon="6.14363">
        <ele>453</ele>
        <time>2011-08-01T11:35:55Z</time>
      </trkpt>
      <trkpt lat="45.9051" lon="6.14346">
        <ele>453</ele>
        <time>2011-08-01T11:35:59Z</time>
      </trkpt>
      <trkpt lat="45.90512" lon="6.14322">
        <ele>452</ele>
        <time>2011-08-01T11:36:03Z</time>
      </trkpt>
      <trkpt lat="45.90512" lon="6.14307">
        <ele>452</ele>
        <time>2011-08-01T11:36:05Z</time>
      </trkpt>
      <trkpt lat="45.90503" lon="6.14235">
        <ele>451</ele>
        <time>2011-08-01T11:36:14Z</time>
      </trkpt>
      <trkpt lat="45.905" lon="6.14221">
        <ele>451</ele>
        <time>2011-08-01T11:36:16Z</time>
      </trkpt>
      <trkpt lat="45.90494" lon="6.14198">
        <ele>451</ele>
        <time>2011-08-01T11:36:19Z</time>
      </trkpt>
      <trkpt lat="45.90486" lon="6.14168">
        <ele>451</ele>
        <time>2011-08-01T11:36:23Z</time>
      </trkpt>
      <trkpt lat="45.90474" lon="6.14122">
        <ele>452</ele>
        <time>2011-08-01T11:36:30Z</time>
      </trkpt>
      <trkpt lat="45.90471" lon="6.1411">
        <ele>452</ele>
        <time>2011-08-01T11:36:32Z</time>
      </trkpt>
      <trkpt lat="45.90462" lon="6.14081">
        <ele>452</ele>
        <time>2011-08-01T11:36:36Z</time>
      </trkpt>
      <trkpt lat="45.90458" lon="6.14052">
        <ele>452</ele>
        <time>2011-08-01T11:36:40Z</time>
      </trkpt>
      <trkpt lat="45.90445" lon="6.13996">
        <ele>455</ele>
        <time>2011-08-01T11:36:47Z</time>
      </trkpt>
      <trkpt lat="45.90436" lon="6.13959">
        <ele>455</ele>
        <time>2011-08-01T11:36:52Z</time>
      </trkpt>
      <trkpt lat="45.90427" lon="6.13923">
        <ele>458</ele>
        <time>2011-08-01T11:36:57Z</time>
      </trkpt>
      <trkpt lat="45.90424" lon="6.13911">
        <ele>459</ele>
        <time>2011-08-01T11:36:59Z</time>
      </trkpt>
      <trkpt lat="45.9041" lon="6.13883">
        <ele>456</ele>
        <time>2011-08-01T11:37:04Z</time>
      </trkpt>
      <trkpt lat="45.90408" lon="6.13875">
        <ele>456</ele>
        <time>2011-08-01T11:37:05Z</time>
      </trkpt>
      <trkpt lat="45.90403" lon="6.1386">
        <ele>456</ele>
        <time>2011-08-01T11:37:07Z</time>
      </trkpt>
      <trkpt lat="45.90395" lon="6.13815">
        <ele>455</ele>
        <time>2011-08-01T11:37:13Z</time>
      </trkpt>
      <trkpt lat="45.90392" lon="6.13801">
        <ele>455</ele>
        <time>2011-08-01T11:37:15Z</time>
      </trkpt>
      <trkpt lat="45.90383" lon="6.13759">
        <ele>454</ele>
        <time>2011-08-01T11:37:21Z</time>
      </trkpt>
      <trkpt lat="45.90371" lon="6.13712">
        <ele>452</ele>
        <time>2011-08-01T11:37:27Z</time>
      </trkpt>
      <trkpt lat="45.90359" lon="6.13661">
        <ele>452</ele>
        <time>2011-08-01T11:37:34Z</time>
      </trkpt>
      <trkpt lat="45.90351" lon="6.13636">
        <ele>453</ele>
        <time>2011-08-01T11:37:38Z</time>
      </trkpt>
      <trkpt lat="45.90339" lon="6.13612">
        <ele>454</ele>
        <time>2011-08-01T11:37:43Z</time>
      </trkpt>
      <trkpt lat="45.90331" lon="6.13584">
        <ele>456</ele>
        <time>2011-08-01T11:37:47Z</time>
      </trkpt>
      <trkpt lat="45.90324" lon="6.13562">
        <ele>455</ele>
        <time>2011-08-01T11:37:50Z</time>
      </trkpt>
      <trkpt lat="45.90321" lon="6.13547">
        <ele>455</ele>
        <time>2011-08-01T11:37:52Z</time>
      </trkpt>
      <trkpt lat="45.90321" lon="6.13531">
        <ele>455</ele>
        <time>2011-08-01T11:37:54Z</time>
      </trkpt>
      <trkpt lat="45.90316" lon="6.13505">
        <ele>455</ele>
        <time>2011-08-01T11:37:58Z</time>
      </trkpt>
      <trkpt lat="45.90301" lon="6.13447">
        <ele>455</ele>
        <time>2011-08-01T11:38:06Z</time>
      </trkpt>
      <trkpt lat="45.903" lon="6.13439">
        <ele>455</ele>
        <time>2011-08-01T11:38:07Z</time>
      </trkpt>
      <trkpt lat="45.90291" lon="6.1342">
        <ele>455</ele>
        <time>2011-08-01T11:38:10Z</time>
      </trkpt>
      <trkpt lat="45.90283" lon="6.13402">
        <ele>455</ele>
        <time>2011-08-01T11:38:13Z</time>
      </trkpt>
      <trkpt lat="45.90269" lon="6.13351">
        <ele>455</ele>
        <time>2011-08-01T11:38:21Z</time>
      </trkpt>
      <trkpt lat="45.90266" lon="6.13344">
        <ele>455</ele>
        <time>2011-08-01T11:38:22Z</time>
      </trkpt>
      <trkpt lat="45.90249" lon="6.13286">
        <ele>454</ele>
        <time>2011-08-01T11:38:30Z</time>
      </trkpt>
      <trkpt lat="45.90236" lon="6.13246">
        <ele>455</ele>
        <time>2011-08-01T11:38:35Z</time>
      </trkpt>
      <trkpt lat="45.90219" lon="6.13181">
        <ele>453</ele>
        <time>2011-08-01T11:38:43Z</time>
      </trkpt>
      <trkpt lat="45.90205" lon="6.13127">
        <ele>451</ele>
        <time>2011-08-01T11:38:50Z</time>
      </trkpt>
      <trkpt lat="45.902" lon="6.13105">
        <ele>450</ele>
        <time>2011-08-01T11:38:53Z</time>
      </trkpt>
      <trkpt lat="45.90191" lon="6.1306">
        <ele>449</ele>
        <time>2011-08-01T11:38:59Z</time>
      </trkpt>
      <trkpt lat="45.90179" lon="6.13016">
        <ele>449</ele>
        <time>2011-08-01T11:39:05Z</time>
      </trkpt>
      <trkpt lat="45.90165" lon="6.12963">
        <ele>450</ele>
        <time>2011-08-01T11:39:12Z</time>
      </trkpt>
      <trkpt lat="45.90163" lon="6.12955">
        <ele>450</ele>
        <time>2011-08-01T11:39:13Z</time>
      </trkpt>
      <trkpt lat="45.9015" lon="6.12904">
        <ele>453</ele>
        <time>2011-08-01T11:39:20Z</time>
      </trkpt>
      <trkpt lat="45.90137" lon="6.12863">
        <ele>454</ele>
        <time>2011-08-01T11:39:26Z</time>
      </trkpt>
      <trkpt lat="45.90129" lon="6.12837">
        <ele>454</ele>
        <time>2011-08-01T11:39:30Z</time>
      </trkpt>
      <trkpt lat="45.90136" lon="6.12815">
        <ele>455</ele>
        <time>2011-08-01T11:39:35Z</time>
      </trkpt>
      <trkpt lat="45.90144" lon="6.12803">
        <ele>456</ele>
        <time>2011-08-01T11:39:40Z</time>
      </trkpt>
      <trkpt lat="45.90134" lon="6.1277">
        <ele>456</ele>
        <time>2011-08-01T11:39:47Z</time>
      </trkpt>
      <trkpt lat="45.90125" lon="6.12749">
        <ele>456</ele>
        <time>2011-08-01T11:39:52Z</time>
      </trkpt>
      <trkpt lat="45.90115" lon="6.12737">
        <ele>456</ele>
        <time>2011-08-01T11:39:56Z</time>
      </trkpt>
      <trkpt lat="45.90106" lon="6.12738">
        <ele>455</ele>
        <time>2011-08-01T11:39:59Z</time>
      </trkpt>
      <trkpt lat="45.90103" lon="6.12743">
        <ele>455</ele>
        <time>2011-08-01T11:40:02Z</time>
      </trkpt>
      <trkpt lat="45.90091" lon="6.12753">
        <ele>454</ele>
        <time>2011-08-01T11:40:07Z</time>
      </trkpt>
      <trkpt lat="45.9008" lon="6.12769">
        <ele>455</ele>
        <time>2011-08-01T11:40:11Z</time>
      </trkpt>
      <trkpt lat="45.90073" lon="6.12782">
        <ele>455</ele>
        <time>2011-08-01T11:40:14Z</time>
      </trkpt>
      <trkpt lat="45.90065" lon="6.12788">
        <ele>455</ele>
        <time>2011-08-01T11:40:16Z</time>
      </trkpt>
      <trkpt lat="45.90026" lon="6.12801">
        <ele>455</ele>
        <time>2011-08-01T11:40:23Z</time>
      </trkpt>
      <trkpt lat="45.90019" lon="6.12806">
        <ele>455</ele>
        <time>2011-08-01T11:40:25Z</time>
      </trkpt>
      <trkpt lat="45.90002" lon="6.12818">
        <ele>455</ele>
        <time>2011-08-01T11:40:28Z</time>
      </trkpt>
      <trkpt lat="45.89992" lon="6.1283">
        <ele>455</ele>
        <time>2011-08-01T11:40:30Z</time>
      </trkpt>
      <trkpt lat="45.89943" lon="6.1285">
        <ele>453</ele>
        <time>2011-08-01T11:40:38Z</time>
      </trkpt>
      <trkpt lat="45.89905" lon="6.12865">
        <ele>452</ele>
        <time>2011-08-01T11:40:45Z</time>
      </trkpt>
      <trkpt lat="45.89864" lon="6.12889">
        <ele>452</ele>
        <time>2011-08-01T11:40:53Z</time>
      </trkpt>
      <trkpt lat="45.89857" lon="6.12891">
        <ele>452</ele>
        <time>2011-08-01T11:40:55Z</time>
      </trkpt>
      <trkpt lat="45.89851" lon="6.12894">
        <ele>452</ele>
        <time>2011-08-01T11:41:00Z</time>
      </trkpt>
      <trkpt lat="45.89853" lon="6.12903">
        <ele>451</ele>
        <time>2011-08-01T11:41:04Z</time>
      </trkpt>
      <trkpt lat="45.89852" lon="6.12924">
        <ele>451</ele>
        <time>2011-08-01T11:41:09Z</time>
      </trkpt>
      <trkpt lat="45.89847" lon="6.12942">
        <ele>452</ele>
        <time>2011-08-01T11:41:13Z</time>
      </trkpt>
      <trkpt lat="45.89844" lon="6.12976">
        <ele>452</ele>
        <time>2011-08-01T11:41:19Z</time>
      </trkpt>
      <trkpt lat="45.89847" lon="6.1301">
        <ele>452</ele>
        <time>2011-08-01T11:41:25Z</time>
      </trkpt>
      <trkpt lat="45.89847" lon="6.13027">
        <ele>452</ele>
        <time>2011-08-01T11:41:28Z</time>
      </trkpt>
      <trkpt lat="45.89847" lon="6.1305">
        <ele>452</ele>
        <time>2011-08-01T11:41:32Z</time>
      </trkpt>
      <trkpt lat="45.89847" lon="6.13089">
        <ele>451</ele>
        <time>2011-08-01T11:41:39Z</time>
      </trkpt>
      <trkpt lat="45.89849" lon="6.13113">
        <ele>451</ele>
        <time>2011-08-01T11:41:44Z</time>
      </trkpt>
      <trkpt lat="45.89852" lon="6.1313">
        <ele>451</ele>
        <time>2011-08-01T11:41:48Z</time>
      </trkpt>
      <trkpt lat="45.89855" lon="6.13136">
        <ele>451</ele>
        <time>2011-08-01T11:41:50Z</time>
      </trkpt>
      <trkpt lat="45.89846" lon="6.13155">
        <ele>451</ele>
        <time>2011-08-01T12:02:34Z</time>
      </trkpt>
      <trkpt lat="45.89849" lon="6.13146">
        <ele>451</ele>
        <time>2011-08-01T12:02:40Z</time>
      </trkpt>
      <trkpt lat="45.89845" lon="6.13125">
        <ele>451</ele>
        <time>2011-08-01T12:02:45Z</time>
      </trkpt>
      <trkpt lat="45.89849" lon="6.1311">
        <ele>451</ele>
        <time>2011-08-01T12:02:49Z</time>
      </trkpt>
      <trkpt lat="45.89854" lon="6.13089">
        <ele>451</ele>
        <time>2011-08-01T12:02:54Z</time>
      </trkpt>
      <trkpt lat="45.89855" lon="6.13074">
        <ele>452</ele>
        <time>2011-08-01T12:02:58Z</time>
      </trkpt>
      <trkpt lat="45.8985" lon="6.13057">
        <ele>452</ele>
        <time>2011-08-01T12:03:02Z</time>
      </trkpt>
      <trkpt lat="45.89846" lon="6.13026">
        <ele>452</ele>
        <time>2011-08-01T12:03:07Z</time>
      </trkpt>
      <trkpt lat="45.89842" lon="6.13004">
        <ele>452</ele>
        <time>2011-08-01T12:03:11Z</time>
      </trkpt>
      <trkpt lat="45.8984" lon="6.12974">
        <ele>452</ele>
        <time>2011-08-01T12:03:17Z</time>
      </trkpt>
      <trkpt lat="45.89842" lon="6.12947">
        <ele>452</ele>
        <time>2011-08-01T12:03:22Z</time>
      </trkpt>
      <trkpt lat="45.8984" lon="6.1292">
        <ele>451</ele>
        <time>2011-08-01T12:03:28Z</time>
      </trkpt>
      <trkpt lat="45.89838" lon="6.12913">
        <ele>451</ele>
        <time>2011-08-01T12:03:31Z</time>
      </trkpt>
      <trkpt lat="45.89838" lon="6.12906">
        <ele>451</ele>
        <time>2011-08-01T12:03:37Z</time>
      </trkpt>
      <trkpt lat="45.8983" lon="6.12897">
        <ele>453</ele>
        <time>2011-08-01T12:03:40Z</time>
      </trkpt>
      <trkpt lat="45.89825" lon="6.12896">
        <ele>453</ele>
        <time>2011-08-01T12:03:41Z</time>
      </trkpt>
      <trkpt lat="45.89799" lon="6.12901">
        <ele>455</ele>
        <time>2011-08-01T12:03:47Z</time>
      </trkpt>
      <trkpt lat="45.89795" lon="6.12904">
        <ele>455</ele>
        <time>2011-08-01T12:03:48Z</time>
      </trkpt>
      <trkpt lat="45.8978" lon="6.12928">
        <ele>455</ele>
        <time>2011-08-01T12:03:53Z</time>
      </trkpt>
      <trkpt lat="45.89772" lon="6.12985">
        <ele>455</ele>
        <time>2011-08-01T12:04:01Z</time>
      </trkpt>
      <trkpt lat="45.89769" lon="6.1303">
        <ele>453</ele>
        <time>2011-08-01T12:04:07Z</time>
      </trkpt>
      <trkpt lat="45.89767" lon="6.13043">
        <ele>453</ele>
        <time>2011-08-01T12:04:09Z</time>
      </trkpt>
      <trkpt lat="45.89753" lon="6.13082">
        <ele>453</ele>
        <time>2011-08-01T12:04:15Z</time>
      </trkpt>
      <trkpt lat="45.89748" lon="6.13095">
        <ele>452</ele>
        <time>2011-08-01T12:04:17Z</time>
      </trkpt>
      <trkpt lat="45.89742" lon="6.13104">
        <ele>452</ele>
        <time>2011-08-01T12:04:19Z</time>
      </trkpt>
      <trkpt lat="45.8973" lon="6.13117">
        <ele>451</ele>
        <time>2011-08-01T12:04:22Z</time>
      </trkpt>
      <trkpt lat="45.89716" lon="6.13133">
        <ele>451</ele>
        <time>2011-08-01T12:04:26Z</time>
      </trkpt>
      <trkpt lat="45.89691" lon="6.1315">
        <ele>451</ele>
        <time>2011-08-01T12:04:32Z</time>
      </trkpt>
      <trkpt lat="45.89688" lon="6.13152">
        <ele>451</ele>
        <time>2011-08-01T12:04:33Z</time>
      </trkpt>
      <trkpt lat="45.89671" lon="6.13151">
        <ele>452</ele>
        <time>2011-08-01T12:04:39Z</time>
      </trkpt>
      <trkpt lat="45.89659" lon="6.13137">
        <ele>454</ele>
        <time>2011-08-01T12:04:43Z</time>
      </trkpt>
      <trkpt lat="45.89638" lon="6.13104">
        <ele>454</ele>
        <time>2011-08-01T12:04:51Z</time>
      </trkpt>
      <trkpt lat="45.89617" lon="6.1307">
        <ele>457</ele>
        <time>2011-08-01T12:05:00Z</time>
      </trkpt>
      <trkpt lat="45.89594" lon="6.13041">
        <ele>459</ele>
        <time>2011-08-01T12:05:09Z</time>
      </trkpt>
      <trkpt lat="45.89573" lon="6.13016">
        <ele>466</ele>
        <time>2011-08-01T12:05:17Z</time>
      </trkpt>
      <trkpt lat="45.89563" lon="6.13001">
        <ele>467</ele>
        <time>2011-08-01T12:05:23Z</time>
      </trkpt>
      <trkpt lat="45.8955" lon="6.12982">
        <ele>470</ele>
        <time>2011-08-01T12:05:29Z</time>
      </trkpt>
      <trkpt lat="45.89537" lon="6.12962">
        <ele>471</ele>
        <time>2011-08-01T12:05:36Z</time>
      </trkpt>
      <trkpt lat="45.89521" lon="6.12941">
        <ele>472</ele>
        <time>2011-08-01T12:05:45Z</time>
      </trkpt>
      <trkpt lat="45.89505" lon="6.1293">
        <ele>472</ele>
        <time>2011-08-01T12:05:52Z</time>
      </trkpt>
      <trkpt lat="45.89499" lon="6.12928">
        <ele>474</ele>
        <time>2011-08-01T12:05:57Z</time>
      </trkpt>
      <trkpt lat="45.89499" lon="6.1293">
        <ele>474</ele>
        <time>2011-08-01T12:06:01Z</time>
      </trkpt>
      <trkpt lat="45.89501" lon="6.12936">
        <ele>472</ele>
        <time>2011-08-01T12:06:09Z</time>
      </trkpt>
      <trkpt lat="45.89503" lon="6.12943">
        <ele>472</ele>
        <time>2011-08-01T12:06:14Z</time>
      </trkpt>
      <trkpt lat="45.89504" lon="6.12945">
        <ele>472</ele>
        <time>2011-08-01T12:06:23Z</time>
      </trkpt>
      <trkpt lat="45.89499" lon="6.12935">
        <ele>475</ele>
        <time>2011-08-01T12:06:34Z</time>
      </trkpt>
      <trkpt lat="45.89496" lon="6.12927">
        <ele>474</ele>
        <time>2011-08-01T12:07:19Z</time>
      </trkpt>
      <trkpt lat="45.89494" lon="6.12927">
        <ele>474</ele>
        <time>2011-08-01T12:07:25Z</time>
      </trkpt>
      <trkpt lat="45.89492" lon="6.12927">
        <ele>474</ele>
        <time>2011-08-01T12:07:26Z</time>
      </trkpt>
      <trkpt lat="45.89478" lon="6.12933">
        <ele>476</ele>
        <time>2011-08-01T12:07:33Z</time>
      </trkpt>
      <trkpt lat="45.89467" lon="6.12943">
        <ele>476</ele>
        <time>2011-08-01T12:07:38Z</time>
      </trkpt>
      <trkpt lat="45.89455" lon="6.12953">
        <ele>477</ele>
        <time>2011-08-01T12:07:43Z</time>
      </trkpt>
      <trkpt lat="45.89436" lon="6.12976">
        <ele>478</ele>
        <time>2011-08-01T12:07:52Z</time>
      </trkpt>
      <trkpt lat="45.89424" lon="6.12984">
        <ele>479</ele>
        <time>2011-08-01T12:07:58Z</time>
      </trkpt>
      <trkpt lat="45.89421" lon="6.12986">
        <ele>479</ele>
        <time>2011-08-01T12:08:00Z</time>
      </trkpt>
      <trkpt lat="45.89408" lon="6.12984">
        <ele>485</ele>
        <time>2011-08-01T12:08:06Z</time>
      </trkpt>
      <trkpt lat="45.89393" lon="6.13005">
        <ele>487</ele>
        <time>2011-08-01T12:08:13Z</time>
      </trkpt>
      <trkpt lat="45.89381" lon="6.13035">
        <ele>489</ele>
        <time>2011-08-01T12:08:20Z</time>
      </trkpt>
      <trkpt lat="45.89376" lon="6.13067">
        <ele>490</ele>
        <time>2011-08-01T12:08:26Z</time>
      </trkpt>
      <trkpt lat="45.89375" lon="6.13102">
        <ele>488</ele>
        <time>2011-08-01T12:08:32Z</time>
      </trkpt>
      <trkpt lat="45.89375" lon="6.13138">
        <ele>487</ele>
        <time>2011-08-01T12:08:38Z</time>
      </trkpt>
      <trkpt lat="45.89362" lon="6.13177">
        <ele>484</ele>
        <time>2011-08-01T12:08:45Z</time>
      </trkpt>
      <trkpt lat="45.89349" lon="6.13208">
        <ele>483</ele>
        <time>2011-08-01T12:08:51Z</time>
      </trkpt>
      <trkpt lat="45.89332" lon="6.13242">
        <ele>489</ele>
        <time>2011-08-01T12:08:58Z</time>
      </trkpt>
      <trkpt lat="45.89317" lon="6.13276">
        <ele>491</ele>
        <time>2011-08-01T12:09:06Z</time>
      </trkpt>
      <trkpt lat="45.89302" lon="6.133">
        <ele>492</ele>
        <time>2011-08-01T12:09:13Z</time>
      </trkpt>
      <trkpt lat="45.89292" lon="6.13318">
        <ele>493</ele>
        <time>2011-08-01T12:09:18Z</time>
      </trkpt>
      <trkpt lat="45.89278" lon="6.13352">
        <ele>490</ele>
        <time>2011-08-01T12:09:26Z</time>
      </trkpt>
      <trkpt lat="45.8926" lon="6.13377">
        <ele>489</ele>
        <time>2011-08-01T12:09:33Z</time>
      </trkpt>
      <trkpt lat="45.89243" lon="6.13401">
        <ele>495</ele>
        <time>2011-08-01T12:09:40Z</time>
      </trkpt>
      <trkpt lat="45.89223" lon="6.13414">
        <ele>497</ele>
        <time>2011-08-01T12:09:46Z</time>
      </trkpt>
      <trkpt lat="45.89208" lon="6.13428">
        <ele>493</ele>
        <time>2011-08-01T12:09:52Z</time>
      </trkpt>
      <trkpt lat="45.89189" lon="6.13443">
        <ele>494</ele>
        <time>2011-08-01T12:09:59Z</time>
      </trkpt>
      <trkpt lat="45.89177" lon="6.13449">
        <ele>494</ele>
        <time>2011-08-01T12:10:04Z</time>
      </trkpt>
      <trkpt lat="45.89156" lon="6.13448">
        <ele>503</ele>
        <time>2011-08-01T12:10:10Z</time>
      </trkpt>
      <trkpt lat="45.89137" lon="6.13436">
        <ele>505</ele>
        <time>2011-08-01T12:10:16Z</time>
      </trkpt>
      <trkpt lat="45.89122" lon="6.13424">
        <ele>506</ele>
        <time>2011-08-01T12:10:22Z</time>
      </trkpt>
      <trkpt lat="45.89098" lon="6.13411">
        <ele>514</ele>
        <time>2011-08-01T12:10:30Z</time>
      </trkpt>
      <trkpt lat="45.89086" lon="6.13396">
        <ele>514</ele>
        <time>2011-08-01T12:10:36Z</time>
      </trkpt>
      <trkpt lat="45.89082" lon="6.1339">
        <ele>524</ele>
        <time>2011-08-01T12:10:38Z</time>
      </trkpt>
      <trkpt lat="45.89078" lon="6.13375">
        <ele>525</ele>
        <time>2011-08-01T12:10:42Z</time>
      </trkpt>
      <trkpt lat="45.89082" lon="6.13352">
        <ele>524</ele>
        <time>2011-08-01T12:10:48Z</time>
      </trkpt>
      <trkpt lat="45.89089" lon="6.13337">
        <ele>517</ele>
        <time>2011-08-01T12:10:53Z</time>
      </trkpt>
      <trkpt lat="45.89103" lon="6.13326">
        <ele>518</ele>
        <time>2011-08-01T12:11:00Z</time>
      </trkpt>
      <trkpt lat="45.89117" lon="6.13318">
        <ele>517</ele>
        <time>2011-08-01T12:11:07Z</time>
      </trkpt>
      <trkpt lat="45.89136" lon="6.13309">
        <ele>516</ele>
        <time>2011-08-01T12:11:15Z</time>
      </trkpt>
      <trkpt lat="45.89147" lon="6.13293">
        <ele>516</ele>
        <time>2011-08-01T12:11:22Z</time>
      </trkpt>
      <trkpt lat="45.89152" lon="6.1327">
        <ele>516</ele>
        <time>2011-08-01T12:11:29Z</time>
      </trkpt>
      <trkpt lat="45.89149" lon="6.13252">
        <ele>517</ele>
        <time>2011-08-01T12:11:35Z</time>
      </trkpt>
      <trkpt lat="45.89142" lon="6.13241">
        <ele>521</ele>
        <time>2011-08-01T12:11:40Z</time>
      </trkpt>
      <trkpt lat="45.89127" lon="6.13233">
        <ele>523</ele>
        <time>2011-08-01T12:11:46Z</time>
      </trkpt>
      <trkpt lat="45.89107" lon="6.13231">
        <ele>523</ele>
        <time>2011-08-01T12:11:53Z</time>
      </trkpt>
      <trkpt lat="45.89085" lon="6.1323">
        <ele>523</ele>
        <time>2011-08-01T12:12:01Z</time>
      </trkpt>
      <trkpt lat="45.89063" lon="6.1323">
        <ele>533</ele>
        <time>2011-08-01T12:12:09Z</time>
      </trkpt>
      <trkpt lat="45.89046" lon="6.13231">
        <ele>536</ele>
        <time>2011-08-01T12:12:16Z</time>
      </trkpt>
      <trkpt lat="45.89034" lon="6.13238">
        <ele>538</ele>
        <time>2011-08-01T12:12:21Z</time>
      </trkpt>
      <trkpt lat="45.89024" lon="6.13249">
        <ele>541</ele>
        <time>2011-08-01T12:12:26Z</time>
      </trkpt>
      <trkpt lat="45.89012" lon="6.13261">
        <ele>542</ele>
        <time>2011-08-01T12:12:31Z</time>
      </trkpt>
      <trkpt lat="45.89003" lon="6.13275">
        <ele>540</ele>
        <time>2011-08-01T12:12:36Z</time>
      </trkpt>
      <trkpt lat="45.89001" lon="6.133">
        <ele>539</ele>
        <time>2011-08-01T12:12:43Z</time>
      </trkpt>
      <trkpt lat="45.89001" lon="6.13327">
        <ele>543</ele>
        <time>2011-08-01T12:12:50Z</time>
      </trkpt>
      <trkpt lat="45.88997" lon="6.1335">
        <ele>548</ele>
        <time>2011-08-01T12:12:56Z</time>
      </trkpt>
      <trkpt lat="45.88987" lon="6.1337">
        <ele>549</ele>
        <time>2011-08-01T12:13:02Z</time>
      </trkpt>
      <trkpt lat="45.88976" lon="6.13388">
        <ele>549</ele>
        <time>2011-08-01T12:13:08Z</time>
      </trkpt>
      <trkpt lat="45.88967" lon="6.13402">
        <ele>549</ele>
        <time>2011-08-01T12:13:12Z</time>
      </trkpt>
      <trkpt lat="45.88958" lon="6.13422">
        <ele>542</ele>
        <time>2011-08-01T12:13:18Z</time>
      </trkpt>
      <trkpt lat="45.88945" lon="6.13439">
        <ele>543</ele>
        <time>2011-08-01T12:13:24Z</time>
      </trkpt>
      <trkpt lat="45.88935" lon="6.13454">
        <ele>542</ele>
        <time>2011-08-01T12:13:30Z</time>
      </trkpt>
      <trkpt lat="45.8892" lon="6.13468">
        <ele>543</ele>
        <time>2011-08-01T12:13:38Z</time>
      </trkpt>
      <trkpt lat="45.88905" lon="6.13473">
        <ele>555</ele>
        <time>2011-08-01T12:13:45Z</time>
      </trkpt>
      <trkpt lat="45.88898" lon="6.13472">
        <ele>556</ele>
        <time>2011-08-01T12:13:50Z</time>
      </trkpt>
      <trkpt lat="45.8889" lon="6.13465">
        <ele>557</ele>
        <time>2011-08-01T12:13:55Z</time>
      </trkpt>
      <trkpt lat="45.88878" lon="6.13466">
        <ele>559</ele>
        <time>2011-08-01T12:14:02Z</time>
      </trkpt>
      <trkpt lat="45.88871" lon="6.13469">
        <ele>560</ele>
        <time>2011-08-01T12:14:07Z</time>
      </trkpt>
      <trkpt lat="45.88869" lon="6.13474">
        <ele>560</ele>
        <time>2011-08-01T12:14:10Z</time>
      </trkpt>
      <trkpt lat="45.88861" lon="6.1348">
        <ele>561</ele>
        <time>2011-08-01T12:14:16Z</time>
      </trkpt>
      <trkpt lat="45.88847" lon="6.13489">
        <ele>562</ele>
        <time>2011-08-01T12:14:23Z</time>
      </trkpt>
      <trkpt lat="45.88831" lon="6.13498">
        <ele>566</ele>
        <time>2011-08-01T12:14:30Z</time>
      </trkpt>
      <trkpt lat="45.88818" lon="6.13507">
        <ele>565</ele>
        <time>2011-08-01T12:14:36Z</time>
      </trkpt>
      <trkpt lat="45.88803" lon="6.13517">
        <ele>566</ele>
        <time>2011-08-01T12:14:43Z</time>
      </trkpt>
      <trkpt lat="45.88792" lon="6.13521">
        <ele>567</ele>
        <time>2011-08-01T12:14:48Z</time>
      </trkpt>
      <trkpt lat="45.88785" lon="6.13517">
        <ele>568</ele>
        <time>2011-08-01T12:14:53Z</time>
      </trkpt>
      <trkpt lat="45.88779" lon="6.13514">
        <ele>570</ele>
        <time>2011-08-01T12:14:58Z</time>
      </trkpt>
      <trkpt lat="45.88767" lon="6.1351">
        <ele>573</ele>
        <time>2011-08-01T12:15:05Z</time>
      </trkpt>
      <trkpt lat="45.88754" lon="6.13506">
        <ele>578</ele>
        <time>2011-08-01T12:15:12Z</time>
      </trkpt>
      <trkpt lat="45.88745" lon="6.13505">
        <ele>581</ele>
        <time>2011-08-01T12:15:19Z</time>
      </trkpt>
      <trkpt lat="45.88739" lon="6.13509">
        <ele>581</ele>
        <time>2011-08-01T12:15:25Z</time>
      </trkpt>
      <trkpt lat="45.88733" lon="6.13512">
        <ele>581</ele>
        <time>2011-08-01T12:15:32Z</time>
      </trkpt>
      <trkpt lat="45.88726" lon="6.13511">
        <ele>581</ele>
        <time>2011-08-01T12:15:36Z</time>
      </trkpt>
      <trkpt lat="45.88714" lon="6.1351">
        <ele>582</ele>
        <time>2011-08-01T12:15:45Z</time>
      </trkpt>
      <trkpt lat="45.88707" lon="6.13512">
        <ele>582</ele>
        <time>2011-08-01T12:15:50Z</time>
      </trkpt>
      <trkpt lat="45.8871" lon="6.13519">
        <ele>581</ele>
        <time>2011-08-01T12:16:01Z</time>
      </trkpt>
      <trkpt lat="45.88707" lon="6.13518">
        <ele>582</ele>
        <time>2011-08-01T12:16:16Z</time>
      </trkpt>
      <trkpt lat="45.88699" lon="6.13514">
        <ele>583</ele>
        <time>2011-08-01T12:16:22Z</time>
      </trkpt>
      <trkpt lat="45.88689" lon="6.13516">
        <ele>584</ele>
        <time>2011-08-01T12:16:28Z</time>
      </trkpt>
      <trkpt lat="45.88685" lon="6.13518">
        <ele>584</ele>
        <time>2011-08-01T12:16:31Z</time>
      </trkpt>
      <trkpt lat="45.88677" lon="6.13518">
        <ele>585</ele>
        <time>2011-08-01T12:16:37Z</time>
      </trkpt>
      <trkpt lat="45.88664" lon="6.13515">
        <ele>591</ele>
        <time>2011-08-01T12:16:45Z</time>
      </trkpt>
      <trkpt lat="45.88659" lon="6.13513">
        <ele>592</ele>
        <time>2011-08-01T12:16:50Z</time>
      </trkpt>
      <trkpt lat="45.88656" lon="6.13512">
        <ele>592</ele>
        <time>2011-08-01T12:16:54Z</time>
      </trkpt>
      <trkpt lat="45.8865" lon="6.1351">
        <ele>592</ele>
        <time>2011-08-01T12:17:00Z</time>
      </trkpt>
      <trkpt lat="45.88642" lon="6.13507">
        <ele>592</ele>
        <time>2011-08-01T12:17:08Z</time>
      </trkpt>
      <trkpt lat="45.88637" lon="6.13504">
        <ele>592</ele>
        <time>2011-08-01T12:17:12Z</time>
      </trkpt>
      <trkpt lat="45.8863" lon="6.13499">
        <ele>605</ele>
        <time>2011-08-01T12:17:20Z</time>
      </trkpt>
      <trkpt lat="45.88627" lon="6.13496">
        <ele>606</ele>
        <time>2011-08-01T12:17:24Z</time>
      </trkpt>
      <trkpt lat="45.88618" lon="6.1349">
        <ele>607</ele>
        <time>2011-08-01T12:17:31Z</time>
      </trkpt>
      <trkpt lat="45.88616" lon="6.13487">
        <ele>607</ele>
        <time>2011-08-01T12:17:34Z</time>
      </trkpt>
      <trkpt lat="45.88609" lon="6.13485">
        <ele>608</ele>
        <time>2011-08-01T12:17:39Z</time>
      </trkpt>
      <trkpt lat="45.88604" lon="6.13481">
        <ele>608</ele>
        <time>2011-08-01T12:17:43Z</time>
      </trkpt>
      <trkpt lat="45.88603" lon="6.13477">
        <ele>608</ele>
        <time>2011-08-01T12:17:48Z</time>
      </trkpt>
      <trkpt lat="45.88598" lon="6.13469">
        <ele>610</ele>
        <time>2011-08-01T12:17:55Z</time>
      </trkpt>
      <trkpt lat="45.88597" lon="6.13465">
        <ele>610</ele>
        <time>2011-08-01T12:18:02Z</time>
      </trkpt>
      <trkpt lat="45.88593" lon="6.13459">
        <ele>611</ele>
        <time>2011-08-01T12:18:10Z</time>
      </trkpt>
      <trkpt lat="45.88588" lon="6.13452">
        <ele>613</ele>
        <time>2011-08-01T12:18:16Z</time>
      </trkpt>
      <trkpt lat="45.88583" lon="6.13445">
        <ele>620</ele>
        <time>2011-08-01T12:18:20Z</time>
      </trkpt>
      <trkpt lat="45.88578" lon="6.13439">
        <ele>621</ele>
        <time>2011-08-01T12:18:26Z</time>
      </trkpt>
      <trkpt lat="45.88577" lon="6.13438">
        <ele>621</ele>
        <time>2011-08-01T12:18:29Z</time>
      </trkpt>
      <trkpt lat="45.88576" lon="6.13435">
        <ele>621</ele>
        <time>2011-08-01T12:18:33Z</time>
      </trkpt>
      <trkpt lat="45.88572" lon="6.1343">
        <ele>622</ele>
        <time>2011-08-01T12:18:40Z</time>
      </trkpt>
      <trkpt lat="45.8857" lon="6.13425">
        <ele>622</ele>
        <time>2011-08-01T12:18:45Z</time>
      </trkpt>
      <trkpt lat="45.88567" lon="6.13418">
        <ele>623</ele>
        <time>2011-08-01T12:18:52Z</time>
      </trkpt>
      <trkpt lat="45.88563" lon="6.13416">
        <ele>631</ele>
        <time>2011-08-01T12:18:55Z</time>
      </trkpt>
      <trkpt lat="45.8856" lon="6.13411">
        <ele>632</ele>
        <time>2011-08-01T12:19:01Z</time>
      </trkpt>
      <trkpt lat="45.88557" lon="6.1341">
        <ele>632</ele>
        <time>2011-08-01T12:19:10Z</time>
      </trkpt>
      <trkpt lat="45.88552" lon="6.13409">
        <ele>633</ele>
        <time>2011-08-01T12:19:16Z</time>
      </trkpt>
      <trkpt lat="45.88544" lon="6.1341">
        <ele>634</ele>
        <time>2011-08-01T12:19:24Z</time>
      </trkpt>
      <trkpt lat="45.88541" lon="6.13408">
        <ele>634</ele>
        <time>2011-08-01T12:19:28Z</time>
      </trkpt>
      <trkpt lat="45.88538" lon="6.13406">
        <ele>634</ele>
        <time>2011-08-01T12:19:34Z</time>
      </trkpt>
      <trkpt lat="45.88528" lon="6.13409">
        <ele>635</ele>
        <time>2011-08-01T12:19:40Z</time>
      </trkpt>
      <trkpt lat="45.88519" lon="6.13409">
        <ele>635</ele>
        <time>2011-08-01T12:19:46Z</time>
      </trkpt>
      <trkpt lat="45.88513" lon="6.13405">
        <ele>635</ele>
        <time>2011-08-01T12:19:52Z</time>
      </trkpt>
      <trkpt lat="45.88509" lon="6.13402">
        <ele>636</ele>
        <time>2011-08-01T12:19:58Z</time>
      </trkpt>
      <trkpt lat="45.88506" lon="6.134">
        <ele>636</ele>
        <time>2011-08-01T12:20:03Z</time>
      </trkpt>
      <trkpt lat="45.88499" lon="6.13396">
        <ele>641</ele>
        <time>2011-08-01T12:20:10Z</time>
      </trkpt>
      <trkpt lat="45.88497" lon="6.13387">
        <ele>643</ele>
        <time>2011-08-01T12:20:17Z</time>
      </trkpt>
      <trkpt lat="45.88494" lon="6.13381">
        <ele>644</ele>
        <time>2011-08-01T12:20:21Z</time>
      </trkpt>
      <trkpt lat="45.88493" lon="6.13376">
        <ele>644</ele>
        <time>2011-08-01T12:20:26Z</time>
      </trkpt>
      <trkpt lat="45.88489" lon="6.13369">
        <ele>645</ele>
        <time>2011-08-01T12:20:31Z</time>
      </trkpt>
      <trkpt lat="45.88488" lon="6.13364">
        <ele>646</ele>
        <time>2011-08-01T12:20:34Z</time>
      </trkpt>
      <trkpt lat="45.88488" lon="6.13352">
        <ele>647</ele>
        <time>2011-08-01T12:20:42Z</time>
      </trkpt>
      <trkpt lat="45.88488" lon="6.13351">
        <ele>647</ele>
        <time>2011-08-01T12:20:43Z</time>
      </trkpt>
      <trkpt lat="45.88483" lon="6.13347">
        <ele>647</ele>
        <time>2011-08-01T12:20:52Z</time>
      </trkpt>
      <trkpt lat="45.88484" lon="6.13342">
        <ele>647</ele>
        <time>2011-08-01T12:20:59Z</time>
      </trkpt>
      <trkpt lat="45.88485" lon="6.13338">
        <ele>647</ele>
        <time>2011-08-01T12:21:04Z</time>
      </trkpt>
      <trkpt lat="45.88482" lon="6.13327">
        <ele>653</ele>
        <time>2011-08-01T12:21:09Z</time>
      </trkpt>
      <trkpt lat="45.88482" lon="6.1332">
        <ele>654</ele>
        <time>2011-08-01T12:21:13Z</time>
      </trkpt>
      <trkpt lat="45.88479" lon="6.13311">
        <ele>655</ele>
        <time>2011-08-01T12:21:18Z</time>
      </trkpt>
      <trkpt lat="45.88474" lon="6.13312">
        <ele>655</ele>
        <time>2011-08-01T12:21:24Z</time>
      </trkpt>
      <trkpt lat="45.88466" lon="6.13321">
        <ele>655</ele>
        <time>2011-08-01T12:21:30Z</time>
      </trkpt>
      <trkpt lat="45.88457" lon="6.13338">
        <ele>649</ele>
        <time>2011-08-01T12:21:34Z</time>
      </trkpt>
      <trkpt lat="45.88444" lon="6.13363">
        <ele>648</ele>
        <time>2011-08-01T12:21:40Z</time>
      </trkpt>
      <trkpt lat="45.88432" lon="6.13375">
        <ele>647</ele>
        <time>2011-08-01T12:21:45Z</time>
      </trkpt>
      <trkpt lat="45.88419" lon="6.13389">
        <ele>646</ele>
        <time>2011-08-01T12:21:51Z</time>
      </trkpt>
      <trkpt lat="45.88416" lon="6.13392">
        <ele>648</ele>
        <time>2011-08-01T12:21:53Z</time>
      </trkpt>
      <trkpt lat="45.88409" lon="6.13392">
        <ele>648</ele>
        <time>2011-08-01T12:21:59Z</time>
      </trkpt>
      <trkpt lat="45.88404" lon="6.13395">
        <ele>647</ele>
        <time>2011-08-01T12:22:02Z</time>
      </trkpt>
      <trkpt lat="45.88391" lon="6.13402">
        <ele>647</ele>
        <time>2011-08-01T12:22:09Z</time>
      </trkpt>
      <trkpt lat="45.88382" lon="6.13402">
        <ele>648</ele>
        <time>2011-08-01T12:22:15Z</time>
      </trkpt>
      <trkpt lat="45.88376" lon="6.13392">
        <ele>648</ele>
        <time>2011-08-01T12:22:21Z</time>
      </trkpt>
      <trkpt lat="45.88375" lon="6.13388">
        <ele>649</ele>
        <time>2011-08-01T12:22:23Z</time>
      </trkpt>
      <trkpt lat="45.88366" lon="6.13377">
        <ele>650</ele>
        <time>2011-08-01T12:22:30Z</time>
      </trkpt>
      <trkpt lat="45.88358" lon="6.13367">
        <ele>651</ele>
        <time>2011-08-01T12:22:37Z</time>
      </trkpt>
      <trkpt lat="45.88356" lon="6.1336">
        <ele>652</ele>
        <time>2011-08-01T12:22:42Z</time>
      </trkpt>
      <trkpt lat="45.88347" lon="6.13344">
        <ele>655</ele>
        <time>2011-08-01T12:22:51Z</time>
      </trkpt>
      <trkpt lat="45.88337" lon="6.13338">
        <ele>658</ele>
        <time>2011-08-01T12:22:56Z</time>
      </trkpt>
      <trkpt lat="45.88322" lon="6.1334">
        <ele>658</ele>
        <time>2011-08-01T12:23:01Z</time>
      </trkpt>
      <trkpt lat="45.88316" lon="6.13344">
        <ele>657</ele>
        <time>2011-08-01T12:23:03Z</time>
      </trkpt>
      <trkpt lat="45.88297" lon="6.13335">
        <ele>658</ele>
        <time>2011-08-01T12:23:09Z</time>
      </trkpt>
      <trkpt lat="45.88281" lon="6.13337">
        <ele>659</ele>
        <time>2011-08-01T12:23:13Z</time>
      </trkpt>
      <trkpt lat="45.88269" lon="6.13348">
        <ele>660</ele>
        <time>2011-08-01T12:23:16Z</time>
      </trkpt>
      <trkpt lat="45.88257" lon="6.13368">
        <ele>657</ele>
        <time>2011-08-01T12:23:20Z</time>
      </trkpt>
      <trkpt lat="45.88243" lon="6.13395">
        <ele>659</ele>
        <time>2011-08-01T12:23:26Z</time>
      </trkpt>
      <trkpt lat="45.8824" lon="6.13399">
        <ele>658</ele>
        <time>2011-08-01T12:23:27Z</time>
      </trkpt>
      <trkpt lat="45.88229" lon="6.13411">
        <ele>659</ele>
        <time>2011-08-01T12:23:30Z</time>
      </trkpt>
      <trkpt lat="45.88205" lon="6.13432">
        <ele>651</ele>
        <time>2011-08-01T12:23:36Z</time>
      </trkpt>
      <trkpt lat="45.88192" lon="6.13438">
        <ele>652</ele>
        <time>2011-08-01T12:23:39Z</time>
      </trkpt>
      <trkpt lat="45.88182" lon="6.13444">
        <ele>652</ele>
        <time>2011-08-01T12:23:45Z</time>
      </trkpt>
      <trkpt lat="45.88173" lon="6.13447">
        <ele>652</ele>
        <time>2011-08-01T12:23:50Z</time>
      </trkpt>
      <trkpt lat="45.88168" lon="6.13448">
        <ele>652</ele>
        <time>2011-08-01T12:23:54Z</time>
      </trkpt>
      <trkpt lat="45.88158" lon="6.13453">
        <ele>659</ele>
        <time>2011-08-01T12:24:02Z</time>
      </trkpt>
      <trkpt lat="45.88157" lon="6.13453">
        <ele>659</ele>
        <time>2011-08-01T12:24:03Z</time>
      </trkpt>
      <trkpt lat="45.88152" lon="6.13451">
        <ele>660</ele>
        <time>2011-08-01T12:24:10Z</time>
      </trkpt>
      <trkpt lat="45.88147" lon="6.13446">
        <ele>661</ele>
        <time>2011-08-01T12:24:16Z</time>
      </trkpt>
      <trkpt lat="45.88141" lon="6.13453">
        <ele>660</ele>
        <time>2011-08-01T12:24:30Z</time>
      </trkpt>
      <trkpt lat="45.88134" lon="6.13455">
        <ele>660</ele>
        <time>2011-08-01T12:25:14Z</time>
      </trkpt>
      <trkpt lat="45.88136" lon="6.13446">
        <ele>661</ele>
        <time>2011-08-01T12:25:20Z</time>
      </trkpt>
      <trkpt lat="45.88136" lon="6.13442">
        <ele>661</ele>
        <time>2011-08-01T12:25:32Z</time>
      </trkpt>
      <trkpt lat="45.88132" lon="6.13437">
        <ele>662</ele>
        <time>2011-08-01T12:25:38Z</time>
      </trkpt>
      <trkpt lat="45.88128" lon="6.13433">
        <ele>662</ele>
        <time>2011-08-01T12:25:43Z</time>
      </trkpt>
      <trkpt lat="45.88109" lon="6.13432">
        <ele>664</ele>
        <time>2011-08-01T12:25:51Z</time>
      </trkpt>
      <trkpt lat="45.88096" lon="6.13427">
        <ele>666</ele>
        <time>2011-08-01T12:25:56Z</time>
      </trkpt>
      <trkpt lat="45.8808" lon="6.13421">
        <ele>671</ele>
        <time>2011-08-01T12:26:03Z</time>
      </trkpt>
      <trkpt lat="45.88067" lon="6.13418">
        <ele>671</ele>
        <time>2011-08-01T12:26:10Z</time>
      </trkpt>
      <trkpt lat="45.88054" lon="6.13417">
        <ele>672</ele>
        <time>2011-08-01T12:26:17Z</time>
      </trkpt>
      <trkpt lat="45.88045" lon="6.13419">
        <ele>672</ele>
        <time>2011-08-01T12:26:22Z</time>
      </trkpt>
      <trkpt lat="45.88039" lon="6.13423">
        <ele>673</ele>
        <time>2011-08-01T12:26:29Z</time>
      </trkpt>
      <trkpt lat="45.88029" lon="6.13425">
        <ele>673</ele>
        <time>2011-08-01T12:26:36Z</time>
      </trkpt>
      <trkpt lat="45.88022" lon="6.13427">
        <ele>674</ele>
        <time>2011-08-01T12:26:43Z</time>
      </trkpt>
      <trkpt lat="45.88017" lon="6.13427">
        <ele>675</ele>
        <time>2011-08-01T12:26:50Z</time>
      </trkpt>
      <trkpt lat="45.88015" lon="6.13426">
        <ele>675</ele>
        <time>2011-08-01T12:26:54Z</time>
      </trkpt>
      <trkpt lat="45.88013" lon="6.13425">
        <ele>676</ele>
        <time>2011-08-01T12:26:58Z</time>
      </trkpt>
      <trkpt lat="45.88009" lon="6.13426">
        <ele>677</ele>
        <time>2011-08-01T12:27:05Z</time>
      </trkpt>
      <trkpt lat="45.88007" lon="6.13426">
        <ele>677</ele>
        <time>2011-08-01T12:27:07Z</time>
      </trkpt>
      <trkpt lat="45.88001" lon="6.13426">
        <ele>678</ele>
        <time>2011-08-01T12:27:14Z</time>
      </trkpt>
      <trkpt lat="45.87996" lon="6.13426">
        <ele>681</ele>
        <time>2011-08-01T12:27:20Z</time>
      </trkpt>
      <trkpt lat="45.8799" lon="6.13424">
        <ele>681</ele>
        <time>2011-08-01T12:27:27Z</time>
      </trkpt>
      <trkpt lat="45.87984" lon="6.13427">
        <ele>681</ele>
        <time>2011-08-01T12:27:34Z</time>
      </trkpt>
      <trkpt lat="45.87981" lon="6.13427">
        <ele>681</ele>
        <time>2011-08-01T12:27:38Z</time>
      </trkpt>
      <trkpt lat="45.87969" lon="6.13431">
        <ele>681</ele>
        <time>2011-08-01T12:27:45Z</time>
      </trkpt>
      <trkpt lat="45.87956" lon="6.13432">
        <ele>683</ele>
        <time>2011-08-01T12:27:52Z</time>
      </trkpt>
      <trkpt lat="45.87943" lon="6.13432">
        <ele>684</ele>
        <time>2011-08-01T12:27:59Z</time>
      </trkpt>
      <trkpt lat="45.87931" lon="6.13432">
        <ele>686</ele>
        <time>2011-08-01T12:28:05Z</time>
      </trkpt>
      <trkpt lat="45.8792" lon="6.13434">
        <ele>687</ele>
        <time>2011-08-01T12:28:12Z</time>
      </trkpt>
      <trkpt lat="45.87915" lon="6.13429">
        <ele>690</ele>
        <time>2011-08-01T12:28:17Z</time>
      </trkpt>
      <trkpt lat="45.87913" lon="6.13425">
        <ele>691</ele>
        <time>2011-08-01T12:28:20Z</time>
      </trkpt>
      <trkpt lat="45.87912" lon="6.13419">
        <ele>692</ele>
        <time>2011-08-01T12:28:24Z</time>
      </trkpt>
      <trkpt lat="45.87897" lon="6.13404">
        <ele>697</ele>
        <time>2011-08-01T12:28:33Z</time>
      </trkpt>
      <trkpt lat="45.87889" lon="6.13393">
        <ele>698</ele>
        <time>2011-08-01T12:28:40Z</time>
      </trkpt>
      <trkpt lat="45.87881" lon="6.13386">
        <ele>698</ele>
        <time>2011-08-01T12:28:46Z</time>
      </trkpt>
      <trkpt lat="45.87871" lon="6.13381">
        <ele>698</ele>
        <time>2011-08-01T12:28:52Z</time>
      </trkpt>
      <trkpt lat="45.8786" lon="6.13374">
        <ele>699</ele>
        <time>2011-08-01T12:28:58Z</time>
      </trkpt>
      <trkpt lat="45.87855" lon="6.13376">
        <ele>698</ele>
        <time>2011-08-01T12:29:01Z</time>
      </trkpt>
      <trkpt lat="45.87844" lon="6.13373">
        <ele>699</ele>
        <time>2011-08-01T12:29:07Z</time>
      </trkpt>
      <trkpt lat="45.87834" lon="6.13372">
        <ele>699</ele>
        <time>2011-08-01T12:29:11Z</time>
      </trkpt>
      <trkpt lat="45.87824" lon="6.13375">
        <ele>701</ele>
        <time>2011-08-01T12:29:18Z</time>
      </trkpt>
      <trkpt lat="45.8782" lon="6.13375">
        <ele>701</ele>
        <time>2011-08-01T12:29:20Z</time>
      </trkpt>
      <trkpt lat="45.87807" lon="6.13374">
        <ele>702</ele>
        <time>2011-08-01T12:29:27Z</time>
      </trkpt>
      <trkpt lat="45.878" lon="6.13376">
        <ele>702</ele>
        <time>2011-08-01T12:29:32Z</time>
      </trkpt>
      <trkpt lat="45.87788" lon="6.13374">
        <ele>703</ele>
        <time>2011-08-01T12:29:39Z</time>
      </trkpt>
      <trkpt lat="45.87784" lon="6.13374">
        <ele>703</ele>
        <time>2011-08-01T12:29:41Z</time>
      </trkpt>
      <trkpt lat="45.87773" lon="6.13371">
        <ele>704</ele>
        <time>2011-08-01T12:29:47Z</time>
      </trkpt>
      <trkpt lat="45.87763" lon="6.1337">
        <ele>704</ele>
        <time>2011-08-01T12:29:51Z</time>
      </trkpt>
      <trkpt lat="45.87757" lon="6.13369">
        <ele>705</ele>
        <time>2011-08-01T12:29:55Z</time>
      </trkpt>
      <trkpt lat="45.87749" lon="6.13361">
        <ele>709</ele>
        <time>2011-08-01T12:30:01Z</time>
      </trkpt>
      <trkpt lat="45.87745" lon="6.13357">
        <ele>709</ele>
        <time>2011-08-01T12:30:06Z</time>
      </trkpt>
      <trkpt lat="45.8774" lon="6.13356">
        <ele>710</ele>
        <time>2011-08-01T12:30:09Z</time>
      </trkpt>
      <trkpt lat="45.87731" lon="6.13359">
        <ele>709</ele>
        <time>2011-08-01T12:30:16Z</time>
      </trkpt>
      <trkpt lat="45.87725" lon="6.13357">
        <ele>710</ele>
        <time>2011-08-01T12:30:21Z</time>
      </trkpt>
      <trkpt lat="45.87711" lon="6.13352">
        <ele>710</ele>
        <time>2011-08-01T12:30:28Z</time>
      </trkpt>
      <trkpt lat="45.87703" lon="6.13344">
        <ele>711</ele>
        <time>2011-08-01T12:30:33Z</time>
      </trkpt>
      <trkpt lat="45.877" lon="6.13343">
        <ele>711</ele>
        <time>2011-08-01T12:30:34Z</time>
      </trkpt>
      <trkpt lat="45.87692" lon="6.13339">
        <ele>711</ele>
        <time>2011-08-01T12:30:40Z</time>
      </trkpt>
      <trkpt lat="45.87687" lon="6.13335">
        <ele>712</ele>
        <time>2011-08-01T12:30:46Z</time>
      </trkpt>
      <trkpt lat="45.87677" lon="6.13331">
        <ele>716</ele>
        <time>2011-08-01T12:30:52Z</time>
      </trkpt>
      <trkpt lat="45.87664" lon="6.1332">
        <ele>718</ele>
        <time>2011-08-01T12:30:59Z</time>
      </trkpt>
      <trkpt lat="45.87658" lon="6.13315">
        <ele>719</ele>
        <time>2011-08-01T12:31:03Z</time>
      </trkpt>
      <trkpt lat="45.87651" lon="6.1331">
        <ele>720</ele>
        <time>2011-08-01T12:31:09Z</time>
      </trkpt>
      <trkpt lat="45.87643" lon="6.13308">
        <ele>721</ele>
        <time>2011-08-01T12:31:15Z</time>
      </trkpt>
      <trkpt lat="45.87639" lon="6.13306">
        <ele>721</ele>
        <time>2011-08-01T12:31:17Z</time>
      </trkpt>
      <trkpt lat="45.87628" lon="6.13308">
        <ele>721</ele>
        <time>2011-08-01T12:31:25Z</time>
      </trkpt>
      <trkpt lat="45.87621" lon="6.13309">
        <ele>721</ele>
        <time>2011-08-01T12:31:30Z</time>
      </trkpt>
      <trkpt lat="45.87617" lon="6.13302">
        <ele>722</ele>
        <time>2011-08-01T12:31:35Z</time>
      </trkpt>
      <trkpt lat="45.87612" lon="6.13296">
        <ele>722</ele>
        <time>2011-08-01T12:31:39Z</time>
      </trkpt>
      <trkpt lat="45.87607" lon="6.13292">
        <ele>723</ele>
        <time>2011-08-01T12:31:46Z</time>
      </trkpt>
      <trkpt lat="45.87602" lon="6.13298">
        <ele>722</ele>
        <time>2011-08-01T12:31:50Z</time>
      </trkpt>
      <trkpt lat="45.87591" lon="6.13314">
        <ele>721</ele>
        <time>2011-08-01T12:31:56Z</time>
      </trkpt>
      <trkpt lat="45.87578" lon="6.13326">
        <ele>721</ele>
        <time>2011-08-01T12:32:01Z</time>
      </trkpt>
      <trkpt lat="45.87566" lon="6.13335">
        <ele>718</ele>
        <time>2011-08-01T12:32:07Z</time>
      </trkpt>
      <trkpt lat="45.87563" lon="6.13335">
        <ele>718</ele>
        <time>2011-08-01T12:32:11Z</time>
      </trkpt>
      <trkpt lat="45.87566" lon="6.13334">
        <ele>718</ele>
        <time>2011-08-01T12:32:13Z</time>
      </trkpt>
      <trkpt lat="45.87572" lon="6.13329">
        <ele>722</ele>
        <time>2011-08-01T12:32:19Z</time>
      </trkpt>
      <trkpt lat="45.87578" lon="6.13324">
        <ele>722</ele>
        <time>2011-08-01T12:32:25Z</time>
      </trkpt>
      <trkpt lat="45.87578" lon="6.1332">
        <ele>722</ele>
        <time>2011-08-01T12:32:38Z</time>
      </trkpt>
      <trkpt lat="45.8758" lon="6.13319">
        <ele>722</ele>
        <time>2011-08-01T12:32:40Z</time>
      </trkpt>
      <trkpt lat="45.87589" lon="6.13308">
        <ele>722</ele>
        <time>2011-08-01T12:32:48Z</time>
      </trkpt>
      <trkpt lat="45.87594" lon="6.13295">
        <ele>723</ele>
        <time>2011-08-01T12:32:55Z</time>
      </trkpt>
      <trkpt lat="45.87598" lon="6.13286">
        <ele>723</ele>
        <time>2011-08-01T12:33:00Z</time>
      </trkpt>
      <trkpt lat="45.87602" lon="6.13278">
        <ele>724</ele>
        <time>2011-08-01T12:33:05Z</time>
      </trkpt>
      <trkpt lat="45.87609" lon="6.13269">
        <ele>724</ele>
        <time>2011-08-01T12:33:12Z</time>
      </trkpt>
      <trkpt lat="45.87611" lon="6.13268">
        <ele>724</ele>
        <time>2011-08-01T12:33:13Z</time>
      </trkpt>
      <trkpt lat="45.87619" lon="6.13261">
        <ele>724</ele>
        <time>2011-08-01T12:33:20Z</time>
      </trkpt>
      <trkpt lat="45.87622" lon="6.13258">
        <ele>724</ele>
        <time>2011-08-01T12:33:22Z</time>
      </trkpt>
      <trkpt lat="45.87627" lon="6.1325">
        <ele>724</ele>
        <time>2011-08-01T12:33:26Z</time>
      </trkpt>
      <trkpt lat="45.87637" lon="6.13236">
        <ele>731</ele>
        <time>2011-08-01T12:33:35Z</time>
      </trkpt>
      <trkpt lat="45.87638" lon="6.13233">
        <ele>732</ele>
        <time>2011-08-01T12:33:37Z</time>
      </trkpt>
      <trkpt lat="45.87638" lon="6.13226">
        <ele>732</ele>
        <time>2011-08-01T12:33:41Z</time>
      </trkpt>
      <trkpt lat="45.87632" lon="6.13229">
        <ele>732</ele>
        <time>2011-08-01T12:33:45Z</time>
      </trkpt>
      <trkpt lat="45.87613" lon="6.13243">
        <ele>732</ele>
        <time>2011-08-01T12:33:51Z</time>
      </trkpt>
      <trkpt lat="45.87604" lon="6.13247">
        <ele>731</ele>
        <time>2011-08-01T12:33:56Z</time>
      </trkpt>
      <trkpt lat="45.87592" lon="6.13248">
        <ele>730</ele>
        <time>2011-08-01T12:34:01Z</time>
      </trkpt>
      <trkpt lat="45.87574" lon="6.13244">
        <ele>732</ele>
        <time>2011-08-01T12:34:07Z</time>
      </trkpt>
      <trkpt lat="45.87558" lon="6.13246">
        <ele>735</ele>
        <time>2011-08-01T12:34:13Z</time>
      </trkpt>
      <trkpt lat="45.87553" lon="6.13244">
        <ele>735</ele>
        <time>2011-08-01T12:34:15Z</time>
      </trkpt>
      <trkpt lat="45.87542" lon="6.13236">
        <ele>736</ele>
        <time>2011-08-01T12:34:21Z</time>
      </trkpt>
      <trkpt lat="45.87534" lon="6.13226">
        <ele>737</ele>
        <time>2011-08-01T12:34:26Z</time>
      </trkpt>
      <trkpt lat="45.87524" lon="6.13215">
        <ele>738</ele>
        <time>2011-08-01T12:34:33Z</time>
      </trkpt>
      <trkpt lat="45.87521" lon="6.13209">
        <ele>739</ele>
        <time>2011-08-01T12:34:37Z</time>
      </trkpt>
      <trkpt lat="45.87515" lon="6.13204">
        <ele>740</ele>
        <time>2011-08-01T12:34:42Z</time>
      </trkpt>
      <trkpt lat="45.87504" lon="6.13198">
        <ele>741</ele>
        <time>2011-08-01T12:34:49Z</time>
      </trkpt>
      <trkpt lat="45.87499" lon="6.13199">
        <ele>746</ele>
        <time>2011-08-01T12:34:54Z</time>
      </trkpt>
      <trkpt lat="45.87499" lon="6.13199">
        <ele>746</ele>
        <time>2011-08-01T12:34:55Z</time>
      </trkpt>
      <trkpt lat="45.87495" lon="6.13201">
        <ele>745</ele>
        <time>2011-08-01T12:35:02Z</time>
      </trkpt>
      <trkpt lat="45.87493" lon="6.13202">
        <ele>745</ele>
        <time>2011-08-01T12:35:07Z</time>
      </trkpt>
      <trkpt lat="45.87486" lon="6.13204">
        <ele>745</ele>
        <time>2011-08-01T12:35:13Z</time>
      </trkpt>
      <trkpt lat="45.87478" lon="6.13201">
        <ele>746</ele>
        <time>2011-08-01T12:35:22Z</time>
      </trkpt>
      <trkpt lat="45.87473" lon="6.13197">
        <ele>746</ele>
        <time>2011-08-01T12:35:28Z</time>
      </trkpt>
      <trkpt lat="45.87465" lon="6.13195">
        <ele>747</ele>
        <time>2011-08-01T12:35:35Z</time>
      </trkpt>
      <trkpt lat="45.87457" lon="6.13197">
        <ele>747</ele>
        <time>2011-08-01T12:35:43Z</time>
      </trkpt>
      <trkpt lat="45.87453" lon="6.13196">
        <ele>747</ele>
        <time>2011-08-01T12:35:49Z</time>
      </trkpt>
      <trkpt lat="45.87448" lon="6.13197">
        <ele>748</ele>
        <time>2011-08-01T12:35:55Z</time>
      </trkpt>
      <trkpt lat="45.87442" lon="6.13198">
        <ele>748</ele>
        <time>2011-08-01T12:36:01Z</time>
      </trkpt>
      <trkpt lat="45.87436" lon="6.13199">
        <ele>748</ele>
        <time>2011-08-01T12:36:06Z</time>
      </trkpt>
      <trkpt lat="45.8743" lon="6.13198">
        <ele>749</ele>
        <time>2011-08-01T12:36:12Z</time>
      </trkpt>
      <trkpt lat="45.87421" lon="6.13195">
        <ele>750</ele>
        <time>2011-08-01T12:36:18Z</time>
      </trkpt>
      <trkpt lat="45.8741" lon="6.13192">
        <ele>754</ele>
        <time>2011-08-01T12:36:25Z</time>
      </trkpt>
      <trkpt lat="45.87399" lon="6.13189">
        <ele>754</ele>
        <time>2011-08-01T12:36:33Z</time>
      </trkpt>
      <trkpt lat="45.87394" lon="6.13188">
        <ele>754</ele>
        <time>2011-08-01T12:36:36Z</time>
      </trkpt>
      <trkpt lat="45.87392" lon="6.13186">
        <ele>754</ele>
        <time>2011-08-01T12:36:38Z</time>
      </trkpt>
      <trkpt lat="45.87388" lon="6.13186">
        <ele>754</ele>
        <time>2011-08-01T12:36:41Z</time>
      </trkpt>
      <trkpt lat="45.87379" lon="6.13181">
        <ele>754</ele>
        <time>2011-08-01T12:36:48Z</time>
      </trkpt>
      <trkpt lat="45.8737" lon="6.13174">
        <ele>755</ele>
        <time>2011-08-01T12:36:55Z</time>
      </trkpt>
      <trkpt lat="45.87367" lon="6.13173">
        <ele>755</ele>
        <time>2011-08-01T12:37:04Z</time>
      </trkpt>
      <trkpt lat="45.87363" lon="6.13171">
        <ele>755</ele>
        <time>2011-08-01T12:37:07Z</time>
      </trkpt>
      <trkpt lat="45.87355" lon="6.13168">
        <ele>756</ele>
        <time>2011-08-01T12:37:13Z</time>
      </trkpt>
      <trkpt lat="45.87345" lon="6.13167">
        <ele>759</ele>
        <time>2011-08-01T12:37:19Z</time>
      </trkpt>
      <trkpt lat="45.87341" lon="6.13168">
        <ele>757</ele>
        <time>2011-08-01T12:37:22Z</time>
      </trkpt>
      <trkpt lat="45.87336" lon="6.13173">
        <ele>757</ele>
        <time>2011-08-01T12:37:28Z</time>
      </trkpt>
      <trkpt lat="45.87329" lon="6.13175">
        <ele>758</ele>
        <time>2011-08-01T12:37:36Z</time>
      </trkpt>
      <trkpt lat="45.87325" lon="6.13175">
        <ele>758</ele>
        <time>2011-08-01T12:37:41Z</time>
      </trkpt>
      <trkpt lat="45.87313" lon="6.13173">
        <ele>758</ele>
        <time>2011-08-01T12:37:47Z</time>
      </trkpt>
      <trkpt lat="45.87312" lon="6.13173">
        <ele>758</ele>
        <time>2011-08-01T12:37:48Z</time>
      </trkpt>
      <trkpt lat="45.87302" lon="6.13177">
        <ele>758</ele>
        <time>2011-08-01T12:37:54Z</time>
      </trkpt>
      <trkpt lat="45.87297" lon="6.1318">
        <ele>758</ele>
        <time>2011-08-01T12:37:56Z</time>
      </trkpt>
      <trkpt lat="45.87284" lon="6.13183">
        <ele>758</ele>
        <time>2011-08-01T12:38:02Z</time>
      </trkpt>
      <trkpt lat="45.87271" lon="6.13182">
        <ele>759</ele>
        <time>2011-08-01T12:38:07Z</time>
      </trkpt>
      <trkpt lat="45.87259" lon="6.1318">
        <ele>761</ele>
        <time>2011-08-01T12:38:12Z</time>
      </trkpt>
      <trkpt lat="45.87257" lon="6.13178">
        <ele>761</ele>
        <time>2011-08-01T12:38:13Z</time>
      </trkpt>
      <trkpt lat="45.87252" lon="6.13175">
        <ele>762</ele>
        <time>2011-08-01T12:38:17Z</time>
      </trkpt>
      <trkpt lat="45.87239" lon="6.13171">
        <ele>763</ele>
        <time>2011-08-01T12:38:24Z</time>
      </trkpt>
      <trkpt lat="45.87229" lon="6.1317">
        <ele>763</ele>
        <time>2011-08-01T12:38:29Z</time>
      </trkpt>
      <trkpt lat="45.87227" lon="6.1317">
        <ele>763</ele>
        <time>2011-08-01T12:38:32Z</time>
      </trkpt>
      <trkpt lat="45.87225" lon="6.1317">
        <ele>763</ele>
        <time>2011-08-01T12:38:34Z</time>
      </trkpt>
      <trkpt lat="45.87215" lon="6.13171">
        <ele>764</ele>
        <time>2011-08-01T12:38:43Z</time>
      </trkpt>
      <trkpt lat="45.87208" lon="6.1317">
        <ele>764</ele>
        <time>2011-08-01T12:38:50Z</time>
      </trkpt>
      <trkpt lat="45.87202" lon="6.13171">
        <ele>764</ele>
        <time>2011-08-01T12:38:56Z</time>
      </trkpt>
      <trkpt lat="45.87197" lon="6.1317">
        <ele>765</ele>
        <time>2011-08-01T12:39:00Z</time>
      </trkpt>
      <trkpt lat="45.87193" lon="6.13167">
        <ele>765</ele>
        <time>2011-08-01T12:39:05Z</time>
      </trkpt>
      <trkpt lat="45.87189" lon="6.13163">
        <ele>770</ele>
        <time>2011-08-01T12:39:14Z</time>
      </trkpt>
      <trkpt lat="45.87189" lon="6.13162">
        <ele>770</ele>
        <time>2011-08-01T12:39:16Z</time>
      </trkpt>
      <trkpt lat="45.87186" lon="6.13157">
        <ele>771</ele>
        <time>2011-08-01T12:39:20Z</time>
      </trkpt>
      <trkpt lat="45.87179" lon="6.13141">
        <ele>771</ele>
        <time>2011-08-01T12:39:30Z</time>
      </trkpt>
      <trkpt lat="45.8717" lon="6.13136">
        <ele>771</ele>
        <time>2011-08-01T12:39:36Z</time>
      </trkpt>
      <trkpt lat="45.87157" lon="6.1313">
        <ele>775</ele>
        <time>2011-08-01T12:39:43Z</time>
      </trkpt>
      <trkpt lat="45.87148" lon="6.13126">
        <ele>776</ele>
        <time>2011-08-01T12:39:48Z</time>
      </trkpt>
      <trkpt lat="45.87137" lon="6.13125">
        <ele>776</ele>
        <time>2011-08-01T12:39:53Z</time>
      </trkpt>
      <trkpt lat="45.8713" lon="6.13123">
        <ele>776</ele>
        <time>2011-08-01T12:39:57Z</time>
      </trkpt>
      <trkpt lat="45.87122" lon="6.13116">
        <ele>777</ele>
        <time>2011-08-01T12:40:02Z</time>
      </trkpt>
      <trkpt lat="45.87116" lon="6.13102">
        <ele>777</ele>
        <time>2011-08-01T12:40:09Z</time>
      </trkpt>
      <trkpt lat="45.87099" lon="6.13095">
        <ele>779</ele>
        <time>2011-08-01T12:40:14Z</time>
      </trkpt>
      <trkpt lat="45.87088" lon="6.13096">
        <ele>779</ele>
        <time>2011-08-01T12:40:19Z</time>
      </trkpt>
      <trkpt lat="45.87084" lon="6.13091">
        <ele>780</ele>
        <time>2011-08-01T12:40:22Z</time>
      </trkpt>
      <trkpt lat="45.87077" lon="6.1309">
        <ele>781</ele>
        <time>2011-08-01T12:40:29Z</time>
      </trkpt>
      <trkpt lat="45.87078" lon="6.13094">
        <ele>780</ele>
        <time>2011-08-01T12:40:37Z</time>
      </trkpt>
      <trkpt lat="45.87081" lon="6.13104">
        <ele>780</ele>
        <time>2011-08-01T12:40:43Z</time>
      </trkpt>
      <trkpt lat="45.87077" lon="6.13104">
        <ele>780</ele>
        <time>2011-08-01T12:40:48Z</time>
      </trkpt>
      <trkpt lat="45.8707" lon="6.13101">
        <ele>780</ele>
        <time>2011-08-01T12:40:57Z</time>
      </trkpt>
      <trkpt lat="45.87071" lon="6.131">
        <ele>780</ele>
        <time>2011-08-01T12:41:05Z</time>
      </trkpt>
      <trkpt lat="45.87065" lon="6.13104">
        <ele>780</ele>
        <time>2011-08-01T12:41:11Z</time>
      </trkpt>
      <trkpt lat="45.87063" lon="6.13104">
        <ele>780</ele>
        <time>2011-08-01T12:41:13Z</time>
      </trkpt>
      <trkpt lat="45.8706" lon="6.13099">
        <ele>780</ele>
        <time>2011-08-01T12:41:16Z</time>
      </trkpt>
      <trkpt lat="45.87055" lon="6.1309">
        <ele>780</ele>
        <time>2011-08-01T12:41:22Z</time>
      </trkpt>
      <trkpt lat="45.87053" lon="6.13089">
        <ele>780</ele>
        <time>2011-08-01T12:41:23Z</time>
      </trkpt>
      <trkpt lat="45.87044" lon="6.13086">
        <ele>781</ele>
        <time>2011-08-01T12:41:29Z</time>
      </trkpt>
      <trkpt lat="45.87032" lon="6.13086">
        <ele>781</ele>
        <time>2011-08-01T12:41:35Z</time>
      </trkpt>
      <trkpt lat="45.87024" lon="6.1308">
        <ele>784</ele>
        <time>2011-08-01T12:41:41Z</time>
      </trkpt>
      <trkpt lat="45.87019" lon="6.13068">
        <ele>784</ele>
        <time>2011-08-01T12:41:46Z</time>
      </trkpt>
      <trkpt lat="45.87016" lon="6.13063">
        <ele>784</ele>
        <time>2011-08-01T12:41:48Z</time>
      </trkpt>
      <trkpt lat="45.87005" lon="6.13046">
        <ele>785</ele>
        <time>2011-08-01T12:41:54Z</time>
      </trkpt>
      <trkpt lat="45.86997" lon="6.1303">
        <ele>788</ele>
        <time>2011-08-01T12:41:59Z</time>
      </trkpt>
      <trkpt lat="45.86994" lon="6.13012">
        <ele>788</ele>
        <time>2011-08-01T12:42:05Z</time>
      </trkpt>
      <trkpt lat="45.86991" lon="6.13">
        <ele>788</ele>
        <time>2011-08-01T12:42:11Z</time>
      </trkpt>
      <trkpt lat="45.86992" lon="6.1299">
        <ele>788</ele>
        <time>2011-08-01T12:42:18Z</time>
      </trkpt>
      <trkpt lat="45.86989" lon="6.12985">
        <ele>789</ele>
        <time>2011-08-01T12:42:23Z</time>
      </trkpt>
      <trkpt lat="45.86987" lon="6.12982">
        <ele>789</ele>
        <time>2011-08-01T12:42:28Z</time>
      </trkpt>
      <trkpt lat="45.86976" lon="6.1298">
        <ele>790</ele>
        <time>2011-08-01T12:42:34Z</time>
      </trkpt>
      <trkpt lat="45.86968" lon="6.12976">
        <ele>790</ele>
        <time>2011-08-01T12:42:40Z</time>
      </trkpt>
      <trkpt lat="45.86962" lon="6.12973">
        <ele>790</ele>
        <time>2011-08-01T12:42:45Z</time>
      </trkpt>
      <trkpt lat="45.86961" lon="6.12974">
        <ele>790</ele>
        <time>2011-08-01T12:42:46Z</time>
      </trkpt>
      <trkpt lat="45.86961" lon="6.12975">
        <ele>790</ele>
        <time>2011-08-01T12:42:48Z</time>
      </trkpt>
      <trkpt lat="45.86956" lon="6.12985">
        <ele>791</ele>
        <time>2011-08-01T12:42:55Z</time>
      </trkpt>
      <trkpt lat="45.86954" lon="6.12986">
        <ele>791</ele>
        <time>2011-08-01T12:42:56Z</time>
      </trkpt>
      <trkpt lat="45.86951" lon="6.12989">
        <ele>791</ele>
        <time>2011-08-01T12:43:01Z</time>
      </trkpt>
      <trkpt lat="45.86946" lon="6.12994">
        <ele>792</ele>
        <time>2011-08-01T12:43:09Z</time>
      </trkpt>
      <trkpt lat="45.8694" lon="6.13005">
        <ele>791</ele>
        <time>2011-08-01T12:43:15Z</time>
      </trkpt>
      <trkpt lat="45.86937" lon="6.13004">
        <ele>792</ele>
        <time>2011-08-01T12:43:21Z</time>
      </trkpt>
      <trkpt lat="45.8693" lon="6.13007">
        <ele>792</ele>
        <time>2011-08-01T12:43:27Z</time>
      </trkpt>
      <trkpt lat="45.8692" lon="6.13009">
        <ele>793</ele>
        <time>2011-08-01T12:43:34Z</time>
      </trkpt>
      <trkpt lat="45.86911" lon="6.13008">
        <ele>795</ele>
        <time>2011-08-01T12:43:40Z</time>
      </trkpt>
      <trkpt lat="45.86903" lon="6.13009">
        <ele>795</ele>
        <time>2011-08-01T12:43:45Z</time>
      </trkpt>
      <trkpt lat="45.86895" lon="6.13008">
        <ele>795</ele>
        <time>2011-08-01T12:43:48Z</time>
      </trkpt>
      <trkpt lat="45.86881" lon="6.13022">
        <ele>795</ele>
        <time>2011-08-01T12:43:55Z</time>
      </trkpt>
      <trkpt lat="45.86876" lon="6.1303">
        <ele>795</ele>
        <time>2011-08-01T12:43:58Z</time>
      </trkpt>
      <trkpt lat="45.86871" lon="6.13043">
        <ele>795</ele>
        <time>2011-08-01T12:44:04Z</time>
      </trkpt>
      <trkpt lat="45.86866" lon="6.1306">
        <ele>794</ele>
        <time>2011-08-01T12:44:11Z</time>
      </trkpt>
      <trkpt lat="45.86857" lon="6.13073">
        <ele>794</ele>
        <time>2011-08-01T12:44:17Z</time>
      </trkpt>
      <trkpt lat="45.86851" lon="6.13083">
        <ele>789</ele>
        <time>2011-08-01T12:44:20Z</time>
      </trkpt>
      <trkpt lat="45.86847" lon="6.13091">
        <ele>789</ele>
        <time>2011-08-01T12:44:22Z</time>
      </trkpt>
      <trkpt lat="45.86836" lon="6.13097">
        <ele>789</ele>
        <time>2011-08-01T12:44:27Z</time>
      </trkpt>
      <trkpt lat="45.86833" lon="6.13099">
        <ele>790</ele>
        <time>2011-08-01T12:44:29Z</time>
      </trkpt>
      <trkpt lat="45.86826" lon="6.13096">
        <ele>790</ele>
        <time>2011-08-01T12:44:33Z</time>
      </trkpt>
      <trkpt lat="45.86817" lon="6.13094">
        <ele>789</ele>
        <time>2011-08-01T12:44:38Z</time>
      </trkpt>
      <trkpt lat="45.86814" lon="6.13096">
        <ele>789</ele>
        <time>2011-08-01T12:44:40Z</time>
      </trkpt>
      <trkpt lat="45.86802" lon="6.13098">
        <ele>788</ele>
        <time>2011-08-01T12:44:46Z</time>
      </trkpt>
      <trkpt lat="45.86798" lon="6.13098">
        <ele>788</ele>
        <time>2011-08-01T12:44:51Z</time>
      </trkpt>
      <trkpt lat="45.86795" lon="6.13098">
        <ele>788</ele>
        <time>2011-08-01T12:44:57Z</time>
      </trkpt>
      <trkpt lat="45.86791" lon="6.13104">
        <ele>788</ele>
        <time>2011-08-01T12:45:17Z</time>
      </trkpt>
      <trkpt lat="45.86788" lon="6.13102">
        <ele>788</ele>
        <time>2011-08-01T12:45:24Z</time>
      </trkpt>
      <trkpt lat="45.86783" lon="6.13098">
        <ele>788</ele>
        <time>2011-08-01T12:45:30Z</time>
      </trkpt>
      <trkpt lat="45.86778" lon="6.13097">
        <ele>789</ele>
        <time>2011-08-01T12:45:36Z</time>
      </trkpt>
      <trkpt lat="45.86768" lon="6.13096">
        <ele>789</ele>
        <time>2011-08-01T12:45:44Z</time>
      </trkpt>
      <trkpt lat="45.86763" lon="6.13092">
        <ele>790</ele>
        <time>2011-08-01T12:45:51Z</time>
      </trkpt>
      <trkpt lat="45.86755" lon="6.13088">
        <ele>792</ele>
        <time>2011-08-01T12:45:59Z</time>
      </trkpt>
      <trkpt lat="45.86743" lon="6.1309">
        <ele>792</ele>
        <time>2011-08-01T12:46:07Z</time>
      </trkpt>
      <trkpt lat="45.86732" lon="6.13094">
        <ele>791</ele>
        <time>2011-08-01T12:46:12Z</time>
      </trkpt>
      <trkpt lat="45.86718" lon="6.13098">
        <ele>790</ele>
        <time>2011-08-01T12:46:19Z</time>
      </trkpt>
      <trkpt lat="45.86701" lon="6.131">
        <ele>790</ele>
        <time>2011-08-01T12:46:26Z</time>
      </trkpt>
      <trkpt lat="45.86683" lon="6.13091">
        <ele>793</ele>
        <time>2011-08-01T12:46:32Z</time>
      </trkpt>
      <trkpt lat="45.86665" lon="6.13084">
        <ele>797</ele>
        <time>2011-08-01T12:46:39Z</time>
      </trkpt>
      <trkpt lat="45.8665" lon="6.13079">
        <ele>799</ele>
        <time>2011-08-01T12:46:44Z</time>
      </trkpt>
      <trkpt lat="45.86644" lon="6.1307">
        <ele>799</ele>
        <time>2011-08-01T12:46:48Z</time>
      </trkpt>
      <trkpt lat="45.8664" lon="6.13055">
        <ele>800</ele>
        <time>2011-08-01T12:46:54Z</time>
      </trkpt>
      <trkpt lat="45.86641" lon="6.13046">
        <ele>800</ele>
        <time>2011-08-01T12:46:58Z</time>
      </trkpt>
      <trkpt lat="45.86639" lon="6.13026">
        <ele>801</ele>
        <time>2011-08-01T12:47:06Z</time>
      </trkpt>
      <trkpt lat="45.8664" lon="6.13016">
        <ele>802</ele>
        <time>2011-08-01T12:47:10Z</time>
      </trkpt>
      <trkpt lat="45.86639" lon="6.13007">
        <ele>802</ele>
        <time>2011-08-01T12:47:14Z</time>
      </trkpt>
      <trkpt lat="45.86637" lon="6.13004">
        <ele>802</ele>
        <time>2011-08-01T12:47:16Z</time>
      </trkpt>
      <trkpt lat="45.8663" lon="6.12997">
        <ele>806</ele>
        <time>2011-08-01T12:47:20Z</time>
      </trkpt>
      <trkpt lat="45.86621" lon="6.12991">
        <ele>806</ele>
        <time>2011-08-01T12:47:25Z</time>
      </trkpt>
      <trkpt lat="45.86611" lon="6.1299">
        <ele>806</ele>
        <time>2011-08-01T12:47:30Z</time>
      </trkpt>
      <trkpt lat="45.866" lon="6.12981">
        <ele>806</ele>
        <time>2011-08-01T12:47:36Z</time>
      </trkpt>
      <trkpt lat="45.866" lon="6.1298">
        <ele>806</ele>
        <time>2011-08-01T12:47:37Z</time>
      </trkpt>
      <trkpt lat="45.86592" lon="6.12973">
        <ele>806</ele>
        <time>2011-08-01T12:47:43Z</time>
      </trkpt>
      <trkpt lat="45.86586" lon="6.1297">
        <ele>806</ele>
        <time>2011-08-01T12:47:53Z</time>
      </trkpt>
      <trkpt lat="45.8658" lon="6.12968">
        <ele>809</ele>
        <time>2011-08-01T12:47:59Z</time>
      </trkpt>
      <trkpt lat="45.86575" lon="6.12965">
        <ele>809</ele>
        <time>2011-08-01T12:48:06Z</time>
      </trkpt>
      <trkpt lat="45.86573" lon="6.12961">
        <ele>810</ele>
        <time>2011-08-01T12:48:09Z</time>
      </trkpt>
      <trkpt lat="45.86576" lon="6.12951">
        <ele>810</ele>
        <time>2011-08-01T12:48:14Z</time>
      </trkpt>
      <trkpt lat="45.86574" lon="6.1294">
        <ele>810</ele>
        <time>2011-08-01T12:48:19Z</time>
      </trkpt>
      <trkpt lat="45.86569" lon="6.12936">
        <ele>811</ele>
        <time>2011-08-01T12:48:23Z</time>
      </trkpt>
      <trkpt lat="45.86566" lon="6.12933">
        <ele>811</ele>
        <time>2011-08-01T12:48:25Z</time>
      </trkpt>
      <trkpt lat="45.86562" lon="6.12928">
        <ele>811</ele>
        <time>2011-08-01T12:48:29Z</time>
      </trkpt>
      <trkpt lat="45.8656" lon="6.1292">
        <ele>811</ele>
        <time>2011-08-01T12:48:34Z</time>
      </trkpt>
      <trkpt lat="45.86558" lon="6.12922">
        <ele>811</ele>
        <time>2011-08-01T12:48:38Z</time>
      </trkpt>
      <trkpt lat="45.86554" lon="6.12939">
        <ele>811</ele>
        <time>2011-08-01T12:48:44Z</time>
      </trkpt>
      <trkpt lat="45.86547" lon="6.12957">
        <ele>810</ele>
        <time>2011-08-01T12:48:50Z</time>
      </trkpt>
      <trkpt lat="45.86539" lon="6.12967">
        <ele>810</ele>
        <time>2011-08-01T12:48:54Z</time>
      </trkpt>
      <trkpt lat="45.86528" lon="6.12976">
        <ele>810</ele>
        <time>2011-08-01T12:48:59Z</time>
      </trkpt>
      <trkpt lat="45.86514" lon="6.12982">
        <ele>810</ele>
        <time>2011-08-01T12:49:04Z</time>
      </trkpt>
      <trkpt lat="45.8651" lon="6.12982">
        <ele>810</ele>
        <time>2011-08-01T12:49:06Z</time>
      </trkpt>
      <trkpt lat="45.865" lon="6.12985">
        <ele>810</ele>
        <time>2011-08-01T12:49:11Z</time>
      </trkpt>
      <trkpt lat="45.86486" lon="6.12986">
        <ele>813</ele>
        <time>2011-08-01T12:49:17Z</time>
      </trkpt>
      <trkpt lat="45.86472" lon="6.12992">
        <ele>814</ele>
        <time>2011-08-01T12:49:23Z</time>
      </trkpt>
      <trkpt lat="45.86456" lon="6.12996">
        <ele>814</ele>
        <time>2011-08-01T12:49:29Z</time>
      </trkpt>
      <trkpt lat="45.86443" lon="6.13006">
        <ele>809</ele>
        <time>2011-08-01T12:49:34Z</time>
      </trkpt>
      <trkpt lat="45.8643" lon="6.13014">
        <ele>809</ele>
        <time>2011-08-01T12:49:39Z</time>
      </trkpt>
      <trkpt lat="45.8642" lon="6.1302">
        <ele>809</ele>
        <time>2011-08-01T12:49:42Z</time>
      </trkpt>
      <trkpt lat="45.86409" lon="6.13025">
        <ele>810</ele>
        <time>2011-08-01T12:49:46Z</time>
      </trkpt>
      <trkpt lat="45.86399" lon="6.13031">
        <ele>809</ele>
        <time>2011-08-01T12:49:50Z</time>
      </trkpt>
      <trkpt lat="45.8638" lon="6.1304">
        <ele>808</ele>
        <time>2011-08-01T12:49:56Z</time>
      </trkpt>
      <trkpt lat="45.86366" lon="6.13039">
        <ele>809</ele>
        <time>2011-08-01T12:50:01Z</time>
      </trkpt>
      <trkpt lat="45.86358" lon="6.13038">
        <ele>809</ele>
        <time>2011-08-01T12:50:04Z</time>
      </trkpt>
      <trkpt lat="45.86351" lon="6.13031">
        <ele>810</ele>
        <time>2011-08-01T12:50:09Z</time>
      </trkpt>
      <trkpt lat="45.86338" lon="6.13032">
        <ele>810</ele>
        <time>2011-08-01T12:50:14Z</time>
      </trkpt>
      <trkpt lat="45.86329" lon="6.13025">
        <ele>812</ele>
        <time>2011-08-01T12:50:19Z</time>
      </trkpt>
      <trkpt lat="45.86327" lon="6.1302">
        <ele>813</ele>
        <time>2011-08-01T12:50:23Z</time>
      </trkpt>
      <trkpt lat="45.86326" lon="6.13012">
        <ele>814</ele>
        <time>2011-08-01T12:50:27Z</time>
      </trkpt>
      <trkpt lat="45.86325" lon="6.13005">
        <ele>815</ele>
        <time>2011-08-01T12:50:32Z</time>
      </trkpt>
      <trkpt lat="45.86323" lon="6.12992">
        <ele>819</ele>
        <time>2011-08-01T12:50:39Z</time>
      </trkpt>
      <trkpt lat="45.86322" lon="6.12992">
        <ele>819</ele>
        <time>2011-08-01T12:50:41Z</time>
      </trkpt>
      <trkpt lat="45.86322" lon="6.12983">
        <ele>820</ele>
        <time>2011-08-01T12:50:48Z</time>
      </trkpt>
      <trkpt lat="45.86319" lon="6.1298">
        <ele>820</ele>
        <time>2011-08-01T12:50:56Z</time>
      </trkpt>
      <trkpt lat="45.86318" lon="6.12978">
        <ele>820</ele>
        <time>2011-08-01T12:51:01Z</time>
      </trkpt>
      <trkpt lat="45.86317" lon="6.12973">
        <ele>821</ele>
        <time>2011-08-01T12:51:06Z</time>
      </trkpt>
      <trkpt lat="45.86313" lon="6.12972">
        <ele>821</ele>
        <time>2011-08-01T12:51:12Z</time>
      </trkpt>
      <trkpt lat="45.86305" lon="6.12968">
        <ele>821</ele>
        <time>2011-08-01T12:51:20Z</time>
      </trkpt>
      <trkpt lat="45.86304" lon="6.12967">
        <ele>821</ele>
        <time>2011-08-01T12:51:21Z</time>
      </trkpt>
      <trkpt lat="45.86303" lon="6.12964">
        <ele>822</ele>
        <time>2011-08-01T12:51:23Z</time>
      </trkpt>
      <trkpt lat="45.86293" lon="6.12959">
        <ele>822</ele>
        <time>2011-08-01T12:51:30Z</time>
      </trkpt>
      <trkpt lat="45.86287" lon="6.12952">
        <ele>822</ele>
        <time>2011-08-01T12:51:34Z</time>
      </trkpt>
      <trkpt lat="45.86276" lon="6.12938">
        <ele>823</ele>
        <time>2011-08-01T12:51:41Z</time>
      </trkpt>
      <trkpt lat="45.86271" lon="6.12934">
        <ele>824</ele>
        <time>2011-08-01T12:51:44Z</time>
      </trkpt>
      <trkpt lat="45.86265" lon="6.12923">
        <ele>825</ele>
        <time>2011-08-01T12:51:50Z</time>
      </trkpt>
      <trkpt lat="45.86263" lon="6.12919">
        <ele>825</ele>
        <time>2011-08-01T12:51:52Z</time>
      </trkpt>
      <trkpt lat="45.86258" lon="6.12908">
        <ele>827</ele>
        <time>2011-08-01T12:51:57Z</time>
      </trkpt>
      <trkpt lat="45.86258" lon="6.12891">
        <ele>828</ele>
        <time>2011-08-01T12:52:04Z</time>
      </trkpt>
      <trkpt lat="45.86257" lon="6.12869">
        <ele>829</ele>
        <time>2011-08-01T12:52:12Z</time>
      </trkpt>
      <trkpt lat="45.86245" lon="6.12854">
        <ele>830</ele>
        <time>2011-08-01T12:52:18Z</time>
      </trkpt>
      <trkpt lat="45.86243" lon="6.12852">
        <ele>830</ele>
        <time>2011-08-01T12:52:19Z</time>
      </trkpt>
      <trkpt lat="45.86229" lon="6.12842">
        <ele>830</ele>
        <time>2011-08-01T12:52:25Z</time>
      </trkpt>
      <trkpt lat="45.86225" lon="6.12837">
        <ele>830</ele>
        <time>2011-08-01T12:52:27Z</time>
      </trkpt>
      <trkpt lat="45.86214" lon="6.1283">
        <ele>833</ele>
        <time>2011-08-01T12:52:32Z</time>
      </trkpt>
      <trkpt lat="45.86209" lon="6.12825">
        <ele>833</ele>
        <time>2011-08-01T12:52:36Z</time>
      </trkpt>
      <trkpt lat="45.86199" lon="6.12808">
        <ele>834</ele>
        <time>2011-08-01T12:52:42Z</time>
      </trkpt>
      <trkpt lat="45.8619" lon="6.12799">
        <ele>834</ele>
        <time>2011-08-01T12:52:47Z</time>
      </trkpt>
      <trkpt lat="45.86185" lon="6.12793">
        <ele>835</ele>
        <time>2011-08-01T12:52:50Z</time>
      </trkpt>
      <trkpt lat="45.86176" lon="6.12803">
        <ele>834</ele>
        <time>2011-08-01T12:52:55Z</time>
      </trkpt>
      <trkpt lat="45.86173" lon="6.12806">
        <ele>834</ele>
        <time>2011-08-01T12:52:56Z</time>
      </trkpt>
      <trkpt lat="45.86161" lon="6.12819">
        <ele>835</ele>
        <time>2011-08-01T12:53:03Z</time>
      </trkpt>
      <trkpt lat="45.86149" lon="6.12829">
        <ele>835</ele>
        <time>2011-08-01T12:53:08Z</time>
      </trkpt>
      <trkpt lat="45.86138" lon="6.12839">
        <ele>832</ele>
        <time>2011-08-01T12:53:14Z</time>
      </trkpt>
      <trkpt lat="45.86129" lon="6.12846">
        <ele>832</ele>
        <time>2011-08-01T12:53:19Z</time>
      </trkpt>
      <trkpt lat="45.86121" lon="6.12857">
        <ele>832</ele>
        <time>2011-08-01T12:53:24Z</time>
      </trkpt>
      <trkpt lat="45.86112" lon="6.12866">
        <ele>832</ele>
        <time>2011-08-01T12:53:29Z</time>
      </trkpt>
      <trkpt lat="45.86097" lon="6.12873">
        <ele>832</ele>
        <time>2011-08-01T12:53:35Z</time>
      </trkpt>
      <trkpt lat="45.86084" lon="6.12876">
        <ele>832</ele>
        <time>2011-08-01T12:53:41Z</time>
      </trkpt>
      <trkpt lat="45.86076" lon="6.1287">
        <ele>834</ele>
        <time>2011-08-01T12:53:45Z</time>
      </trkpt>
      <trkpt lat="45.86073" lon="6.12865">
        <ele>834</ele>
        <time>2011-08-01T12:53:47Z</time>
      </trkpt>
      <trkpt lat="45.86073" lon="6.12857">
        <ele>834</ele>
        <time>2011-08-01T12:53:52Z</time>
      </trkpt>
      <trkpt lat="45.86071" lon="6.12847">
        <ele>835</ele>
        <time>2011-08-01T12:53:57Z</time>
      </trkpt>
      <trkpt lat="45.8607" lon="6.12836">
        <ele>835</ele>
        <time>2011-08-01T12:54:03Z</time>
      </trkpt>
      <trkpt lat="45.86072" lon="6.12831">
        <ele>837</ele>
        <time>2011-08-01T12:54:08Z</time>
      </trkpt>
      <trkpt lat="45.86073" lon="6.12829">
        <ele>838</ele>
        <time>2011-08-01T12:54:09Z</time>
      </trkpt>
      <trkpt lat="45.86076" lon="6.12818">
        <ele>838</ele>
        <time>2011-08-01T12:54:16Z</time>
      </trkpt>
      <trkpt lat="45.86073" lon="6.12813">
        <ele>838</ele>
        <time>2011-08-01T12:54:18Z</time>
      </trkpt>
      <trkpt lat="45.8607" lon="6.12803">
        <ele>839</ele>
        <time>2011-08-01T12:54:25Z</time>
      </trkpt>
      <trkpt lat="45.86065" lon="6.12795">
        <ele>840</ele>
        <time>2011-08-01T12:54:30Z</time>
      </trkpt>
      <trkpt lat="45.86062" lon="6.12789">
        <ele>840</ele>
        <time>2011-08-01T12:54:38Z</time>
      </trkpt>
      <trkpt lat="45.86059" lon="6.12777">
        <ele>840</ele>
        <time>2011-08-01T12:54:49Z</time>
      </trkpt>
      <trkpt lat="45.86057" lon="6.12764">
        <ele>841</ele>
        <time>2011-08-01T12:54:55Z</time>
      </trkpt>
      <trkpt lat="45.86056" lon="6.12761">
        <ele>841</ele>
        <time>2011-08-01T12:54:56Z</time>
      </trkpt>
      <trkpt lat="45.86056" lon="6.12758">
        <ele>841</ele>
        <time>2011-08-01T12:55:03Z</time>
      </trkpt>
      <trkpt lat="45.86048" lon="6.12758">
        <ele>841</ele>
        <time>2011-08-01T12:55:09Z</time>
      </trkpt>
      <trkpt lat="45.86039" lon="6.12759">
        <ele>841</ele>
        <time>2011-08-01T12:55:15Z</time>
      </trkpt>
      <trkpt lat="45.86029" lon="6.12763">
        <ele>842</ele>
        <time>2011-08-01T12:55:21Z</time>
      </trkpt>
      <trkpt lat="45.86021" lon="6.12769">
        <ele>842</ele>
        <time>2011-08-01T12:55:26Z</time>
      </trkpt>
      <trkpt lat="45.86013" lon="6.12769">
        <ele>842</ele>
        <time>2011-08-01T12:55:30Z</time>
      </trkpt>
      <trkpt lat="45.86005" lon="6.1277">
        <ele>843</ele>
        <time>2011-08-01T12:55:34Z</time>
      </trkpt>
      <trkpt lat="45.85998" lon="6.12767">
        <ele>845</ele>
        <time>2011-08-01T12:55:39Z</time>
      </trkpt>
      <trkpt lat="45.85994" lon="6.12767">
        <ele>845</ele>
        <time>2011-08-01T12:55:46Z</time>
      </trkpt>
      <trkpt lat="45.85987" lon="6.12772">
        <ele>845</ele>
        <time>2011-08-01T12:55:55Z</time>
      </trkpt>
      <trkpt lat="45.85985" lon="6.12775">
        <ele>845</ele>
        <time>2011-08-01T12:55:57Z</time>
      </trkpt>
      <trkpt lat="45.85978" lon="6.12783">
        <ele>845</ele>
        <time>2011-08-01T12:56:05Z</time>
      </trkpt>
      <trkpt lat="45.85971" lon="6.12792">
        <ele>845</ele>
        <time>2011-08-01T12:56:12Z</time>
      </trkpt>
      <trkpt lat="45.85972" lon="6.12789">
        <ele>845</ele>
        <time>2011-08-01T12:56:18Z</time>
      </trkpt>
      <trkpt lat="45.85977" lon="6.12784">
        <ele>845</ele>
        <time>2011-08-01T12:56:24Z</time>
      </trkpt>
      <trkpt lat="45.85978" lon="6.1278">
        <ele>845</ele>
        <time>2011-08-01T12:56:26Z</time>
      </trkpt>
      <trkpt lat="45.85979" lon="6.12778">
        <ele>845</ele>
        <time>2011-08-01T12:56:28Z</time>
      </trkpt>
      <trkpt lat="45.85985" lon="6.12772">
        <ele>845</ele>
        <time>2011-08-01T12:56:34Z</time>
      </trkpt>
      <trkpt lat="45.85989" lon="6.12767">
        <ele>845</ele>
        <time>2011-08-01T12:56:38Z</time>
      </trkpt>
      <trkpt lat="45.85994" lon="6.12763">
        <ele>846</ele>
        <time>2011-08-01T12:56:42Z</time>
      </trkpt>
      <trkpt lat="45.85998" lon="6.12758">
        <ele>846</ele>
        <time>2011-08-01T12:56:46Z</time>
      </trkpt>
      <trkpt lat="45.86005" lon="6.12754">
        <ele>845</ele>
        <time>2011-08-01T12:56:52Z</time>
      </trkpt>
      <trkpt lat="45.8601" lon="6.12746">
        <ele>846</ele>
        <time>2011-08-01T12:56:59Z</time>
      </trkpt>
      <trkpt lat="45.86013" lon="6.12738">
        <ele>845</ele>
        <time>2011-08-01T12:57:03Z</time>
      </trkpt>
      <trkpt lat="45.86013" lon="6.12726">
        <ele>845</ele>
        <time>2011-08-01T12:57:11Z</time>
      </trkpt>
      <trkpt lat="45.86008" lon="6.12719">
        <ele>845</ele>
        <time>2011-08-01T12:57:18Z</time>
      </trkpt>
      <trkpt lat="45.86005" lon="6.12716">
        <ele>845</ele>
        <time>2011-08-01T12:57:24Z</time>
      </trkpt>
      <trkpt lat="45.85995" lon="6.12715">
        <ele>849</ele>
        <time>2011-08-01T12:57:30Z</time>
      </trkpt>
      <trkpt lat="45.85986" lon="6.1272">
        <ele>849</ele>
        <time>2011-08-01T12:57:36Z</time>
      </trkpt>
      <trkpt lat="45.85975" lon="6.12724">
        <ele>849</ele>
        <time>2011-08-01T12:57:42Z</time>
      </trkpt>
      <trkpt lat="45.85969" lon="6.12725">
        <ele>849</ele>
        <time>2011-08-01T12:57:45Z</time>
      </trkpt>
      <trkpt lat="45.85961" lon="6.12714">
        <ele>850</ele>
        <time>2011-08-01T12:57:50Z</time>
      </trkpt>
      <trkpt lat="45.85955" lon="6.12689">
        <ele>850</ele>
        <time>2011-08-01T12:57:57Z</time>
      </trkpt>
      <trkpt lat="45.85949" lon="6.12681">
        <ele>850</ele>
        <time>2011-08-01T12:58:01Z</time>
      </trkpt>
      <trkpt lat="45.85938" lon="6.12686">
        <ele>851</ele>
        <time>2011-08-01T12:58:06Z</time>
      </trkpt>
      <trkpt lat="45.85925" lon="6.12698">
        <ele>851</ele>
        <time>2011-08-01T12:58:12Z</time>
      </trkpt>
      <trkpt lat="45.85912" lon="6.12708">
        <ele>854</ele>
        <time>2011-08-01T12:58:18Z</time>
      </trkpt>
      <trkpt lat="45.85901" lon="6.12718">
        <ele>854</ele>
        <time>2011-08-01T12:58:24Z</time>
      </trkpt>
      <trkpt lat="45.85884" lon="6.1273">
        <ele>855</ele>
        <time>2011-08-01T12:58:33Z</time>
      </trkpt>
      <trkpt lat="45.85872" lon="6.12739">
        <ele>855</ele>
        <time>2011-08-01T12:58:39Z</time>
      </trkpt>
      <trkpt lat="45.85862" lon="6.12747">
        <ele>856</ele>
        <time>2011-08-01T12:58:45Z</time>
      </trkpt>
      <trkpt lat="45.85852" lon="6.12744">
        <ele>856</ele>
        <time>2011-08-01T12:58:51Z</time>
      </trkpt>
      <trkpt lat="45.85841" lon="6.12738">
        <ele>857</ele>
        <time>2011-08-01T12:58:59Z</time>
      </trkpt>
      <trkpt lat="45.85827" lon="6.12735">
        <ele>860</ele>
        <time>2011-08-01T12:59:06Z</time>
      </trkpt>
      <trkpt lat="45.85813" lon="6.12731">
        <ele>861</ele>
        <time>2011-08-01T12:59:14Z</time>
      </trkpt>
      <trkpt lat="45.85801" lon="6.12731">
        <ele>862</ele>
        <time>2011-08-01T12:59:20Z</time>
      </trkpt>
      <trkpt lat="45.85788" lon="6.12731">
        <ele>863</ele>
        <time>2011-08-01T12:59:27Z</time>
      </trkpt>
      <trkpt lat="45.85777" lon="6.12734">
        <ele>864</ele>
        <time>2011-08-01T12:59:33Z</time>
      </trkpt>
      <trkpt lat="45.85774" lon="6.12735">
        <ele>864</ele>
        <time>2011-08-01T12:59:35Z</time>
      </trkpt>
      <trkpt lat="45.85765" lon="6.12739">
        <ele>864</ele>
        <time>2011-08-01T12:59:40Z</time>
      </trkpt>
      <trkpt lat="45.85754" lon="6.12747">
        <ele>866</ele>
        <time>2011-08-01T12:59:46Z</time>
      </trkpt>
      <trkpt lat="45.85749" lon="6.1275">
        <ele>866</ele>
        <time>2011-08-01T12:59:48Z</time>
      </trkpt>
      <trkpt lat="45.85737" lon="6.12757">
        <ele>867</ele>
        <time>2011-08-01T12:59:55Z</time>
      </trkpt>
      <trkpt lat="45.85727" lon="6.12759">
        <ele>868</ele>
        <time>2011-08-01T13:00:01Z</time>
      </trkpt>
      <trkpt lat="45.85716" lon="6.1276">
        <ele>869</ele>
        <time>2011-08-01T13:00:07Z</time>
      </trkpt>
      <trkpt lat="45.85715" lon="6.1276">
        <ele>869</ele>
        <time>2011-08-01T13:00:08Z</time>
      </trkpt>
      <trkpt lat="45.85709" lon="6.12762">
        <ele>869</ele>
        <time>2011-08-01T13:00:14Z</time>
      </trkpt>
      <trkpt lat="45.85705" lon="6.12761">
        <ele>870</ele>
        <time>2011-08-01T13:00:21Z</time>
      </trkpt>
      <trkpt lat="45.85697" lon="6.1276">
        <ele>870</ele>
        <time>2011-08-01T13:00:27Z</time>
      </trkpt>
      <trkpt lat="45.85686" lon="6.12754">
        <ele>872</ele>
        <time>2011-08-01T13:00:34Z</time>
      </trkpt>
      <trkpt lat="45.85676" lon="6.12752">
        <ele>874</ele>
        <time>2011-08-01T13:00:41Z</time>
      </trkpt>
      <trkpt lat="45.85664" lon="6.1275">
        <ele>876</ele>
        <time>2011-08-01T13:00:49Z</time>
      </trkpt>
      <trkpt lat="45.85656" lon="6.1275">
        <ele>877</ele>
        <time>2011-08-01T13:00:54Z</time>
      </trkpt>
      <trkpt lat="45.8565" lon="6.12751">
        <ele>878</ele>
        <time>2011-08-01T13:01:00Z</time>
      </trkpt>
      <trkpt lat="45.85649" lon="6.12752">
        <ele>878</ele>
        <time>2011-08-01T13:01:06Z</time>
      </trkpt>
      <trkpt lat="45.85643" lon="6.12753">
        <ele>878</ele>
        <time>2011-08-01T13:01:13Z</time>
      </trkpt>
      <trkpt lat="45.85632" lon="6.12756">
        <ele>879</ele>
        <time>2011-08-01T13:01:20Z</time>
      </trkpt>
      <trkpt lat="45.85625" lon="6.12758">
        <ele>880</ele>
        <time>2011-08-01T13:01:25Z</time>
      </trkpt>
      <trkpt lat="45.85614" lon="6.12761">
        <ele>881</ele>
        <time>2011-08-01T13:01:32Z</time>
      </trkpt>
      <trkpt lat="45.85596" lon="6.12764">
        <ele>883</ele>
        <time>2011-08-01T13:01:42Z</time>
      </trkpt>
      <trkpt lat="45.85583" lon="6.12773">
        <ele>882</ele>
        <time>2011-08-01T13:01:50Z</time>
      </trkpt>
      <trkpt lat="45.85577" lon="6.12778">
        <ele>888</ele>
        <time>2011-08-01T13:01:55Z</time>
      </trkpt>
      <trkpt lat="45.85576" lon="6.12776">
        <ele>888</ele>
        <time>2011-08-01T13:02:04Z</time>
      </trkpt>
      <trkpt lat="45.85577" lon="6.12785">
        <ele>888</ele>
        <time>2011-08-01T13:02:20Z</time>
      </trkpt>
      <trkpt lat="45.85577" lon="6.12784">
        <ele>888</ele>
        <time>2011-08-01T13:02:28Z</time>
      </trkpt>
      <trkpt lat="45.85576" lon="6.12785">
        <ele>888</ele>
        <time>2011-08-01T13:02:29Z</time>
      </trkpt>
      <trkpt lat="45.85569" lon="6.12787">
        <ele>888</ele>
        <time>2011-08-01T13:02:33Z</time>
      </trkpt>
      <trkpt lat="45.85554" lon="6.12791">
        <ele>889</ele>
        <time>2011-08-01T13:02:40Z</time>
      </trkpt>
      <trkpt lat="45.8554" lon="6.12795">
        <ele>890</ele>
        <time>2011-08-01T13:02:46Z</time>
      </trkpt>
      <trkpt lat="45.85527" lon="6.12804">
        <ele>891</ele>
        <time>2011-08-01T13:02:53Z</time>
      </trkpt>
      <trkpt lat="45.85516" lon="6.12815">
        <ele>891</ele>
        <time>2011-08-01T13:03:00Z</time>
      </trkpt>
      <trkpt lat="45.85507" lon="6.12827">
        <ele>891</ele>
        <time>2011-08-01T13:03:05Z</time>
      </trkpt>
      <trkpt lat="45.855" lon="6.12831">
        <ele>893</ele>
        <time>2011-08-01T13:03:09Z</time>
      </trkpt>
      <trkpt lat="45.85483" lon="6.12844">
        <ele>891</ele>
        <time>2011-08-01T13:03:14Z</time>
      </trkpt>
      <trkpt lat="45.85466" lon="6.12859">
        <ele>891</ele>
        <time>2011-08-01T13:03:19Z</time>
      </trkpt>
      <trkpt lat="45.8546" lon="6.12866">
        <ele>891</ele>
        <time>2011-08-01T13:03:21Z</time>
      </trkpt>
      <trkpt lat="45.85445" lon="6.12873">
        <ele>891</ele>
        <time>2011-08-01T13:03:26Z</time>
      </trkpt>
      <trkpt lat="45.85421" lon="6.12876">
        <ele>892</ele>
        <time>2011-08-01T13:03:32Z</time>
      </trkpt>
      <trkpt lat="45.85405" lon="6.12875">
        <ele>895</ele>
        <time>2011-08-01T13:03:37Z</time>
      </trkpt>
      <trkpt lat="45.85389" lon="6.12883">
        <ele>895</ele>
        <time>2011-08-01T13:03:43Z</time>
      </trkpt>
      <trkpt lat="45.85373" lon="6.12896">
        <ele>895</ele>
        <time>2011-08-01T13:03:48Z</time>
      </trkpt>
      <trkpt lat="45.85361" lon="6.12917">
        <ele>889</ele>
        <time>2011-08-01T13:03:54Z</time>
      </trkpt>
      <trkpt lat="45.85357" lon="6.12926">
        <ele>889</ele>
        <time>2011-08-01T13:03:57Z</time>
      </trkpt>
      <trkpt lat="45.85343" lon="6.12936">
        <ele>889</ele>
        <time>2011-08-01T13:04:04Z</time>
      </trkpt>
      <trkpt lat="45.85341" lon="6.12938">
        <ele>889</ele>
        <time>2011-08-01T13:04:05Z</time>
      </trkpt>
      <trkpt lat="45.85331" lon="6.12948">
        <ele>889</ele>
        <time>2011-08-01T13:04:12Z</time>
      </trkpt>
      <trkpt lat="45.85326" lon="6.12949">
        <ele>888</ele>
        <time>2011-08-01T13:04:16Z</time>
      </trkpt>
      <trkpt lat="45.85322" lon="6.12951">
        <ele>888</ele>
        <time>2011-08-01T13:04:19Z</time>
      </trkpt>
      <trkpt lat="45.85315" lon="6.12947">
        <ele>888</ele>
        <time>2011-08-01T13:04:23Z</time>
      </trkpt>
      <trkpt lat="45.85315" lon="6.12943">
        <ele>889</ele>
        <time>2011-08-01T13:04:25Z</time>
      </trkpt>
      <trkpt lat="45.85315" lon="6.12938">
        <ele>890</ele>
        <time>2011-08-01T13:04:27Z</time>
      </trkpt>
      <trkpt lat="45.85313" lon="6.12933">
        <ele>890</ele>
        <time>2011-08-01T13:04:32Z</time>
      </trkpt>
      <trkpt lat="45.85309" lon="6.12927">
        <ele>890</ele>
        <time>2011-08-01T13:04:39Z</time>
      </trkpt>
      <trkpt lat="45.85306" lon="6.12921">
        <ele>891</ele>
        <time>2011-08-01T13:04:44Z</time>
      </trkpt>
      <trkpt lat="45.85299" lon="6.12914">
        <ele>899</ele>
        <time>2011-08-01T13:04:51Z</time>
      </trkpt>
      <trkpt lat="45.85297" lon="6.12912">
        <ele>899</ele>
        <time>2011-08-01T13:04:53Z</time>
      </trkpt>
      <trkpt lat="45.85292" lon="6.12904">
        <ele>900</ele>
        <time>2011-08-01T13:04:59Z</time>
      </trkpt>
      <trkpt lat="45.85292" lon="6.12902">
        <ele>900</ele>
        <time>2011-08-01T13:05:00Z</time>
      </trkpt>
      <trkpt lat="45.85286" lon="6.12886">
        <ele>901</ele>
        <time>2011-08-01T13:05:07Z</time>
      </trkpt>
      <trkpt lat="45.85277" lon="6.12879">
        <ele>901</ele>
        <time>2011-08-01T13:05:12Z</time>
      </trkpt>
      <trkpt lat="45.85266" lon="6.12872">
        <ele>902</ele>
        <time>2011-08-01T13:05:20Z</time>
      </trkpt>
      <trkpt lat="45.85262" lon="6.1287">
        <ele>902</ele>
        <time>2011-08-01T13:05:24Z</time>
      </trkpt>
      <trkpt lat="45.85252" lon="6.12869">
        <ele>903</ele>
        <time>2011-08-01T13:05:32Z</time>
      </trkpt>
      <trkpt lat="45.85242" lon="6.12868">
        <ele>907</ele>
        <time>2011-08-01T13:05:41Z</time>
      </trkpt>
      <trkpt lat="45.85237" lon="6.12867">
        <ele>907</ele>
        <time>2011-08-01T13:05:46Z</time>
      </trkpt>
      <trkpt lat="45.85232" lon="6.12865">
        <ele>908</ele>
        <time>2011-08-01T13:05:53Z</time>
      </trkpt>
      <trkpt lat="45.85224" lon="6.12862">
        <ele>908</ele>
        <time>2011-08-01T13:06:01Z</time>
      </trkpt>
      <trkpt lat="45.85215" lon="6.12863">
        <ele>908</ele>
        <time>2011-08-01T13:06:09Z</time>
      </trkpt>
      <trkpt lat="45.85209" lon="6.12869">
        <ele>908</ele>
        <time>2011-08-01T13:06:20Z</time>
      </trkpt>
      <trkpt lat="45.85202" lon="6.12872">
        <ele>908</ele>
        <time>2011-08-01T13:06:26Z</time>
      </trkpt>
      <trkpt lat="45.85195" lon="6.12872">
        <ele>909</ele>
        <time>2011-08-01T13:06:33Z</time>
      </trkpt>
      <trkpt lat="45.85194" lon="6.12872">
        <ele>909</ele>
        <time>2011-08-01T13:06:34Z</time>
      </trkpt>
      <trkpt lat="45.85191" lon="6.12871">
        <ele>909</ele>
        <time>2011-08-01T13:06:36Z</time>
      </trkpt>
      <trkpt lat="45.85185" lon="6.12869">
        <ele>910</ele>
        <time>2011-08-01T13:06:44Z</time>
      </trkpt>
      <trkpt lat="45.85182" lon="6.12868">
        <ele>910</ele>
        <time>2011-08-01T13:06:49Z</time>
      </trkpt>
      <trkpt lat="45.85177" lon="6.12865">
        <ele>911</ele>
        <time>2011-08-01T13:06:55Z</time>
      </trkpt>
      <trkpt lat="45.85175" lon="6.12862">
        <ele>911</ele>
        <time>2011-08-01T13:07:03Z</time>
      </trkpt>
      <trkpt lat="45.85176" lon="6.12856">
        <ele>912</ele>
        <time>2011-08-01T13:07:09Z</time>
      </trkpt>
      <trkpt lat="45.85178" lon="6.12854">
        <ele>912</ele>
        <time>2011-08-01T13:07:14Z</time>
      </trkpt>
      <trkpt lat="45.85181" lon="6.12851">
        <ele>913</ele>
        <time>2011-08-01T13:07:19Z</time>
      </trkpt>
      <trkpt lat="45.85183" lon="6.12844">
        <ele>913</ele>
        <time>2011-08-01T13:07:25Z</time>
      </trkpt>
      <trkpt lat="45.85182" lon="6.1284">
        <ele>914</ele>
        <time>2011-08-01T13:07:30Z</time>
      </trkpt>
      <trkpt lat="45.8518" lon="6.12833">
        <ele>915</ele>
        <time>2011-08-01T13:07:36Z</time>
      </trkpt>
      <trkpt lat="45.85179" lon="6.12831">
        <ele>921</ele>
        <time>2011-08-01T13:07:44Z</time>
      </trkpt>
      <trkpt lat="45.85175" lon="6.12829">
        <ele>921</ele>
        <time>2011-08-01T13:07:50Z</time>
      </trkpt>
      <trkpt lat="45.85169" lon="6.12832">
        <ele>920</ele>
        <time>2011-08-01T13:07:56Z</time>
      </trkpt>
      <trkpt lat="45.8516" lon="6.12835">
        <ele>919</ele>
        <time>2011-08-01T13:08:03Z</time>
      </trkpt>
      <trkpt lat="45.85151" lon="6.12835">
        <ele>919</ele>
        <time>2011-08-01T13:08:10Z</time>
      </trkpt>
      <trkpt lat="45.85151" lon="6.12835">
        <ele>919</ele>
        <time>2011-08-01T13:08:11Z</time>
      </trkpt>
      <trkpt lat="45.85142" lon="6.12829">
        <ele>926</ele>
        <time>2011-08-01T13:08:17Z</time>
      </trkpt>
      <trkpt lat="45.85138" lon="6.12828">
        <ele>927</ele>
        <time>2011-08-01T13:08:19Z</time>
      </trkpt>
      <trkpt lat="45.8513" lon="6.12821">
        <ele>928</ele>
        <time>2011-08-01T13:08:24Z</time>
      </trkpt>
      <trkpt lat="45.85113" lon="6.12808">
        <ele>929</ele>
        <time>2011-08-01T13:08:30Z</time>
      </trkpt>
      <trkpt lat="45.851" lon="6.12802">
        <ele>930</ele>
        <time>2011-08-01T13:08:35Z</time>
      </trkpt>
      <trkpt lat="45.85094" lon="6.12802">
        <ele>930</ele>
        <time>2011-08-01T13:08:37Z</time>
      </trkpt>
      <trkpt lat="45.85081" lon="6.12796">
        <ele>937</ele>
        <time>2011-08-01T13:08:43Z</time>
      </trkpt>
      <trkpt lat="45.85078" lon="6.12794">
        <ele>938</ele>
        <time>2011-08-01T13:08:46Z</time>
      </trkpt>
      <trkpt lat="45.85075" lon="6.12794">
        <ele>938</ele>
        <time>2011-08-01T13:08:49Z</time>
      </trkpt>
      <trkpt lat="45.8507" lon="6.12794">
        <ele>938</ele>
        <time>2011-08-01T13:08:55Z</time>
      </trkpt>
      <trkpt lat="45.85064" lon="6.12791">
        <ele>939</ele>
        <time>2011-08-01T13:08:59Z</time>
      </trkpt>
      <trkpt lat="45.85061" lon="6.1279">
        <ele>939</ele>
        <time>2011-08-01T13:09:01Z</time>
      </trkpt>
      <trkpt lat="45.85052" lon="6.1279">
        <ele>940</ele>
        <time>2011-08-01T13:09:08Z</time>
      </trkpt>
      <trkpt lat="45.85048" lon="6.12787">
        <ele>940</ele>
        <time>2011-08-01T13:09:15Z</time>
      </trkpt>
      <trkpt lat="45.85046" lon="6.12788">
        <ele>940</ele>
        <time>2011-08-01T13:09:20Z</time>
      </trkpt>
      <trkpt lat="45.85038" lon="6.12791">
        <ele>941</ele>
        <time>2011-08-01T13:09:42Z</time>
      </trkpt>
      <trkpt lat="45.85036" lon="6.1279">
        <ele>941</ele>
        <time>2011-08-01T13:09:48Z</time>
      </trkpt>
      <trkpt lat="45.85029" lon="6.12789">
        <ele>941</ele>
        <time>2011-08-01T13:09:54Z</time>
      </trkpt>
      <trkpt lat="45.85025" lon="6.12788">
        <ele>942</ele>
        <time>2011-08-01T13:09:58Z</time>
      </trkpt>
      <trkpt lat="45.8502" lon="6.12785">
        <ele>942</ele>
        <time>2011-08-01T13:10:03Z</time>
      </trkpt>
      <trkpt lat="45.8501" lon="6.12782">
        <ele>943</ele>
        <time>2011-08-01T13:10:12Z</time>
      </trkpt>
      <trkpt lat="45.85009" lon="6.12781">
        <ele>944</ele>
        <time>2011-08-01T13:10:13Z</time>
      </trkpt>
      <trkpt lat="45.85006" lon="6.12779">
        <ele>944</ele>
        <time>2011-08-01T13:10:17Z</time>
      </trkpt>
      <trkpt lat="45.85001" lon="6.12779">
        <ele>944</ele>
        <time>2011-08-01T13:10:26Z</time>
      </trkpt>
      <trkpt lat="45.84995" lon="6.12777">
        <ele>950</ele>
        <time>2011-08-01T13:10:38Z</time>
      </trkpt>
      <trkpt lat="45.84995" lon="6.12776">
        <ele>950</ele>
        <time>2011-08-01T13:10:44Z</time>
      </trkpt>
      <trkpt lat="45.84994" lon="6.12774">
        <ele>950</ele>
        <time>2011-08-01T13:10:51Z</time>
      </trkpt>
      <trkpt lat="45.84992" lon="6.12774">
        <ele>950</ele>
        <time>2011-08-01T13:11:11Z</time>
      </trkpt>
      <trkpt lat="45.84975" lon="6.12771">
        <ele>950</ele>
        <time>2011-08-01T13:11:33Z</time>
      </trkpt>
      <trkpt lat="45.84971" lon="6.12769">
        <ele>950</ele>
        <time>2011-08-01T13:11:39Z</time>
      </trkpt>
      <trkpt lat="45.84964" lon="6.12767">
        <ele>950</ele>
        <time>2011-08-01T13:11:45Z</time>
      </trkpt>
      <trkpt lat="45.84956" lon="6.1276">
        <ele>951</ele>
        <time>2011-08-01T13:11:54Z</time>
      </trkpt>
      <trkpt lat="45.84955" lon="6.12754">
        <ele>951</ele>
        <time>2011-08-01T13:12:06Z</time>
      </trkpt>
      <trkpt lat="45.84955" lon="6.12742">
        <ele>959</ele>
        <time>2011-08-01T13:12:12Z</time>
      </trkpt>
      <trkpt lat="45.84959" lon="6.12732">
        <ele>959</ele>
        <time>2011-08-01T13:12:17Z</time>
      </trkpt>
      <trkpt lat="45.84962" lon="6.12727">
        <ele>960</ele>
        <time>2011-08-01T13:12:22Z</time>
      </trkpt>
      <trkpt lat="45.84964" lon="6.12719">
        <ele>960</ele>
        <time>2011-08-01T13:12:29Z</time>
      </trkpt>
      <trkpt lat="45.84966" lon="6.12716">
        <ele>960</ele>
        <time>2011-08-01T13:12:40Z</time>
      </trkpt>
      <trkpt lat="45.84966" lon="6.12709">
        <ele>961</ele>
        <time>2011-08-01T13:12:44Z</time>
      </trkpt>
      <trkpt lat="45.84966" lon="6.12705">
        <ele>961</ele>
        <time>2011-08-01T13:12:53Z</time>
      </trkpt>
      <trkpt lat="45.84966" lon="6.127">
        <ele>961</ele>
        <time>2011-08-01T13:13:05Z</time>
      </trkpt>
      <trkpt lat="45.84966" lon="6.127">
        <ele>961</ele>
        <time>2011-08-01T13:13:14Z</time>
      </trkpt>
      <trkpt lat="45.84967" lon="6.12696">
        <ele>961</ele>
        <time>2011-08-01T13:13:19Z</time>
      </trkpt>
      <trkpt lat="45.84969" lon="6.1269">
        <ele>962</ele>
        <time>2011-08-01T13:13:26Z</time>
      </trkpt>
      <trkpt lat="45.84971" lon="6.12681">
        <ele>962</ele>
        <time>2011-08-01T13:13:32Z</time>
      </trkpt>
      <trkpt lat="45.84972" lon="6.12669">
        <ele>962</ele>
        <time>2011-08-01T13:13:41Z</time>
      </trkpt>
      <trkpt lat="45.84974" lon="6.12664">
        <ele>968</ele>
        <time>2011-08-01T13:13:46Z</time>
      </trkpt>
      <trkpt lat="45.84978" lon="6.12652">
        <ele>969</ele>
        <time>2011-08-01T13:13:55Z</time>
      </trkpt>
      <trkpt lat="45.84981" lon="6.12638">
        <ele>970</ele>
        <time>2011-08-01T13:14:01Z</time>
      </trkpt>
      <trkpt lat="45.84982" lon="6.12635">
        <ele>970</ele>
        <time>2011-08-01T13:14:02Z</time>
      </trkpt>
      <trkpt lat="45.84987" lon="6.12623">
        <ele>970</ele>
        <time>2011-08-01T13:14:07Z</time>
      </trkpt>
      <trkpt lat="45.84996" lon="6.12606">
        <ele>971</ele>
        <time>2011-08-01T13:14:14Z</time>
      </trkpt>
      <trkpt lat="45.85" lon="6.12596">
        <ele>971</ele>
        <time>2011-08-01T13:14:28Z</time>
      </trkpt>
      <trkpt lat="45.85001" lon="6.1259">
        <ele>969</ele>
        <time>2011-08-01T13:14:32Z</time>
      </trkpt>
      <trkpt lat="45.85002" lon="6.12578">
        <ele>971</ele>
        <time>2011-08-01T13:14:38Z</time>
      </trkpt>
      <trkpt lat="45.85004" lon="6.12561">
        <ele>970</ele>
        <time>2011-08-01T13:14:44Z</time>
      </trkpt>
      <trkpt lat="45.85007" lon="6.12543">
        <ele>971</ele>
        <time>2011-08-01T13:14:50Z</time>
      </trkpt>
      <trkpt lat="45.8501" lon="6.12529">
        <ele>972</ele>
        <time>2011-08-01T13:14:55Z</time>
      </trkpt>
      <trkpt lat="45.85011" lon="6.12522">
        <ele>973</ele>
        <time>2011-08-01T13:15:00Z</time>
      </trkpt>
      <trkpt lat="45.85012" lon="6.12514">
        <ele>974</ele>
        <time>2011-08-01T13:15:05Z</time>
      </trkpt>
      <trkpt lat="45.85013" lon="6.12504">
        <ele>975</ele>
        <time>2011-08-01T13:15:12Z</time>
      </trkpt>
      <trkpt lat="45.85013" lon="6.12502">
        <ele>975</ele>
        <time>2011-08-01T13:15:13Z</time>
      </trkpt>
      <trkpt lat="45.85011" lon="6.12499">
        <ele>977</ele>
        <time>2011-08-01T13:15:21Z</time>
      </trkpt>
      <trkpt lat="45.8501" lon="6.12497">
        <ele>978</ele>
        <time>2011-08-01T13:15:29Z</time>
      </trkpt>
      <trkpt lat="45.8501" lon="6.12487">
        <ele>977</ele>
        <time>2011-08-01T13:15:36Z</time>
      </trkpt>
      <trkpt lat="45.85009" lon="6.12485">
        <ele>977</ele>
        <time>2011-08-01T13:15:39Z</time>
      </trkpt>
      <trkpt lat="45.85007" lon="6.12479">
        <ele>976</ele>
        <time>2011-08-01T13:15:47Z</time>
      </trkpt>
      <trkpt lat="45.85009" lon="6.12468">
        <ele>976</ele>
        <time>2011-08-01T13:15:53Z</time>
      </trkpt>
      <trkpt lat="45.85008" lon="6.12462">
        <ele>976</ele>
        <time>2011-08-01T13:15:58Z</time>
      </trkpt>
      <trkpt lat="45.85002" lon="6.12453">
        <ele>976</ele>
        <time>2011-08-01T13:16:15Z</time>
      </trkpt>
      <trkpt lat="45.85001" lon="6.12446">
        <ele>977</ele>
        <time>2011-08-01T13:16:20Z</time>
      </trkpt>
      <trkpt lat="45.84998" lon="6.12442">
        <ele>986</ele>
        <time>2011-08-01T13:16:25Z</time>
      </trkpt>
      <trkpt lat="45.84996" lon="6.12429">
        <ele>985</ele>
        <time>2011-08-01T13:16:31Z</time>
      </trkpt>
      <trkpt lat="45.84996" lon="6.12424">
        <ele>985</ele>
        <time>2011-08-01T13:16:34Z</time>
      </trkpt>
      <trkpt lat="45.84993" lon="6.12417">
        <ele>984</ele>
        <time>2011-08-01T13:16:40Z</time>
      </trkpt>
      <trkpt lat="45.84988" lon="6.12398">
        <ele>988</ele>
        <time>2011-08-01T13:16:47Z</time>
      </trkpt>
      <trkpt lat="45.84985" lon="6.12374">
        <ele>990</ele>
        <time>2011-08-01T13:16:53Z</time>
      </trkpt>
      <trkpt lat="45.84985" lon="6.1236">
        <ele>990</ele>
        <time>2011-08-01T13:16:58Z</time>
      </trkpt>
      <trkpt lat="45.84985" lon="6.12342">
        <ele>989</ele>
        <time>2011-08-01T13:17:03Z</time>
      </trkpt>
      <trkpt lat="45.84977" lon="6.12328">
        <ele>990</ele>
        <time>2011-08-01T13:17:07Z</time>
      </trkpt>
      <trkpt lat="45.84972" lon="6.12312">
        <ele>991</ele>
        <time>2011-08-01T13:17:12Z</time>
      </trkpt>
      <trkpt lat="45.84971" lon="6.12308">
        <ele>992</ele>
        <time>2011-08-01T13:17:13Z</time>
      </trkpt>
      <trkpt lat="45.84968" lon="6.12293">
        <ele>992</ele>
        <time>2011-08-01T13:17:18Z</time>
      </trkpt>
      <trkpt lat="45.84964" lon="6.12274">
        <ele>992</ele>
        <time>2011-08-01T13:17:23Z</time>
      </trkpt>
      <trkpt lat="45.84956" lon="6.12259">
        <ele>993</ele>
        <time>2011-08-01T13:17:27Z</time>
      </trkpt>
      <trkpt lat="45.84952" lon="6.1224">
        <ele>993</ele>
        <time>2011-08-01T13:17:30Z</time>
      </trkpt>
      <trkpt lat="45.84951" lon="6.12222">
        <ele>993</ele>
        <time>2011-08-01T13:17:35Z</time>
      </trkpt>
      <trkpt lat="45.8495" lon="6.12204">
        <ele>993</ele>
        <time>2011-08-01T13:17:41Z</time>
      </trkpt>
      <trkpt lat="45.84951" lon="6.12201">
        <ele>993</ele>
        <time>2011-08-01T13:17:42Z</time>
      </trkpt>
      <trkpt lat="45.84951" lon="6.12195">
        <ele>993</ele>
        <time>2011-08-01T13:17:44Z</time>
      </trkpt>
      <trkpt lat="45.84953" lon="6.12179">
        <ele>993</ele>
        <time>2011-08-01T13:17:50Z</time>
      </trkpt>
      <trkpt lat="45.8495" lon="6.1217">
        <ele>993</ele>
        <time>2011-08-01T13:17:54Z</time>
      </trkpt>
      <trkpt lat="45.84947" lon="6.12164">
        <ele>992</ele>
        <time>2011-08-01T13:17:56Z</time>
      </trkpt>
      <trkpt lat="45.84941" lon="6.12142">
        <ele>992</ele>
        <time>2011-08-01T13:18:03Z</time>
      </trkpt>
      <trkpt lat="45.84941" lon="6.12129">
        <ele>991</ele>
        <time>2011-08-01T13:18:09Z</time>
      </trkpt>
      <trkpt lat="45.8494" lon="6.12125">
        <ele>991</ele>
        <time>2011-08-01T13:18:11Z</time>
      </trkpt>
      <trkpt lat="45.84936" lon="6.12111">
        <ele>991</ele>
        <time>2011-08-01T13:18:18Z</time>
      </trkpt>
      <trkpt lat="45.84934" lon="6.12105">
        <ele>991</ele>
        <time>2011-08-01T13:18:20Z</time>
      </trkpt>
      <trkpt lat="45.84927" lon="6.12077">
        <ele>990</ele>
        <time>2011-08-01T13:18:26Z</time>
      </trkpt>
      <trkpt lat="45.84923" lon="6.12049">
        <ele>986</ele>
        <time>2011-08-01T13:18:30Z</time>
      </trkpt>
      <trkpt lat="45.84923" lon="6.12042">
        <ele>986</ele>
        <time>2011-08-01T13:18:31Z</time>
      </trkpt>
      <trkpt lat="45.84925" lon="6.1203">
        <ele>985</ele>
        <time>2011-08-01T13:18:36Z</time>
      </trkpt>
      <trkpt lat="45.84922" lon="6.12032">
        <ele>985</ele>
        <time>2011-08-01T13:18:42Z</time>
      </trkpt>
      <trkpt lat="45.84925" lon="6.1203">
        <ele>985</ele>
        <time>2011-08-01T13:18:50Z</time>
      </trkpt>
      <trkpt lat="45.84928" lon="6.12029">
        <ele>985</ele>
        <time>2011-08-01T13:18:57Z</time>
      </trkpt>
      <trkpt lat="45.84933" lon="6.1202">
        <ele>984</ele>
        <time>2011-08-01T13:19:01Z</time>
      </trkpt>
      <trkpt lat="45.84933" lon="6.11997">
        <ele>981</ele>
        <time>2011-08-01T13:19:07Z</time>
      </trkpt>
      <trkpt lat="45.84934" lon="6.11985">
        <ele>979</ele>
        <time>2011-08-01T13:19:11Z</time>
      </trkpt>
      <trkpt lat="45.84937" lon="6.11962">
        <ele>977</ele>
        <time>2011-08-01T13:19:17Z</time>
      </trkpt>
      <trkpt lat="45.84942" lon="6.11934">
        <ele>976</ele>
        <time>2011-08-01T13:19:23Z</time>
      </trkpt>
      <trkpt lat="45.84942" lon="6.11917">
        <ele>976</ele>
        <time>2011-08-01T13:19:28Z</time>
      </trkpt>
      <trkpt lat="45.84938" lon="6.11894">
        <ele>972</ele>
        <time>2011-08-01T13:19:34Z</time>
      </trkpt>
      <trkpt lat="45.8493" lon="6.11876">
        <ele>971</ele>
        <time>2011-08-01T13:19:39Z</time>
      </trkpt>
      <trkpt lat="45.84922" lon="6.11847">
        <ele>972</ele>
        <time>2011-08-01T13:19:44Z</time>
      </trkpt>
      <trkpt lat="45.84921" lon="6.1183">
        <ele>972</ele>
        <time>2011-08-01T13:19:48Z</time>
      </trkpt>
      <trkpt lat="45.84922" lon="6.11825">
        <ele>970</ele>
        <time>2011-08-01T13:19:50Z</time>
      </trkpt>
      <trkpt lat="45.84925" lon="6.11811">
        <ele>967</ele>
        <time>2011-08-01T13:19:55Z</time>
      </trkpt>
      <trkpt lat="45.84925" lon="6.11799">
        <ele>965</ele>
        <time>2011-08-01T13:19:59Z</time>
      </trkpt>
      <trkpt lat="45.84924" lon="6.11789">
        <ele>965</ele>
        <time>2011-08-01T13:20:02Z</time>
      </trkpt>
      <trkpt lat="45.84928" lon="6.11779">
        <ele>964</ele>
        <time>2011-08-01T13:20:05Z</time>
      </trkpt>
      <trkpt lat="45.84929" lon="6.11775">
        <ele>964</ele>
        <time>2011-08-01T13:20:07Z</time>
      </trkpt>
      <trkpt lat="45.84926" lon="6.11765">
        <ele>965</ele>
        <time>2011-08-01T13:20:11Z</time>
      </trkpt>
      <trkpt lat="45.84924" lon="6.11752">
        <ele>965</ele>
        <time>2011-08-01T13:20:15Z</time>
      </trkpt>
      <trkpt lat="45.84926" lon="6.11732">
        <ele>961</ele>
        <time>2011-08-01T13:20:21Z</time>
      </trkpt>
      <trkpt lat="45.84923" lon="6.11717">
        <ele>959</ele>
        <time>2011-08-01T13:20:26Z</time>
      </trkpt>
      <trkpt lat="45.84922" lon="6.11704">
        <ele>959</ele>
        <time>2011-08-01T13:20:31Z</time>
      </trkpt>
      <trkpt lat="45.84922" lon="6.11688">
        <ele>959</ele>
        <time>2011-08-01T13:20:37Z</time>
      </trkpt>
      <trkpt lat="45.84923" lon="6.11674">
        <ele>961</ele>
        <time>2011-08-01T13:20:41Z</time>
      </trkpt>
      <trkpt lat="45.84923" lon="6.11671">
        <ele>961</ele>
        <time>2011-08-01T13:20:42Z</time>
      </trkpt>
      <trkpt lat="45.8492" lon="6.11656">
        <ele>959</ele>
        <time>2011-08-01T13:20:47Z</time>
      </trkpt>
      <trkpt lat="45.84911" lon="6.11641">
        <ele>967</ele>
        <time>2011-08-01T13:20:53Z</time>
      </trkpt>
      <trkpt lat="45.84908" lon="6.11635">
        <ele>967</ele>
        <time>2011-08-01T13:20:55Z</time>
      </trkpt>
      <trkpt lat="45.84894" lon="6.11616">
        <ele>967</ele>
        <time>2011-08-01T13:21:03Z</time>
      </trkpt>
      <trkpt lat="45.84881" lon="6.11601">
        <ele>968</ele>
        <time>2011-08-01T13:21:10Z</time>
      </trkpt>
      <trkpt lat="45.84867" lon="6.11591">
        <ele>970</ele>
        <time>2011-08-01T13:21:17Z</time>
      </trkpt>
      <trkpt lat="45.84856" lon="6.11582">
        <ele>968</ele>
        <time>2011-08-01T13:21:23Z</time>
      </trkpt>
      <trkpt lat="45.84853" lon="6.11578">
        <ele>969</ele>
        <time>2011-08-01T13:21:25Z</time>
      </trkpt>
      <trkpt lat="45.84843" lon="6.11568">
        <ele>969</ele>
        <time>2011-08-01T13:21:32Z</time>
      </trkpt>
      <trkpt lat="45.84832" lon="6.11556">
        <ele>975</ele>
        <time>2011-08-01T13:21:39Z</time>
      </trkpt>
      <trkpt lat="45.84827" lon="6.11552">
        <ele>975</ele>
        <time>2011-08-01T13:21:43Z</time>
      </trkpt>
      <trkpt lat="45.84827" lon="6.11552">
        <ele>975</ele>
        <time>2011-08-01T13:21:49Z</time>
      </trkpt>
      <trkpt lat="45.84824" lon="6.11546">
        <ele>975</ele>
        <time>2011-08-01T13:21:53Z</time>
      </trkpt>
      <trkpt lat="45.84812" lon="6.11527">
        <ele>974</ele>
        <time>2011-08-01T13:22:02Z</time>
      </trkpt>
      <trkpt lat="45.848" lon="6.11509">
        <ele>974</ele>
        <time>2011-08-01T13:22:11Z</time>
      </trkpt>
      <trkpt lat="45.8479" lon="6.115">
        <ele>975</ele>
        <time>2011-08-01T13:22:17Z</time>
      </trkpt>
      <trkpt lat="45.84782" lon="6.11495">
        <ele>970</ele>
        <time>2011-08-01T13:22:22Z</time>
      </trkpt>
      <trkpt lat="45.84776" lon="6.11492">
        <ele>970</ele>
        <time>2011-08-01T13:22:26Z</time>
      </trkpt>
      <trkpt lat="45.84764" lon="6.11488">
        <ele>972</ele>
        <time>2011-08-01T13:22:33Z</time>
      </trkpt>
      <trkpt lat="45.84752" lon="6.11485">
        <ele>972</ele>
        <time>2011-08-01T13:22:39Z</time>
      </trkpt>
      <trkpt lat="45.84735" lon="6.11485">
        <ele>976</ele>
        <time>2011-08-01T13:22:47Z</time>
      </trkpt>
      <trkpt lat="45.84726" lon="6.11495">
        <ele>976</ele>
        <time>2011-08-01T13:22:53Z</time>
      </trkpt>
      <trkpt lat="45.84721" lon="6.1151">
        <ele>983</ele>
        <time>2011-08-01T13:22:58Z</time>
      </trkpt>
      <trkpt lat="45.84716" lon="6.11524">
        <ele>984</ele>
        <time>2011-08-01T13:23:03Z</time>
      </trkpt>
      <trkpt lat="45.84707" lon="6.11538">
        <ele>985</ele>
        <time>2011-08-01T13:23:09Z</time>
      </trkpt>
      <trkpt lat="45.84694" lon="6.11537">
        <ele>985</ele>
        <time>2011-08-01T13:23:15Z</time>
      </trkpt>
      <trkpt lat="45.84682" lon="6.11535">
        <ele>986</ele>
        <time>2011-08-01T13:23:21Z</time>
      </trkpt>
      <trkpt lat="45.84679" lon="6.11532">
        <ele>986</ele>
        <time>2011-08-01T13:23:25Z</time>
      </trkpt>
      <trkpt lat="45.84675" lon="6.11528">
        <ele>985</ele>
        <time>2011-08-01T13:23:32Z</time>
      </trkpt>
      <trkpt lat="45.84662" lon="6.11522">
        <ele>991</ele>
        <time>2011-08-01T13:23:39Z</time>
      </trkpt>
      <trkpt lat="45.84653" lon="6.11513">
        <ele>990</ele>
        <time>2011-08-01T13:23:46Z</time>
      </trkpt>
      <trkpt lat="45.84644" lon="6.11499">
        <ele>985</ele>
        <time>2011-08-01T13:23:54Z</time>
      </trkpt>
      <trkpt lat="45.84632" lon="6.11483">
        <ele>986</ele>
        <time>2011-08-01T13:24:03Z</time>
      </trkpt>
      <trkpt lat="45.84623" lon="6.11475">
        <ele>986</ele>
        <time>2011-08-01T13:24:09Z</time>
      </trkpt>
      <trkpt lat="45.84608" lon="6.11468">
        <ele>987</ele>
        <time>2011-08-01T13:24:18Z</time>
      </trkpt>
      <trkpt lat="45.84597" lon="6.11462">
        <ele>987</ele>
        <time>2011-08-01T13:24:24Z</time>
      </trkpt>
      <trkpt lat="45.84585" lon="6.11458">
        <ele>987</ele>
        <time>2011-08-01T13:24:30Z</time>
      </trkpt>
      <trkpt lat="45.84573" lon="6.11455">
        <ele>993</ele>
        <time>2011-08-01T13:24:36Z</time>
      </trkpt>
      <trkpt lat="45.84549" lon="6.1145">
        <ele>994</ele>
        <time>2011-08-01T13:24:47Z</time>
      </trkpt>
      <trkpt lat="45.84534" lon="6.11441">
        <ele>994</ele>
        <time>2011-08-01T13:24:55Z</time>
      </trkpt>
      <trkpt lat="45.84522" lon="6.11427">
        <ele>993</ele>
        <time>2011-08-01T13:25:04Z</time>
      </trkpt>
      <trkpt lat="45.84513" lon="6.11421">
        <ele>993</ele>
        <time>2011-08-01T13:25:09Z</time>
      </trkpt>
      <trkpt lat="45.84495" lon="6.11411">
        <ele>993</ele>
        <time>2011-08-01T13:25:19Z</time>
      </trkpt>
      <trkpt lat="45.84484" lon="6.11408">
        <ele>994</ele>
        <time>2011-08-01T13:25:25Z</time>
      </trkpt>
      <trkpt lat="45.84465" lon="6.114">
        <ele>996</ele>
        <time>2011-08-01T13:25:35Z</time>
      </trkpt>
      <trkpt lat="45.8445" lon="6.11395">
        <ele>997</ele>
        <time>2011-08-01T13:25:43Z</time>
      </trkpt>
      <trkpt lat="45.84443" lon="6.11391">
        <ele>998</ele>
        <time>2011-08-01T13:25:47Z</time>
      </trkpt>
      <trkpt lat="45.8444" lon="6.11388">
        <ele>998</ele>
        <time>2011-08-01T13:25:52Z</time>
      </trkpt>
      <trkpt lat="45.84438" lon="6.11391">
        <ele>998</ele>
        <time>2011-08-01T13:25:57Z</time>
      </trkpt>
      <trkpt lat="45.84431" lon="6.1139">
        <ele>999</ele>
        <time>2011-08-01T13:26:36Z</time>
      </trkpt>
      <trkpt lat="45.84422" lon="6.11382">
        <ele>999</ele>
        <time>2011-08-01T13:26:43Z</time>
      </trkpt>
      <trkpt lat="45.84407" lon="6.11368">
        <ele>1011</ele>
        <time>2011-08-01T13:26:52Z</time>
      </trkpt>
      <trkpt lat="45.84393" lon="6.11354">
        <ele>1011</ele>
        <time>2011-08-01T13:27:01Z</time>
      </trkpt>
      <trkpt lat="45.84383" lon="6.11341">
        <ele>1012</ele>
        <time>2011-08-01T13:27:09Z</time>
      </trkpt>
      <trkpt lat="45.84371" lon="6.11331">
        <ele>1009</ele>
        <time>2011-08-01T13:27:16Z</time>
      </trkpt>
      <trkpt lat="45.8436" lon="6.11322">
        <ele>1011</ele>
        <time>2011-08-01T13:27:23Z</time>
      </trkpt>
      <trkpt lat="45.84355" lon="6.11315">
        <ele>1012</ele>
        <time>2011-08-01T13:27:28Z</time>
      </trkpt>
      <trkpt lat="45.84347" lon="6.11298">
        <ele>1011</ele>
        <time>2011-08-01T13:27:36Z</time>
      </trkpt>
      <trkpt lat="45.84339" lon="6.11285">
        <ele>1010</ele>
        <time>2011-08-01T13:27:43Z</time>
      </trkpt>
      <trkpt lat="45.84327" lon="6.11278">
        <ele>1024</ele>
        <time>2011-08-01T13:27:50Z</time>
      </trkpt>
      <trkpt lat="45.84317" lon="6.11282">
        <ele>1026</ele>
        <time>2011-08-01T13:27:56Z</time>
      </trkpt>
      <trkpt lat="45.84312" lon="6.11292">
        <ele>1027</ele>
        <time>2011-08-01T13:28:02Z</time>
      </trkpt>
      <trkpt lat="45.84312" lon="6.11295">
        <ele>1027</ele>
        <time>2011-08-01T13:28:09Z</time>
      </trkpt>
      <trkpt lat="45.84316" lon="6.11292">
        <ele>1027</ele>
        <time>2011-08-01T13:28:24Z</time>
      </trkpt>
      <trkpt lat="45.8432" lon="6.11295">
        <ele>1027</ele>
        <time>2011-08-01T13:28:49Z</time>
      </trkpt>
      <trkpt lat="45.84317" lon="6.11296">
        <ele>1027</ele>
        <time>2011-08-01T13:29:06Z</time>
      </trkpt>
      <trkpt lat="45.84314" lon="6.11293">
        <ele>1027</ele>
        <time>2011-08-01T13:29:15Z</time>
      </trkpt>
      <trkpt lat="45.84314" lon="6.11293">
        <ele>1027</ele>
        <time>2011-08-01T13:29:56Z</time>
      </trkpt>
      <trkpt lat="45.84313" lon="6.11295">
        <ele>1027</ele>
        <time>2011-08-01T13:30:15Z</time>
      </trkpt>
      <trkpt lat="45.84312" lon="6.11292">
        <ele>1027</ele>
        <time>2011-08-01T13:30:32Z</time>
      </trkpt>
      <trkpt lat="45.84309" lon="6.11295">
        <ele>1028</ele>
        <time>2011-08-01T13:32:04Z</time>
      </trkpt>
      <trkpt lat="45.84312" lon="6.11294">
        <ele>1027</ele>
        <time>2011-08-01T13:32:30Z</time>
      </trkpt>
      <trkpt lat="45.84314" lon="6.11292">
        <ele>1027</ele>
        <time>2011-08-01T13:38:09Z</time>
      </trkpt>
      <trkpt lat="45.81409" lon="6.10956">
        <ele>1478</ele>
        <time>2011-08-01T14:42:25Z</time>
      </trkpt>
      <trkpt lat="45.81409" lon="6.10955">
        <ele>1478</ele>
        <time>2011-08-01T14:42:29Z</time>
      </trkpt>
      <trkpt lat="45.81407" lon="6.10953">
        <ele>1479</ele>
        <time>2011-08-01T14:42:32Z</time>
      </trkpt>
      <trkpt lat="45.81406" lon="6.10952">
        <ele>1479</ele>
        <time>2011-08-01T14:42:35Z</time>
      </trkpt>
      <trkpt lat="45.81403" lon="6.10953">
        <ele>1479</ele>
        <time>2011-08-01T14:42:47Z</time>
      </trkpt>
      <trkpt lat="45.8138" lon="6.10948">
        <ele>1481</ele>
        <time>2011-08-01T14:43:18Z</time>
      </trkpt>
      <trkpt lat="45.81381" lon="6.10945">
        <ele>1481</ele>
        <time>2011-08-01T14:43:20Z</time>
      </trkpt>
      <trkpt lat="45.8138" lon="6.10926">
        <ele>1481</ele>
        <time>2011-08-01T14:43:27Z</time>
      </trkpt>
      <trkpt lat="45.81377" lon="6.10905">
        <ele>1482</ele>
        <time>2011-08-01T14:43:33Z</time>
      </trkpt>
      <trkpt lat="45.81371" lon="6.10887">
        <ele>1483</ele>
        <time>2011-08-01T14:43:38Z</time>
      </trkpt>
      <trkpt lat="45.81371" lon="6.10862">
        <ele>1482</ele>
        <time>2011-08-01T14:43:42Z</time>
      </trkpt>
      <trkpt lat="45.81372" lon="6.10847">
        <ele>1482</ele>
        <time>2011-08-01T14:43:44Z</time>
      </trkpt>
      <trkpt lat="45.81373" lon="6.10829">
        <ele>1481</ele>
        <time>2011-08-01T14:43:46Z</time>
      </trkpt>
      <trkpt lat="45.81377" lon="6.10802">
        <ele>1480</ele>
        <time>2011-08-01T14:43:50Z</time>
      </trkpt>
      <trkpt lat="45.81376" lon="6.10798">
        <ele>1480</ele>
        <time>2011-08-01T14:43:51Z</time>
      </trkpt>
      <trkpt lat="45.81374" lon="6.10781">
        <ele>1480</ele>
        <time>2011-08-01T14:43:56Z</time>
      </trkpt>
      <trkpt lat="45.81377" lon="6.10758">
        <ele>1480</ele>
        <time>2011-08-01T14:44:02Z</time>
      </trkpt>
      <trkpt lat="45.8139" lon="6.10733">
        <ele>1476</ele>
        <time>2011-08-01T14:44:07Z</time>
      </trkpt>
      <trkpt lat="45.81398" lon="6.10714">
        <ele>1476</ele>
        <time>2011-08-01T14:44:11Z</time>
      </trkpt>
      <trkpt lat="45.81402" lon="6.10696">
        <ele>1475</ele>
        <time>2011-08-01T14:44:14Z</time>
      </trkpt>
      <trkpt lat="45.81395" lon="6.10672">
        <ele>1475</ele>
        <time>2011-08-01T14:44:19Z</time>
      </trkpt>
      <trkpt lat="45.81387" lon="6.10663">
        <ele>1476</ele>
        <time>2011-08-01T14:44:22Z</time>
      </trkpt>
      <trkpt lat="45.81384" lon="6.10658">
        <ele>1476</ele>
        <time>2011-08-01T14:44:27Z</time>
      </trkpt>
      <trkpt lat="45.8138" lon="6.10656">
        <ele>1477</ele>
        <time>2011-08-01T14:44:34Z</time>
      </trkpt>
      <trkpt lat="45.81376" lon="6.10655">
        <ele>1477</ele>
        <time>2011-08-01T14:44:38Z</time>
      </trkpt>
      <trkpt lat="45.81372" lon="6.10657">
        <ele>1477</ele>
        <time>2011-08-01T14:44:45Z</time>
      </trkpt>
      <trkpt lat="45.81371" lon="6.10661">
        <ele>1477</ele>
        <time>2011-08-01T14:44:47Z</time>
      </trkpt>
      <trkpt lat="45.81361" lon="6.10671">
        <ele>1478</ele>
        <time>2011-08-01T14:44:55Z</time>
      </trkpt>
      <trkpt lat="45.81353" lon="6.10668">
        <ele>1478</ele>
        <time>2011-08-01T14:45:00Z</time>
      </trkpt>
      <trkpt lat="45.81346" lon="6.10665">
        <ele>1479</ele>
        <time>2011-08-01T14:45:06Z</time>
      </trkpt>
      <trkpt lat="45.8135" lon="6.10674">
        <ele>1479</ele>
        <time>2011-08-01T14:45:14Z</time>
      </trkpt>
      <trkpt lat="45.8135" lon="6.10682">
        <ele>1479</ele>
        <time>2011-08-01T14:45:19Z</time>
      </trkpt>
      <trkpt lat="45.8135" lon="6.1069">
        <ele>1479</ele>
        <time>2011-08-01T14:45:24Z</time>
      </trkpt>
      <trkpt lat="45.81347" lon="6.10698">
        <ele>1479</ele>
        <time>2011-08-01T14:45:30Z</time>
      </trkpt>
      <trkpt lat="45.81342" lon="6.107">
        <ele>1479</ele>
        <time>2011-08-01T14:45:45Z</time>
      </trkpt>
      <trkpt lat="45.8134" lon="6.10697">
        <ele>1479</ele>
        <time>2011-08-01T14:45:49Z</time>
      </trkpt>
      <trkpt lat="45.81327" lon="6.10686">
        <ele>1487</ele>
        <time>2011-08-01T14:46:01Z</time>
      </trkpt>
      <trkpt lat="45.81322" lon="6.10683">
        <ele>1487</ele>
        <time>2011-08-01T14:46:04Z</time>
      </trkpt>
      <trkpt lat="45.8132" lon="6.10682">
        <ele>1487</ele>
        <time>2011-08-01T14:46:07Z</time>
      </trkpt>
      <trkpt lat="45.81314" lon="6.10678">
        <ele>1487</ele>
        <time>2011-08-01T14:46:12Z</time>
      </trkpt>
      <trkpt lat="45.81314" lon="6.10677">
        <ele>1488</ele>
        <time>2011-08-01T14:46:13Z</time>
      </trkpt>
      <trkpt lat="45.8131" lon="6.10674">
        <ele>1488</ele>
        <time>2011-08-01T14:46:17Z</time>
      </trkpt>
      <trkpt lat="45.81304" lon="6.10666">
        <ele>1486</ele>
        <time>2011-08-01T14:46:23Z</time>
      </trkpt>
      <trkpt lat="45.81295" lon="6.1066">
        <ele>1487</ele>
        <time>2011-08-01T14:46:29Z</time>
      </trkpt>
      <trkpt lat="45.81289" lon="6.10657">
        <ele>1488</ele>
        <time>2011-08-01T14:46:35Z</time>
      </trkpt>
      <trkpt lat="45.81284" lon="6.10655">
        <ele>1489</ele>
        <time>2011-08-01T14:46:39Z</time>
      </trkpt>
      <trkpt lat="45.81278" lon="6.10656">
        <ele>1490</ele>
        <time>2011-08-01T14:46:45Z</time>
      </trkpt>
      <trkpt lat="45.8127" lon="6.10654">
        <ele>1491</ele>
        <time>2011-08-01T14:46:51Z</time>
      </trkpt>
      <trkpt lat="45.81268" lon="6.10654">
        <ele>1491</ele>
        <time>2011-08-01T14:46:52Z</time>
      </trkpt>
      <trkpt lat="45.81264" lon="6.10652">
        <ele>1491</ele>
        <time>2011-08-01T14:46:56Z</time>
      </trkpt>
      <trkpt lat="45.81255" lon="6.10653">
        <ele>1492</ele>
        <time>2011-08-01T14:47:03Z</time>
      </trkpt>
      <trkpt lat="45.8125" lon="6.10652">
        <ele>1493</ele>
        <time>2011-08-01T14:47:08Z</time>
      </trkpt>
      <trkpt lat="45.81242" lon="6.10653">
        <ele>1497</ele>
        <time>2011-08-01T14:47:13Z</time>
      </trkpt>
      <trkpt lat="45.81229" lon="6.1066">
        <ele>1498</ele>
        <time>2011-08-01T14:47:19Z</time>
      </trkpt>
      <trkpt lat="45.81224" lon="6.10662">
        <ele>1498</ele>
        <time>2011-08-01T14:47:24Z</time>
      </trkpt>
      <trkpt lat="45.81219" lon="6.10663">
        <ele>1498</ele>
        <time>2011-08-01T14:47:29Z</time>
      </trkpt>
      <trkpt lat="45.81211" lon="6.1066">
        <ele>1499</ele>
        <time>2011-08-01T14:47:34Z</time>
      </trkpt>
      <trkpt lat="45.81203" lon="6.10661">
        <ele>1499</ele>
        <time>2011-08-01T14:47:40Z</time>
      </trkpt>
      <trkpt lat="45.81197" lon="6.10663">
        <ele>1500</ele>
        <time>2011-08-01T14:47:47Z</time>
      </trkpt>
      <trkpt lat="45.81189" lon="6.10664">
        <ele>1500</ele>
        <time>2011-08-01T14:47:54Z</time>
      </trkpt>
      <trkpt lat="45.81182" lon="6.10667">
        <ele>1501</ele>
        <time>2011-08-01T14:48:00Z</time>
      </trkpt>
      <trkpt lat="45.81172" lon="6.10675">
        <ele>1504</ele>
        <time>2011-08-01T14:48:06Z</time>
      </trkpt>
      <trkpt lat="45.81154" lon="6.10684">
        <ele>1509</ele>
        <time>2011-08-01T14:48:13Z</time>
      </trkpt>
      <trkpt lat="45.81137" lon="6.10687">
        <ele>1511</ele>
        <time>2011-08-01T14:48:19Z</time>
      </trkpt>
      <trkpt lat="45.81123" lon="6.10682">
        <ele>1512</ele>
        <time>2011-08-01T14:48:24Z</time>
      </trkpt>
      <trkpt lat="45.81125" lon="6.10679">
        <ele>1512</ele>
        <time>2011-08-01T14:48:27Z</time>
      </trkpt>
      <trkpt lat="45.81124" lon="6.10668">
        <ele>1512</ele>
        <time>2011-08-01T14:48:34Z</time>
      </trkpt>
      <trkpt lat="45.8112" lon="6.1066">
        <ele>1508</ele>
        <time>2011-08-01T14:48:39Z</time>
      </trkpt>
      <trkpt lat="45.81115" lon="6.1065">
        <ele>1508</ele>
        <time>2011-08-01T14:48:45Z</time>
      </trkpt>
      <trkpt lat="45.8111" lon="6.10637">
        <ele>1507</ele>
        <time>2011-08-01T14:48:52Z</time>
      </trkpt>
      <trkpt lat="45.81102" lon="6.10619">
        <ele>1507</ele>
        <time>2011-08-01T14:49:00Z</time>
      </trkpt>
      <trkpt lat="45.81096" lon="6.10612">
        <ele>1506</ele>
        <time>2011-08-01T14:49:03Z</time>
      </trkpt>
      <trkpt lat="45.81086" lon="6.10604">
        <ele>1506</ele>
        <time>2011-08-01T14:49:09Z</time>
      </trkpt>
      <trkpt lat="45.81077" lon="6.10604">
        <ele>1511</ele>
        <time>2011-08-01T14:49:13Z</time>
      </trkpt>
      <trkpt lat="45.81071" lon="6.10604">
        <ele>1512</ele>
        <time>2011-08-01T14:49:17Z</time>
      </trkpt>
      <trkpt lat="45.81066" lon="6.10601">
        <ele>1512</ele>
        <time>2011-08-01T14:49:21Z</time>
      </trkpt>
      <trkpt lat="45.81062" lon="6.10593">
        <ele>1512</ele>
        <time>2011-08-01T14:49:25Z</time>
      </trkpt>
      <trkpt lat="45.81059" lon="6.10587">
        <ele>1512</ele>
        <time>2011-08-01T14:49:28Z</time>
      </trkpt>
      <trkpt lat="45.81052" lon="6.1058">
        <ele>1509</ele>
        <time>2011-08-01T14:49:32Z</time>
      </trkpt>
      <trkpt lat="45.81042" lon="6.10572">
        <ele>1510</ele>
        <time>2011-08-01T14:49:37Z</time>
      </trkpt>
      <trkpt lat="45.81038" lon="6.10568">
        <ele>1511</ele>
        <time>2011-08-01T14:49:40Z</time>
      </trkpt>
      <trkpt lat="45.81025" lon="6.10559">
        <ele>1512</ele>
        <time>2011-08-01T14:49:48Z</time>
      </trkpt>
      <trkpt lat="45.81019" lon="6.1055">
        <ele>1512</ele>
        <time>2011-08-01T14:49:54Z</time>
      </trkpt>
      <trkpt lat="45.8101" lon="6.10544">
        <ele>1512</ele>
        <time>2011-08-01T14:49:57Z</time>
      </trkpt>
      <trkpt lat="45.80996" lon="6.10523">
        <ele>1517</ele>
        <time>2011-08-01T14:50:04Z</time>
      </trkpt>
      <trkpt lat="45.80974" lon="6.10515">
        <ele>1518</ele>
        <time>2011-08-01T14:50:10Z</time>
      </trkpt>
      <trkpt lat="45.80955" lon="6.10512">
        <ele>1519</ele>
        <time>2011-08-01T14:50:15Z</time>
      </trkpt>
      <trkpt lat="45.80948" lon="6.10505">
        <ele>1519</ele>
        <time>2011-08-01T14:50:20Z</time>
      </trkpt>
      <trkpt lat="45.80945" lon="6.10501">
        <ele>1519</ele>
        <time>2011-08-01T14:50:24Z</time>
      </trkpt>
      <trkpt lat="45.80938" lon="6.10497">
        <ele>1517</ele>
        <time>2011-08-01T14:50:28Z</time>
      </trkpt>
      <trkpt lat="45.80931" lon="6.1049">
        <ele>1517</ele>
        <time>2011-08-01T14:50:34Z</time>
      </trkpt>
      <trkpt lat="45.80924" lon="6.10489">
        <ele>1518</ele>
        <time>2011-08-01T14:50:39Z</time>
      </trkpt>
      <trkpt lat="45.80921" lon="6.10489">
        <ele>1518</ele>
        <time>2011-08-01T14:50:42Z</time>
      </trkpt>
      <trkpt lat="45.80914" lon="6.10495">
        <ele>1521</ele>
        <time>2011-08-01T14:50:47Z</time>
      </trkpt>
      <trkpt lat="45.80902" lon="6.10504">
        <ele>1523</ele>
        <time>2011-08-01T14:50:53Z</time>
      </trkpt>
      <trkpt lat="45.8089" lon="6.10517">
        <ele>1525</ele>
        <time>2011-08-01T14:50:59Z</time>
      </trkpt>
      <trkpt lat="45.80887" lon="6.10532">
        <ele>1525</ele>
        <time>2011-08-01T14:51:06Z</time>
      </trkpt>
      <trkpt lat="45.80888" lon="6.10555">
        <ele>1526</ele>
        <time>2011-08-01T14:51:15Z</time>
      </trkpt>
      <trkpt lat="45.80898" lon="6.10571">
        <ele>1526</ele>
        <time>2011-08-01T14:51:21Z</time>
      </trkpt>
      <trkpt lat="45.80912" lon="6.10586">
        <ele>1527</ele>
        <time>2011-08-01T14:51:29Z</time>
      </trkpt>
      <trkpt lat="45.80914" lon="6.10588">
        <ele>1527</ele>
        <time>2011-08-01T14:51:33Z</time>
      </trkpt>
      <trkpt lat="45.80921" lon="6.10587">
        <ele>1526</ele>
        <time>2011-08-01T14:51:38Z</time>
      </trkpt>
      <trkpt lat="45.8092" lon="6.10592">
        <ele>1526</ele>
        <time>2011-08-01T14:51:42Z</time>
      </trkpt>
      <trkpt lat="45.80929" lon="6.10603">
        <ele>1525</ele>
        <time>2011-08-01T14:51:50Z</time>
      </trkpt>
      <trkpt lat="45.8093" lon="6.10606">
        <ele>1525</ele>
        <time>2011-08-01T14:51:52Z</time>
      </trkpt>
      <trkpt lat="45.80929" lon="6.10613">
        <ele>1526</ele>
        <time>2011-08-01T14:51:58Z</time>
      </trkpt>
      <trkpt lat="45.80934" lon="6.10621">
        <ele>1526</ele>
        <time>2011-08-01T14:52:04Z</time>
      </trkpt>
      <trkpt lat="45.80941" lon="6.10631">
        <ele>1526</ele>
        <time>2011-08-01T14:52:11Z</time>
      </trkpt>
      <trkpt lat="45.80941" lon="6.10633">
        <ele>1526</ele>
        <time>2011-08-01T14:52:12Z</time>
      </trkpt>
      <trkpt lat="45.80947" lon="6.10647">
        <ele>1526</ele>
        <time>2011-08-01T14:52:20Z</time>
      </trkpt>
      <trkpt lat="45.80954" lon="6.10658">
        <ele>1526</ele>
        <time>2011-08-01T14:52:27Z</time>
      </trkpt>
      <trkpt lat="45.8096" lon="6.10666">
        <ele>1526</ele>
        <time>2011-08-01T14:52:33Z</time>
      </trkpt>
      <trkpt lat="45.80967" lon="6.10678">
        <ele>1528</ele>
        <time>2011-08-01T14:52:41Z</time>
      </trkpt>
      <trkpt lat="45.80971" lon="6.10688">
        <ele>1528</ele>
        <time>2011-08-01T14:52:48Z</time>
      </trkpt>
      <trkpt lat="45.8097" lon="6.10686">
        <ele>1528</ele>
        <time>2011-08-01T14:52:53Z</time>
      </trkpt>
      <trkpt lat="45.80967" lon="6.10677">
        <ele>1528</ele>
        <time>2011-08-01T14:52:58Z</time>
      </trkpt>
      <trkpt lat="45.80963" lon="6.1067">
        <ele>1528</ele>
        <time>2011-08-01T14:53:03Z</time>
      </trkpt>
      <trkpt lat="45.80959" lon="6.10654">
        <ele>1526</ele>
        <time>2011-08-01T14:53:09Z</time>
      </trkpt>
      <trkpt lat="45.80949" lon="6.10626">
        <ele>1525</ele>
        <time>2011-08-01T14:53:14Z</time>
      </trkpt>
      <trkpt lat="45.80928" lon="6.10599">
        <ele>1525</ele>
        <time>2011-08-01T14:53:19Z</time>
      </trkpt>
      <trkpt lat="45.80906" lon="6.10575">
        <ele>1526</ele>
        <time>2011-08-01T14:53:24Z</time>
      </trkpt>
      <trkpt lat="45.80879" lon="6.10566">
        <ele>1527</ele>
        <time>2011-08-01T14:53:29Z</time>
      </trkpt>
      <trkpt lat="45.80871" lon="6.10563">
        <ele>1527</ele>
        <time>2011-08-01T14:53:31Z</time>
      </trkpt>
      <trkpt lat="45.80877" lon="6.10568">
        <ele>1527</ele>
        <time>2011-08-01T14:53:34Z</time>
      </trkpt>
      <trkpt lat="45.80886" lon="6.10583">
        <ele>1527</ele>
        <time>2011-08-01T14:53:42Z</time>
      </trkpt>
      <trkpt lat="45.80888" lon="6.10591">
        <ele>1531</ele>
        <time>2011-08-01T14:53:47Z</time>
      </trkpt>
      <trkpt lat="45.80889" lon="6.10602">
        <ele>1531</ele>
        <time>2011-08-01T14:53:54Z</time>
      </trkpt>
      <trkpt lat="45.80886" lon="6.10607">
        <ele>1532</ele>
        <time>2011-08-01T14:53:59Z</time>
      </trkpt>
      <trkpt lat="45.80892" lon="6.10617">
        <ele>1532</ele>
        <time>2011-08-01T14:54:05Z</time>
      </trkpt>
      <trkpt lat="45.80899" lon="6.10626">
        <ele>1532</ele>
        <time>2011-08-01T14:54:10Z</time>
      </trkpt>
      <trkpt lat="45.80901" lon="6.10633">
        <ele>1532</ele>
        <time>2011-08-01T14:54:14Z</time>
      </trkpt>
      <trkpt lat="45.809" lon="6.10636">
        <ele>1532</ele>
        <time>2011-08-01T14:54:16Z</time>
      </trkpt>
      <trkpt lat="45.80896" lon="6.10643">
        <ele>1533</ele>
        <time>2011-08-01T14:54:22Z</time>
      </trkpt>
      <trkpt lat="45.80899" lon="6.10648">
        <ele>1533</ele>
        <time>2011-08-01T14:54:26Z</time>
      </trkpt>
      <trkpt lat="45.80902" lon="6.10655">
        <ele>1532</ele>
        <time>2011-08-01T14:54:31Z</time>
      </trkpt>
      <trkpt lat="45.80909" lon="6.10661">
        <ele>1532</ele>
        <time>2011-08-01T14:54:35Z</time>
      </trkpt>
      <trkpt lat="45.80923" lon="6.10679">
        <ele>1530</ele>
        <time>2011-08-01T14:54:44Z</time>
      </trkpt>
      <trkpt lat="45.80926" lon="6.10688">
        <ele>1530</ele>
        <time>2011-08-01T14:54:51Z</time>
      </trkpt>
      <trkpt lat="45.80923" lon="6.10697">
        <ele>1530</ele>
        <time>2011-08-01T14:55:12Z</time>
      </trkpt>
      <trkpt lat="45.80922" lon="6.10695">
        <ele>1530</ele>
        <time>2011-08-01T14:55:18Z</time>
      </trkpt>
      <trkpt lat="45.80923" lon="6.10697">
        <ele>1530</ele>
        <time>2011-08-01T14:55:28Z</time>
      </trkpt>
      <trkpt lat="45.80923" lon="6.10702">
        <ele>1530</ele>
        <time>2011-08-01T14:55:37Z</time>
      </trkpt>
      <trkpt lat="45.8092" lon="6.10705">
        <ele>1530</ele>
        <time>2011-08-01T14:55:48Z</time>
      </trkpt>
      <trkpt lat="45.80913" lon="6.10715">
        <ele>1537</ele>
        <time>2011-08-01T14:55:54Z</time>
      </trkpt>
      <trkpt lat="45.80912" lon="6.10724">
        <ele>1537</ele>
        <time>2011-08-01T14:55:59Z</time>
      </trkpt>
      <trkpt lat="45.8091" lon="6.10738">
        <ele>1536</ele>
        <time>2011-08-01T14:56:06Z</time>
      </trkpt>
      <trkpt lat="45.80907" lon="6.10749">
        <ele>1536</ele>
        <time>2011-08-01T14:56:13Z</time>
      </trkpt>
      <trkpt lat="45.80904" lon="6.10754">
        <ele>1538</ele>
        <time>2011-08-01T14:56:18Z</time>
      </trkpt>
      <trkpt lat="45.80902" lon="6.10756">
        <ele>1539</ele>
        <time>2011-08-01T14:56:23Z</time>
      </trkpt>
      <trkpt lat="45.80899" lon="6.10764">
        <ele>1540</ele>
        <time>2011-08-01T14:56:28Z</time>
      </trkpt>
      <trkpt lat="45.80898" lon="6.10772">
        <ele>1541</ele>
        <time>2011-08-01T14:56:33Z</time>
      </trkpt>
      <trkpt lat="45.80892" lon="6.1078">
        <ele>1542</ele>
        <time>2011-08-01T14:56:39Z</time>
      </trkpt>
      <trkpt lat="45.80892" lon="6.10798">
        <ele>1543</ele>
        <time>2011-08-01T14:56:46Z</time>
      </trkpt>
      <trkpt lat="45.80888" lon="6.10809">
        <ele>1543</ele>
        <time>2011-08-01T14:56:53Z</time>
      </trkpt>
      <trkpt lat="45.80886" lon="6.10812">
        <ele>1543</ele>
        <time>2011-08-01T14:56:57Z</time>
      </trkpt>
      <trkpt lat="45.80887" lon="6.10821">
        <ele>1543</ele>
        <time>2011-08-01T14:57:03Z</time>
      </trkpt>
      <trkpt lat="45.80886" lon="6.1083">
        <ele>1543</ele>
        <time>2011-08-01T14:57:09Z</time>
      </trkpt>
      <trkpt lat="45.8088" lon="6.1084">
        <ele>1546</ele>
        <time>2011-08-01T14:57:15Z</time>
      </trkpt>
      <trkpt lat="45.80882" lon="6.10853">
        <ele>1546</ele>
        <time>2011-08-01T14:57:21Z</time>
      </trkpt>
      <trkpt lat="45.80883" lon="6.10859">
        <ele>1546</ele>
        <time>2011-08-01T14:57:25Z</time>
      </trkpt>
      <trkpt lat="45.80885" lon="6.10871">
        <ele>1546</ele>
        <time>2011-08-01T14:57:33Z</time>
      </trkpt>
      <trkpt lat="45.80885" lon="6.10882">
        <ele>1547</ele>
        <time>2011-08-01T14:57:40Z</time>
      </trkpt>
      <trkpt lat="45.80884" lon="6.10884">
        <ele>1547</ele>
        <time>2011-08-01T14:57:41Z</time>
      </trkpt>
      <trkpt lat="45.80879" lon="6.10895">
        <ele>1547</ele>
        <time>2011-08-01T14:57:48Z</time>
      </trkpt>
      <trkpt lat="45.80877" lon="6.10904">
        <ele>1548</ele>
        <time>2011-08-01T14:57:53Z</time>
      </trkpt>
      <trkpt lat="45.80875" lon="6.1091">
        <ele>1548</ele>
        <time>2011-08-01T14:57:57Z</time>
      </trkpt>
      <trkpt lat="45.80869" lon="6.10919">
        <ele>1550</ele>
        <time>2011-08-01T14:58:04Z</time>
      </trkpt>
      <trkpt lat="45.80868" lon="6.10927">
        <ele>1550</ele>
        <time>2011-08-01T14:58:08Z</time>
      </trkpt>
      <trkpt lat="45.80865" lon="6.10932">
        <ele>1551</ele>
        <time>2011-08-01T14:58:13Z</time>
      </trkpt>
      <trkpt lat="45.80861" lon="6.10938">
        <ele>1551</ele>
        <time>2011-08-01T14:58:18Z</time>
      </trkpt>
      <trkpt lat="45.80857" lon="6.10944">
        <ele>1551</ele>
        <time>2011-08-01T14:58:23Z</time>
      </trkpt>
      <trkpt lat="45.80853" lon="6.10954">
        <ele>1551</ele>
        <time>2011-08-01T14:58:30Z</time>
      </trkpt>
      <trkpt lat="45.80851" lon="6.1096">
        <ele>1552</ele>
        <time>2011-08-01T14:58:34Z</time>
      </trkpt>
      <trkpt lat="45.80849" lon="6.10967">
        <ele>1552</ele>
        <time>2011-08-01T14:58:38Z</time>
      </trkpt>
      <trkpt lat="45.80847" lon="6.10974">
        <ele>1552</ele>
        <time>2011-08-01T14:58:42Z</time>
      </trkpt>
      <trkpt lat="45.80841" lon="6.10988">
        <ele>1554</ele>
        <time>2011-08-01T14:58:48Z</time>
      </trkpt>
      <trkpt lat="45.8083" lon="6.10992">
        <ele>1559</ele>
        <time>2011-08-01T14:58:53Z</time>
      </trkpt>
      <trkpt lat="45.80824" lon="6.1099">
        <ele>1560</ele>
        <time>2011-08-01T14:58:57Z</time>
      </trkpt>
      <trkpt lat="45.80818" lon="6.10989">
        <ele>1560</ele>
        <time>2011-08-01T14:59:00Z</time>
      </trkpt>
      <trkpt lat="45.80811" lon="6.10988">
        <ele>1561</ele>
        <time>2011-08-01T14:59:06Z</time>
      </trkpt>
      <trkpt lat="45.8081" lon="6.10986">
        <ele>1561</ele>
        <time>2011-08-01T14:59:07Z</time>
      </trkpt>
      <trkpt lat="45.80802" lon="6.10979">
        <ele>1562</ele>
        <time>2011-08-01T14:59:14Z</time>
      </trkpt>
      <trkpt lat="45.80795" lon="6.10973">
        <ele>1563</ele>
        <time>2011-08-01T14:59:20Z</time>
      </trkpt>
      <trkpt lat="45.80791" lon="6.10968">
        <ele>1563</ele>
        <time>2011-08-01T14:59:24Z</time>
      </trkpt>
      <trkpt lat="45.80782" lon="6.10958">
        <ele>1564</ele>
        <time>2011-08-01T14:59:31Z</time>
      </trkpt>
      <trkpt lat="45.80774" lon="6.10951">
        <ele>1565</ele>
        <time>2011-08-01T14:59:43Z</time>
      </trkpt>
      <trkpt lat="45.80767" lon="6.10939">
        <ele>1565</ele>
        <time>2011-08-01T14:59:52Z</time>
      </trkpt>
      <trkpt lat="45.80767" lon="6.10934">
        <ele>1565</ele>
        <time>2011-08-01T14:59:59Z</time>
      </trkpt>
      <trkpt lat="45.80755" lon="6.10938">
        <ele>1566</ele>
        <time>2011-08-01T15:00:13Z</time>
      </trkpt>
      <trkpt lat="45.80751" lon="6.10938">
        <ele>1566</ele>
        <time>2011-08-01T15:00:19Z</time>
      </trkpt>
      <trkpt lat="45.80747" lon="6.10937">
        <ele>1571</ele>
        <time>2011-08-01T15:00:22Z</time>
      </trkpt>
      <trkpt lat="45.80733" lon="6.10933">
        <ele>1571</ele>
        <time>2011-08-01T15:00:30Z</time>
      </trkpt>
      <trkpt lat="45.80728" lon="6.10934">
        <ele>1571</ele>
        <time>2011-08-01T15:00:35Z</time>
      </trkpt>
      <trkpt lat="45.80722" lon="6.10928">
        <ele>1571</ele>
        <time>2011-08-01T15:00:41Z</time>
      </trkpt>
      <trkpt lat="45.80716" lon="6.10922">
        <ele>1572</ele>
        <time>2011-08-01T15:00:48Z</time>
      </trkpt>
      <trkpt lat="45.80707" lon="6.10917">
        <ele>1572</ele>
        <time>2011-08-01T15:00:51Z</time>
      </trkpt>
      <trkpt lat="45.80699" lon="6.1091">
        <ele>1570</ele>
        <time>2011-08-01T15:00:57Z</time>
      </trkpt>
      <trkpt lat="45.80685" lon="6.10905">
        <ele>1570</ele>
        <time>2011-08-01T15:01:05Z</time>
      </trkpt>
      <trkpt lat="45.80679" lon="6.10901">
        <ele>1570</ele>
        <time>2011-08-01T15:01:11Z</time>
      </trkpt>
      <trkpt lat="45.80677" lon="6.109">
        <ele>1570</ele>
        <time>2011-08-01T15:01:16Z</time>
      </trkpt>
      <trkpt lat="45.80671" lon="6.10897">
        <ele>1570</ele>
        <time>2011-08-01T15:01:23Z</time>
      </trkpt>
      <trkpt lat="45.80673" lon="6.10893">
        <ele>1570</ele>
        <time>2011-08-01T15:01:33Z</time>
      </trkpt>
      <trkpt lat="45.80682" lon="6.10887">
        <ele>1570</ele>
        <time>2011-08-01T15:01:39Z</time>
      </trkpt>
      <trkpt lat="45.80689" lon="6.10887">
        <ele>1570</ele>
        <time>2011-08-01T15:01:46Z</time>
      </trkpt>
      <trkpt lat="45.80691" lon="6.1089">
        <ele>1570</ele>
        <time>2011-08-01T15:03:19Z</time>
      </trkpt>
      <trkpt lat="45.80693" lon="6.10893">
        <ele>1570</ele>
        <time>2011-08-01T15:03:25Z</time>
      </trkpt>
      <trkpt lat="45.80698" lon="6.10891">
        <ele>1570</ele>
        <time>2011-08-01T15:04:02Z</time>
      </trkpt>
      <trkpt lat="45.8068" lon="6.10897">
        <ele>1570</ele>
        <time>2011-08-01T15:04:15Z</time>
      </trkpt>
      <trkpt lat="45.80664" lon="6.10891">
        <ele>1573</ele>
        <time>2011-08-01T15:04:23Z</time>
      </trkpt>
      <trkpt lat="45.8065" lon="6.10881">
        <ele>1573</ele>
        <time>2011-08-01T15:04:29Z</time>
      </trkpt>
      <trkpt lat="45.80631" lon="6.10879">
        <ele>1573</ele>
        <time>2011-08-01T15:04:34Z</time>
      </trkpt>
      <trkpt lat="45.80617" lon="6.10879">
        <ele>1574</ele>
        <time>2011-08-01T15:04:39Z</time>
      </trkpt>
      <trkpt lat="45.80607" lon="6.10883">
        <ele>1574</ele>
        <time>2011-08-01T15:04:46Z</time>
      </trkpt>
      <trkpt lat="45.80604" lon="6.10886">
        <ele>1574</ele>
        <time>2011-08-01T15:04:51Z</time>
      </trkpt>
      <trkpt lat="45.80601" lon="6.10883">
        <ele>1574</ele>
        <time>2011-08-01T15:04:58Z</time>
      </trkpt>
      <trkpt lat="45.80596" lon="6.10885">
        <ele>1575</ele>
        <time>2011-08-01T15:05:05Z</time>
      </trkpt>
      <trkpt lat="45.80587" lon="6.10886">
        <ele>1575</ele>
        <time>2011-08-01T15:05:14Z</time>
      </trkpt>
      <trkpt lat="45.80583" lon="6.10885">
        <ele>1578</ele>
        <time>2011-08-01T15:05:17Z</time>
      </trkpt>
      <trkpt lat="45.80577" lon="6.10887">
        <ele>1578</ele>
        <time>2011-08-01T15:05:23Z</time>
      </trkpt>
      <trkpt lat="45.80568" lon="6.10892">
        <ele>1578</ele>
        <time>2011-08-01T15:05:30Z</time>
      </trkpt>
      <trkpt lat="45.80565" lon="6.10893">
        <ele>1578</ele>
        <time>2011-08-01T15:05:34Z</time>
      </trkpt>
      <trkpt lat="45.80558" lon="6.10899">
        <ele>1579</ele>
        <time>2011-08-01T15:05:44Z</time>
      </trkpt>
      <trkpt lat="45.80551" lon="6.10909">
        <ele>1579</ele>
        <time>2011-08-01T15:05:51Z</time>
      </trkpt>
      <trkpt lat="45.80546" lon="6.10916">
        <ele>1579</ele>
        <time>2011-08-01T15:05:57Z</time>
      </trkpt>
      <trkpt lat="45.8054" lon="6.10921">
        <ele>1587</ele>
        <time>2011-08-01T15:06:03Z</time>
      </trkpt>
      <trkpt lat="45.80534" lon="6.10927">
        <ele>1587</ele>
        <time>2011-08-01T15:06:10Z</time>
      </trkpt>
      <trkpt lat="45.80526" lon="6.10933">
        <ele>1588</ele>
        <time>2011-08-01T15:06:17Z</time>
      </trkpt>
      <trkpt lat="45.80517" lon="6.10936">
        <ele>1588</ele>
        <time>2011-08-01T15:06:24Z</time>
      </trkpt>
      <trkpt lat="45.80507" lon="6.10942">
        <ele>1589</ele>
        <time>2011-08-01T15:06:32Z</time>
      </trkpt>
      <trkpt lat="45.80497" lon="6.10945">
        <ele>1593</ele>
        <time>2011-08-01T15:06:38Z</time>
      </trkpt>
      <trkpt lat="45.80491" lon="6.10941">
        <ele>1592</ele>
        <time>2011-08-01T15:06:46Z</time>
      </trkpt>
      <trkpt lat="45.80481" lon="6.10938">
        <ele>1592</ele>
        <time>2011-08-01T15:06:54Z</time>
      </trkpt>
      <trkpt lat="45.80473" lon="6.10933">
        <ele>1592</ele>
        <time>2011-08-01T15:07:01Z</time>
      </trkpt>
      <trkpt lat="45.80467" lon="6.10934">
        <ele>1593</ele>
        <time>2011-08-01T15:07:09Z</time>
      </trkpt>
      <trkpt lat="45.80457" lon="6.10939">
        <ele>1594</ele>
        <time>2011-08-01T15:07:16Z</time>
      </trkpt>
      <trkpt lat="45.80445" lon="6.10944">
        <ele>1594</ele>
        <time>2011-08-01T15:07:22Z</time>
      </trkpt>
      <trkpt lat="45.80434" lon="6.10947">
        <ele>1594</ele>
        <time>2011-08-01T15:07:28Z</time>
      </trkpt>
      <trkpt lat="45.80421" lon="6.10951">
        <ele>1595</ele>
        <time>2011-08-01T15:07:35Z</time>
      </trkpt>
      <trkpt lat="45.80415" lon="6.1096">
        <ele>1595</ele>
        <time>2011-08-01T15:07:43Z</time>
      </trkpt>
      <trkpt lat="45.80408" lon="6.10972">
        <ele>1596</ele>
        <time>2011-08-01T15:07:50Z</time>
      </trkpt>
      <trkpt lat="45.80404" lon="6.10983">
        <ele>1597</ele>
        <time>2011-08-01T15:07:56Z</time>
      </trkpt>
      <trkpt lat="45.80396" lon="6.1099">
        <ele>1597</ele>
        <time>2011-08-01T15:08:01Z</time>
      </trkpt>
      <trkpt lat="45.80382" lon="6.10993">
        <ele>1596</ele>
        <time>2011-08-01T15:08:06Z</time>
      </trkpt>
      <trkpt lat="45.8036" lon="6.10987">
        <ele>1595</ele>
        <time>2011-08-01T15:08:11Z</time>
      </trkpt>
      <trkpt lat="45.80338" lon="6.10974">
        <ele>1594</ele>
        <time>2011-08-01T15:08:16Z</time>
      </trkpt>
      <trkpt lat="45.80334" lon="6.10971">
        <ele>1594</ele>
        <time>2011-08-01T15:08:17Z</time>
      </trkpt>
      <trkpt lat="45.80319" lon="6.1096">
        <ele>1599</ele>
        <time>2011-08-01T15:08:23Z</time>
      </trkpt>
      <trkpt lat="45.80314" lon="6.10955">
        <ele>1600</ele>
        <time>2011-08-01T15:08:28Z</time>
      </trkpt>
      <trkpt lat="45.80308" lon="6.10948">
        <ele>1600</ele>
        <time>2011-08-01T15:08:36Z</time>
      </trkpt>
      <trkpt lat="45.803" lon="6.10939">
        <ele>1600</ele>
        <time>2011-08-01T15:08:44Z</time>
      </trkpt>
      <trkpt lat="45.80293" lon="6.10931">
        <ele>1601</ele>
        <time>2011-08-01T15:08:53Z</time>
      </trkpt>
      <trkpt lat="45.80285" lon="6.10924">
        <ele>1601</ele>
        <time>2011-08-01T15:09:02Z</time>
      </trkpt>
      <trkpt lat="45.80278" lon="6.10917">
        <ele>1602</ele>
        <time>2011-08-01T15:09:09Z</time>
      </trkpt>
      <trkpt lat="45.80268" lon="6.10906">
        <ele>1602</ele>
        <time>2011-08-01T15:09:18Z</time>
      </trkpt>
      <trkpt lat="45.80257" lon="6.10899">
        <ele>1602</ele>
        <time>2011-08-01T15:09:27Z</time>
      </trkpt>
      <trkpt lat="45.80252" lon="6.10895">
        <ele>1602</ele>
        <time>2011-08-01T15:09:32Z</time>
      </trkpt>
      <trkpt lat="45.80242" lon="6.10884">
        <ele>1610</ele>
        <time>2011-08-01T15:09:42Z</time>
      </trkpt>
      <trkpt lat="45.80235" lon="6.10878">
        <ele>1611</ele>
        <time>2011-08-01T15:09:49Z</time>
      </trkpt>
      <trkpt lat="45.80233" lon="6.10875">
        <ele>1611</ele>
        <time>2011-08-01T15:09:51Z</time>
      </trkpt>
      <trkpt lat="45.80228" lon="6.10863">
        <ele>1611</ele>
        <time>2011-08-01T15:10:00Z</time>
      </trkpt>
      <trkpt lat="45.80226" lon="6.10846">
        <ele>1610</ele>
        <time>2011-08-01T15:10:10Z</time>
      </trkpt>
      <trkpt lat="45.80225" lon="6.10832">
        <ele>1607</ele>
        <time>2011-08-01T15:10:19Z</time>
      </trkpt>
      <trkpt lat="45.8022" lon="6.10819">
        <ele>1607</ele>
        <time>2011-08-01T15:10:27Z</time>
      </trkpt>
      <trkpt lat="45.80214" lon="6.10807">
        <ele>1607</ele>
        <time>2011-08-01T15:10:35Z</time>
      </trkpt>
      <trkpt lat="45.80211" lon="6.10799">
        <ele>1608</ele>
        <time>2011-08-01T15:10:40Z</time>
      </trkpt>
      <trkpt lat="45.80207" lon="6.10803">
        <ele>1608</ele>
        <time>2011-08-01T15:10:44Z</time>
      </trkpt>
      <trkpt lat="45.80206" lon="6.10806">
        <ele>1608</ele>
        <time>2011-08-01T15:10:46Z</time>
      </trkpt>
      <trkpt lat="45.80207" lon="6.1082">
        <ele>1608</ele>
        <time>2011-08-01T15:10:52Z</time>
      </trkpt>
      <trkpt lat="45.80208" lon="6.10823">
        <ele>1608</ele>
        <time>2011-08-01T15:10:53Z</time>
      </trkpt>
      <trkpt lat="45.80211" lon="6.10854">
        <ele>1612</ele>
        <time>2011-08-01T15:11:03Z</time>
      </trkpt>
      <trkpt lat="45.80208" lon="6.10885">
        <ele>1614</ele>
        <time>2011-08-01T15:11:13Z</time>
      </trkpt>
      <trkpt lat="45.80209" lon="6.10914">
        <ele>1615</ele>
        <time>2011-08-01T15:11:22Z</time>
      </trkpt>
      <trkpt lat="45.80212" lon="6.10945">
        <ele>1621</ele>
        <time>2011-08-01T15:11:32Z</time>
      </trkpt>
      <trkpt lat="45.80216" lon="6.10966">
        <ele>1621</ele>
        <time>2011-08-01T15:11:39Z</time>
      </trkpt>
      <trkpt lat="45.80223" lon="6.10993">
        <ele>1620</ele>
        <time>2011-08-01T15:11:48Z</time>
      </trkpt>
      <trkpt lat="45.8023" lon="6.11017">
        <ele>1620</ele>
        <time>2011-08-01T15:11:56Z</time>
      </trkpt>
      <trkpt lat="45.80232" lon="6.11046">
        <ele>1620</ele>
        <time>2011-08-01T15:12:06Z</time>
      </trkpt>
      <trkpt lat="45.80225" lon="6.11055">
        <ele>1620</ele>
        <time>2011-08-01T15:12:11Z</time>
      </trkpt>
      <trkpt lat="45.80214" lon="6.11056">
        <ele>1620</ele>
        <time>2011-08-01T15:12:17Z</time>
      </trkpt>
      <trkpt lat="45.802" lon="6.11047">
        <ele>1622</ele>
        <time>2011-08-01T15:12:25Z</time>
      </trkpt>
      <trkpt lat="45.80188" lon="6.11036">
        <ele>1624</ele>
        <time>2011-08-01T15:12:33Z</time>
      </trkpt>
      <trkpt lat="45.80177" lon="6.11032">
        <ele>1625</ele>
        <time>2011-08-01T15:12:39Z</time>
      </trkpt>
      <trkpt lat="45.80174" lon="6.11031">
        <ele>1626</ele>
        <time>2011-08-01T15:12:41Z</time>
      </trkpt>
      <trkpt lat="45.80172" lon="6.11031">
        <ele>1626</ele>
        <time>2011-08-01T15:12:49Z</time>
      </trkpt>
      <trkpt lat="45.80173" lon="6.11033">
        <ele>1625</ele>
        <time>2011-08-01T15:13:21Z</time>
      </trkpt>
      <trkpt lat="45.8017" lon="6.11029">
        <ele>1626</ele>
        <time>2011-08-01T15:13:25Z</time>
      </trkpt>
      <trkpt lat="45.8017" lon="6.11028">
        <ele>1627</ele>
        <time>2011-08-01T15:13:26Z</time>
      </trkpt>
      <trkpt lat="45.80167" lon="6.11021">
        <ele>1628</ele>
        <time>2011-08-01T15:13:33Z</time>
      </trkpt>
      <trkpt lat="45.80155" lon="6.11012">
        <ele>1633</ele>
        <time>2011-08-01T15:13:40Z</time>
      </trkpt>
      <trkpt lat="45.80138" lon="6.10999">
        <ele>1638</ele>
        <time>2011-08-01T15:13:49Z</time>
      </trkpt>
      <trkpt lat="45.80124" lon="6.10989">
        <ele>1638</ele>
        <time>2011-08-01T15:13:56Z</time>
      </trkpt>
      <trkpt lat="45.80113" lon="6.10978">
        <ele>1638</ele>
        <time>2011-08-01T15:14:02Z</time>
      </trkpt>
      <trkpt lat="45.80101" lon="6.10963">
        <ele>1639</ele>
        <time>2011-08-01T15:14:10Z</time>
      </trkpt>
      <trkpt lat="45.801" lon="6.10962">
        <ele>1639</ele>
        <time>2011-08-01T15:14:11Z</time>
      </trkpt>
      <trkpt lat="45.80093" lon="6.10953">
        <ele>1640</ele>
        <time>2011-08-01T15:14:16Z</time>
      </trkpt>
      <trkpt lat="45.80076" lon="6.10943">
        <ele>1644</ele>
        <time>2011-08-01T15:14:25Z</time>
      </trkpt>
      <trkpt lat="45.8006" lon="6.10934">
        <ele>1644</ele>
        <time>2011-08-01T15:14:33Z</time>
      </trkpt>
      <trkpt lat="45.80046" lon="6.10923">
        <ele>1644</ele>
        <time>2011-08-01T15:14:41Z</time>
      </trkpt>
      <trkpt lat="45.80027" lon="6.10909">
        <ele>1649</ele>
        <time>2011-08-01T15:14:51Z</time>
      </trkpt>
      <trkpt lat="45.80009" lon="6.10899">
        <ele>1650</ele>
        <time>2011-08-01T15:15:01Z</time>
      </trkpt>
      <trkpt lat="45.79996" lon="6.10895">
        <ele>1651</ele>
        <time>2011-08-01T15:15:08Z</time>
      </trkpt>
      <trkpt lat="45.7998" lon="6.10885">
        <ele>1650</ele>
        <time>2011-08-01T15:15:17Z</time>
      </trkpt>
      <trkpt lat="45.79967" lon="6.10863">
        <ele>1651</ele>
        <time>2011-08-01T15:15:27Z</time>
      </trkpt>
      <trkpt lat="45.79962" lon="6.1085">
        <ele>1651</ele>
        <time>2011-08-01T15:15:32Z</time>
      </trkpt>
      <trkpt lat="45.79971" lon="6.10833">
        <ele>1652</ele>
        <time>2011-08-01T15:15:40Z</time>
      </trkpt>
      <trkpt lat="45.79976" lon="6.10816">
        <ele>1651</ele>
        <time>2011-08-01T15:15:47Z</time>
      </trkpt>
      <trkpt lat="45.79982" lon="6.10804">
        <ele>1650</ele>
        <time>2011-08-01T15:15:53Z</time>
      </trkpt>
      <trkpt lat="45.7998" lon="6.1079">
        <ele>1649</ele>
        <time>2011-08-01T15:15:58Z</time>
      </trkpt>
      <trkpt lat="45.79973" lon="6.10774">
        <ele>1648</ele>
        <time>2011-08-01T15:16:04Z</time>
      </trkpt>
      <trkpt lat="45.79959" lon="6.10775">
        <ele>1649</ele>
        <time>2011-08-01T15:16:10Z</time>
      </trkpt>
      <trkpt lat="45.79951" lon="6.10778">
        <ele>1650</ele>
        <time>2011-08-01T15:16:15Z</time>
      </trkpt>
      <trkpt lat="45.79949" lon="6.10781">
        <ele>1650</ele>
        <time>2011-08-01T15:16:23Z</time>
      </trkpt>
      <trkpt lat="45.7995" lon="6.10782">
        <ele>1650</ele>
        <time>2011-08-01T15:16:30Z</time>
      </trkpt>
      <trkpt lat="45.79948" lon="6.10782">
        <ele>1650</ele>
        <time>2011-08-01T15:16:36Z</time>
      </trkpt>
      <trkpt lat="45.79948" lon="6.10783">
        <ele>1650</ele>
        <time>2011-08-01T15:16:48Z</time>
      </trkpt>
      <trkpt lat="45.79951" lon="6.10783">
        <ele>1650</ele>
        <time>2011-08-01T15:16:51Z</time>
      </trkpt>
      <trkpt lat="45.79956" lon="6.10788">
        <ele>1650</ele>
        <time>2011-08-01T15:16:55Z</time>
      </trkpt>
      <trkpt lat="45.79957" lon="6.10794">
        <ele>1650</ele>
        <time>2011-08-01T15:16:58Z</time>
      </trkpt>
      <trkpt lat="45.7996" lon="6.10804">
        <ele>1650</ele>
        <time>2011-08-01T15:17:04Z</time>
      </trkpt>
      <trkpt lat="45.79955" lon="6.1081">
        <ele>1651</ele>
        <time>2011-08-01T15:17:10Z</time>
      </trkpt>
      <trkpt lat="45.79951" lon="6.1081">
        <ele>1651</ele>
        <time>2011-08-01T15:17:15Z</time>
      </trkpt>
      <trkpt lat="45.79947" lon="6.10821">
        <ele>1651</ele>
        <time>2011-08-01T15:17:23Z</time>
      </trkpt>
      <trkpt lat="45.79922" lon="6.1082">
        <ele>1651</ele>
        <time>2011-08-01T15:18:06Z</time>
      </trkpt>
      <trkpt lat="45.79932" lon="6.1081">
        <ele>1651</ele>
        <time>2011-08-01T15:18:07Z</time>
      </trkpt>
      <trkpt lat="45.79949" lon="6.10791">
        <ele>1650</ele>
        <time>2011-08-01T15:18:10Z</time>
      </trkpt>
      <trkpt lat="45.79958" lon="6.10783">
        <ele>1649</ele>
        <time>2011-08-01T15:18:15Z</time>
      </trkpt>
      <trkpt lat="45.79956" lon="6.10795">
        <ele>1650</ele>
        <time>2011-08-01T15:18:41Z</time>
      </trkpt>
      <trkpt lat="45.7995" lon="6.108">
        <ele>1650</ele>
        <time>2011-08-01T15:18:46Z</time>
      </trkpt>
      <trkpt lat="45.79949" lon="6.10783">
        <ele>1650</ele>
        <time>2011-08-01T15:18:55Z</time>
      </trkpt>
      <trkpt lat="45.79949" lon="6.10783">
        <ele>1650</ele>
        <time>2011-08-01T15:18:56Z</time>
      </trkpt>
      <trkpt lat="45.79946" lon="6.10781">
        <ele>1650</ele>
        <time>2011-08-01T15:19:02Z</time>
      </trkpt>
      <trkpt lat="45.79945" lon="6.10783">
        <ele>1650</ele>
        <time>2011-08-01T15:19:06Z</time>
      </trkpt>
      <trkpt lat="45.79947" lon="6.1078">
        <ele>1650</ele>
        <time>2011-08-01T15:19:12Z</time>
      </trkpt>
      <trkpt lat="45.79945" lon="6.10773">
        <ele>1650</ele>
        <time>2011-08-01T15:19:16Z</time>
      </trkpt>
      <trkpt lat="45.79937" lon="6.10755">
        <ele>1652</ele>
        <time>2011-08-01T15:19:27Z</time>
      </trkpt>
      <trkpt lat="45.79928" lon="6.10744">
        <ele>1648</ele>
        <time>2011-08-01T15:19:36Z</time>
      </trkpt>
      <trkpt lat="45.79915" lon="6.10734">
        <ele>1656</ele>
        <time>2011-08-01T15:19:47Z</time>
      </trkpt>
      <trkpt lat="45.79908" lon="6.10726">
        <ele>1656</ele>
        <time>2011-08-01T15:19:56Z</time>
      </trkpt>
      <trkpt lat="45.79908" lon="6.10722">
        <ele>1655</ele>
        <time>2011-08-01T15:20:02Z</time>
      </trkpt>
      <trkpt lat="45.79907" lon="6.10721">
        <ele>1655</ele>
        <time>2011-08-01T15:20:08Z</time>
      </trkpt>
      <trkpt lat="45.79906" lon="6.1072">
        <ele>1655</ele>
        <time>2011-08-01T15:20:20Z</time>
      </trkpt>
      <trkpt lat="45.79906" lon="6.10721">
        <ele>1655</ele>
        <time>2011-08-01T15:20:42Z</time>
      </trkpt>
      <trkpt lat="45.79903" lon="6.1072">
        <ele>1655</ele>
        <time>2011-08-01T15:21:59Z</time>
      </trkpt>
      <trkpt lat="45.79902" lon="6.10721">
        <ele>1655</ele>
        <time>2011-08-01T15:22:11Z</time>
      </trkpt>
      <trkpt lat="45.79906" lon="6.10719">
        <ele>1655</ele>
        <time>2011-08-01T15:22:35Z</time>
      </trkpt>
      <trkpt lat="45.79907" lon="6.10717">
        <ele>1655</ele>
        <time>2011-08-01T15:22:46Z</time>
      </trkpt>
      <trkpt lat="45.79905" lon="6.10716">
        <ele>1655</ele>
        <time>2011-08-01T15:23:03Z</time>
      </trkpt>
      <trkpt lat="45.79908" lon="6.1073">
        <ele>1656</ele>
        <time>2011-08-01T15:28:24Z</time>
      </trkpt>
      <trkpt lat="45.79907" lon="6.10733">
        <ele>1656</ele>
        <time>2011-08-01T15:28:26Z</time>
      </trkpt>
      <trkpt lat="45.79891" lon="6.10724">
        <ele>1656</ele>
        <time>2011-08-01T15:28:34Z</time>
      </trkpt>
      <trkpt lat="45.79873" lon="6.10712">
        <ele>1657</ele>
        <time>2011-08-01T15:28:42Z</time>
      </trkpt>
      <trkpt lat="45.79854" lon="6.10703">
        <ele>1659</ele>
        <time>2011-08-01T15:28:50Z</time>
      </trkpt>
      <trkpt lat="45.79842" lon="6.10704">
        <ele>1659</ele>
        <time>2011-08-01T15:28:56Z</time>
      </trkpt>
      <trkpt lat="45.79826" lon="6.10715">
        <ele>1665</ele>
        <time>2011-08-01T15:29:04Z</time>
      </trkpt>
      <trkpt lat="45.79808" lon="6.10722">
        <ele>1665</ele>
        <time>2011-08-01T15:29:12Z</time>
      </trkpt>
      <trkpt lat="45.79785" lon="6.10721">
        <ele>1665</ele>
        <time>2011-08-01T15:29:21Z</time>
      </trkpt>
      <trkpt lat="45.79762" lon="6.10709">
        <ele>1666</ele>
        <time>2011-08-01T15:29:30Z</time>
      </trkpt>
      <trkpt lat="45.79737" lon="6.10691">
        <ele>1663</ele>
        <time>2011-08-01T15:29:37Z</time>
      </trkpt>
      <trkpt lat="45.79709" lon="6.10672">
        <ele>1661</ele>
        <time>2011-08-01T15:29:43Z</time>
      </trkpt>
      <trkpt lat="45.79674" lon="6.10643">
        <ele>1665</ele>
        <time>2011-08-01T15:29:49Z</time>
      </trkpt>
      <trkpt lat="45.79669" lon="6.10636">
        <ele>1666</ele>
        <time>2011-08-01T15:29:50Z</time>
      </trkpt>
      <trkpt lat="45.79643" lon="6.10581">
        <ele>1662</ele>
        <time>2011-08-01T15:29:56Z</time>
      </trkpt>
      <trkpt lat="45.79617" lon="6.10509">
        <ele>1659</ele>
        <time>2011-08-01T15:30:03Z</time>
      </trkpt>
      <trkpt lat="45.79594" lon="6.10444">
        <ele>1664</ele>
        <time>2011-08-01T15:30:09Z</time>
      </trkpt>
      <trkpt lat="45.7957" lon="6.10367">
        <ele>1653</ele>
        <time>2011-08-01T15:30:16Z</time>
      </trkpt>
      <trkpt lat="45.79565" lon="6.10357">
        <ele>1653</ele>
        <time>2011-08-01T15:30:17Z</time>
      </trkpt>
      <trkpt lat="45.79537" lon="6.10318">
        <ele>1655</ele>
        <time>2011-08-01T15:30:22Z</time>
      </trkpt>
      <trkpt lat="45.79523" lon="6.10308">
        <ele>1654</ele>
        <time>2011-08-01T15:30:24Z</time>
      </trkpt>
      <trkpt lat="45.79463" lon="6.1028">
        <ele>1646</ele>
        <time>2011-08-01T15:30:32Z</time>
      </trkpt>
      <trkpt lat="45.79457" lon="6.10276">
        <ele>1646</ele>
        <time>2011-08-01T15:30:33Z</time>
      </trkpt>
      <trkpt lat="45.79423" lon="6.10238">
        <ele>1647</ele>
        <time>2011-08-01T15:30:39Z</time>
      </trkpt>
      <trkpt lat="45.79418" lon="6.10232">
        <ele>1648</ele>
        <time>2011-08-01T15:30:40Z</time>
      </trkpt>
      <trkpt lat="45.79394" lon="6.10218">
        <ele>1644</ele>
        <time>2011-08-01T15:30:44Z</time>
      </trkpt>
      <trkpt lat="45.79382" lon="6.10214">
        <ele>1644</ele>
        <time>2011-08-01T15:30:48Z</time>
      </trkpt>
      <trkpt lat="45.79375" lon="6.10215">
        <ele>1644</ele>
        <time>2011-08-01T15:30:56Z</time>
      </trkpt>
      <trkpt lat="45.79372" lon="6.10216">
        <ele>1644</ele>
        <time>2011-08-01T15:31:03Z</time>
      </trkpt>
      <trkpt lat="45.79365" lon="6.10218">
        <ele>1643</ele>
        <time>2011-08-01T15:31:09Z</time>
      </trkpt>
      <trkpt lat="45.79347" lon="6.10221">
        <ele>1643</ele>
        <time>2011-08-01T15:31:14Z</time>
      </trkpt>
      <trkpt lat="45.79321" lon="6.10221">
        <ele>1639</ele>
        <time>2011-08-01T15:31:20Z</time>
      </trkpt>
      <trkpt lat="45.79281" lon="6.10205">
        <ele>1638</ele>
        <time>2011-08-01T15:31:28Z</time>
      </trkpt>
      <trkpt lat="45.79269" lon="6.102">
        <ele>1638</ele>
        <time>2011-08-01T15:31:30Z</time>
      </trkpt>
      <trkpt lat="45.7925" lon="6.10206">
        <ele>1632</ele>
        <time>2011-08-01T15:31:34Z</time>
      </trkpt>
      <trkpt lat="45.79248" lon="6.10223">
        <ele>1632</ele>
        <time>2011-08-01T15:31:36Z</time>
      </trkpt>
      <trkpt lat="45.79257" lon="6.1024">
        <ele>1635</ele>
        <time>2011-08-01T15:31:38Z</time>
      </trkpt>
      <trkpt lat="45.79264" lon="6.10247">
        <ele>1635</ele>
        <time>2011-08-01T15:31:39Z</time>
      </trkpt>
      <trkpt lat="45.79323" lon="6.10303">
        <ele>1629</ele>
        <time>2011-08-01T15:31:47Z</time>
      </trkpt>
      <trkpt lat="45.79348" lon="6.10327">
        <ele>1631</ele>
        <time>2011-08-01T15:31:50Z</time>
      </trkpt>
      <trkpt lat="45.79379" lon="6.10376">
        <ele>1624</ele>
        <time>2011-08-01T15:31:54Z</time>
      </trkpt>
      <trkpt lat="45.79409" lon="6.10407">
        <ele>1622</ele>
        <time>2011-08-01T15:31:57Z</time>
      </trkpt>
      <trkpt lat="45.79437" lon="6.10439">
        <ele>1620</ele>
        <time>2011-08-01T15:32:00Z</time>
      </trkpt>
      <trkpt lat="45.79469" lon="6.1051">
        <ele>1610</ele>
        <time>2011-08-01T15:32:05Z</time>
      </trkpt>
      <trkpt lat="45.79493" lon="6.10588">
        <ele>1605</ele>
        <time>2011-08-01T15:32:10Z</time>
      </trkpt>
      <trkpt lat="45.79524" lon="6.10666">
        <ele>1610</ele>
        <time>2011-08-01T15:32:15Z</time>
      </trkpt>
      <trkpt lat="45.79528" lon="6.10715">
        <ele>1604</ele>
        <time>2011-08-01T15:32:18Z</time>
      </trkpt>
      <trkpt lat="45.79512" lon="6.1074">
        <ele>1598</ele>
        <time>2011-08-01T15:32:20Z</time>
      </trkpt>
      <trkpt lat="45.79491" lon="6.10752">
        <ele>1589</ele>
        <time>2011-08-01T15:32:22Z</time>
      </trkpt>
      <trkpt lat="45.79395" lon="6.10788">
        <ele>1582</ele>
        <time>2011-08-01T15:32:30Z</time>
      </trkpt>
      <trkpt lat="45.79385" lon="6.10792">
        <ele>1582</ele>
        <time>2011-08-01T15:32:31Z</time>
      </trkpt>
      <trkpt lat="45.79351" lon="6.10831">
        <ele>1581</ele>
        <time>2011-08-01T15:32:35Z</time>
      </trkpt>
      <trkpt lat="45.79316" lon="6.109">
        <ele>1577</ele>
        <time>2011-08-01T15:32:40Z</time>
      </trkpt>
      <trkpt lat="45.79299" lon="6.10959">
        <ele>1576</ele>
        <time>2011-08-01T15:32:44Z</time>
      </trkpt>
      <trkpt lat="45.79292" lon="6.11016">
        <ele>1574</ele>
        <time>2011-08-01T15:32:48Z</time>
      </trkpt>
      <trkpt lat="45.79289" lon="6.11044">
        <ele>1574</ele>
        <time>2011-08-01T15:32:50Z</time>
      </trkpt>
      <trkpt lat="45.79297" lon="6.11107">
        <ele>1568</ele>
        <time>2011-08-01T15:32:55Z</time>
      </trkpt>
      <trkpt lat="45.79299" lon="6.11132">
        <ele>1567</ele>
        <time>2011-08-01T15:32:57Z</time>
      </trkpt>
      <trkpt lat="45.79278" lon="6.11162">
        <ele>1566</ele>
        <time>2011-08-01T15:33:01Z</time>
      </trkpt>
      <trkpt lat="45.7925" lon="6.11162">
        <ele>1564</ele>
        <time>2011-08-01T15:33:04Z</time>
      </trkpt>
      <trkpt lat="45.79224" lon="6.11148">
        <ele>1564</ele>
        <time>2011-08-01T15:33:07Z</time>
      </trkpt>
      <trkpt lat="45.79189" lon="6.11118">
        <ele>1564</ele>
        <time>2011-08-01T15:33:11Z</time>
      </trkpt>
      <trkpt lat="45.79168" lon="6.1111">
        <ele>1565</ele>
        <time>2011-08-01T15:33:13Z</time>
      </trkpt>
      <trkpt lat="45.79098" lon="6.11096">
        <ele>1552</ele>
        <time>2011-08-01T15:33:19Z</time>
      </trkpt>
      <trkpt lat="45.79062" lon="6.11077">
        <ele>1553</ele>
        <time>2011-08-01T15:33:22Z</time>
      </trkpt>
      <trkpt lat="45.79003" lon="6.11069">
        <ele>1545</ele>
        <time>2011-08-01T15:33:27Z</time>
      </trkpt>
      <trkpt lat="45.78993" lon="6.11067">
        <ele>1538</ele>
        <time>2011-08-01T15:33:28Z</time>
      </trkpt>
      <trkpt lat="45.78957" lon="6.11042">
        <ele>1539</ele>
        <time>2011-08-01T15:33:32Z</time>
      </trkpt>
      <trkpt lat="45.78924" lon="6.11007">
        <ele>1539</ele>
        <time>2011-08-01T15:33:36Z</time>
      </trkpt>
      <trkpt lat="45.78887" lon="6.11025">
        <ele>1530</ele>
        <time>2011-08-01T15:33:40Z</time>
      </trkpt>
      <trkpt lat="45.78879" lon="6.11034">
        <ele>1528</ele>
        <time>2011-08-01T15:33:41Z</time>
      </trkpt>
      <trkpt lat="45.78863" lon="6.11046">
        <ele>1526</ele>
        <time>2011-08-01T15:33:43Z</time>
      </trkpt>
      <trkpt lat="45.78816" lon="6.11053">
        <ele>1520</ele>
        <time>2011-08-01T15:33:48Z</time>
      </trkpt>
      <trkpt lat="45.78806" lon="6.11054">
        <ele>1520</ele>
        <time>2011-08-01T15:33:49Z</time>
      </trkpt>
      <trkpt lat="45.78767" lon="6.11054">
        <ele>1518</ele>
        <time>2011-08-01T15:33:53Z</time>
      </trkpt>
      <trkpt lat="45.78734" lon="6.11042">
        <ele>1515</ele>
        <time>2011-08-01T15:33:57Z</time>
      </trkpt>
      <trkpt lat="45.78704" lon="6.11042">
        <ele>1513</ele>
        <time>2011-08-01T15:34:00Z</time>
      </trkpt>
      <trkpt lat="45.78661" lon="6.11038">
        <ele>1509</ele>
        <time>2011-08-01T15:34:04Z</time>
      </trkpt>
      <trkpt lat="45.7865" lon="6.11045">
        <ele>1507</ele>
        <time>2011-08-01T15:34:05Z</time>
      </trkpt>
      <trkpt lat="45.78615" lon="6.11061">
        <ele>1505</ele>
        <time>2011-08-01T15:34:08Z</time>
      </trkpt>
      <trkpt lat="45.78557" lon="6.11075">
        <ele>1498</ele>
        <time>2011-08-01T15:34:13Z</time>
      </trkpt>
      <trkpt lat="45.7854" lon="6.11111">
        <ele>1494</ele>
        <time>2011-08-01T15:34:17Z</time>
      </trkpt>
      <trkpt lat="45.78551" lon="6.11133">
        <ele>1494</ele>
        <time>2011-08-01T15:34:19Z</time>
      </trkpt>
      <trkpt lat="45.78564" lon="6.1115">
        <ele>1494</ele>
        <time>2011-08-01T15:34:21Z</time>
      </trkpt>
      <trkpt lat="45.78591" lon="6.11189">
        <ele>1492</ele>
        <time>2011-08-01T15:34:25Z</time>
      </trkpt>
      <trkpt lat="45.78591" lon="6.11232">
        <ele>1490</ele>
        <time>2011-08-01T15:34:28Z</time>
      </trkpt>
      <trkpt lat="45.78587" lon="6.11246">
        <ele>1490</ele>
        <time>2011-08-01T15:34:29Z</time>
      </trkpt>
      <trkpt lat="45.78579" lon="6.11288">
        <ele>1486</ele>
        <time>2011-08-01T15:34:32Z</time>
      </trkpt>
      <trkpt lat="45.78582" lon="6.11342">
        <ele>1479</ele>
        <time>2011-08-01T15:34:36Z</time>
      </trkpt>
      <trkpt lat="45.78584" lon="6.11381">
        <ele>1474</ele>
        <time>2011-08-01T15:34:39Z</time>
      </trkpt>
      <trkpt lat="45.78578" lon="6.11423">
        <ele>1465</ele>
        <time>2011-08-01T15:34:42Z</time>
      </trkpt>
      <trkpt lat="45.78571" lon="6.11455">
        <ele>1458</ele>
        <time>2011-08-01T15:34:45Z</time>
      </trkpt>
      <trkpt lat="45.78555" lon="6.11458">
        <ele>1457</ele>
        <time>2011-08-01T15:34:47Z</time>
      </trkpt>
      <trkpt lat="45.78536" lon="6.11451">
        <ele>1457</ele>
        <time>2011-08-01T15:34:49Z</time>
      </trkpt>
      <trkpt lat="45.78505" lon="6.11445">
        <ele>1457</ele>
        <time>2011-08-01T15:34:52Z</time>
      </trkpt>
      <trkpt lat="45.78457" lon="6.11417">
        <ele>1451</ele>
        <time>2011-08-01T15:34:57Z</time>
      </trkpt>
      <trkpt lat="45.78427" lon="6.11413">
        <ele>1454</ele>
        <time>2011-08-01T15:35:00Z</time>
      </trkpt>
      <trkpt lat="45.78395" lon="6.11412">
        <ele>1449</ele>
        <time>2011-08-01T15:35:03Z</time>
      </trkpt>
      <trkpt lat="45.78367" lon="6.11395">
        <ele>1448</ele>
        <time>2011-08-01T15:35:06Z</time>
      </trkpt>
      <trkpt lat="45.78345" lon="6.11377">
        <ele>1448</ele>
        <time>2011-08-01T15:35:09Z</time>
      </trkpt>
      <trkpt lat="45.78326" lon="6.11379">
        <ele>1441</ele>
        <time>2011-08-01T15:35:11Z</time>
      </trkpt>
      <trkpt lat="45.78263" lon="6.11374">
        <ele>1438</ele>
        <time>2011-08-01T15:35:17Z</time>
      </trkpt>
      <trkpt lat="45.7822" lon="6.1138">
        <ele>1429</ele>
        <time>2011-08-01T15:35:21Z</time>
      </trkpt>
      <trkpt lat="45.78189" lon="6.11387">
        <ele>1427</ele>
        <time>2011-08-01T15:35:24Z</time>
      </trkpt>
      <trkpt lat="45.78165" lon="6.11372">
        <ele>1422</ele>
        <time>2011-08-01T15:35:28Z</time>
      </trkpt>
      <trkpt lat="45.78159" lon="6.11348">
        <ele>1424</ele>
        <time>2011-08-01T15:35:30Z</time>
      </trkpt>
      <trkpt lat="45.78145" lon="6.11282">
        <ele>1430</ele>
        <time>2011-08-01T15:35:35Z</time>
      </trkpt>
      <trkpt lat="45.78123" lon="6.11249">
        <ele>1434</ele>
        <time>2011-08-01T15:35:39Z</time>
      </trkpt>
      <trkpt lat="45.781" lon="6.11253">
        <ele>1429</ele>
        <time>2011-08-01T15:35:42Z</time>
      </trkpt>
      <trkpt lat="45.78087" lon="6.11281">
        <ele>1428</ele>
        <time>2011-08-01T15:35:45Z</time>
      </trkpt>
      <trkpt lat="45.78085" lon="6.1129">
        <ele>1428</ele>
        <time>2011-08-01T15:35:46Z</time>
      </trkpt>
      <trkpt lat="45.78077" lon="6.11335">
        <ele>1420</ele>
        <time>2011-08-01T15:35:51Z</time>
      </trkpt>
      <trkpt lat="45.7806" lon="6.11355">
        <ele>1416</ele>
        <time>2011-08-01T15:35:55Z</time>
      </trkpt>
      <trkpt lat="45.78048" lon="6.1135">
        <ele>1415</ele>
        <time>2011-08-01T15:35:57Z</time>
      </trkpt>
      <trkpt lat="45.78009" lon="6.11325">
        <ele>1417</ele>
        <time>2011-08-01T15:36:03Z</time>
      </trkpt>
      <trkpt lat="45.77975" lon="6.113">
        <ele>1410</ele>
        <time>2011-08-01T15:36:08Z</time>
      </trkpt>
      <trkpt lat="45.7796" lon="6.11257">
        <ele>1411</ele>
        <time>2011-08-01T15:36:12Z</time>
      </trkpt>
      <trkpt lat="45.77961" lon="6.11243">
        <ele>1414</ele>
        <time>2011-08-01T15:36:13Z</time>
      </trkpt>
      <trkpt lat="45.77956" lon="6.11166">
        <ele>1416</ele>
        <time>2011-08-01T15:36:19Z</time>
      </trkpt>
      <trkpt lat="45.77961" lon="6.11121">
        <ele>1415</ele>
        <time>2011-08-01T15:36:23Z</time>
      </trkpt>
      <trkpt lat="45.77974" lon="6.11095">
        <ele>1417</ele>
        <time>2011-08-01T15:36:26Z</time>
      </trkpt>
      <trkpt lat="45.77979" lon="6.11064">
        <ele>1416</ele>
        <time>2011-08-01T15:36:29Z</time>
      </trkpt>
      <trkpt lat="45.77971" lon="6.11046">
        <ele>1415</ele>
        <time>2011-08-01T15:36:31Z</time>
      </trkpt>
      <trkpt lat="45.7795" lon="6.11033">
        <ele>1413</ele>
        <time>2011-08-01T15:36:34Z</time>
      </trkpt>
      <trkpt lat="45.77896" lon="6.11023">
        <ele>1412</ele>
        <time>2011-08-01T15:36:41Z</time>
      </trkpt>
      <trkpt lat="45.7789" lon="6.11023">
        <ele>1413</ele>
        <time>2011-08-01T15:36:42Z</time>
      </trkpt>
      <trkpt lat="45.77859" lon="6.11032">
        <ele>1415</ele>
        <time>2011-08-01T15:36:47Z</time>
      </trkpt>
      <trkpt lat="45.77853" lon="6.11035">
        <ele>1415</ele>
        <time>2011-08-01T15:36:48Z</time>
      </trkpt>
      <trkpt lat="45.77818" lon="6.11068">
        <ele>1416</ele>
        <time>2011-08-01T15:36:55Z</time>
      </trkpt>
      <trkpt lat="45.77797" lon="6.1109">
        <ele>1407</ele>
        <time>2011-08-01T15:36:59Z</time>
      </trkpt>
      <trkpt lat="45.77763" lon="6.11106">
        <ele>1409</ele>
        <time>2011-08-01T15:37:05Z</time>
      </trkpt>
      <trkpt lat="45.77741" lon="6.11125">
        <ele>1405</ele>
        <time>2011-08-01T15:37:09Z</time>
      </trkpt>
      <trkpt lat="45.77707" lon="6.11166">
        <ele>1401</ele>
        <time>2011-08-01T15:37:16Z</time>
      </trkpt>
      <trkpt lat="45.77684" lon="6.11173">
        <ele>1391</ele>
        <time>2011-08-01T15:37:20Z</time>
      </trkpt>
      <trkpt lat="45.77672" lon="6.11169">
        <ele>1393</ele>
        <time>2011-08-01T15:37:22Z</time>
      </trkpt>
      <trkpt lat="45.77613" lon="6.11138">
        <ele>1397</ele>
        <time>2011-08-01T15:37:31Z</time>
      </trkpt>
      <trkpt lat="45.77581" lon="6.11125">
        <ele>1391</ele>
        <time>2011-08-01T15:37:36Z</time>
      </trkpt>
      <trkpt lat="45.77543" lon="6.11122">
        <ele>1390</ele>
        <time>2011-08-01T15:37:41Z</time>
      </trkpt>
      <trkpt lat="45.77514" lon="6.11107">
        <ele>1390</ele>
        <time>2011-08-01T15:37:45Z</time>
      </trkpt>
      <trkpt lat="45.77472" lon="6.11089">
        <ele>1384</ele>
        <time>2011-08-01T15:37:50Z</time>
      </trkpt>
      <trkpt lat="45.77464" lon="6.11089">
        <ele>1384</ele>
        <time>2011-08-01T15:37:51Z</time>
      </trkpt>
      <trkpt lat="45.77401" lon="6.11083">
        <ele>1380</ele>
        <time>2011-08-01T15:37:58Z</time>
      </trkpt>
      <trkpt lat="45.77336" lon="6.11069">
        <ele>1384</ele>
        <time>2011-08-01T15:38:05Z</time>
      </trkpt>
      <trkpt lat="45.77317" lon="6.11063">
        <ele>1382</ele>
        <time>2011-08-01T15:38:07Z</time>
      </trkpt>
      <trkpt lat="45.7728" lon="6.11068">
        <ele>1380</ele>
        <time>2011-08-01T15:38:11Z</time>
      </trkpt>
      <trkpt lat="45.77233" lon="6.11066">
        <ele>1374</ele>
        <time>2011-08-01T15:38:16Z</time>
      </trkpt>
      <trkpt lat="45.77172" lon="6.11052">
        <ele>1372</ele>
        <time>2011-08-01T15:38:23Z</time>
      </trkpt>
      <trkpt lat="45.77106" lon="6.11045">
        <ele>1370</ele>
        <time>2011-08-01T15:38:31Z</time>
      </trkpt>
      <trkpt lat="45.77044" lon="6.11037">
        <ele>1365</ele>
        <time>2011-08-01T15:38:39Z</time>
      </trkpt>
      <trkpt lat="45.77037" lon="6.11035">
        <ele>1364</ele>
        <time>2011-08-01T15:38:40Z</time>
      </trkpt>
      <trkpt lat="45.76994" lon="6.11014">
        <ele>1361</ele>
        <time>2011-08-01T15:38:46Z</time>
      </trkpt>
      <trkpt lat="45.76966" lon="6.10983">
        <ele>1371</ele>
        <time>2011-08-01T15:38:51Z</time>
      </trkpt>
      <trkpt lat="45.76941" lon="6.10966">
        <ele>1370</ele>
        <time>2011-08-01T15:38:55Z</time>
      </trkpt>
      <trkpt lat="45.76882" lon="6.10947">
        <ele>1360</ele>
        <time>2011-08-01T15:39:04Z</time>
      </trkpt>
      <trkpt lat="45.76825" lon="6.10932">
        <ele>1353</ele>
        <time>2011-08-01T15:39:13Z</time>
      </trkpt>
      <trkpt lat="45.76818" lon="6.10931">
        <ele>1352</ele>
        <time>2011-08-01T15:39:14Z</time>
      </trkpt>
      <trkpt lat="45.76783" lon="6.10917">
        <ele>1348</ele>
        <time>2011-08-01T15:39:19Z</time>
      </trkpt>
      <trkpt lat="45.7677" lon="6.10903">
        <ele>1356</ele>
        <time>2011-08-01T15:39:21Z</time>
      </trkpt>
      <trkpt lat="45.76758" lon="6.10854">
        <ele>1358</ele>
        <time>2011-08-01T15:39:26Z</time>
      </trkpt>
      <trkpt lat="45.76755" lon="6.10833">
        <ele>1359</ele>
        <time>2011-08-01T15:39:28Z</time>
      </trkpt>
      <trkpt lat="45.7675" lon="6.10813">
        <ele>1362</ele>
        <time>2011-08-01T15:39:30Z</time>
      </trkpt>
      <trkpt lat="45.7673" lon="6.10779">
        <ele>1356</ele>
        <time>2011-08-01T15:39:34Z</time>
      </trkpt>
      <trkpt lat="45.76712" lon="6.10766">
        <ele>1354</ele>
        <time>2011-08-01T15:39:36Z</time>
      </trkpt>
      <trkpt lat="45.76686" lon="6.10729">
        <ele>1357</ele>
        <time>2011-08-01T15:39:41Z</time>
      </trkpt>
      <trkpt lat="45.76685" lon="6.10718">
        <ele>1359</ele>
        <time>2011-08-01T15:39:42Z</time>
      </trkpt>
      <trkpt lat="45.7666" lon="6.1068">
        <ele>1356</ele>
        <time>2011-08-01T15:39:47Z</time>
      </trkpt>
      <trkpt lat="45.76622" lon="6.10666">
        <ele>1359</ele>
        <time>2011-08-01T15:39:52Z</time>
      </trkpt>
      <trkpt lat="45.7659" lon="6.10673">
        <ele>1351</ele>
        <time>2011-08-01T15:39:56Z</time>
      </trkpt>
      <trkpt lat="45.76551" lon="6.10666">
        <ele>1352</ele>
        <time>2011-08-01T15:40:01Z</time>
      </trkpt>
      <trkpt lat="45.76529" lon="6.10651">
        <ele>1352</ele>
        <time>2011-08-01T15:40:04Z</time>
      </trkpt>
      <trkpt lat="45.76506" lon="6.10644">
        <ele>1351</ele>
        <time>2011-08-01T15:40:07Z</time>
      </trkpt>
      <trkpt lat="45.76464" lon="6.1065">
        <ele>1348</ele>
        <time>2011-08-01T15:40:12Z</time>
      </trkpt>
      <trkpt lat="45.7644" lon="6.10656">
        <ele>1347</ele>
        <time>2011-08-01T15:40:15Z</time>
      </trkpt>
      <trkpt lat="45.76404" lon="6.10648">
        <ele>1343</ele>
        <time>2011-08-01T15:40:20Z</time>
      </trkpt>
      <trkpt lat="45.76353" lon="6.10634">
        <ele>1343</ele>
        <time>2011-08-01T15:40:27Z</time>
      </trkpt>
      <trkpt lat="45.76317" lon="6.10623">
        <ele>1334</ele>
        <time>2011-08-01T15:40:32Z</time>
      </trkpt>
      <trkpt lat="45.76296" lon="6.10609">
        <ele>1333</ele>
        <time>2011-08-01T15:40:35Z</time>
      </trkpt>
      <trkpt lat="45.76279" lon="6.10575">
        <ele>1337</ele>
        <time>2011-08-01T15:40:39Z</time>
      </trkpt>
      <trkpt lat="45.76276" lon="6.10564">
        <ele>1338</ele>
        <time>2011-08-01T15:40:40Z</time>
      </trkpt>
      <trkpt lat="45.76252" lon="6.10511">
        <ele>1339</ele>
        <time>2011-08-01T15:40:45Z</time>
      </trkpt>
      <trkpt lat="45.76226" lon="6.10493">
        <ele>1335</ele>
        <time>2011-08-01T15:40:48Z</time>
      </trkpt>
      <trkpt lat="45.76186" lon="6.10486">
        <ele>1329</ele>
        <time>2011-08-01T15:40:52Z</time>
      </trkpt>
      <trkpt lat="45.7614" lon="6.10475">
        <ele>1319</ele>
        <time>2011-08-01T15:40:57Z</time>
      </trkpt>
      <trkpt lat="45.76129" lon="6.10451">
        <ele>1319</ele>
        <time>2011-08-01T15:40:59Z</time>
      </trkpt>
      <trkpt lat="45.76125" lon="6.10437">
        <ele>1319</ele>
        <time>2011-08-01T15:41:00Z</time>
      </trkpt>
      <trkpt lat="45.76106" lon="6.10389">
        <ele>1321</ele>
        <time>2011-08-01T15:41:04Z</time>
      </trkpt>
      <trkpt lat="45.76079" lon="6.10375">
        <ele>1312</ele>
        <time>2011-08-01T15:41:08Z</time>
      </trkpt>
      <trkpt lat="45.76071" lon="6.10403">
        <ele>1312</ele>
        <time>2011-08-01T15:41:11Z</time>
      </trkpt>
      <trkpt lat="45.76083" lon="6.10433">
        <ele>1308</ele>
        <time>2011-08-01T15:41:14Z</time>
      </trkpt>
      <trkpt lat="45.7612" lon="6.10499">
        <ele>1315</ele>
        <time>2011-08-01T15:41:21Z</time>
      </trkpt>
      <trkpt lat="45.76148" lon="6.10566">
        <ele>1308</ele>
        <time>2011-08-01T15:41:27Z</time>
      </trkpt>
      <trkpt lat="45.76158" lon="6.10589">
        <ele>1305</ele>
        <time>2011-08-01T15:41:29Z</time>
      </trkpt>
      <trkpt lat="45.76186" lon="6.10628">
        <ele>1310</ele>
        <time>2011-08-01T15:41:33Z</time>
      </trkpt>
      <trkpt lat="45.76236" lon="6.10709">
        <ele>1299</ele>
        <time>2011-08-01T15:41:40Z</time>
      </trkpt>
      <trkpt lat="45.76258" lon="6.10763">
        <ele>1293</ele>
        <time>2011-08-01T15:41:44Z</time>
      </trkpt>
      <trkpt lat="45.76263" lon="6.10776">
        <ele>1292</ele>
        <time>2011-08-01T15:41:45Z</time>
      </trkpt>
      <trkpt lat="45.76294" lon="6.10811">
        <ele>1289</ele>
        <time>2011-08-01T15:41:49Z</time>
      </trkpt>
      <trkpt lat="45.76315" lon="6.10809">
        <ele>1290</ele>
        <time>2011-08-01T15:41:51Z</time>
      </trkpt>
      <trkpt lat="45.76378" lon="6.10818">
        <ele>1298</ele>
        <time>2011-08-01T15:41:57Z</time>
      </trkpt>
      <trkpt lat="45.76389" lon="6.10823">
        <ele>1298</ele>
        <time>2011-08-01T15:41:58Z</time>
      </trkpt>
      <trkpt lat="45.76426" lon="6.10857">
        <ele>1289</ele>
        <time>2011-08-01T15:42:02Z</time>
      </trkpt>
      <trkpt lat="45.76469" lon="6.10927">
        <ele>1270</ele>
        <time>2011-08-01T15:42:08Z</time>
      </trkpt>
      <trkpt lat="45.7652" lon="6.1098">
        <ele>1279</ele>
        <time>2011-08-01T15:42:14Z</time>
      </trkpt>
      <trkpt lat="45.76527" lon="6.10991">
        <ele>1279</ele>
        <time>2011-08-01T15:42:15Z</time>
      </trkpt>
      <trkpt lat="45.76547" lon="6.11028">
        <ele>1261</ele>
        <time>2011-08-01T15:42:18Z</time>
      </trkpt>
      <trkpt lat="45.76583" lon="6.11062">
        <ele>1257</ele>
        <time>2011-08-01T15:42:22Z</time>
      </trkpt>
      <trkpt lat="45.7663" lon="6.1109">
        <ele>1255</ele>
        <time>2011-08-01T15:42:27Z</time>
      </trkpt>
      <trkpt lat="45.76672" lon="6.1113">
        <ele>1265</ele>
        <time>2011-08-01T15:42:32Z</time>
      </trkpt>
      <trkpt lat="45.76714" lon="6.11164">
        <ele>1265</ele>
        <time>2011-08-01T15:42:37Z</time>
      </trkpt>
      <trkpt lat="45.76772" lon="6.11213">
        <ele>1254</ele>
        <time>2011-08-01T15:42:44Z</time>
      </trkpt>
      <trkpt lat="45.76844" lon="6.11282">
        <ele>1243</ele>
        <time>2011-08-01T15:42:53Z</time>
      </trkpt>
      <trkpt lat="45.76899" lon="6.11324">
        <ele>1241</ele>
        <time>2011-08-01T15:42:59Z</time>
      </trkpt>
      <trkpt lat="45.76944" lon="6.11366">
        <ele>1231</ele>
        <time>2011-08-01T15:43:04Z</time>
      </trkpt>
      <trkpt lat="45.7696" lon="6.11385">
        <ele>1228</ele>
        <time>2011-08-01T15:43:06Z</time>
      </trkpt>
      <trkpt lat="45.76995" lon="6.11408">
        <ele>1224</ele>
        <time>2011-08-01T15:43:10Z</time>
      </trkpt>
      <trkpt lat="45.77013" lon="6.11418">
        <ele>1217</ele>
        <time>2011-08-01T15:43:12Z</time>
      </trkpt>
      <trkpt lat="45.77037" lon="6.11437">
        <ele>1215</ele>
        <time>2011-08-01T15:43:15Z</time>
      </trkpt>
      <trkpt lat="45.77092" lon="6.11464">
        <ele>1225</ele>
        <time>2011-08-01T15:43:21Z</time>
      </trkpt>
      <trkpt lat="45.77119" lon="6.11481">
        <ele>1223</ele>
        <time>2011-08-01T15:43:24Z</time>
      </trkpt>
      <trkpt lat="45.77159" lon="6.11492">
        <ele>1221</ele>
        <time>2011-08-01T15:43:28Z</time>
      </trkpt>
      <trkpt lat="45.77206" lon="6.11518">
        <ele>1207</ele>
        <time>2011-08-01T15:43:33Z</time>
      </trkpt>
      <trkpt lat="45.7724" lon="6.11546">
        <ele>1203</ele>
        <time>2011-08-01T15:43:37Z</time>
      </trkpt>
      <trkpt lat="45.77272" lon="6.11576">
        <ele>1210</ele>
        <time>2011-08-01T15:43:42Z</time>
      </trkpt>
      <trkpt lat="45.77311" lon="6.11591">
        <ele>1195</ele>
        <time>2011-08-01T15:43:48Z</time>
      </trkpt>
      <trkpt lat="45.77351" lon="6.11624">
        <ele>1201</ele>
        <time>2011-08-01T15:43:54Z</time>
      </trkpt>
      <trkpt lat="45.77358" lon="6.11631">
        <ele>1200</ele>
        <time>2011-08-01T15:43:55Z</time>
      </trkpt>
      <trkpt lat="45.77389" lon="6.11646">
        <ele>1199</ele>
        <time>2011-08-01T15:43:59Z</time>
      </trkpt>
      <trkpt lat="45.77401" lon="6.11659">
        <ele>1195</ele>
        <time>2011-08-01T15:44:02Z</time>
      </trkpt>
      <trkpt lat="45.77386" lon="6.11659">
        <ele>1197</ele>
        <time>2011-08-01T15:44:05Z</time>
      </trkpt>
      <trkpt lat="45.7738" lon="6.11653">
        <ele>1197</ele>
        <time>2011-08-01T15:44:06Z</time>
      </trkpt>
      <trkpt lat="45.77325" lon="6.11623">
        <ele>1187</ele>
        <time>2011-08-01T15:44:13Z</time>
      </trkpt>
      <trkpt lat="45.77308" lon="6.11614">
        <ele>1188</ele>
        <time>2011-08-01T15:44:15Z</time>
      </trkpt>
      <trkpt lat="45.7726" lon="6.11604">
        <ele>1185</ele>
        <time>2011-08-01T15:44:20Z</time>
      </trkpt>
      <trkpt lat="45.77219" lon="6.11584">
        <ele>1170</ele>
        <time>2011-08-01T15:44:24Z</time>
      </trkpt>
      <trkpt lat="45.7719" lon="6.11565">
        <ele>1191</ele>
        <time>2011-08-01T15:44:27Z</time>
      </trkpt>
      <trkpt lat="45.77147" lon="6.11552">
        <ele>1180</ele>
        <time>2011-08-01T15:44:31Z</time>
      </trkpt>
      <trkpt lat="45.77082" lon="6.11534">
        <ele>1171</ele>
        <time>2011-08-01T15:44:37Z</time>
      </trkpt>
      <trkpt lat="45.77016" lon="6.11519">
        <ele>1168</ele>
        <time>2011-08-01T15:44:43Z</time>
      </trkpt>
      <trkpt lat="45.76977" lon="6.11505">
        <ele>1156</ele>
        <time>2011-08-01T15:44:47Z</time>
      </trkpt>
      <trkpt lat="45.76918" lon="6.1148">
        <ele>1168</ele>
        <time>2011-08-01T15:44:53Z</time>
      </trkpt>
      <trkpt lat="45.76881" lon="6.11467">
        <ele>1156</ele>
        <time>2011-08-01T15:44:57Z</time>
      </trkpt>
      <trkpt lat="45.76834" lon="6.11445">
        <ele>1157</ele>
        <time>2011-08-01T15:45:02Z</time>
      </trkpt>
      <trkpt lat="45.76767" lon="6.11413">
        <ele>1160</ele>
        <time>2011-08-01T15:45:09Z</time>
      </trkpt>
      <trkpt lat="45.76696" lon="6.11381">
        <ele>1150</ele>
        <time>2011-08-01T15:45:16Z</time>
      </trkpt>
      <trkpt lat="45.7662" lon="6.11354">
        <ele>1134</ele>
        <time>2011-08-01T15:45:23Z</time>
      </trkpt>
      <trkpt lat="45.76541" lon="6.11326">
        <ele>1142</ele>
        <time>2011-08-01T15:45:30Z</time>
      </trkpt>
      <trkpt lat="45.7646" lon="6.11298">
        <ele>1130</ele>
        <time>2011-08-01T15:45:37Z</time>
      </trkpt>
      <trkpt lat="45.76382" lon="6.11265">
        <ele>1118</ele>
        <time>2011-08-01T15:45:44Z</time>
      </trkpt>
      <trkpt lat="45.76335" lon="6.11256">
        <ele>1119</ele>
        <time>2011-08-01T15:45:48Z</time>
      </trkpt>
      <trkpt lat="45.76251" lon="6.11234">
        <ele>1116</ele>
        <time>2011-08-01T15:45:55Z</time>
      </trkpt>
      <trkpt lat="45.76194" lon="6.11214">
        <ele>1109</ele>
        <time>2011-08-01T15:46:00Z</time>
      </trkpt>
      <trkpt lat="45.76137" lon="6.11201">
        <ele>1098</ele>
        <time>2011-08-01T15:46:05Z</time>
      </trkpt>
      <trkpt lat="45.76109" lon="6.11184">
        <ele>1099</ele>
        <time>2011-08-01T15:46:08Z</time>
      </trkpt>
      <trkpt lat="45.7609" lon="6.11183">
        <ele>1099</ele>
        <time>2011-08-01T15:46:11Z</time>
      </trkpt>
      <trkpt lat="45.76089" lon="6.11206">
        <ele>1093</ele>
        <time>2011-08-01T15:46:13Z</time>
      </trkpt>
      <trkpt lat="45.76098" lon="6.11216">
        <ele>1091</ele>
        <time>2011-08-01T15:46:15Z</time>
      </trkpt>
      <trkpt lat="45.76106" lon="6.11218">
        <ele>1091</ele>
        <time>2011-08-01T15:46:16Z</time>
      </trkpt>
      <trkpt lat="45.76166" lon="6.11244">
        <ele>1086</ele>
        <time>2011-08-01T15:46:23Z</time>
      </trkpt>
      <trkpt lat="45.76202" lon="6.11266">
        <ele>1078</ele>
        <time>2011-08-01T15:46:27Z</time>
      </trkpt>
      <trkpt lat="45.76247" lon="6.11303">
        <ele>1074</ele>
        <time>2011-08-01T15:46:32Z</time>
      </trkpt>
      <trkpt lat="45.76306" lon="6.11345">
        <ele>1066</ele>
        <time>2011-08-01T15:46:38Z</time>
      </trkpt>
      <trkpt lat="45.76348" lon="6.11367">
        <ele>1076</ele>
        <time>2011-08-01T15:46:42Z</time>
      </trkpt>
      <trkpt lat="45.764" lon="6.11403">
        <ele>1072</ele>
        <time>2011-08-01T15:46:47Z</time>
      </trkpt>
      <trkpt lat="45.76449" lon="6.1145">
        <ele>1060</ele>
        <time>2011-08-01T15:46:52Z</time>
      </trkpt>
      <trkpt lat="45.765" lon="6.11486">
        <ele>1054</ele>
        <time>2011-08-01T15:46:57Z</time>
      </trkpt>
      <trkpt lat="45.7654" lon="6.11507">
        <ele>1047</ele>
        <time>2011-08-01T15:47:01Z</time>
      </trkpt>
      <trkpt lat="45.7662" lon="6.11557">
        <ele>1053</ele>
        <time>2011-08-01T15:47:09Z</time>
      </trkpt>
      <trkpt lat="45.7668" lon="6.116">
        <ele>1046</ele>
        <time>2011-08-01T15:47:15Z</time>
      </trkpt>
      <trkpt lat="45.7675" lon="6.11657">
        <ele>1048</ele>
        <time>2011-08-01T15:47:22Z</time>
      </trkpt>
      <trkpt lat="45.76802" lon="6.11721">
        <ele>1037</ele>
        <time>2011-08-01T15:47:28Z</time>
      </trkpt>
      <trkpt lat="45.76851" lon="6.11763">
        <ele>1032</ele>
        <time>2011-08-01T15:47:33Z</time>
      </trkpt>
      <trkpt lat="45.76908" lon="6.11816">
        <ele>1029</ele>
        <time>2011-08-01T15:47:39Z</time>
      </trkpt>
      <trkpt lat="45.76925" lon="6.1183">
        <ele>1033</ele>
        <time>2011-08-01T15:47:41Z</time>
      </trkpt>
      <trkpt lat="45.76961" lon="6.11879">
        <ele>1025</ele>
        <time>2011-08-01T15:47:46Z</time>
      </trkpt>
      <trkpt lat="45.76967" lon="6.11891">
        <ele>1024</ele>
        <time>2011-08-01T15:47:47Z</time>
      </trkpt>
      <trkpt lat="45.77009" lon="6.11941">
        <ele>1021</ele>
        <time>2011-08-01T15:47:52Z</time>
      </trkpt>
      <trkpt lat="45.77054" lon="6.11992">
        <ele>1018</ele>
        <time>2011-08-01T15:47:57Z</time>
      </trkpt>
      <trkpt lat="45.77102" lon="6.12033">
        <ele>1014</ele>
        <time>2011-08-01T15:48:02Z</time>
      </trkpt>
      <trkpt lat="45.77138" lon="6.12069">
        <ele>1013</ele>
        <time>2011-08-01T15:48:07Z</time>
      </trkpt>
      <trkpt lat="45.77142" lon="6.12093">
        <ele>999</ele>
        <time>2011-08-01T15:48:10Z</time>
      </trkpt>
      <trkpt lat="45.7713" lon="6.12099">
        <ele>996</ele>
        <time>2011-08-01T15:48:12Z</time>
      </trkpt>
      <trkpt lat="45.77119" lon="6.12089">
        <ele>994</ele>
        <time>2011-08-01T15:48:14Z</time>
      </trkpt>
      <trkpt lat="45.77108" lon="6.12076">
        <ele>1006</ele>
        <time>2011-08-01T15:48:16Z</time>
      </trkpt>
      <trkpt lat="45.7709" lon="6.12044">
        <ele>1011</ele>
        <time>2011-08-01T15:48:20Z</time>
      </trkpt>
      <trkpt lat="45.77059" lon="6.12036">
        <ele>1000</ele>
        <time>2011-08-01T15:48:25Z</time>
      </trkpt>
      <trkpt lat="45.77047" lon="6.12032">
        <ele>999</ele>
        <time>2011-08-01T15:48:27Z</time>
      </trkpt>
      <trkpt lat="45.76998" lon="6.12009">
        <ele>993</ele>
        <time>2011-08-01T15:48:35Z</time>
      </trkpt>
      <trkpt lat="45.76986" lon="6.12003">
        <ele>991</ele>
        <time>2011-08-01T15:48:37Z</time>
      </trkpt>
      <trkpt lat="45.76946" lon="6.11975">
        <ele>995</ele>
        <time>2011-08-01T15:48:44Z</time>
      </trkpt>
      <trkpt lat="45.76908" lon="6.11938">
        <ele>986</ele>
        <time>2011-08-01T15:48:50Z</time>
      </trkpt>
      <trkpt lat="45.76859" lon="6.11905">
        <ele>994</ele>
        <time>2011-08-01T15:48:56Z</time>
      </trkpt>
      <trkpt lat="45.76812" lon="6.11888">
        <ele>982</ele>
        <time>2011-08-01T15:49:01Z</time>
      </trkpt>
      <trkpt lat="45.76765" lon="6.11871">
        <ele>981</ele>
        <time>2011-08-01T15:49:06Z</time>
      </trkpt>
      <trkpt lat="45.76715" lon="6.11853">
        <ele>970</ele>
        <time>2011-08-01T15:49:11Z</time>
      </trkpt>
      <trkpt lat="45.76664" lon="6.11833">
        <ele>969</ele>
        <time>2011-08-01T15:49:16Z</time>
      </trkpt>
      <trkpt lat="45.76631" lon="6.11812">
        <ele>970</ele>
        <time>2011-08-01T15:49:20Z</time>
      </trkpt>
      <trkpt lat="45.76624" lon="6.11809">
        <ele>970</ele>
        <time>2011-08-01T15:49:21Z</time>
      </trkpt>
      <trkpt lat="45.76611" lon="6.11834">
        <ele>952</ele>
        <time>2011-08-01T15:49:24Z</time>
      </trkpt>
      <trkpt lat="45.76617" lon="6.11848">
        <ele>952</ele>
        <time>2011-08-01T15:49:26Z</time>
      </trkpt>
      <trkpt lat="45.76636" lon="6.11859">
        <ele>953</ele>
        <time>2011-08-01T15:49:28Z</time>
      </trkpt>
      <trkpt lat="45.76676" lon="6.11893">
        <ele>959</ele>
        <time>2011-08-01T15:49:33Z</time>
      </trkpt>
      <trkpt lat="45.76701" lon="6.11929">
        <ele>945</ele>
        <time>2011-08-01T15:49:38Z</time>
      </trkpt>
      <trkpt lat="45.76726" lon="6.11972">
        <ele>943</ele>
        <time>2011-08-01T15:49:43Z</time>
      </trkpt>
      <trkpt lat="45.76754" lon="6.12018">
        <ele>942</ele>
        <time>2011-08-01T15:49:48Z</time>
      </trkpt>
      <trkpt lat="45.76761" lon="6.12056">
        <ele>939</ele>
        <time>2011-08-01T15:49:52Z</time>
      </trkpt>
      <trkpt lat="45.76772" lon="6.12101">
        <ele>933</ele>
        <time>2011-08-01T15:49:56Z</time>
      </trkpt>
      <trkpt lat="45.76775" lon="6.12111">
        <ele>933</ele>
        <time>2011-08-01T15:49:57Z</time>
      </trkpt>
      <trkpt lat="45.7678" lon="6.12149">
        <ele>931</ele>
        <time>2011-08-01T15:50:01Z</time>
      </trkpt>
      <trkpt lat="45.76786" lon="6.12173">
        <ele>927</ele>
        <time>2011-08-01T15:50:04Z</time>
      </trkpt>
      <trkpt lat="45.76797" lon="6.12184">
        <ele>928</ele>
        <time>2011-08-01T15:50:07Z</time>
      </trkpt>
      <trkpt lat="45.76804" lon="6.1219">
        <ele>928</ele>
        <time>2011-08-01T15:50:09Z</time>
      </trkpt>
      <trkpt lat="45.76818" lon="6.12198">
        <ele>929</ele>
        <time>2011-08-01T15:50:13Z</time>
      </trkpt>
      <trkpt lat="45.76848" lon="6.12212">
        <ele>937</ele>
        <time>2011-08-01T15:50:21Z</time>
      </trkpt>
      <trkpt lat="45.76863" lon="6.12226">
        <ele>937</ele>
        <time>2011-08-01T15:50:26Z</time>
      </trkpt>
      <trkpt lat="45.76883" lon="6.12248">
        <ele>938</ele>
        <time>2011-08-01T15:50:34Z</time>
      </trkpt>
      <trkpt lat="45.76899" lon="6.12265">
        <ele>934</ele>
        <time>2011-08-01T15:50:41Z</time>
      </trkpt>
      <trkpt lat="45.76913" lon="6.12286">
        <ele>932</ele>
        <time>2011-08-01T15:50:48Z</time>
      </trkpt>
      <trkpt lat="45.76924" lon="6.12297">
        <ele>935</ele>
        <time>2011-08-01T15:50:53Z</time>
      </trkpt>
      <trkpt lat="45.76933" lon="6.12303">
        <ele>935</ele>
        <time>2011-08-01T15:50:58Z</time>
      </trkpt>
      <trkpt lat="45.76934" lon="6.12302">
        <ele>935</ele>
        <time>2011-08-01T15:51:08Z</time>
      </trkpt>
      <trkpt lat="45.76945" lon="6.12294">
        <ele>935</ele>
        <time>2011-08-01T15:52:33Z</time>
      </trkpt>
      <trkpt lat="45.76945" lon="6.12305">
        <ele>935</ele>
        <time>2011-08-01T15:53:16Z</time>
      </trkpt>
      <trkpt lat="45.76955" lon="6.12315">
        <ele>934</ele>
        <time>2011-08-01T15:53:20Z</time>
      </trkpt>
      <trkpt lat="45.76978" lon="6.12333">
        <ele>934</ele>
        <time>2011-08-01T15:53:25Z</time>
      </trkpt>
      <trkpt lat="45.77018" lon="6.12367">
        <ele>931</ele>
        <time>2011-08-01T15:53:32Z</time>
      </trkpt>
      <trkpt lat="45.77023" lon="6.12372">
        <ele>930</ele>
        <time>2011-08-01T15:53:33Z</time>
      </trkpt>
      <trkpt lat="45.77052" lon="6.12399">
        <ele>930</ele>
        <time>2011-08-01T15:53:39Z</time>
      </trkpt>
      <trkpt lat="45.77074" lon="6.12422">
        <ele>927</ele>
        <time>2011-08-01T15:53:45Z</time>
      </trkpt>
      <trkpt lat="45.77102" lon="6.1245">
        <ele>932</ele>
        <time>2011-08-01T15:53:52Z</time>
      </trkpt>
      <trkpt lat="45.77129" lon="6.12474">
        <ele>932</ele>
        <time>2011-08-01T15:53:58Z</time>
      </trkpt>
      <trkpt lat="45.77155" lon="6.12499">
        <ele>933</ele>
        <time>2011-08-01T15:54:05Z</time>
      </trkpt>
      <trkpt lat="45.77165" lon="6.1251">
        <ele>931</ele>
        <time>2011-08-01T15:54:08Z</time>
      </trkpt>
      <trkpt lat="45.77197" lon="6.12537">
        <ele>934</ele>
        <time>2011-08-01T15:54:17Z</time>
      </trkpt>
      <trkpt lat="45.77229" lon="6.12561">
        <ele>934</ele>
        <time>2011-08-01T15:54:25Z</time>
      </trkpt>
      <trkpt lat="45.77261" lon="6.12586">
        <ele>935</ele>
        <time>2011-08-01T15:54:33Z</time>
      </trkpt>
      <trkpt lat="45.77289" lon="6.12611">
        <ele>936</ele>
        <time>2011-08-01T15:54:40Z</time>
      </trkpt>
      <trkpt lat="45.7732" lon="6.12634">
        <ele>935</ele>
        <time>2011-08-01T15:54:48Z</time>
      </trkpt>
      <trkpt lat="45.77341" lon="6.12644">
        <ele>938</ele>
        <time>2011-08-01T15:54:53Z</time>
      </trkpt>
      <trkpt lat="45.77349" lon="6.12662">
        <ele>937</ele>
        <time>2011-08-01T15:54:57Z</time>
      </trkpt>
      <trkpt lat="45.77365" lon="6.12681">
        <ele>933</ele>
        <time>2011-08-01T15:55:01Z</time>
      </trkpt>
      <trkpt lat="45.77373" lon="6.12715">
        <ele>931</ele>
        <time>2011-08-01T15:55:05Z</time>
      </trkpt>
      <trkpt lat="45.77378" lon="6.12748">
        <ele>930</ele>
        <time>2011-08-01T15:55:08Z</time>
      </trkpt>
      <trkpt lat="45.77394" lon="6.12791">
        <ele>924</ele>
        <time>2011-08-01T15:55:12Z</time>
      </trkpt>
      <trkpt lat="45.77394" lon="6.12804">
        <ele>924</ele>
        <time>2011-08-01T15:55:13Z</time>
      </trkpt>
      <trkpt lat="45.77395" lon="6.12832">
        <ele>923</ele>
        <time>2011-08-01T15:55:15Z</time>
      </trkpt>
      <trkpt lat="45.77401" lon="6.1287">
        <ele>920</ele>
        <time>2011-08-01T15:55:18Z</time>
      </trkpt>
      <trkpt lat="45.77395" lon="6.12915">
        <ele>920</ele>
        <time>2011-08-01T15:55:22Z</time>
      </trkpt>
      <trkpt lat="45.77386" lon="6.12937">
        <ele>917</ele>
        <time>2011-08-01T15:55:24Z</time>
      </trkpt>
      <trkpt lat="45.77357" lon="6.12962">
        <ele>916</ele>
        <time>2011-08-01T15:55:28Z</time>
      </trkpt>
      <trkpt lat="45.77339" lon="6.12964">
        <ele>915</ele>
        <time>2011-08-01T15:55:30Z</time>
      </trkpt>
      <trkpt lat="45.77258" lon="6.12972">
        <ele>910</ele>
        <time>2011-08-01T15:55:38Z</time>
      </trkpt>
      <trkpt lat="45.77228" lon="6.12976">
        <ele>907</ele>
        <time>2011-08-01T15:55:41Z</time>
      </trkpt>
      <trkpt lat="45.77204" lon="6.13">
        <ele>907</ele>
        <time>2011-08-01T15:55:44Z</time>
      </trkpt>
      <trkpt lat="45.772" lon="6.13027">
        <ele>905</ele>
        <time>2011-08-01T15:55:46Z</time>
      </trkpt>
      <trkpt lat="45.77195" lon="6.131">
        <ele>902</ele>
        <time>2011-08-01T15:55:52Z</time>
      </trkpt>
      <trkpt lat="45.77188" lon="6.13135">
        <ele>901</ele>
        <time>2011-08-01T15:55:56Z</time>
      </trkpt>
      <trkpt lat="45.77185" lon="6.13148">
        <ele>901</ele>
        <time>2011-08-01T15:55:59Z</time>
      </trkpt>
      <trkpt lat="45.77183" lon="6.13156">
        <ele>900</ele>
        <time>2011-08-01T15:56:01Z</time>
      </trkpt>
      <trkpt lat="45.77185" lon="6.13173">
        <ele>899</ele>
        <time>2011-08-01T15:56:05Z</time>
      </trkpt>
      <trkpt lat="45.77198" lon="6.13183">
        <ele>899</ele>
        <time>2011-08-01T15:56:08Z</time>
      </trkpt>
      <trkpt lat="45.77234" lon="6.13204">
        <ele>898</ele>
        <time>2011-08-01T15:56:15Z</time>
      </trkpt>
      <trkpt lat="45.77287" lon="6.13236">
        <ele>897</ele>
        <time>2011-08-01T15:56:25Z</time>
      </trkpt>
      <trkpt lat="45.7732" lon="6.13268">
        <ele>895</ele>
        <time>2011-08-01T15:56:32Z</time>
      </trkpt>
      <trkpt lat="45.77355" lon="6.13298">
        <ele>894</ele>
        <time>2011-08-01T15:56:39Z</time>
      </trkpt>
      <trkpt lat="45.77384" lon="6.13307">
        <ele>894</ele>
        <time>2011-08-01T15:56:44Z</time>
      </trkpt>
      <trkpt lat="45.77408" lon="6.13293">
        <ele>894</ele>
        <time>2011-08-01T15:56:48Z</time>
      </trkpt>
      <trkpt lat="45.77436" lon="6.13264">
        <ele>895</ele>
        <time>2011-08-01T15:56:53Z</time>
      </trkpt>
      <trkpt lat="45.77458" lon="6.13258">
        <ele>895</ele>
        <time>2011-08-01T15:56:56Z</time>
      </trkpt>
      <trkpt lat="45.77478" lon="6.13266">
        <ele>895</ele>
        <time>2011-08-01T15:56:59Z</time>
      </trkpt>
      <trkpt lat="45.7749" lon="6.13276">
        <ele>895</ele>
        <time>2011-08-01T15:57:01Z</time>
      </trkpt>
      <trkpt lat="45.77501" lon="6.13286">
        <ele>892</ele>
        <time>2011-08-01T15:57:03Z</time>
      </trkpt>
      <trkpt lat="45.77526" lon="6.13295">
        <ele>891</ele>
        <time>2011-08-01T15:57:07Z</time>
      </trkpt>
      <trkpt lat="45.77552" lon="6.13287">
        <ele>891</ele>
        <time>2011-08-01T15:57:11Z</time>
      </trkpt>
      <trkpt lat="45.77565" lon="6.1328">
        <ele>891</ele>
        <time>2011-08-01T15:57:13Z</time>
      </trkpt>
      <trkpt lat="45.77607" lon="6.13276">
        <ele>887</ele>
        <time>2011-08-01T15:57:19Z</time>
      </trkpt>
      <trkpt lat="45.7765" lon="6.13277">
        <ele>886</ele>
        <time>2011-08-01T15:57:25Z</time>
      </trkpt>
      <trkpt lat="45.77676" lon="6.13279">
        <ele>882</ele>
        <time>2011-08-01T15:57:29Z</time>
      </trkpt>
      <trkpt lat="45.77709" lon="6.13272">
        <ele>881</ele>
        <time>2011-08-01T15:57:34Z</time>
      </trkpt>
      <trkpt lat="45.77734" lon="6.13259">
        <ele>881</ele>
        <time>2011-08-01T15:57:38Z</time>
      </trkpt>
      <trkpt lat="45.77766" lon="6.13253">
        <ele>879</ele>
        <time>2011-08-01T15:57:43Z</time>
      </trkpt>
      <trkpt lat="45.77773" lon="6.13254">
        <ele>878</ele>
        <time>2011-08-01T15:57:44Z</time>
      </trkpt>
      <trkpt lat="45.77828" lon="6.13271">
        <ele>877</ele>
        <time>2011-08-01T15:57:52Z</time>
      </trkpt>
      <trkpt lat="45.77849" lon="6.13276">
        <ele>873</ele>
        <time>2011-08-01T15:57:55Z</time>
      </trkpt>
      <trkpt lat="45.77885" lon="6.13267">
        <ele>872</ele>
        <time>2011-08-01T15:58:00Z</time>
      </trkpt>
      <trkpt lat="45.77891" lon="6.13263">
        <ele>872</ele>
        <time>2011-08-01T15:58:01Z</time>
      </trkpt>
      <trkpt lat="45.77938" lon="6.13222">
        <ele>875</ele>
        <time>2011-08-01T15:58:08Z</time>
      </trkpt>
      <trkpt lat="45.77944" lon="6.13216">
        <ele>875</ele>
        <time>2011-08-01T15:58:09Z</time>
      </trkpt>
      <trkpt lat="45.77964" lon="6.13173">
        <ele>876</ele>
        <time>2011-08-01T15:58:14Z</time>
      </trkpt>
      <trkpt lat="45.77981" lon="6.13117">
        <ele>883</ele>
        <time>2011-08-01T15:58:20Z</time>
      </trkpt>
      <trkpt lat="45.78008" lon="6.13094">
        <ele>880</ele>
        <time>2011-08-01T15:58:24Z</time>
      </trkpt>
      <trkpt lat="45.78016" lon="6.13092">
        <ele>880</ele>
        <time>2011-08-01T15:58:25Z</time>
      </trkpt>
      <trkpt lat="45.7804" lon="6.13091">
        <ele>879</ele>
        <time>2011-08-01T15:58:28Z</time>
      </trkpt>
      <trkpt lat="45.78064" lon="6.1311">
        <ele>878</ele>
        <time>2011-08-01T15:58:32Z</time>
      </trkpt>
      <trkpt lat="45.78078" lon="6.13129">
        <ele>874</ele>
        <time>2011-08-01T15:58:35Z</time>
      </trkpt>
      <trkpt lat="45.78109" lon="6.13159">
        <ele>871</ele>
        <time>2011-08-01T15:58:41Z</time>
      </trkpt>
      <trkpt lat="45.78119" lon="6.13169">
        <ele>861</ele>
        <time>2011-08-01T15:58:43Z</time>
      </trkpt>
      <trkpt lat="45.7816" lon="6.13194">
        <ele>861</ele>
        <time>2011-08-01T15:58:50Z</time>
      </trkpt>
      <trkpt lat="45.78207" lon="6.13215">
        <ele>860</ele>
        <time>2011-08-01T15:58:58Z</time>
      </trkpt>
      <trkpt lat="45.78255" lon="6.13222">
        <ele>861</ele>
        <time>2011-08-01T15:59:05Z</time>
      </trkpt>
      <trkpt lat="45.78317" lon="6.13229">
        <ele>859</ele>
        <time>2011-08-01T15:59:14Z</time>
      </trkpt>
      <trkpt lat="45.78356" lon="6.13247">
        <ele>860</ele>
        <time>2011-08-01T15:59:20Z</time>
      </trkpt>
      <trkpt lat="45.78376" lon="6.13254">
        <ele>851</ele>
        <time>2011-08-01T15:59:23Z</time>
      </trkpt>
      <trkpt lat="45.78418" lon="6.13249">
        <ele>859</ele>
        <time>2011-08-01T15:59:29Z</time>
      </trkpt>
      <trkpt lat="45.78446" lon="6.13243">
        <ele>864</ele>
        <time>2011-08-01T15:59:33Z</time>
      </trkpt>
      <trkpt lat="45.7848" lon="6.1325">
        <ele>855</ele>
        <time>2011-08-01T15:59:38Z</time>
      </trkpt>
      <trkpt lat="45.78486" lon="6.13254">
        <ele>855</ele>
        <time>2011-08-01T15:59:39Z</time>
      </trkpt>
      <trkpt lat="45.78544" lon="6.13298">
        <ele>852</ele>
        <time>2011-08-01T15:59:49Z</time>
      </trkpt>
      <trkpt lat="45.78592" lon="6.13335">
        <ele>846</ele>
        <time>2011-08-01T15:59:57Z</time>
      </trkpt>
      <trkpt lat="45.78631" lon="6.13357">
        <ele>844</ele>
        <time>2011-08-01T16:00:03Z</time>
      </trkpt>
      <trkpt lat="45.78674" lon="6.13365">
        <ele>845</ele>
        <time>2011-08-01T16:00:09Z</time>
      </trkpt>
      <trkpt lat="45.78754" lon="6.13375">
        <ele>843</ele>
        <time>2011-08-01T16:00:20Z</time>
      </trkpt>
      <trkpt lat="45.78762" lon="6.13375">
        <ele>843</ele>
        <time>2011-08-01T16:00:21Z</time>
      </trkpt>
      <trkpt lat="45.78796" lon="6.13359">
        <ele>844</ele>
        <time>2011-08-01T16:00:26Z</time>
      </trkpt>
      <trkpt lat="45.78817" lon="6.13355">
        <ele>845</ele>
        <time>2011-08-01T16:00:29Z</time>
      </trkpt>
      <trkpt lat="45.78836" lon="6.13365">
        <ele>847</ele>
        <time>2011-08-01T16:00:32Z</time>
      </trkpt>
      <trkpt lat="45.78853" lon="6.1338">
        <ele>846</ele>
        <time>2011-08-01T16:00:35Z</time>
      </trkpt>
      <trkpt lat="45.78868" lon="6.1342">
        <ele>841</ele>
        <time>2011-08-01T16:00:40Z</time>
      </trkpt>
      <trkpt lat="45.7887" lon="6.13429">
        <ele>841</ele>
        <time>2011-08-01T16:00:41Z</time>
      </trkpt>
      <trkpt lat="45.78872" lon="6.13455">
        <ele>840</ele>
        <time>2011-08-01T16:00:44Z</time>
      </trkpt>
      <trkpt lat="45.78886" lon="6.1349">
        <ele>840</ele>
        <time>2011-08-01T16:00:49Z</time>
      </trkpt>
      <trkpt lat="45.78896" lon="6.135">
        <ele>835</ele>
        <time>2011-08-01T16:00:51Z</time>
      </trkpt>
      <trkpt lat="45.78951" lon="6.13538">
        <ele>837</ele>
        <time>2011-08-01T16:01:00Z</time>
      </trkpt>
      <trkpt lat="45.78996" lon="6.13557">
        <ele>836</ele>
        <time>2011-08-01T16:01:07Z</time>
      </trkpt>
      <trkpt lat="45.79042" lon="6.13571">
        <ele>835</ele>
        <time>2011-08-01T16:01:14Z</time>
      </trkpt>
      <trkpt lat="45.79049" lon="6.13572">
        <ele>835</ele>
        <time>2011-08-01T16:01:15Z</time>
      </trkpt>
      <trkpt lat="45.7908" lon="6.1356">
        <ele>833</ele>
        <time>2011-08-01T16:01:20Z</time>
      </trkpt>
      <trkpt lat="45.79085" lon="6.13554">
        <ele>832</ele>
        <time>2011-08-01T16:01:21Z</time>
      </trkpt>
      <trkpt lat="45.79097" lon="6.1354">
        <ele>834</ele>
        <time>2011-08-01T16:01:23Z</time>
      </trkpt>
      <trkpt lat="45.79126" lon="6.13524">
        <ele>835</ele>
        <time>2011-08-01T16:01:27Z</time>
      </trkpt>
      <trkpt lat="45.79148" lon="6.13538">
        <ele>834</ele>
        <time>2011-08-01T16:01:30Z</time>
      </trkpt>
      <trkpt lat="45.79196" lon="6.1358">
        <ele>832</ele>
        <time>2011-08-01T16:01:37Z</time>
      </trkpt>
      <trkpt lat="45.79231" lon="6.13612">
        <ele>826</ele>
        <time>2011-08-01T16:01:42Z</time>
      </trkpt>
      <trkpt lat="45.79277" lon="6.13637">
        <ele>829</ele>
        <time>2011-08-01T16:01:48Z</time>
      </trkpt>
      <trkpt lat="45.79353" lon="6.1367">
        <ele>817</ele>
        <time>2011-08-01T16:01:57Z</time>
      </trkpt>
      <trkpt lat="45.79411" lon="6.13696">
        <ele>813</ele>
        <time>2011-08-01T16:02:04Z</time>
      </trkpt>
      <trkpt lat="45.79453" lon="6.13696">
        <ele>810</ele>
        <time>2011-08-01T16:02:09Z</time>
      </trkpt>
      <trkpt lat="45.79465" lon="6.13678">
        <ele>811</ele>
        <time>2011-08-01T16:02:11Z</time>
      </trkpt>
      <trkpt lat="45.79478" lon="6.1366">
        <ele>818</ele>
        <time>2011-08-01T16:02:13Z</time>
      </trkpt>
      <trkpt lat="45.79519" lon="6.13624">
        <ele>816</ele>
        <time>2011-08-01T16:02:18Z</time>
      </trkpt>
      <trkpt lat="45.79547" lon="6.13624">
        <ele>815</ele>
        <time>2011-08-01T16:02:21Z</time>
      </trkpt>
      <trkpt lat="45.79562" lon="6.13644">
        <ele>813</ele>
        <time>2011-08-01T16:02:23Z</time>
      </trkpt>
      <trkpt lat="45.79568" lon="6.13656">
        <ele>811</ele>
        <time>2011-08-01T16:02:24Z</time>
      </trkpt>
      <trkpt lat="45.79602" lon="6.13701">
        <ele>803</ele>
        <time>2011-08-01T16:02:29Z</time>
      </trkpt>
      <trkpt lat="45.79619" lon="6.13695">
        <ele>803</ele>
        <time>2011-08-01T16:02:31Z</time>
      </trkpt>
      <trkpt lat="45.79643" lon="6.1368">
        <ele>804</ele>
        <time>2011-08-01T16:02:34Z</time>
      </trkpt>
      <trkpt lat="45.79669" lon="6.13692">
        <ele>805</ele>
        <time>2011-08-01T16:02:37Z</time>
      </trkpt>
      <trkpt lat="45.79676" lon="6.13714">
        <ele>804</ele>
        <time>2011-08-01T16:02:39Z</time>
      </trkpt>
      <trkpt lat="45.79689" lon="6.13745">
        <ele>803</ele>
        <time>2011-08-01T16:02:42Z</time>
      </trkpt>
      <trkpt lat="45.79711" lon="6.13755">
        <ele>796</ele>
        <time>2011-08-01T16:02:45Z</time>
      </trkpt>
      <trkpt lat="45.7973" lon="6.13744">
        <ele>803</ele>
        <time>2011-08-01T16:02:48Z</time>
      </trkpt>
      <trkpt lat="45.79741" lon="6.13731">
        <ele>803</ele>
        <time>2011-08-01T16:02:50Z</time>
      </trkpt>
      <trkpt lat="45.79789" lon="6.13713">
        <ele>806</ele>
        <time>2011-08-01T16:02:55Z</time>
      </trkpt>
      <trkpt lat="45.79803" lon="6.13728">
        <ele>805</ele>
        <time>2011-08-01T16:02:57Z</time>
      </trkpt>
      <trkpt lat="45.79825" lon="6.13771">
        <ele>794</ele>
        <time>2011-08-01T16:03:01Z</time>
      </trkpt>
      <trkpt lat="45.7985" lon="6.13786">
        <ele>789</ele>
        <time>2011-08-01T16:03:04Z</time>
      </trkpt>
      <trkpt lat="45.79875" lon="6.13787">
        <ele>788</ele>
        <time>2011-08-01T16:03:07Z</time>
      </trkpt>
      <trkpt lat="45.79892" lon="6.13768">
        <ele>790</ele>
        <time>2011-08-01T16:03:09Z</time>
      </trkpt>
      <trkpt lat="45.79916" lon="6.13755">
        <ele>796</ele>
        <time>2011-08-01T16:03:12Z</time>
      </trkpt>
      <trkpt lat="45.79934" lon="6.13766">
        <ele>791</ele>
        <time>2011-08-01T16:03:14Z</time>
      </trkpt>
      <trkpt lat="45.79949" lon="6.13798">
        <ele>786</ele>
        <time>2011-08-01T16:03:17Z</time>
      </trkpt>
      <trkpt lat="45.79972" lon="6.13821">
        <ele>784</ele>
        <time>2011-08-01T16:03:20Z</time>
      </trkpt>
      <trkpt lat="45.79981" lon="6.13824">
        <ele>783</ele>
        <time>2011-08-01T16:03:21Z</time>
      </trkpt>
      <trkpt lat="45.80024" lon="6.13818">
        <ele>783</ele>
        <time>2011-08-01T16:03:26Z</time>
      </trkpt>
      <trkpt lat="45.80037" lon="6.13794">
        <ele>785</ele>
        <time>2011-08-01T16:03:28Z</time>
      </trkpt>
      <trkpt lat="45.80053" lon="6.1375">
        <ele>787</ele>
        <time>2011-08-01T16:03:31Z</time>
      </trkpt>
      <trkpt lat="45.80082" lon="6.13742">
        <ele>792</ele>
        <time>2011-08-01T16:03:34Z</time>
      </trkpt>
      <trkpt lat="45.80098" lon="6.1376">
        <ele>785</ele>
        <time>2011-08-01T16:03:36Z</time>
      </trkpt>
      <trkpt lat="45.80107" lon="6.13787">
        <ele>781</ele>
        <time>2011-08-01T16:03:38Z</time>
      </trkpt>
      <trkpt lat="45.8013" lon="6.1383">
        <ele>777</ele>
        <time>2011-08-01T16:03:42Z</time>
      </trkpt>
      <trkpt lat="45.80156" lon="6.13844">
        <ele>766</ele>
        <time>2011-08-01T16:03:45Z</time>
      </trkpt>
      <trkpt lat="45.80165" lon="6.13846">
        <ele>767</ele>
        <time>2011-08-01T16:03:46Z</time>
      </trkpt>
      <trkpt lat="45.80222" lon="6.13848">
        <ele>759</ele>
        <time>2011-08-01T16:03:52Z</time>
      </trkpt>
      <trkpt lat="45.80259" lon="6.13835">
        <ele>758</ele>
        <time>2011-08-01T16:03:56Z</time>
      </trkpt>
      <trkpt lat="45.80294" lon="6.13812">
        <ele>759</ele>
        <time>2011-08-01T16:04:00Z</time>
      </trkpt>
      <trkpt lat="45.80321" lon="6.13775">
        <ele>759</ele>
        <time>2011-08-01T16:04:04Z</time>
      </trkpt>
      <trkpt lat="45.80356" lon="6.13712">
        <ele>757</ele>
        <time>2011-08-01T16:04:10Z</time>
      </trkpt>
      <trkpt lat="45.80384" lon="6.13675">
        <ele>755</ele>
        <time>2011-08-01T16:04:14Z</time>
      </trkpt>
      <trkpt lat="45.80423" lon="6.13615">
        <ele>754</ele>
        <time>2011-08-01T16:04:20Z</time>
      </trkpt>
      <trkpt lat="45.80429" lon="6.13608">
        <ele>755</ele>
        <time>2011-08-01T16:04:21Z</time>
      </trkpt>
      <trkpt lat="45.80465" lon="6.13583">
        <ele>764</ele>
        <time>2011-08-01T16:04:25Z</time>
      </trkpt>
      <trkpt lat="45.80488" lon="6.13587">
        <ele>753</ele>
        <time>2011-08-01T16:04:28Z</time>
      </trkpt>
      <trkpt lat="45.80511" lon="6.13584">
        <ele>749</ele>
        <time>2011-08-01T16:04:31Z</time>
      </trkpt>
      <trkpt lat="45.80577" lon="6.13556">
        <ele>756</ele>
        <time>2011-08-01T16:04:39Z</time>
      </trkpt>
      <trkpt lat="45.80585" lon="6.13552">
        <ele>754</ele>
        <time>2011-08-01T16:04:40Z</time>
      </trkpt>
      <trkpt lat="45.8061" lon="6.13551">
        <ele>754</ele>
        <time>2011-08-01T16:04:43Z</time>
      </trkpt>
      <trkpt lat="45.80638" lon="6.13569">
        <ele>751</ele>
        <time>2011-08-01T16:04:47Z</time>
      </trkpt>
      <trkpt lat="45.80661" lon="6.13576">
        <ele>746</ele>
        <time>2011-08-01T16:04:50Z</time>
      </trkpt>
      <trkpt lat="45.80696" lon="6.13561">
        <ele>749</ele>
        <time>2011-08-01T16:04:54Z</time>
      </trkpt>
      <trkpt lat="45.80706" lon="6.13556">
        <ele>750</ele>
        <time>2011-08-01T16:04:55Z</time>
      </trkpt>
      <trkpt lat="45.80734" lon="6.13553">
        <ele>749</ele>
        <time>2011-08-01T16:04:58Z</time>
      </trkpt>
      <trkpt lat="45.80766" lon="6.13576">
        <ele>747</ele>
        <time>2011-08-01T16:05:02Z</time>
      </trkpt>
      <trkpt lat="45.80778" lon="6.13595">
        <ele>735</ele>
        <time>2011-08-01T16:05:04Z</time>
      </trkpt>
      <trkpt lat="45.8079" lon="6.13612">
        <ele>734</ele>
        <time>2011-08-01T16:05:06Z</time>
      </trkpt>
      <trkpt lat="45.80827" lon="6.13628">
        <ele>734</ele>
        <time>2011-08-01T16:05:11Z</time>
      </trkpt>
      <trkpt lat="45.80854" lon="6.13626">
        <ele>741</ele>
        <time>2011-08-01T16:05:14Z</time>
      </trkpt>
      <trkpt lat="45.80876" lon="6.1365">
        <ele>739</ele>
        <time>2011-08-01T16:05:17Z</time>
      </trkpt>
      <trkpt lat="45.80887" lon="6.1367">
        <ele>723</ele>
        <time>2011-08-01T16:05:19Z</time>
      </trkpt>
      <trkpt lat="45.80899" lon="6.13686">
        <ele>723</ele>
        <time>2011-08-01T16:05:21Z</time>
      </trkpt>
      <trkpt lat="45.80931" lon="6.13694">
        <ele>726</ele>
        <time>2011-08-01T16:05:25Z</time>
      </trkpt>
      <trkpt lat="45.80963" lon="6.13697">
        <ele>726</ele>
        <time>2011-08-01T16:05:29Z</time>
      </trkpt>
      <trkpt lat="45.80999" lon="6.13688">
        <ele>729</ele>
        <time>2011-08-01T16:05:33Z</time>
      </trkpt>
      <trkpt lat="45.81019" lon="6.13679">
        <ele>731</ele>
        <time>2011-08-01T16:05:35Z</time>
      </trkpt>
      <trkpt lat="45.81053" lon="6.13681">
        <ele>729</ele>
        <time>2011-08-01T16:05:39Z</time>
      </trkpt>
      <trkpt lat="45.81068" lon="6.13688">
        <ele>729</ele>
        <time>2011-08-01T16:05:41Z</time>
      </trkpt>
      <trkpt lat="45.81091" lon="6.13694">
        <ele>729</ele>
        <time>2011-08-01T16:05:44Z</time>
      </trkpt>
      <trkpt lat="45.81147" lon="6.13698">
        <ele>728</ele>
        <time>2011-08-01T16:05:51Z</time>
      </trkpt>
      <trkpt lat="45.81163" lon="6.13701">
        <ele>728</ele>
        <time>2011-08-01T16:05:53Z</time>
      </trkpt>
      <trkpt lat="45.81218" lon="6.13717">
        <ele>725</ele>
        <time>2011-08-01T16:06:00Z</time>
      </trkpt>
      <trkpt lat="45.81266" lon="6.13724">
        <ele>725</ele>
        <time>2011-08-01T16:06:06Z</time>
      </trkpt>
      <trkpt lat="45.81274" lon="6.13725">
        <ele>726</ele>
        <time>2011-08-01T16:06:07Z</time>
      </trkpt>
      <trkpt lat="45.8131" lon="6.13747">
        <ele>724</ele>
        <time>2011-08-01T16:06:12Z</time>
      </trkpt>
      <trkpt lat="45.81328" lon="6.13769">
        <ele>710</ele>
        <time>2011-08-01T16:06:15Z</time>
      </trkpt>
      <trkpt lat="45.81356" lon="6.13781">
        <ele>708</ele>
        <time>2011-08-01T16:06:19Z</time>
      </trkpt>
      <trkpt lat="45.81395" lon="6.13779">
        <ele>708</ele>
        <time>2011-08-01T16:06:24Z</time>
      </trkpt>
      <trkpt lat="45.81445" lon="6.13782">
        <ele>704</ele>
        <time>2011-08-01T16:06:30Z</time>
      </trkpt>
      <trkpt lat="45.81491" lon="6.1379">
        <ele>702</ele>
        <time>2011-08-01T16:06:36Z</time>
      </trkpt>
      <trkpt lat="45.81523" lon="6.13782">
        <ele>698</ele>
        <time>2011-08-01T16:06:40Z</time>
      </trkpt>
      <trkpt lat="45.81567" lon="6.13754">
        <ele>700</ele>
        <time>2011-08-01T16:06:46Z</time>
      </trkpt>
      <trkpt lat="45.81614" lon="6.13723">
        <ele>703</ele>
        <time>2011-08-01T16:06:52Z</time>
      </trkpt>
      <trkpt lat="45.81654" lon="6.13692">
        <ele>702</ele>
        <time>2011-08-01T16:06:57Z</time>
      </trkpt>
      <trkpt lat="45.81688" lon="6.13656">
        <ele>700</ele>
        <time>2011-08-01T16:07:02Z</time>
      </trkpt>
      <trkpt lat="45.81724" lon="6.13619">
        <ele>700</ele>
        <time>2011-08-01T16:07:07Z</time>
      </trkpt>
      <trkpt lat="45.81756" lon="6.13589">
        <ele>697</ele>
        <time>2011-08-01T16:07:12Z</time>
      </trkpt>
      <trkpt lat="45.81768" lon="6.13577">
        <ele>696</ele>
        <time>2011-08-01T16:07:14Z</time>
      </trkpt>
      <trkpt lat="45.81786" lon="6.1354">
        <ele>693</ele>
        <time>2011-08-01T16:07:18Z</time>
      </trkpt>
      <trkpt lat="45.81809" lon="6.13442">
        <ele>695</ele>
        <time>2011-08-01T16:07:27Z</time>
      </trkpt>
      <trkpt lat="45.81821" lon="6.13391">
        <ele>703</ele>
        <time>2011-08-01T16:07:32Z</time>
      </trkpt>
      <trkpt lat="45.81841" lon="6.13356">
        <ele>701</ele>
        <time>2011-08-01T16:07:36Z</time>
      </trkpt>
      <trkpt lat="45.81868" lon="6.13353">
        <ele>700</ele>
        <time>2011-08-01T16:07:39Z</time>
      </trkpt>
      <trkpt lat="45.81884" lon="6.13362">
        <ele>699</ele>
        <time>2011-08-01T16:07:41Z</time>
      </trkpt>
      <trkpt lat="45.81945" lon="6.13403">
        <ele>690</ele>
        <time>2011-08-01T16:07:49Z</time>
      </trkpt>
      <trkpt lat="45.81977" lon="6.13415">
        <ele>690</ele>
        <time>2011-08-01T16:07:53Z</time>
      </trkpt>
      <trkpt lat="45.82008" lon="6.13416">
        <ele>689</ele>
        <time>2011-08-01T16:07:57Z</time>
      </trkpt>
      <trkpt lat="45.82058" lon="6.13404">
        <ele>698</ele>
        <time>2011-08-01T16:08:03Z</time>
      </trkpt>
      <trkpt lat="45.82075" lon="6.13406">
        <ele>696</ele>
        <time>2011-08-01T16:08:05Z</time>
      </trkpt>
      <trkpt lat="45.82089" lon="6.13415">
        <ele>695</ele>
        <time>2011-08-01T16:08:07Z</time>
      </trkpt>
      <trkpt lat="45.82111" lon="6.13446">
        <ele>687</ele>
        <time>2011-08-01T16:08:11Z</time>
      </trkpt>
      <trkpt lat="45.82118" lon="6.13496">
        <ele>681</ele>
        <time>2011-08-01T16:08:15Z</time>
      </trkpt>
      <trkpt lat="45.82126" lon="6.13531">
        <ele>669</ele>
        <time>2011-08-01T16:08:18Z</time>
      </trkpt>
      <trkpt lat="45.82134" lon="6.1355">
        <ele>668</ele>
        <time>2011-08-01T16:08:20Z</time>
      </trkpt>
      <trkpt lat="45.82161" lon="6.13574">
        <ele>667</ele>
        <time>2011-08-01T16:08:24Z</time>
      </trkpt>
      <trkpt lat="45.82183" lon="6.13592">
        <ele>665</ele>
        <time>2011-08-01T16:08:27Z</time>
      </trkpt>
      <trkpt lat="45.82218" lon="6.13642">
        <ele>662</ele>
        <time>2011-08-01T16:08:33Z</time>
      </trkpt>
      <trkpt lat="45.82224" lon="6.1365">
        <ele>661</ele>
        <time>2011-08-01T16:08:34Z</time>
      </trkpt>
      <trkpt lat="45.82251" lon="6.1367">
        <ele>658</ele>
        <time>2011-08-01T16:08:38Z</time>
      </trkpt>
      <trkpt lat="45.82306" lon="6.13675">
        <ele>656</ele>
        <time>2011-08-01T16:08:45Z</time>
      </trkpt>
      <trkpt lat="45.82341" lon="6.13667">
        <ele>660</ele>
        <time>2011-08-01T16:08:49Z</time>
      </trkpt>
      <trkpt lat="45.82349" lon="6.13666">
        <ele>665</ele>
        <time>2011-08-01T16:08:50Z</time>
      </trkpt>
      <trkpt lat="45.82376" lon="6.1369">
        <ele>662</ele>
        <time>2011-08-01T16:08:54Z</time>
      </trkpt>
      <trkpt lat="45.82381" lon="6.13713">
        <ele>662</ele>
        <time>2011-08-01T16:08:56Z</time>
      </trkpt>
      <trkpt lat="45.82382" lon="6.13725">
        <ele>662</ele>
        <time>2011-08-01T16:08:57Z</time>
      </trkpt>
      <trkpt lat="45.82381" lon="6.1376">
        <ele>656</ele>
        <time>2011-08-01T16:09:00Z</time>
      </trkpt>
      <trkpt lat="45.8239" lon="6.13817">
        <ele>654</ele>
        <time>2011-08-01T16:09:05Z</time>
      </trkpt>
      <trkpt lat="45.82399" lon="6.13836">
        <ele>650</ele>
        <time>2011-08-01T16:09:07Z</time>
      </trkpt>
      <trkpt lat="45.82445" lon="6.13918">
        <ele>649</ele>
        <time>2011-08-01T16:09:16Z</time>
      </trkpt>
      <trkpt lat="45.8246" lon="6.13959">
        <ele>649</ele>
        <time>2011-08-01T16:09:20Z</time>
      </trkpt>
      <trkpt lat="45.82492" lon="6.14009">
        <ele>644</ele>
        <time>2011-08-01T16:09:26Z</time>
      </trkpt>
      <trkpt lat="45.82516" lon="6.1404">
        <ele>646</ele>
        <time>2011-08-01T16:09:30Z</time>
      </trkpt>
      <trkpt lat="45.8255" lon="6.14103">
        <ele>636</ele>
        <time>2011-08-01T16:09:37Z</time>
      </trkpt>
      <trkpt lat="45.82586" lon="6.14177">
        <ele>634</ele>
        <time>2011-08-01T16:09:45Z</time>
      </trkpt>
      <trkpt lat="45.82591" lon="6.14186">
        <ele>633</ele>
        <time>2011-08-01T16:09:46Z</time>
      </trkpt>
      <trkpt lat="45.82617" lon="6.14211">
        <ele>631</ele>
        <time>2011-08-01T16:09:50Z</time>
      </trkpt>
      <trkpt lat="45.82639" lon="6.14216">
        <ele>630</ele>
        <time>2011-08-01T16:09:53Z</time>
      </trkpt>
      <trkpt lat="45.82714" lon="6.1422">
        <ele>630</ele>
        <time>2011-08-01T16:10:03Z</time>
      </trkpt>
      <trkpt lat="45.82767" lon="6.14225">
        <ele>626</ele>
        <time>2011-08-01T16:10:10Z</time>
      </trkpt>
      <trkpt lat="45.82834" lon="6.14227">
        <ele>621</ele>
        <time>2011-08-01T16:10:19Z</time>
      </trkpt>
      <trkpt lat="45.82878" lon="6.14216">
        <ele>620</ele>
        <time>2011-08-01T16:10:25Z</time>
      </trkpt>
      <trkpt lat="45.82911" lon="6.1419">
        <ele>620</ele>
        <time>2011-08-01T16:10:30Z</time>
      </trkpt>
      <trkpt lat="45.82928" lon="6.14169">
        <ele>618</ele>
        <time>2011-08-01T16:10:34Z</time>
      </trkpt>
      <trkpt lat="45.82936" lon="6.14172">
        <ele>617</ele>
        <time>2011-08-01T16:10:38Z</time>
      </trkpt>
      <trkpt lat="45.82952" lon="6.14188">
        <ele>615</ele>
        <time>2011-08-01T16:10:43Z</time>
      </trkpt>
      <trkpt lat="45.82971" lon="6.1419">
        <ele>614</ele>
        <time>2011-08-01T16:10:46Z</time>
      </trkpt>
      <trkpt lat="45.82986" lon="6.14189">
        <ele>614</ele>
        <time>2011-08-01T16:10:48Z</time>
      </trkpt>
      <trkpt lat="45.83022" lon="6.14204">
        <ele>610</ele>
        <time>2011-08-01T16:10:52Z</time>
      </trkpt>
      <trkpt lat="45.83035" lon="6.14238">
        <ele>608</ele>
        <time>2011-08-01T16:10:55Z</time>
      </trkpt>
      <trkpt lat="45.83034" lon="6.14281">
        <ele>603</ele>
        <time>2011-08-01T16:10:58Z</time>
      </trkpt>
      <trkpt lat="45.83014" lon="6.14314">
        <ele>600</ele>
        <time>2011-08-01T16:11:01Z</time>
      </trkpt>
      <trkpt lat="45.83007" lon="6.14339">
        <ele>596</ele>
        <time>2011-08-01T16:11:03Z</time>
      </trkpt>
      <trkpt lat="45.8301" lon="6.14368">
        <ele>595</ele>
        <time>2011-08-01T16:11:05Z</time>
      </trkpt>
      <trkpt lat="45.83014" lon="6.14382">
        <ele>595</ele>
        <time>2011-08-01T16:11:06Z</time>
      </trkpt>
      <trkpt lat="45.83032" lon="6.14473">
        <ele>588</ele>
        <time>2011-08-01T16:11:12Z</time>
      </trkpt>
      <trkpt lat="45.83035" lon="6.14488">
        <ele>587</ele>
        <time>2011-08-01T16:11:13Z</time>
      </trkpt>
      <trkpt lat="45.83061" lon="6.14528">
        <ele>579</ele>
        <time>2011-08-01T16:11:17Z</time>
      </trkpt>
      <trkpt lat="45.83071" lon="6.14532">
        <ele>578</ele>
        <time>2011-08-01T16:11:18Z</time>
      </trkpt>
      <trkpt lat="45.83136" lon="6.14554">
        <ele>572</ele>
        <time>2011-08-01T16:11:24Z</time>
      </trkpt>
      <trkpt lat="45.83159" lon="6.14557">
        <ele>571</ele>
        <time>2011-08-01T16:11:26Z</time>
      </trkpt>
      <trkpt lat="45.83217" lon="6.14545">
        <ele>565</ele>
        <time>2011-08-01T16:11:31Z</time>
      </trkpt>
      <trkpt lat="45.83284" lon="6.14525">
        <ele>558</ele>
        <time>2011-08-01T16:11:36Z</time>
      </trkpt>
      <trkpt lat="45.83327" lon="6.14519">
        <ele>557</ele>
        <time>2011-08-01T16:11:40Z</time>
      </trkpt>
      <trkpt lat="45.83337" lon="6.14517">
        <ele>553</ele>
        <time>2011-08-01T16:11:41Z</time>
      </trkpt>
      <trkpt lat="45.83365" lon="6.14534">
        <ele>551</ele>
        <time>2011-08-01T16:11:45Z</time>
      </trkpt>
      <trkpt lat="45.83368" lon="6.14562">
        <ele>549</ele>
        <time>2011-08-01T16:11:47Z</time>
      </trkpt>
      <trkpt lat="45.83364" lon="6.14639">
        <ele>542</ele>
        <time>2011-08-01T16:11:52Z</time>
      </trkpt>
      <trkpt lat="45.83363" lon="6.14655">
        <ele>541</ele>
        <time>2011-08-01T16:11:53Z</time>
      </trkpt>
      <trkpt lat="45.83348" lon="6.14732">
        <ele>533</ele>
        <time>2011-08-01T16:11:58Z</time>
      </trkpt>
      <trkpt lat="45.83322" lon="6.14783">
        <ele>530</ele>
        <time>2011-08-01T16:12:02Z</time>
      </trkpt>
      <trkpt lat="45.83304" lon="6.14798">
        <ele>529</ele>
        <time>2011-08-01T16:12:04Z</time>
      </trkpt>
      <trkpt lat="45.83236" lon="6.14847">
        <ele>521</ele>
        <time>2011-08-01T16:12:12Z</time>
      </trkpt>
      <trkpt lat="45.83228" lon="6.14853">
        <ele>519</ele>
        <time>2011-08-01T16:12:13Z</time>
      </trkpt>
      <trkpt lat="45.83186" lon="6.14862">
        <ele>518</ele>
        <time>2011-08-01T16:12:17Z</time>
      </trkpt>
      <trkpt lat="45.83174" lon="6.1486">
        <ele>518</ele>
        <time>2011-08-01T16:12:18Z</time>
      </trkpt>
      <trkpt lat="45.83152" lon="6.14853">
        <ele>519</ele>
        <time>2011-08-01T16:12:20Z</time>
      </trkpt>
      <trkpt lat="45.83111" lon="6.14873">
        <ele>516</ele>
        <time>2011-08-01T16:12:24Z</time>
      </trkpt>
      <trkpt lat="45.83067" lon="6.1493">
        <ele>505</ele>
        <time>2011-08-01T16:12:29Z</time>
      </trkpt>
      <trkpt lat="45.83057" lon="6.14969">
        <ele>502</ele>
        <time>2011-08-01T16:12:32Z</time>
      </trkpt>
      <trkpt lat="45.83059" lon="6.14983">
        <ele>501</ele>
        <time>2011-08-01T16:12:33Z</time>
      </trkpt>
      <trkpt lat="45.83071" lon="6.15077">
        <ele>494</ele>
        <time>2011-08-01T16:12:39Z</time>
      </trkpt>
      <trkpt lat="45.83074" lon="6.1513">
        <ele>491</ele>
        <time>2011-08-01T16:12:43Z</time>
      </trkpt>
      <trkpt lat="45.8307" lon="6.15146">
        <ele>491</ele>
        <time>2011-08-01T16:12:46Z</time>
      </trkpt>
      <trkpt lat="45.83058" lon="6.1515">
        <ele>491</ele>
        <time>2011-08-01T16:12:49Z</time>
      </trkpt>
      <trkpt lat="45.83023" lon="6.15158">
        <ele>491</ele>
        <time>2011-08-01T16:12:58Z</time>
      </trkpt>
      <trkpt lat="45.83023" lon="6.15157">
        <ele>491</ele>
        <time>2011-08-01T16:13:02Z</time>
      </trkpt>
      <trkpt lat="45.83024" lon="6.15156">
        <ele>491</ele>
        <time>2011-08-01T16:13:19Z</time>
      </trkpt>
      <trkpt lat="45.83024" lon="6.1515">
        <ele>491</ele>
        <time>2011-08-01T16:13:59Z</time>
      </trkpt>
      <trkpt lat="45.83024" lon="6.15151">
        <ele>491</ele>
        <time>2011-08-01T16:14:03Z</time>
      </trkpt>
      <trkpt lat="45.83024" lon="6.15153">
        <ele>491</ele>
        <time>2011-08-01T16:14:08Z</time>
      </trkpt>
      <trkpt lat="45.83024" lon="6.15153">
        <ele>491</ele>
        <time>2011-08-01T16:14:09Z</time>
      </trkpt>
      <trkpt lat="45.83024" lon="6.15153">
        <ele>491</ele>
        <time>2011-08-01T16:14:10Z</time>
      </trkpt>
      <trkpt lat="45.83024" lon="6.15154">
        <ele>491</ele>
        <time>2011-08-01T16:14:13Z</time>
      </trkpt>
      <trkpt lat="45.8302" lon="6.15156">
        <ele>491</ele>
        <time>2011-08-01T16:14:19Z</time>
      </trkpt>
      <trkpt lat="45.83008" lon="6.15161">
        <ele>491</ele>
        <time>2011-08-01T16:14:23Z</time>
      </trkpt>
      <trkpt lat="45.82981" lon="6.15166">
        <ele>492</ele>
        <time>2011-08-01T16:14:29Z</time>
      </trkpt>
      <trkpt lat="45.82951" lon="6.1517">
        <ele>490</ele>
        <time>2011-08-01T16:14:35Z</time>
      </trkpt>
      <trkpt lat="45.82912" lon="6.15174">
        <ele>491</ele>
        <time>2011-08-01T16:14:42Z</time>
      </trkpt>
      <trkpt lat="45.82894" lon="6.15177">
        <ele>491</ele>
        <time>2011-08-01T16:14:46Z</time>
      </trkpt>
      <trkpt lat="45.82893" lon="6.1519">
        <ele>491</ele>
        <time>2011-08-01T16:14:50Z</time>
      </trkpt>
      <trkpt lat="45.82924" lon="6.15229">
        <ele>489</ele>
        <time>2011-08-01T16:14:57Z</time>
      </trkpt>
      <trkpt lat="45.82972" lon="6.15285">
        <ele>486</ele>
        <time>2011-08-01T16:15:06Z</time>
      </trkpt>
      <trkpt lat="45.83012" lon="6.15336">
        <ele>482</ele>
        <time>2011-08-01T16:15:14Z</time>
      </trkpt>
      <trkpt lat="45.8305" lon="6.15379">
        <ele>481</ele>
        <time>2011-08-01T16:15:21Z</time>
      </trkpt>
      <trkpt lat="45.83091" lon="6.15416">
        <ele>479</ele>
        <time>2011-08-01T16:15:28Z</time>
      </trkpt>
      <trkpt lat="45.83135" lon="6.15444">
        <ele>477</ele>
        <time>2011-08-01T16:15:35Z</time>
      </trkpt>
      <trkpt lat="45.8317" lon="6.15475">
        <ele>474</ele>
        <time>2011-08-01T16:15:41Z</time>
      </trkpt>
      <trkpt lat="45.83225" lon="6.15531">
        <ele>473</ele>
        <time>2011-08-01T16:15:51Z</time>
      </trkpt>
      <trkpt lat="45.8327" lon="6.15581">
        <ele>472</ele>
        <time>2011-08-01T16:16:00Z</time>
      </trkpt>
      <trkpt lat="45.83307" lon="6.15623">
        <ele>471</ele>
        <time>2011-08-01T16:16:08Z</time>
      </trkpt>
      <trkpt lat="45.83342" lon="6.15663">
        <ele>470</ele>
        <time>2011-08-01T16:16:15Z</time>
      </trkpt>
      <trkpt lat="45.83374" lon="6.15704">
        <ele>469</ele>
        <time>2011-08-01T16:16:22Z</time>
      </trkpt>
      <trkpt lat="45.83378" lon="6.1571">
        <ele>469</ele>
        <time>2011-08-01T16:16:23Z</time>
      </trkpt>
      <trkpt lat="45.83391" lon="6.15734">
        <ele>469</ele>
        <time>2011-08-01T16:16:27Z</time>
      </trkpt>
      <trkpt lat="45.83417" lon="6.15769">
        <ele>468</ele>
        <time>2011-08-01T16:16:33Z</time>
      </trkpt>
      <trkpt lat="45.8344" lon="6.15816">
        <ele>468</ele>
        <time>2011-08-01T16:16:39Z</time>
      </trkpt>
      <trkpt lat="45.83466" lon="6.15868">
        <ele>466</ele>
        <time>2011-08-01T16:16:46Z</time>
      </trkpt>
      <trkpt lat="45.83492" lon="6.15914">
        <ele>465</ele>
        <time>2011-08-01T16:16:53Z</time>
      </trkpt>
      <trkpt lat="45.83512" lon="6.15948">
        <ele>464</ele>
        <time>2011-08-01T16:16:59Z</time>
      </trkpt>
      <trkpt lat="45.83524" lon="6.15971">
        <ele>464</ele>
        <time>2011-08-01T16:17:03Z</time>
      </trkpt>
      <trkpt lat="45.83547" lon="6.16006">
        <ele>463</ele>
        <time>2011-08-01T16:17:10Z</time>
      </trkpt>
      <trkpt lat="45.83549" lon="6.16016">
        <ele>463</ele>
        <time>2011-08-01T16:17:14Z</time>
      </trkpt>
      <trkpt lat="45.83548" lon="6.16027">
        <ele>463</ele>
        <time>2011-08-01T16:17:18Z</time>
      </trkpt>
      <trkpt lat="45.83559" lon="6.16033">
        <ele>463</ele>
        <time>2011-08-01T16:17:21Z</time>
      </trkpt>
      <trkpt lat="45.83562" lon="6.16037">
        <ele>463</ele>
        <time>2011-08-01T16:17:22Z</time>
      </trkpt>
      <trkpt lat="45.83588" lon="6.16064">
        <ele>461</ele>
        <time>2011-08-01T16:17:30Z</time>
      </trkpt>
      <trkpt lat="45.8359" lon="6.16065">
        <ele>461</ele>
        <time>2011-08-01T16:17:34Z</time>
      </trkpt>
      <trkpt lat="45.83591" lon="6.16068">
        <ele>461</ele>
        <time>2011-08-01T16:17:57Z</time>
      </trkpt>
      <trkpt lat="45.83592" lon="6.16069">
        <ele>461</ele>
        <time>2011-08-01T16:17:58Z</time>
      </trkpt>
      <trkpt lat="45.83606" lon="6.16072">
        <ele>461</ele>
        <time>2011-08-01T16:18:02Z</time>
      </trkpt>
      <trkpt lat="45.83625" lon="6.1609">
        <ele>461</ele>
        <time>2011-08-01T16:18:06Z</time>
      </trkpt>
      <trkpt lat="45.83656" lon="6.16127">
        <ele>461</ele>
        <time>2011-08-01T16:18:13Z</time>
      </trkpt>
      <trkpt lat="45.83684" lon="6.1616">
        <ele>460</ele>
        <time>2011-08-01T16:18:20Z</time>
      </trkpt>
      <trkpt lat="45.8371" lon="6.1619">
        <ele>459</ele>
        <time>2011-08-01T16:18:27Z</time>
      </trkpt>
      <trkpt lat="45.83717" lon="6.162">
        <ele>459</ele>
        <time>2011-08-01T16:18:29Z</time>
      </trkpt>
      <trkpt lat="45.83728" lon="6.16212">
        <ele>459</ele>
        <time>2011-08-01T16:18:32Z</time>
      </trkpt>
      <trkpt lat="45.83754" lon="6.16243">
        <ele>459</ele>
        <time>2011-08-01T16:18:40Z</time>
      </trkpt>
      <trkpt lat="45.83756" lon="6.16247">
        <ele>459</ele>
        <time>2011-08-01T16:18:42Z</time>
      </trkpt>
      <trkpt lat="45.8375" lon="6.16255">
        <ele>459</ele>
        <time>2011-08-01T16:18:47Z</time>
      </trkpt>
      <trkpt lat="45.83746" lon="6.16257">
        <ele>459</ele>
        <time>2011-08-01T16:18:48Z</time>
      </trkpt>
      <trkpt lat="45.83715" lon="6.1628">
        <ele>460</ele>
        <time>2011-08-01T16:18:56Z</time>
      </trkpt>
      <trkpt lat="45.83687" lon="6.16306">
        <ele>460</ele>
        <time>2011-08-01T16:19:02Z</time>
      </trkpt>
      <trkpt lat="45.83655" lon="6.1634">
        <ele>461</ele>
        <time>2011-08-01T16:19:09Z</time>
      </trkpt>
      <trkpt lat="45.83622" lon="6.16383">
        <ele>461</ele>
        <time>2011-08-01T16:19:17Z</time>
      </trkpt>
      <trkpt lat="45.83593" lon="6.16429">
        <ele>460</ele>
        <time>2011-08-01T16:19:25Z</time>
      </trkpt>
      <trkpt lat="45.83565" lon="6.16483">
        <ele>461</ele>
        <time>2011-08-01T16:19:34Z</time>
      </trkpt>
      <trkpt lat="45.83537" lon="6.16541">
        <ele>462</ele>
        <time>2011-08-01T16:19:43Z</time>
      </trkpt>
      <trkpt lat="45.83519" lon="6.16579">
        <ele>463</ele>
        <time>2011-08-01T16:19:50Z</time>
      </trkpt>
      <trkpt lat="45.83515" lon="6.16589">
        <ele>463</ele>
        <time>2011-08-01T16:19:52Z</time>
      </trkpt>
      <trkpt lat="45.83509" lon="6.16597">
        <ele>463</ele>
        <time>2011-08-01T16:19:57Z</time>
      </trkpt>
      <trkpt lat="45.83505" lon="6.16608">
        <ele>463</ele>
        <time>2011-08-01T16:20:02Z</time>
      </trkpt>
      <trkpt lat="45.83499" lon="6.1662">
        <ele>464</ele>
        <time>2011-08-01T16:20:06Z</time>
      </trkpt>
      <trkpt lat="45.8348" lon="6.16659">
        <ele>464</ele>
        <time>2011-08-01T16:20:13Z</time>
      </trkpt>
      <trkpt lat="45.83465" lon="6.16689">
        <ele>463</ele>
        <time>2011-08-01T16:20:18Z</time>
      </trkpt>
      <trkpt lat="45.83444" lon="6.16733">
        <ele>463</ele>
        <time>2011-08-01T16:20:25Z</time>
      </trkpt>
      <trkpt lat="45.83417" lon="6.16787">
        <ele>461</ele>
        <time>2011-08-01T16:20:33Z</time>
      </trkpt>
      <trkpt lat="45.83411" lon="6.168">
        <ele>462</ele>
        <time>2011-08-01T16:20:35Z</time>
      </trkpt>
      <trkpt lat="45.83395" lon="6.16835">
        <ele>461</ele>
        <time>2011-08-01T16:20:40Z</time>
      </trkpt>
      <trkpt lat="45.83371" lon="6.16887">
        <ele>461</ele>
        <time>2011-08-01T16:20:48Z</time>
      </trkpt>
      <trkpt lat="45.83346" lon="6.16941">
        <ele>462</ele>
        <time>2011-08-01T16:20:56Z</time>
      </trkpt>
      <trkpt lat="45.83321" lon="6.16995">
        <ele>462</ele>
        <time>2011-08-01T16:21:04Z</time>
      </trkpt>
      <trkpt lat="45.83297" lon="6.17048">
        <ele>462</ele>
        <time>2011-08-01T16:21:12Z</time>
      </trkpt>
      <trkpt lat="45.83269" lon="6.17106">
        <ele>462</ele>
        <time>2011-08-01T16:21:21Z</time>
      </trkpt>
      <trkpt lat="45.83245" lon="6.17159">
        <ele>462</ele>
        <time>2011-08-01T16:21:29Z</time>
      </trkpt>
      <trkpt lat="45.83235" lon="6.17212">
        <ele>463</ele>
        <time>2011-08-01T16:21:35Z</time>
      </trkpt>
      <trkpt lat="45.83229" lon="6.17259">
        <ele>462</ele>
        <time>2011-08-01T16:21:40Z</time>
      </trkpt>
      <trkpt lat="45.83213" lon="6.17285">
        <ele>462</ele>
        <time>2011-08-01T16:21:44Z</time>
      </trkpt>
      <trkpt lat="45.83191" lon="6.17289">
        <ele>462</ele>
        <time>2011-08-01T16:21:48Z</time>
      </trkpt>
      <trkpt lat="45.83183" lon="6.173">
        <ele>462</ele>
        <time>2011-08-01T16:21:50Z</time>
      </trkpt>
      <trkpt lat="45.83145" lon="6.17369">
        <ele>462</ele>
        <time>2011-08-01T16:22:01Z</time>
      </trkpt>
      <trkpt lat="45.83117" lon="6.17425">
        <ele>461</ele>
        <time>2011-08-01T16:22:09Z</time>
      </trkpt>
      <trkpt lat="45.8309" lon="6.17483">
        <ele>461</ele>
        <time>2011-08-01T16:22:17Z</time>
      </trkpt>
      <trkpt lat="45.83069" lon="6.17528">
        <ele>460</ele>
        <time>2011-08-01T16:22:23Z</time>
      </trkpt>
      <trkpt lat="45.83036" lon="6.17596">
        <ele>459</ele>
        <time>2011-08-01T16:22:32Z</time>
      </trkpt>
      <trkpt lat="45.83006" lon="6.17662">
        <ele>460</ele>
        <time>2011-08-01T16:22:41Z</time>
      </trkpt>
      <trkpt lat="45.82978" lon="6.1772">
        <ele>460</ele>
        <time>2011-08-01T16:22:49Z</time>
      </trkpt>
      <trkpt lat="45.82954" lon="6.17781">
        <ele>460</ele>
        <time>2011-08-01T16:22:57Z</time>
      </trkpt>
      <trkpt lat="45.82935" lon="6.17831">
        <ele>460</ele>
        <time>2011-08-01T16:23:03Z</time>
      </trkpt>
      <trkpt lat="45.82913" lon="6.17913">
        <ele>458</ele>
        <time>2011-08-01T16:23:13Z</time>
      </trkpt>
      <trkpt lat="45.82898" lon="6.17989">
        <ele>458</ele>
        <time>2011-08-01T16:23:22Z</time>
      </trkpt>
      <trkpt lat="45.82888" lon="6.18038">
        <ele>459</ele>
        <time>2011-08-01T16:23:28Z</time>
      </trkpt>
      <trkpt lat="45.82877" lon="6.18085">
        <ele>459</ele>
        <time>2011-08-01T16:23:34Z</time>
      </trkpt>
      <trkpt lat="45.82865" lon="6.18137">
        <ele>460</ele>
        <time>2011-08-01T16:23:40Z</time>
      </trkpt>
      <trkpt lat="45.8285" lon="6.18207">
        <ele>459</ele>
        <time>2011-08-01T16:23:48Z</time>
      </trkpt>
      <trkpt lat="45.82841" lon="6.1825">
        <ele>460</ele>
        <time>2011-08-01T16:23:53Z</time>
      </trkpt>
      <trkpt lat="45.82834" lon="6.18292">
        <ele>458</ele>
        <time>2011-08-01T16:23:58Z</time>
      </trkpt>
      <trkpt lat="45.82821" lon="6.18351">
        <ele>460</ele>
        <time>2011-08-01T16:24:05Z</time>
      </trkpt>
      <trkpt lat="45.82814" lon="6.18382">
        <ele>460</ele>
        <time>2011-08-01T16:24:09Z</time>
      </trkpt>
      <trkpt lat="45.82802" lon="6.18436">
        <ele>459</ele>
        <time>2011-08-01T16:24:16Z</time>
      </trkpt>
      <trkpt lat="45.82785" lon="6.18514">
        <ele>458</ele>
        <time>2011-08-01T16:24:25Z</time>
      </trkpt>
      <trkpt lat="45.82768" lon="6.18591">
        <ele>458</ele>
        <time>2011-08-01T16:24:34Z</time>
      </trkpt>
      <trkpt lat="45.82754" lon="6.18658">
        <ele>459</ele>
        <time>2011-08-01T16:24:42Z</time>
      </trkpt>
      <trkpt lat="45.82742" lon="6.18714">
        <ele>461</ele>
        <time>2011-08-01T16:24:49Z</time>
      </trkpt>
      <trkpt lat="45.82728" lon="6.18779">
        <ele>460</ele>
        <time>2011-08-01T16:24:57Z</time>
      </trkpt>
      <trkpt lat="45.82714" lon="6.18838">
        <ele>459</ele>
        <time>2011-08-01T16:25:04Z</time>
      </trkpt>
      <trkpt lat="45.82702" lon="6.18894">
        <ele>458</ele>
        <time>2011-08-01T16:25:11Z</time>
      </trkpt>
      <trkpt lat="45.82689" lon="6.18955">
        <ele>456</ele>
        <time>2011-08-01T16:25:18Z</time>
      </trkpt>
      <trkpt lat="45.82673" lon="6.19021">
        <ele>455</ele>
        <time>2011-08-01T16:25:26Z</time>
      </trkpt>
      <trkpt lat="45.82661" lon="6.19062">
        <ele>456</ele>
        <time>2011-08-01T16:25:31Z</time>
      </trkpt>
      <trkpt lat="45.8264" lon="6.19125">
        <ele>456</ele>
        <time>2011-08-01T16:25:39Z</time>
      </trkpt>
      <trkpt lat="45.82617" lon="6.19198">
        <ele>456</ele>
        <time>2011-08-01T16:25:48Z</time>
      </trkpt>
      <trkpt lat="45.82592" lon="6.19276">
        <ele>456</ele>
        <time>2011-08-01T16:25:58Z</time>
      </trkpt>
      <trkpt lat="45.82571" lon="6.19358">
        <ele>459</ele>
        <time>2011-08-01T16:26:08Z</time>
      </trkpt>
      <trkpt lat="45.82561" lon="6.19427">
        <ele>458</ele>
        <time>2011-08-01T16:26:16Z</time>
      </trkpt>
      <trkpt lat="45.8256" lon="6.19436">
        <ele>459</ele>
        <time>2011-08-01T16:26:17Z</time>
      </trkpt>
      <trkpt lat="45.82559" lon="6.19459">
        <ele>459</ele>
        <time>2011-08-01T16:26:20Z</time>
      </trkpt>
      <trkpt lat="45.82558" lon="6.19529">
        <ele>459</ele>
        <time>2011-08-01T16:26:28Z</time>
      </trkpt>
      <trkpt lat="45.82563" lon="6.19588">
        <ele>458</ele>
        <time>2011-08-01T16:26:35Z</time>
      </trkpt>
      <trkpt lat="45.82568" lon="6.19625">
        <ele>459</ele>
        <time>2011-08-01T16:26:40Z</time>
      </trkpt>
      <trkpt lat="45.8257" lon="6.19633">
        <ele>458</ele>
        <time>2011-08-01T16:26:42Z</time>
      </trkpt>
      <trkpt lat="45.8257" lon="6.1965">
        <ele>458</ele>
        <time>2011-08-01T16:26:48Z</time>
      </trkpt>
      <trkpt lat="45.82571" lon="6.19655">
        <ele>458</ele>
        <time>2011-08-01T16:26:49Z</time>
      </trkpt>
      <trkpt lat="45.8258" lon="6.19701">
        <ele>458</ele>
        <time>2011-08-01T16:26:55Z</time>
      </trkpt>
      <trkpt lat="45.82591" lon="6.19761">
        <ele>454</ele>
        <time>2011-08-01T16:27:02Z</time>
      </trkpt>
      <trkpt lat="45.82603" lon="6.1984">
        <ele>453</ele>
        <time>2011-08-01T16:27:11Z</time>
      </trkpt>
      <trkpt lat="45.82611" lon="6.1989">
        <ele>453</ele>
        <time>2011-08-01T16:27:17Z</time>
      </trkpt>
      <trkpt lat="45.82623" lon="6.19979">
        <ele>456</ele>
        <time>2011-08-01T16:27:27Z</time>
      </trkpt>
      <trkpt lat="45.82635" lon="6.20061">
        <ele>456</ele>
        <time>2011-08-01T16:27:36Z</time>
      </trkpt>
      <trkpt lat="45.82642" lon="6.2011">
        <ele>456</ele>
        <time>2011-08-01T16:27:42Z</time>
      </trkpt>
      <trkpt lat="45.82651" lon="6.20158">
        <ele>455</ele>
        <time>2011-08-01T16:27:48Z</time>
      </trkpt>
      <trkpt lat="45.82662" lon="6.20221">
        <ele>453</ele>
        <time>2011-08-01T16:27:55Z</time>
      </trkpt>
      <trkpt lat="45.82664" lon="6.2024">
        <ele>452</ele>
        <time>2011-08-01T16:27:57Z</time>
      </trkpt>
      <trkpt lat="45.82679" lon="6.20316">
        <ele>452</ele>
        <time>2011-08-01T16:28:06Z</time>
      </trkpt>
      <trkpt lat="45.82689" lon="6.20383">
        <ele>460</ele>
        <time>2011-08-01T16:28:15Z</time>
      </trkpt>
      <trkpt lat="45.8269" lon="6.20411">
        <ele>464</ele>
        <time>2011-08-01T16:28:19Z</time>
      </trkpt>
      <trkpt lat="45.82705" lon="6.20508">
        <ele>496</ele>
        <time>2011-08-01T16:28:34Z</time>
      </trkpt>
      <trkpt lat="45.82631" lon="6.20696">
        <ele>471</ele>
        <time>2011-08-01T16:28:56Z</time>
      </trkpt>
      <trkpt lat="45.82597" lon="6.20752">
        <ele>460</ele>
        <time>2011-08-01T16:29:04Z</time>
      </trkpt>
      <trkpt lat="45.82569" lon="6.2078">
        <ele>465</ele>
        <time>2011-08-01T16:29:10Z</time>
      </trkpt>
      <trkpt lat="45.82529" lon="6.2081">
        <ele>465</ele>
        <time>2011-08-01T16:29:18Z</time>
      </trkpt>
      <trkpt lat="45.82486" lon="6.2083">
        <ele>467</ele>
        <time>2011-08-01T16:29:26Z</time>
      </trkpt>
      <trkpt lat="45.8244" lon="6.20838">
        <ele>458</ele>
        <time>2011-08-01T16:29:34Z</time>
      </trkpt>
      <trkpt lat="45.82394" lon="6.20836">
        <ele>458</ele>
        <time>2011-08-01T16:29:42Z</time>
      </trkpt>
      <trkpt lat="45.82362" lon="6.20824">
        <ele>466</ele>
        <time>2011-08-01T16:29:48Z</time>
      </trkpt>
      <trkpt lat="45.82318" lon="6.20803">
        <ele>464</ele>
        <time>2011-08-01T16:29:56Z</time>
      </trkpt>
      <trkpt lat="45.82267" lon="6.20763">
        <ele>465</ele>
        <time>2011-08-01T16:30:06Z</time>
      </trkpt>
      <trkpt lat="45.82224" lon="6.20721">
        <ele>468</ele>
        <time>2011-08-01T16:30:15Z</time>
      </trkpt>
      <trkpt lat="45.82194" lon="6.20683">
        <ele>469</ele>
        <time>2011-08-01T16:30:22Z</time>
      </trkpt>
      <trkpt lat="45.82165" lon="6.20654">
        <ele>474</ele>
        <time>2011-08-01T16:30:29Z</time>
      </trkpt>
      <trkpt lat="45.82122" lon="6.20631">
        <ele>479</ele>
        <time>2011-08-01T16:30:37Z</time>
      </trkpt>
      <trkpt lat="45.82082" lon="6.20621">
        <ele>473</ele>
        <time>2011-08-01T16:30:43Z</time>
      </trkpt>
      <trkpt lat="45.82048" lon="6.20612">
        <ele>473</ele>
        <time>2011-08-01T16:30:49Z</time>
      </trkpt>
      <trkpt lat="45.82" lon="6.20618">
        <ele>469</ele>
        <time>2011-08-01T16:30:56Z</time>
      </trkpt>
      <trkpt lat="45.8195" lon="6.20639">
        <ele>466</ele>
        <time>2011-08-01T16:31:03Z</time>
      </trkpt>
      <trkpt lat="45.81896" lon="6.20662">
        <ele>465</ele>
        <time>2011-08-01T16:31:12Z</time>
      </trkpt>
      <trkpt lat="45.8184" lon="6.20685">
        <ele>460</ele>
        <time>2011-08-01T16:31:21Z</time>
      </trkpt>
      <trkpt lat="45.81782" lon="6.20703">
        <ele>461</ele>
        <time>2011-08-01T16:31:30Z</time>
      </trkpt>
      <trkpt lat="45.81737" lon="6.20713">
        <ele>464</ele>
        <time>2011-08-01T16:31:37Z</time>
      </trkpt>
      <trkpt lat="45.81686" lon="6.20724">
        <ele>463</ele>
        <time>2011-08-01T16:31:45Z</time>
      </trkpt>
      <trkpt lat="45.81653" lon="6.20732">
        <ele>465</ele>
        <time>2011-08-01T16:31:51Z</time>
      </trkpt>
      <trkpt lat="45.81613" lon="6.20741">
        <ele>467</ele>
        <time>2011-08-01T16:31:58Z</time>
      </trkpt>
      <trkpt lat="45.81546" lon="6.20757">
        <ele>462</ele>
        <time>2011-08-01T16:32:09Z</time>
      </trkpt>
      <trkpt lat="45.81499" lon="6.20769">
        <ele>466</ele>
        <time>2011-08-01T16:32:17Z</time>
      </trkpt>
      <trkpt lat="45.8143" lon="6.20786">
        <ele>465</ele>
        <time>2011-08-01T16:32:29Z</time>
      </trkpt>
      <trkpt lat="45.8138" lon="6.20798">
        <ele>468</ele>
        <time>2011-08-01T16:32:38Z</time>
      </trkpt>
      <trkpt lat="45.81325" lon="6.2081">
        <ele>468</ele>
        <time>2011-08-01T16:32:48Z</time>
      </trkpt>
      <trkpt lat="45.81269" lon="6.20823">
        <ele>469</ele>
        <time>2011-08-01T16:32:58Z</time>
      </trkpt>
      <trkpt lat="45.81232" lon="6.20832">
        <ele>470</ele>
        <time>2011-08-01T16:33:05Z</time>
      </trkpt>
      <trkpt lat="45.81182" lon="6.20849">
        <ele>466</ele>
        <time>2011-08-01T16:33:14Z</time>
      </trkpt>
      <trkpt lat="45.81138" lon="6.20864">
        <ele>467</ele>
        <time>2011-08-01T16:33:22Z</time>
      </trkpt>
      <trkpt lat="45.81112" lon="6.20873">
        <ele>467</ele>
        <time>2011-08-01T16:33:27Z</time>
      </trkpt>
      <trkpt lat="45.81075" lon="6.20888">
        <ele>468</ele>
        <time>2011-08-01T16:33:34Z</time>
      </trkpt>
      <trkpt lat="45.81014" lon="6.20911">
        <ele>468</ele>
        <time>2011-08-01T16:33:45Z</time>
      </trkpt>
      <trkpt lat="45.81003" lon="6.20915">
        <ele>468</ele>
        <time>2011-08-01T16:33:47Z</time>
      </trkpt>
      <trkpt lat="45.8097" lon="6.20925">
        <ele>469</ele>
        <time>2011-08-01T16:33:54Z</time>
      </trkpt>
      <trkpt lat="45.80962" lon="6.20929">
        <ele>469</ele>
        <time>2011-08-01T16:33:56Z</time>
      </trkpt>
      <trkpt lat="45.8095" lon="6.20936">
        <ele>469</ele>
        <time>2011-08-01T16:34:00Z</time>
      </trkpt>
      <trkpt lat="45.80933" lon="6.20945">
        <ele>469</ele>
        <time>2011-08-01T16:34:05Z</time>
      </trkpt>
      <trkpt lat="45.80918" lon="6.20944">
        <ele>469</ele>
        <time>2011-08-01T16:34:08Z</time>
      </trkpt>
      <trkpt lat="45.80862" lon="6.20963">
        <ele>470</ele>
        <time>2011-08-01T16:34:18Z</time>
      </trkpt>
      <trkpt lat="45.80831" lon="6.20975">
        <ele>470</ele>
        <time>2011-08-01T16:34:24Z</time>
      </trkpt>
      <trkpt lat="45.80787" lon="6.20991">
        <ele>471</ele>
        <time>2011-08-01T16:34:32Z</time>
      </trkpt>
      <trkpt lat="45.80744" lon="6.21006">
        <ele>471</ele>
        <time>2011-08-01T16:34:40Z</time>
      </trkpt>
      <trkpt lat="45.80709" lon="6.2102">
        <ele>471</ele>
        <time>2011-08-01T16:34:46Z</time>
      </trkpt>
      <trkpt lat="45.80642" lon="6.21043">
        <ele>472</ele>
        <time>2011-08-01T16:34:57Z</time>
      </trkpt>
      <trkpt lat="45.80608" lon="6.21056">
        <ele>472</ele>
        <time>2011-08-01T16:35:03Z</time>
      </trkpt>
      <trkpt lat="45.80574" lon="6.21066">
        <ele>473</ele>
        <time>2011-08-01T16:35:09Z</time>
      </trkpt>
      <trkpt lat="45.80561" lon="6.21069">
        <ele>473</ele>
        <time>2011-08-01T16:35:12Z</time>
      </trkpt>
      <trkpt lat="45.80533" lon="6.21077">
        <ele>473</ele>
        <time>2011-08-01T16:35:17Z</time>
      </trkpt>
      <trkpt lat="45.80509" lon="6.21089">
        <ele>472</ele>
        <time>2011-08-01T16:35:21Z</time>
      </trkpt>
      <trkpt lat="45.80464" lon="6.21104">
        <ele>470</ele>
        <time>2011-08-01T16:35:29Z</time>
      </trkpt>
      <trkpt lat="45.80432" lon="6.21113">
        <ele>470</ele>
        <time>2011-08-01T16:35:34Z</time>
      </trkpt>
      <trkpt lat="45.80406" lon="6.21122">
        <ele>469</ele>
        <time>2011-08-01T16:35:38Z</time>
      </trkpt>
      <trkpt lat="45.8036" lon="6.2113">
        <ele>468</ele>
        <time>2011-08-01T16:35:45Z</time>
      </trkpt>
      <trkpt lat="45.80327" lon="6.21134">
        <ele>467</ele>
        <time>2011-08-01T16:35:50Z</time>
      </trkpt>
      <trkpt lat="45.80286" lon="6.2114">
        <ele>467</ele>
        <time>2011-08-01T16:35:56Z</time>
      </trkpt>
      <trkpt lat="45.80244" lon="6.21144">
        <ele>466</ele>
        <time>2011-08-01T16:36:02Z</time>
      </trkpt>
      <trkpt lat="45.802" lon="6.21145">
        <ele>465</ele>
        <time>2011-08-01T16:36:08Z</time>
      </trkpt>
      <trkpt lat="45.80141" lon="6.21147">
        <ele>464</ele>
        <time>2011-08-01T16:36:16Z</time>
      </trkpt>
      <trkpt lat="45.80091" lon="6.21149">
        <ele>462</ele>
        <time>2011-08-01T16:36:23Z</time>
      </trkpt>
      <trkpt lat="45.80044" lon="6.21151">
        <ele>462</ele>
        <time>2011-08-01T16:36:30Z</time>
      </trkpt>
      <trkpt lat="45.80023" lon="6.21152">
        <ele>462</ele>
        <time>2011-08-01T16:36:33Z</time>
      </trkpt>
      <trkpt lat="45.80009" lon="6.21154">
        <ele>462</ele>
        <time>2011-08-01T16:36:35Z</time>
      </trkpt>
      <trkpt lat="45.79949" lon="6.21155">
        <ele>460</ele>
        <time>2011-08-01T16:36:44Z</time>
      </trkpt>
      <trkpt lat="45.79889" lon="6.21157">
        <ele>458</ele>
        <time>2011-08-01T16:36:53Z</time>
      </trkpt>
      <trkpt lat="45.79825" lon="6.21159">
        <ele>456</ele>
        <time>2011-08-01T16:37:03Z</time>
      </trkpt>
      <trkpt lat="45.79788" lon="6.2116">
        <ele>457</ele>
        <time>2011-08-01T16:37:09Z</time>
      </trkpt>
      <trkpt lat="45.79745" lon="6.21161">
        <ele>457</ele>
        <time>2011-08-01T16:37:16Z</time>
      </trkpt>
      <trkpt lat="45.79686" lon="6.21162">
        <ele>460</ele>
        <time>2011-08-01T16:37:25Z</time>
      </trkpt>
      <trkpt lat="45.79642" lon="6.21162">
        <ele>461</ele>
        <time>2011-08-01T16:37:32Z</time>
      </trkpt>
      <trkpt lat="45.79587" lon="6.21163">
        <ele>459</ele>
        <time>2011-08-01T16:37:41Z</time>
      </trkpt>
      <trkpt lat="45.79544" lon="6.21165">
        <ele>458</ele>
        <time>2011-08-01T16:37:49Z</time>
      </trkpt>
      <trkpt lat="45.79535" lon="6.21163">
        <ele>458</ele>
        <time>2011-08-01T16:37:51Z</time>
      </trkpt>
      <trkpt lat="45.79515" lon="6.21164">
        <ele>458</ele>
        <time>2011-08-01T16:37:56Z</time>
      </trkpt>
      <trkpt lat="45.79494" lon="6.21168">
        <ele>457</ele>
        <time>2011-08-01T16:38:00Z</time>
      </trkpt>
      <trkpt lat="45.7945" lon="6.21172">
        <ele>456</ele>
        <time>2011-08-01T16:38:07Z</time>
      </trkpt>
      <trkpt lat="45.79407" lon="6.21179">
        <ele>454</ele>
        <time>2011-08-01T16:38:13Z</time>
      </trkpt>
      <trkpt lat="45.79368" lon="6.21189">
        <ele>453</ele>
        <time>2011-08-01T16:38:19Z</time>
      </trkpt>
      <trkpt lat="45.79323" lon="6.21207">
        <ele>452</ele>
        <time>2011-08-01T16:38:26Z</time>
      </trkpt>
      <trkpt lat="45.79292" lon="6.21221">
        <ele>452</ele>
        <time>2011-08-01T16:38:31Z</time>
      </trkpt>
      <trkpt lat="45.79256" lon="6.21243">
        <ele>452</ele>
        <time>2011-08-01T16:38:37Z</time>
      </trkpt>
      <trkpt lat="45.79228" lon="6.21262">
        <ele>453</ele>
        <time>2011-08-01T16:38:42Z</time>
      </trkpt>
      <trkpt lat="45.79199" lon="6.21282">
        <ele>454</ele>
        <time>2011-08-01T16:38:48Z</time>
      </trkpt>
      <trkpt lat="45.79168" lon="6.21312">
        <ele>454</ele>
        <time>2011-08-01T16:38:55Z</time>
      </trkpt>
      <trkpt lat="45.79164" lon="6.21316">
        <ele>456</ele>
        <time>2011-08-01T16:38:56Z</time>
      </trkpt>
      <trkpt lat="45.79153" lon="6.21324">
        <ele>456</ele>
        <time>2011-08-01T16:38:59Z</time>
      </trkpt>
      <trkpt lat="45.79148" lon="6.21329">
        <ele>456</ele>
        <time>2011-08-01T16:39:03Z</time>
      </trkpt>
      <trkpt lat="45.79147" lon="6.2133">
        <ele>456</ele>
        <time>2011-08-01T16:39:10Z</time>
      </trkpt>
      <trkpt lat="45.79144" lon="6.21329">
        <ele>456</ele>
        <time>2011-08-01T16:39:12Z</time>
      </trkpt>
      <trkpt lat="45.79136" lon="6.21339">
        <ele>454</ele>
        <time>2011-08-01T16:39:16Z</time>
      </trkpt>
      <trkpt lat="45.79121" lon="6.21354">
        <ele>454</ele>
        <time>2011-08-01T16:39:20Z</time>
      </trkpt>
      <trkpt lat="45.7909" lon="6.21386">
        <ele>454</ele>
        <time>2011-08-01T16:39:27Z</time>
      </trkpt>
      <trkpt lat="45.79058" lon="6.21416">
        <ele>454</ele>
        <time>2011-08-01T16:39:34Z</time>
      </trkpt>
      <trkpt lat="45.79039" lon="6.21434">
        <ele>454</ele>
        <time>2011-08-01T16:39:39Z</time>
      </trkpt>
      <trkpt lat="45.79031" lon="6.21442">
        <ele>454</ele>
        <time>2011-08-01T16:39:41Z</time>
      </trkpt>
      <trkpt lat="45.7902" lon="6.21453">
        <ele>454</ele>
        <time>2011-08-01T16:39:44Z</time>
      </trkpt>
      <trkpt lat="45.79007" lon="6.21465">
        <ele>454</ele>
        <time>2011-08-01T16:39:47Z</time>
      </trkpt>
      <trkpt lat="45.78987" lon="6.21484">
        <ele>454</ele>
        <time>2011-08-01T16:39:51Z</time>
      </trkpt>
      <trkpt lat="45.78951" lon="6.2152">
        <ele>455</ele>
        <time>2011-08-01T16:39:58Z</time>
      </trkpt>
      <trkpt lat="45.78925" lon="6.21543">
        <ele>455</ele>
        <time>2011-08-01T16:40:04Z</time>
      </trkpt>
      <trkpt lat="45.7889" lon="6.21576">
        <ele>455</ele>
        <time>2011-08-01T16:40:11Z</time>
      </trkpt>
      <trkpt lat="45.78857" lon="6.21608">
        <ele>455</ele>
        <time>2011-08-01T16:40:18Z</time>
      </trkpt>
      <trkpt lat="45.78829" lon="6.21637">
        <ele>454</ele>
        <time>2011-08-01T16:40:25Z</time>
      </trkpt>
      <trkpt lat="45.78807" lon="6.21662">
        <ele>454</ele>
        <time>2011-08-01T16:40:31Z</time>
      </trkpt>
      <trkpt lat="45.78763" lon="6.21716">
        <ele>455</ele>
        <time>2011-08-01T16:40:42Z</time>
      </trkpt>
      <trkpt lat="45.78729" lon="6.21764">
        <ele>456</ele>
        <time>2011-08-01T16:40:51Z</time>
      </trkpt>
      <trkpt lat="45.78701" lon="6.21807">
        <ele>458</ele>
        <time>2011-08-01T16:40:59Z</time>
      </trkpt>
      <trkpt lat="45.78678" lon="6.21846">
        <ele>459</ele>
        <time>2011-08-01T16:41:06Z</time>
      </trkpt>
      <trkpt lat="45.78663" lon="6.21873">
        <ele>459</ele>
        <time>2011-08-01T16:41:12Z</time>
      </trkpt>
      <trkpt lat="45.78647" lon="6.21904">
        <ele>458</ele>
        <time>2011-08-01T16:41:18Z</time>
      </trkpt>
      <trkpt lat="45.78615" lon="6.21969">
        <ele>458</ele>
        <time>2011-08-01T16:41:29Z</time>
      </trkpt>
      <trkpt lat="45.78595" lon="6.22012">
        <ele>459</ele>
        <time>2011-08-01T16:41:36Z</time>
      </trkpt>
      <trkpt lat="45.78564" lon="6.22078">
        <ele>459</ele>
        <time>2011-08-01T16:41:46Z</time>
      </trkpt>
      <trkpt lat="45.78535" lon="6.22143">
        <ele>460</ele>
        <time>2011-08-01T16:41:56Z</time>
      </trkpt>
      <trkpt lat="45.78511" lon="6.22195">
        <ele>461</ele>
        <time>2011-08-01T16:42:04Z</time>
      </trkpt>
      <trkpt lat="45.78484" lon="6.22254">
        <ele>461</ele>
        <time>2011-08-01T16:42:13Z</time>
      </trkpt>
      <trkpt lat="45.78463" lon="6.22296">
        <ele>461</ele>
        <time>2011-08-01T16:42:20Z</time>
      </trkpt>
      <trkpt lat="45.78429" lon="6.22355">
        <ele>462</ele>
        <time>2011-08-01T16:42:30Z</time>
      </trkpt>
      <trkpt lat="45.78406" lon="6.22393">
        <ele>463</ele>
        <time>2011-08-01T16:42:37Z</time>
      </trkpt>
      <trkpt lat="45.78386" lon="6.22424">
        <ele>465</ele>
        <time>2011-08-01T16:42:44Z</time>
      </trkpt>
      <trkpt lat="45.78382" lon="6.22428">
        <ele>465</ele>
        <time>2011-08-01T16:42:45Z</time>
      </trkpt>
      <trkpt lat="45.78377" lon="6.22434">
        <ele>465</ele>
        <time>2011-08-01T16:42:47Z</time>
      </trkpt>
      <trkpt lat="45.78367" lon="6.22451">
        <ele>466</ele>
        <time>2011-08-01T16:42:53Z</time>
      </trkpt>
      <trkpt lat="45.78359" lon="6.22463">
        <ele>466</ele>
        <time>2011-08-01T16:42:56Z</time>
      </trkpt>
      <trkpt lat="45.78329" lon="6.22502">
        <ele>467</ele>
        <time>2011-08-01T16:43:04Z</time>
      </trkpt>
      <trkpt lat="45.78313" lon="6.22522">
        <ele>467</ele>
        <time>2011-08-01T16:43:08Z</time>
      </trkpt>
      <trkpt lat="45.78273" lon="6.22576">
        <ele>467</ele>
        <time>2011-08-01T16:43:18Z</time>
      </trkpt>
      <trkpt lat="45.78249" lon="6.22606">
        <ele>466</ele>
        <time>2011-08-01T16:43:24Z</time>
      </trkpt>
      <trkpt lat="45.78217" lon="6.22648">
        <ele>466</ele>
        <time>2011-08-01T16:43:32Z</time>
      </trkpt>
      <trkpt lat="45.78175" lon="6.22701">
        <ele>465</ele>
        <time>2011-08-01T16:43:42Z</time>
      </trkpt>
      <trkpt lat="45.78157" lon="6.22724">
        <ele>465</ele>
        <time>2011-08-01T16:43:47Z</time>
      </trkpt>
      <trkpt lat="45.78129" lon="6.2276">
        <ele>465</ele>
        <time>2011-08-01T16:43:54Z</time>
      </trkpt>
      <trkpt lat="45.78112" lon="6.22782">
        <ele>465</ele>
        <time>2011-08-01T16:43:59Z</time>
      </trkpt>
      <trkpt lat="45.78094" lon="6.22807">
        <ele>466</ele>
        <time>2011-08-01T16:44:05Z</time>
      </trkpt>
      <trkpt lat="45.78085" lon="6.22815">
        <ele>466</ele>
        <time>2011-08-01T16:44:10Z</time>
      </trkpt>
      <trkpt lat="45.78078" lon="6.22826">
        <ele>466</ele>
        <time>2011-08-01T16:44:14Z</time>
      </trkpt>
      <trkpt lat="45.78061" lon="6.22827">
        <ele>466</ele>
        <time>2011-08-01T16:44:18Z</time>
      </trkpt>
      <trkpt lat="45.78046" lon="6.22822">
        <ele>467</ele>
        <time>2011-08-01T16:44:21Z</time>
      </trkpt>
      <trkpt lat="45.78016" lon="6.22833">
        <ele>467</ele>
        <time>2011-08-01T16:44:27Z</time>
      </trkpt>
      <trkpt lat="45.78002" lon="6.22846">
        <ele>467</ele>
        <time>2011-08-01T16:44:30Z</time>
      </trkpt>
      <trkpt lat="45.77965" lon="6.22893">
        <ele>468</ele>
        <time>2011-08-01T16:44:39Z</time>
      </trkpt>
      <trkpt lat="45.77927" lon="6.22941">
        <ele>469</ele>
        <time>2011-08-01T16:44:48Z</time>
      </trkpt>
      <trkpt lat="45.77885" lon="6.22996">
        <ele>470</ele>
        <time>2011-08-01T16:44:58Z</time>
      </trkpt>
      <trkpt lat="45.77849" lon="6.23044">
        <ele>470</ele>
        <time>2011-08-01T16:45:07Z</time>
      </trkpt>
      <trkpt lat="45.77829" lon="6.23072">
        <ele>470</ele>
        <time>2011-08-01T16:45:12Z</time>
      </trkpt>
      <trkpt lat="45.77818" lon="6.23105">
        <ele>470</ele>
        <time>2011-08-01T16:45:17Z</time>
      </trkpt>
      <trkpt lat="45.77796" lon="6.23149">
        <ele>470</ele>
        <time>2011-08-01T16:45:24Z</time>
      </trkpt>
      <trkpt lat="45.77775" lon="6.23183">
        <ele>469</ele>
        <time>2011-08-01T16:45:30Z</time>
      </trkpt>
      <trkpt lat="45.7776" lon="6.2321">
        <ele>469</ele>
        <time>2011-08-01T16:45:35Z</time>
      </trkpt>
      <trkpt lat="45.77758" lon="6.23233">
        <ele>468</ele>
        <time>2011-08-01T16:45:39Z</time>
      </trkpt>
      <trkpt lat="45.77753" lon="6.23241">
        <ele>468</ele>
        <time>2011-08-01T16:45:42Z</time>
      </trkpt>
      <trkpt lat="45.77747" lon="6.23236">
        <ele>469</ele>
        <time>2011-08-01T16:45:44Z</time>
      </trkpt>
      <trkpt lat="45.77719" lon="6.23196">
        <ele>470</ele>
        <time>2011-08-01T16:45:54Z</time>
      </trkpt>
      <trkpt lat="45.77691" lon="6.23156">
        <ele>472</ele>
        <time>2011-08-01T16:46:04Z</time>
      </trkpt>
      <trkpt lat="45.77671" lon="6.23127">
        <ele>473</ele>
        <time>2011-08-01T16:46:11Z</time>
      </trkpt>
      <trkpt lat="45.77648" lon="6.2309">
        <ele>476</ele>
        <time>2011-08-01T16:46:20Z</time>
      </trkpt>
      <trkpt lat="45.77628" lon="6.23074">
        <ele>476</ele>
        <time>2011-08-01T16:46:26Z</time>
      </trkpt>
      <trkpt lat="45.77583" lon="6.23052">
        <ele>481</ele>
        <time>2011-08-01T16:46:37Z</time>
      </trkpt>
      <trkpt lat="45.77544" lon="6.23034">
        <ele>482</ele>
        <time>2011-08-01T16:46:46Z</time>
      </trkpt>
      <trkpt lat="45.7751" lon="6.23015">
        <ele>482</ele>
        <time>2011-08-01T16:46:54Z</time>
      </trkpt>
      <trkpt lat="45.77496" lon="6.23002">
        <ele>483</ele>
        <time>2011-08-01T16:46:58Z</time>
      </trkpt>
      <trkpt lat="45.77483" lon="6.22985">
        <ele>481</ele>
        <time>2011-08-01T16:47:02Z</time>
      </trkpt>
      <trkpt lat="45.77465" lon="6.22941">
        <ele>481</ele>
        <time>2011-08-01T16:47:10Z</time>
      </trkpt>
      <trkpt lat="45.7746" lon="6.2293">
        <ele>480</ele>
        <time>2011-08-01T16:47:12Z</time>
      </trkpt>
      <trkpt lat="45.77446" lon="6.22906">
        <ele>479</ele>
        <time>2011-08-01T16:47:17Z</time>
      </trkpt>
      <trkpt lat="45.77415" lon="6.22879">
        <ele>480</ele>
        <time>2011-08-01T16:47:25Z</time>
      </trkpt>
      <trkpt lat="45.77377" lon="6.22856">
        <ele>480</ele>
        <time>2011-08-01T16:47:34Z</time>
      </trkpt>
      <trkpt lat="45.77345" lon="6.22828">
        <ele>481</ele>
        <time>2011-08-01T16:47:42Z</time>
      </trkpt>
      <trkpt lat="45.77311" lon="6.22781">
        <ele>482</ele>
        <time>2011-08-01T16:47:52Z</time>
      </trkpt>
      <trkpt lat="45.77281" lon="6.22753">
        <ele>483</ele>
        <time>2011-08-01T16:48:00Z</time>
      </trkpt>
      <trkpt lat="45.77237" lon="6.22719">
        <ele>484</ele>
        <time>2011-08-01T16:48:11Z</time>
      </trkpt>
      <trkpt lat="45.77201" lon="6.22691">
        <ele>485</ele>
        <time>2011-08-01T16:48:20Z</time>
      </trkpt>
      <trkpt lat="45.77172" lon="6.22674">
        <ele>486</ele>
        <time>2011-08-01T16:48:27Z</time>
      </trkpt>
      <trkpt lat="45.77168" lon="6.22671">
        <ele>486</ele>
        <time>2011-08-01T16:48:28Z</time>
      </trkpt>
      <trkpt lat="45.77134" lon="6.22659">
        <ele>487</ele>
        <time>2011-08-01T16:48:36Z</time>
      </trkpt>
      <trkpt lat="45.7711" lon="6.22647">
        <ele>488</ele>
        <time>2011-08-01T16:48:42Z</time>
      </trkpt>
      <trkpt lat="45.77102" lon="6.22642">
        <ele>488</ele>
        <time>2011-08-01T16:48:44Z</time>
      </trkpt>
      <trkpt lat="45.77076" lon="6.2261">
        <ele>489</ele>
        <time>2011-08-01T16:48:52Z</time>
      </trkpt>
      <trkpt lat="45.77053" lon="6.22555">
        <ele>489</ele>
        <time>2011-08-01T16:49:02Z</time>
      </trkpt>
      <trkpt lat="45.77037" lon="6.2251">
        <ele>490</ele>
        <time>2011-08-01T16:49:10Z</time>
      </trkpt>
      <trkpt lat="45.77024" lon="6.22473">
        <ele>491</ele>
        <time>2011-08-01T16:49:17Z</time>
      </trkpt>
      <trkpt lat="45.77018" lon="6.22456">
        <ele>491</ele>
        <time>2011-08-01T16:49:20Z</time>
      </trkpt>
      <trkpt lat="45.76997" lon="6.22423">
        <ele>491</ele>
        <time>2011-08-01T16:49:27Z</time>
      </trkpt>
      <trkpt lat="45.76994" lon="6.2242">
        <ele>491</ele>
        <time>2011-08-01T16:49:28Z</time>
      </trkpt>
      <trkpt lat="45.76958" lon="6.22395">
        <ele>493</ele>
        <time>2011-08-01T16:49:37Z</time>
      </trkpt>
      <trkpt lat="45.76936" lon="6.22376">
        <ele>493</ele>
        <time>2011-08-01T16:49:43Z</time>
      </trkpt>
      <trkpt lat="45.76913" lon="6.22344">
        <ele>495</ele>
        <time>2011-08-01T16:49:51Z</time>
      </trkpt>
      <trkpt lat="45.76899" lon="6.22338">
        <ele>495</ele>
        <time>2011-08-01T16:49:57Z</time>
      </trkpt>
      <trkpt lat="45.76895" lon="6.22338">
        <ele>495</ele>
        <time>2011-08-01T16:50:02Z</time>
      </trkpt>
      <trkpt lat="45.76848" lon="6.2231">
        <ele>497</ele>
        <time>2011-08-01T16:50:34Z</time>
      </trkpt>
      <trkpt lat="45.76837" lon="6.22309">
        <ele>497</ele>
        <time>2011-08-01T16:50:38Z</time>
      </trkpt>
      <trkpt lat="45.76841" lon="6.2235">
        <ele>498</ele>
        <time>2011-08-01T16:50:53Z</time>
      </trkpt>
      <trkpt lat="45.76883" lon="6.2234">
        <ele>496</ele>
        <time>2011-08-01T16:51:20Z</time>
      </trkpt>
      <trkpt lat="45.76898" lon="6.22335">
        <ele>495</ele>
        <time>2011-08-01T16:51:25Z</time>
      </trkpt>
      <trkpt lat="45.76903" lon="6.22331">
        <ele>495</ele>
        <time>2011-08-01T16:51:29Z</time>
      </trkpt>
      <trkpt lat="45.769" lon="6.22323">
        <ele>495</ele>
        <time>2011-08-01T16:51:37Z</time>
      </trkpt>
      <trkpt lat="45.76899" lon="6.2232">
        <ele>495</ele>
        <time>2011-08-01T16:51:40Z</time>
      </trkpt>
      <trkpt lat="45.76898" lon="6.22359">
        <ele>496</ele>
        <time>2011-08-01T16:51:44Z</time>
      </trkpt>
      <trkpt lat="45.76901" lon="6.22351">
        <ele>495</ele>
        <time>2011-08-01T16:51:51Z</time>
      </trkpt>
      <trkpt lat="45.76902" lon="6.22351">
        <ele>495</ele>
        <time>2011-08-01T16:51:55Z</time>
      </trkpt>
      <trkpt lat="45.76898" lon="6.22352">
        <ele>496</ele>
        <time>2011-08-01T16:52:09Z</time>
      </trkpt>
      <trkpt lat="45.76897" lon="6.2235">
        <ele>495</ele>
        <time>2011-08-01T16:53:51Z</time>
      </trkpt>
      <trkpt lat="45.76899" lon="6.2235">
        <ele>495</ele>
        <time>2011-08-01T16:53:57Z</time>
      </trkpt>
    </trkseg>
  </trk>
</gpx>